<?xml version="1.0" encoding="UTF-8" standalone="no" ?><gpx xmlns="http://www.topografix.com/GPX/1/1" xmlns:gpxx="http://www.garmin.com/xmlschemas/GpxExtensions/v3" xmlns:wptx1="http://www.garmin.com/xmlschemas/WaypointExtension/v1" xmlns:gpxtpx="http://www.garmin.com/xmlschemas/TrackPointExtension/v1" creator="Alpha 50 EU" version="1.1" xmlns:xsi="http://www.w3.org/2001/XMLSchema-instance" xsi:schemaLocation="http://www.topografix.com/GPX/1/1 http://www.topografix.com/GPX/1/1/gpx.xsd http://www.garmin.com/xmlschemas/GpxExtensions/v3 http://www8.garmin.com/xmlschemas/GpxExtensionsv3.xsd http://www.garmin.com/xmlschemas/WaypointExtension/v1 http://www8.garmin.com/xmlschemas/WaypointExtensionv1.xsd http://www.garmin.com/xmlschemas/TrackPointExtension/v1 http://www.garmin.com/xmlschemas/TrackPointExtensionv1.xsd"><metadata><link href="http://www.garmin.com"><text>Garmin International</text></link><time>2026-04-25T14:20:53Z</time></metadata><trk><name>2026-04-25 17:20:49</name><extensions><gpxx:TrackExtension><gpxx:DisplayColor>LightGray</gpxx:DisplayColor></gpxx:TrackExtension></extensions><trkseg><trkpt lat="59.0634012222" lon="30.0310850143"><time>2026-04-25T08:42:48Z</time></trkpt><trkpt lat="59.0634012222" lon="30.0310850143"><time>2026-04-25T08:42:50Z</time></trkpt><trkpt lat="59.0634012222" lon="30.0310850143"><time>2026-04-25T08:42:53Z</time></trkpt><trkpt lat="59.0634012222" lon="30.0310850143"><time>2026-04-25T08:42:55Z</time></trkpt><trkpt lat="59.0634012222" lon="30.0310850143"><time>2026-04-25T08:42:58Z</time></trkpt><trkpt lat="59.0634012222" lon="30.0310850143"><time>2026-04-25T08:43:00Z</time></trkpt><trkpt lat="59.0634012222" lon="30.0310850143"><time>2026-04-25T08:43:03Z</time></trkpt><trkpt lat="59.0634012222" lon="30.0310850143"><time>2026-04-25T08:43:05Z</time></trkpt><trkpt lat="59.0634012222" lon="30.0310850143"><time>2026-04-25T08:43:08Z</time></trkpt><trkpt lat="59.0634012222" lon="30.0310850143"><time>2026-04-25T08:43:10Z</time></trkpt><trkpt lat="59.0634012222" lon="30.0310850143"><time>2026-04-25T08:43:13Z</time></trkpt><trkpt lat="59.0634012222" lon="30.0310850143"><time>2026-04-25T08:43:45Z</time></trkpt><trkpt lat="59.0634012222" lon="30.0310850143"><time>2026-04-25T08:43:48Z</time></trkpt><trkpt lat="59.0634012222" lon="30.0310850143"><time>2026-04-25T08:43:53Z</time></trkpt><trkpt lat="59.0634012222" lon="30.0310850143"><time>2026-04-25T08:43:55Z</time></trkpt><trkpt lat="59.0634012222" lon="30.0310850143"><time>2026-04-25T08:43:58Z</time></trkpt><trkpt lat="59.0634226799" lon="30.0310420990"><time>2026-04-25T08:44:00Z</time></trkpt><trkpt lat="59.0634655952" lon="30.0310206413"><time>2026-04-25T08:44:03Z</time></trkpt><trkpt lat="59.0634870529" lon="30.0309562683"><time>2026-04-25T08:44:05Z</time></trkpt><trkpt lat="59.0635299683" lon="30.0309348106"><time>2026-04-25T08:44:08Z</time></trkpt><trkpt lat="59.0635085106" lon="30.0309562683"><time>2026-04-25T08:44:10Z</time></trkpt><trkpt lat="59.0635085106" lon="30.0309562683"><time>2026-04-25T08:44:13Z</time></trkpt><trkpt lat="59.0635299683" lon="30.0309562683"><time>2026-04-25T08:44:15Z</time></trkpt><trkpt lat="59.0635299683" lon="30.0309348106"><time>2026-04-25T08:44:18Z</time></trkpt><trkpt lat="59.0635514259" lon="30.0309133530"><time>2026-04-25T08:44:20Z</time></trkpt><trkpt lat="59.0636157990" lon="30.0308704376"><time>2026-04-25T08:44:30Z</time></trkpt><trkpt lat="59.0636587143" lon="30.0308489799"><time>2026-04-25T08:44:33Z</time></trkpt><trkpt lat="59.0636372566" lon="30.0308489799"><time>2026-04-25T08:44:35Z</time></trkpt><trkpt lat="59.0636372566" lon="30.0308704376"><time>2026-04-25T08:44:38Z</time></trkpt><trkpt lat="59.0636372566" lon="30.0308704376"><time>2026-04-25T08:44:40Z</time></trkpt><trkpt lat="59.0636372566" lon="30.0308704376"><time>2026-04-25T08:44:43Z</time></trkpt><trkpt lat="59.0636801720" lon="30.0308704376"><time>2026-04-25T08:44:45Z</time></trkpt><trkpt lat="59.0637445450" lon="30.0308489799"><time>2026-04-25T08:44:48Z</time></trkpt><trkpt lat="59.0637874603" lon="30.0308275223"><time>2026-04-25T08:44:50Z</time></trkpt><trkpt lat="59.0637660027" lon="30.0308275223"><time>2026-04-25T08:44:53Z</time></trkpt><trkpt lat="59.0637874603" lon="30.0308275223"><time>2026-04-25T08:44:55Z</time></trkpt><trkpt lat="59.0638089180" lon="30.0308275223"><time>2026-04-25T08:44:58Z</time></trkpt><trkpt lat="59.0637874603" lon="30.0308275223"><time>2026-04-25T08:45:00Z</time></trkpt><trkpt lat="59.0637874603" lon="30.0308275223"><time>2026-04-25T08:45:03Z</time></trkpt><trkpt lat="59.0637874603" lon="30.0308275223"><time>2026-04-25T08:45:05Z</time></trkpt><trkpt lat="59.0637874603" lon="30.0308275223"><time>2026-04-25T08:45:08Z</time></trkpt><trkpt lat="59.0637874603" lon="30.0308275223"><time>2026-04-25T08:45:10Z</time></trkpt><trkpt lat="59.0637874603" lon="30.0308275223"><time>2026-04-25T08:45:13Z</time></trkpt><trkpt lat="59.0637874603" lon="30.0308275223"><time>2026-04-25T08:45:15Z</time></trkpt><trkpt lat="59.0637874603" lon="30.0308275223"><time>2026-04-25T08:45:18Z</time></trkpt><trkpt lat="59.0638089180" lon="30.0308275223"><time>2026-04-25T08:45:20Z</time></trkpt><trkpt lat="59.0638089180" lon="30.0308275223"><time>2026-04-25T08:45:23Z</time></trkpt><trkpt lat="59.0637874603" lon="30.0308275223"><time>2026-04-25T08:45:25Z</time></trkpt><trkpt lat="59.0637660027" lon="30.0307416916"><time>2026-04-25T08:45:28Z</time></trkpt><trkpt lat="59.0637874603" lon="30.0306987762"><time>2026-04-25T08:45:30Z</time></trkpt><trkpt lat="59.0638089180" lon="30.0306344032"><time>2026-04-25T08:45:33Z</time></trkpt><trkpt lat="59.0638089180" lon="30.0306129456"><time>2026-04-25T08:45:35Z</time></trkpt><trkpt lat="59.0638303757" lon="30.0306129456"><time>2026-04-25T08:45:38Z</time></trkpt><trkpt lat="59.0638732910" lon="30.0305914879"><time>2026-04-25T08:45:40Z</time></trkpt><trkpt lat="59.0639162064" lon="30.0305485725"><time>2026-04-25T08:45:43Z</time></trkpt><trkpt lat="59.0639376640" lon="30.0305271149"><time>2026-04-25T08:45:45Z</time></trkpt><trkpt lat="59.0639162064" lon="30.0305056572"><time>2026-04-25T08:45:48Z</time></trkpt><trkpt lat="59.0639162064" lon="30.0304412842"><time>2026-04-25T08:45:50Z</time></trkpt><trkpt lat="59.0638947487" lon="30.0303983688"><time>2026-04-25T08:45:53Z</time></trkpt><trkpt lat="59.0638947487" lon="30.0303554535"><time>2026-04-25T08:45:55Z</time></trkpt><trkpt lat="59.0638947487" lon="30.0303554535"><time>2026-04-25T08:45:58Z</time></trkpt><trkpt lat="59.0638947487" lon="30.0302696228"><time>2026-04-25T08:46:00Z</time></trkpt><trkpt lat="59.0639376640" lon="30.0302052498"><time>2026-04-25T08:46:03Z</time></trkpt><trkpt lat="59.0638947487" lon="30.0302267075"><time>2026-04-25T08:46:05Z</time></trkpt><trkpt lat="59.0638518333" lon="30.0302910805"><time>2026-04-25T08:46:08Z</time></trkpt><trkpt lat="59.0638732910" lon="30.0303983688"><time>2026-04-25T08:46:10Z</time></trkpt><trkpt lat="59.0638732910" lon="30.0305056572"><time>2026-04-25T08:46:13Z</time></trkpt><trkpt lat="59.0639162064" lon="30.0306129456"><time>2026-04-25T08:46:15Z</time></trkpt><trkpt lat="59.0639376640" lon="30.0306773186"><time>2026-04-25T08:46:18Z</time></trkpt><trkpt lat="59.0639376640" lon="30.0306987762"><time>2026-04-25T08:46:20Z</time></trkpt><trkpt lat="59.0639376640" lon="30.0306987762"><time>2026-04-25T08:46:23Z</time></trkpt><trkpt lat="59.0639591217" lon="30.0307202339"><time>2026-04-25T08:46:25Z</time></trkpt><trkpt lat="59.0640020370" lon="30.0307202339"><time>2026-04-25T08:46:28Z</time></trkpt><trkpt lat="59.0640020370" lon="30.0307631493"><time>2026-04-25T08:46:30Z</time></trkpt><trkpt lat="59.0640020370" lon="30.0307416916"><time>2026-04-25T08:46:33Z</time></trkpt><trkpt lat="59.0640020370" lon="30.0307631493"><time>2026-04-25T08:46:35Z</time></trkpt><trkpt lat="59.0640234947" lon="30.0307631493"><time>2026-04-25T08:46:38Z</time></trkpt><trkpt lat="59.0640020370" lon="30.0307846069"><time>2026-04-25T08:46:40Z</time></trkpt><trkpt lat="59.0640020370" lon="30.0307846069"><time>2026-04-25T08:46:43Z</time></trkpt><trkpt lat="59.0640234947" lon="30.0307631493"><time>2026-04-25T08:46:45Z</time></trkpt><trkpt lat="59.0640664101" lon="30.0307202339"><time>2026-04-25T08:46:48Z</time></trkpt><trkpt lat="59.0641307831" lon="30.0308275223"><time>2026-04-25T08:46:50Z</time></trkpt><trkpt lat="59.0641951561" lon="30.0308275223"><time>2026-04-25T08:46:53Z</time></trkpt><trkpt lat="59.0641951561" lon="30.0306987762"><time>2026-04-25T08:46:55Z</time></trkpt><trkpt lat="59.0642380714" lon="30.0306773186"><time>2026-04-25T08:46:58Z</time></trkpt><trkpt lat="59.0643239021" lon="30.0306344032"><time>2026-04-25T08:47:00Z</time></trkpt><trkpt lat="59.0643668175" lon="30.0306129456"><time>2026-04-25T08:47:03Z</time></trkpt><trkpt lat="59.0643453598" lon="30.0306344032"><time>2026-04-25T08:47:05Z</time></trkpt><trkpt lat="59.0643453598" lon="30.0306344032"><time>2026-04-25T08:47:08Z</time></trkpt><trkpt lat="59.0643668175" lon="30.0306129456"><time>2026-04-25T08:47:10Z</time></trkpt><trkpt lat="59.0643239021" lon="30.0306344032"><time>2026-04-25T08:47:13Z</time></trkpt><trkpt lat="59.0643024445" lon="30.0306773186"><time>2026-04-25T08:47:15Z</time></trkpt><trkpt lat="59.0643024445" lon="30.0306773186"><time>2026-04-25T08:47:18Z</time></trkpt><trkpt lat="59.0643239021" lon="30.0306558609"><time>2026-04-25T08:47:20Z</time></trkpt><trkpt lat="59.0643668175" lon="30.0306558609"><time>2026-04-25T08:47:23Z</time></trkpt><trkpt lat="59.0644097328" lon="30.0305914879"><time>2026-04-25T08:47:25Z</time></trkpt><trkpt lat="59.0644955635" lon="30.0305485725"><time>2026-04-25T08:47:28Z</time></trkpt><trkpt lat="59.0645813942" lon="30.0305271149"><time>2026-04-25T08:47:30Z</time></trkpt><trkpt lat="59.0646243095" lon="30.0305056572"><time>2026-04-25T08:47:33Z</time></trkpt><trkpt lat="59.0646028519" lon="30.0305056572"><time>2026-04-25T08:47:35Z</time></trkpt><trkpt lat="59.0646028519" lon="30.0304841995"><time>2026-04-25T08:47:38Z</time></trkpt><trkpt lat="59.0646028519" lon="30.0305056572"><time>2026-04-25T08:47:40Z</time></trkpt><trkpt lat="59.0646028519" lon="30.0305056572"><time>2026-04-25T08:47:43Z</time></trkpt><trkpt lat="59.0646028519" lon="30.0305056572"><time>2026-04-25T08:47:45Z</time></trkpt><trkpt lat="59.0646028519" lon="30.0305056572"><time>2026-04-25T08:47:48Z</time></trkpt><trkpt lat="59.0646243095" lon="30.0305056572"><time>2026-04-25T08:47:50Z</time></trkpt><trkpt lat="59.0647745132" lon="30.0304841995"><time>2026-04-25T08:47:53Z</time></trkpt><trkpt lat="59.0647745132" lon="30.0305271149"><time>2026-04-25T08:47:55Z</time></trkpt><trkpt lat="59.0647745132" lon="30.0305056572"><time>2026-04-25T08:47:58Z</time></trkpt><trkpt lat="59.0648174286" lon="30.0304627419"><time>2026-04-25T08:48:00Z</time></trkpt><trkpt lat="59.0649461746" lon="30.0304412842"><time>2026-04-25T08:48:03Z</time></trkpt><trkpt lat="59.0649247169" lon="30.0304412842"><time>2026-04-25T08:48:05Z</time></trkpt><trkpt lat="59.0649247169" lon="30.0304412842"><time>2026-04-25T08:48:08Z</time></trkpt><trkpt lat="59.0649247169" lon="30.0304412842"><time>2026-04-25T08:48:10Z</time></trkpt><trkpt lat="59.0649247169" lon="30.0304412842"><time>2026-04-25T08:48:13Z</time></trkpt><trkpt lat="59.0649247169" lon="30.0304412842"><time>2026-04-25T08:48:15Z</time></trkpt><trkpt lat="59.0649247169" lon="30.0304412842"><time>2026-04-25T08:48:18Z</time></trkpt><trkpt lat="59.0649247169" lon="30.0304412842"><time>2026-04-25T08:48:20Z</time></trkpt><trkpt lat="59.0649676323" lon="30.0304412842"><time>2026-04-25T08:48:23Z</time></trkpt><trkpt lat="59.0650963783" lon="30.0303554535"><time>2026-04-25T08:48:25Z</time></trkpt><trkpt lat="59.0652251244" lon="30.0303125381"><time>2026-04-25T08:48:28Z</time></trkpt><trkpt lat="59.0652680397" lon="30.0303125381"><time>2026-04-25T08:48:30Z</time></trkpt><trkpt lat="59.0652465820" lon="30.0303339958"><time>2026-04-25T08:48:33Z</time></trkpt><trkpt lat="59.0652465820" lon="30.0303339958"><time>2026-04-25T08:48:35Z</time></trkpt><trkpt lat="59.0652894974" lon="30.0303339958"><time>2026-04-25T08:48:38Z</time></trkpt><trkpt lat="59.0653753281" lon="30.0303125381"><time>2026-04-25T08:48:40Z</time></trkpt><trkpt lat="59.0654611588" lon="30.0302696228"><time>2026-04-25T08:48:43Z</time></trkpt><trkpt lat="59.0653967857" lon="30.0302910805"><time>2026-04-25T08:48:45Z</time></trkpt><trkpt lat="59.0653967857" lon="30.0303125381"><time>2026-04-25T08:48:48Z</time></trkpt><trkpt lat="59.0653967857" lon="30.0303125381"><time>2026-04-25T08:48:50Z</time></trkpt><trkpt lat="59.0653967857" lon="30.0303125381"><time>2026-04-25T08:48:53Z</time></trkpt><trkpt lat="59.0654397011" lon="30.0302696228"><time>2026-04-25T08:48:55Z</time></trkpt><trkpt lat="59.0655469894" lon="30.0302052498"><time>2026-04-25T08:48:58Z</time></trkpt><trkpt lat="59.0655469894" lon="30.0301837921"><time>2026-04-25T08:49:00Z</time></trkpt><trkpt lat="59.0655469894" lon="30.0302052498"><time>2026-04-25T08:49:03Z</time></trkpt><trkpt lat="59.0655469894" lon="30.0302267075"><time>2026-04-25T08:49:05Z</time></trkpt><trkpt lat="59.0655469894" lon="30.0302267075"><time>2026-04-25T08:49:08Z</time></trkpt><trkpt lat="59.0655469894" lon="30.0302267075"><time>2026-04-25T08:49:10Z</time></trkpt><trkpt lat="59.0655469894" lon="30.0302267075"><time>2026-04-25T08:49:13Z</time></trkpt><trkpt lat="59.0656113625" lon="30.0302481651"><time>2026-04-25T08:49:15Z</time></trkpt><trkpt lat="59.0656542778" lon="30.0302910805"><time>2026-04-25T08:49:18Z</time></trkpt><trkpt lat="59.0657401085" lon="30.0302696228"><time>2026-04-25T08:49:20Z</time></trkpt><trkpt lat="59.0658259392" lon="30.0302910805"><time>2026-04-25T08:49:23Z</time></trkpt><trkpt lat="59.0659332275" lon="30.0302481651"><time>2026-04-25T08:49:25Z</time></trkpt><trkpt lat="59.0659976006" lon="30.0302052498"><time>2026-04-25T08:49:28Z</time></trkpt><trkpt lat="59.0660405159" lon="30.0302267075"><time>2026-04-25T08:49:30Z</time></trkpt><trkpt lat="59.0660619736" lon="30.0301408768"><time>2026-04-25T08:49:33Z</time></trkpt><trkpt lat="59.0660190582" lon="30.0300765038"><time>2026-04-25T08:49:35Z</time></trkpt><trkpt lat="59.0660190582" lon="30.0300550461"><time>2026-04-25T08:49:38Z</time></trkpt><trkpt lat="59.0660190582" lon="30.0300765038"><time>2026-04-25T08:49:40Z</time></trkpt><trkpt lat="59.0660190582" lon="30.0300550461"><time>2026-04-25T08:49:43Z</time></trkpt><trkpt lat="59.0659761429" lon="30.0300765038"><time>2026-04-25T08:49:45Z</time></trkpt><trkpt lat="59.0659976006" lon="30.0300550461"><time>2026-04-25T08:49:48Z</time></trkpt><trkpt lat="59.0660834312" lon="30.0300335884"><time>2026-04-25T08:49:50Z</time></trkpt><trkpt lat="59.0661263466" lon="30.0300121307"><time>2026-04-25T08:49:53Z</time></trkpt><trkpt lat="59.0661478043" lon="30.0299263000"><time>2026-04-25T08:49:55Z</time></trkpt><trkpt lat="59.0661478043" lon="30.0299477577"><time>2026-04-25T08:49:58Z</time></trkpt><trkpt lat="59.0660834312" lon="30.0300121307"><time>2026-04-25T08:50:00Z</time></trkpt><trkpt lat="59.0659976006" lon="30.0300121307"><time>2026-04-25T08:50:03Z</time></trkpt><trkpt lat="59.0659976006" lon="30.0299906731"><time>2026-04-25T08:50:08Z</time></trkpt><trkpt lat="59.0660405159" lon="30.0300335884"><time>2026-04-25T08:50:10Z</time></trkpt><trkpt lat="59.0661263466" lon="30.0300121307"><time>2026-04-25T08:50:13Z</time></trkpt><trkpt lat="59.0661907196" lon="30.0299906731"><time>2026-04-25T08:50:15Z</time></trkpt><trkpt lat="59.0662336349" lon="30.0300335884"><time>2026-04-25T08:50:18Z</time></trkpt><trkpt lat="59.0662980080" lon="30.0300335884"><time>2026-04-25T08:50:20Z</time></trkpt><trkpt lat="59.0663194656" lon="30.0299692154"><time>2026-04-25T08:50:23Z</time></trkpt><trkpt lat="59.0663623810" lon="30.0299263000"><time>2026-04-25T08:50:25Z</time></trkpt><trkpt lat="59.0663838387" lon="30.0299263000"><time>2026-04-25T08:50:28Z</time></trkpt><trkpt lat="59.0663623810" lon="30.0299477577"><time>2026-04-25T08:50:30Z</time></trkpt><trkpt lat="59.0663623810" lon="30.0299477577"><time>2026-04-25T08:50:33Z</time></trkpt><trkpt lat="59.0663409233" lon="30.0299263000"><time>2026-04-25T08:50:35Z</time></trkpt><trkpt lat="59.0663409233" lon="30.0299263000"><time>2026-04-25T08:50:38Z</time></trkpt><trkpt lat="59.0663194656" lon="30.0299692154"><time>2026-04-25T08:50:40Z</time></trkpt><trkpt lat="59.0663194656" lon="30.0299906731"><time>2026-04-25T08:50:43Z</time></trkpt><trkpt lat="59.0662980080" lon="30.0300335884"><time>2026-04-25T08:50:45Z</time></trkpt><trkpt lat="59.0663194656" lon="30.0300335884"><time>2026-04-25T08:50:48Z</time></trkpt><trkpt lat="59.0663409233" lon="30.0299477577"><time>2026-04-25T08:50:50Z</time></trkpt><trkpt lat="59.0664267540" lon="30.0299048424"><time>2026-04-25T08:50:53Z</time></trkpt><trkpt lat="59.0665340424" lon="30.0298404694"><time>2026-04-25T08:50:55Z</time></trkpt><trkpt lat="59.0666198730" lon="30.0298619270"><time>2026-04-25T08:50:58Z</time></trkpt><trkpt lat="59.0666627884" lon="30.0298833847"><time>2026-04-25T08:51:00Z</time></trkpt><trkpt lat="59.0667271614" lon="30.0298619270"><time>2026-04-25T08:51:03Z</time></trkpt><trkpt lat="59.0667486191" lon="30.0298404694"><time>2026-04-25T08:51:05Z</time></trkpt><trkpt lat="59.0667700768" lon="30.0297975540"><time>2026-04-25T08:51:08Z</time></trkpt><trkpt lat="59.0666842461" lon="30.0298619270"><time>2026-04-25T08:51:10Z</time></trkpt><trkpt lat="59.0665769577" lon="30.0298404694"><time>2026-04-25T08:51:13Z</time></trkpt><trkpt lat="59.0665125847" lon="30.0298404694"><time>2026-04-25T08:51:15Z</time></trkpt><trkpt lat="59.0665125847" lon="30.0298404694"><time>2026-04-25T08:51:18Z</time></trkpt><trkpt lat="59.0665125847" lon="30.0298404694"><time>2026-04-25T08:51:20Z</time></trkpt><trkpt lat="59.0665125847" lon="30.0298404694"><time>2026-04-25T08:51:23Z</time></trkpt><trkpt lat="59.0665125847" lon="30.0298404694"><time>2026-04-25T08:51:25Z</time></trkpt><trkpt lat="59.0665555000" lon="30.0298404694"><time>2026-04-25T08:51:28Z</time></trkpt><trkpt lat="59.0665555000" lon="30.0298190117"><time>2026-04-25T08:51:30Z</time></trkpt><trkpt lat="59.0666198730" lon="30.0298404694"><time>2026-04-25T08:51:33Z</time></trkpt><trkpt lat="59.0667057037" lon="30.0298619270"><time>2026-04-25T08:51:35Z</time></trkpt><trkpt lat="59.0667271614" lon="30.0298619270"><time>2026-04-25T08:51:38Z</time></trkpt><trkpt lat="59.0667057037" lon="30.0298619270"><time>2026-04-25T08:51:40Z</time></trkpt><trkpt lat="59.0667057037" lon="30.0298619270"><time>2026-04-25T08:51:43Z</time></trkpt><trkpt lat="59.0667057037" lon="30.0298833847"><time>2026-04-25T08:51:45Z</time></trkpt><trkpt lat="59.0667057037" lon="30.0298833847"><time>2026-04-25T08:51:48Z</time></trkpt><trkpt lat="59.0667271614" lon="30.0298833847"><time>2026-04-25T08:51:50Z</time></trkpt><trkpt lat="59.0667486191" lon="30.0298190117"><time>2026-04-25T08:51:53Z</time></trkpt><trkpt lat="59.0667915344" lon="30.0297760963"><time>2026-04-25T08:51:55Z</time></trkpt><trkpt lat="59.0667700768" lon="30.0297760963"><time>2026-04-25T08:51:58Z</time></trkpt><trkpt lat="59.0667700768" lon="30.0297760963"><time>2026-04-25T08:52:00Z</time></trkpt><trkpt lat="59.0668344498" lon="30.0297117233"><time>2026-04-25T08:52:03Z</time></trkpt><trkpt lat="59.0669202805" lon="30.0296688080"><time>2026-04-25T08:52:05Z</time></trkpt><trkpt lat="59.0669846535" lon="30.0296258926"><time>2026-04-25T08:52:08Z</time></trkpt><trkpt lat="59.0670275688" lon="30.0296688080"><time>2026-04-25T08:52:10Z</time></trkpt><trkpt lat="59.0670275688" lon="30.0296902657"><time>2026-04-25T08:52:13Z</time></trkpt><trkpt lat="59.0670490265" lon="30.0297117233"><time>2026-04-25T08:52:15Z</time></trkpt><trkpt lat="59.0670704842" lon="30.0296688080"><time>2026-04-25T08:52:18Z</time></trkpt><trkpt lat="59.0670275688" lon="30.0297117233"><time>2026-04-25T08:52:20Z</time></trkpt><trkpt lat="59.0670061111" lon="30.0296688080"><time>2026-04-25T08:52:23Z</time></trkpt><trkpt lat="59.0671348572" lon="30.0296688080"><time>2026-04-25T08:52:25Z</time></trkpt><trkpt lat="59.0672421455" lon="30.0296473503"><time>2026-04-25T08:52:28Z</time></trkpt><trkpt lat="59.0673279762" lon="30.0296258926"><time>2026-04-25T08:52:30Z</time></trkpt><trkpt lat="59.0673708916" lon="30.0296044350"><time>2026-04-25T08:52:33Z</time></trkpt><trkpt lat="59.0673923492" lon="30.0295186043"><time>2026-04-25T08:52:35Z</time></trkpt><trkpt lat="59.0673494339" lon="30.0294971466"><time>2026-04-25T08:52:38Z</time></trkpt><trkpt lat="59.0672850609" lon="30.0295400620"><time>2026-04-25T08:52:40Z</time></trkpt><trkpt lat="59.0672421455" lon="30.0296473503"><time>2026-04-25T08:52:43Z</time></trkpt><trkpt lat="59.0672421455" lon="30.0296258926"><time>2026-04-25T08:52:45Z</time></trkpt><trkpt lat="59.0672850609" lon="30.0295829773"><time>2026-04-25T08:52:48Z</time></trkpt><trkpt lat="59.0674138069" lon="30.0295615196"><time>2026-04-25T08:52:50Z</time></trkpt><trkpt lat="59.0675210953" lon="30.0295186043"><time>2026-04-25T08:52:53Z</time></trkpt><trkpt lat="59.0675425529" lon="30.0295186043"><time>2026-04-25T08:52:55Z</time></trkpt><trkpt lat="59.0675210953" lon="30.0294971466"><time>2026-04-25T08:52:58Z</time></trkpt><trkpt lat="59.0675210953" lon="30.0294971466"><time>2026-04-25T08:53:00Z</time></trkpt><trkpt lat="59.0675640106" lon="30.0294542313"><time>2026-04-25T08:53:03Z</time></trkpt><trkpt lat="59.0676069260" lon="30.0294542313"><time>2026-04-25T08:53:06Z</time></trkpt><trkpt lat="59.0675854683" lon="30.0294542313"><time>2026-04-25T08:53:08Z</time></trkpt><trkpt lat="59.0675854683" lon="30.0294542313"><time>2026-04-25T08:53:10Z</time></trkpt><trkpt lat="59.0675854683" lon="30.0294756889"><time>2026-04-25T08:53:13Z</time></trkpt><trkpt lat="59.0676498413" lon="30.0294113159"><time>2026-04-25T08:53:15Z</time></trkpt><trkpt lat="59.0676927567" lon="30.0293684006"><time>2026-04-25T08:53:18Z</time></trkpt><trkpt lat="59.0677571297" lon="30.0293684006"><time>2026-04-25T08:53:20Z</time></trkpt><trkpt lat="59.0678000450" lon="30.0293898582"><time>2026-04-25T08:53:23Z</time></trkpt><trkpt lat="59.0676927567" lon="30.0294113159"><time>2026-04-25T08:53:25Z</time></trkpt><trkpt lat="59.0676069260" lon="30.0294327736"><time>2026-04-25T08:53:28Z</time></trkpt><trkpt lat="59.0676069260" lon="30.0294113159"><time>2026-04-25T08:53:30Z</time></trkpt><trkpt lat="59.0676283836" lon="30.0294327736"><time>2026-04-25T08:53:33Z</time></trkpt><trkpt lat="59.0676712990" lon="30.0294542313"><time>2026-04-25T08:53:35Z</time></trkpt><trkpt lat="59.0676712990" lon="30.0294542313"><time>2026-04-25T08:53:38Z</time></trkpt><trkpt lat="59.0677356720" lon="30.0294756889"><time>2026-04-25T08:53:40Z</time></trkpt><trkpt lat="59.0677785873" lon="30.0294756889"><time>2026-04-25T08:53:43Z</time></trkpt><trkpt lat="59.0678000450" lon="30.0294542313"><time>2026-04-25T08:53:45Z</time></trkpt><trkpt lat="59.0678000450" lon="30.0294542313"><time>2026-04-25T08:53:48Z</time></trkpt><trkpt lat="59.0678429604" lon="30.0294542313"><time>2026-04-25T08:53:50Z</time></trkpt><trkpt lat="59.0679287910" lon="30.0294113159"><time>2026-04-25T08:53:53Z</time></trkpt><trkpt lat="59.0679287910" lon="30.0294113159"><time>2026-04-25T08:53:55Z</time></trkpt><trkpt lat="59.0679287910" lon="30.0294113159"><time>2026-04-25T08:53:58Z</time></trkpt><trkpt lat="59.0679287910" lon="30.0294113159"><time>2026-04-25T08:54:00Z</time></trkpt><trkpt lat="59.0679287910" lon="30.0293898582"><time>2026-04-25T08:54:03Z</time></trkpt><trkpt lat="59.0679717064" lon="30.0293469429"><time>2026-04-25T08:54:05Z</time></trkpt><trkpt lat="59.0680360794" lon="30.0293040276"><time>2026-04-25T08:54:08Z</time></trkpt><trkpt lat="59.0680146217" lon="30.0293254852"><time>2026-04-25T08:54:10Z</time></trkpt><trkpt lat="59.0680146217" lon="30.0293254852"><time>2026-04-25T08:54:13Z</time></trkpt><trkpt lat="59.0679931641" lon="30.0293254852"><time>2026-04-25T08:54:15Z</time></trkpt><trkpt lat="59.0680146217" lon="30.0293040276"><time>2026-04-25T08:54:18Z</time></trkpt><trkpt lat="59.0680789948" lon="30.0292825699"><time>2026-04-25T08:54:20Z</time></trkpt><trkpt lat="59.0681433678" lon="30.0293469429"><time>2026-04-25T08:54:23Z</time></trkpt><trkpt lat="59.0682291985" lon="30.0293040276"><time>2026-04-25T08:54:25Z</time></trkpt><trkpt lat="59.0683150291" lon="30.0293040276"><time>2026-04-25T08:54:28Z</time></trkpt><trkpt lat="59.0683579445" lon="30.0292611122"><time>2026-04-25T08:54:30Z</time></trkpt><trkpt lat="59.0684008598" lon="30.0291752815"><time>2026-04-25T08:54:33Z</time></trkpt><trkpt lat="59.0684223175" lon="30.0291538239"><time>2026-04-25T08:54:35Z</time></trkpt><trkpt lat="59.0683794022" lon="30.0291538239"><time>2026-04-25T08:54:38Z</time></trkpt><trkpt lat="59.0683364868" lon="30.0292611122"><time>2026-04-25T08:54:40Z</time></trkpt><trkpt lat="59.0683364868" lon="30.0293684006"><time>2026-04-25T08:54:43Z</time></trkpt><trkpt lat="59.0683794022" lon="30.0295400620"><time>2026-04-25T08:54:45Z</time></trkpt><trkpt lat="59.0683579445" lon="30.0296473503"><time>2026-04-25T08:54:48Z</time></trkpt><trkpt lat="59.0683150291" lon="30.0296044350"><time>2026-04-25T08:54:50Z</time></trkpt><trkpt lat="59.0682935715" lon="30.0295186043"><time>2026-04-25T08:54:53Z</time></trkpt><trkpt lat="59.0683364868" lon="30.0293254852"><time>2026-04-25T08:54:55Z</time></trkpt><trkpt lat="59.0684437752" lon="30.0292825699"><time>2026-04-25T08:54:58Z</time></trkpt><trkpt lat="59.0685296059" lon="30.0292396545"><time>2026-04-25T08:55:00Z</time></trkpt><trkpt lat="59.0685725212" lon="30.0291967392"><time>2026-04-25T08:55:03Z</time></trkpt><trkpt lat="59.0686154366" lon="30.0291752815"><time>2026-04-25T08:55:05Z</time></trkpt><trkpt lat="59.0686798096" lon="30.0291323662"><time>2026-04-25T08:55:08Z</time></trkpt><trkpt lat="59.0686583519" lon="30.0291538239"><time>2026-04-25T08:55:10Z</time></trkpt><trkpt lat="59.0686798096" lon="30.0291538239"><time>2026-04-25T08:55:13Z</time></trkpt><trkpt lat="59.0687227249" lon="30.0291323662"><time>2026-04-25T08:55:15Z</time></trkpt><trkpt lat="59.0687870979" lon="30.0291323662"><time>2026-04-25T08:55:18Z</time></trkpt><trkpt lat="59.0687656403" lon="30.0291538239"><time>2026-04-25T08:55:20Z</time></trkpt><trkpt lat="59.0687656403" lon="30.0291538239"><time>2026-04-25T08:55:23Z</time></trkpt><trkpt lat="59.0687656403" lon="30.0291538239"><time>2026-04-25T08:55:25Z</time></trkpt><trkpt lat="59.0687656403" lon="30.0291538239"><time>2026-04-25T08:55:28Z</time></trkpt><trkpt lat="59.0688300133" lon="30.0291109085"><time>2026-04-25T08:55:30Z</time></trkpt><trkpt lat="59.0688729286" lon="30.0290679932"><time>2026-04-25T08:55:33Z</time></trkpt><trkpt lat="59.0689158440" lon="30.0290465355"><time>2026-04-25T08:55:35Z</time></trkpt><trkpt lat="59.0689373016" lon="30.0290465355"><time>2026-04-25T08:55:38Z</time></trkpt><trkpt lat="59.0689587593" lon="30.0291538239"><time>2026-04-25T08:55:40Z</time></trkpt><trkpt lat="59.0689373016" lon="30.0292181969"><time>2026-04-25T08:55:43Z</time></trkpt><trkpt lat="59.0688943863" lon="30.0291538239"><time>2026-04-25T08:55:45Z</time></trkpt><trkpt lat="59.0688514709" lon="30.0290894508"><time>2026-04-25T08:55:48Z</time></trkpt><trkpt lat="59.0688729286" lon="30.0290679932"><time>2026-04-25T08:55:50Z</time></trkpt><trkpt lat="59.0690016747" lon="30.0290036201"><time>2026-04-25T08:55:53Z</time></trkpt><trkpt lat="59.0691304207" lon="30.0289607048"><time>2026-04-25T08:55:55Z</time></trkpt><trkpt lat="59.0692377090" lon="30.0289607048"><time>2026-04-25T08:55:58Z</time></trkpt><trkpt lat="59.0693020821" lon="30.0289177895"><time>2026-04-25T08:56:00Z</time></trkpt><trkpt lat="59.0693879128" lon="30.0288963318"><time>2026-04-25T08:56:03Z</time></trkpt><trkpt lat="59.0694522858" lon="30.0288748741"><time>2026-04-25T08:56:05Z</time></trkpt><trkpt lat="59.0694952011" lon="30.0288963318"><time>2026-04-25T08:56:08Z</time></trkpt><trkpt lat="59.0694522858" lon="30.0289392471"><time>2026-04-25T08:56:10Z</time></trkpt><trkpt lat="59.0693235397" lon="30.0289607048"><time>2026-04-25T08:56:13Z</time></trkpt><trkpt lat="59.0691733360" lon="30.0290036201"><time>2026-04-25T08:56:15Z</time></trkpt><trkpt lat="59.0691304207" lon="30.0290036201"><time>2026-04-25T08:56:18Z</time></trkpt><trkpt lat="59.0691304207" lon="30.0290036201"><time>2026-04-25T08:56:20Z</time></trkpt><trkpt lat="59.0691518784" lon="30.0290036201"><time>2026-04-25T08:56:23Z</time></trkpt><trkpt lat="59.0692162514" lon="30.0290894508"><time>2026-04-25T08:56:25Z</time></trkpt><trkpt lat="59.0692591667" lon="30.0290465355"><time>2026-04-25T08:56:28Z</time></trkpt><trkpt lat="59.0692162514" lon="30.0289821625"><time>2026-04-25T08:56:30Z</time></trkpt><trkpt lat="59.0692377090" lon="30.0289607048"><time>2026-04-25T08:56:33Z</time></trkpt><trkpt lat="59.0692806244" lon="30.0289607048"><time>2026-04-25T08:56:35Z</time></trkpt><trkpt lat="59.0693449974" lon="30.0289392471"><time>2026-04-25T08:56:38Z</time></trkpt><trkpt lat="59.0693235397" lon="30.0289392471"><time>2026-04-25T08:56:40Z</time></trkpt><trkpt lat="59.0693235397" lon="30.0289177895"><time>2026-04-25T08:56:43Z</time></trkpt><trkpt lat="59.0693449974" lon="30.0289177895"><time>2026-04-25T08:56:45Z</time></trkpt><trkpt lat="59.0693664551" lon="30.0288963318"><time>2026-04-25T08:56:48Z</time></trkpt><trkpt lat="59.0693879128" lon="30.0288534164"><time>2026-04-25T08:56:50Z</time></trkpt><trkpt lat="59.0693879128" lon="30.0288534164"><time>2026-04-25T08:56:53Z</time></trkpt><trkpt lat="59.0693879128" lon="30.0288534164"><time>2026-04-25T08:56:55Z</time></trkpt><trkpt lat="59.0694093704" lon="30.0288748741"><time>2026-04-25T08:56:58Z</time></trkpt><trkpt lat="59.0695381165" lon="30.0288319588"><time>2026-04-25T08:57:00Z</time></trkpt><trkpt lat="59.0696454048" lon="30.0288319588"><time>2026-04-25T08:57:03Z</time></trkpt><trkpt lat="59.0696668625" lon="30.0288319588"><time>2026-04-25T08:57:05Z</time></trkpt><trkpt lat="59.0696668625" lon="30.0287890434"><time>2026-04-25T08:57:08Z</time></trkpt><trkpt lat="59.0696883202" lon="30.0287675858"><time>2026-04-25T08:57:10Z</time></trkpt><trkpt lat="59.0697312355" lon="30.0287675858"><time>2026-04-25T08:57:13Z</time></trkpt><trkpt lat="59.0697741508" lon="30.0287461281"><time>2026-04-25T08:57:15Z</time></trkpt><trkpt lat="59.0697956085" lon="30.0286817551"><time>2026-04-25T08:57:18Z</time></trkpt><trkpt lat="59.0698385239" lon="30.0286173820"><time>2026-04-25T08:57:20Z</time></trkpt><trkpt lat="59.0698385239" lon="30.0285530090"><time>2026-04-25T08:57:23Z</time></trkpt><trkpt lat="59.0698385239" lon="30.0285100937"><time>2026-04-25T08:57:25Z</time></trkpt><trkpt lat="59.0698385239" lon="30.0285315514"><time>2026-04-25T08:57:28Z</time></trkpt><trkpt lat="59.0698599815" lon="30.0286173820"><time>2026-04-25T08:57:30Z</time></trkpt><trkpt lat="59.0698814392" lon="30.0286602974"><time>2026-04-25T08:57:33Z</time></trkpt><trkpt lat="59.0698814392" lon="30.0286173820"><time>2026-04-25T08:57:35Z</time></trkpt><trkpt lat="59.0699243546" lon="30.0286602974"><time>2026-04-25T08:57:38Z</time></trkpt><trkpt lat="59.0699458122" lon="30.0286388397"><time>2026-04-25T08:57:40Z</time></trkpt><trkpt lat="59.0699243546" lon="30.0286173820"><time>2026-04-25T08:57:43Z</time></trkpt><trkpt lat="59.0699243546" lon="30.0286602974"><time>2026-04-25T08:57:45Z</time></trkpt><trkpt lat="59.0699458122" lon="30.0286817551"><time>2026-04-25T08:57:48Z</time></trkpt><trkpt lat="59.0699672699" lon="30.0287246704"><time>2026-04-25T08:57:50Z</time></trkpt><trkpt lat="59.0700101852" lon="30.0287032127"><time>2026-04-25T08:57:53Z</time></trkpt><trkpt lat="59.0700745583" lon="30.0286817551"><time>2026-04-25T08:57:55Z</time></trkpt><trkpt lat="59.0701389313" lon="30.0286602974"><time>2026-04-25T08:57:58Z</time></trkpt><trkpt lat="59.0701818466" lon="30.0286388397"><time>2026-04-25T08:58:00Z</time></trkpt><trkpt lat="59.0702247620" lon="30.0286173820"><time>2026-04-25T08:58:03Z</time></trkpt><trkpt lat="59.0702676773" lon="30.0286173820"><time>2026-04-25T08:58:05Z</time></trkpt><trkpt lat="59.0703105927" lon="30.0285959244"><time>2026-04-25T08:58:08Z</time></trkpt><trkpt lat="59.0703749657" lon="30.0285959244"><time>2026-04-25T08:58:10Z</time></trkpt><trkpt lat="59.0703964233" lon="30.0285959244"><time>2026-04-25T08:58:13Z</time></trkpt><trkpt lat="59.0704607964" lon="30.0285530090"><time>2026-04-25T08:58:15Z</time></trkpt><trkpt lat="59.0705037117" lon="30.0285315514"><time>2026-04-25T08:58:18Z</time></trkpt><trkpt lat="59.0705251694" lon="30.0284457207"><time>2026-04-25T08:58:20Z</time></trkpt><trkpt lat="59.0705680847" lon="30.0283598900"><time>2026-04-25T08:58:23Z</time></trkpt><trkpt lat="59.0705251694" lon="30.0284028053"><time>2026-04-25T08:58:25Z</time></trkpt><trkpt lat="59.0704607964" lon="30.0284886360"><time>2026-04-25T08:58:28Z</time></trkpt><trkpt lat="59.0703749657" lon="30.0285959244"><time>2026-04-25T08:58:30Z</time></trkpt><trkpt lat="59.0704607964" lon="30.0286602974"><time>2026-04-25T08:58:33Z</time></trkpt><trkpt lat="59.0705251694" lon="30.0287032127"><time>2026-04-25T08:58:35Z</time></trkpt><trkpt lat="59.0706324577" lon="30.0287032127"><time>2026-04-25T08:58:38Z</time></trkpt><trkpt lat="59.0707182884" lon="30.0286602974"><time>2026-04-25T08:58:40Z</time></trkpt><trkpt lat="59.0708041191" lon="30.0287032127"><time>2026-04-25T08:58:43Z</time></trkpt><trkpt lat="59.0708470345" lon="30.0286173820"><time>2026-04-25T08:58:45Z</time></trkpt><trkpt lat="59.0708255768" lon="30.0285315514"><time>2026-04-25T08:58:48Z</time></trkpt><trkpt lat="59.0708255768" lon="30.0284457207"><time>2026-04-25T08:58:50Z</time></trkpt><trkpt lat="59.0708041191" lon="30.0283598900"><time>2026-04-25T08:58:53Z</time></trkpt><trkpt lat="59.0707612038" lon="30.0283813477"><time>2026-04-25T08:58:55Z</time></trkpt><trkpt lat="59.0707397461" lon="30.0284028053"><time>2026-04-25T08:58:58Z</time></trkpt><trkpt lat="59.0707182884" lon="30.0284242630"><time>2026-04-25T08:59:00Z</time></trkpt><trkpt lat="59.0707182884" lon="30.0284242630"><time>2026-04-25T08:59:03Z</time></trkpt><trkpt lat="59.0707397461" lon="30.0284242630"><time>2026-04-25T08:59:05Z</time></trkpt><trkpt lat="59.0706968307" lon="30.0284242630"><time>2026-04-25T08:59:08Z</time></trkpt><trkpt lat="59.0707182884" lon="30.0284242630"><time>2026-04-25T08:59:10Z</time></trkpt><trkpt lat="59.0708041191" lon="30.0284242630"><time>2026-04-25T08:59:13Z</time></trkpt><trkpt lat="59.0709114075" lon="30.0284242630"><time>2026-04-25T08:59:15Z</time></trkpt><trkpt lat="59.0708684921" lon="30.0284242630"><time>2026-04-25T08:59:18Z</time></trkpt><trkpt lat="59.0708684921" lon="30.0284242630"><time>2026-04-25T08:59:20Z</time></trkpt><trkpt lat="59.0708684921" lon="30.0284457207"><time>2026-04-25T08:59:23Z</time></trkpt><trkpt lat="59.0708684921" lon="30.0284028053"><time>2026-04-25T08:59:25Z</time></trkpt><trkpt lat="59.0708684921" lon="30.0283813477"><time>2026-04-25T08:59:28Z</time></trkpt><trkpt lat="59.0708684921" lon="30.0283813477"><time>2026-04-25T08:59:30Z</time></trkpt><trkpt lat="59.0708684921" lon="30.0283813477"><time>2026-04-25T08:59:33Z</time></trkpt><trkpt lat="59.0708684921" lon="30.0283813477"><time>2026-04-25T08:59:35Z</time></trkpt><trkpt lat="59.0709757805" lon="30.0283384323"><time>2026-04-25T08:59:38Z</time></trkpt><trkpt lat="59.0710616112" lon="30.0283169746"><time>2026-04-25T08:59:40Z</time></trkpt><trkpt lat="59.0711259842" lon="30.0282955170"><time>2026-04-25T08:59:43Z</time></trkpt><trkpt lat="59.0711474419" lon="30.0283169746"><time>2026-04-25T08:59:45Z</time></trkpt><trkpt lat="59.0711474419" lon="30.0283813477"><time>2026-04-25T08:59:48Z</time></trkpt><trkpt lat="59.0711903572" lon="30.0284242630"><time>2026-04-25T08:59:50Z</time></trkpt><trkpt lat="59.0712547302" lon="30.0284457207"><time>2026-04-25T08:59:53Z</time></trkpt><trkpt lat="59.0713405609" lon="30.0285100937"><time>2026-04-25T08:59:55Z</time></trkpt><trkpt lat="59.0714049339" lon="30.0285315514"><time>2026-04-25T08:59:58Z</time></trkpt><trkpt lat="59.0713834763" lon="30.0284028053"><time>2026-04-25T09:00:00Z</time></trkpt><trkpt lat="59.0713834763" lon="30.0282955170"><time>2026-04-25T09:00:03Z</time></trkpt><trkpt lat="59.0714263916" lon="30.0282955170"><time>2026-04-25T09:00:05Z</time></trkpt><trkpt lat="59.0714263916" lon="30.0282096863"><time>2026-04-25T09:00:08Z</time></trkpt><trkpt lat="59.0713834763" lon="30.0282311440"><time>2026-04-25T09:00:10Z</time></trkpt><trkpt lat="59.0713405609" lon="30.0282526016"><time>2026-04-25T09:00:13Z</time></trkpt><trkpt lat="59.0713405609" lon="30.0282311440"><time>2026-04-25T09:00:15Z</time></trkpt><trkpt lat="59.0713834763" lon="30.0282096863"><time>2026-04-25T09:00:18Z</time></trkpt><trkpt lat="59.0714907646" lon="30.0281882286"><time>2026-04-25T09:00:20Z</time></trkpt><trkpt lat="59.0715551376" lon="30.0281667709"><time>2026-04-25T09:00:23Z</time></trkpt><trkpt lat="59.0715765953" lon="30.0282526016"><time>2026-04-25T09:00:25Z</time></trkpt><trkpt lat="59.0715980530" lon="30.0283169746"><time>2026-04-25T09:00:28Z</time></trkpt><trkpt lat="59.0716409683" lon="30.0282740593"><time>2026-04-25T09:00:30Z</time></trkpt><trkpt lat="59.0716409683" lon="30.0281882286"><time>2026-04-25T09:00:33Z</time></trkpt><trkpt lat="59.0715765953" lon="30.0281453133"><time>2026-04-25T09:00:35Z</time></trkpt><trkpt lat="59.0715551376" lon="30.0281453133"><time>2026-04-25T09:00:38Z</time></trkpt><trkpt lat="59.0715765953" lon="30.0281667709"><time>2026-04-25T09:00:40Z</time></trkpt><trkpt lat="59.0715765953" lon="30.0281667709"><time>2026-04-25T09:00:43Z</time></trkpt><trkpt lat="59.0715980530" lon="30.0281453133"><time>2026-04-25T09:00:45Z</time></trkpt><trkpt lat="59.0715980530" lon="30.0281453133"><time>2026-04-25T09:00:48Z</time></trkpt><trkpt lat="59.0716409683" lon="30.0281453133"><time>2026-04-25T09:00:50Z</time></trkpt><trkpt lat="59.0716838837" lon="30.0281238556"><time>2026-04-25T09:00:53Z</time></trkpt><trkpt lat="59.0716838837" lon="30.0281023979"><time>2026-04-25T09:00:55Z</time></trkpt><trkpt lat="59.0716838837" lon="30.0281023979"><time>2026-04-25T09:00:58Z</time></trkpt><trkpt lat="59.0717053413" lon="30.0281023979"><time>2026-04-25T09:01:00Z</time></trkpt><trkpt lat="59.0717482567" lon="30.0281023979"><time>2026-04-25T09:01:03Z</time></trkpt><trkpt lat="59.0718126297" lon="30.0281023979"><time>2026-04-25T09:01:05Z</time></trkpt><trkpt lat="59.0718340874" lon="30.0280380249"><time>2026-04-25T09:01:08Z</time></trkpt><trkpt lat="59.0718555450" lon="30.0280594826"><time>2026-04-25T09:01:10Z</time></trkpt><trkpt lat="59.0718770027" lon="30.0280809402"><time>2026-04-25T09:01:13Z</time></trkpt><trkpt lat="59.0719199181" lon="30.0280809402"><time>2026-04-25T09:01:15Z</time></trkpt><trkpt lat="59.0719628334" lon="30.0280809402"><time>2026-04-25T09:01:18Z</time></trkpt><trkpt lat="59.0719842911" lon="30.0280809402"><time>2026-04-25T09:01:20Z</time></trkpt><trkpt lat="59.0720272064" lon="30.0281238556"><time>2026-04-25T09:01:23Z</time></trkpt><trkpt lat="59.0720272064" lon="30.0281023979"><time>2026-04-25T09:01:25Z</time></trkpt><trkpt lat="59.0719842911" lon="30.0281238556"><time>2026-04-25T09:01:28Z</time></trkpt><trkpt lat="59.0719413757" lon="30.0281238556"><time>2026-04-25T09:01:30Z</time></trkpt><trkpt lat="59.0719413757" lon="30.0281238556"><time>2026-04-25T09:01:33Z</time></trkpt><trkpt lat="59.0720057487" lon="30.0281453133"><time>2026-04-25T09:01:35Z</time></trkpt><trkpt lat="59.0720057487" lon="30.0281453133"><time>2026-04-25T09:01:38Z</time></trkpt><trkpt lat="59.0720701218" lon="30.0281453133"><time>2026-04-25T09:01:40Z</time></trkpt><trkpt lat="59.0721559525" lon="30.0281023979"><time>2026-04-25T09:01:43Z</time></trkpt><trkpt lat="59.0721774101" lon="30.0280165672"><time>2026-04-25T09:01:45Z</time></trkpt><trkpt lat="59.0722203255" lon="30.0280165672"><time>2026-04-25T09:01:48Z</time></trkpt><trkpt lat="59.0722417831" lon="30.0280165672"><time>2026-04-25T09:01:50Z</time></trkpt><trkpt lat="59.0722632408" lon="30.0280165672"><time>2026-04-25T09:01:53Z</time></trkpt><trkpt lat="59.0722632408" lon="30.0280165672"><time>2026-04-25T09:01:55Z</time></trkpt><trkpt lat="59.0722632408" lon="30.0280165672"><time>2026-04-25T09:01:58Z</time></trkpt><trkpt lat="59.0722417831" lon="30.0280380249"><time>2026-04-25T09:02:00Z</time></trkpt><trkpt lat="59.0721988678" lon="30.0280809402"><time>2026-04-25T09:02:03Z</time></trkpt><trkpt lat="59.0722632408" lon="30.0280165672"><time>2026-04-25T09:02:05Z</time></trkpt><trkpt lat="59.0723705292" lon="30.0279736519"><time>2026-04-25T09:02:08Z</time></trkpt><trkpt lat="59.0724134445" lon="30.0279307365"><time>2026-04-25T09:02:10Z</time></trkpt><trkpt lat="59.0724349022" lon="30.0278878212"><time>2026-04-25T09:02:13Z</time></trkpt><trkpt lat="59.0724349022" lon="30.0278878212"><time>2026-04-25T09:02:15Z</time></trkpt><trkpt lat="59.0724134445" lon="30.0278878212"><time>2026-04-25T09:02:18Z</time></trkpt><trkpt lat="59.0724134445" lon="30.0278878212"><time>2026-04-25T09:02:20Z</time></trkpt><trkpt lat="59.0723919868" lon="30.0278878212"><time>2026-04-25T09:02:23Z</time></trkpt><trkpt lat="59.0723705292" lon="30.0279092789"><time>2026-04-25T09:02:25Z</time></trkpt><trkpt lat="59.0723705292" lon="30.0279307365"><time>2026-04-25T09:02:28Z</time></trkpt><trkpt lat="59.0723490715" lon="30.0279307365"><time>2026-04-25T09:02:30Z</time></trkpt><trkpt lat="59.0723705292" lon="30.0279307365"><time>2026-04-25T09:02:33Z</time></trkpt><trkpt lat="59.0723705292" lon="30.0279307365"><time>2026-04-25T09:02:35Z</time></trkpt><trkpt lat="59.0724349022" lon="30.0279092789"><time>2026-04-25T09:02:38Z</time></trkpt><trkpt lat="59.0725636482" lon="30.0278449059"><time>2026-04-25T09:02:40Z</time></trkpt><trkpt lat="59.0726709366" lon="30.0278019905"><time>2026-04-25T09:02:43Z</time></trkpt><trkpt lat="59.0727353096" lon="30.0278449059"><time>2026-04-25T09:02:45Z</time></trkpt><trkpt lat="59.0727782249" lon="30.0279307365"><time>2026-04-25T09:02:48Z</time></trkpt><trkpt lat="59.0728425980" lon="30.0279951096"><time>2026-04-25T09:02:50Z</time></trkpt><trkpt lat="59.0729069710" lon="30.0279092789"><time>2026-04-25T09:02:53Z</time></trkpt><trkpt lat="59.0728855133" lon="30.0277376175"><time>2026-04-25T09:02:55Z</time></trkpt><trkpt lat="59.0729069710" lon="30.0275659561"><time>2026-04-25T09:02:58Z</time></trkpt><trkpt lat="59.0728855133" lon="30.0274372101"><time>2026-04-25T09:03:00Z</time></trkpt><trkpt lat="59.0728425980" lon="30.0275015831"><time>2026-04-25T09:03:03Z</time></trkpt><trkpt lat="59.0727996826" lon="30.0276517868"><time>2026-04-25T09:03:05Z</time></trkpt><trkpt lat="59.0727567673" lon="30.0277805328"><time>2026-04-25T09:03:08Z</time></trkpt><trkpt lat="59.0727567673" lon="30.0278449059"><time>2026-04-25T09:03:10Z</time></trkpt><trkpt lat="59.0727353096" lon="30.0277805328"><time>2026-04-25T09:03:13Z</time></trkpt><trkpt lat="59.0727138519" lon="30.0277161598"><time>2026-04-25T09:03:15Z</time></trkpt><trkpt lat="59.0727567673" lon="30.0277376175"><time>2026-04-25T09:03:18Z</time></trkpt><trkpt lat="59.0727996826" lon="30.0277376175"><time>2026-04-25T09:03:20Z</time></trkpt><trkpt lat="59.0727782249" lon="30.0277590752"><time>2026-04-25T09:03:23Z</time></trkpt><trkpt lat="59.0727782249" lon="30.0278019905"><time>2026-04-25T09:03:25Z</time></trkpt><trkpt lat="59.0728211403" lon="30.0277805328"><time>2026-04-25T09:03:28Z</time></trkpt><trkpt lat="59.0729928017" lon="30.0276517868"><time>2026-04-25T09:03:30Z</time></trkpt><trkpt lat="59.0730786324" lon="30.0275230408"><time>2026-04-25T09:03:33Z</time></trkpt><trkpt lat="59.0731215477" lon="30.0274372101"><time>2026-04-25T09:03:35Z</time></trkpt><trkpt lat="59.0731859207" lon="30.0273728371"><time>2026-04-25T09:03:38Z</time></trkpt><trkpt lat="59.0732073784" lon="30.0273513794"><time>2026-04-25T09:03:40Z</time></trkpt><trkpt lat="59.0731430054" lon="30.0274372101"><time>2026-04-25T09:03:43Z</time></trkpt><trkpt lat="59.0730786324" lon="30.0274801254"><time>2026-04-25T09:03:45Z</time></trkpt><trkpt lat="59.0730571747" lon="30.0275230408"><time>2026-04-25T09:03:48Z</time></trkpt><trkpt lat="59.0730571747" lon="30.0274801254"><time>2026-04-25T09:03:50Z</time></trkpt><trkpt lat="59.0730571747" lon="30.0275015831"><time>2026-04-25T09:03:53Z</time></trkpt><trkpt lat="59.0730571747" lon="30.0275230408"><time>2026-04-25T09:03:55Z</time></trkpt><trkpt lat="59.0730786324" lon="30.0275659561"><time>2026-04-25T09:03:58Z</time></trkpt><trkpt lat="59.0731000900" lon="30.0276517868"><time>2026-04-25T09:04:00Z</time></trkpt><trkpt lat="59.0731430054" lon="30.0277376175"><time>2026-04-25T09:04:03Z</time></trkpt><trkpt lat="59.0731644630" lon="30.0278019905"><time>2026-04-25T09:04:05Z</time></trkpt><trkpt lat="59.0731430054" lon="30.0277376175"><time>2026-04-25T09:04:08Z</time></trkpt><trkpt lat="59.0731000900" lon="30.0274372101"><time>2026-04-25T09:04:10Z</time></trkpt><trkpt lat="59.0730571747" lon="30.0272226334"><time>2026-04-25T09:04:13Z</time></trkpt><trkpt lat="59.0730142593" lon="30.0271153450"><time>2026-04-25T09:04:15Z</time></trkpt><trkpt lat="59.0729928017" lon="30.0270724297"><time>2026-04-25T09:04:18Z</time></trkpt><trkpt lat="59.0729928017" lon="30.0269865990"><time>2026-04-25T09:04:20Z</time></trkpt><trkpt lat="59.0729928017" lon="30.0269865990"><time>2026-04-25T09:04:23Z</time></trkpt><trkpt lat="59.0730357170" lon="30.0271582603"><time>2026-04-25T09:04:25Z</time></trkpt><trkpt lat="59.0730786324" lon="30.0274586678"><time>2026-04-25T09:04:28Z</time></trkpt><trkpt lat="59.0731215477" lon="30.0277590752"><time>2026-04-25T09:04:30Z</time></trkpt><trkpt lat="59.0731644630" lon="30.0280380249"><time>2026-04-25T09:04:33Z</time></trkpt><trkpt lat="59.0731859207" lon="30.0281882286"><time>2026-04-25T09:04:35Z</time></trkpt><trkpt lat="59.0731859207" lon="30.0282740593"><time>2026-04-25T09:04:38Z</time></trkpt><trkpt lat="59.0731430054" lon="30.0282955170"><time>2026-04-25T09:04:40Z</time></trkpt><trkpt lat="59.0730786324" lon="30.0282740593"><time>2026-04-25T09:04:43Z</time></trkpt><trkpt lat="59.0730357170" lon="30.0282740593"><time>2026-04-25T09:04:45Z</time></trkpt><trkpt lat="59.0729928017" lon="30.0283813477"><time>2026-04-25T09:04:48Z</time></trkpt><trkpt lat="59.0729928017" lon="30.0285100937"><time>2026-04-25T09:04:50Z</time></trkpt><trkpt lat="59.0730571747" lon="30.0285530090"><time>2026-04-25T09:04:53Z</time></trkpt><trkpt lat="59.0731215477" lon="30.0285100937"><time>2026-04-25T09:04:55Z</time></trkpt><trkpt lat="59.0731859207" lon="30.0284671783"><time>2026-04-25T09:04:58Z</time></trkpt><trkpt lat="59.0732073784" lon="30.0285744667"><time>2026-04-25T09:05:00Z</time></trkpt><trkpt lat="59.0732502937" lon="30.0286602974"><time>2026-04-25T09:05:03Z</time></trkpt><trkpt lat="59.0732288361" lon="30.0287032127"><time>2026-04-25T09:05:05Z</time></trkpt><trkpt lat="59.0732073784" lon="30.0288105011"><time>2026-04-25T09:05:08Z</time></trkpt><trkpt lat="59.0731644630" lon="30.0289392471"><time>2026-04-25T09:05:10Z</time></trkpt><trkpt lat="59.0731430054" lon="30.0290465355"><time>2026-04-25T09:05:13Z</time></trkpt><trkpt lat="59.0731859207" lon="30.0291538239"><time>2026-04-25T09:05:15Z</time></trkpt><trkpt lat="59.0732502937" lon="30.0291752815"><time>2026-04-25T09:05:18Z</time></trkpt><trkpt lat="59.0733361244" lon="30.0291967392"><time>2026-04-25T09:05:20Z</time></trkpt><trkpt lat="59.0734219551" lon="30.0291323662"><time>2026-04-25T09:05:23Z</time></trkpt><trkpt lat="59.0735077858" lon="30.0290465355"><time>2026-04-25T09:05:25Z</time></trkpt><trkpt lat="59.0734863281" lon="30.0288963318"><time>2026-04-25T09:05:28Z</time></trkpt><trkpt lat="59.0734219551" lon="30.0287890434"><time>2026-04-25T09:05:30Z</time></trkpt><trkpt lat="59.0733146667" lon="30.0288319588"><time>2026-04-25T09:05:33Z</time></trkpt><trkpt lat="59.0732932091" lon="30.0290036201"><time>2026-04-25T09:05:35Z</time></trkpt><trkpt lat="59.0733146667" lon="30.0292181969"><time>2026-04-25T09:05:38Z</time></trkpt><trkpt lat="59.0733361244" lon="30.0294113159"><time>2026-04-25T09:05:40Z</time></trkpt><trkpt lat="59.0733575821" lon="30.0295186043"><time>2026-04-25T09:05:43Z</time></trkpt><trkpt lat="59.0733790398" lon="30.0296258926"><time>2026-04-25T09:05:45Z</time></trkpt><trkpt lat="59.0733790398" lon="30.0296473503"><time>2026-04-25T09:05:48Z</time></trkpt><trkpt lat="59.0734004974" lon="30.0296258926"><time>2026-04-25T09:05:50Z</time></trkpt><trkpt lat="59.0734004974" lon="30.0296044350"><time>2026-04-25T09:05:53Z</time></trkpt><trkpt lat="59.0734004974" lon="30.0295829773"><time>2026-04-25T09:05:55Z</time></trkpt><trkpt lat="59.0733790398" lon="30.0295829773"><time>2026-04-25T09:05:58Z</time></trkpt><trkpt lat="59.0733790398" lon="30.0295829773"><time>2026-04-25T09:06:00Z</time></trkpt><trkpt lat="59.0733575821" lon="30.0296044350"><time>2026-04-25T09:06:03Z</time></trkpt><trkpt lat="59.0733361244" lon="30.0297117233"><time>2026-04-25T09:06:05Z</time></trkpt><trkpt lat="59.0733790398" lon="30.0297546387"><time>2026-04-25T09:06:08Z</time></trkpt><trkpt lat="59.0733790398" lon="30.0297975540"><time>2026-04-25T09:06:10Z</time></trkpt><trkpt lat="59.0733790398" lon="30.0297546387"><time>2026-04-25T09:06:13Z</time></trkpt><trkpt lat="59.0733790398" lon="30.0297760963"><time>2026-04-25T09:06:15Z</time></trkpt><trkpt lat="59.0733790398" lon="30.0297975540"><time>2026-04-25T09:06:18Z</time></trkpt><trkpt lat="59.0734004974" lon="30.0299048424"><time>2026-04-25T09:06:20Z</time></trkpt><trkpt lat="59.0734219551" lon="30.0299906731"><time>2026-04-25T09:06:23Z</time></trkpt><trkpt lat="59.0734219551" lon="30.0301194191"><time>2026-04-25T09:06:25Z</time></trkpt><trkpt lat="59.0734434128" lon="30.0302267075"><time>2026-04-25T09:06:28Z</time></trkpt><trkpt lat="59.0734434128" lon="30.0303554535"><time>2026-04-25T09:06:30Z</time></trkpt><trkpt lat="59.0734648705" lon="30.0304627419"><time>2026-04-25T09:06:33Z</time></trkpt><trkpt lat="59.0734648705" lon="30.0305485725"><time>2026-04-25T09:06:35Z</time></trkpt><trkpt lat="59.0734648705" lon="30.0305056572"><time>2026-04-25T09:06:38Z</time></trkpt><trkpt lat="59.0734648705" lon="30.0305056572"><time>2026-04-25T09:06:40Z</time></trkpt><trkpt lat="59.0734648705" lon="30.0304841995"><time>2026-04-25T09:06:43Z</time></trkpt><trkpt lat="59.0734648705" lon="30.0303554535"><time>2026-04-25T09:06:45Z</time></trkpt><trkpt lat="59.0735292435" lon="30.0303983688"><time>2026-04-25T09:06:48Z</time></trkpt><trkpt lat="59.0735292435" lon="30.0304841995"><time>2026-04-25T09:06:50Z</time></trkpt><trkpt lat="59.0735077858" lon="30.0305485725"><time>2026-04-25T09:06:53Z</time></trkpt><trkpt lat="59.0734863281" lon="30.0305056572"><time>2026-04-25T09:06:55Z</time></trkpt><trkpt lat="59.0734863281" lon="30.0304412842"><time>2026-04-25T09:06:58Z</time></trkpt><trkpt lat="59.0734863281" lon="30.0305485725"><time>2026-04-25T09:07:00Z</time></trkpt><trkpt lat="59.0735077858" lon="30.0307416916"><time>2026-04-25T09:07:03Z</time></trkpt><trkpt lat="59.0735292435" lon="30.0309777260"><time>2026-04-25T09:07:05Z</time></trkpt><trkpt lat="59.0735292435" lon="30.0310850143"><time>2026-04-25T09:07:08Z</time></trkpt><trkpt lat="59.0735292435" lon="30.0309133530"><time>2026-04-25T09:07:10Z</time></trkpt><trkpt lat="59.0735077858" lon="30.0307631493"><time>2026-04-25T09:07:13Z</time></trkpt><trkpt lat="59.0735077858" lon="30.0308489799"><time>2026-04-25T09:07:15Z</time></trkpt><trkpt lat="59.0735077858" lon="30.0308489799"><time>2026-04-25T09:07:18Z</time></trkpt><trkpt lat="59.0735077858" lon="30.0308275223"><time>2026-04-25T09:07:20Z</time></trkpt><trkpt lat="59.0735077858" lon="30.0309133530"><time>2026-04-25T09:07:23Z</time></trkpt><trkpt lat="59.0735292435" lon="30.0311064720"><time>2026-04-25T09:07:25Z</time></trkpt><trkpt lat="59.0735292435" lon="30.0312566757"><time>2026-04-25T09:07:28Z</time></trkpt><trkpt lat="59.0735507011" lon="30.0312137604"><time>2026-04-25T09:07:30Z</time></trkpt><trkpt lat="59.0735507011" lon="30.0311493874"><time>2026-04-25T09:07:33Z</time></trkpt><trkpt lat="59.0735721588" lon="30.0311708450"><time>2026-04-25T09:07:35Z</time></trkpt><trkpt lat="59.0735721588" lon="30.0311708450"><time>2026-04-25T09:07:38Z</time></trkpt><trkpt lat="59.0735721588" lon="30.0311923027"><time>2026-04-25T09:07:40Z</time></trkpt><trkpt lat="59.0735936165" lon="30.0313210487"><time>2026-04-25T09:07:43Z</time></trkpt><trkpt lat="59.0736150742" lon="30.0314712524"><time>2026-04-25T09:07:45Z</time></trkpt><trkpt lat="59.0736365318" lon="30.0316429138"><time>2026-04-25T09:07:48Z</time></trkpt><trkpt lat="59.0736579895" lon="30.0317502022"><time>2026-04-25T09:07:50Z</time></trkpt><trkpt lat="59.0736579895" lon="30.0317502022"><time>2026-04-25T09:07:53Z</time></trkpt><trkpt lat="59.0736579895" lon="30.0317716599"><time>2026-04-25T09:07:55Z</time></trkpt><trkpt lat="59.0736579895" lon="30.0317716599"><time>2026-04-25T09:07:58Z</time></trkpt><trkpt lat="59.0736365318" lon="30.0318360329"><time>2026-04-25T09:08:00Z</time></trkpt><trkpt lat="59.0736579895" lon="30.0319004059"><time>2026-04-25T09:08:03Z</time></trkpt><trkpt lat="59.0736579895" lon="30.0319004059"><time>2026-04-25T09:08:05Z</time></trkpt><trkpt lat="59.0736579895" lon="30.0318789482"><time>2026-04-25T09:08:08Z</time></trkpt><trkpt lat="59.0736579895" lon="30.0318789482"><time>2026-04-25T09:08:10Z</time></trkpt><trkpt lat="59.0736579895" lon="30.0318574905"><time>2026-04-25T09:08:13Z</time></trkpt><trkpt lat="59.0736579895" lon="30.0318789482"><time>2026-04-25T09:08:15Z</time></trkpt><trkpt lat="59.0736794472" lon="30.0319433212"><time>2026-04-25T09:08:18Z</time></trkpt><trkpt lat="59.0737009048" lon="30.0320076942"><time>2026-04-25T09:08:20Z</time></trkpt><trkpt lat="59.0737009048" lon="30.0320506096"><time>2026-04-25T09:08:23Z</time></trkpt><trkpt lat="59.0737009048" lon="30.0320506096"><time>2026-04-25T09:08:25Z</time></trkpt><trkpt lat="59.0737009048" lon="30.0320935249"><time>2026-04-25T09:08:28Z</time></trkpt><trkpt lat="59.0737009048" lon="30.0321149826"><time>2026-04-25T09:08:30Z</time></trkpt><trkpt lat="59.0737009048" lon="30.0321578979"><time>2026-04-25T09:08:33Z</time></trkpt><trkpt lat="59.0737009048" lon="30.0322437286"><time>2026-04-25T09:08:35Z</time></trkpt><trkpt lat="59.0737009048" lon="30.0323295593"><time>2026-04-25T09:08:38Z</time></trkpt><trkpt lat="59.0737009048" lon="30.0323510170"><time>2026-04-25T09:08:40Z</time></trkpt><trkpt lat="59.0737009048" lon="30.0323510170"><time>2026-04-25T09:08:43Z</time></trkpt><trkpt lat="59.0737009048" lon="30.0324368477"><time>2026-04-25T09:08:45Z</time></trkpt><trkpt lat="59.0737223625" lon="30.0324583054"><time>2026-04-25T09:08:48Z</time></trkpt><trkpt lat="59.0737438202" lon="30.0323939323"><time>2026-04-25T09:08:50Z</time></trkpt><trkpt lat="59.0737438202" lon="30.0323510170"><time>2026-04-25T09:08:53Z</time></trkpt><trkpt lat="59.0737438202" lon="30.0325226784"><time>2026-04-25T09:08:55Z</time></trkpt><trkpt lat="59.0737867355" lon="30.0327801704"><time>2026-04-25T09:08:58Z</time></trkpt><trkpt lat="59.0738081932" lon="30.0330162048"><time>2026-04-25T09:09:00Z</time></trkpt><trkpt lat="59.0738296509" lon="30.0332307816"><time>2026-04-25T09:09:03Z</time></trkpt><trkpt lat="59.0738511086" lon="30.0333595276"><time>2026-04-25T09:09:05Z</time></trkpt><trkpt lat="59.0738296509" lon="30.0334453583"><time>2026-04-25T09:09:08Z</time></trkpt><trkpt lat="59.0738296509" lon="30.0333166122"><time>2026-04-25T09:09:10Z</time></trkpt><trkpt lat="59.0738296509" lon="30.0331234932"><time>2026-04-25T09:09:13Z</time></trkpt><trkpt lat="59.0738081932" lon="30.0328660011"><time>2026-04-25T09:09:15Z</time></trkpt><trkpt lat="59.0738081932" lon="30.0328874588"><time>2026-04-25T09:09:18Z</time></trkpt><trkpt lat="59.0738081932" lon="30.0329089165"><time>2026-04-25T09:09:20Z</time></trkpt><trkpt lat="59.0738081932" lon="30.0329732895"><time>2026-04-25T09:09:23Z</time></trkpt><trkpt lat="59.0738725662" lon="30.0331020355"><time>2026-04-25T09:09:25Z</time></trkpt><trkpt lat="59.0738940239" lon="30.0331020355"><time>2026-04-25T09:09:28Z</time></trkpt><trkpt lat="59.0738296509" lon="30.0331020355"><time>2026-04-25T09:09:30Z</time></trkpt><trkpt lat="59.0737867355" lon="30.0331878662"><time>2026-04-25T09:09:33Z</time></trkpt><trkpt lat="59.0738296509" lon="30.0332093239"><time>2026-04-25T09:09:35Z</time></trkpt><trkpt lat="59.0738296509" lon="30.0332522392"><time>2026-04-25T09:09:38Z</time></trkpt><trkpt lat="59.0738511086" lon="30.0333380699"><time>2026-04-25T09:09:40Z</time></trkpt><trkpt lat="59.0738725662" lon="30.0334239006"><time>2026-04-25T09:09:43Z</time></trkpt><trkpt lat="59.0738940239" lon="30.0335526466"><time>2026-04-25T09:09:45Z</time></trkpt><trkpt lat="59.0738940239" lon="30.0336384773"><time>2026-04-25T09:09:48Z</time></trkpt><trkpt lat="59.0738940239" lon="30.0337028503"><time>2026-04-25T09:09:50Z</time></trkpt><trkpt lat="59.0739154816" lon="30.0337457657"><time>2026-04-25T09:09:53Z</time></trkpt><trkpt lat="59.0738940239" lon="30.0336813927"><time>2026-04-25T09:09:55Z</time></trkpt><trkpt lat="59.0738725662" lon="30.0336170197"><time>2026-04-25T09:09:58Z</time></trkpt><trkpt lat="59.0738725662" lon="30.0337672234"><time>2026-04-25T09:10:00Z</time></trkpt><trkpt lat="59.0738725662" lon="30.0339388847"><time>2026-04-25T09:10:03Z</time></trkpt><trkpt lat="59.0738725662" lon="30.0340676308"><time>2026-04-25T09:10:05Z</time></trkpt><trkpt lat="59.0739369392" lon="30.0342178345"><time>2026-04-25T09:10:08Z</time></trkpt><trkpt lat="59.0739583969" lon="30.0342822075"><time>2026-04-25T09:10:10Z</time></trkpt><trkpt lat="59.0739583969" lon="30.0343036652"><time>2026-04-25T09:10:13Z</time></trkpt><trkpt lat="59.0739583969" lon="30.0343465805"><time>2026-04-25T09:10:15Z</time></trkpt><trkpt lat="59.0739583969" lon="30.0343465805"><time>2026-04-25T09:10:18Z</time></trkpt><trkpt lat="59.0739583969" lon="30.0343465805"><time>2026-04-25T09:10:20Z</time></trkpt><trkpt lat="59.0739583969" lon="30.0343680382"><time>2026-04-25T09:10:23Z</time></trkpt><trkpt lat="59.0739583969" lon="30.0343894958"><time>2026-04-25T09:10:25Z</time></trkpt><trkpt lat="59.0739583969" lon="30.0344324112"><time>2026-04-25T09:10:28Z</time></trkpt><trkpt lat="59.0740013123" lon="30.0345611572"><time>2026-04-25T09:10:30Z</time></trkpt><trkpt lat="59.0740013123" lon="30.0346684456"><time>2026-04-25T09:10:33Z</time></trkpt><trkpt lat="59.0740227699" lon="30.0347757339"><time>2026-04-25T09:10:35Z</time></trkpt><trkpt lat="59.0740442276" lon="30.0348830223"><time>2026-04-25T09:10:38Z</time></trkpt><trkpt lat="59.0740442276" lon="30.0349688530"><time>2026-04-25T09:10:40Z</time></trkpt><trkpt lat="59.0740227699" lon="30.0349903107"><time>2026-04-25T09:10:43Z</time></trkpt><trkpt lat="59.0740227699" lon="30.0349688530"><time>2026-04-25T09:10:45Z</time></trkpt><trkpt lat="59.0740227699" lon="30.0349903107"><time>2026-04-25T09:10:48Z</time></trkpt><trkpt lat="59.0740442276" lon="30.0349903107"><time>2026-04-25T09:10:50Z</time></trkpt><trkpt lat="59.0740442276" lon="30.0349903107"><time>2026-04-25T09:10:53Z</time></trkpt><trkpt lat="59.0740442276" lon="30.0349903107"><time>2026-04-25T09:10:55Z</time></trkpt><trkpt lat="59.0740442276" lon="30.0349903107"><time>2026-04-25T09:10:58Z</time></trkpt><trkpt lat="59.0740442276" lon="30.0349903107"><time>2026-04-25T09:11:00Z</time></trkpt><trkpt lat="59.0740442276" lon="30.0349903107"><time>2026-04-25T09:11:03Z</time></trkpt><trkpt lat="59.0740442276" lon="30.0349903107"><time>2026-04-25T09:11:05Z</time></trkpt><trkpt lat="59.0740442276" lon="30.0349903107"><time>2026-04-25T09:11:08Z</time></trkpt><trkpt lat="59.0740442276" lon="30.0349903107"><time>2026-04-25T09:11:10Z</time></trkpt><trkpt lat="59.0740442276" lon="30.0350332260"><time>2026-04-25T09:11:13Z</time></trkpt><trkpt lat="59.0740656853" lon="30.0352907181"><time>2026-04-25T09:11:15Z</time></trkpt><trkpt lat="59.0740871429" lon="30.0354838371"><time>2026-04-25T09:11:18Z</time></trkpt><trkpt lat="59.0741086006" lon="30.0355696678"><time>2026-04-25T09:11:20Z</time></trkpt><trkpt lat="59.0741086006" lon="30.0355911255"><time>2026-04-25T09:11:23Z</time></trkpt><trkpt lat="59.0741086006" lon="30.0355696678"><time>2026-04-25T09:11:25Z</time></trkpt><trkpt lat="59.0741086006" lon="30.0355052948"><time>2026-04-25T09:11:28Z</time></trkpt><trkpt lat="59.0741300583" lon="30.0354194641"><time>2026-04-25T09:11:30Z</time></trkpt><trkpt lat="59.0741515160" lon="30.0355696678"><time>2026-04-25T09:11:33Z</time></trkpt><trkpt lat="59.0741300583" lon="30.0356984138"><time>2026-04-25T09:11:35Z</time></trkpt><trkpt lat="59.0741086006" lon="30.0357413292"><time>2026-04-25T09:11:38Z</time></trkpt><trkpt lat="59.0741300583" lon="30.0356769562"><time>2026-04-25T09:11:40Z</time></trkpt><trkpt lat="59.0741086006" lon="30.0356125832"><time>2026-04-25T09:11:43Z</time></trkpt><trkpt lat="59.0741300583" lon="30.0356769562"><time>2026-04-25T09:11:45Z</time></trkpt><trkpt lat="59.0741300583" lon="30.0356769562"><time>2026-04-25T09:11:48Z</time></trkpt><trkpt lat="59.0741086006" lon="30.0357842445"><time>2026-04-25T09:11:50Z</time></trkpt><trkpt lat="59.0741300583" lon="30.0358915329"><time>2026-04-25T09:11:53Z</time></trkpt><trkpt lat="59.0741515160" lon="30.0358915329"><time>2026-04-25T09:11:55Z</time></trkpt><trkpt lat="59.0741515160" lon="30.0358915329"><time>2026-04-25T09:11:58Z</time></trkpt><trkpt lat="59.0741729736" lon="30.0359344482"><time>2026-04-25T09:12:00Z</time></trkpt><trkpt lat="59.0741729736" lon="30.0359773636"><time>2026-04-25T09:12:03Z</time></trkpt><trkpt lat="59.0741729736" lon="30.0360202789"><time>2026-04-25T09:12:05Z</time></trkpt><trkpt lat="59.0741729736" lon="30.0359988213"><time>2026-04-25T09:12:08Z</time></trkpt><trkpt lat="59.0741729736" lon="30.0360202789"><time>2026-04-25T09:12:10Z</time></trkpt><trkpt lat="59.0741729736" lon="30.0359988213"><time>2026-04-25T09:12:13Z</time></trkpt><trkpt lat="59.0741515160" lon="30.0359559059"><time>2026-04-25T09:12:15Z</time></trkpt><trkpt lat="59.0741300583" lon="30.0359773636"><time>2026-04-25T09:12:18Z</time></trkpt><trkpt lat="59.0741086006" lon="30.0360202789"><time>2026-04-25T09:12:20Z</time></trkpt><trkpt lat="59.0741086006" lon="30.0361061096"><time>2026-04-25T09:12:23Z</time></trkpt><trkpt lat="59.0740871429" lon="30.0361704826"><time>2026-04-25T09:12:25Z</time></trkpt><trkpt lat="59.0740871429" lon="30.0361490250"><time>2026-04-25T09:12:28Z</time></trkpt><trkpt lat="59.0741086006" lon="30.0361490250"><time>2026-04-25T09:12:30Z</time></trkpt><trkpt lat="59.0741729736" lon="30.0362348557"><time>2026-04-25T09:12:33Z</time></trkpt><trkpt lat="59.0741944313" lon="30.0362348557"><time>2026-04-25T09:12:35Z</time></trkpt><trkpt lat="59.0741944313" lon="30.0362133980"><time>2026-04-25T09:12:38Z</time></trkpt><trkpt lat="59.0741729736" lon="30.0362348557"><time>2026-04-25T09:12:40Z</time></trkpt><trkpt lat="59.0741300583" lon="30.0362133980"><time>2026-04-25T09:12:43Z</time></trkpt><trkpt lat="59.0741300583" lon="30.0362563133"><time>2026-04-25T09:12:45Z</time></trkpt><trkpt lat="59.0741729736" lon="30.0363206863"><time>2026-04-25T09:12:48Z</time></trkpt><trkpt lat="59.0741944313" lon="30.0363206863"><time>2026-04-25T09:12:50Z</time></trkpt><trkpt lat="59.0742158890" lon="30.0362777710"><time>2026-04-25T09:12:53Z</time></trkpt><trkpt lat="59.0742373466" lon="30.0363421440"><time>2026-04-25T09:12:55Z</time></trkpt><trkpt lat="59.0742588043" lon="30.0364065170"><time>2026-04-25T09:12:58Z</time></trkpt><trkpt lat="59.0742588043" lon="30.0363850594"><time>2026-04-25T09:13:00Z</time></trkpt><trkpt lat="59.0742588043" lon="30.0364279747"><time>2026-04-25T09:13:03Z</time></trkpt><trkpt lat="59.0742373466" lon="30.0364923477"><time>2026-04-25T09:13:05Z</time></trkpt><trkpt lat="59.0742373466" lon="30.0365567207"><time>2026-04-25T09:13:08Z</time></trkpt><trkpt lat="59.0742588043" lon="30.0366210938"><time>2026-04-25T09:13:10Z</time></trkpt><trkpt lat="59.0742588043" lon="30.0365567207"><time>2026-04-25T09:13:13Z</time></trkpt><trkpt lat="59.0742373466" lon="30.0365352631"><time>2026-04-25T09:13:15Z</time></trkpt><trkpt lat="59.0742588043" lon="30.0365781784"><time>2026-04-25T09:13:18Z</time></trkpt><trkpt lat="59.0743017197" lon="30.0367927551"><time>2026-04-25T09:13:20Z</time></trkpt><trkpt lat="59.0743231773" lon="30.0369215012"><time>2026-04-25T09:13:23Z</time></trkpt><trkpt lat="59.0743017197" lon="30.0368785858"><time>2026-04-25T09:13:25Z</time></trkpt><trkpt lat="59.0743017197" lon="30.0368142128"><time>2026-04-25T09:13:28Z</time></trkpt><trkpt lat="59.0743017197" lon="30.0367927551"><time>2026-04-25T09:13:30Z</time></trkpt><trkpt lat="59.0743231773" lon="30.0368142128"><time>2026-04-25T09:13:33Z</time></trkpt><trkpt lat="59.0743231773" lon="30.0369858742"><time>2026-04-25T09:13:35Z</time></trkpt><trkpt lat="59.0743446350" lon="30.0370502472"><time>2026-04-25T09:13:38Z</time></trkpt><trkpt lat="59.0743231773" lon="30.0369429588"><time>2026-04-25T09:13:40Z</time></trkpt><trkpt lat="59.0743231773" lon="30.0369429588"><time>2026-04-25T09:13:43Z</time></trkpt><trkpt lat="59.0743231773" lon="30.0369429588"><time>2026-04-25T09:13:45Z</time></trkpt><trkpt lat="59.0743231773" lon="30.0369429588"><time>2026-04-25T09:13:48Z</time></trkpt><trkpt lat="59.0743231773" lon="30.0369429588"><time>2026-04-25T09:13:50Z</time></trkpt><trkpt lat="59.0743231773" lon="30.0369000435"><time>2026-04-25T09:13:53Z</time></trkpt><trkpt lat="59.0743446350" lon="30.0369858742"><time>2026-04-25T09:13:55Z</time></trkpt><trkpt lat="59.0743660927" lon="30.0371146202"><time>2026-04-25T09:13:58Z</time></trkpt><trkpt lat="59.0743446350" lon="30.0370931625"><time>2026-04-25T09:14:00Z</time></trkpt><trkpt lat="59.0743446350" lon="30.0370717049"><time>2026-04-25T09:14:03Z</time></trkpt><trkpt lat="59.0743446350" lon="30.0370717049"><time>2026-04-25T09:14:05Z</time></trkpt><trkpt lat="59.0743446350" lon="30.0370931625"><time>2026-04-25T09:14:08Z</time></trkpt><trkpt lat="59.0743660927" lon="30.0371360779"><time>2026-04-25T09:14:10Z</time></trkpt><trkpt lat="59.0743660927" lon="30.0372433662"><time>2026-04-25T09:14:13Z</time></trkpt><trkpt lat="59.0743660927" lon="30.0373077393"><time>2026-04-25T09:14:15Z</time></trkpt><trkpt lat="59.0743660927" lon="30.0373077393"><time>2026-04-25T09:14:18Z</time></trkpt><trkpt lat="59.0743660927" lon="30.0373077393"><time>2026-04-25T09:14:20Z</time></trkpt><trkpt lat="59.0743660927" lon="30.0373077393"><time>2026-04-25T09:14:23Z</time></trkpt><trkpt lat="59.0743660927" lon="30.0373506546"><time>2026-04-25T09:14:25Z</time></trkpt><trkpt lat="59.0743875504" lon="30.0374794006"><time>2026-04-25T09:14:28Z</time></trkpt><trkpt lat="59.0743875504" lon="30.0376081467"><time>2026-04-25T09:14:30Z</time></trkpt><trkpt lat="59.0743875504" lon="30.0375652313"><time>2026-04-25T09:14:33Z</time></trkpt><trkpt lat="59.0743875504" lon="30.0375437737"><time>2026-04-25T09:14:35Z</time></trkpt><trkpt lat="59.0743660927" lon="30.0375008583"><time>2026-04-25T09:14:38Z</time></trkpt><trkpt lat="59.0743660927" lon="30.0375437737"><time>2026-04-25T09:14:40Z</time></trkpt><trkpt lat="59.0743660927" lon="30.0375866890"><time>2026-04-25T09:14:43Z</time></trkpt><trkpt lat="59.0743660927" lon="30.0376939774"><time>2026-04-25T09:14:45Z</time></trkpt><trkpt lat="59.0743660927" lon="30.0376939774"><time>2026-04-25T09:14:48Z</time></trkpt><trkpt lat="59.0743875504" lon="30.0377154350"><time>2026-04-25T09:14:50Z</time></trkpt><trkpt lat="59.0743875504" lon="30.0377583504"><time>2026-04-25T09:14:53Z</time></trkpt><trkpt lat="59.0744090080" lon="30.0377798080"><time>2026-04-25T09:14:55Z</time></trkpt><trkpt lat="59.0744090080" lon="30.0378227234"><time>2026-04-25T09:14:58Z</time></trkpt><trkpt lat="59.0744090080" lon="30.0377798080"><time>2026-04-25T09:15:00Z</time></trkpt><trkpt lat="59.0744090080" lon="30.0377583504"><time>2026-04-25T09:15:03Z</time></trkpt><trkpt lat="59.0744090080" lon="30.0377583504"><time>2026-04-25T09:15:05Z</time></trkpt><trkpt lat="59.0744090080" lon="30.0377583504"><time>2026-04-25T09:15:08Z</time></trkpt><trkpt lat="59.0744090080" lon="30.0377583504"><time>2026-04-25T09:15:10Z</time></trkpt><trkpt lat="59.0744090080" lon="30.0377583504"><time>2026-04-25T09:15:13Z</time></trkpt><trkpt lat="59.0744090080" lon="30.0377583504"><time>2026-04-25T09:15:15Z</time></trkpt><trkpt lat="59.0744090080" lon="30.0377583504"><time>2026-04-25T09:15:18Z</time></trkpt><trkpt lat="59.0744090080" lon="30.0377583504"><time>2026-04-25T09:15:20Z</time></trkpt><trkpt lat="59.0744090080" lon="30.0377583504"><time>2026-04-25T09:15:23Z</time></trkpt><trkpt lat="59.0744090080" lon="30.0377583504"><time>2026-04-25T09:15:25Z</time></trkpt><trkpt lat="59.0744304657" lon="30.0377798080"><time>2026-04-25T09:15:28Z</time></trkpt><trkpt lat="59.0745162964" lon="30.0378441811"><time>2026-04-25T09:15:30Z</time></trkpt><trkpt lat="59.0745377541" lon="30.0378227234"><time>2026-04-25T09:15:33Z</time></trkpt><trkpt lat="59.0745377541" lon="30.0378441811"><time>2026-04-25T09:15:35Z</time></trkpt><trkpt lat="59.0745377541" lon="30.0378441811"><time>2026-04-25T09:15:38Z</time></trkpt><trkpt lat="59.0745377541" lon="30.0378441811"><time>2026-04-25T09:15:40Z</time></trkpt><trkpt lat="59.0745377541" lon="30.0377368927"><time>2026-04-25T09:15:43Z</time></trkpt><trkpt lat="59.0744948387" lon="30.0376725197"><time>2026-04-25T09:15:45Z</time></trkpt><trkpt lat="59.0744948387" lon="30.0376725197"><time>2026-04-25T09:15:48Z</time></trkpt><trkpt lat="59.0745162964" lon="30.0376939774"><time>2026-04-25T09:15:50Z</time></trkpt><trkpt lat="59.0745592117" lon="30.0376725197"><time>2026-04-25T09:15:53Z</time></trkpt><trkpt lat="59.0746665001" lon="30.0375652313"><time>2026-04-25T09:15:55Z</time></trkpt><trkpt lat="59.0747737885" lon="30.0374364853"><time>2026-04-25T09:15:58Z</time></trkpt><trkpt lat="59.0747737885" lon="30.0373935699"><time>2026-04-25T09:16:00Z</time></trkpt><trkpt lat="59.0747737885" lon="30.0373935699"><time>2026-04-25T09:16:03Z</time></trkpt><trkpt lat="59.0747737885" lon="30.0373935699"><time>2026-04-25T09:16:05Z</time></trkpt><trkpt lat="59.0747737885" lon="30.0373935699"><time>2026-04-25T09:16:08Z</time></trkpt><trkpt lat="59.0747737885" lon="30.0374150276"><time>2026-04-25T09:16:10Z</time></trkpt><trkpt lat="59.0747308731" lon="30.0374579430"><time>2026-04-25T09:16:13Z</time></trkpt><trkpt lat="59.0746665001" lon="30.0375223160"><time>2026-04-25T09:16:15Z</time></trkpt><trkpt lat="59.0746879578" lon="30.0374579430"><time>2026-04-25T09:16:18Z</time></trkpt><trkpt lat="59.0747523308" lon="30.0372219086"><time>2026-04-25T09:16:20Z</time></trkpt><trkpt lat="59.0747308731" lon="30.0371360779"><time>2026-04-25T09:16:23Z</time></trkpt><trkpt lat="59.0747523308" lon="30.0371575356"><time>2026-04-25T09:16:25Z</time></trkpt><trkpt lat="59.0747737885" lon="30.0372433662"><time>2026-04-25T09:16:28Z</time></trkpt><trkpt lat="59.0748596191" lon="30.0373721123"><time>2026-04-25T09:16:30Z</time></trkpt><trkpt lat="59.0749239922" lon="30.0374150276"><time>2026-04-25T09:16:33Z</time></trkpt><trkpt lat="59.0749025345" lon="30.0373935699"><time>2026-04-25T09:16:35Z</time></trkpt><trkpt lat="59.0749025345" lon="30.0373935699"><time>2026-04-25T09:16:38Z</time></trkpt><trkpt lat="59.0748810768" lon="30.0373935699"><time>2026-04-25T09:16:40Z</time></trkpt><trkpt lat="59.0748596191" lon="30.0373721123"><time>2026-04-25T09:16:43Z</time></trkpt><trkpt lat="59.0748810768" lon="30.0373721123"><time>2026-04-25T09:16:45Z</time></trkpt><trkpt lat="59.0749454498" lon="30.0372219086"><time>2026-04-25T09:16:48Z</time></trkpt><trkpt lat="59.0750098228" lon="30.0372004509"><time>2026-04-25T09:16:50Z</time></trkpt><trkpt lat="59.0750527382" lon="30.0372862816"><time>2026-04-25T09:16:53Z</time></trkpt><trkpt lat="59.0750098228" lon="30.0372862816"><time>2026-04-25T09:16:55Z</time></trkpt><trkpt lat="59.0750098228" lon="30.0372862816"><time>2026-04-25T09:16:58Z</time></trkpt><trkpt lat="59.0750098228" lon="30.0372862816"><time>2026-04-25T09:17:00Z</time></trkpt><trkpt lat="59.0750098228" lon="30.0372862816"><time>2026-04-25T09:17:03Z</time></trkpt><trkpt lat="59.0750741959" lon="30.0372219086"><time>2026-04-25T09:17:05Z</time></trkpt><trkpt lat="59.0751385689" lon="30.0372004509"><time>2026-04-25T09:17:08Z</time></trkpt><trkpt lat="59.0752243996" lon="30.0371789932"><time>2026-04-25T09:17:10Z</time></trkpt><trkpt lat="59.0752887726" lon="30.0371575356"><time>2026-04-25T09:17:13Z</time></trkpt><trkpt lat="59.0753102303" lon="30.0371360779"><time>2026-04-25T09:17:15Z</time></trkpt><trkpt lat="59.0753102303" lon="30.0371360779"><time>2026-04-25T09:17:18Z</time></trkpt><trkpt lat="59.0753102303" lon="30.0371360779"><time>2026-04-25T09:17:20Z</time></trkpt><trkpt lat="59.0753102303" lon="30.0371360779"><time>2026-04-25T09:17:23Z</time></trkpt><trkpt lat="59.0753102303" lon="30.0371360779"><time>2026-04-25T09:17:25Z</time></trkpt><trkpt lat="59.0753102303" lon="30.0371360779"><time>2026-04-25T09:17:28Z</time></trkpt><trkpt lat="59.0753102303" lon="30.0371360779"><time>2026-04-25T09:17:30Z</time></trkpt><trkpt lat="59.0752887726" lon="30.0371575356"><time>2026-04-25T09:17:33Z</time></trkpt><trkpt lat="59.0753316879" lon="30.0371146202"><time>2026-04-25T09:17:35Z</time></trkpt><trkpt lat="59.0753960609" lon="30.0370073318"><time>2026-04-25T09:17:38Z</time></trkpt><trkpt lat="59.0753746033" lon="30.0369429588"><time>2026-04-25T09:17:40Z</time></trkpt><trkpt lat="59.0753746033" lon="30.0369644165"><time>2026-04-25T09:17:43Z</time></trkpt><trkpt lat="59.0753746033" lon="30.0370073318"><time>2026-04-25T09:17:45Z</time></trkpt><trkpt lat="59.0753531456" lon="30.0370717049"><time>2026-04-25T09:17:48Z</time></trkpt><trkpt lat="59.0754175186" lon="30.0371146202"><time>2026-04-25T09:17:50Z</time></trkpt><trkpt lat="59.0754175186" lon="30.0370287895"><time>2026-04-25T09:17:53Z</time></trkpt><trkpt lat="59.0753960609" lon="30.0370287895"><time>2026-04-25T09:17:55Z</time></trkpt><trkpt lat="59.0754175186" lon="30.0370287895"><time>2026-04-25T09:17:58Z</time></trkpt><trkpt lat="59.0754175186" lon="30.0370073318"><time>2026-04-25T09:18:00Z</time></trkpt><trkpt lat="59.0754389763" lon="30.0369858742"><time>2026-04-25T09:18:03Z</time></trkpt><trkpt lat="59.0754604340" lon="30.0369858742"><time>2026-04-25T09:18:05Z</time></trkpt><trkpt lat="59.0754818916" lon="30.0369215012"><time>2026-04-25T09:18:08Z</time></trkpt><trkpt lat="59.0754818916" lon="30.0368785858"><time>2026-04-25T09:18:10Z</time></trkpt><trkpt lat="59.0755248070" lon="30.0368356705"><time>2026-04-25T09:18:13Z</time></trkpt><trkpt lat="59.0755462646" lon="30.0367069244"><time>2026-04-25T09:18:15Z</time></trkpt><trkpt lat="59.0755462646" lon="30.0365996361"><time>2026-04-25T09:18:18Z</time></trkpt><trkpt lat="59.0755462646" lon="30.0365138054"><time>2026-04-25T09:18:20Z</time></trkpt><trkpt lat="59.0755248070" lon="30.0364494324"><time>2026-04-25T09:18:23Z</time></trkpt><trkpt lat="59.0755033493" lon="30.0364923477"><time>2026-04-25T09:18:25Z</time></trkpt><trkpt lat="59.0755033493" lon="30.0365352631"><time>2026-04-25T09:18:28Z</time></trkpt><trkpt lat="59.0755462646" lon="30.0366640091"><time>2026-04-25T09:18:30Z</time></trkpt><trkpt lat="59.0756320953" lon="30.0366854668"><time>2026-04-25T09:18:33Z</time></trkpt><trkpt lat="59.0756750107" lon="30.0365996361"><time>2026-04-25T09:18:35Z</time></trkpt><trkpt lat="59.0757179260" lon="30.0365352631"><time>2026-04-25T09:18:38Z</time></trkpt><trkpt lat="59.0757393837" lon="30.0364923477"><time>2026-04-25T09:18:40Z</time></trkpt><trkpt lat="59.0757822990" lon="30.0364279747"><time>2026-04-25T09:18:43Z</time></trkpt><trkpt lat="59.0758037567" lon="30.0363636017"><time>2026-04-25T09:18:45Z</time></trkpt><trkpt lat="59.0758252144" lon="30.0363206863"><time>2026-04-25T09:18:48Z</time></trkpt><trkpt lat="59.0758037567" lon="30.0363850594"><time>2026-04-25T09:18:50Z</time></trkpt><trkpt lat="59.0757393837" lon="30.0365138054"><time>2026-04-25T09:18:55Z</time></trkpt><trkpt lat="59.0757608414" lon="30.0365138054"><time>2026-04-25T09:18:58Z</time></trkpt><trkpt lat="59.0757822990" lon="30.0365138054"><time>2026-04-25T09:19:00Z</time></trkpt><trkpt lat="59.0758037567" lon="30.0365352631"><time>2026-04-25T09:19:03Z</time></trkpt><trkpt lat="59.0758681297" lon="30.0364708900"><time>2026-04-25T09:19:05Z</time></trkpt><trkpt lat="59.0758466721" lon="30.0364279747"><time>2026-04-25T09:19:08Z</time></trkpt><trkpt lat="59.0758466721" lon="30.0364279747"><time>2026-04-25T09:19:10Z</time></trkpt><trkpt lat="59.0758466721" lon="30.0364065170"><time>2026-04-25T09:19:13Z</time></trkpt><trkpt lat="59.0758681297" lon="30.0364065170"><time>2026-04-25T09:19:15Z</time></trkpt><trkpt lat="59.0758895874" lon="30.0364065170"><time>2026-04-25T09:19:18Z</time></trkpt><trkpt lat="59.0759110451" lon="30.0364065170"><time>2026-04-25T09:19:20Z</time></trkpt><trkpt lat="59.0759325027" lon="30.0364065170"><time>2026-04-25T09:19:23Z</time></trkpt><trkpt lat="59.0759968758" lon="30.0363850594"><time>2026-04-25T09:19:25Z</time></trkpt><trkpt lat="59.0760397911" lon="30.0363421440"><time>2026-04-25T09:19:28Z</time></trkpt><trkpt lat="59.0760397911" lon="30.0363421440"><time>2026-04-25T09:19:30Z</time></trkpt><trkpt lat="59.0760397911" lon="30.0363206863"><time>2026-04-25T09:19:33Z</time></trkpt><trkpt lat="59.0760397911" lon="30.0362348557"><time>2026-04-25T09:19:35Z</time></trkpt><trkpt lat="59.0760612488" lon="30.0362348557"><time>2026-04-25T09:19:38Z</time></trkpt><trkpt lat="59.0760612488" lon="30.0362133980"><time>2026-04-25T09:19:40Z</time></trkpt><trkpt lat="59.0760612488" lon="30.0361275673"><time>2026-04-25T09:19:43Z</time></trkpt><trkpt lat="59.0760397911" lon="30.0360846519"><time>2026-04-25T09:19:45Z</time></trkpt><trkpt lat="59.0760183334" lon="30.0360202789"><time>2026-04-25T09:19:48Z</time></trkpt><trkpt lat="59.0759754181" lon="30.0359773636"><time>2026-04-25T09:19:50Z</time></trkpt><trkpt lat="59.0760183334" lon="30.0359773636"><time>2026-04-25T09:19:53Z</time></trkpt><trkpt lat="59.0760827065" lon="30.0359129906"><time>2026-04-25T09:19:55Z</time></trkpt><trkpt lat="59.0761041641" lon="30.0358057022"><time>2026-04-25T09:19:58Z</time></trkpt><trkpt lat="59.0761470795" lon="30.0357627869"><time>2026-04-25T09:20:00Z</time></trkpt><trkpt lat="59.0761899948" lon="30.0357627869"><time>2026-04-25T09:20:03Z</time></trkpt><trkpt lat="59.0762329102" lon="30.0357842445"><time>2026-04-25T09:20:05Z</time></trkpt><trkpt lat="59.0762972832" lon="30.0358271599"><time>2026-04-25T09:20:08Z</time></trkpt><trkpt lat="59.0762972832" lon="30.0359559059"><time>2026-04-25T09:20:10Z</time></trkpt><trkpt lat="59.0763187408" lon="30.0360846519"><time>2026-04-25T09:20:13Z</time></trkpt><trkpt lat="59.0762758255" lon="30.0361704826"><time>2026-04-25T09:20:15Z</time></trkpt><trkpt lat="59.0762758255" lon="30.0361919403"><time>2026-04-25T09:20:18Z</time></trkpt><trkpt lat="59.0762758255" lon="30.0361919403"><time>2026-04-25T09:20:20Z</time></trkpt><trkpt lat="59.0761899948" lon="30.0362348557"><time>2026-04-25T09:20:23Z</time></trkpt><trkpt lat="59.0761470795" lon="30.0361490250"><time>2026-04-25T09:20:25Z</time></trkpt><trkpt lat="59.0761041641" lon="30.0360846519"><time>2026-04-25T09:20:28Z</time></trkpt><trkpt lat="59.0761041641" lon="30.0360631943"><time>2026-04-25T09:20:30Z</time></trkpt><trkpt lat="59.0761041641" lon="30.0360631943"><time>2026-04-25T09:20:33Z</time></trkpt><trkpt lat="59.0761041641" lon="30.0360631943"><time>2026-04-25T09:20:35Z</time></trkpt><trkpt lat="59.0761041641" lon="30.0360631943"><time>2026-04-25T09:20:38Z</time></trkpt><trkpt lat="59.0761041641" lon="30.0360631943"><time>2026-04-25T09:20:40Z</time></trkpt><trkpt lat="59.0761041641" lon="30.0360631943"><time>2026-04-25T09:20:43Z</time></trkpt><trkpt lat="59.0761041641" lon="30.0360631943"><time>2026-04-25T09:20:45Z</time></trkpt><trkpt lat="59.0761041641" lon="30.0360631943"><time>2026-04-25T09:20:48Z</time></trkpt><trkpt lat="59.0761041641" lon="30.0360631943"><time>2026-04-25T09:20:50Z</time></trkpt><trkpt lat="59.0761041641" lon="30.0360631943"><time>2026-04-25T09:20:53Z</time></trkpt><trkpt lat="59.0761041641" lon="30.0360631943"><time>2026-04-25T09:20:55Z</time></trkpt><trkpt lat="59.0761041641" lon="30.0360631943"><time>2026-04-25T09:20:58Z</time></trkpt><trkpt lat="59.0761041641" lon="30.0360631943"><time>2026-04-25T09:21:00Z</time></trkpt><trkpt lat="59.0761041641" lon="30.0360631943"><time>2026-04-25T09:21:03Z</time></trkpt><trkpt lat="59.0761041641" lon="30.0360631943"><time>2026-04-25T09:21:05Z</time></trkpt><trkpt lat="59.0761041641" lon="30.0360631943"><time>2026-04-25T09:21:08Z</time></trkpt><trkpt lat="59.0761041641" lon="30.0360631943"><time>2026-04-25T09:21:10Z</time></trkpt><trkpt lat="59.0761041641" lon="30.0360631943"><time>2026-04-25T09:21:13Z</time></trkpt><trkpt lat="59.0761041641" lon="30.0360631943"><time>2026-04-25T09:21:15Z</time></trkpt><trkpt lat="59.0761041641" lon="30.0360631943"><time>2026-04-25T09:21:18Z</time></trkpt><trkpt lat="59.0761041641" lon="30.0360631943"><time>2026-04-25T09:21:20Z</time></trkpt><trkpt lat="59.0761041641" lon="30.0360631943"><time>2026-04-25T09:21:23Z</time></trkpt><trkpt lat="59.0761041641" lon="30.0360631943"><time>2026-04-25T09:21:25Z</time></trkpt><trkpt lat="59.0761041641" lon="30.0360631943"><time>2026-04-25T09:21:28Z</time></trkpt><trkpt lat="59.0761041641" lon="30.0360631943"><time>2026-04-25T09:21:30Z</time></trkpt><trkpt lat="59.0761041641" lon="30.0360631943"><time>2026-04-25T09:21:33Z</time></trkpt><trkpt lat="59.0761041641" lon="30.0360631943"><time>2026-04-25T09:21:35Z</time></trkpt><trkpt lat="59.0761041641" lon="30.0360631943"><time>2026-04-25T09:21:38Z</time></trkpt><trkpt lat="59.0761041641" lon="30.0360631943"><time>2026-04-25T09:21:40Z</time></trkpt><trkpt lat="59.0761041641" lon="30.0360631943"><time>2026-04-25T09:21:43Z</time></trkpt><trkpt lat="59.0761041641" lon="30.0360631943"><time>2026-04-25T09:21:45Z</time></trkpt><trkpt lat="59.0761041641" lon="30.0360631943"><time>2026-04-25T09:21:48Z</time></trkpt><trkpt lat="59.0761041641" lon="30.0360631943"><time>2026-04-25T09:21:50Z</time></trkpt><trkpt lat="59.0761041641" lon="30.0360631943"><time>2026-04-25T09:21:53Z</time></trkpt><trkpt lat="59.0761041641" lon="30.0360631943"><time>2026-04-25T09:21:55Z</time></trkpt><trkpt lat="59.0761041641" lon="30.0360631943"><time>2026-04-25T09:21:58Z</time></trkpt><trkpt lat="59.0761041641" lon="30.0360631943"><time>2026-04-25T09:22:00Z</time></trkpt><trkpt lat="59.0761041641" lon="30.0360631943"><time>2026-04-25T09:22:03Z</time></trkpt><trkpt lat="59.0761041641" lon="30.0360631943"><time>2026-04-25T09:22:05Z</time></trkpt><trkpt lat="59.0761041641" lon="30.0360631943"><time>2026-04-25T09:22:08Z</time></trkpt><trkpt lat="59.0761041641" lon="30.0360631943"><time>2026-04-25T09:22:10Z</time></trkpt><trkpt lat="59.0761041641" lon="30.0360631943"><time>2026-04-25T09:22:13Z</time></trkpt><trkpt lat="59.0761041641" lon="30.0360631943"><time>2026-04-25T09:22:15Z</time></trkpt><trkpt lat="59.0761041641" lon="30.0360846519"><time>2026-04-25T09:22:18Z</time></trkpt><trkpt lat="59.0760827065" lon="30.0360846519"><time>2026-04-25T09:22:20Z</time></trkpt><trkpt lat="59.0760827065" lon="30.0360846519"><time>2026-04-25T09:22:23Z</time></trkpt><trkpt lat="59.0760827065" lon="30.0360846519"><time>2026-04-25T09:22:25Z</time></trkpt><trkpt lat="59.0760827065" lon="30.0360846519"><time>2026-04-25T09:22:28Z</time></trkpt><trkpt lat="59.0760827065" lon="30.0360846519"><time>2026-04-25T09:22:30Z</time></trkpt><trkpt lat="59.0760827065" lon="30.0360846519"><time>2026-04-25T09:22:33Z</time></trkpt><trkpt lat="59.0760827065" lon="30.0360846519"><time>2026-04-25T09:22:35Z</time></trkpt><trkpt lat="59.0760827065" lon="30.0360846519"><time>2026-04-25T09:22:38Z</time></trkpt><trkpt lat="59.0760827065" lon="30.0360846519"><time>2026-04-25T09:22:40Z</time></trkpt><trkpt lat="59.0760827065" lon="30.0360846519"><time>2026-04-25T09:22:43Z</time></trkpt><trkpt lat="59.0760827065" lon="30.0360846519"><time>2026-04-25T09:22:45Z</time></trkpt><trkpt lat="59.0760827065" lon="30.0360846519"><time>2026-04-25T09:22:48Z</time></trkpt><trkpt lat="59.0760827065" lon="30.0360846519"><time>2026-04-25T09:22:50Z</time></trkpt><trkpt lat="59.0760827065" lon="30.0360846519"><time>2026-04-25T09:22:53Z</time></trkpt><trkpt lat="59.0760827065" lon="30.0360846519"><time>2026-04-25T09:22:55Z</time></trkpt><trkpt lat="59.0760827065" lon="30.0360846519"><time>2026-04-25T09:22:58Z</time></trkpt><trkpt lat="59.0760827065" lon="30.0360846519"><time>2026-04-25T09:23:00Z</time></trkpt><trkpt lat="59.0760827065" lon="30.0360846519"><time>2026-04-25T09:23:03Z</time></trkpt><trkpt lat="59.0760827065" lon="30.0360846519"><time>2026-04-25T09:23:05Z</time></trkpt><trkpt lat="59.0760827065" lon="30.0360846519"><time>2026-04-25T09:23:08Z</time></trkpt><trkpt lat="59.0760827065" lon="30.0360846519"><time>2026-04-25T09:23:10Z</time></trkpt><trkpt lat="59.0760827065" lon="30.0360846519"><time>2026-04-25T09:23:13Z</time></trkpt><trkpt lat="59.0760827065" lon="30.0360846519"><time>2026-04-25T09:23:15Z</time></trkpt><trkpt lat="59.0760827065" lon="30.0360846519"><time>2026-04-25T09:23:18Z</time></trkpt><trkpt lat="59.0761041641" lon="30.0360631943"><time>2026-04-25T09:23:20Z</time></trkpt><trkpt lat="59.0761256218" lon="30.0360417366"><time>2026-04-25T09:23:23Z</time></trkpt><trkpt lat="59.0761685371" lon="30.0359773636"><time>2026-04-25T09:23:25Z</time></trkpt><trkpt lat="59.0761899948" lon="30.0359559059"><time>2026-04-25T09:23:28Z</time></trkpt><trkpt lat="59.0761899948" lon="30.0359559059"><time>2026-04-25T09:23:30Z</time></trkpt><trkpt lat="59.0762114525" lon="30.0359559059"><time>2026-04-25T09:23:33Z</time></trkpt><trkpt lat="59.0762114525" lon="30.0359559059"><time>2026-04-25T09:23:35Z</time></trkpt><trkpt lat="59.0762329102" lon="30.0359344482"><time>2026-04-25T09:23:38Z</time></trkpt><trkpt lat="59.0762543678" lon="30.0358915329"><time>2026-04-25T09:23:40Z</time></trkpt><trkpt lat="59.0762972832" lon="30.0358271599"><time>2026-04-25T09:23:43Z</time></trkpt><trkpt lat="59.0762758255" lon="30.0358486176"><time>2026-04-25T09:23:45Z</time></trkpt><trkpt lat="59.0762758255" lon="30.0358486176"><time>2026-04-25T09:23:48Z</time></trkpt><trkpt lat="59.0763187408" lon="30.0358486176"><time>2026-04-25T09:23:50Z</time></trkpt><trkpt lat="59.0763401985" lon="30.0358700752"><time>2026-04-25T09:23:53Z</time></trkpt><trkpt lat="59.0763616562" lon="30.0358700752"><time>2026-04-25T09:23:55Z</time></trkpt><trkpt lat="59.0763616562" lon="30.0358486176"><time>2026-04-25T09:23:58Z</time></trkpt><trkpt lat="59.0763616562" lon="30.0358486176"><time>2026-04-25T09:24:00Z</time></trkpt><trkpt lat="59.0763831139" lon="30.0358057022"><time>2026-04-25T09:24:03Z</time></trkpt><trkpt lat="59.0764045715" lon="30.0357198715"><time>2026-04-25T09:24:05Z</time></trkpt><trkpt lat="59.0764474869" lon="30.0356769562"><time>2026-04-25T09:24:08Z</time></trkpt><trkpt lat="59.0764904022" lon="30.0356554985"><time>2026-04-25T09:24:10Z</time></trkpt><trkpt lat="59.0764474869" lon="30.0356554985"><time>2026-04-25T09:24:13Z</time></trkpt><trkpt lat="59.0764474869" lon="30.0356554985"><time>2026-04-25T09:24:15Z</time></trkpt><trkpt lat="59.0764474869" lon="30.0356554985"><time>2026-04-25T09:24:18Z</time></trkpt><trkpt lat="59.0764689445" lon="30.0355267525"><time>2026-04-25T09:24:20Z</time></trkpt><trkpt lat="59.0764689445" lon="30.0353980064"><time>2026-04-25T09:24:23Z</time></trkpt><trkpt lat="59.0765333176" lon="30.0354194641"><time>2026-04-25T09:24:25Z</time></trkpt><trkpt lat="59.0765976906" lon="30.0355052948"><time>2026-04-25T09:24:28Z</time></trkpt><trkpt lat="59.0765976906" lon="30.0355267525"><time>2026-04-25T09:24:30Z</time></trkpt><trkpt lat="59.0765976906" lon="30.0355482101"><time>2026-04-25T09:24:33Z</time></trkpt><trkpt lat="59.0765976906" lon="30.0355911255"><time>2026-04-25T09:24:35Z</time></trkpt><trkpt lat="59.0766191483" lon="30.0355911255"><time>2026-04-25T09:24:38Z</time></trkpt><trkpt lat="59.0766191483" lon="30.0356125832"><time>2026-04-25T09:24:40Z</time></trkpt><trkpt lat="59.0766406059" lon="30.0355052948"><time>2026-04-25T09:24:43Z</time></trkpt><trkpt lat="59.0766620636" lon="30.0354194641"><time>2026-04-25T09:24:45Z</time></trkpt><trkpt lat="59.0766620636" lon="30.0354623795"><time>2026-04-25T09:24:48Z</time></trkpt><trkpt lat="59.0767049789" lon="30.0354623795"><time>2026-04-25T09:24:50Z</time></trkpt><trkpt lat="59.0767264366" lon="30.0354838371"><time>2026-04-25T09:24:53Z</time></trkpt><trkpt lat="59.0767264366" lon="30.0355052948"><time>2026-04-25T09:24:55Z</time></trkpt><trkpt lat="59.0767264366" lon="30.0354838371"><time>2026-04-25T09:24:58Z</time></trkpt><trkpt lat="59.0767264366" lon="30.0354623795"><time>2026-04-25T09:25:00Z</time></trkpt><trkpt lat="59.0767693520" lon="30.0354623795"><time>2026-04-25T09:25:03Z</time></trkpt><trkpt lat="59.0767908096" lon="30.0354623795"><time>2026-04-25T09:25:05Z</time></trkpt><trkpt lat="59.0767908096" lon="30.0354623795"><time>2026-04-25T09:25:08Z</time></trkpt><trkpt lat="59.0767693520" lon="30.0354623795"><time>2026-04-25T09:25:10Z</time></trkpt><trkpt lat="59.0767693520" lon="30.0354623795"><time>2026-04-25T09:25:13Z</time></trkpt><trkpt lat="59.0767693520" lon="30.0354623795"><time>2026-04-25T09:25:15Z</time></trkpt><trkpt lat="59.0767693520" lon="30.0354623795"><time>2026-04-25T09:25:18Z</time></trkpt><trkpt lat="59.0767693520" lon="30.0354838371"><time>2026-04-25T09:25:20Z</time></trkpt><trkpt lat="59.0768337250" lon="30.0355911255"><time>2026-04-25T09:25:23Z</time></trkpt><trkpt lat="59.0768551826" lon="30.0355696678"><time>2026-04-25T09:25:25Z</time></trkpt><trkpt lat="59.0768551826" lon="30.0354838371"><time>2026-04-25T09:25:28Z</time></trkpt><trkpt lat="59.0769195557" lon="30.0354623795"><time>2026-04-25T09:25:30Z</time></trkpt><trkpt lat="59.0769624710" lon="30.0354623795"><time>2026-04-25T09:25:33Z</time></trkpt><trkpt lat="59.0769410133" lon="30.0354838371"><time>2026-04-25T09:25:35Z</time></trkpt><trkpt lat="59.0769195557" lon="30.0354623795"><time>2026-04-25T09:25:38Z</time></trkpt><trkpt lat="59.0769410133" lon="30.0354194641"><time>2026-04-25T09:25:40Z</time></trkpt><trkpt lat="59.0769839287" lon="30.0353550911"><time>2026-04-25T09:25:43Z</time></trkpt><trkpt lat="59.0769839287" lon="30.0353550911"><time>2026-04-25T09:25:45Z</time></trkpt><trkpt lat="59.0769839287" lon="30.0353336334"><time>2026-04-25T09:25:48Z</time></trkpt><trkpt lat="59.0770268440" lon="30.0353336334"><time>2026-04-25T09:25:50Z</time></trkpt><trkpt lat="59.0770483017" lon="30.0353336334"><time>2026-04-25T09:25:53Z</time></trkpt><trkpt lat="59.0770483017" lon="30.0353336334"><time>2026-04-25T09:25:55Z</time></trkpt><trkpt lat="59.0770268440" lon="30.0353336334"><time>2026-04-25T09:25:58Z</time></trkpt><trkpt lat="59.0770483017" lon="30.0353121758"><time>2026-04-25T09:26:00Z</time></trkpt><trkpt lat="59.0771126747" lon="30.0353121758"><time>2026-04-25T09:26:03Z</time></trkpt><trkpt lat="59.0771985054" lon="30.0352692604"><time>2026-04-25T09:26:05Z</time></trkpt><trkpt lat="59.0772414207" lon="30.0352478027"><time>2026-04-25T09:26:08Z</time></trkpt><trkpt lat="59.0772414207" lon="30.0352478027"><time>2026-04-25T09:26:10Z</time></trkpt><trkpt lat="59.0772414207" lon="30.0352478027"><time>2026-04-25T09:26:13Z</time></trkpt><trkpt lat="59.0772628784" lon="30.0352263451"><time>2026-04-25T09:26:15Z</time></trkpt><trkpt lat="59.0773057938" lon="30.0352048874"><time>2026-04-25T09:26:18Z</time></trkpt><trkpt lat="59.0773272514" lon="30.0351834297"><time>2026-04-25T09:26:20Z</time></trkpt><trkpt lat="59.0773487091" lon="30.0351190567"><time>2026-04-25T09:26:23Z</time></trkpt><trkpt lat="59.0773487091" lon="30.0351190567"><time>2026-04-25T09:26:25Z</time></trkpt><trkpt lat="59.0773272514" lon="30.0351619720"><time>2026-04-25T09:26:28Z</time></trkpt><trkpt lat="59.0772843361" lon="30.0351619720"><time>2026-04-25T09:26:30Z</time></trkpt><trkpt lat="59.0773057938" lon="30.0351619720"><time>2026-04-25T09:26:33Z</time></trkpt><trkpt lat="59.0773272514" lon="30.0351190567"><time>2026-04-25T09:26:35Z</time></trkpt><trkpt lat="59.0773916245" lon="30.0350332260"><time>2026-04-25T09:26:38Z</time></trkpt><trkpt lat="59.0774345398" lon="30.0349688530"><time>2026-04-25T09:26:40Z</time></trkpt><trkpt lat="59.0774989128" lon="30.0349688530"><time>2026-04-25T09:26:43Z</time></trkpt><trkpt lat="59.0775203705" lon="30.0349473953"><time>2026-04-25T09:26:45Z</time></trkpt><trkpt lat="59.0775418282" lon="30.0349044800"><time>2026-04-25T09:26:48Z</time></trkpt><trkpt lat="59.0775203705" lon="30.0349259377"><time>2026-04-25T09:26:50Z</time></trkpt><trkpt lat="59.0775203705" lon="30.0349259377"><time>2026-04-25T09:26:53Z</time></trkpt><trkpt lat="59.0775203705" lon="30.0349259377"><time>2026-04-25T09:26:55Z</time></trkpt><trkpt lat="59.0775203705" lon="30.0349259377"><time>2026-04-25T09:26:58Z</time></trkpt><trkpt lat="59.0775203705" lon="30.0349259377"><time>2026-04-25T09:27:00Z</time></trkpt><trkpt lat="59.0776062012" lon="30.0349259377"><time>2026-04-25T09:27:03Z</time></trkpt><trkpt lat="59.0776920319" lon="30.0349259377"><time>2026-04-25T09:27:05Z</time></trkpt><trkpt lat="59.0777564049" lon="30.0349473953"><time>2026-04-25T09:27:08Z</time></trkpt><trkpt lat="59.0777778625" lon="30.0348830223"><time>2026-04-25T09:27:10Z</time></trkpt><trkpt lat="59.0777778625" lon="30.0348830223"><time>2026-04-25T09:27:13Z</time></trkpt><trkpt lat="59.0777349472" lon="30.0348830223"><time>2026-04-25T09:27:15Z</time></trkpt><trkpt lat="59.0776920319" lon="30.0348186493"><time>2026-04-25T09:27:18Z</time></trkpt><trkpt lat="59.0776276588" lon="30.0347757339"><time>2026-04-25T09:27:20Z</time></trkpt><trkpt lat="59.0776491165" lon="30.0347328186"><time>2026-04-25T09:27:23Z</time></trkpt><trkpt lat="59.0776705742" lon="30.0346899033"><time>2026-04-25T09:27:25Z</time></trkpt><trkpt lat="59.0776920319" lon="30.0346469879"><time>2026-04-25T09:27:28Z</time></trkpt><trkpt lat="59.0777134895" lon="30.0346255302"><time>2026-04-25T09:27:30Z</time></trkpt><trkpt lat="59.0777134895" lon="30.0346255302"><time>2026-04-25T09:27:33Z</time></trkpt><trkpt lat="59.0777134895" lon="30.0346255302"><time>2026-04-25T09:27:35Z</time></trkpt><trkpt lat="59.0777134895" lon="30.0346255302"><time>2026-04-25T09:27:38Z</time></trkpt><trkpt lat="59.0777134895" lon="30.0346255302"><time>2026-04-25T09:27:40Z</time></trkpt><trkpt lat="59.0777134895" lon="30.0346255302"><time>2026-04-25T09:27:43Z</time></trkpt><trkpt lat="59.0776920319" lon="30.0346255302"><time>2026-04-25T09:27:45Z</time></trkpt><trkpt lat="59.0776705742" lon="30.0347113609"><time>2026-04-25T09:27:48Z</time></trkpt><trkpt lat="59.0776491165" lon="30.0347328186"><time>2026-04-25T09:27:50Z</time></trkpt><trkpt lat="59.0776491165" lon="30.0347113609"><time>2026-04-25T09:27:53Z</time></trkpt><trkpt lat="59.0776491165" lon="30.0346899033"><time>2026-04-25T09:27:55Z</time></trkpt><trkpt lat="59.0776276588" lon="30.0346684456"><time>2026-04-25T09:27:58Z</time></trkpt><trkpt lat="59.0776276588" lon="30.0346899033"><time>2026-04-25T09:28:00Z</time></trkpt><trkpt lat="59.0776276588" lon="30.0346899033"><time>2026-04-25T09:28:03Z</time></trkpt><trkpt lat="59.0776276588" lon="30.0346899033"><time>2026-04-25T09:28:05Z</time></trkpt><trkpt lat="59.0776276588" lon="30.0346899033"><time>2026-04-25T09:28:08Z</time></trkpt><trkpt lat="59.0776276588" lon="30.0346899033"><time>2026-04-25T09:28:10Z</time></trkpt><trkpt lat="59.0776276588" lon="30.0346899033"><time>2026-04-25T09:28:13Z</time></trkpt><trkpt lat="59.0776276588" lon="30.0346899033"><time>2026-04-25T09:28:15Z</time></trkpt><trkpt lat="59.0776276588" lon="30.0346684456"><time>2026-04-25T09:28:18Z</time></trkpt><trkpt lat="59.0776276588" lon="30.0346684456"><time>2026-04-25T09:28:20Z</time></trkpt><trkpt lat="59.0776276588" lon="30.0346684456"><time>2026-04-25T09:28:23Z</time></trkpt><trkpt lat="59.0776276588" lon="30.0346684456"><time>2026-04-25T09:28:25Z</time></trkpt><trkpt lat="59.0776276588" lon="30.0346684456"><time>2026-04-25T09:28:28Z</time></trkpt><trkpt lat="59.0776491165" lon="30.0346684456"><time>2026-04-25T09:28:30Z</time></trkpt><trkpt lat="59.0776491165" lon="30.0346684456"><time>2026-04-25T09:28:33Z</time></trkpt><trkpt lat="59.0776491165" lon="30.0346684456"><time>2026-04-25T09:28:35Z</time></trkpt><trkpt lat="59.0776491165" lon="30.0346684456"><time>2026-04-25T09:28:38Z</time></trkpt><trkpt lat="59.0776491165" lon="30.0346684456"><time>2026-04-25T09:28:40Z</time></trkpt><trkpt lat="59.0776491165" lon="30.0346684456"><time>2026-04-25T09:28:43Z</time></trkpt><trkpt lat="59.0776491165" lon="30.0346684456"><time>2026-04-25T09:28:45Z</time></trkpt><trkpt lat="59.0776491165" lon="30.0346684456"><time>2026-04-25T09:28:48Z</time></trkpt><trkpt lat="59.0776491165" lon="30.0346899033"><time>2026-04-25T09:28:50Z</time></trkpt><trkpt lat="59.0776491165" lon="30.0346899033"><time>2026-04-25T09:28:53Z</time></trkpt><trkpt lat="59.0776276588" lon="30.0346899033"><time>2026-04-25T09:28:55Z</time></trkpt><trkpt lat="59.0776276588" lon="30.0346899033"><time>2026-04-25T09:28:58Z</time></trkpt><trkpt lat="59.0776276588" lon="30.0347113609"><time>2026-04-25T09:29:00Z</time></trkpt><trkpt lat="59.0776276588" lon="30.0347113609"><time>2026-04-25T09:29:03Z</time></trkpt><trkpt lat="59.0776276588" lon="30.0347113609"><time>2026-04-25T09:29:05Z</time></trkpt><trkpt lat="59.0776276588" lon="30.0347113609"><time>2026-04-25T09:29:08Z</time></trkpt><trkpt lat="59.0776276588" lon="30.0347113609"><time>2026-04-25T09:29:10Z</time></trkpt><trkpt lat="59.0776276588" lon="30.0347113609"><time>2026-04-25T09:29:13Z</time></trkpt><trkpt lat="59.0776276588" lon="30.0347113609"><time>2026-04-25T09:29:15Z</time></trkpt><trkpt lat="59.0776276588" lon="30.0347113609"><time>2026-04-25T09:29:18Z</time></trkpt><trkpt lat="59.0776276588" lon="30.0347113609"><time>2026-04-25T09:29:20Z</time></trkpt><trkpt lat="59.0776276588" lon="30.0347113609"><time>2026-04-25T09:29:23Z</time></trkpt><trkpt lat="59.0776276588" lon="30.0347113609"><time>2026-04-25T09:29:25Z</time></trkpt><trkpt lat="59.0776276588" lon="30.0347113609"><time>2026-04-25T09:29:28Z</time></trkpt><trkpt lat="59.0776276588" lon="30.0347113609"><time>2026-04-25T09:29:30Z</time></trkpt><trkpt lat="59.0776276588" lon="30.0347113609"><time>2026-04-25T09:29:33Z</time></trkpt><trkpt lat="59.0776276588" lon="30.0347113609"><time>2026-04-25T09:29:35Z</time></trkpt><trkpt lat="59.0776276588" lon="30.0347113609"><time>2026-04-25T09:29:38Z</time></trkpt><trkpt lat="59.0776276588" lon="30.0347113609"><time>2026-04-25T09:29:40Z</time></trkpt><trkpt lat="59.0776276588" lon="30.0347113609"><time>2026-04-25T09:29:43Z</time></trkpt><trkpt lat="59.0776276588" lon="30.0347113609"><time>2026-04-25T09:29:45Z</time></trkpt><trkpt lat="59.0776276588" lon="30.0347113609"><time>2026-04-25T09:29:48Z</time></trkpt><trkpt lat="59.0776276588" lon="30.0347113609"><time>2026-04-25T09:29:50Z</time></trkpt><trkpt lat="59.0776276588" lon="30.0347113609"><time>2026-04-25T09:29:53Z</time></trkpt><trkpt lat="59.0776276588" lon="30.0347113609"><time>2026-04-25T09:29:55Z</time></trkpt><trkpt lat="59.0776276588" lon="30.0347113609"><time>2026-04-25T09:29:58Z</time></trkpt><trkpt lat="59.0776276588" lon="30.0347113609"><time>2026-04-25T09:30:00Z</time></trkpt><trkpt lat="59.0776276588" lon="30.0347113609"><time>2026-04-25T09:30:03Z</time></trkpt><trkpt lat="59.0776276588" lon="30.0347113609"><time>2026-04-25T09:30:05Z</time></trkpt><trkpt lat="59.0776276588" lon="30.0347113609"><time>2026-04-25T09:30:08Z</time></trkpt><trkpt lat="59.0776276588" lon="30.0347113609"><time>2026-04-25T09:30:10Z</time></trkpt><trkpt lat="59.0776276588" lon="30.0347113609"><time>2026-04-25T09:30:13Z</time></trkpt><trkpt lat="59.0776276588" lon="30.0347113609"><time>2026-04-25T09:30:15Z</time></trkpt><trkpt lat="59.0776276588" lon="30.0347113609"><time>2026-04-25T09:30:18Z</time></trkpt><trkpt lat="59.0776276588" lon="30.0347113609"><time>2026-04-25T09:30:20Z</time></trkpt><trkpt lat="59.0776276588" lon="30.0347113609"><time>2026-04-25T09:30:23Z</time></trkpt><trkpt lat="59.0776276588" lon="30.0347113609"><time>2026-04-25T09:30:25Z</time></trkpt><trkpt lat="59.0776491165" lon="30.0347113609"><time>2026-04-25T09:30:28Z</time></trkpt><trkpt lat="59.0776491165" lon="30.0347113609"><time>2026-04-25T09:30:30Z</time></trkpt><trkpt lat="59.0776491165" lon="30.0347113609"><time>2026-04-25T09:30:33Z</time></trkpt><trkpt lat="59.0776491165" lon="30.0347113609"><time>2026-04-25T09:30:35Z</time></trkpt><trkpt lat="59.0776491165" lon="30.0347113609"><time>2026-04-25T09:30:38Z</time></trkpt><trkpt lat="59.0776491165" lon="30.0347113609"><time>2026-04-25T09:30:40Z</time></trkpt><trkpt lat="59.0776491165" lon="30.0347113609"><time>2026-04-25T09:30:43Z</time></trkpt><trkpt lat="59.0776491165" lon="30.0347113609"><time>2026-04-25T09:30:45Z</time></trkpt><trkpt lat="59.0776491165" lon="30.0347113609"><time>2026-04-25T09:30:48Z</time></trkpt><trkpt lat="59.0776491165" lon="30.0347113609"><time>2026-04-25T09:30:50Z</time></trkpt><trkpt lat="59.0776491165" lon="30.0347113609"><time>2026-04-25T09:30:53Z</time></trkpt><trkpt lat="59.0776491165" lon="30.0347113609"><time>2026-04-25T09:30:55Z</time></trkpt><trkpt lat="59.0776491165" lon="30.0347113609"><time>2026-04-25T09:30:58Z</time></trkpt><trkpt lat="59.0776491165" lon="30.0347113609"><time>2026-04-25T09:31:00Z</time></trkpt><trkpt lat="59.0776491165" lon="30.0347113609"><time>2026-04-25T09:31:03Z</time></trkpt><trkpt lat="59.0776491165" lon="30.0347113609"><time>2026-04-25T09:31:05Z</time></trkpt><trkpt lat="59.0776491165" lon="30.0347113609"><time>2026-04-25T09:31:08Z</time></trkpt><trkpt lat="59.0776491165" lon="30.0347113609"><time>2026-04-25T09:31:10Z</time></trkpt><trkpt lat="59.0776491165" lon="30.0347113609"><time>2026-04-25T09:31:13Z</time></trkpt><trkpt lat="59.0776491165" lon="30.0347113609"><time>2026-04-25T09:31:15Z</time></trkpt><trkpt lat="59.0776491165" lon="30.0347113609"><time>2026-04-25T09:31:18Z</time></trkpt><trkpt lat="59.0776491165" lon="30.0347113609"><time>2026-04-25T09:31:20Z</time></trkpt><trkpt lat="59.0776491165" lon="30.0347113609"><time>2026-04-25T09:31:23Z</time></trkpt><trkpt lat="59.0776491165" lon="30.0347113609"><time>2026-04-25T09:31:25Z</time></trkpt><trkpt lat="59.0776491165" lon="30.0347113609"><time>2026-04-25T09:31:28Z</time></trkpt><trkpt lat="59.0776491165" lon="30.0347113609"><time>2026-04-25T09:31:30Z</time></trkpt><trkpt lat="59.0776491165" lon="30.0347113609"><time>2026-04-25T09:31:33Z</time></trkpt><trkpt lat="59.0776491165" lon="30.0347113609"><time>2026-04-25T09:31:35Z</time></trkpt><trkpt lat="59.0776491165" lon="30.0347113609"><time>2026-04-25T09:31:38Z</time></trkpt><trkpt lat="59.0776491165" lon="30.0347113609"><time>2026-04-25T09:31:40Z</time></trkpt><trkpt lat="59.0776491165" lon="30.0347113609"><time>2026-04-25T09:31:43Z</time></trkpt><trkpt lat="59.0776491165" lon="30.0347113609"><time>2026-04-25T09:31:45Z</time></trkpt><trkpt lat="59.0776491165" lon="30.0347113609"><time>2026-04-25T09:31:48Z</time></trkpt><trkpt lat="59.0776491165" lon="30.0347113609"><time>2026-04-25T09:31:50Z</time></trkpt><trkpt lat="59.0776491165" lon="30.0346684456"><time>2026-04-25T09:31:53Z</time></trkpt><trkpt lat="59.0776705742" lon="30.0346040726"><time>2026-04-25T09:31:55Z</time></trkpt><trkpt lat="59.0777134895" lon="30.0345611572"><time>2026-04-25T09:31:58Z</time></trkpt><trkpt lat="59.0777564049" lon="30.0344967842"><time>2026-04-25T09:32:00Z</time></trkpt><trkpt lat="59.0777564049" lon="30.0345182419"><time>2026-04-25T09:32:03Z</time></trkpt><trkpt lat="59.0777564049" lon="30.0345182419"><time>2026-04-25T09:32:05Z</time></trkpt><trkpt lat="59.0777564049" lon="30.0344967842"><time>2026-04-25T09:32:08Z</time></trkpt><trkpt lat="59.0777993202" lon="30.0344967842"><time>2026-04-25T09:32:10Z</time></trkpt><trkpt lat="59.0777993202" lon="30.0344753265"><time>2026-04-25T09:32:13Z</time></trkpt><trkpt lat="59.0778207779" lon="30.0343894958"><time>2026-04-25T09:32:15Z</time></trkpt><trkpt lat="59.0778422356" lon="30.0343465805"><time>2026-04-25T09:32:18Z</time></trkpt><trkpt lat="59.0778422356" lon="30.0343465805"><time>2026-04-25T09:32:20Z</time></trkpt><trkpt lat="59.0778422356" lon="30.0343465805"><time>2026-04-25T09:32:23Z</time></trkpt><trkpt lat="59.0778636932" lon="30.0343465805"><time>2026-04-25T09:32:25Z</time></trkpt><trkpt lat="59.0778851509" lon="30.0343465805"><time>2026-04-25T09:32:28Z</time></trkpt><trkpt lat="59.0779280663" lon="30.0343465805"><time>2026-04-25T09:32:30Z</time></trkpt><trkpt lat="59.0779280663" lon="30.0343251228"><time>2026-04-25T09:32:33Z</time></trkpt><trkpt lat="59.0779066086" lon="30.0343465805"><time>2026-04-25T09:32:35Z</time></trkpt><trkpt lat="59.0779280663" lon="30.0343465805"><time>2026-04-25T09:32:38Z</time></trkpt><trkpt lat="59.0779495239" lon="30.0343465805"><time>2026-04-25T09:32:40Z</time></trkpt><trkpt lat="59.0780138969" lon="30.0343894958"><time>2026-04-25T09:32:43Z</time></trkpt><trkpt lat="59.0780782700" lon="30.0343894958"><time>2026-04-25T09:32:45Z</time></trkpt><trkpt lat="59.0780997276" lon="30.0343251228"><time>2026-04-25T09:32:48Z</time></trkpt><trkpt lat="59.0780782700" lon="30.0343251228"><time>2026-04-25T09:32:50Z</time></trkpt><trkpt lat="59.0780782700" lon="30.0343036652"><time>2026-04-25T09:32:53Z</time></trkpt><trkpt lat="59.0780782700" lon="30.0342822075"><time>2026-04-25T09:32:55Z</time></trkpt><trkpt lat="59.0780782700" lon="30.0342822075"><time>2026-04-25T09:32:58Z</time></trkpt><trkpt lat="59.0780782700" lon="30.0342822075"><time>2026-04-25T09:33:00Z</time></trkpt><trkpt lat="59.0780782700" lon="30.0342822075"><time>2026-04-25T09:33:03Z</time></trkpt><trkpt lat="59.0780782700" lon="30.0342822075"><time>2026-04-25T09:33:05Z</time></trkpt><trkpt lat="59.0780782700" lon="30.0342822075"><time>2026-04-25T09:33:08Z</time></trkpt><trkpt lat="59.0780782700" lon="30.0342822075"><time>2026-04-25T09:33:10Z</time></trkpt><trkpt lat="59.0780782700" lon="30.0342822075"><time>2026-04-25T09:33:13Z</time></trkpt><trkpt lat="59.0780782700" lon="30.0342822075"><time>2026-04-25T09:33:15Z</time></trkpt><trkpt lat="59.0780782700" lon="30.0342822075"><time>2026-04-25T09:33:18Z</time></trkpt><trkpt lat="59.0780782700" lon="30.0342822075"><time>2026-04-25T09:33:20Z</time></trkpt><trkpt lat="59.0780782700" lon="30.0342822075"><time>2026-04-25T09:33:23Z</time></trkpt><trkpt lat="59.0780782700" lon="30.0342822075"><time>2026-04-25T09:33:25Z</time></trkpt><trkpt lat="59.0780782700" lon="30.0342822075"><time>2026-04-25T09:33:28Z</time></trkpt><trkpt lat="59.0780782700" lon="30.0342822075"><time>2026-04-25T09:33:30Z</time></trkpt><trkpt lat="59.0780782700" lon="30.0342822075"><time>2026-04-25T09:33:33Z</time></trkpt><trkpt lat="59.0780782700" lon="30.0342822075"><time>2026-04-25T09:33:35Z</time></trkpt><trkpt lat="59.0780782700" lon="30.0342822075"><time>2026-04-25T09:33:38Z</time></trkpt><trkpt lat="59.0780782700" lon="30.0342822075"><time>2026-04-25T09:33:40Z</time></trkpt><trkpt lat="59.0780782700" lon="30.0342822075"><time>2026-04-25T09:33:43Z</time></trkpt><trkpt lat="59.0780782700" lon="30.0342822075"><time>2026-04-25T09:33:45Z</time></trkpt><trkpt lat="59.0780782700" lon="30.0342822075"><time>2026-04-25T09:33:48Z</time></trkpt><trkpt lat="59.0780782700" lon="30.0342822075"><time>2026-04-25T09:33:50Z</time></trkpt><trkpt lat="59.0780782700" lon="30.0342822075"><time>2026-04-25T09:33:53Z</time></trkpt><trkpt lat="59.0780782700" lon="30.0342822075"><time>2026-04-25T09:33:55Z</time></trkpt><trkpt lat="59.0780782700" lon="30.0342822075"><time>2026-04-25T09:33:58Z</time></trkpt><trkpt lat="59.0780782700" lon="30.0342822075"><time>2026-04-25T09:34:00Z</time></trkpt><trkpt lat="59.0780782700" lon="30.0342822075"><time>2026-04-25T09:34:03Z</time></trkpt><trkpt lat="59.0780782700" lon="30.0342822075"><time>2026-04-25T09:34:05Z</time></trkpt><trkpt lat="59.0780782700" lon="30.0342822075"><time>2026-04-25T09:34:08Z</time></trkpt><trkpt lat="59.0780782700" lon="30.0342822075"><time>2026-04-25T09:34:10Z</time></trkpt><trkpt lat="59.0780782700" lon="30.0342822075"><time>2026-04-25T09:34:13Z</time></trkpt><trkpt lat="59.0780782700" lon="30.0342822075"><time>2026-04-25T09:34:15Z</time></trkpt><trkpt lat="59.0780782700" lon="30.0342822075"><time>2026-04-25T09:34:18Z</time></trkpt><trkpt lat="59.0780782700" lon="30.0342822075"><time>2026-04-25T09:34:20Z</time></trkpt><trkpt lat="59.0780782700" lon="30.0342822075"><time>2026-04-25T09:34:23Z</time></trkpt><trkpt lat="59.0780782700" lon="30.0342822075"><time>2026-04-25T09:34:25Z</time></trkpt><trkpt lat="59.0780782700" lon="30.0342822075"><time>2026-04-25T09:34:28Z</time></trkpt><trkpt lat="59.0780782700" lon="30.0342822075"><time>2026-04-25T09:34:30Z</time></trkpt><trkpt lat="59.0780782700" lon="30.0342822075"><time>2026-04-25T09:34:33Z</time></trkpt><trkpt lat="59.0780782700" lon="30.0342822075"><time>2026-04-25T09:34:35Z</time></trkpt><trkpt lat="59.0780782700" lon="30.0342822075"><time>2026-04-25T09:34:38Z</time></trkpt><trkpt lat="59.0780782700" lon="30.0342822075"><time>2026-04-25T09:34:40Z</time></trkpt><trkpt lat="59.0780782700" lon="30.0342822075"><time>2026-04-25T09:34:43Z</time></trkpt><trkpt lat="59.0780782700" lon="30.0342822075"><time>2026-04-25T09:34:45Z</time></trkpt><trkpt lat="59.0780782700" lon="30.0342822075"><time>2026-04-25T09:34:48Z</time></trkpt><trkpt lat="59.0780782700" lon="30.0342822075"><time>2026-04-25T09:34:50Z</time></trkpt><trkpt lat="59.0780782700" lon="30.0342822075"><time>2026-04-25T09:34:53Z</time></trkpt><trkpt lat="59.0780782700" lon="30.0342822075"><time>2026-04-25T09:34:55Z</time></trkpt><trkpt lat="59.0780782700" lon="30.0342822075"><time>2026-04-25T09:34:58Z</time></trkpt><trkpt lat="59.0780782700" lon="30.0342822075"><time>2026-04-25T09:35:00Z</time></trkpt><trkpt lat="59.0780782700" lon="30.0342822075"><time>2026-04-25T09:35:03Z</time></trkpt><trkpt lat="59.0780782700" lon="30.0342822075"><time>2026-04-25T09:35:05Z</time></trkpt><trkpt lat="59.0780782700" lon="30.0342822075"><time>2026-04-25T09:35:08Z</time></trkpt><trkpt lat="59.0780782700" lon="30.0342822075"><time>2026-04-25T09:35:13Z</time></trkpt><trkpt lat="59.0780782700" lon="30.0342822075"><time>2026-04-25T09:35:15Z</time></trkpt><trkpt lat="59.0780782700" lon="30.0342822075"><time>2026-04-25T09:35:20Z</time></trkpt><trkpt lat="59.0780782700" lon="30.0342822075"><time>2026-04-25T09:35:23Z</time></trkpt><trkpt lat="59.0780782700" lon="30.0342822075"><time>2026-04-25T09:35:25Z</time></trkpt><trkpt lat="59.0780782700" lon="30.0342822075"><time>2026-04-25T09:35:28Z</time></trkpt><trkpt lat="59.0780782700" lon="30.0342822075"><time>2026-04-25T09:35:30Z</time></trkpt><trkpt lat="59.0780782700" lon="30.0342822075"><time>2026-04-25T09:35:33Z</time></trkpt><trkpt lat="59.0780782700" lon="30.0342822075"><time>2026-04-25T09:35:35Z</time></trkpt><trkpt lat="59.0780782700" lon="30.0342822075"><time>2026-04-25T09:35:38Z</time></trkpt><trkpt lat="59.0780782700" lon="30.0342822075"><time>2026-04-25T09:35:40Z</time></trkpt><trkpt lat="59.0780782700" lon="30.0342822075"><time>2026-04-25T09:35:43Z</time></trkpt><trkpt lat="59.0780782700" lon="30.0342822075"><time>2026-04-25T09:35:45Z</time></trkpt><trkpt lat="59.0780782700" lon="30.0342822075"><time>2026-04-25T09:35:48Z</time></trkpt><trkpt lat="59.0780782700" lon="30.0342822075"><time>2026-04-25T09:35:50Z</time></trkpt><trkpt lat="59.0780782700" lon="30.0342822075"><time>2026-04-25T09:35:53Z</time></trkpt><trkpt lat="59.0780782700" lon="30.0342822075"><time>2026-04-25T09:35:55Z</time></trkpt><trkpt lat="59.0780782700" lon="30.0342822075"><time>2026-04-25T09:35:58Z</time></trkpt><trkpt lat="59.0780782700" lon="30.0342822075"><time>2026-04-25T09:36:00Z</time></trkpt><trkpt lat="59.0780782700" lon="30.0342822075"><time>2026-04-25T09:36:05Z</time></trkpt><trkpt lat="59.0780782700" lon="30.0342822075"><time>2026-04-25T09:36:08Z</time></trkpt><trkpt lat="59.0780782700" lon="30.0342822075"><time>2026-04-25T09:36:10Z</time></trkpt><trkpt lat="59.0780782700" lon="30.0342822075"><time>2026-04-25T09:36:13Z</time></trkpt><trkpt lat="59.0780782700" lon="30.0342822075"><time>2026-04-25T09:36:15Z</time></trkpt><trkpt lat="59.0780782700" lon="30.0342822075"><time>2026-04-25T09:36:18Z</time></trkpt><trkpt lat="59.0780782700" lon="30.0342822075"><time>2026-04-25T09:36:20Z</time></trkpt><trkpt lat="59.0780782700" lon="30.0342822075"><time>2026-04-25T09:36:23Z</time></trkpt><trkpt lat="59.0780782700" lon="30.0342822075"><time>2026-04-25T09:36:25Z</time></trkpt><trkpt lat="59.0780782700" lon="30.0342822075"><time>2026-04-25T09:36:28Z</time></trkpt><trkpt lat="59.0780782700" lon="30.0342822075"><time>2026-04-25T09:36:30Z</time></trkpt><trkpt lat="59.0780782700" lon="30.0342822075"><time>2026-04-25T09:36:33Z</time></trkpt><trkpt lat="59.0780782700" lon="30.0342822075"><time>2026-04-25T09:36:35Z</time></trkpt><trkpt lat="59.0780782700" lon="30.0342822075"><time>2026-04-25T09:36:38Z</time></trkpt><trkpt lat="59.0780782700" lon="30.0342822075"><time>2026-04-25T09:36:40Z</time></trkpt><trkpt lat="59.0780782700" lon="30.0342822075"><time>2026-04-25T09:36:43Z</time></trkpt><trkpt lat="59.0780782700" lon="30.0342822075"><time>2026-04-25T09:36:45Z</time></trkpt><trkpt lat="59.0780782700" lon="30.0342822075"><time>2026-04-25T09:36:48Z</time></trkpt><trkpt lat="59.0780782700" lon="30.0342822075"><time>2026-04-25T09:36:50Z</time></trkpt><trkpt lat="59.0780782700" lon="30.0342822075"><time>2026-04-25T09:36:53Z</time></trkpt><trkpt lat="59.0780782700" lon="30.0342822075"><time>2026-04-25T09:36:55Z</time></trkpt><trkpt lat="59.0780782700" lon="30.0342822075"><time>2026-04-25T09:36:58Z</time></trkpt><trkpt lat="59.0780782700" lon="30.0342822075"><time>2026-04-25T09:37:00Z</time></trkpt><trkpt lat="59.0780782700" lon="30.0342822075"><time>2026-04-25T09:37:03Z</time></trkpt><trkpt lat="59.0780782700" lon="30.0342822075"><time>2026-04-25T09:37:05Z</time></trkpt><trkpt lat="59.0780782700" lon="30.0342822075"><time>2026-04-25T09:37:08Z</time></trkpt><trkpt lat="59.0780782700" lon="30.0342822075"><time>2026-04-25T09:37:10Z</time></trkpt><trkpt lat="59.0780782700" lon="30.0342822075"><time>2026-04-25T09:37:13Z</time></trkpt><trkpt lat="59.0780782700" lon="30.0342822075"><time>2026-04-25T09:37:15Z</time></trkpt><trkpt lat="59.0780782700" lon="30.0342822075"><time>2026-04-25T09:37:18Z</time></trkpt><trkpt lat="59.0780782700" lon="30.0342822075"><time>2026-04-25T09:37:20Z</time></trkpt><trkpt lat="59.0780782700" lon="30.0342822075"><time>2026-04-25T09:37:23Z</time></trkpt><trkpt lat="59.0780782700" lon="30.0342822075"><time>2026-04-25T09:37:25Z</time></trkpt><trkpt lat="59.0780782700" lon="30.0342822075"><time>2026-04-25T09:37:28Z</time></trkpt><trkpt lat="59.0780782700" lon="30.0342822075"><time>2026-04-25T09:37:30Z</time></trkpt><trkpt lat="59.0780782700" lon="30.0342822075"><time>2026-04-25T09:37:33Z</time></trkpt><trkpt lat="59.0780782700" lon="30.0342822075"><time>2026-04-25T09:37:35Z</time></trkpt><trkpt lat="59.0780782700" lon="30.0342822075"><time>2026-04-25T09:37:38Z</time></trkpt><trkpt lat="59.0780782700" lon="30.0342822075"><time>2026-04-25T09:37:40Z</time></trkpt><trkpt lat="59.0780782700" lon="30.0342822075"><time>2026-04-25T09:37:43Z</time></trkpt><trkpt lat="59.0780782700" lon="30.0342822075"><time>2026-04-25T09:37:45Z</time></trkpt><trkpt lat="59.0780782700" lon="30.0342822075"><time>2026-04-25T09:37:48Z</time></trkpt><trkpt lat="59.0780782700" lon="30.0342822075"><time>2026-04-25T09:37:50Z</time></trkpt><trkpt lat="59.0780782700" lon="30.0342822075"><time>2026-04-25T09:37:53Z</time></trkpt><trkpt lat="59.0780782700" lon="30.0342822075"><time>2026-04-25T09:37:55Z</time></trkpt><trkpt lat="59.0780782700" lon="30.0342822075"><time>2026-04-25T09:37:58Z</time></trkpt><trkpt lat="59.0780782700" lon="30.0342822075"><time>2026-04-25T09:38:00Z</time></trkpt><trkpt lat="59.0780782700" lon="30.0342822075"><time>2026-04-25T09:38:03Z</time></trkpt><trkpt lat="59.0780782700" lon="30.0342822075"><time>2026-04-25T09:38:05Z</time></trkpt><trkpt lat="59.0780782700" lon="30.0342822075"><time>2026-04-25T09:38:08Z</time></trkpt><trkpt lat="59.0780782700" lon="30.0342822075"><time>2026-04-25T09:38:10Z</time></trkpt><trkpt lat="59.0780782700" lon="30.0342822075"><time>2026-04-25T09:38:13Z</time></trkpt><trkpt lat="59.0780782700" lon="30.0342822075"><time>2026-04-25T09:38:15Z</time></trkpt><trkpt lat="59.0780782700" lon="30.0342822075"><time>2026-04-25T09:38:18Z</time></trkpt><trkpt lat="59.0780782700" lon="30.0342607498"><time>2026-04-25T09:38:20Z</time></trkpt><trkpt lat="59.0780782700" lon="30.0342607498"><time>2026-04-25T09:38:23Z</time></trkpt><trkpt lat="59.0780782700" lon="30.0342178345"><time>2026-04-25T09:38:25Z</time></trkpt><trkpt lat="59.0780782700" lon="30.0342178345"><time>2026-04-25T09:38:28Z</time></trkpt><trkpt lat="59.0780782700" lon="30.0341963768"><time>2026-04-25T09:38:30Z</time></trkpt><trkpt lat="59.0780568123" lon="30.0340890884"><time>2026-04-25T09:38:33Z</time></trkpt><trkpt lat="59.0780138969" lon="30.0339818001"><time>2026-04-25T09:38:35Z</time></trkpt><trkpt lat="59.0779924393" lon="30.0339174271"><time>2026-04-25T09:38:38Z</time></trkpt><trkpt lat="59.0780138969" lon="30.0338530540"><time>2026-04-25T09:38:40Z</time></trkpt><trkpt lat="59.0780782700" lon="30.0338315964"><time>2026-04-25T09:38:43Z</time></trkpt><trkpt lat="59.0781211853" lon="30.0338745117"><time>2026-04-25T09:38:45Z</time></trkpt><trkpt lat="59.0781211853" lon="30.0338530540"><time>2026-04-25T09:38:48Z</time></trkpt><trkpt lat="59.0781211853" lon="30.0338315964"><time>2026-04-25T09:38:50Z</time></trkpt><trkpt lat="59.0781211853" lon="30.0337672234"><time>2026-04-25T09:38:53Z</time></trkpt><trkpt lat="59.0781426430" lon="30.0336384773"><time>2026-04-25T09:38:55Z</time></trkpt><trkpt lat="59.0781426430" lon="30.0336384773"><time>2026-04-25T09:38:58Z</time></trkpt><trkpt lat="59.0781641006" lon="30.0336170197"><time>2026-04-25T09:39:00Z</time></trkpt><trkpt lat="59.0782070160" lon="30.0335311890"><time>2026-04-25T09:39:03Z</time></trkpt><trkpt lat="59.0782070160" lon="30.0334668159"><time>2026-04-25T09:39:05Z</time></trkpt><trkpt lat="59.0782070160" lon="30.0334668159"><time>2026-04-25T09:39:08Z</time></trkpt><trkpt lat="59.0782284737" lon="30.0334024429"><time>2026-04-25T09:39:10Z</time></trkpt><trkpt lat="59.0782713890" lon="30.0332522392"><time>2026-04-25T09:39:13Z</time></trkpt><trkpt lat="59.0782928467" lon="30.0331449509"><time>2026-04-25T09:39:15Z</time></trkpt><trkpt lat="59.0782713890" lon="30.0331020355"><time>2026-04-25T09:39:18Z</time></trkpt><trkpt lat="59.0782713890" lon="30.0331234932"><time>2026-04-25T09:39:20Z</time></trkpt><trkpt lat="59.0782713890" lon="30.0331664085"><time>2026-04-25T09:39:23Z</time></trkpt><trkpt lat="59.0782499313" lon="30.0333380699"><time>2026-04-25T09:39:25Z</time></trkpt><trkpt lat="59.0782499313" lon="30.0333809853"><time>2026-04-25T09:39:28Z</time></trkpt><trkpt lat="59.0782713890" lon="30.0333166122"><time>2026-04-25T09:39:30Z</time></trkpt><trkpt lat="59.0782928467" lon="30.0333166122"><time>2026-04-25T09:39:33Z</time></trkpt><trkpt lat="59.0783572197" lon="30.0332522392"><time>2026-04-25T09:39:35Z</time></trkpt><trkpt lat="59.0784215927" lon="30.0332093239"><time>2026-04-25T09:39:38Z</time></trkpt><trkpt lat="59.0784645081" lon="30.0331878662"><time>2026-04-25T09:39:40Z</time></trkpt><trkpt lat="59.0784430504" lon="30.0331664085"><time>2026-04-25T09:39:43Z</time></trkpt><trkpt lat="59.0784645081" lon="30.0331664085"><time>2026-04-25T09:39:45Z</time></trkpt><trkpt lat="59.0784645081" lon="30.0331664085"><time>2026-04-25T09:39:48Z</time></trkpt><trkpt lat="59.0784430504" lon="30.0331878662"><time>2026-04-25T09:39:50Z</time></trkpt><trkpt lat="59.0784430504" lon="30.0331878662"><time>2026-04-25T09:39:53Z</time></trkpt><trkpt lat="59.0784430504" lon="30.0330805779"><time>2026-04-25T09:39:55Z</time></trkpt><trkpt lat="59.0784430504" lon="30.0329303741"><time>2026-04-25T09:39:58Z</time></trkpt><trkpt lat="59.0784859657" lon="30.0328230858"><time>2026-04-25T09:40:00Z</time></trkpt><trkpt lat="59.0785288811" lon="30.0327372551"><time>2026-04-25T09:40:03Z</time></trkpt><trkpt lat="59.0785074234" lon="30.0327801704"><time>2026-04-25T09:40:05Z</time></trkpt><trkpt lat="59.0785074234" lon="30.0328016281"><time>2026-04-25T09:40:08Z</time></trkpt><trkpt lat="59.0785074234" lon="30.0328445435"><time>2026-04-25T09:40:10Z</time></trkpt><trkpt lat="59.0784859657" lon="30.0328660011"><time>2026-04-25T09:40:13Z</time></trkpt><trkpt lat="59.0785503387" lon="30.0328016281"><time>2026-04-25T09:40:15Z</time></trkpt><trkpt lat="59.0786147118" lon="30.0327157974"><time>2026-04-25T09:40:18Z</time></trkpt><trkpt lat="59.0786147118" lon="30.0326085091"><time>2026-04-25T09:40:20Z</time></trkpt><trkpt lat="59.0785932541" lon="30.0325655937"><time>2026-04-25T09:40:23Z</time></trkpt><trkpt lat="59.0786147118" lon="30.0325870514"><time>2026-04-25T09:40:25Z</time></trkpt><trkpt lat="59.0786147118" lon="30.0325870514"><time>2026-04-25T09:40:28Z</time></trkpt><trkpt lat="59.0786147118" lon="30.0325870514"><time>2026-04-25T09:40:30Z</time></trkpt><trkpt lat="59.0786147118" lon="30.0326514244"><time>2026-04-25T09:40:33Z</time></trkpt><trkpt lat="59.0786147118" lon="30.0327801704"><time>2026-04-25T09:40:35Z</time></trkpt><trkpt lat="59.0786147118" lon="30.0328016281"><time>2026-04-25T09:40:38Z</time></trkpt><trkpt lat="59.0786576271" lon="30.0328445435"><time>2026-04-25T09:40:40Z</time></trkpt><trkpt lat="59.0787005424" lon="30.0328445435"><time>2026-04-25T09:40:43Z</time></trkpt><trkpt lat="59.0787649155" lon="30.0328016281"><time>2026-04-25T09:40:45Z</time></trkpt><trkpt lat="59.0787649155" lon="30.0328016281"><time>2026-04-25T09:40:48Z</time></trkpt><trkpt lat="59.0787434578" lon="30.0327372551"><time>2026-04-25T09:40:50Z</time></trkpt><trkpt lat="59.0787220001" lon="30.0326943398"><time>2026-04-25T09:40:53Z</time></trkpt><trkpt lat="59.0787220001" lon="30.0326299667"><time>2026-04-25T09:40:55Z</time></trkpt><trkpt lat="59.0787220001" lon="30.0326299667"><time>2026-04-25T09:40:58Z</time></trkpt><trkpt lat="59.0787434578" lon="30.0325870514"><time>2026-04-25T09:41:00Z</time></trkpt><trkpt lat="59.0787434578" lon="30.0325655937"><time>2026-04-25T09:41:03Z</time></trkpt><trkpt lat="59.0787649155" lon="30.0325441360"><time>2026-04-25T09:41:05Z</time></trkpt><trkpt lat="59.0787649155" lon="30.0325441360"><time>2026-04-25T09:41:08Z</time></trkpt><trkpt lat="59.0787649155" lon="30.0325441360"><time>2026-04-25T09:41:10Z</time></trkpt><trkpt lat="59.0787649155" lon="30.0325441360"><time>2026-04-25T09:41:13Z</time></trkpt><trkpt lat="59.0788507462" lon="30.0324368477"><time>2026-04-25T09:41:15Z</time></trkpt><trkpt lat="59.0788292885" lon="30.0324583054"><time>2026-04-25T09:41:18Z</time></trkpt><trkpt lat="59.0788292885" lon="30.0324153900"><time>2026-04-25T09:41:20Z</time></trkpt><trkpt lat="59.0788292885" lon="30.0323724747"><time>2026-04-25T09:41:23Z</time></trkpt><trkpt lat="59.0788292885" lon="30.0323081017"><time>2026-04-25T09:41:25Z</time></trkpt><trkpt lat="59.0788292885" lon="30.0322222710"><time>2026-04-25T09:41:28Z</time></trkpt><trkpt lat="59.0788722038" lon="30.0320935249"><time>2026-04-25T09:41:30Z</time></trkpt><trkpt lat="59.0788936615" lon="30.0320720673"><time>2026-04-25T09:41:33Z</time></trkpt><trkpt lat="59.0789151192" lon="30.0320935249"><time>2026-04-25T09:41:35Z</time></trkpt><trkpt lat="59.0789365768" lon="30.0320720673"><time>2026-04-25T09:41:38Z</time></trkpt><trkpt lat="59.0789580345" lon="30.0320506096"><time>2026-04-25T09:41:40Z</time></trkpt><trkpt lat="59.0789794922" lon="30.0320076942"><time>2026-04-25T09:41:43Z</time></trkpt><trkpt lat="59.0789794922" lon="30.0320291519"><time>2026-04-25T09:41:45Z</time></trkpt><trkpt lat="59.0789794922" lon="30.0320076942"><time>2026-04-25T09:41:48Z</time></trkpt><trkpt lat="59.0790009499" lon="30.0319647789"><time>2026-04-25T09:41:50Z</time></trkpt><trkpt lat="59.0790009499" lon="30.0319433212"><time>2026-04-25T09:41:53Z</time></trkpt><trkpt lat="59.0790653229" lon="30.0319433212"><time>2026-04-25T09:41:55Z</time></trkpt><trkpt lat="59.0790867805" lon="30.0319218636"><time>2026-04-25T09:41:58Z</time></trkpt><trkpt lat="59.0790867805" lon="30.0319218636"><time>2026-04-25T09:42:00Z</time></trkpt><trkpt lat="59.0790867805" lon="30.0319218636"><time>2026-04-25T09:42:03Z</time></trkpt><trkpt lat="59.0790867805" lon="30.0319218636"><time>2026-04-25T09:42:05Z</time></trkpt><trkpt lat="59.0790867805" lon="30.0319218636"><time>2026-04-25T09:42:08Z</time></trkpt><trkpt lat="59.0790867805" lon="30.0319218636"><time>2026-04-25T09:42:10Z</time></trkpt><trkpt lat="59.0790867805" lon="30.0319433212"><time>2026-04-25T09:42:13Z</time></trkpt><trkpt lat="59.0790867805" lon="30.0319433212"><time>2026-04-25T09:42:15Z</time></trkpt><trkpt lat="59.0790867805" lon="30.0319433212"><time>2026-04-25T09:42:18Z</time></trkpt><trkpt lat="59.0790867805" lon="30.0319433212"><time>2026-04-25T09:42:20Z</time></trkpt><trkpt lat="59.0790867805" lon="30.0319433212"><time>2026-04-25T09:42:23Z</time></trkpt><trkpt lat="59.0790867805" lon="30.0319433212"><time>2026-04-25T09:42:25Z</time></trkpt><trkpt lat="59.0790653229" lon="30.0319433212"><time>2026-04-25T09:42:28Z</time></trkpt><trkpt lat="59.0790653229" lon="30.0319433212"><time>2026-04-25T09:42:30Z</time></trkpt><trkpt lat="59.0790653229" lon="30.0319433212"><time>2026-04-25T09:42:33Z</time></trkpt><trkpt lat="59.0790653229" lon="30.0319433212"><time>2026-04-25T09:42:35Z</time></trkpt><trkpt lat="59.0790653229" lon="30.0319433212"><time>2026-04-25T09:42:38Z</time></trkpt><trkpt lat="59.0790653229" lon="30.0319433212"><time>2026-04-25T09:42:40Z</time></trkpt><trkpt lat="59.0790653229" lon="30.0319433212"><time>2026-04-25T09:42:43Z</time></trkpt><trkpt lat="59.0790653229" lon="30.0319433212"><time>2026-04-25T09:42:45Z</time></trkpt><trkpt lat="59.0790653229" lon="30.0319433212"><time>2026-04-25T09:42:48Z</time></trkpt><trkpt lat="59.0790653229" lon="30.0319433212"><time>2026-04-25T09:42:50Z</time></trkpt><trkpt lat="59.0790653229" lon="30.0319433212"><time>2026-04-25T09:42:53Z</time></trkpt><trkpt lat="59.0790653229" lon="30.0319433212"><time>2026-04-25T09:42:55Z</time></trkpt><trkpt lat="59.0790653229" lon="30.0319433212"><time>2026-04-25T09:42:58Z</time></trkpt><trkpt lat="59.0790653229" lon="30.0319433212"><time>2026-04-25T09:43:00Z</time></trkpt><trkpt lat="59.0790653229" lon="30.0319433212"><time>2026-04-25T09:43:03Z</time></trkpt><trkpt lat="59.0790653229" lon="30.0319433212"><time>2026-04-25T09:43:05Z</time></trkpt><trkpt lat="59.0790653229" lon="30.0319433212"><time>2026-04-25T09:43:08Z</time></trkpt><trkpt lat="59.0790653229" lon="30.0319433212"><time>2026-04-25T09:43:10Z</time></trkpt><trkpt lat="59.0790653229" lon="30.0319433212"><time>2026-04-25T09:43:13Z</time></trkpt><trkpt lat="59.0790653229" lon="30.0319433212"><time>2026-04-25T09:43:15Z</time></trkpt><trkpt lat="59.0790653229" lon="30.0319433212"><time>2026-04-25T09:43:18Z</time></trkpt><trkpt lat="59.0790653229" lon="30.0319433212"><time>2026-04-25T09:43:20Z</time></trkpt><trkpt lat="59.0790653229" lon="30.0319433212"><time>2026-04-25T09:43:23Z</time></trkpt><trkpt lat="59.0790653229" lon="30.0319433212"><time>2026-04-25T09:43:25Z</time></trkpt><trkpt lat="59.0790653229" lon="30.0319433212"><time>2026-04-25T09:43:28Z</time></trkpt><trkpt lat="59.0790653229" lon="30.0319433212"><time>2026-04-25T09:43:30Z</time></trkpt><trkpt lat="59.0790653229" lon="30.0319433212"><time>2026-04-25T09:43:33Z</time></trkpt><trkpt lat="59.0790653229" lon="30.0319433212"><time>2026-04-25T09:43:35Z</time></trkpt><trkpt lat="59.0790653229" lon="30.0319433212"><time>2026-04-25T09:43:38Z</time></trkpt><trkpt lat="59.0790653229" lon="30.0319433212"><time>2026-04-25T09:43:40Z</time></trkpt><trkpt lat="59.0790653229" lon="30.0319433212"><time>2026-04-25T09:43:43Z</time></trkpt><trkpt lat="59.0790653229" lon="30.0319433212"><time>2026-04-25T09:43:45Z</time></trkpt><trkpt lat="59.0790653229" lon="30.0319433212"><time>2026-04-25T09:43:48Z</time></trkpt><trkpt lat="59.0790653229" lon="30.0319433212"><time>2026-04-25T09:43:50Z</time></trkpt><trkpt lat="59.0790653229" lon="30.0319433212"><time>2026-04-25T09:43:53Z</time></trkpt><trkpt lat="59.0790653229" lon="30.0319433212"><time>2026-04-25T09:43:55Z</time></trkpt><trkpt lat="59.0790653229" lon="30.0319433212"><time>2026-04-25T09:43:58Z</time></trkpt><trkpt lat="59.0790653229" lon="30.0319433212"><time>2026-04-25T09:44:00Z</time></trkpt><trkpt lat="59.0790653229" lon="30.0319433212"><time>2026-04-25T09:44:03Z</time></trkpt><trkpt lat="59.0790653229" lon="30.0319433212"><time>2026-04-25T09:44:05Z</time></trkpt><trkpt lat="59.0790653229" lon="30.0319433212"><time>2026-04-25T09:44:08Z</time></trkpt><trkpt lat="59.0790653229" lon="30.0319433212"><time>2026-04-25T09:44:10Z</time></trkpt><trkpt lat="59.0790653229" lon="30.0319433212"><time>2026-04-25T09:44:13Z</time></trkpt><trkpt lat="59.0790653229" lon="30.0319433212"><time>2026-04-25T09:44:15Z</time></trkpt><trkpt lat="59.0790653229" lon="30.0319433212"><time>2026-04-25T09:44:18Z</time></trkpt><trkpt lat="59.0790653229" lon="30.0319433212"><time>2026-04-25T09:44:20Z</time></trkpt><trkpt lat="59.0790653229" lon="30.0319433212"><time>2026-04-25T09:44:23Z</time></trkpt><trkpt lat="59.0790653229" lon="30.0319433212"><time>2026-04-25T09:44:25Z</time></trkpt><trkpt lat="59.0790653229" lon="30.0319433212"><time>2026-04-25T09:44:28Z</time></trkpt><trkpt lat="59.0790653229" lon="30.0319433212"><time>2026-04-25T09:44:30Z</time></trkpt><trkpt lat="59.0790653229" lon="30.0319433212"><time>2026-04-25T09:44:33Z</time></trkpt><trkpt lat="59.0790653229" lon="30.0319433212"><time>2026-04-25T09:44:35Z</time></trkpt><trkpt lat="59.0790653229" lon="30.0319433212"><time>2026-04-25T09:44:38Z</time></trkpt><trkpt lat="59.0790653229" lon="30.0319433212"><time>2026-04-25T09:44:40Z</time></trkpt><trkpt lat="59.0790653229" lon="30.0319433212"><time>2026-04-25T09:44:43Z</time></trkpt><trkpt lat="59.0790653229" lon="30.0319433212"><time>2026-04-25T09:44:45Z</time></trkpt><trkpt lat="59.0790653229" lon="30.0319433212"><time>2026-04-25T09:44:48Z</time></trkpt><trkpt lat="59.0790653229" lon="30.0319433212"><time>2026-04-25T09:44:50Z</time></trkpt><trkpt lat="59.0790653229" lon="30.0319433212"><time>2026-04-25T09:44:53Z</time></trkpt><trkpt lat="59.0790653229" lon="30.0319433212"><time>2026-04-25T09:44:55Z</time></trkpt><trkpt lat="59.0790653229" lon="30.0319433212"><time>2026-04-25T09:44:58Z</time></trkpt><trkpt lat="59.0790653229" lon="30.0319433212"><time>2026-04-25T09:45:00Z</time></trkpt><trkpt lat="59.0790653229" lon="30.0319433212"><time>2026-04-25T09:45:03Z</time></trkpt><trkpt lat="59.0790653229" lon="30.0319647789"><time>2026-04-25T09:45:05Z</time></trkpt><trkpt lat="59.0790653229" lon="30.0319647789"><time>2026-04-25T09:45:08Z</time></trkpt><trkpt lat="59.0790653229" lon="30.0319647789"><time>2026-04-25T09:45:10Z</time></trkpt><trkpt lat="59.0790653229" lon="30.0319647789"><time>2026-04-25T09:45:13Z</time></trkpt><trkpt lat="59.0790653229" lon="30.0319647789"><time>2026-04-25T09:45:15Z</time></trkpt><trkpt lat="59.0790653229" lon="30.0319647789"><time>2026-04-25T09:45:18Z</time></trkpt><trkpt lat="59.0790653229" lon="30.0319647789"><time>2026-04-25T09:45:20Z</time></trkpt><trkpt lat="59.0790653229" lon="30.0319647789"><time>2026-04-25T09:45:23Z</time></trkpt><trkpt lat="59.0790653229" lon="30.0319647789"><time>2026-04-25T09:45:25Z</time></trkpt><trkpt lat="59.0790653229" lon="30.0319647789"><time>2026-04-25T09:45:28Z</time></trkpt><trkpt lat="59.0790653229" lon="30.0319647789"><time>2026-04-25T09:45:30Z</time></trkpt><trkpt lat="59.0790653229" lon="30.0319647789"><time>2026-04-25T09:45:33Z</time></trkpt><trkpt lat="59.0790653229" lon="30.0319647789"><time>2026-04-25T09:45:35Z</time></trkpt><trkpt lat="59.0790653229" lon="30.0319647789"><time>2026-04-25T09:45:38Z</time></trkpt><trkpt lat="59.0790653229" lon="30.0319647789"><time>2026-04-25T09:45:40Z</time></trkpt><trkpt lat="59.0790653229" lon="30.0319647789"><time>2026-04-25T09:45:43Z</time></trkpt><trkpt lat="59.0790653229" lon="30.0319647789"><time>2026-04-25T09:45:45Z</time></trkpt><trkpt lat="59.0790653229" lon="30.0319647789"><time>2026-04-25T09:45:48Z</time></trkpt><trkpt lat="59.0790438652" lon="30.0319647789"><time>2026-04-25T09:45:50Z</time></trkpt><trkpt lat="59.0790438652" lon="30.0319647789"><time>2026-04-25T09:45:53Z</time></trkpt><trkpt lat="59.0790438652" lon="30.0319647789"><time>2026-04-25T09:45:55Z</time></trkpt><trkpt lat="59.0790438652" lon="30.0319647789"><time>2026-04-25T09:45:58Z</time></trkpt><trkpt lat="59.0790438652" lon="30.0319647789"><time>2026-04-25T09:46:00Z</time></trkpt><trkpt lat="59.0790438652" lon="30.0319647789"><time>2026-04-25T09:46:03Z</time></trkpt><trkpt lat="59.0790438652" lon="30.0319647789"><time>2026-04-25T09:46:05Z</time></trkpt><trkpt lat="59.0790438652" lon="30.0319647789"><time>2026-04-25T09:46:08Z</time></trkpt><trkpt lat="59.0790438652" lon="30.0319647789"><time>2026-04-25T09:46:10Z</time></trkpt><trkpt lat="59.0790438652" lon="30.0319647789"><time>2026-04-25T09:46:13Z</time></trkpt><trkpt lat="59.0790438652" lon="30.0319647789"><time>2026-04-25T09:46:15Z</time></trkpt><trkpt lat="59.0790438652" lon="30.0319647789"><time>2026-04-25T09:46:18Z</time></trkpt><trkpt lat="59.0790438652" lon="30.0319647789"><time>2026-04-25T09:46:20Z</time></trkpt><trkpt lat="59.0790438652" lon="30.0319647789"><time>2026-04-25T09:46:23Z</time></trkpt><trkpt lat="59.0790438652" lon="30.0319647789"><time>2026-04-25T09:46:25Z</time></trkpt><trkpt lat="59.0790438652" lon="30.0319647789"><time>2026-04-25T09:46:28Z</time></trkpt><trkpt lat="59.0790438652" lon="30.0319647789"><time>2026-04-25T09:46:30Z</time></trkpt><trkpt lat="59.0790438652" lon="30.0319647789"><time>2026-04-25T09:46:33Z</time></trkpt><trkpt lat="59.0790438652" lon="30.0319647789"><time>2026-04-25T09:46:35Z</time></trkpt><trkpt lat="59.0790438652" lon="30.0319647789"><time>2026-04-25T09:46:38Z</time></trkpt><trkpt lat="59.0790438652" lon="30.0319647789"><time>2026-04-25T09:46:40Z</time></trkpt><trkpt lat="59.0790438652" lon="30.0319647789"><time>2026-04-25T09:46:43Z</time></trkpt><trkpt lat="59.0790438652" lon="30.0319647789"><time>2026-04-25T09:46:45Z</time></trkpt><trkpt lat="59.0790438652" lon="30.0319647789"><time>2026-04-25T09:46:48Z</time></trkpt><trkpt lat="59.0790438652" lon="30.0319647789"><time>2026-04-25T09:46:50Z</time></trkpt><trkpt lat="59.0790653229" lon="30.0319647789"><time>2026-04-25T09:46:53Z</time></trkpt><trkpt lat="59.0790438652" lon="30.0319004059"><time>2026-04-25T09:46:55Z</time></trkpt><trkpt lat="59.0790653229" lon="30.0317716599"><time>2026-04-25T09:46:58Z</time></trkpt><trkpt lat="59.0791082382" lon="30.0317072868"><time>2026-04-25T09:47:00Z</time></trkpt><trkpt lat="59.0791296959" lon="30.0316643715"><time>2026-04-25T09:47:03Z</time></trkpt><trkpt lat="59.0791511536" lon="30.0316858292"><time>2026-04-25T09:47:05Z</time></trkpt><trkpt lat="59.0791296959" lon="30.0317072868"><time>2026-04-25T09:47:08Z</time></trkpt><trkpt lat="59.0791296959" lon="30.0317287445"><time>2026-04-25T09:47:10Z</time></trkpt><trkpt lat="59.0791296959" lon="30.0317072868"><time>2026-04-25T09:47:13Z</time></trkpt><trkpt lat="59.0791296959" lon="30.0316858292"><time>2026-04-25T09:47:15Z</time></trkpt><trkpt lat="59.0791296959" lon="30.0315785408"><time>2026-04-25T09:47:18Z</time></trkpt><trkpt lat="59.0791511536" lon="30.0315356255"><time>2026-04-25T09:47:20Z</time></trkpt><trkpt lat="59.0791511536" lon="30.0315785408"><time>2026-04-25T09:47:23Z</time></trkpt><trkpt lat="59.0791726112" lon="30.0315570831"><time>2026-04-25T09:47:25Z</time></trkpt><trkpt lat="59.0791726112" lon="30.0315570831"><time>2026-04-25T09:47:28Z</time></trkpt><trkpt lat="59.0791726112" lon="30.0314927101"><time>2026-04-25T09:47:30Z</time></trkpt><trkpt lat="59.0792155266" lon="30.0314712524"><time>2026-04-25T09:47:33Z</time></trkpt><trkpt lat="59.0792798996" lon="30.0314068794"><time>2026-04-25T09:47:35Z</time></trkpt><trkpt lat="59.0793228149" lon="30.0313639641"><time>2026-04-25T09:47:38Z</time></trkpt><trkpt lat="59.0793228149" lon="30.0313639641"><time>2026-04-25T09:47:40Z</time></trkpt><trkpt lat="59.0793228149" lon="30.0313639641"><time>2026-04-25T09:47:43Z</time></trkpt><trkpt lat="59.0793228149" lon="30.0312995911"><time>2026-04-25T09:47:45Z</time></trkpt><trkpt lat="59.0793657303" lon="30.0312137604"><time>2026-04-25T09:47:48Z</time></trkpt><trkpt lat="59.0793657303" lon="30.0311923027"><time>2026-04-25T09:47:50Z</time></trkpt><trkpt lat="59.0793657303" lon="30.0312137604"><time>2026-04-25T09:47:53Z</time></trkpt><trkpt lat="59.0793442726" lon="30.0312137604"><time>2026-04-25T09:47:55Z</time></trkpt><trkpt lat="59.0793013573" lon="30.0311493874"><time>2026-04-25T09:47:58Z</time></trkpt><trkpt lat="59.0793228149" lon="30.0310206413"><time>2026-04-25T09:48:00Z</time></trkpt><trkpt lat="59.0793442726" lon="30.0308704376"><time>2026-04-25T09:48:03Z</time></trkpt><trkpt lat="59.0793442726" lon="30.0307631493"><time>2026-04-25T09:48:05Z</time></trkpt><trkpt lat="59.0793871880" lon="30.0306987762"><time>2026-04-25T09:48:08Z</time></trkpt><trkpt lat="59.0794086456" lon="30.0306129456"><time>2026-04-25T09:48:10Z</time></trkpt><trkpt lat="59.0794086456" lon="30.0306344032"><time>2026-04-25T09:48:13Z</time></trkpt><trkpt lat="59.0794086456" lon="30.0306987762"><time>2026-04-25T09:48:15Z</time></trkpt><trkpt lat="59.0794301033" lon="30.0308060646"><time>2026-04-25T09:48:18Z</time></trkpt><trkpt lat="59.0794515610" lon="30.0308275223"><time>2026-04-25T09:48:20Z</time></trkpt><trkpt lat="59.0794515610" lon="30.0308275223"><time>2026-04-25T09:48:23Z</time></trkpt><trkpt lat="59.0794515610" lon="30.0308275223"><time>2026-04-25T09:48:25Z</time></trkpt><trkpt lat="59.0794301033" lon="30.0308275223"><time>2026-04-25T09:48:28Z</time></trkpt><trkpt lat="59.0794515610" lon="30.0308060646"><time>2026-04-25T09:48:30Z</time></trkpt><trkpt lat="59.0794515610" lon="30.0307631493"><time>2026-04-25T09:48:33Z</time></trkpt><trkpt lat="59.0794515610" lon="30.0307416916"><time>2026-04-25T09:48:35Z</time></trkpt><trkpt lat="59.0794730186" lon="30.0307202339"><time>2026-04-25T09:48:38Z</time></trkpt><trkpt lat="59.0794730186" lon="30.0306987762"><time>2026-04-25T09:48:40Z</time></trkpt><trkpt lat="59.0794944763" lon="30.0306558609"><time>2026-04-25T09:48:43Z</time></trkpt><trkpt lat="59.0795588493" lon="30.0305485725"><time>2026-04-25T09:48:45Z</time></trkpt><trkpt lat="59.0796017647" lon="30.0304627419"><time>2026-04-25T09:48:48Z</time></trkpt><trkpt lat="59.0796232224" lon="30.0303983688"><time>2026-04-25T09:48:50Z</time></trkpt><trkpt lat="59.0796232224" lon="30.0303983688"><time>2026-04-25T09:48:53Z</time></trkpt><trkpt lat="59.0796232224" lon="30.0303339958"><time>2026-04-25T09:48:55Z</time></trkpt><trkpt lat="59.0796232224" lon="30.0303339958"><time>2026-04-25T09:48:58Z</time></trkpt><trkpt lat="59.0796232224" lon="30.0303125381"><time>2026-04-25T09:49:00Z</time></trkpt><trkpt lat="59.0796017647" lon="30.0302481651"><time>2026-04-25T09:49:03Z</time></trkpt><trkpt lat="59.0796446800" lon="30.0301837921"><time>2026-04-25T09:49:05Z</time></trkpt><trkpt lat="59.0796661377" lon="30.0301194191"><time>2026-04-25T09:49:08Z</time></trkpt><trkpt lat="59.0797305107" lon="30.0300550461"><time>2026-04-25T09:49:10Z</time></trkpt><trkpt lat="59.0797519684" lon="30.0299906731"><time>2026-04-25T09:49:13Z</time></trkpt><trkpt lat="59.0797519684" lon="30.0299692154"><time>2026-04-25T09:49:15Z</time></trkpt><trkpt lat="59.0797519684" lon="30.0300121307"><time>2026-04-25T09:49:18Z</time></trkpt><trkpt lat="59.0797734261" lon="30.0299692154"><time>2026-04-25T09:49:20Z</time></trkpt><trkpt lat="59.0797948837" lon="30.0299692154"><time>2026-04-25T09:49:23Z</time></trkpt><trkpt lat="59.0797948837" lon="30.0300121307"><time>2026-04-25T09:49:25Z</time></trkpt><trkpt lat="59.0797948837" lon="30.0300550461"><time>2026-04-25T09:49:28Z</time></trkpt><trkpt lat="59.0797948837" lon="30.0300335884"><time>2026-04-25T09:49:30Z</time></trkpt><trkpt lat="59.0797948837" lon="30.0300335884"><time>2026-04-25T09:49:33Z</time></trkpt><trkpt lat="59.0797948837" lon="30.0300335884"><time>2026-04-25T09:49:35Z</time></trkpt><trkpt lat="59.0797948837" lon="30.0300121307"><time>2026-04-25T09:49:38Z</time></trkpt><trkpt lat="59.0798592567" lon="30.0299477577"><time>2026-04-25T09:49:40Z</time></trkpt><trkpt lat="59.0799021721" lon="30.0298619270"><time>2026-04-25T09:49:43Z</time></trkpt><trkpt lat="59.0799021721" lon="30.0298404694"><time>2026-04-25T09:49:45Z</time></trkpt><trkpt lat="59.0799021721" lon="30.0298404694"><time>2026-04-25T09:49:48Z</time></trkpt><trkpt lat="59.0799236298" lon="30.0297975540"><time>2026-04-25T09:49:50Z</time></trkpt><trkpt lat="59.0799236298" lon="30.0297546387"><time>2026-04-25T09:49:53Z</time></trkpt><trkpt lat="59.0799021721" lon="30.0297546387"><time>2026-04-25T09:49:55Z</time></trkpt><trkpt lat="59.0799021721" lon="30.0297546387"><time>2026-04-25T09:49:58Z</time></trkpt><trkpt lat="59.0799236298" lon="30.0297117233"><time>2026-04-25T09:50:00Z</time></trkpt><trkpt lat="59.0799450874" lon="30.0296688080"><time>2026-04-25T09:50:03Z</time></trkpt><trkpt lat="59.0799665451" lon="30.0296473503"><time>2026-04-25T09:50:05Z</time></trkpt><trkpt lat="59.0799665451" lon="30.0296473503"><time>2026-04-25T09:50:08Z</time></trkpt><trkpt lat="59.0799665451" lon="30.0296473503"><time>2026-04-25T09:50:10Z</time></trkpt><trkpt lat="59.0799665451" lon="30.0296473503"><time>2026-04-25T09:50:13Z</time></trkpt><trkpt lat="59.0799880028" lon="30.0295829773"><time>2026-04-25T09:50:15Z</time></trkpt><trkpt lat="59.0800094604" lon="30.0295186043"><time>2026-04-25T09:50:18Z</time></trkpt><trkpt lat="59.0800094604" lon="30.0294756889"><time>2026-04-25T09:50:20Z</time></trkpt><trkpt lat="59.0800094604" lon="30.0294756889"><time>2026-04-25T09:50:23Z</time></trkpt><trkpt lat="59.0800094604" lon="30.0294756889"><time>2026-04-25T09:50:25Z</time></trkpt><trkpt lat="59.0800094604" lon="30.0295186043"><time>2026-04-25T09:50:28Z</time></trkpt><trkpt lat="59.0799880028" lon="30.0295615196"><time>2026-04-25T09:50:30Z</time></trkpt><trkpt lat="59.0799880028" lon="30.0295186043"><time>2026-04-25T09:50:33Z</time></trkpt><trkpt lat="59.0800094604" lon="30.0294971466"><time>2026-04-25T09:50:35Z</time></trkpt><trkpt lat="59.0800094604" lon="30.0294756889"><time>2026-04-25T09:50:38Z</time></trkpt><trkpt lat="59.0800094604" lon="30.0294113159"><time>2026-04-25T09:50:40Z</time></trkpt><trkpt lat="59.0800309181" lon="30.0293684006"><time>2026-04-25T09:50:43Z</time></trkpt><trkpt lat="59.0800523758" lon="30.0293254852"><time>2026-04-25T09:50:45Z</time></trkpt><trkpt lat="59.0800952911" lon="30.0292396545"><time>2026-04-25T09:50:48Z</time></trkpt><trkpt lat="59.0800952911" lon="30.0292396545"><time>2026-04-25T09:50:50Z</time></trkpt><trkpt lat="59.0800952911" lon="30.0292611122"><time>2026-04-25T09:50:53Z</time></trkpt><trkpt lat="59.0800952911" lon="30.0292396545"><time>2026-04-25T09:50:55Z</time></trkpt><trkpt lat="59.0800952911" lon="30.0292181969"><time>2026-04-25T09:50:58Z</time></trkpt><trkpt lat="59.0801167488" lon="30.0291752815"><time>2026-04-25T09:51:00Z</time></trkpt><trkpt lat="59.0801167488" lon="30.0291752815"><time>2026-04-25T09:51:03Z</time></trkpt><trkpt lat="59.0801382065" lon="30.0291323662"><time>2026-04-25T09:51:05Z</time></trkpt><trkpt lat="59.0801596642" lon="30.0290679932"><time>2026-04-25T09:51:08Z</time></trkpt><trkpt lat="59.0801596642" lon="30.0290465355"><time>2026-04-25T09:51:10Z</time></trkpt><trkpt lat="59.0801811218" lon="30.0290036201"><time>2026-04-25T09:51:13Z</time></trkpt><trkpt lat="59.0802025795" lon="30.0289821625"><time>2026-04-25T09:51:15Z</time></trkpt><trkpt lat="59.0802240372" lon="30.0289392471"><time>2026-04-25T09:51:18Z</time></trkpt><trkpt lat="59.0802454948" lon="30.0289177895"><time>2026-04-25T09:51:20Z</time></trkpt><trkpt lat="59.0802454948" lon="30.0288963318"><time>2026-04-25T09:51:23Z</time></trkpt><trkpt lat="59.0802669525" lon="30.0288748741"><time>2026-04-25T09:51:25Z</time></trkpt><trkpt lat="59.0802669525" lon="30.0288534164"><time>2026-04-25T09:51:28Z</time></trkpt><trkpt lat="59.0802669525" lon="30.0288319588"><time>2026-04-25T09:51:30Z</time></trkpt><trkpt lat="59.0802669525" lon="30.0288534164"><time>2026-04-25T09:51:33Z</time></trkpt><trkpt lat="59.0802669525" lon="30.0288534164"><time>2026-04-25T09:51:35Z</time></trkpt><trkpt lat="59.0802669525" lon="30.0288534164"><time>2026-04-25T09:51:38Z</time></trkpt><trkpt lat="59.0802669525" lon="30.0288534164"><time>2026-04-25T09:51:40Z</time></trkpt><trkpt lat="59.0802669525" lon="30.0288534164"><time>2026-04-25T09:51:43Z</time></trkpt><trkpt lat="59.0802669525" lon="30.0288534164"><time>2026-04-25T09:51:45Z</time></trkpt><trkpt lat="59.0802669525" lon="30.0288534164"><time>2026-04-25T09:51:48Z</time></trkpt><trkpt lat="59.0802669525" lon="30.0288534164"><time>2026-04-25T09:51:50Z</time></trkpt><trkpt lat="59.0802669525" lon="30.0288534164"><time>2026-04-25T09:51:53Z</time></trkpt><trkpt lat="59.0802669525" lon="30.0288534164"><time>2026-04-25T09:51:55Z</time></trkpt><trkpt lat="59.0802669525" lon="30.0288534164"><time>2026-04-25T09:51:58Z</time></trkpt><trkpt lat="59.0802669525" lon="30.0288534164"><time>2026-04-25T09:52:00Z</time></trkpt><trkpt lat="59.0802669525" lon="30.0288534164"><time>2026-04-25T09:52:03Z</time></trkpt><trkpt lat="59.0802669525" lon="30.0288534164"><time>2026-04-25T09:52:05Z</time></trkpt><trkpt lat="59.0802669525" lon="30.0288534164"><time>2026-04-25T09:52:08Z</time></trkpt><trkpt lat="59.0802669525" lon="30.0288534164"><time>2026-04-25T09:52:10Z</time></trkpt><trkpt lat="59.0802669525" lon="30.0288534164"><time>2026-04-25T09:52:13Z</time></trkpt><trkpt lat="59.0802669525" lon="30.0288534164"><time>2026-04-25T09:52:15Z</time></trkpt><trkpt lat="59.0802669525" lon="30.0288534164"><time>2026-04-25T09:52:18Z</time></trkpt><trkpt lat="59.0802669525" lon="30.0288534164"><time>2026-04-25T09:52:20Z</time></trkpt><trkpt lat="59.0802669525" lon="30.0288534164"><time>2026-04-25T09:52:23Z</time></trkpt><trkpt lat="59.0802669525" lon="30.0288534164"><time>2026-04-25T09:52:25Z</time></trkpt><trkpt lat="59.0802669525" lon="30.0288534164"><time>2026-04-25T09:52:28Z</time></trkpt><trkpt lat="59.0802669525" lon="30.0288534164"><time>2026-04-25T09:52:30Z</time></trkpt><trkpt lat="59.0802669525" lon="30.0288534164"><time>2026-04-25T09:52:33Z</time></trkpt><trkpt lat="59.0802669525" lon="30.0288534164"><time>2026-04-25T09:52:35Z</time></trkpt><trkpt lat="59.0802669525" lon="30.0288534164"><time>2026-04-25T09:52:38Z</time></trkpt><trkpt lat="59.0802669525" lon="30.0288534164"><time>2026-04-25T09:52:40Z</time></trkpt><trkpt lat="59.0802669525" lon="30.0288534164"><time>2026-04-25T09:52:43Z</time></trkpt><trkpt lat="59.0802669525" lon="30.0288534164"><time>2026-04-25T09:52:45Z</time></trkpt><trkpt lat="59.0802669525" lon="30.0288534164"><time>2026-04-25T09:52:48Z</time></trkpt><trkpt lat="59.0802669525" lon="30.0288534164"><time>2026-04-25T09:52:50Z</time></trkpt><trkpt lat="59.0802669525" lon="30.0288534164"><time>2026-04-25T09:52:53Z</time></trkpt><trkpt lat="59.0802669525" lon="30.0288534164"><time>2026-04-25T09:52:55Z</time></trkpt><trkpt lat="59.0802669525" lon="30.0288534164"><time>2026-04-25T09:52:58Z</time></trkpt><trkpt lat="59.0802669525" lon="30.0288319588"><time>2026-04-25T09:53:00Z</time></trkpt><trkpt lat="59.0802669525" lon="30.0288319588"><time>2026-04-25T09:53:03Z</time></trkpt><trkpt lat="59.0802669525" lon="30.0288319588"><time>2026-04-25T09:53:05Z</time></trkpt><trkpt lat="59.0802669525" lon="30.0288319588"><time>2026-04-25T09:53:08Z</time></trkpt><trkpt lat="59.0802669525" lon="30.0288319588"><time>2026-04-25T09:53:10Z</time></trkpt><trkpt lat="59.0802669525" lon="30.0288319588"><time>2026-04-25T09:53:13Z</time></trkpt><trkpt lat="59.0802669525" lon="30.0288319588"><time>2026-04-25T09:53:15Z</time></trkpt><trkpt lat="59.0802669525" lon="30.0288319588"><time>2026-04-25T09:53:18Z</time></trkpt><trkpt lat="59.0802669525" lon="30.0288319588"><time>2026-04-25T09:53:20Z</time></trkpt><trkpt lat="59.0802669525" lon="30.0288319588"><time>2026-04-25T09:53:23Z</time></trkpt><trkpt lat="59.0802669525" lon="30.0288319588"><time>2026-04-25T09:53:25Z</time></trkpt><trkpt lat="59.0802669525" lon="30.0288319588"><time>2026-04-25T09:53:28Z</time></trkpt><trkpt lat="59.0802669525" lon="30.0288319588"><time>2026-04-25T09:53:30Z</time></trkpt><trkpt lat="59.0802669525" lon="30.0288319588"><time>2026-04-25T09:53:33Z</time></trkpt><trkpt lat="59.0802669525" lon="30.0288319588"><time>2026-04-25T09:53:35Z</time></trkpt><trkpt lat="59.0802669525" lon="30.0288319588"><time>2026-04-25T09:53:38Z</time></trkpt><trkpt lat="59.0802669525" lon="30.0288319588"><time>2026-04-25T09:53:40Z</time></trkpt><trkpt lat="59.0802669525" lon="30.0288319588"><time>2026-04-25T09:53:43Z</time></trkpt><trkpt lat="59.0802669525" lon="30.0288319588"><time>2026-04-25T09:53:45Z</time></trkpt><trkpt lat="59.0802669525" lon="30.0288319588"><time>2026-04-25T09:53:48Z</time></trkpt><trkpt lat="59.0802669525" lon="30.0288319588"><time>2026-04-25T09:53:50Z</time></trkpt><trkpt lat="59.0802669525" lon="30.0288319588"><time>2026-04-25T09:53:53Z</time></trkpt><trkpt lat="59.0802669525" lon="30.0288319588"><time>2026-04-25T09:53:55Z</time></trkpt><trkpt lat="59.0802669525" lon="30.0288319588"><time>2026-04-25T09:53:58Z</time></trkpt><trkpt lat="59.0802669525" lon="30.0288319588"><time>2026-04-25T09:54:00Z</time></trkpt><trkpt lat="59.0802669525" lon="30.0288319588"><time>2026-04-25T09:54:03Z</time></trkpt><trkpt lat="59.0802669525" lon="30.0288319588"><time>2026-04-25T09:54:05Z</time></trkpt><trkpt lat="59.0802669525" lon="30.0288319588"><time>2026-04-25T09:54:08Z</time></trkpt><trkpt lat="59.0802669525" lon="30.0288534164"><time>2026-04-25T09:54:10Z</time></trkpt><trkpt lat="59.0802669525" lon="30.0288534164"><time>2026-04-25T09:54:13Z</time></trkpt><trkpt lat="59.0802669525" lon="30.0288534164"><time>2026-04-25T09:54:15Z</time></trkpt><trkpt lat="59.0802669525" lon="30.0288534164"><time>2026-04-25T09:54:18Z</time></trkpt><trkpt lat="59.0802669525" lon="30.0288534164"><time>2026-04-25T09:54:20Z</time></trkpt><trkpt lat="59.0802669525" lon="30.0288534164"><time>2026-04-25T09:54:23Z</time></trkpt><trkpt lat="59.0802669525" lon="30.0288534164"><time>2026-04-25T09:54:25Z</time></trkpt><trkpt lat="59.0802884102" lon="30.0288319588"><time>2026-04-25T09:54:28Z</time></trkpt><trkpt lat="59.0802884102" lon="30.0288319588"><time>2026-04-25T09:54:30Z</time></trkpt><trkpt lat="59.0802884102" lon="30.0288319588"><time>2026-04-25T09:54:33Z</time></trkpt><trkpt lat="59.0802884102" lon="30.0288319588"><time>2026-04-25T09:54:35Z</time></trkpt><trkpt lat="59.0802884102" lon="30.0288319588"><time>2026-04-25T09:54:38Z</time></trkpt><trkpt lat="59.0802884102" lon="30.0288319588"><time>2026-04-25T09:54:40Z</time></trkpt><trkpt lat="59.0802884102" lon="30.0288319588"><time>2026-04-25T09:54:43Z</time></trkpt><trkpt lat="59.0802884102" lon="30.0288319588"><time>2026-04-25T09:54:45Z</time></trkpt><trkpt lat="59.0802884102" lon="30.0288319588"><time>2026-04-25T09:54:48Z</time></trkpt><trkpt lat="59.0802669525" lon="30.0288319588"><time>2026-04-25T09:54:50Z</time></trkpt><trkpt lat="59.0802669525" lon="30.0288319588"><time>2026-04-25T09:54:53Z</time></trkpt><trkpt lat="59.0802669525" lon="30.0288319588"><time>2026-04-25T09:54:55Z</time></trkpt><trkpt lat="59.0802669525" lon="30.0288319588"><time>2026-04-25T09:54:58Z</time></trkpt><trkpt lat="59.0802669525" lon="30.0288319588"><time>2026-04-25T09:55:00Z</time></trkpt><trkpt lat="59.0802669525" lon="30.0288319588"><time>2026-04-25T09:55:03Z</time></trkpt><trkpt lat="59.0802669525" lon="30.0288319588"><time>2026-04-25T09:55:05Z</time></trkpt><trkpt lat="59.0802669525" lon="30.0288319588"><time>2026-04-25T09:55:08Z</time></trkpt><trkpt lat="59.0802669525" lon="30.0288319588"><time>2026-04-25T09:55:10Z</time></trkpt><trkpt lat="59.0802669525" lon="30.0288319588"><time>2026-04-25T09:55:13Z</time></trkpt><trkpt lat="59.0802669525" lon="30.0288319588"><time>2026-04-25T09:55:15Z</time></trkpt><trkpt lat="59.0802669525" lon="30.0288319588"><time>2026-04-25T09:55:18Z</time></trkpt><trkpt lat="59.0802669525" lon="30.0288319588"><time>2026-04-25T09:55:20Z</time></trkpt><trkpt lat="59.0802669525" lon="30.0288319588"><time>2026-04-25T09:55:23Z</time></trkpt><trkpt lat="59.0802669525" lon="30.0288319588"><time>2026-04-25T09:55:25Z</time></trkpt><trkpt lat="59.0802669525" lon="30.0288319588"><time>2026-04-25T09:55:28Z</time></trkpt><trkpt lat="59.0802669525" lon="30.0288319588"><time>2026-04-25T09:55:30Z</time></trkpt><trkpt lat="59.0802669525" lon="30.0288319588"><time>2026-04-25T09:55:33Z</time></trkpt><trkpt lat="59.0802669525" lon="30.0288319588"><time>2026-04-25T09:55:35Z</time></trkpt><trkpt lat="59.0802669525" lon="30.0288319588"><time>2026-04-25T09:55:38Z</time></trkpt><trkpt lat="59.0802669525" lon="30.0288319588"><time>2026-04-25T09:55:40Z</time></trkpt><trkpt lat="59.0802669525" lon="30.0288319588"><time>2026-04-25T09:55:43Z</time></trkpt><trkpt lat="59.0802669525" lon="30.0288319588"><time>2026-04-25T09:55:45Z</time></trkpt><trkpt lat="59.0802669525" lon="30.0288319588"><time>2026-04-25T09:55:48Z</time></trkpt><trkpt lat="59.0802669525" lon="30.0288319588"><time>2026-04-25T09:55:50Z</time></trkpt><trkpt lat="59.0802669525" lon="30.0288319588"><time>2026-04-25T09:55:53Z</time></trkpt><trkpt lat="59.0802669525" lon="30.0288319588"><time>2026-04-25T09:55:55Z</time></trkpt><trkpt lat="59.0802669525" lon="30.0288319588"><time>2026-04-25T09:55:58Z</time></trkpt><trkpt lat="59.0802669525" lon="30.0288319588"><time>2026-04-25T09:56:00Z</time></trkpt><trkpt lat="59.0802669525" lon="30.0288319588"><time>2026-04-25T09:56:03Z</time></trkpt><trkpt lat="59.0802669525" lon="30.0288319588"><time>2026-04-25T09:56:05Z</time></trkpt><trkpt lat="59.0802669525" lon="30.0288319588"><time>2026-04-25T09:56:08Z</time></trkpt><trkpt lat="59.0802669525" lon="30.0288319588"><time>2026-04-25T09:56:10Z</time></trkpt><trkpt lat="59.0802669525" lon="30.0288319588"><time>2026-04-25T09:56:13Z</time></trkpt><trkpt lat="59.0802669525" lon="30.0288319588"><time>2026-04-25T09:56:15Z</time></trkpt><trkpt lat="59.0802669525" lon="30.0288319588"><time>2026-04-25T09:56:18Z</time></trkpt><trkpt lat="59.0802669525" lon="30.0288319588"><time>2026-04-25T09:56:20Z</time></trkpt><trkpt lat="59.0802669525" lon="30.0288319588"><time>2026-04-25T09:56:23Z</time></trkpt><trkpt lat="59.0802669525" lon="30.0288319588"><time>2026-04-25T09:56:25Z</time></trkpt><trkpt lat="59.0802669525" lon="30.0288319588"><time>2026-04-25T09:56:28Z</time></trkpt><trkpt lat="59.0802669525" lon="30.0288319588"><time>2026-04-25T09:56:30Z</time></trkpt><trkpt lat="59.0802669525" lon="30.0288319588"><time>2026-04-25T09:56:33Z</time></trkpt><trkpt lat="59.0802669525" lon="30.0288319588"><time>2026-04-25T09:56:35Z</time></trkpt><trkpt lat="59.0802669525" lon="30.0288319588"><time>2026-04-25T09:56:38Z</time></trkpt><trkpt lat="59.0802669525" lon="30.0288319588"><time>2026-04-25T09:56:40Z</time></trkpt><trkpt lat="59.0802669525" lon="30.0288319588"><time>2026-04-25T09:56:43Z</time></trkpt><trkpt lat="59.0802669525" lon="30.0288319588"><time>2026-04-25T09:56:45Z</time></trkpt><trkpt lat="59.0802669525" lon="30.0288319588"><time>2026-04-25T09:56:48Z</time></trkpt><trkpt lat="59.0802669525" lon="30.0288105011"><time>2026-04-25T09:56:50Z</time></trkpt><trkpt lat="59.0802669525" lon="30.0288105011"><time>2026-04-25T09:56:53Z</time></trkpt><trkpt lat="59.0802669525" lon="30.0288105011"><time>2026-04-25T09:56:55Z</time></trkpt><trkpt lat="59.0802669525" lon="30.0288105011"><time>2026-04-25T09:56:58Z</time></trkpt><trkpt lat="59.0802669525" lon="30.0288105011"><time>2026-04-25T09:57:00Z</time></trkpt><trkpt lat="59.0802669525" lon="30.0288105011"><time>2026-04-25T09:57:03Z</time></trkpt><trkpt lat="59.0802669525" lon="30.0288105011"><time>2026-04-25T09:57:05Z</time></trkpt><trkpt lat="59.0802669525" lon="30.0288105011"><time>2026-04-25T09:57:08Z</time></trkpt><trkpt lat="59.0802669525" lon="30.0288105011"><time>2026-04-25T09:57:10Z</time></trkpt><trkpt lat="59.0802669525" lon="30.0288105011"><time>2026-04-25T09:57:13Z</time></trkpt><trkpt lat="59.0802669525" lon="30.0288105011"><time>2026-04-25T09:57:15Z</time></trkpt><trkpt lat="59.0802669525" lon="30.0288105011"><time>2026-04-25T09:57:18Z</time></trkpt><trkpt lat="59.0802669525" lon="30.0288105011"><time>2026-04-25T09:57:20Z</time></trkpt><trkpt lat="59.0802669525" lon="30.0288105011"><time>2026-04-25T09:57:23Z</time></trkpt><trkpt lat="59.0802669525" lon="30.0288105011"><time>2026-04-25T09:57:25Z</time></trkpt><trkpt lat="59.0802669525" lon="30.0288105011"><time>2026-04-25T09:57:28Z</time></trkpt><trkpt lat="59.0802669525" lon="30.0288105011"><time>2026-04-25T09:57:30Z</time></trkpt><trkpt lat="59.0802669525" lon="30.0288105011"><time>2026-04-25T09:57:33Z</time></trkpt><trkpt lat="59.0802669525" lon="30.0288105011"><time>2026-04-25T09:57:35Z</time></trkpt><trkpt lat="59.0802669525" lon="30.0288105011"><time>2026-04-25T09:57:38Z</time></trkpt><trkpt lat="59.0802669525" lon="30.0288105011"><time>2026-04-25T09:57:40Z</time></trkpt><trkpt lat="59.0802669525" lon="30.0288105011"><time>2026-04-25T09:57:43Z</time></trkpt><trkpt lat="59.0802669525" lon="30.0288105011"><time>2026-04-25T09:57:45Z</time></trkpt><trkpt lat="59.0802669525" lon="30.0288105011"><time>2026-04-25T09:57:48Z</time></trkpt><trkpt lat="59.0802669525" lon="30.0288105011"><time>2026-04-25T09:57:50Z</time></trkpt><trkpt lat="59.0802669525" lon="30.0288105011"><time>2026-04-25T09:57:53Z</time></trkpt><trkpt lat="59.0802669525" lon="30.0288105011"><time>2026-04-25T09:57:55Z</time></trkpt><trkpt lat="59.0802669525" lon="30.0287890434"><time>2026-04-25T09:57:58Z</time></trkpt><trkpt lat="59.0802884102" lon="30.0287461281"><time>2026-04-25T09:58:00Z</time></trkpt><trkpt lat="59.0802884102" lon="30.0286817551"><time>2026-04-25T09:58:03Z</time></trkpt><trkpt lat="59.0802884102" lon="30.0286602974"><time>2026-04-25T09:58:05Z</time></trkpt><trkpt lat="59.0802884102" lon="30.0286388397"><time>2026-04-25T09:58:08Z</time></trkpt><trkpt lat="59.0803098679" lon="30.0285530090"><time>2026-04-25T09:58:10Z</time></trkpt><trkpt lat="59.0803527832" lon="30.0284457207"><time>2026-04-25T09:58:13Z</time></trkpt><trkpt lat="59.0803313255" lon="30.0284671783"><time>2026-04-25T09:58:15Z</time></trkpt><trkpt lat="59.0803313255" lon="30.0284886360"><time>2026-04-25T09:58:18Z</time></trkpt><trkpt lat="59.0803313255" lon="30.0285100937"><time>2026-04-25T09:58:20Z</time></trkpt><trkpt lat="59.0803313255" lon="30.0285100937"><time>2026-04-25T09:58:23Z</time></trkpt><trkpt lat="59.0803527832" lon="30.0284886360"><time>2026-04-25T09:58:25Z</time></trkpt><trkpt lat="59.0803527832" lon="30.0284671783"><time>2026-04-25T09:58:28Z</time></trkpt><trkpt lat="59.0803956985" lon="30.0284242630"><time>2026-04-25T09:58:30Z</time></trkpt><trkpt lat="59.0804386139" lon="30.0284028053"><time>2026-04-25T09:58:33Z</time></trkpt><trkpt lat="59.0804171562" lon="30.0284242630"><time>2026-04-25T09:58:35Z</time></trkpt><trkpt lat="59.0804171562" lon="30.0284242630"><time>2026-04-25T09:58:38Z</time></trkpt><trkpt lat="59.0804171562" lon="30.0284242630"><time>2026-04-25T09:58:40Z</time></trkpt><trkpt lat="59.0804171562" lon="30.0284028053"><time>2026-04-25T09:58:43Z</time></trkpt><trkpt lat="59.0804600716" lon="30.0283384323"><time>2026-04-25T09:58:45Z</time></trkpt><trkpt lat="59.0805029869" lon="30.0282526016"><time>2026-04-25T09:58:48Z</time></trkpt><trkpt lat="59.0805029869" lon="30.0282311440"><time>2026-04-25T09:58:50Z</time></trkpt><trkpt lat="59.0805029869" lon="30.0282311440"><time>2026-04-25T09:58:53Z</time></trkpt><trkpt lat="59.0805029869" lon="30.0282311440"><time>2026-04-25T09:58:55Z</time></trkpt><trkpt lat="59.0805029869" lon="30.0282311440"><time>2026-04-25T09:58:58Z</time></trkpt><trkpt lat="59.0805244446" lon="30.0282311440"><time>2026-04-25T09:59:00Z</time></trkpt><trkpt lat="59.0805244446" lon="30.0282096863"><time>2026-04-25T09:59:03Z</time></trkpt><trkpt lat="59.0805459023" lon="30.0281882286"><time>2026-04-25T09:59:05Z</time></trkpt><trkpt lat="59.0805459023" lon="30.0281882286"><time>2026-04-25T09:59:08Z</time></trkpt><trkpt lat="59.0805673599" lon="30.0281238556"><time>2026-04-25T09:59:10Z</time></trkpt><trkpt lat="59.0806102753" lon="30.0279951096"><time>2026-04-25T09:59:13Z</time></trkpt><trkpt lat="59.0805888176" lon="30.0279951096"><time>2026-04-25T09:59:15Z</time></trkpt><trkpt lat="59.0805673599" lon="30.0280165672"><time>2026-04-25T09:59:18Z</time></trkpt><trkpt lat="59.0805673599" lon="30.0280165672"><time>2026-04-25T09:59:20Z</time></trkpt><trkpt lat="59.0805888176" lon="30.0279951096"><time>2026-04-25T09:59:23Z</time></trkpt><trkpt lat="59.0805888176" lon="30.0279736519"><time>2026-04-25T09:59:25Z</time></trkpt><trkpt lat="59.0806102753" lon="30.0279521942"><time>2026-04-25T09:59:28Z</time></trkpt><trkpt lat="59.0806317329" lon="30.0278878212"><time>2026-04-25T09:59:30Z</time></trkpt><trkpt lat="59.0806531906" lon="30.0278449059"><time>2026-04-25T09:59:33Z</time></trkpt><trkpt lat="59.0806317329" lon="30.0278878212"><time>2026-04-25T09:59:35Z</time></trkpt><trkpt lat="59.0806317329" lon="30.0278449059"><time>2026-04-25T09:59:38Z</time></trkpt><trkpt lat="59.0806531906" lon="30.0278019905"><time>2026-04-25T09:59:40Z</time></trkpt><trkpt lat="59.0806746483" lon="30.0277590752"><time>2026-04-25T09:59:43Z</time></trkpt><trkpt lat="59.0806746483" lon="30.0276303291"><time>2026-04-25T09:59:45Z</time></trkpt><trkpt lat="59.0806961060" lon="30.0275015831"><time>2026-04-25T09:59:48Z</time></trkpt><trkpt lat="59.0806961060" lon="30.0275230408"><time>2026-04-25T09:59:50Z</time></trkpt><trkpt lat="59.0806961060" lon="30.0275659561"><time>2026-04-25T09:59:53Z</time></trkpt><trkpt lat="59.0807175636" lon="30.0276088715"><time>2026-04-25T09:59:55Z</time></trkpt><trkpt lat="59.0807175636" lon="30.0276088715"><time>2026-04-25T09:59:58Z</time></trkpt><trkpt lat="59.0807390213" lon="30.0275874138"><time>2026-04-25T10:00:00Z</time></trkpt><trkpt lat="59.0807390213" lon="30.0275230408"><time>2026-04-25T10:00:03Z</time></trkpt><trkpt lat="59.0807819366" lon="30.0274157524"><time>2026-04-25T10:00:05Z</time></trkpt><trkpt lat="59.0808033943" lon="30.0273513794"><time>2026-04-25T10:00:08Z</time></trkpt><trkpt lat="59.0808033943" lon="30.0273513794"><time>2026-04-25T10:00:10Z</time></trkpt><trkpt lat="59.0807819366" lon="30.0273084641"><time>2026-04-25T10:00:13Z</time></trkpt><trkpt lat="59.0808248520" lon="30.0272655487"><time>2026-04-25T10:00:15Z</time></trkpt><trkpt lat="59.0808463097" lon="30.0271797180"><time>2026-04-25T10:00:18Z</time></trkpt><trkpt lat="59.0808677673" lon="30.0271582603"><time>2026-04-25T10:00:20Z</time></trkpt><trkpt lat="59.0808677673" lon="30.0271582603"><time>2026-04-25T10:00:23Z</time></trkpt><trkpt lat="59.0808677673" lon="30.0271582603"><time>2026-04-25T10:00:25Z</time></trkpt><trkpt lat="59.0808677673" lon="30.0271368027"><time>2026-04-25T10:00:28Z</time></trkpt><trkpt lat="59.0808677673" lon="30.0271582603"><time>2026-04-25T10:00:30Z</time></trkpt><trkpt lat="59.0808463097" lon="30.0271582603"><time>2026-04-25T10:00:33Z</time></trkpt><trkpt lat="59.0808463097" lon="30.0271582603"><time>2026-04-25T10:00:36Z</time></trkpt><trkpt lat="59.0808677673" lon="30.0271582603"><time>2026-04-25T10:00:38Z</time></trkpt><trkpt lat="59.0809535980" lon="30.0271153450"><time>2026-04-25T10:00:40Z</time></trkpt><trkpt lat="59.0810179710" lon="30.0270724297"><time>2026-04-25T10:00:43Z</time></trkpt><trkpt lat="59.0809965134" lon="30.0270724297"><time>2026-04-25T10:00:45Z</time></trkpt><trkpt lat="59.0809965134" lon="30.0270724297"><time>2026-04-25T10:00:48Z</time></trkpt><trkpt lat="59.0810179710" lon="30.0270938873"><time>2026-04-25T10:00:50Z</time></trkpt><trkpt lat="59.0810394287" lon="30.0270724297"><time>2026-04-25T10:00:53Z</time></trkpt><trkpt lat="59.0810394287" lon="30.0270724297"><time>2026-04-25T10:00:55Z</time></trkpt><trkpt lat="59.0810608864" lon="30.0270724297"><time>2026-04-25T10:00:58Z</time></trkpt><trkpt lat="59.0810394287" lon="30.0270724297"><time>2026-04-25T10:01:00Z</time></trkpt><trkpt lat="59.0810394287" lon="30.0270724297"><time>2026-04-25T10:01:03Z</time></trkpt><trkpt lat="59.0810394287" lon="30.0270724297"><time>2026-04-25T10:01:05Z</time></trkpt><trkpt lat="59.0810394287" lon="30.0270724297"><time>2026-04-25T10:01:08Z</time></trkpt><trkpt lat="59.0810394287" lon="30.0270724297"><time>2026-04-25T10:01:10Z</time></trkpt><trkpt lat="59.0810394287" lon="30.0270724297"><time>2026-04-25T10:01:13Z</time></trkpt><trkpt lat="59.0810394287" lon="30.0270724297"><time>2026-04-25T10:01:15Z</time></trkpt><trkpt lat="59.0810394287" lon="30.0270724297"><time>2026-04-25T10:01:18Z</time></trkpt><trkpt lat="59.0810394287" lon="30.0270724297"><time>2026-04-25T10:01:20Z</time></trkpt><trkpt lat="59.0810394287" lon="30.0270724297"><time>2026-04-25T10:01:23Z</time></trkpt><trkpt lat="59.0810394287" lon="30.0270724297"><time>2026-04-25T10:01:25Z</time></trkpt><trkpt lat="59.0810394287" lon="30.0270724297"><time>2026-04-25T10:01:28Z</time></trkpt><trkpt lat="59.0810394287" lon="30.0270724297"><time>2026-04-25T10:01:30Z</time></trkpt><trkpt lat="59.0810394287" lon="30.0270724297"><time>2026-04-25T10:01:33Z</time></trkpt><trkpt lat="59.0810823441" lon="30.0270509720"><time>2026-04-25T10:01:35Z</time></trkpt><trkpt lat="59.0810608864" lon="30.0270509720"><time>2026-04-25T10:01:38Z</time></trkpt><trkpt lat="59.0810608864" lon="30.0270509720"><time>2026-04-25T10:01:40Z</time></trkpt><trkpt lat="59.0810608864" lon="30.0270509720"><time>2026-04-25T10:01:43Z</time></trkpt><trkpt lat="59.0810608864" lon="30.0270509720"><time>2026-04-25T10:01:45Z</time></trkpt><trkpt lat="59.0811467171" lon="30.0270509720"><time>2026-04-25T10:01:48Z</time></trkpt><trkpt lat="59.0811681747" lon="30.0270080566"><time>2026-04-25T10:01:50Z</time></trkpt><trkpt lat="59.0811896324" lon="30.0269865990"><time>2026-04-25T10:01:53Z</time></trkpt><trkpt lat="59.0812110901" lon="30.0269651413"><time>2026-04-25T10:01:55Z</time></trkpt><trkpt lat="59.0812110901" lon="30.0269222260"><time>2026-04-25T10:01:58Z</time></trkpt><trkpt lat="59.0812110901" lon="30.0267720222"><time>2026-04-25T10:02:00Z</time></trkpt><trkpt lat="59.0812325478" lon="30.0266647339"><time>2026-04-25T10:02:03Z</time></trkpt><trkpt lat="59.0812325478" lon="30.0265574455"><time>2026-04-25T10:02:05Z</time></trkpt><trkpt lat="59.0812325478" lon="30.0265359879"><time>2026-04-25T10:02:08Z</time></trkpt><trkpt lat="59.0812110901" lon="30.0265574455"><time>2026-04-25T10:02:10Z</time></trkpt><trkpt lat="59.0811896324" lon="30.0265789032"><time>2026-04-25T10:02:13Z</time></trkpt><trkpt lat="59.0811681747" lon="30.0266003609"><time>2026-04-25T10:02:16Z</time></trkpt><trkpt lat="59.0811252594" lon="30.0265574455"><time>2026-04-25T10:02:18Z</time></trkpt><trkpt lat="59.0811252594" lon="30.0264501572"><time>2026-04-25T10:02:20Z</time></trkpt><trkpt lat="59.0811681747" lon="30.0264072418"><time>2026-04-25T10:02:23Z</time></trkpt><trkpt lat="59.0811896324" lon="30.0263643265"><time>2026-04-25T10:02:25Z</time></trkpt><trkpt lat="59.0812325478" lon="30.0262999535"><time>2026-04-25T10:02:28Z</time></trkpt><trkpt lat="59.0812325478" lon="30.0262570381"><time>2026-04-25T10:02:30Z</time></trkpt><trkpt lat="59.0812110901" lon="30.0262570381"><time>2026-04-25T10:02:33Z</time></trkpt><trkpt lat="59.0812110901" lon="30.0262141228"><time>2026-04-25T10:02:35Z</time></trkpt><trkpt lat="59.0812110901" lon="30.0262355804"><time>2026-04-25T10:02:38Z</time></trkpt><trkpt lat="59.0812110901" lon="30.0262355804"><time>2026-04-25T10:02:40Z</time></trkpt><trkpt lat="59.0812110901" lon="30.0262355804"><time>2026-04-25T10:02:43Z</time></trkpt><trkpt lat="59.0812110901" lon="30.0262141228"><time>2026-04-25T10:02:45Z</time></trkpt><trkpt lat="59.0812110901" lon="30.0262141228"><time>2026-04-25T10:02:48Z</time></trkpt><trkpt lat="59.0812110901" lon="30.0262141228"><time>2026-04-25T10:02:50Z</time></trkpt><trkpt lat="59.0812110901" lon="30.0262141228"><time>2026-04-25T10:02:53Z</time></trkpt><trkpt lat="59.0812110901" lon="30.0261068344"><time>2026-04-25T10:02:55Z</time></trkpt><trkpt lat="59.0812110901" lon="30.0260853767"><time>2026-04-25T10:02:58Z</time></trkpt><trkpt lat="59.0811896324" lon="30.0260210037"><time>2026-04-25T10:03:00Z</time></trkpt><trkpt lat="59.0811896324" lon="30.0259566307"><time>2026-04-25T10:03:03Z</time></trkpt><trkpt lat="59.0812110901" lon="30.0259137154"><time>2026-04-25T10:03:05Z</time></trkpt><trkpt lat="59.0812110901" lon="30.0258708000"><time>2026-04-25T10:03:08Z</time></trkpt><trkpt lat="59.0812325478" lon="30.0258064270"><time>2026-04-25T10:03:10Z</time></trkpt><trkpt lat="59.0812325478" lon="30.0257635117"><time>2026-04-25T10:03:13Z</time></trkpt><trkpt lat="59.0812325478" lon="30.0257849693"><time>2026-04-25T10:03:15Z</time></trkpt><trkpt lat="59.0812325478" lon="30.0257849693"><time>2026-04-25T10:03:18Z</time></trkpt><trkpt lat="59.0812325478" lon="30.0257420540"><time>2026-04-25T10:03:20Z</time></trkpt><trkpt lat="59.0812110901" lon="30.0256562233"><time>2026-04-25T10:03:23Z</time></trkpt><trkpt lat="59.0811896324" lon="30.0256347656"><time>2026-04-25T10:03:25Z</time></trkpt><trkpt lat="59.0811896324" lon="30.0256347656"><time>2026-04-25T10:03:28Z</time></trkpt><trkpt lat="59.0811896324" lon="30.0256133080"><time>2026-04-25T10:03:30Z</time></trkpt><trkpt lat="59.0812110901" lon="30.0255489349"><time>2026-04-25T10:03:33Z</time></trkpt><trkpt lat="59.0812110901" lon="30.0254416466"><time>2026-04-25T10:03:35Z</time></trkpt><trkpt lat="59.0812110901" lon="30.0253772736"><time>2026-04-25T10:03:38Z</time></trkpt><trkpt lat="59.0812540054" lon="30.0253772736"><time>2026-04-25T10:03:40Z</time></trkpt><trkpt lat="59.0812969208" lon="30.0253772736"><time>2026-04-25T10:03:43Z</time></trkpt><trkpt lat="59.0812969208" lon="30.0252914429"><time>2026-04-25T10:03:45Z</time></trkpt><trkpt lat="59.0812969208" lon="30.0252485275"><time>2026-04-25T10:03:48Z</time></trkpt><trkpt lat="59.0813183784" lon="30.0252485275"><time>2026-04-25T10:03:50Z</time></trkpt><trkpt lat="59.0813612938" lon="30.0252270699"><time>2026-04-25T10:03:53Z</time></trkpt><trkpt lat="59.0813827515" lon="30.0252485275"><time>2026-04-25T10:03:55Z</time></trkpt><trkpt lat="59.0813827515" lon="30.0252270699"><time>2026-04-25T10:03:58Z</time></trkpt><trkpt lat="59.0813612938" lon="30.0251197815"><time>2026-04-25T10:04:00Z</time></trkpt><trkpt lat="59.0813183784" lon="30.0251197815"><time>2026-04-25T10:04:03Z</time></trkpt><trkpt lat="59.0812969208" lon="30.0251626968"><time>2026-04-25T10:04:05Z</time></trkpt><trkpt lat="59.0812540054" lon="30.0252270699"><time>2026-04-25T10:04:08Z</time></trkpt><trkpt lat="59.0812110901" lon="30.0253343582"><time>2026-04-25T10:04:10Z</time></trkpt><trkpt lat="59.0812325478" lon="30.0254201889"><time>2026-04-25T10:04:13Z</time></trkpt><trkpt lat="59.0812754631" lon="30.0255918503"><time>2026-04-25T10:04:15Z</time></trkpt><trkpt lat="59.0813612938" lon="30.0256347656"><time>2026-04-25T10:04:18Z</time></trkpt><trkpt lat="59.0813612938" lon="30.0255918503"><time>2026-04-25T10:04:20Z</time></trkpt><trkpt lat="59.0813612938" lon="30.0255489349"><time>2026-04-25T10:04:23Z</time></trkpt><trkpt lat="59.0813827515" lon="30.0254845619"><time>2026-04-25T10:04:25Z</time></trkpt><trkpt lat="59.0814042091" lon="30.0254201889"><time>2026-04-25T10:04:28Z</time></trkpt><trkpt lat="59.0814042091" lon="30.0254201889"><time>2026-04-25T10:04:30Z</time></trkpt><trkpt lat="59.0814042091" lon="30.0253987312"><time>2026-04-25T10:04:33Z</time></trkpt><trkpt lat="59.0814256668" lon="30.0253343582"><time>2026-04-25T10:04:35Z</time></trkpt><trkpt lat="59.0814471245" lon="30.0252914429"><time>2026-04-25T10:04:38Z</time></trkpt><trkpt lat="59.0814471245" lon="30.0252270699"><time>2026-04-25T10:04:40Z</time></trkpt><trkpt lat="59.0814471245" lon="30.0251626968"><time>2026-04-25T10:04:43Z</time></trkpt><trkpt lat="59.0814685822" lon="30.0250983238"><time>2026-04-25T10:04:45Z</time></trkpt><trkpt lat="59.0814685822" lon="30.0250339508"><time>2026-04-25T10:04:48Z</time></trkpt><trkpt lat="59.0814471245" lon="30.0249910355"><time>2026-04-25T10:04:50Z</time></trkpt><trkpt lat="59.0814685822" lon="30.0249695778"><time>2026-04-25T10:04:53Z</time></trkpt><trkpt lat="59.0815114975" lon="30.0249266624"><time>2026-04-25T10:04:55Z</time></trkpt><trkpt lat="59.0815329552" lon="30.0248837471"><time>2026-04-25T10:04:58Z</time></trkpt><trkpt lat="59.0815758705" lon="30.0248193741"><time>2026-04-25T10:05:00Z</time></trkpt><trkpt lat="59.0815758705" lon="30.0247550011"><time>2026-04-25T10:05:03Z</time></trkpt><trkpt lat="59.0815973282" lon="30.0246691704"><time>2026-04-25T10:05:05Z</time></trkpt><trkpt lat="59.0816187859" lon="30.0246477127"><time>2026-04-25T10:05:08Z</time></trkpt><trkpt lat="59.0816402435" lon="30.0246262550"><time>2026-04-25T10:05:10Z</time></trkpt><trkpt lat="59.0816831589" lon="30.0246477127"><time>2026-04-25T10:05:13Z</time></trkpt><trkpt lat="59.0817046165" lon="30.0246047974"><time>2026-04-25T10:05:15Z</time></trkpt><trkpt lat="59.0817046165" lon="30.0245189667"><time>2026-04-25T10:05:18Z</time></trkpt><trkpt lat="59.0816831589" lon="30.0244760513"><time>2026-04-25T10:05:20Z</time></trkpt><trkpt lat="59.0816402435" lon="30.0244545937"><time>2026-04-25T10:05:23Z</time></trkpt><trkpt lat="59.0816402435" lon="30.0244545937"><time>2026-04-25T10:05:25Z</time></trkpt><trkpt lat="59.0816402435" lon="30.0244116783"><time>2026-04-25T10:05:28Z</time></trkpt><trkpt lat="59.0816617012" lon="30.0243902206"><time>2026-04-25T10:05:30Z</time></trkpt><trkpt lat="59.0816831589" lon="30.0243473053"><time>2026-04-25T10:05:33Z</time></trkpt><trkpt lat="59.0816831589" lon="30.0243258476"><time>2026-04-25T10:05:35Z</time></trkpt><trkpt lat="59.0817046165" lon="30.0243902206"><time>2026-04-25T10:05:38Z</time></trkpt><trkpt lat="59.0817046165" lon="30.0244975090"><time>2026-04-25T10:05:40Z</time></trkpt><trkpt lat="59.0817260742" lon="30.0245833397"><time>2026-04-25T10:05:43Z</time></trkpt><trkpt lat="59.0817046165" lon="30.0247120857"><time>2026-04-25T10:05:45Z</time></trkpt><trkpt lat="59.0816831589" lon="30.0247335434"><time>2026-04-25T10:05:48Z</time></trkpt><trkpt lat="59.0816617012" lon="30.0247120857"><time>2026-04-25T10:05:50Z</time></trkpt><trkpt lat="59.0816617012" lon="30.0246691704"><time>2026-04-25T10:05:53Z</time></trkpt><trkpt lat="59.0816402435" lon="30.0246477127"><time>2026-04-25T10:05:55Z</time></trkpt><trkpt lat="59.0816187859" lon="30.0246047974"><time>2026-04-25T10:05:58Z</time></trkpt><trkpt lat="59.0816187859" lon="30.0245833397"><time>2026-04-25T10:06:00Z</time></trkpt><trkpt lat="59.0815973282" lon="30.0245833397"><time>2026-04-25T10:06:03Z</time></trkpt><trkpt lat="59.0815544128" lon="30.0245618820"><time>2026-04-25T10:06:05Z</time></trkpt><trkpt lat="59.0815329552" lon="30.0245618820"><time>2026-04-25T10:06:08Z</time></trkpt><trkpt lat="59.0815544128" lon="30.0245833397"><time>2026-04-25T10:06:10Z</time></trkpt><trkpt lat="59.0815758705" lon="30.0246262550"><time>2026-04-25T10:06:13Z</time></trkpt><trkpt lat="59.0816187859" lon="30.0245404243"><time>2026-04-25T10:06:15Z</time></trkpt><trkpt lat="59.0816187859" lon="30.0244331360"><time>2026-04-25T10:06:18Z</time></trkpt><trkpt lat="59.0816187859" lon="30.0243473053"><time>2026-04-25T10:06:20Z</time></trkpt><trkpt lat="59.0816187859" lon="30.0242829323"><time>2026-04-25T10:06:23Z</time></trkpt><trkpt lat="59.0816187859" lon="30.0242829323"><time>2026-04-25T10:06:25Z</time></trkpt><trkpt lat="59.0816402435" lon="30.0242614746"><time>2026-04-25T10:06:28Z</time></trkpt><trkpt lat="59.0816402435" lon="30.0242614746"><time>2026-04-25T10:06:30Z</time></trkpt><trkpt lat="59.0816402435" lon="30.0242614746"><time>2026-04-25T10:06:33Z</time></trkpt><trkpt lat="59.0816402435" lon="30.0242614746"><time>2026-04-25T10:06:35Z</time></trkpt><trkpt lat="59.0816402435" lon="30.0242614746"><time>2026-04-25T10:06:38Z</time></trkpt><trkpt lat="59.0816402435" lon="30.0242614746"><time>2026-04-25T10:06:40Z</time></trkpt><trkpt lat="59.0816402435" lon="30.0242614746"><time>2026-04-25T10:06:43Z</time></trkpt><trkpt lat="59.0816402435" lon="30.0242614746"><time>2026-04-25T10:06:45Z</time></trkpt><trkpt lat="59.0816402435" lon="30.0242614746"><time>2026-04-25T10:06:48Z</time></trkpt><trkpt lat="59.0816402435" lon="30.0242400169"><time>2026-04-25T10:06:50Z</time></trkpt><trkpt lat="59.0816617012" lon="30.0241971016"><time>2026-04-25T10:06:53Z</time></trkpt><trkpt lat="59.0816617012" lon="30.0241971016"><time>2026-04-25T10:06:55Z</time></trkpt><trkpt lat="59.0816617012" lon="30.0241756439"><time>2026-04-25T10:06:58Z</time></trkpt><trkpt lat="59.0816831589" lon="30.0241541862"><time>2026-04-25T10:07:00Z</time></trkpt><trkpt lat="59.0816617012" lon="30.0241327286"><time>2026-04-25T10:07:03Z</time></trkpt><trkpt lat="59.0816831589" lon="30.0241327286"><time>2026-04-25T10:07:05Z</time></trkpt><trkpt lat="59.0816831589" lon="30.0240898132"><time>2026-04-25T10:07:08Z</time></trkpt><trkpt lat="59.0816831589" lon="30.0240468979"><time>2026-04-25T10:07:10Z</time></trkpt><trkpt lat="59.0816831589" lon="30.0240254402"><time>2026-04-25T10:07:13Z</time></trkpt><trkpt lat="59.0816831589" lon="30.0239825249"><time>2026-04-25T10:07:15Z</time></trkpt><trkpt lat="59.0816617012" lon="30.0239396095"><time>2026-04-25T10:07:18Z</time></trkpt><trkpt lat="59.0816617012" lon="30.0238966942"><time>2026-04-25T10:07:20Z</time></trkpt><trkpt lat="59.0816617012" lon="30.0239181519"><time>2026-04-25T10:07:23Z</time></trkpt><trkpt lat="59.0816831589" lon="30.0239610672"><time>2026-04-25T10:07:25Z</time></trkpt><trkpt lat="59.0817046165" lon="30.0240039825"><time>2026-04-25T10:07:28Z</time></trkpt><trkpt lat="59.0817046165" lon="30.0240468979"><time>2026-04-25T10:07:30Z</time></trkpt><trkpt lat="59.0817260742" lon="30.0240683556"><time>2026-04-25T10:07:33Z</time></trkpt><trkpt lat="59.0817475319" lon="30.0240683556"><time>2026-04-25T10:07:35Z</time></trkpt><trkpt lat="59.0817475319" lon="30.0240468979"><time>2026-04-25T10:07:38Z</time></trkpt><trkpt lat="59.0817689896" lon="30.0240683556"><time>2026-04-25T10:07:40Z</time></trkpt><trkpt lat="59.0817904472" lon="30.0240898132"><time>2026-04-25T10:07:43Z</time></trkpt><trkpt lat="59.0818333626" lon="30.0240683556"><time>2026-04-25T10:07:45Z</time></trkpt><trkpt lat="59.0818119049" lon="30.0240254402"><time>2026-04-25T10:07:48Z</time></trkpt><trkpt lat="59.0818333626" lon="30.0239825249"><time>2026-04-25T10:07:50Z</time></trkpt><trkpt lat="59.0818548203" lon="30.0239610672"><time>2026-04-25T10:07:53Z</time></trkpt><trkpt lat="59.0818762779" lon="30.0239396095"><time>2026-04-25T10:07:55Z</time></trkpt><trkpt lat="59.0818548203" lon="30.0238966942"><time>2026-04-25T10:07:58Z</time></trkpt><trkpt lat="59.0818548203" lon="30.0239181519"><time>2026-04-25T10:08:00Z</time></trkpt><trkpt lat="59.0818333626" lon="30.0239825249"><time>2026-04-25T10:08:03Z</time></trkpt><trkpt lat="59.0817904472" lon="30.0240254402"><time>2026-04-25T10:08:05Z</time></trkpt><trkpt lat="59.0817475319" lon="30.0240254402"><time>2026-04-25T10:08:08Z</time></trkpt><trkpt lat="59.0817260742" lon="30.0240468979"><time>2026-04-25T10:08:10Z</time></trkpt><trkpt lat="59.0817260742" lon="30.0240468979"><time>2026-04-25T10:08:13Z</time></trkpt><trkpt lat="59.0817260742" lon="30.0240468979"><time>2026-04-25T10:08:15Z</time></trkpt><trkpt lat="59.0817260742" lon="30.0240468979"><time>2026-04-25T10:08:18Z</time></trkpt><trkpt lat="59.0817046165" lon="30.0240468979"><time>2026-04-25T10:08:20Z</time></trkpt><trkpt lat="59.0817046165" lon="30.0240468979"><time>2026-04-25T10:08:23Z</time></trkpt><trkpt lat="59.0817046165" lon="30.0240468979"><time>2026-04-25T10:08:25Z</time></trkpt><trkpt lat="59.0817046165" lon="30.0240468979"><time>2026-04-25T10:08:28Z</time></trkpt><trkpt lat="59.0817046165" lon="30.0240468979"><time>2026-04-25T10:08:30Z</time></trkpt><trkpt lat="59.0817046165" lon="30.0240468979"><time>2026-04-25T10:08:33Z</time></trkpt><trkpt lat="59.0817046165" lon="30.0240468979"><time>2026-04-25T10:08:35Z</time></trkpt><trkpt lat="59.0817046165" lon="30.0240468979"><time>2026-04-25T10:08:38Z</time></trkpt><trkpt lat="59.0817046165" lon="30.0240468979"><time>2026-04-25T10:08:40Z</time></trkpt><trkpt lat="59.0817046165" lon="30.0240468979"><time>2026-04-25T10:08:43Z</time></trkpt><trkpt lat="59.0817046165" lon="30.0240468979"><time>2026-04-25T10:08:45Z</time></trkpt><trkpt lat="59.0817046165" lon="30.0240468979"><time>2026-04-25T10:08:48Z</time></trkpt><trkpt lat="59.0817046165" lon="30.0240468979"><time>2026-04-25T10:08:50Z</time></trkpt><trkpt lat="59.0817046165" lon="30.0240468979"><time>2026-04-25T10:08:53Z</time></trkpt><trkpt lat="59.0817046165" lon="30.0240468979"><time>2026-04-25T10:08:55Z</time></trkpt><trkpt lat="59.0817046165" lon="30.0240468979"><time>2026-04-25T10:08:58Z</time></trkpt><trkpt lat="59.0817046165" lon="30.0240468979"><time>2026-04-25T10:09:00Z</time></trkpt><trkpt lat="59.0817046165" lon="30.0240468979"><time>2026-04-25T10:09:03Z</time></trkpt><trkpt lat="59.0817046165" lon="30.0240468979"><time>2026-04-25T10:09:05Z</time></trkpt><trkpt lat="59.0817046165" lon="30.0239825249"><time>2026-04-25T10:09:08Z</time></trkpt><trkpt lat="59.0817046165" lon="30.0239181519"><time>2026-04-25T10:09:10Z</time></trkpt><trkpt lat="59.0817046165" lon="30.0238537788"><time>2026-04-25T10:09:13Z</time></trkpt><trkpt lat="59.0817046165" lon="30.0237679482"><time>2026-04-25T10:09:15Z</time></trkpt><trkpt lat="59.0817046165" lon="30.0237250328"><time>2026-04-25T10:09:18Z</time></trkpt><trkpt lat="59.0817046165" lon="30.0236821175"><time>2026-04-25T10:09:20Z</time></trkpt><trkpt lat="59.0817046165" lon="30.0236606598"><time>2026-04-25T10:09:23Z</time></trkpt><trkpt lat="59.0816831589" lon="30.0236392021"><time>2026-04-25T10:09:25Z</time></trkpt><trkpt lat="59.0816831589" lon="30.0235962868"><time>2026-04-25T10:09:28Z</time></trkpt><trkpt lat="59.0817046165" lon="30.0235748291"><time>2026-04-25T10:09:30Z</time></trkpt><trkpt lat="59.0817260742" lon="30.0235748291"><time>2026-04-25T10:09:33Z</time></trkpt><trkpt lat="59.0817689896" lon="30.0236177444"><time>2026-04-25T10:09:35Z</time></trkpt><trkpt lat="59.0817904472" lon="30.0236821175"><time>2026-04-25T10:09:38Z</time></trkpt><trkpt lat="59.0818119049" lon="30.0237035751"><time>2026-04-25T10:09:40Z</time></trkpt><trkpt lat="59.0818548203" lon="30.0237035751"><time>2026-04-25T10:09:43Z</time></trkpt><trkpt lat="59.0818762779" lon="30.0237035751"><time>2026-04-25T10:09:45Z</time></trkpt><trkpt lat="59.0818977356" lon="30.0236606598"><time>2026-04-25T10:09:48Z</time></trkpt><trkpt lat="59.0819406509" lon="30.0236606598"><time>2026-04-25T10:09:50Z</time></trkpt><trkpt lat="59.0819621086" lon="30.0237035751"><time>2026-04-25T10:09:53Z</time></trkpt><trkpt lat="59.0820050240" lon="30.0237035751"><time>2026-04-25T10:09:55Z</time></trkpt><trkpt lat="59.0820264816" lon="30.0236606598"><time>2026-04-25T10:09:58Z</time></trkpt><trkpt lat="59.0820479393" lon="30.0235962868"><time>2026-04-25T10:10:00Z</time></trkpt><trkpt lat="59.0820479393" lon="30.0235319138"><time>2026-04-25T10:10:03Z</time></trkpt><trkpt lat="59.0820479393" lon="30.0234460831"><time>2026-04-25T10:10:05Z</time></trkpt><trkpt lat="59.0820264816" lon="30.0234031677"><time>2026-04-25T10:10:08Z</time></trkpt><trkpt lat="59.0820264816" lon="30.0233817101"><time>2026-04-25T10:10:10Z</time></trkpt><trkpt lat="59.0819835663" lon="30.0233602524"><time>2026-04-25T10:10:13Z</time></trkpt><trkpt lat="59.0819621086" lon="30.0233817101"><time>2026-04-25T10:10:15Z</time></trkpt><trkpt lat="59.0819621086" lon="30.0234460831"><time>2026-04-25T10:10:18Z</time></trkpt><trkpt lat="59.0819621086" lon="30.0235104561"><time>2026-04-25T10:10:20Z</time></trkpt><trkpt lat="59.0819835663" lon="30.0235748291"><time>2026-04-25T10:10:23Z</time></trkpt><trkpt lat="59.0819621086" lon="30.0235962868"><time>2026-04-25T10:10:25Z</time></trkpt><trkpt lat="59.0819621086" lon="30.0235748291"><time>2026-04-25T10:10:28Z</time></trkpt><trkpt lat="59.0819621086" lon="30.0235962868"><time>2026-04-25T10:10:30Z</time></trkpt><trkpt lat="59.0819406509" lon="30.0236821175"><time>2026-04-25T10:10:33Z</time></trkpt><trkpt lat="59.0819406509" lon="30.0237679482"><time>2026-04-25T10:10:35Z</time></trkpt><trkpt lat="59.0819406509" lon="30.0238752365"><time>2026-04-25T10:10:38Z</time></trkpt><trkpt lat="59.0818977356" lon="30.0240039825"><time>2026-04-25T10:10:40Z</time></trkpt><trkpt lat="59.0818333626" lon="30.0240039825"><time>2026-04-25T10:10:43Z</time></trkpt><trkpt lat="59.0817689896" lon="30.0240468979"><time>2026-04-25T10:10:45Z</time></trkpt><trkpt lat="59.0817046165" lon="30.0239825249"><time>2026-04-25T10:10:48Z</time></trkpt><trkpt lat="59.0817046165" lon="30.0238966942"><time>2026-04-25T10:10:50Z</time></trkpt><trkpt lat="59.0817260742" lon="30.0238323212"><time>2026-04-25T10:10:53Z</time></trkpt><trkpt lat="59.0817475319" lon="30.0238537788"><time>2026-04-25T10:10:55Z</time></trkpt><trkpt lat="59.0817475319" lon="30.0238537788"><time>2026-04-25T10:10:58Z</time></trkpt><trkpt lat="59.0817475319" lon="30.0238537788"><time>2026-04-25T10:11:00Z</time></trkpt><trkpt lat="59.0817475319" lon="30.0238537788"><time>2026-04-25T10:11:03Z</time></trkpt><trkpt lat="59.0817475319" lon="30.0238537788"><time>2026-04-25T10:11:05Z</time></trkpt><trkpt lat="59.0817475319" lon="30.0238537788"><time>2026-04-25T10:11:08Z</time></trkpt><trkpt lat="59.0817475319" lon="30.0238537788"><time>2026-04-25T10:11:10Z</time></trkpt><trkpt lat="59.0817475319" lon="30.0238537788"><time>2026-04-25T10:11:13Z</time></trkpt><trkpt lat="59.0817475319" lon="30.0238537788"><time>2026-04-25T10:11:15Z</time></trkpt><trkpt lat="59.0817475319" lon="30.0238323212"><time>2026-04-25T10:11:18Z</time></trkpt><trkpt lat="59.0817475319" lon="30.0238323212"><time>2026-04-25T10:11:20Z</time></trkpt><trkpt lat="59.0817475319" lon="30.0238323212"><time>2026-04-25T10:11:23Z</time></trkpt><trkpt lat="59.0817475319" lon="30.0238323212"><time>2026-04-25T10:11:25Z</time></trkpt><trkpt lat="59.0817475319" lon="30.0238323212"><time>2026-04-25T10:11:28Z</time></trkpt><trkpt lat="59.0817475319" lon="30.0238323212"><time>2026-04-25T10:11:30Z</time></trkpt><trkpt lat="59.0817475319" lon="30.0238323212"><time>2026-04-25T10:11:33Z</time></trkpt><trkpt lat="59.0817475319" lon="30.0238537788"><time>2026-04-25T10:11:35Z</time></trkpt><trkpt lat="59.0817475319" lon="30.0238537788"><time>2026-04-25T10:11:38Z</time></trkpt><trkpt lat="59.0817475319" lon="30.0238323212"><time>2026-04-25T10:11:40Z</time></trkpt><trkpt lat="59.0817475319" lon="30.0238323212"><time>2026-04-25T10:11:43Z</time></trkpt><trkpt lat="59.0817475319" lon="30.0238323212"><time>2026-04-25T10:11:45Z</time></trkpt><trkpt lat="59.0817475319" lon="30.0238323212"><time>2026-04-25T10:11:48Z</time></trkpt><trkpt lat="59.0817475319" lon="30.0238323212"><time>2026-04-25T10:11:50Z</time></trkpt><trkpt lat="59.0817475319" lon="30.0238323212"><time>2026-04-25T10:11:53Z</time></trkpt><trkpt lat="59.0817689896" lon="30.0238323212"><time>2026-04-25T10:11:55Z</time></trkpt><trkpt lat="59.0817689896" lon="30.0238323212"><time>2026-04-25T10:11:58Z</time></trkpt><trkpt lat="59.0817689896" lon="30.0238323212"><time>2026-04-25T10:12:00Z</time></trkpt><trkpt lat="59.0817689896" lon="30.0238323212"><time>2026-04-25T10:12:03Z</time></trkpt><trkpt lat="59.0817689896" lon="30.0238323212"><time>2026-04-25T10:12:05Z</time></trkpt><trkpt lat="59.0817689896" lon="30.0238323212"><time>2026-04-25T10:12:08Z</time></trkpt><trkpt lat="59.0817689896" lon="30.0238323212"><time>2026-04-25T10:12:10Z</time></trkpt><trkpt lat="59.0817689896" lon="30.0238323212"><time>2026-04-25T10:12:13Z</time></trkpt><trkpt lat="59.0817689896" lon="30.0238323212"><time>2026-04-25T10:12:15Z</time></trkpt><trkpt lat="59.0817475319" lon="30.0238323212"><time>2026-04-25T10:12:18Z</time></trkpt><trkpt lat="59.0817475319" lon="30.0238323212"><time>2026-04-25T10:12:20Z</time></trkpt><trkpt lat="59.0817475319" lon="30.0238323212"><time>2026-04-25T10:12:23Z</time></trkpt><trkpt lat="59.0817475319" lon="30.0238323212"><time>2026-04-25T10:12:25Z</time></trkpt><trkpt lat="59.0817475319" lon="30.0238323212"><time>2026-04-25T10:12:28Z</time></trkpt><trkpt lat="59.0817475319" lon="30.0238323212"><time>2026-04-25T10:12:30Z</time></trkpt><trkpt lat="59.0817475319" lon="30.0238323212"><time>2026-04-25T10:12:33Z</time></trkpt><trkpt lat="59.0817475319" lon="30.0238323212"><time>2026-04-25T10:12:35Z</time></trkpt><trkpt lat="59.0817475319" lon="30.0238323212"><time>2026-04-25T10:12:38Z</time></trkpt><trkpt lat="59.0817475319" lon="30.0238323212"><time>2026-04-25T10:12:40Z</time></trkpt><trkpt lat="59.0817475319" lon="30.0238323212"><time>2026-04-25T10:12:43Z</time></trkpt><trkpt lat="59.0817689896" lon="30.0238323212"><time>2026-04-25T10:12:45Z</time></trkpt><trkpt lat="59.0817689896" lon="30.0238323212"><time>2026-04-25T10:12:48Z</time></trkpt><trkpt lat="59.0817689896" lon="30.0238323212"><time>2026-04-25T10:12:50Z</time></trkpt><trkpt lat="59.0817689896" lon="30.0238323212"><time>2026-04-25T10:12:53Z</time></trkpt><trkpt lat="59.0817689896" lon="30.0238323212"><time>2026-04-25T10:12:55Z</time></trkpt><trkpt lat="59.0817689896" lon="30.0238323212"><time>2026-04-25T10:12:58Z</time></trkpt><trkpt lat="59.0817689896" lon="30.0238323212"><time>2026-04-25T10:13:00Z</time></trkpt><trkpt lat="59.0817689896" lon="30.0238323212"><time>2026-04-25T10:13:03Z</time></trkpt><trkpt lat="59.0817689896" lon="30.0238323212"><time>2026-04-25T10:13:05Z</time></trkpt><trkpt lat="59.0817689896" lon="30.0238323212"><time>2026-04-25T10:13:08Z</time></trkpt><trkpt lat="59.0817689896" lon="30.0238323212"><time>2026-04-25T10:13:10Z</time></trkpt><trkpt lat="59.0817689896" lon="30.0238323212"><time>2026-04-25T10:13:13Z</time></trkpt><trkpt lat="59.0817689896" lon="30.0238323212"><time>2026-04-25T10:13:15Z</time></trkpt><trkpt lat="59.0817689896" lon="30.0238323212"><time>2026-04-25T10:13:18Z</time></trkpt><trkpt lat="59.0817689896" lon="30.0238323212"><time>2026-04-25T10:13:20Z</time></trkpt><trkpt lat="59.0817689896" lon="30.0238323212"><time>2026-04-25T10:13:23Z</time></trkpt><trkpt lat="59.0817689896" lon="30.0238323212"><time>2026-04-25T10:13:25Z</time></trkpt><trkpt lat="59.0817689896" lon="30.0238323212"><time>2026-04-25T10:13:28Z</time></trkpt><trkpt lat="59.0817689896" lon="30.0238323212"><time>2026-04-25T10:13:30Z</time></trkpt><trkpt lat="59.0817689896" lon="30.0238323212"><time>2026-04-25T10:13:33Z</time></trkpt><trkpt lat="59.0817689896" lon="30.0238323212"><time>2026-04-25T10:13:35Z</time></trkpt><trkpt lat="59.0817689896" lon="30.0238323212"><time>2026-04-25T10:13:38Z</time></trkpt><trkpt lat="59.0817689896" lon="30.0238323212"><time>2026-04-25T10:13:40Z</time></trkpt><trkpt lat="59.0817689896" lon="30.0238323212"><time>2026-04-25T10:13:43Z</time></trkpt><trkpt lat="59.0817689896" lon="30.0238323212"><time>2026-04-25T10:13:45Z</time></trkpt><trkpt lat="59.0817689896" lon="30.0238323212"><time>2026-04-25T10:13:48Z</time></trkpt><trkpt lat="59.0817689896" lon="30.0238323212"><time>2026-04-25T10:13:50Z</time></trkpt><trkpt lat="59.0817689896" lon="30.0238323212"><time>2026-04-25T10:13:53Z</time></trkpt><trkpt lat="59.0817689896" lon="30.0238323212"><time>2026-04-25T10:13:55Z</time></trkpt><trkpt lat="59.0817689896" lon="30.0238323212"><time>2026-04-25T10:13:58Z</time></trkpt><trkpt lat="59.0817689896" lon="30.0238323212"><time>2026-04-25T10:14:00Z</time></trkpt><trkpt lat="59.0817689896" lon="30.0238323212"><time>2026-04-25T10:14:03Z</time></trkpt><trkpt lat="59.0817689896" lon="30.0238323212"><time>2026-04-25T10:14:05Z</time></trkpt><trkpt lat="59.0817689896" lon="30.0238323212"><time>2026-04-25T10:14:08Z</time></trkpt><trkpt lat="59.0817689896" lon="30.0238323212"><time>2026-04-25T10:14:10Z</time></trkpt><trkpt lat="59.0817689896" lon="30.0238323212"><time>2026-04-25T10:14:13Z</time></trkpt><trkpt lat="59.0817689896" lon="30.0238323212"><time>2026-04-25T10:14:15Z</time></trkpt><trkpt lat="59.0817689896" lon="30.0238323212"><time>2026-04-25T10:14:18Z</time></trkpt><trkpt lat="59.0817689896" lon="30.0238323212"><time>2026-04-25T10:14:20Z</time></trkpt><trkpt lat="59.0817689896" lon="30.0238323212"><time>2026-04-25T10:14:23Z</time></trkpt><trkpt lat="59.0817689896" lon="30.0238323212"><time>2026-04-25T10:14:25Z</time></trkpt><trkpt lat="59.0817689896" lon="30.0238323212"><time>2026-04-25T10:14:28Z</time></trkpt><trkpt lat="59.0817689896" lon="30.0238323212"><time>2026-04-25T10:14:30Z</time></trkpt><trkpt lat="59.0817689896" lon="30.0238323212"><time>2026-04-25T10:14:33Z</time></trkpt><trkpt lat="59.0817689896" lon="30.0238323212"><time>2026-04-25T10:14:35Z</time></trkpt><trkpt lat="59.0817689896" lon="30.0238323212"><time>2026-04-25T10:14:38Z</time></trkpt><trkpt lat="59.0817689896" lon="30.0238323212"><time>2026-04-25T10:14:40Z</time></trkpt><trkpt lat="59.0817689896" lon="30.0238323212"><time>2026-04-25T10:14:43Z</time></trkpt><trkpt lat="59.0817689896" lon="30.0238323212"><time>2026-04-25T10:14:45Z</time></trkpt><trkpt lat="59.0817689896" lon="30.0238323212"><time>2026-04-25T10:14:48Z</time></trkpt><trkpt lat="59.0817689896" lon="30.0238323212"><time>2026-04-25T10:14:50Z</time></trkpt><trkpt lat="59.0817689896" lon="30.0238323212"><time>2026-04-25T10:14:53Z</time></trkpt><trkpt lat="59.0817689896" lon="30.0238323212"><time>2026-04-25T10:14:55Z</time></trkpt><trkpt lat="59.0817689896" lon="30.0238323212"><time>2026-04-25T10:14:58Z</time></trkpt><trkpt lat="59.0817689896" lon="30.0238323212"><time>2026-04-25T10:15:00Z</time></trkpt><trkpt lat="59.0817689896" lon="30.0238323212"><time>2026-04-25T10:15:03Z</time></trkpt><trkpt lat="59.0817689896" lon="30.0238323212"><time>2026-04-25T10:15:05Z</time></trkpt><trkpt lat="59.0817689896" lon="30.0238323212"><time>2026-04-25T10:15:08Z</time></trkpt><trkpt lat="59.0817689896" lon="30.0238323212"><time>2026-04-25T10:15:10Z</time></trkpt><trkpt lat="59.0817689896" lon="30.0238323212"><time>2026-04-25T10:15:13Z</time></trkpt><trkpt lat="59.0817689896" lon="30.0238323212"><time>2026-04-25T10:15:15Z</time></trkpt><trkpt lat="59.0817689896" lon="30.0238323212"><time>2026-04-25T10:15:18Z</time></trkpt><trkpt lat="59.0817689896" lon="30.0238323212"><time>2026-04-25T10:15:20Z</time></trkpt><trkpt lat="59.0817689896" lon="30.0238323212"><time>2026-04-25T10:15:23Z</time></trkpt><trkpt lat="59.0817689896" lon="30.0238323212"><time>2026-04-25T10:15:25Z</time></trkpt><trkpt lat="59.0817689896" lon="30.0238323212"><time>2026-04-25T10:15:28Z</time></trkpt><trkpt lat="59.0817689896" lon="30.0238323212"><time>2026-04-25T10:15:30Z</time></trkpt><trkpt lat="59.0817689896" lon="30.0238323212"><time>2026-04-25T10:15:33Z</time></trkpt><trkpt lat="59.0817689896" lon="30.0238323212"><time>2026-04-25T10:15:35Z</time></trkpt><trkpt lat="59.0817689896" lon="30.0238323212"><time>2026-04-25T10:15:38Z</time></trkpt><trkpt lat="59.0817689896" lon="30.0238323212"><time>2026-04-25T10:15:40Z</time></trkpt><trkpt lat="59.0817689896" lon="30.0238323212"><time>2026-04-25T10:15:43Z</time></trkpt><trkpt lat="59.0817689896" lon="30.0238323212"><time>2026-04-25T10:15:45Z</time></trkpt><trkpt lat="59.0817689896" lon="30.0238323212"><time>2026-04-25T10:15:48Z</time></trkpt><trkpt lat="59.0817689896" lon="30.0238323212"><time>2026-04-25T10:15:50Z</time></trkpt><trkpt lat="59.0817689896" lon="30.0238323212"><time>2026-04-25T10:15:53Z</time></trkpt><trkpt lat="59.0817689896" lon="30.0238323212"><time>2026-04-25T10:15:55Z</time></trkpt><trkpt lat="59.0817689896" lon="30.0238323212"><time>2026-04-25T10:15:58Z</time></trkpt><trkpt lat="59.0817689896" lon="30.0238323212"><time>2026-04-25T10:16:00Z</time></trkpt><trkpt lat="59.0817689896" lon="30.0238323212"><time>2026-04-25T10:16:03Z</time></trkpt><trkpt lat="59.0817689896" lon="30.0238323212"><time>2026-04-25T10:16:05Z</time></trkpt><trkpt lat="59.0817689896" lon="30.0238323212"><time>2026-04-25T10:16:08Z</time></trkpt><trkpt lat="59.0817689896" lon="30.0238323212"><time>2026-04-25T10:16:10Z</time></trkpt><trkpt lat="59.0817689896" lon="30.0238323212"><time>2026-04-25T10:16:13Z</time></trkpt><trkpt lat="59.0817689896" lon="30.0238323212"><time>2026-04-25T10:16:15Z</time></trkpt><trkpt lat="59.0817689896" lon="30.0238323212"><time>2026-04-25T10:16:18Z</time></trkpt><trkpt lat="59.0817689896" lon="30.0238323212"><time>2026-04-25T10:16:20Z</time></trkpt><trkpt lat="59.0817689896" lon="30.0238323212"><time>2026-04-25T10:16:23Z</time></trkpt><trkpt lat="59.0817689896" lon="30.0238323212"><time>2026-04-25T10:16:25Z</time></trkpt><trkpt lat="59.0817689896" lon="30.0238323212"><time>2026-04-25T10:16:28Z</time></trkpt><trkpt lat="59.0817689896" lon="30.0238323212"><time>2026-04-25T10:16:30Z</time></trkpt><trkpt lat="59.0817689896" lon="30.0238323212"><time>2026-04-25T10:16:33Z</time></trkpt><trkpt lat="59.0817689896" lon="30.0238323212"><time>2026-04-25T10:16:35Z</time></trkpt><trkpt lat="59.0817689896" lon="30.0238323212"><time>2026-04-25T10:16:38Z</time></trkpt><trkpt lat="59.0817689896" lon="30.0238323212"><time>2026-04-25T10:16:40Z</time></trkpt><trkpt lat="59.0817689896" lon="30.0238323212"><time>2026-04-25T10:16:43Z</time></trkpt><trkpt lat="59.0817689896" lon="30.0238323212"><time>2026-04-25T10:16:45Z</time></trkpt><trkpt lat="59.0817689896" lon="30.0238323212"><time>2026-04-25T10:16:48Z</time></trkpt><trkpt lat="59.0817689896" lon="30.0238323212"><time>2026-04-25T10:16:50Z</time></trkpt><trkpt lat="59.0817689896" lon="30.0238323212"><time>2026-04-25T10:16:53Z</time></trkpt><trkpt lat="59.0817689896" lon="30.0238323212"><time>2026-04-25T10:16:55Z</time></trkpt><trkpt lat="59.0817689896" lon="30.0238323212"><time>2026-04-25T10:16:58Z</time></trkpt><trkpt lat="59.0817689896" lon="30.0238323212"><time>2026-04-25T10:17:00Z</time></trkpt><trkpt lat="59.0817689896" lon="30.0238323212"><time>2026-04-25T10:17:03Z</time></trkpt><trkpt lat="59.0817689896" lon="30.0238323212"><time>2026-04-25T10:17:05Z</time></trkpt><trkpt lat="59.0817689896" lon="30.0238323212"><time>2026-04-25T10:17:08Z</time></trkpt><trkpt lat="59.0817689896" lon="30.0238323212"><time>2026-04-25T10:17:10Z</time></trkpt><trkpt lat="59.0817689896" lon="30.0238323212"><time>2026-04-25T10:17:13Z</time></trkpt><trkpt lat="59.0817689896" lon="30.0238323212"><time>2026-04-25T10:17:15Z</time></trkpt><trkpt lat="59.0817689896" lon="30.0238323212"><time>2026-04-25T10:17:18Z</time></trkpt><trkpt lat="59.0817689896" lon="30.0238323212"><time>2026-04-25T10:17:20Z</time></trkpt><trkpt lat="59.0817689896" lon="30.0238323212"><time>2026-04-25T10:17:23Z</time></trkpt><trkpt lat="59.0817689896" lon="30.0238323212"><time>2026-04-25T10:17:25Z</time></trkpt><trkpt lat="59.0817689896" lon="30.0238323212"><time>2026-04-25T10:17:28Z</time></trkpt><trkpt lat="59.0817689896" lon="30.0238323212"><time>2026-04-25T10:17:30Z</time></trkpt><trkpt lat="59.0817689896" lon="30.0238323212"><time>2026-04-25T10:17:33Z</time></trkpt><trkpt lat="59.0817689896" lon="30.0238323212"><time>2026-04-25T10:17:35Z</time></trkpt><trkpt lat="59.0817689896" lon="30.0238323212"><time>2026-04-25T10:17:38Z</time></trkpt><trkpt lat="59.0817689896" lon="30.0238323212"><time>2026-04-25T10:17:40Z</time></trkpt><trkpt lat="59.0817689896" lon="30.0238323212"><time>2026-04-25T10:17:43Z</time></trkpt><trkpt lat="59.0817689896" lon="30.0238323212"><time>2026-04-25T10:17:45Z</time></trkpt><trkpt lat="59.0817689896" lon="30.0237894058"><time>2026-04-25T10:17:48Z</time></trkpt><trkpt lat="59.0817689896" lon="30.0237035751"><time>2026-04-25T10:17:50Z</time></trkpt><trkpt lat="59.0817475319" lon="30.0236821175"><time>2026-04-25T10:17:53Z</time></trkpt><trkpt lat="59.0817260742" lon="30.0237035751"><time>2026-04-25T10:17:55Z</time></trkpt><trkpt lat="59.0817046165" lon="30.0237250328"><time>2026-04-25T10:17:58Z</time></trkpt><trkpt lat="59.0816617012" lon="30.0237250328"><time>2026-04-25T10:18:00Z</time></trkpt><trkpt lat="59.0816617012" lon="30.0237464905"><time>2026-04-25T10:18:03Z</time></trkpt><trkpt lat="59.0816831589" lon="30.0237250328"><time>2026-04-25T10:18:05Z</time></trkpt><trkpt lat="59.0816831589" lon="30.0237464905"><time>2026-04-25T10:18:08Z</time></trkpt><trkpt lat="59.0816831589" lon="30.0237250328"><time>2026-04-25T10:18:10Z</time></trkpt><trkpt lat="59.0816617012" lon="30.0236821175"><time>2026-04-25T10:18:13Z</time></trkpt><trkpt lat="59.0816187859" lon="30.0236821175"><time>2026-04-25T10:18:15Z</time></trkpt><trkpt lat="59.0816187859" lon="30.0236821175"><time>2026-04-25T10:18:18Z</time></trkpt><trkpt lat="59.0816187859" lon="30.0236821175"><time>2026-04-25T10:18:20Z</time></trkpt><trkpt lat="59.0816187859" lon="30.0236821175"><time>2026-04-25T10:18:23Z</time></trkpt><trkpt lat="59.0815973282" lon="30.0236606598"><time>2026-04-25T10:18:25Z</time></trkpt><trkpt lat="59.0815973282" lon="30.0236821175"><time>2026-04-25T10:18:28Z</time></trkpt><trkpt lat="59.0815758705" lon="30.0236821175"><time>2026-04-25T10:18:30Z</time></trkpt><trkpt lat="59.0815758705" lon="30.0236821175"><time>2026-04-25T10:18:33Z</time></trkpt><trkpt lat="59.0815758705" lon="30.0236821175"><time>2026-04-25T10:18:35Z</time></trkpt><trkpt lat="59.0815544128" lon="30.0236821175"><time>2026-04-25T10:18:38Z</time></trkpt><trkpt lat="59.0815544128" lon="30.0236821175"><time>2026-04-25T10:18:40Z</time></trkpt><trkpt lat="59.0815544128" lon="30.0236821175"><time>2026-04-25T10:18:43Z</time></trkpt><trkpt lat="59.0815544128" lon="30.0236821175"><time>2026-04-25T10:18:45Z</time></trkpt><trkpt lat="59.0815544128" lon="30.0236821175"><time>2026-04-25T10:18:48Z</time></trkpt><trkpt lat="59.0815544128" lon="30.0236821175"><time>2026-04-25T10:18:50Z</time></trkpt><trkpt lat="59.0815544128" lon="30.0236821175"><time>2026-04-25T10:18:53Z</time></trkpt><trkpt lat="59.0815544128" lon="30.0236821175"><time>2026-04-25T10:18:55Z</time></trkpt><trkpt lat="59.0815544128" lon="30.0236821175"><time>2026-04-25T10:18:58Z</time></trkpt><trkpt lat="59.0815544128" lon="30.0236821175"><time>2026-04-25T10:19:00Z</time></trkpt><trkpt lat="59.0815544128" lon="30.0236821175"><time>2026-04-25T10:19:03Z</time></trkpt><trkpt lat="59.0815329552" lon="30.0236821175"><time>2026-04-25T10:19:05Z</time></trkpt><trkpt lat="59.0815329552" lon="30.0236821175"><time>2026-04-25T10:19:08Z</time></trkpt><trkpt lat="59.0815114975" lon="30.0236821175"><time>2026-04-25T10:19:10Z</time></trkpt><trkpt lat="59.0815114975" lon="30.0236821175"><time>2026-04-25T10:19:13Z</time></trkpt><trkpt lat="59.0815114975" lon="30.0236821175"><time>2026-04-25T10:19:15Z</time></trkpt><trkpt lat="59.0815114975" lon="30.0236821175"><time>2026-04-25T10:19:18Z</time></trkpt><trkpt lat="59.0814900398" lon="30.0237679482"><time>2026-04-25T10:19:20Z</time></trkpt><trkpt lat="59.0814900398" lon="30.0237894058"><time>2026-04-25T10:19:23Z</time></trkpt><trkpt lat="59.0814685822" lon="30.0238752365"><time>2026-04-25T10:19:25Z</time></trkpt><trkpt lat="59.0814685822" lon="30.0238752365"><time>2026-04-25T10:19:28Z</time></trkpt><trkpt lat="59.0814471245" lon="30.0238537788"><time>2026-04-25T10:19:30Z</time></trkpt><trkpt lat="59.0814471245" lon="30.0238323212"><time>2026-04-25T10:19:33Z</time></trkpt><trkpt lat="59.0814471245" lon="30.0238323212"><time>2026-04-25T10:19:35Z</time></trkpt><trkpt lat="59.0814471245" lon="30.0238323212"><time>2026-04-25T10:19:38Z</time></trkpt><trkpt lat="59.0814471245" lon="30.0238323212"><time>2026-04-25T10:19:40Z</time></trkpt><trkpt lat="59.0814471245" lon="30.0238323212"><time>2026-04-25T10:19:43Z</time></trkpt><trkpt lat="59.0814471245" lon="30.0238323212"><time>2026-04-25T10:19:45Z</time></trkpt><trkpt lat="59.0814471245" lon="30.0238323212"><time>2026-04-25T10:19:48Z</time></trkpt><trkpt lat="59.0814471245" lon="30.0238537788"><time>2026-04-25T10:19:50Z</time></trkpt><trkpt lat="59.0814256668" lon="30.0238537788"><time>2026-04-25T10:19:53Z</time></trkpt><trkpt lat="59.0813612938" lon="30.0238752365"><time>2026-04-25T10:19:55Z</time></trkpt><trkpt lat="59.0813398361" lon="30.0238537788"><time>2026-04-25T10:19:58Z</time></trkpt><trkpt lat="59.0813398361" lon="30.0238752365"><time>2026-04-25T10:20:00Z</time></trkpt><trkpt lat="59.0813398361" lon="30.0238752365"><time>2026-04-25T10:20:03Z</time></trkpt><trkpt lat="59.0813183784" lon="30.0238537788"><time>2026-04-25T10:20:05Z</time></trkpt><trkpt lat="59.0812969208" lon="30.0238537788"><time>2026-04-25T10:20:08Z</time></trkpt><trkpt lat="59.0813183784" lon="30.0238537788"><time>2026-04-25T10:20:10Z</time></trkpt><trkpt lat="59.0813183784" lon="30.0238537788"><time>2026-04-25T10:20:13Z</time></trkpt><trkpt lat="59.0813183784" lon="30.0238537788"><time>2026-04-25T10:20:15Z</time></trkpt><trkpt lat="59.0813183784" lon="30.0238537788"><time>2026-04-25T10:20:18Z</time></trkpt><trkpt lat="59.0813183784" lon="30.0238537788"><time>2026-04-25T10:20:20Z</time></trkpt><trkpt lat="59.0813183784" lon="30.0238537788"><time>2026-04-25T10:20:23Z</time></trkpt><trkpt lat="59.0813183784" lon="30.0238537788"><time>2026-04-25T10:20:25Z</time></trkpt><trkpt lat="59.0813183784" lon="30.0238537788"><time>2026-04-25T10:20:28Z</time></trkpt><trkpt lat="59.0813183784" lon="30.0238537788"><time>2026-04-25T10:20:30Z</time></trkpt><trkpt lat="59.0813183784" lon="30.0238537788"><time>2026-04-25T10:20:33Z</time></trkpt><trkpt lat="59.0813183784" lon="30.0238537788"><time>2026-04-25T10:20:35Z</time></trkpt><trkpt lat="59.0813183784" lon="30.0238537788"><time>2026-04-25T10:20:38Z</time></trkpt><trkpt lat="59.0813183784" lon="30.0238537788"><time>2026-04-25T10:20:40Z</time></trkpt><trkpt lat="59.0813183784" lon="30.0238537788"><time>2026-04-25T10:20:43Z</time></trkpt><trkpt lat="59.0813183784" lon="30.0238537788"><time>2026-04-25T10:20:45Z</time></trkpt><trkpt lat="59.0813183784" lon="30.0238323212"><time>2026-04-25T10:20:48Z</time></trkpt><trkpt lat="59.0813183784" lon="30.0238323212"><time>2026-04-25T10:20:50Z</time></trkpt><trkpt lat="59.0813183784" lon="30.0238323212"><time>2026-04-25T10:20:53Z</time></trkpt><trkpt lat="59.0813183784" lon="30.0238323212"><time>2026-04-25T10:20:55Z</time></trkpt><trkpt lat="59.0813183784" lon="30.0238108635"><time>2026-04-25T10:20:58Z</time></trkpt><trkpt lat="59.0813183784" lon="30.0238108635"><time>2026-04-25T10:21:00Z</time></trkpt><trkpt lat="59.0813183784" lon="30.0238108635"><time>2026-04-25T10:21:03Z</time></trkpt><trkpt lat="59.0813183784" lon="30.0238108635"><time>2026-04-25T10:21:05Z</time></trkpt><trkpt lat="59.0813183784" lon="30.0238108635"><time>2026-04-25T10:21:08Z</time></trkpt><trkpt lat="59.0813183784" lon="30.0238108635"><time>2026-04-25T10:21:10Z</time></trkpt><trkpt lat="59.0813183784" lon="30.0238108635"><time>2026-04-25T10:21:13Z</time></trkpt><trkpt lat="59.0813183784" lon="30.0238108635"><time>2026-04-25T10:21:15Z</time></trkpt><trkpt lat="59.0813183784" lon="30.0238537788"><time>2026-04-25T10:21:18Z</time></trkpt><trkpt lat="59.0813183784" lon="30.0239610672"><time>2026-04-25T10:21:20Z</time></trkpt><trkpt lat="59.0812969208" lon="30.0239825249"><time>2026-04-25T10:21:23Z</time></trkpt><trkpt lat="59.0812969208" lon="30.0240254402"><time>2026-04-25T10:21:25Z</time></trkpt><trkpt lat="59.0812754631" lon="30.0240254402"><time>2026-04-25T10:21:28Z</time></trkpt><trkpt lat="59.0812540054" lon="30.0239610672"><time>2026-04-25T10:21:30Z</time></trkpt><trkpt lat="59.0812325478" lon="30.0239396095"><time>2026-04-25T10:21:33Z</time></trkpt><trkpt lat="59.0812325478" lon="30.0239396095"><time>2026-04-25T10:21:35Z</time></trkpt><trkpt lat="59.0812325478" lon="30.0239610672"><time>2026-04-25T10:21:38Z</time></trkpt><trkpt lat="59.0812325478" lon="30.0239610672"><time>2026-04-25T10:21:40Z</time></trkpt><trkpt lat="59.0812110901" lon="30.0239825249"><time>2026-04-25T10:21:43Z</time></trkpt><trkpt lat="59.0811896324" lon="30.0240254402"><time>2026-04-25T10:21:45Z</time></trkpt><trkpt lat="59.0811896324" lon="30.0240683556"><time>2026-04-25T10:21:48Z</time></trkpt><trkpt lat="59.0811681747" lon="30.0240683556"><time>2026-04-25T10:21:50Z</time></trkpt><trkpt lat="59.0811896324" lon="30.0240683556"><time>2026-04-25T10:21:53Z</time></trkpt><trkpt lat="59.0811896324" lon="30.0240898132"><time>2026-04-25T10:21:55Z</time></trkpt><trkpt lat="59.0811896324" lon="30.0240683556"><time>2026-04-25T10:21:58Z</time></trkpt><trkpt lat="59.0811896324" lon="30.0240468979"><time>2026-04-25T10:22:00Z</time></trkpt><trkpt lat="59.0811896324" lon="30.0240468979"><time>2026-04-25T10:22:03Z</time></trkpt><trkpt lat="59.0811896324" lon="30.0240468979"><time>2026-04-25T10:22:05Z</time></trkpt><trkpt lat="59.0811896324" lon="30.0240468979"><time>2026-04-25T10:22:08Z</time></trkpt><trkpt lat="59.0811896324" lon="30.0240468979"><time>2026-04-25T10:22:10Z</time></trkpt><trkpt lat="59.0811896324" lon="30.0240468979"><time>2026-04-25T10:22:13Z</time></trkpt><trkpt lat="59.0811896324" lon="30.0240468979"><time>2026-04-25T10:22:15Z</time></trkpt><trkpt lat="59.0811896324" lon="30.0240468979"><time>2026-04-25T10:22:18Z</time></trkpt><trkpt lat="59.0811896324" lon="30.0240468979"><time>2026-04-25T10:22:20Z</time></trkpt><trkpt lat="59.0811896324" lon="30.0240468979"><time>2026-04-25T10:22:23Z</time></trkpt><trkpt lat="59.0811681747" lon="30.0240468979"><time>2026-04-25T10:22:25Z</time></trkpt><trkpt lat="59.0811681747" lon="30.0240468979"><time>2026-04-25T10:22:28Z</time></trkpt><trkpt lat="59.0811681747" lon="30.0240468979"><time>2026-04-25T10:22:30Z</time></trkpt><trkpt lat="59.0811681747" lon="30.0240468979"><time>2026-04-25T10:22:33Z</time></trkpt><trkpt lat="59.0811681747" lon="30.0240468979"><time>2026-04-25T10:22:35Z</time></trkpt><trkpt lat="59.0811681747" lon="30.0240683556"><time>2026-04-25T10:22:38Z</time></trkpt><trkpt lat="59.0811681747" lon="30.0240683556"><time>2026-04-25T10:22:40Z</time></trkpt><trkpt lat="59.0811681747" lon="30.0240683556"><time>2026-04-25T10:22:43Z</time></trkpt><trkpt lat="59.0811467171" lon="30.0240683556"><time>2026-04-25T10:22:45Z</time></trkpt><trkpt lat="59.0811467171" lon="30.0240898132"><time>2026-04-25T10:22:48Z</time></trkpt><trkpt lat="59.0811252594" lon="30.0240898132"><time>2026-04-25T10:22:50Z</time></trkpt><trkpt lat="59.0811252594" lon="30.0240898132"><time>2026-04-25T10:22:53Z</time></trkpt><trkpt lat="59.0811252594" lon="30.0240898132"><time>2026-04-25T10:22:55Z</time></trkpt><trkpt lat="59.0811252594" lon="30.0240898132"><time>2026-04-25T10:22:58Z</time></trkpt><trkpt lat="59.0811252594" lon="30.0240898132"><time>2026-04-25T10:23:00Z</time></trkpt><trkpt lat="59.0811252594" lon="30.0240898132"><time>2026-04-25T10:23:03Z</time></trkpt><trkpt lat="59.0811252594" lon="30.0240898132"><time>2026-04-25T10:23:05Z</time></trkpt><trkpt lat="59.0811252594" lon="30.0240898132"><time>2026-04-25T10:23:08Z</time></trkpt><trkpt lat="59.0811252594" lon="30.0240898132"><time>2026-04-25T10:23:10Z</time></trkpt><trkpt lat="59.0811252594" lon="30.0240898132"><time>2026-04-25T10:23:13Z</time></trkpt><trkpt lat="59.0811252594" lon="30.0240898132"><time>2026-04-25T10:23:15Z</time></trkpt><trkpt lat="59.0811252594" lon="30.0240898132"><time>2026-04-25T10:23:18Z</time></trkpt><trkpt lat="59.0811252594" lon="30.0240898132"><time>2026-04-25T10:23:20Z</time></trkpt><trkpt lat="59.0811252594" lon="30.0240898132"><time>2026-04-25T10:23:23Z</time></trkpt><trkpt lat="59.0811252594" lon="30.0240898132"><time>2026-04-25T10:23:25Z</time></trkpt><trkpt lat="59.0811252594" lon="30.0240898132"><time>2026-04-25T10:23:28Z</time></trkpt><trkpt lat="59.0811252594" lon="30.0241112709"><time>2026-04-25T10:23:30Z</time></trkpt><trkpt lat="59.0811252594" lon="30.0241327286"><time>2026-04-25T10:23:33Z</time></trkpt><trkpt lat="59.0811252594" lon="30.0241327286"><time>2026-04-25T10:23:35Z</time></trkpt><trkpt lat="59.0811252594" lon="30.0241541862"><time>2026-04-25T10:23:38Z</time></trkpt><trkpt lat="59.0811252594" lon="30.0241756439"><time>2026-04-25T10:23:40Z</time></trkpt><trkpt lat="59.0811252594" lon="30.0241971016"><time>2026-04-25T10:23:43Z</time></trkpt><trkpt lat="59.0811252594" lon="30.0241971016"><time>2026-04-25T10:23:45Z</time></trkpt><trkpt lat="59.0811252594" lon="30.0241971016"><time>2026-04-25T10:23:48Z</time></trkpt><trkpt lat="59.0811038017" lon="30.0242185593"><time>2026-04-25T10:23:50Z</time></trkpt><trkpt lat="59.0811038017" lon="30.0242185593"><time>2026-04-25T10:23:53Z</time></trkpt><trkpt lat="59.0810823441" lon="30.0242400169"><time>2026-04-25T10:23:55Z</time></trkpt><trkpt lat="59.0810823441" lon="30.0242614746"><time>2026-04-25T10:23:58Z</time></trkpt><trkpt lat="59.0810823441" lon="30.0242614746"><time>2026-04-25T10:24:00Z</time></trkpt><trkpt lat="59.0810823441" lon="30.0242614746"><time>2026-04-25T10:24:03Z</time></trkpt><trkpt lat="59.0810608864" lon="30.0242614746"><time>2026-04-25T10:24:05Z</time></trkpt><trkpt lat="59.0810608864" lon="30.0242614746"><time>2026-04-25T10:24:08Z</time></trkpt><trkpt lat="59.0810823441" lon="30.0242829323"><time>2026-04-25T10:24:10Z</time></trkpt><trkpt lat="59.0810823441" lon="30.0242829323"><time>2026-04-25T10:24:13Z</time></trkpt><trkpt lat="59.0811038017" lon="30.0242829323"><time>2026-04-25T10:24:15Z</time></trkpt><trkpt lat="59.0810823441" lon="30.0243258476"><time>2026-04-25T10:24:18Z</time></trkpt><trkpt lat="59.0810823441" lon="30.0243902206"><time>2026-04-25T10:24:20Z</time></trkpt><trkpt lat="59.0811038017" lon="30.0244331360"><time>2026-04-25T10:24:23Z</time></trkpt><trkpt lat="59.0810823441" lon="30.0244331360"><time>2026-04-25T10:24:25Z</time></trkpt><trkpt lat="59.0810823441" lon="30.0244116783"><time>2026-04-25T10:24:28Z</time></trkpt><trkpt lat="59.0810608864" lon="30.0243687630"><time>2026-04-25T10:24:30Z</time></trkpt><trkpt lat="59.0810394287" lon="30.0243902206"><time>2026-04-25T10:24:33Z</time></trkpt><trkpt lat="59.0810179710" lon="30.0243687630"><time>2026-04-25T10:24:35Z</time></trkpt><trkpt lat="59.0809965134" lon="30.0243687630"><time>2026-04-25T10:24:38Z</time></trkpt><trkpt lat="59.0809965134" lon="30.0243902206"><time>2026-04-25T10:24:40Z</time></trkpt><trkpt lat="59.0809965134" lon="30.0243687630"><time>2026-04-25T10:24:43Z</time></trkpt><trkpt lat="59.0809535980" lon="30.0243473053"><time>2026-04-25T10:24:45Z</time></trkpt><trkpt lat="59.0809321404" lon="30.0243473053"><time>2026-04-25T10:24:48Z</time></trkpt><trkpt lat="59.0809321404" lon="30.0243902206"><time>2026-04-25T10:24:50Z</time></trkpt><trkpt lat="59.0809535980" lon="30.0244116783"><time>2026-04-25T10:24:53Z</time></trkpt><trkpt lat="59.0809535980" lon="30.0244116783"><time>2026-04-25T10:24:55Z</time></trkpt><trkpt lat="59.0809535980" lon="30.0244331360"><time>2026-04-25T10:24:58Z</time></trkpt><trkpt lat="59.0809321404" lon="30.0244331360"><time>2026-04-25T10:25:00Z</time></trkpt><trkpt lat="59.0809321404" lon="30.0244331360"><time>2026-04-25T10:25:03Z</time></trkpt><trkpt lat="59.0808892250" lon="30.0244545937"><time>2026-04-25T10:25:05Z</time></trkpt><trkpt lat="59.0808677673" lon="30.0244760513"><time>2026-04-25T10:25:08Z</time></trkpt><trkpt lat="59.0808463097" lon="30.0244975090"><time>2026-04-25T10:25:10Z</time></trkpt><trkpt lat="59.0808463097" lon="30.0245404243"><time>2026-04-25T10:25:13Z</time></trkpt><trkpt lat="59.0808463097" lon="30.0245404243"><time>2026-04-25T10:25:15Z</time></trkpt><trkpt lat="59.0808463097" lon="30.0245404243"><time>2026-04-25T10:25:18Z</time></trkpt><trkpt lat="59.0808248520" lon="30.0245618820"><time>2026-04-25T10:25:20Z</time></trkpt><trkpt lat="59.0808248520" lon="30.0245189667"><time>2026-04-25T10:25:23Z</time></trkpt><trkpt lat="59.0808033943" lon="30.0245189667"><time>2026-04-25T10:25:25Z</time></trkpt><trkpt lat="59.0808033943" lon="30.0244975090"><time>2026-04-25T10:25:28Z</time></trkpt><trkpt lat="59.0807819366" lon="30.0245189667"><time>2026-04-25T10:25:30Z</time></trkpt><trkpt lat="59.0807604790" lon="30.0245404243"><time>2026-04-25T10:25:33Z</time></trkpt><trkpt lat="59.0807604790" lon="30.0245833397"><time>2026-04-25T10:25:35Z</time></trkpt><trkpt lat="59.0807819366" lon="30.0246262550"><time>2026-04-25T10:25:38Z</time></trkpt><trkpt lat="59.0807819366" lon="30.0246477127"><time>2026-04-25T10:25:40Z</time></trkpt><trkpt lat="59.0807819366" lon="30.0246906281"><time>2026-04-25T10:25:43Z</time></trkpt><trkpt lat="59.0807819366" lon="30.0247120857"><time>2026-04-25T10:25:45Z</time></trkpt><trkpt lat="59.0807819366" lon="30.0247120857"><time>2026-04-25T10:25:48Z</time></trkpt><trkpt lat="59.0807819366" lon="30.0247120857"><time>2026-04-25T10:25:50Z</time></trkpt><trkpt lat="59.0807819366" lon="30.0247335434"><time>2026-04-25T10:25:53Z</time></trkpt><trkpt lat="59.0807819366" lon="30.0247550011"><time>2026-04-25T10:25:55Z</time></trkpt><trkpt lat="59.0807819366" lon="30.0247764587"><time>2026-04-25T10:25:58Z</time></trkpt><trkpt lat="59.0807819366" lon="30.0247764587"><time>2026-04-25T10:26:00Z</time></trkpt><trkpt lat="59.0807819366" lon="30.0247764587"><time>2026-04-25T10:26:03Z</time></trkpt><trkpt lat="59.0807819366" lon="30.0247764587"><time>2026-04-25T10:26:06Z</time></trkpt><trkpt lat="59.0807819366" lon="30.0247764587"><time>2026-04-25T10:26:08Z</time></trkpt><trkpt lat="59.0807819366" lon="30.0247764587"><time>2026-04-25T10:26:10Z</time></trkpt><trkpt lat="59.0807819366" lon="30.0247764587"><time>2026-04-25T10:26:13Z</time></trkpt><trkpt lat="59.0807819366" lon="30.0247764587"><time>2026-04-25T10:26:15Z</time></trkpt><trkpt lat="59.0807819366" lon="30.0247764587"><time>2026-04-25T10:26:18Z</time></trkpt><trkpt lat="59.0807819366" lon="30.0247979164"><time>2026-04-25T10:26:20Z</time></trkpt><trkpt lat="59.0807604790" lon="30.0247979164"><time>2026-04-25T10:26:23Z</time></trkpt><trkpt lat="59.0807604790" lon="30.0247979164"><time>2026-04-25T10:26:25Z</time></trkpt><trkpt lat="59.0807604790" lon="30.0247979164"><time>2026-04-25T10:26:28Z</time></trkpt><trkpt lat="59.0807604790" lon="30.0247979164"><time>2026-04-25T10:26:30Z</time></trkpt><trkpt lat="59.0807604790" lon="30.0247979164"><time>2026-04-25T10:26:33Z</time></trkpt><trkpt lat="59.0807604790" lon="30.0247979164"><time>2026-04-25T10:26:35Z</time></trkpt><trkpt lat="59.0807604790" lon="30.0247979164"><time>2026-04-25T10:26:38Z</time></trkpt><trkpt lat="59.0807604790" lon="30.0248193741"><time>2026-04-25T10:26:40Z</time></trkpt><trkpt lat="59.0807604790" lon="30.0248193741"><time>2026-04-25T10:26:43Z</time></trkpt><trkpt lat="59.0807604790" lon="30.0248193741"><time>2026-04-25T10:26:45Z</time></trkpt><trkpt lat="59.0807604790" lon="30.0248408318"><time>2026-04-25T10:26:48Z</time></trkpt><trkpt lat="59.0807390213" lon="30.0248622894"><time>2026-04-25T10:26:50Z</time></trkpt><trkpt lat="59.0807175636" lon="30.0249052048"><time>2026-04-25T10:26:53Z</time></trkpt><trkpt lat="59.0806746483" lon="30.0249695778"><time>2026-04-25T10:26:55Z</time></trkpt><trkpt lat="59.0806746483" lon="30.0250554085"><time>2026-04-25T10:26:58Z</time></trkpt><trkpt lat="59.0806531906" lon="30.0250983238"><time>2026-04-25T10:27:00Z</time></trkpt><trkpt lat="59.0806317329" lon="30.0251197815"><time>2026-04-25T10:27:03Z</time></trkpt><trkpt lat="59.0806102753" lon="30.0251197815"><time>2026-04-25T10:27:05Z</time></trkpt><trkpt lat="59.0806102753" lon="30.0251626968"><time>2026-04-25T10:27:08Z</time></trkpt><trkpt lat="59.0806102753" lon="30.0252270699"><time>2026-04-25T10:27:10Z</time></trkpt><trkpt lat="59.0806317329" lon="30.0252699852"><time>2026-04-25T10:27:13Z</time></trkpt><trkpt lat="59.0806317329" lon="30.0253558159"><time>2026-04-25T10:27:15Z</time></trkpt><trkpt lat="59.0806317329" lon="30.0254416466"><time>2026-04-25T10:27:18Z</time></trkpt><trkpt lat="59.0806531906" lon="30.0254631042"><time>2026-04-25T10:27:20Z</time></trkpt><trkpt lat="59.0806746483" lon="30.0253987312"><time>2026-04-25T10:27:23Z</time></trkpt><trkpt lat="59.0806961060" lon="30.0254416466"><time>2026-04-25T10:27:25Z</time></trkpt><trkpt lat="59.0807390213" lon="30.0254416466"><time>2026-04-25T10:27:28Z</time></trkpt><trkpt lat="59.0807604790" lon="30.0253987312"><time>2026-04-25T10:27:30Z</time></trkpt><trkpt lat="59.0807390213" lon="30.0253343582"><time>2026-04-25T10:27:33Z</time></trkpt><trkpt lat="59.0807175636" lon="30.0253343582"><time>2026-04-25T10:27:35Z</time></trkpt><trkpt lat="59.0806746483" lon="30.0254416466"><time>2026-04-25T10:27:38Z</time></trkpt><trkpt lat="59.0806102753" lon="30.0254845619"><time>2026-04-25T10:27:40Z</time></trkpt><trkpt lat="59.0805888176" lon="30.0255489349"><time>2026-04-25T10:27:43Z</time></trkpt><trkpt lat="59.0805459023" lon="30.0255918503"><time>2026-04-25T10:27:45Z</time></trkpt><trkpt lat="59.0805244446" lon="30.0256562233"><time>2026-04-25T10:27:48Z</time></trkpt><trkpt lat="59.0805029869" lon="30.0257205963"><time>2026-04-25T10:27:50Z</time></trkpt><trkpt lat="59.0804815292" lon="30.0257420540"><time>2026-04-25T10:27:53Z</time></trkpt><trkpt lat="59.0804600716" lon="30.0257420540"><time>2026-04-25T10:27:55Z</time></trkpt><trkpt lat="59.0804171562" lon="30.0257635117"><time>2026-04-25T10:27:58Z</time></trkpt><trkpt lat="59.0804171562" lon="30.0257420540"><time>2026-04-25T10:28:00Z</time></trkpt><trkpt lat="59.0804171562" lon="30.0256991386"><time>2026-04-25T10:28:03Z</time></trkpt><trkpt lat="59.0804171562" lon="30.0256776810"><time>2026-04-25T10:28:05Z</time></trkpt><trkpt lat="59.0804386139" lon="30.0256991386"><time>2026-04-25T10:28:08Z</time></trkpt><trkpt lat="59.0804171562" lon="30.0256991386"><time>2026-04-25T10:28:10Z</time></trkpt><trkpt lat="59.0804171562" lon="30.0257205963"><time>2026-04-25T10:28:13Z</time></trkpt><trkpt lat="59.0804386139" lon="30.0256991386"><time>2026-04-25T10:28:15Z</time></trkpt><trkpt lat="59.0804600716" lon="30.0256776810"><time>2026-04-25T10:28:18Z</time></trkpt><trkpt lat="59.0804815292" lon="30.0256776810"><time>2026-04-25T10:28:20Z</time></trkpt><trkpt lat="59.0804815292" lon="30.0256776810"><time>2026-04-25T10:28:23Z</time></trkpt><trkpt lat="59.0805029869" lon="30.0256776810"><time>2026-04-25T10:28:25Z</time></trkpt><trkpt lat="59.0805029869" lon="30.0256776810"><time>2026-04-25T10:28:28Z</time></trkpt><trkpt lat="59.0805029869" lon="30.0257420540"><time>2026-04-25T10:28:30Z</time></trkpt><trkpt lat="59.0805029869" lon="30.0257849693"><time>2026-04-25T10:28:33Z</time></trkpt><trkpt lat="59.0805244446" lon="30.0258278847"><time>2026-04-25T10:28:35Z</time></trkpt><trkpt lat="59.0805244446" lon="30.0258278847"><time>2026-04-25T10:28:38Z</time></trkpt><trkpt lat="59.0805459023" lon="30.0258493423"><time>2026-04-25T10:28:40Z</time></trkpt><trkpt lat="59.0805459023" lon="30.0258708000"><time>2026-04-25T10:28:43Z</time></trkpt><trkpt lat="59.0805459023" lon="30.0258922577"><time>2026-04-25T10:28:45Z</time></trkpt><trkpt lat="59.0805459023" lon="30.0258922577"><time>2026-04-25T10:28:48Z</time></trkpt><trkpt lat="59.0805459023" lon="30.0258708000"><time>2026-04-25T10:28:50Z</time></trkpt><trkpt lat="59.0805244446" lon="30.0258278847"><time>2026-04-25T10:28:53Z</time></trkpt><trkpt lat="59.0805029869" lon="30.0257205963"><time>2026-04-25T10:28:55Z</time></trkpt><trkpt lat="59.0804815292" lon="30.0256562233"><time>2026-04-25T10:28:58Z</time></trkpt><trkpt lat="59.0804386139" lon="30.0257205963"><time>2026-04-25T10:29:00Z</time></trkpt><trkpt lat="59.0804171562" lon="30.0257849693"><time>2026-04-25T10:29:03Z</time></trkpt><trkpt lat="59.0804171562" lon="30.0257635117"><time>2026-04-25T10:29:05Z</time></trkpt><trkpt lat="59.0804171562" lon="30.0257635117"><time>2026-04-25T10:29:08Z</time></trkpt><trkpt lat="59.0804171562" lon="30.0257635117"><time>2026-04-25T10:29:10Z</time></trkpt><trkpt lat="59.0804171562" lon="30.0257635117"><time>2026-04-25T10:29:13Z</time></trkpt><trkpt lat="59.0804171562" lon="30.0258064270"><time>2026-04-25T10:29:15Z</time></trkpt><trkpt lat="59.0804171562" lon="30.0258064270"><time>2026-04-25T10:29:18Z</time></trkpt><trkpt lat="59.0803956985" lon="30.0258278847"><time>2026-04-25T10:29:20Z</time></trkpt><trkpt lat="59.0803527832" lon="30.0258493423"><time>2026-04-25T10:29:23Z</time></trkpt><trkpt lat="59.0803527832" lon="30.0258493423"><time>2026-04-25T10:29:25Z</time></trkpt><trkpt lat="59.0803313255" lon="30.0258708000"><time>2026-04-25T10:29:28Z</time></trkpt><trkpt lat="59.0803313255" lon="30.0258493423"><time>2026-04-25T10:29:30Z</time></trkpt><trkpt lat="59.0803313255" lon="30.0258493423"><time>2026-04-25T10:29:33Z</time></trkpt><trkpt lat="59.0803313255" lon="30.0258708000"><time>2026-04-25T10:29:35Z</time></trkpt><trkpt lat="59.0803313255" lon="30.0258708000"><time>2026-04-25T10:29:38Z</time></trkpt><trkpt lat="59.0803313255" lon="30.0258708000"><time>2026-04-25T10:29:40Z</time></trkpt><trkpt lat="59.0803313255" lon="30.0258708000"><time>2026-04-25T10:29:43Z</time></trkpt><trkpt lat="59.0803313255" lon="30.0258708000"><time>2026-04-25T10:29:45Z</time></trkpt><trkpt lat="59.0803313255" lon="30.0258708000"><time>2026-04-25T10:29:48Z</time></trkpt><trkpt lat="59.0803313255" lon="30.0258708000"><time>2026-04-25T10:29:50Z</time></trkpt><trkpt lat="59.0803313255" lon="30.0258708000"><time>2026-04-25T10:29:53Z</time></trkpt><trkpt lat="59.0803313255" lon="30.0258708000"><time>2026-04-25T10:29:55Z</time></trkpt><trkpt lat="59.0803313255" lon="30.0258708000"><time>2026-04-25T10:29:58Z</time></trkpt><trkpt lat="59.0803313255" lon="30.0258708000"><time>2026-04-25T10:30:00Z</time></trkpt><trkpt lat="59.0803313255" lon="30.0258708000"><time>2026-04-25T10:30:03Z</time></trkpt><trkpt lat="59.0803313255" lon="30.0258708000"><time>2026-04-25T10:30:05Z</time></trkpt><trkpt lat="59.0803313255" lon="30.0258708000"><time>2026-04-25T10:30:08Z</time></trkpt><trkpt lat="59.0803313255" lon="30.0258708000"><time>2026-04-25T10:30:10Z</time></trkpt><trkpt lat="59.0803313255" lon="30.0258708000"><time>2026-04-25T10:30:13Z</time></trkpt><trkpt lat="59.0803313255" lon="30.0258708000"><time>2026-04-25T10:30:15Z</time></trkpt><trkpt lat="59.0803313255" lon="30.0258922577"><time>2026-04-25T10:30:18Z</time></trkpt><trkpt lat="59.0803313255" lon="30.0258922577"><time>2026-04-25T10:30:20Z</time></trkpt><trkpt lat="59.0803313255" lon="30.0259137154"><time>2026-04-25T10:30:23Z</time></trkpt><trkpt lat="59.0803313255" lon="30.0259137154"><time>2026-04-25T10:30:25Z</time></trkpt><trkpt lat="59.0803527832" lon="30.0259137154"><time>2026-04-25T10:30:28Z</time></trkpt><trkpt lat="59.0803527832" lon="30.0259137154"><time>2026-04-25T10:30:30Z</time></trkpt><trkpt lat="59.0803527832" lon="30.0259137154"><time>2026-04-25T10:30:33Z</time></trkpt><trkpt lat="59.0803527832" lon="30.0259137154"><time>2026-04-25T10:30:35Z</time></trkpt><trkpt lat="59.0803527832" lon="30.0259137154"><time>2026-04-25T10:30:38Z</time></trkpt><trkpt lat="59.0803527832" lon="30.0259137154"><time>2026-04-25T10:30:40Z</time></trkpt><trkpt lat="59.0803527832" lon="30.0259137154"><time>2026-04-25T10:30:43Z</time></trkpt><trkpt lat="59.0803527832" lon="30.0259137154"><time>2026-04-25T10:30:45Z</time></trkpt><trkpt lat="59.0803527832" lon="30.0259137154"><time>2026-04-25T10:30:48Z</time></trkpt><trkpt lat="59.0803527832" lon="30.0259137154"><time>2026-04-25T10:30:50Z</time></trkpt><trkpt lat="59.0803527832" lon="30.0259137154"><time>2026-04-25T10:30:53Z</time></trkpt><trkpt lat="59.0803742409" lon="30.0259566307"><time>2026-04-25T10:30:55Z</time></trkpt><trkpt lat="59.0803956985" lon="30.0259995461"><time>2026-04-25T10:30:58Z</time></trkpt><trkpt lat="59.0803956985" lon="30.0260210037"><time>2026-04-25T10:31:00Z</time></trkpt><trkpt lat="59.0803956985" lon="30.0260424614"><time>2026-04-25T10:31:03Z</time></trkpt><trkpt lat="59.0803956985" lon="30.0260639191"><time>2026-04-25T10:31:05Z</time></trkpt><trkpt lat="59.0803956985" lon="30.0260424614"><time>2026-04-25T10:31:08Z</time></trkpt><trkpt lat="59.0803956985" lon="30.0260424614"><time>2026-04-25T10:31:10Z</time></trkpt><trkpt lat="59.0803956985" lon="30.0260424614"><time>2026-04-25T10:31:13Z</time></trkpt><trkpt lat="59.0803956985" lon="30.0260424614"><time>2026-04-25T10:31:15Z</time></trkpt><trkpt lat="59.0803956985" lon="30.0260424614"><time>2026-04-25T10:31:18Z</time></trkpt><trkpt lat="59.0803956985" lon="30.0260639191"><time>2026-04-25T10:31:20Z</time></trkpt><trkpt lat="59.0803313255" lon="30.0261068344"><time>2026-04-25T10:31:23Z</time></trkpt><trkpt lat="59.0803098679" lon="30.0261282921"><time>2026-04-25T10:31:25Z</time></trkpt><trkpt lat="59.0802884102" lon="30.0261712074"><time>2026-04-25T10:31:28Z</time></trkpt><trkpt lat="59.0802669525" lon="30.0261712074"><time>2026-04-25T10:31:30Z</time></trkpt><trkpt lat="59.0802669525" lon="30.0261712074"><time>2026-04-25T10:31:33Z</time></trkpt><trkpt lat="59.0802454948" lon="30.0262141228"><time>2026-04-25T10:31:35Z</time></trkpt><trkpt lat="59.0802454948" lon="30.0262355804"><time>2026-04-25T10:31:38Z</time></trkpt><trkpt lat="59.0802454948" lon="30.0262355804"><time>2026-04-25T10:31:40Z</time></trkpt><trkpt lat="59.0802240372" lon="30.0262570381"><time>2026-04-25T10:31:43Z</time></trkpt><trkpt lat="59.0802025795" lon="30.0262784958"><time>2026-04-25T10:31:45Z</time></trkpt><trkpt lat="59.0801811218" lon="30.0262999535"><time>2026-04-25T10:31:48Z</time></trkpt><trkpt lat="59.0801811218" lon="30.0263428688"><time>2026-04-25T10:31:50Z</time></trkpt><trkpt lat="59.0801596642" lon="30.0263643265"><time>2026-04-25T10:31:53Z</time></trkpt><trkpt lat="59.0801382065" lon="30.0263643265"><time>2026-04-25T10:31:55Z</time></trkpt><trkpt lat="59.0801167488" lon="30.0263643265"><time>2026-04-25T10:31:58Z</time></trkpt><trkpt lat="59.0801167488" lon="30.0263857841"><time>2026-04-25T10:32:00Z</time></trkpt><trkpt lat="59.0801167488" lon="30.0264072418"><time>2026-04-25T10:32:03Z</time></trkpt><trkpt lat="59.0800952911" lon="30.0264501572"><time>2026-04-25T10:32:05Z</time></trkpt><trkpt lat="59.0800952911" lon="30.0264501572"><time>2026-04-25T10:32:08Z</time></trkpt><trkpt lat="59.0800738335" lon="30.0264716148"><time>2026-04-25T10:32:10Z</time></trkpt><trkpt lat="59.0800523758" lon="30.0265145302"><time>2026-04-25T10:32:13Z</time></trkpt><trkpt lat="59.0800309181" lon="30.0265359879"><time>2026-04-25T10:32:15Z</time></trkpt><trkpt lat="59.0800309181" lon="30.0265359879"><time>2026-04-25T10:32:18Z</time></trkpt><trkpt lat="59.0800094604" lon="30.0265574455"><time>2026-04-25T10:32:20Z</time></trkpt><trkpt lat="59.0799880028" lon="30.0265789032"><time>2026-04-25T10:32:23Z</time></trkpt><trkpt lat="59.0799880028" lon="30.0266003609"><time>2026-04-25T10:32:25Z</time></trkpt><trkpt lat="59.0799665451" lon="30.0266218185"><time>2026-04-25T10:32:28Z</time></trkpt><trkpt lat="59.0799450874" lon="30.0266432762"><time>2026-04-25T10:32:30Z</time></trkpt><trkpt lat="59.0799236298" lon="30.0266647339"><time>2026-04-25T10:32:33Z</time></trkpt><trkpt lat="59.0799236298" lon="30.0266647339"><time>2026-04-25T10:32:35Z</time></trkpt><trkpt lat="59.0799450874" lon="30.0266432762"><time>2026-04-25T10:32:38Z</time></trkpt><trkpt lat="59.0799236298" lon="30.0266432762"><time>2026-04-25T10:32:40Z</time></trkpt><trkpt lat="59.0799236298" lon="30.0266647339"><time>2026-04-25T10:32:43Z</time></trkpt><trkpt lat="59.0799236298" lon="30.0266647339"><time>2026-04-25T10:32:45Z</time></trkpt><trkpt lat="59.0799236298" lon="30.0266647339"><time>2026-04-25T10:32:48Z</time></trkpt><trkpt lat="59.0799236298" lon="30.0266647339"><time>2026-04-25T10:32:50Z</time></trkpt><trkpt lat="59.0799236298" lon="30.0266647339"><time>2026-04-25T10:32:53Z</time></trkpt><trkpt lat="59.0799236298" lon="30.0266647339"><time>2026-04-25T10:32:55Z</time></trkpt><trkpt lat="59.0799236298" lon="30.0266647339"><time>2026-04-25T10:32:58Z</time></trkpt><trkpt lat="59.0799236298" lon="30.0266647339"><time>2026-04-25T10:33:00Z</time></trkpt><trkpt lat="59.0799236298" lon="30.0266432762"><time>2026-04-25T10:33:03Z</time></trkpt><trkpt lat="59.0799236298" lon="30.0266432762"><time>2026-04-25T10:33:05Z</time></trkpt><trkpt lat="59.0799236298" lon="30.0266432762"><time>2026-04-25T10:33:08Z</time></trkpt><trkpt lat="59.0799236298" lon="30.0266647339"><time>2026-04-25T10:33:10Z</time></trkpt><trkpt lat="59.0799236298" lon="30.0266647339"><time>2026-04-25T10:33:13Z</time></trkpt><trkpt lat="59.0799236298" lon="30.0266647339"><time>2026-04-25T10:33:15Z</time></trkpt><trkpt lat="59.0799236298" lon="30.0266647339"><time>2026-04-25T10:33:18Z</time></trkpt><trkpt lat="59.0799236298" lon="30.0266647339"><time>2026-04-25T10:33:20Z</time></trkpt><trkpt lat="59.0799450874" lon="30.0267076492"><time>2026-04-25T10:33:23Z</time></trkpt><trkpt lat="59.0799665451" lon="30.0268578529"><time>2026-04-25T10:33:25Z</time></trkpt><trkpt lat="59.0799665451" lon="30.0269651413"><time>2026-04-25T10:33:28Z</time></trkpt><trkpt lat="59.0799880028" lon="30.0270295143"><time>2026-04-25T10:33:30Z</time></trkpt><trkpt lat="59.0799880028" lon="30.0270295143"><time>2026-04-25T10:33:33Z</time></trkpt><trkpt lat="59.0799880028" lon="30.0270509720"><time>2026-04-25T10:33:35Z</time></trkpt><trkpt lat="59.0799665451" lon="30.0270938873"><time>2026-04-25T10:33:38Z</time></trkpt><trkpt lat="59.0799665451" lon="30.0271368027"><time>2026-04-25T10:33:40Z</time></trkpt><trkpt lat="59.0799665451" lon="30.0271797180"><time>2026-04-25T10:33:43Z</time></trkpt><trkpt lat="59.0799665451" lon="30.0272226334"><time>2026-04-25T10:33:45Z</time></trkpt><trkpt lat="59.0799450874" lon="30.0272440910"><time>2026-04-25T10:33:48Z</time></trkpt><trkpt lat="59.0799236298" lon="30.0272226334"><time>2026-04-25T10:33:50Z</time></trkpt><trkpt lat="59.0799236298" lon="30.0271797180"><time>2026-04-25T10:33:53Z</time></trkpt><trkpt lat="59.0799236298" lon="30.0271368027"><time>2026-04-25T10:33:55Z</time></trkpt><trkpt lat="59.0799236298" lon="30.0271368027"><time>2026-04-25T10:33:58Z</time></trkpt><trkpt lat="59.0799021721" lon="30.0271797180"><time>2026-04-25T10:34:00Z</time></trkpt><trkpt lat="59.0799021721" lon="30.0272011757"><time>2026-04-25T10:34:03Z</time></trkpt><trkpt lat="59.0799021721" lon="30.0271797180"><time>2026-04-25T10:34:05Z</time></trkpt><trkpt lat="59.0799021721" lon="30.0271797180"><time>2026-04-25T10:34:08Z</time></trkpt><trkpt lat="59.0799021721" lon="30.0272011757"><time>2026-04-25T10:34:10Z</time></trkpt><trkpt lat="59.0798807144" lon="30.0272655487"><time>2026-04-25T10:34:13Z</time></trkpt><trkpt lat="59.0799021721" lon="30.0273084641"><time>2026-04-25T10:34:15Z</time></trkpt><trkpt lat="59.0799021721" lon="30.0273728371"><time>2026-04-25T10:34:18Z</time></trkpt><trkpt lat="59.0799021721" lon="30.0274157524"><time>2026-04-25T10:34:20Z</time></trkpt><trkpt lat="59.0799021721" lon="30.0274157524"><time>2026-04-25T10:34:23Z</time></trkpt><trkpt lat="59.0799021721" lon="30.0274157524"><time>2026-04-25T10:34:25Z</time></trkpt><trkpt lat="59.0799021721" lon="30.0274157524"><time>2026-04-25T10:34:28Z</time></trkpt><trkpt lat="59.0799021721" lon="30.0274157524"><time>2026-04-25T10:34:30Z</time></trkpt><trkpt lat="59.0799021721" lon="30.0274157524"><time>2026-04-25T10:34:33Z</time></trkpt><trkpt lat="59.0799021721" lon="30.0274157524"><time>2026-04-25T10:34:35Z</time></trkpt><trkpt lat="59.0799021721" lon="30.0274157524"><time>2026-04-25T10:34:38Z</time></trkpt><trkpt lat="59.0799021721" lon="30.0274157524"><time>2026-04-25T10:34:40Z</time></trkpt><trkpt lat="59.0798807144" lon="30.0274157524"><time>2026-04-25T10:34:43Z</time></trkpt><trkpt lat="59.0798377991" lon="30.0274372101"><time>2026-04-25T10:34:45Z</time></trkpt><trkpt lat="59.0798163414" lon="30.0274586678"><time>2026-04-25T10:34:48Z</time></trkpt><trkpt lat="59.0797948837" lon="30.0274801254"><time>2026-04-25T10:34:50Z</time></trkpt><trkpt lat="59.0797948837" lon="30.0275015831"><time>2026-04-25T10:34:53Z</time></trkpt><trkpt lat="59.0797948837" lon="30.0275015831"><time>2026-04-25T10:34:55Z</time></trkpt><trkpt lat="59.0797948837" lon="30.0275015831"><time>2026-04-25T10:34:58Z</time></trkpt><trkpt lat="59.0797734261" lon="30.0275230408"><time>2026-04-25T10:35:00Z</time></trkpt><trkpt lat="59.0797734261" lon="30.0275230408"><time>2026-04-25T10:35:03Z</time></trkpt><trkpt lat="59.0797734261" lon="30.0275230408"><time>2026-04-25T10:35:06Z</time></trkpt><trkpt lat="59.0797734261" lon="30.0275230408"><time>2026-04-25T10:35:08Z</time></trkpt><trkpt lat="59.0797734261" lon="30.0275230408"><time>2026-04-25T10:35:10Z</time></trkpt><trkpt lat="59.0797734261" lon="30.0275230408"><time>2026-04-25T10:35:13Z</time></trkpt><trkpt lat="59.0797948837" lon="30.0275230408"><time>2026-04-25T10:35:15Z</time></trkpt><trkpt lat="59.0797948837" lon="30.0275230408"><time>2026-04-25T10:35:18Z</time></trkpt><trkpt lat="59.0797948837" lon="30.0275230408"><time>2026-04-25T10:35:20Z</time></trkpt><trkpt lat="59.0797948837" lon="30.0275230408"><time>2026-04-25T10:35:23Z</time></trkpt><trkpt lat="59.0797948837" lon="30.0275230408"><time>2026-04-25T10:35:25Z</time></trkpt><trkpt lat="59.0797948837" lon="30.0275230408"><time>2026-04-25T10:35:28Z</time></trkpt><trkpt lat="59.0797948837" lon="30.0275230408"><time>2026-04-25T10:35:30Z</time></trkpt><trkpt lat="59.0797948837" lon="30.0275230408"><time>2026-04-25T10:35:33Z</time></trkpt><trkpt lat="59.0797948837" lon="30.0275230408"><time>2026-04-25T10:35:35Z</time></trkpt><trkpt lat="59.0797734261" lon="30.0275015831"><time>2026-04-25T10:35:38Z</time></trkpt><trkpt lat="59.0797305107" lon="30.0274801254"><time>2026-04-25T10:35:40Z</time></trkpt><trkpt lat="59.0796875954" lon="30.0274586678"><time>2026-04-25T10:35:43Z</time></trkpt><trkpt lat="59.0796661377" lon="30.0275015831"><time>2026-04-25T10:35:45Z</time></trkpt><trkpt lat="59.0796446800" lon="30.0275444984"><time>2026-04-25T10:35:48Z</time></trkpt><trkpt lat="59.0796232224" lon="30.0275874138"><time>2026-04-25T10:35:50Z</time></trkpt><trkpt lat="59.0796017647" lon="30.0276517868"><time>2026-04-25T10:35:53Z</time></trkpt><trkpt lat="59.0795803070" lon="30.0277161598"><time>2026-04-25T10:35:55Z</time></trkpt><trkpt lat="59.0795588493" lon="30.0277590752"><time>2026-04-25T10:35:58Z</time></trkpt><trkpt lat="59.0795588493" lon="30.0277590752"><time>2026-04-25T10:36:00Z</time></trkpt><trkpt lat="59.0795803070" lon="30.0278019905"><time>2026-04-25T10:36:03Z</time></trkpt><trkpt lat="59.0796017647" lon="30.0278019905"><time>2026-04-25T10:36:05Z</time></trkpt><trkpt lat="59.0796232224" lon="30.0277805328"><time>2026-04-25T10:36:08Z</time></trkpt><trkpt lat="59.0796232224" lon="30.0277805328"><time>2026-04-25T10:36:10Z</time></trkpt><trkpt lat="59.0795803070" lon="30.0278234482"><time>2026-04-25T10:36:13Z</time></trkpt><trkpt lat="59.0795373917" lon="30.0278449059"><time>2026-04-25T10:36:15Z</time></trkpt><trkpt lat="59.0795159340" lon="30.0278234482"><time>2026-04-25T10:36:18Z</time></trkpt><trkpt lat="59.0794730186" lon="30.0278234482"><time>2026-04-25T10:36:20Z</time></trkpt><trkpt lat="59.0794515610" lon="30.0278019905"><time>2026-04-25T10:36:23Z</time></trkpt><trkpt lat="59.0794730186" lon="30.0277805328"><time>2026-04-25T10:36:25Z</time></trkpt><trkpt lat="59.0794730186" lon="30.0277805328"><time>2026-04-25T10:36:28Z</time></trkpt><trkpt lat="59.0794730186" lon="30.0278019905"><time>2026-04-25T10:36:30Z</time></trkpt><trkpt lat="59.0794730186" lon="30.0278663635"><time>2026-04-25T10:36:33Z</time></trkpt><trkpt lat="59.0794515610" lon="30.0279307365"><time>2026-04-25T10:36:35Z</time></trkpt><trkpt lat="59.0794515610" lon="30.0279951096"><time>2026-04-25T10:36:38Z</time></trkpt><trkpt lat="59.0794515610" lon="30.0279951096"><time>2026-04-25T10:36:40Z</time></trkpt><trkpt lat="59.0794515610" lon="30.0279951096"><time>2026-04-25T10:36:43Z</time></trkpt><trkpt lat="59.0794515610" lon="30.0279951096"><time>2026-04-25T10:36:45Z</time></trkpt><trkpt lat="59.0794515610" lon="30.0279951096"><time>2026-04-25T10:36:48Z</time></trkpt><trkpt lat="59.0794944763" lon="30.0280594826"><time>2026-04-25T10:36:50Z</time></trkpt><trkpt lat="59.0795159340" lon="30.0281667709"><time>2026-04-25T10:36:53Z</time></trkpt><trkpt lat="59.0795159340" lon="30.0282096863"><time>2026-04-25T10:36:55Z</time></trkpt><trkpt lat="59.0795159340" lon="30.0282526016"><time>2026-04-25T10:36:58Z</time></trkpt><trkpt lat="59.0795159340" lon="30.0282955170"><time>2026-04-25T10:37:00Z</time></trkpt><trkpt lat="59.0795159340" lon="30.0283169746"><time>2026-04-25T10:37:03Z</time></trkpt><trkpt lat="59.0795159340" lon="30.0283169746"><time>2026-04-25T10:37:05Z</time></trkpt><trkpt lat="59.0795159340" lon="30.0282955170"><time>2026-04-25T10:37:08Z</time></trkpt><trkpt lat="59.0795159340" lon="30.0282526016"><time>2026-04-25T10:37:10Z</time></trkpt><trkpt lat="59.0795159340" lon="30.0282526016"><time>2026-04-25T10:37:13Z</time></trkpt><trkpt lat="59.0795159340" lon="30.0282526016"><time>2026-04-25T10:37:15Z</time></trkpt><trkpt lat="59.0795159340" lon="30.0282526016"><time>2026-04-25T10:37:18Z</time></trkpt><trkpt lat="59.0795159340" lon="30.0282526016"><time>2026-04-25T10:37:20Z</time></trkpt><trkpt lat="59.0795159340" lon="30.0282526016"><time>2026-04-25T10:37:23Z</time></trkpt><trkpt lat="59.0795159340" lon="30.0282526016"><time>2026-04-25T10:37:25Z</time></trkpt><trkpt lat="59.0795159340" lon="30.0282526016"><time>2026-04-25T10:37:28Z</time></trkpt><trkpt lat="59.0795159340" lon="30.0282526016"><time>2026-04-25T10:37:30Z</time></trkpt><trkpt lat="59.0795159340" lon="30.0282526016"><time>2026-04-25T10:37:33Z</time></trkpt><trkpt lat="59.0795159340" lon="30.0282526016"><time>2026-04-25T10:37:35Z</time></trkpt><trkpt lat="59.0795159340" lon="30.0282526016"><time>2026-04-25T10:37:38Z</time></trkpt><trkpt lat="59.0795159340" lon="30.0282311440"><time>2026-04-25T10:37:40Z</time></trkpt><trkpt lat="59.0795159340" lon="30.0282311440"><time>2026-04-25T10:37:43Z</time></trkpt><trkpt lat="59.0795159340" lon="30.0282311440"><time>2026-04-25T10:37:45Z</time></trkpt><trkpt lat="59.0795159340" lon="30.0282311440"><time>2026-04-25T10:37:48Z</time></trkpt><trkpt lat="59.0795159340" lon="30.0282311440"><time>2026-04-25T10:37:50Z</time></trkpt><trkpt lat="59.0795159340" lon="30.0282311440"><time>2026-04-25T10:37:53Z</time></trkpt><trkpt lat="59.0795159340" lon="30.0282311440"><time>2026-04-25T10:37:55Z</time></trkpt><trkpt lat="59.0795159340" lon="30.0282311440"><time>2026-04-25T10:37:58Z</time></trkpt><trkpt lat="59.0795159340" lon="30.0282311440"><time>2026-04-25T10:38:00Z</time></trkpt><trkpt lat="59.0795159340" lon="30.0282311440"><time>2026-04-25T10:38:03Z</time></trkpt><trkpt lat="59.0795159340" lon="30.0282311440"><time>2026-04-25T10:38:06Z</time></trkpt><trkpt lat="59.0795159340" lon="30.0282311440"><time>2026-04-25T10:38:08Z</time></trkpt><trkpt lat="59.0795159340" lon="30.0282311440"><time>2026-04-25T10:38:10Z</time></trkpt><trkpt lat="59.0795159340" lon="30.0282311440"><time>2026-04-25T10:38:13Z</time></trkpt><trkpt lat="59.0795159340" lon="30.0282311440"><time>2026-04-25T10:38:15Z</time></trkpt><trkpt lat="59.0795159340" lon="30.0282311440"><time>2026-04-25T10:38:18Z</time></trkpt><trkpt lat="59.0795159340" lon="30.0282311440"><time>2026-04-25T10:38:20Z</time></trkpt><trkpt lat="59.0795159340" lon="30.0282311440"><time>2026-04-25T10:38:23Z</time></trkpt><trkpt lat="59.0795159340" lon="30.0282311440"><time>2026-04-25T10:38:25Z</time></trkpt><trkpt lat="59.0795159340" lon="30.0282311440"><time>2026-04-25T10:38:28Z</time></trkpt><trkpt lat="59.0795159340" lon="30.0282526016"><time>2026-04-25T10:38:30Z</time></trkpt><trkpt lat="59.0794944763" lon="30.0282526016"><time>2026-04-25T10:38:33Z</time></trkpt><trkpt lat="59.0794944763" lon="30.0282526016"><time>2026-04-25T10:38:35Z</time></trkpt><trkpt lat="59.0794944763" lon="30.0282526016"><time>2026-04-25T10:38:38Z</time></trkpt><trkpt lat="59.0794944763" lon="30.0282526016"><time>2026-04-25T10:38:40Z</time></trkpt><trkpt lat="59.0794944763" lon="30.0282526016"><time>2026-04-25T10:38:43Z</time></trkpt><trkpt lat="59.0794944763" lon="30.0282526016"><time>2026-04-25T10:38:45Z</time></trkpt><trkpt lat="59.0794944763" lon="30.0282526016"><time>2026-04-25T10:38:48Z</time></trkpt><trkpt lat="59.0794944763" lon="30.0282526016"><time>2026-04-25T10:38:50Z</time></trkpt><trkpt lat="59.0794944763" lon="30.0282526016"><time>2026-04-25T10:38:53Z</time></trkpt><trkpt lat="59.0794944763" lon="30.0282526016"><time>2026-04-25T10:38:55Z</time></trkpt><trkpt lat="59.0794944763" lon="30.0282526016"><time>2026-04-25T10:38:58Z</time></trkpt><trkpt lat="59.0794944763" lon="30.0282526016"><time>2026-04-25T10:39:00Z</time></trkpt><trkpt lat="59.0794944763" lon="30.0282526016"><time>2026-04-25T10:39:03Z</time></trkpt><trkpt lat="59.0794944763" lon="30.0282526016"><time>2026-04-25T10:39:05Z</time></trkpt><trkpt lat="59.0794944763" lon="30.0282526016"><time>2026-04-25T10:39:08Z</time></trkpt><trkpt lat="59.0794944763" lon="30.0282526016"><time>2026-04-25T10:39:10Z</time></trkpt><trkpt lat="59.0794944763" lon="30.0282526016"><time>2026-04-25T10:39:13Z</time></trkpt><trkpt lat="59.0794944763" lon="30.0282526016"><time>2026-04-25T10:39:15Z</time></trkpt><trkpt lat="59.0794944763" lon="30.0282526016"><time>2026-04-25T10:39:18Z</time></trkpt><trkpt lat="59.0794944763" lon="30.0282526016"><time>2026-04-25T10:39:20Z</time></trkpt><trkpt lat="59.0794944763" lon="30.0282526016"><time>2026-04-25T10:39:23Z</time></trkpt><trkpt lat="59.0794944763" lon="30.0282526016"><time>2026-04-25T10:39:25Z</time></trkpt><trkpt lat="59.0794944763" lon="30.0282526016"><time>2026-04-25T10:39:28Z</time></trkpt><trkpt lat="59.0794944763" lon="30.0282526016"><time>2026-04-25T10:39:30Z</time></trkpt><trkpt lat="59.0794944763" lon="30.0282526016"><time>2026-04-25T10:39:33Z</time></trkpt><trkpt lat="59.0794944763" lon="30.0282526016"><time>2026-04-25T10:39:36Z</time></trkpt><trkpt lat="59.0794944763" lon="30.0282526016"><time>2026-04-25T10:39:38Z</time></trkpt><trkpt lat="59.0794944763" lon="30.0282740593"><time>2026-04-25T10:39:40Z</time></trkpt><trkpt lat="59.0794944763" lon="30.0282740593"><time>2026-04-25T10:39:43Z</time></trkpt><trkpt lat="59.0794944763" lon="30.0282740593"><time>2026-04-25T10:39:45Z</time></trkpt><trkpt lat="59.0794944763" lon="30.0282740593"><time>2026-04-25T10:39:48Z</time></trkpt><trkpt lat="59.0794944763" lon="30.0282740593"><time>2026-04-25T10:39:50Z</time></trkpt><trkpt lat="59.0794944763" lon="30.0282740593"><time>2026-04-25T10:39:53Z</time></trkpt><trkpt lat="59.0794944763" lon="30.0282740593"><time>2026-04-25T10:39:55Z</time></trkpt><trkpt lat="59.0794944763" lon="30.0282740593"><time>2026-04-25T10:39:58Z</time></trkpt><trkpt lat="59.0794944763" lon="30.0282740593"><time>2026-04-25T10:40:00Z</time></trkpt><trkpt lat="59.0794944763" lon="30.0282740593"><time>2026-04-25T10:40:03Z</time></trkpt><trkpt lat="59.0794944763" lon="30.0282526016"><time>2026-04-25T10:40:05Z</time></trkpt><trkpt lat="59.0794944763" lon="30.0282526016"><time>2026-04-25T10:40:08Z</time></trkpt><trkpt lat="59.0794944763" lon="30.0282526016"><time>2026-04-25T10:40:10Z</time></trkpt><trkpt lat="59.0794944763" lon="30.0282311440"><time>2026-04-25T10:40:13Z</time></trkpt><trkpt lat="59.0794944763" lon="30.0282311440"><time>2026-04-25T10:40:15Z</time></trkpt><trkpt lat="59.0794944763" lon="30.0282311440"><time>2026-04-25T10:40:18Z</time></trkpt><trkpt lat="59.0794944763" lon="30.0282311440"><time>2026-04-25T10:40:20Z</time></trkpt><trkpt lat="59.0794944763" lon="30.0282311440"><time>2026-04-25T10:40:23Z</time></trkpt><trkpt lat="59.0794944763" lon="30.0282311440"><time>2026-04-25T10:40:25Z</time></trkpt><trkpt lat="59.0794944763" lon="30.0282311440"><time>2026-04-25T10:40:28Z</time></trkpt><trkpt lat="59.0794944763" lon="30.0282311440"><time>2026-04-25T10:40:30Z</time></trkpt><trkpt lat="59.0794944763" lon="30.0282311440"><time>2026-04-25T10:40:33Z</time></trkpt><trkpt lat="59.0794944763" lon="30.0282311440"><time>2026-04-25T10:40:35Z</time></trkpt><trkpt lat="59.0794944763" lon="30.0282311440"><time>2026-04-25T10:40:38Z</time></trkpt><trkpt lat="59.0794944763" lon="30.0282311440"><time>2026-04-25T10:40:40Z</time></trkpt><trkpt lat="59.0794944763" lon="30.0282311440"><time>2026-04-25T10:40:43Z</time></trkpt><trkpt lat="59.0794944763" lon="30.0282311440"><time>2026-04-25T10:40:45Z</time></trkpt><trkpt lat="59.0794944763" lon="30.0282311440"><time>2026-04-25T10:40:48Z</time></trkpt><trkpt lat="59.0794944763" lon="30.0282311440"><time>2026-04-25T10:40:50Z</time></trkpt><trkpt lat="59.0794944763" lon="30.0282311440"><time>2026-04-25T10:40:53Z</time></trkpt><trkpt lat="59.0794944763" lon="30.0282311440"><time>2026-04-25T10:40:55Z</time></trkpt><trkpt lat="59.0794944763" lon="30.0282311440"><time>2026-04-25T10:40:58Z</time></trkpt><trkpt lat="59.0794944763" lon="30.0282311440"><time>2026-04-25T10:41:00Z</time></trkpt><trkpt lat="59.0794944763" lon="30.0282311440"><time>2026-04-25T10:41:03Z</time></trkpt><trkpt lat="59.0794944763" lon="30.0282311440"><time>2026-04-25T10:41:05Z</time></trkpt><trkpt lat="59.0794944763" lon="30.0282311440"><time>2026-04-25T10:41:08Z</time></trkpt><trkpt lat="59.0794944763" lon="30.0282311440"><time>2026-04-25T10:41:10Z</time></trkpt><trkpt lat="59.0794944763" lon="30.0282311440"><time>2026-04-25T10:41:13Z</time></trkpt><trkpt lat="59.0794944763" lon="30.0282311440"><time>2026-04-25T10:41:15Z</time></trkpt><trkpt lat="59.0794944763" lon="30.0282311440"><time>2026-04-25T10:41:18Z</time></trkpt><trkpt lat="59.0794944763" lon="30.0282311440"><time>2026-04-25T10:41:20Z</time></trkpt><trkpt lat="59.0794944763" lon="30.0282311440"><time>2026-04-25T10:41:23Z</time></trkpt><trkpt lat="59.0794944763" lon="30.0282311440"><time>2026-04-25T10:41:25Z</time></trkpt><trkpt lat="59.0794944763" lon="30.0282311440"><time>2026-04-25T10:41:28Z</time></trkpt><trkpt lat="59.0794944763" lon="30.0282311440"><time>2026-04-25T10:41:30Z</time></trkpt><trkpt lat="59.0794944763" lon="30.0282311440"><time>2026-04-25T10:41:33Z</time></trkpt><trkpt lat="59.0794944763" lon="30.0282311440"><time>2026-04-25T10:41:35Z</time></trkpt><trkpt lat="59.0794944763" lon="30.0282311440"><time>2026-04-25T10:41:38Z</time></trkpt><trkpt lat="59.0794944763" lon="30.0282311440"><time>2026-04-25T10:41:40Z</time></trkpt><trkpt lat="59.0794944763" lon="30.0282311440"><time>2026-04-25T10:41:43Z</time></trkpt><trkpt lat="59.0794944763" lon="30.0282311440"><time>2026-04-25T10:41:45Z</time></trkpt><trkpt lat="59.0794944763" lon="30.0282311440"><time>2026-04-25T10:41:48Z</time></trkpt><trkpt lat="59.0794944763" lon="30.0282311440"><time>2026-04-25T10:41:50Z</time></trkpt><trkpt lat="59.0794944763" lon="30.0282311440"><time>2026-04-25T10:41:53Z</time></trkpt><trkpt lat="59.0794944763" lon="30.0282311440"><time>2026-04-25T10:41:55Z</time></trkpt><trkpt lat="59.0794944763" lon="30.0282311440"><time>2026-04-25T10:41:58Z</time></trkpt><trkpt lat="59.0794944763" lon="30.0282311440"><time>2026-04-25T10:42:00Z</time></trkpt><trkpt lat="59.0794944763" lon="30.0282311440"><time>2026-04-25T10:42:03Z</time></trkpt><trkpt lat="59.0794944763" lon="30.0282311440"><time>2026-04-25T10:42:05Z</time></trkpt><trkpt lat="59.0794944763" lon="30.0282311440"><time>2026-04-25T10:42:08Z</time></trkpt><trkpt lat="59.0794944763" lon="30.0282311440"><time>2026-04-25T10:42:10Z</time></trkpt><trkpt lat="59.0794944763" lon="30.0282311440"><time>2026-04-25T10:42:13Z</time></trkpt><trkpt lat="59.0794944763" lon="30.0282311440"><time>2026-04-25T10:42:15Z</time></trkpt><trkpt lat="59.0794944763" lon="30.0282311440"><time>2026-04-25T10:42:18Z</time></trkpt><trkpt lat="59.0794944763" lon="30.0282311440"><time>2026-04-25T10:42:20Z</time></trkpt><trkpt lat="59.0794944763" lon="30.0282311440"><time>2026-04-25T10:42:23Z</time></trkpt><trkpt lat="59.0794944763" lon="30.0282311440"><time>2026-04-25T10:42:25Z</time></trkpt><trkpt lat="59.0794944763" lon="30.0282311440"><time>2026-04-25T10:42:28Z</time></trkpt><trkpt lat="59.0794944763" lon="30.0282311440"><time>2026-04-25T10:42:30Z</time></trkpt><trkpt lat="59.0794944763" lon="30.0282311440"><time>2026-04-25T10:42:33Z</time></trkpt><trkpt lat="59.0794944763" lon="30.0282311440"><time>2026-04-25T10:42:35Z</time></trkpt><trkpt lat="59.0794944763" lon="30.0282311440"><time>2026-04-25T10:42:38Z</time></trkpt><trkpt lat="59.0794944763" lon="30.0282311440"><time>2026-04-25T10:42:40Z</time></trkpt><trkpt lat="59.0794944763" lon="30.0282311440"><time>2026-04-25T10:42:43Z</time></trkpt><trkpt lat="59.0794944763" lon="30.0282311440"><time>2026-04-25T10:42:45Z</time></trkpt><trkpt lat="59.0794944763" lon="30.0282311440"><time>2026-04-25T10:42:48Z</time></trkpt><trkpt lat="59.0794944763" lon="30.0282311440"><time>2026-04-25T10:42:50Z</time></trkpt><trkpt lat="59.0794944763" lon="30.0282311440"><time>2026-04-25T10:42:53Z</time></trkpt><trkpt lat="59.0794944763" lon="30.0282311440"><time>2026-04-25T10:42:55Z</time></trkpt><trkpt lat="59.0794944763" lon="30.0282311440"><time>2026-04-25T10:42:58Z</time></trkpt><trkpt lat="59.0794944763" lon="30.0282311440"><time>2026-04-25T10:43:00Z</time></trkpt><trkpt lat="59.0794944763" lon="30.0282311440"><time>2026-04-25T10:43:03Z</time></trkpt><trkpt lat="59.0794944763" lon="30.0282311440"><time>2026-04-25T10:43:05Z</time></trkpt><trkpt lat="59.0794944763" lon="30.0282311440"><time>2026-04-25T10:43:08Z</time></trkpt><trkpt lat="59.0794944763" lon="30.0282311440"><time>2026-04-25T10:43:10Z</time></trkpt><trkpt lat="59.0794944763" lon="30.0282311440"><time>2026-04-25T10:43:13Z</time></trkpt><trkpt lat="59.0794944763" lon="30.0282311440"><time>2026-04-25T10:43:15Z</time></trkpt><trkpt lat="59.0794944763" lon="30.0282311440"><time>2026-04-25T10:43:18Z</time></trkpt><trkpt lat="59.0794944763" lon="30.0282311440"><time>2026-04-25T10:43:20Z</time></trkpt><trkpt lat="59.0794944763" lon="30.0282311440"><time>2026-04-25T10:43:23Z</time></trkpt><trkpt lat="59.0794944763" lon="30.0282311440"><time>2026-04-25T10:43:25Z</time></trkpt><trkpt lat="59.0794944763" lon="30.0282311440"><time>2026-04-25T10:43:28Z</time></trkpt><trkpt lat="59.0794944763" lon="30.0282311440"><time>2026-04-25T10:43:30Z</time></trkpt><trkpt lat="59.0794944763" lon="30.0282311440"><time>2026-04-25T10:43:33Z</time></trkpt><trkpt lat="59.0794944763" lon="30.0282311440"><time>2026-04-25T10:43:35Z</time></trkpt><trkpt lat="59.0794944763" lon="30.0282311440"><time>2026-04-25T10:43:38Z</time></trkpt><trkpt lat="59.0794944763" lon="30.0282311440"><time>2026-04-25T10:43:40Z</time></trkpt><trkpt lat="59.0794730186" lon="30.0282526016"><time>2026-04-25T10:43:43Z</time></trkpt><trkpt lat="59.0794515610" lon="30.0283384323"><time>2026-04-25T10:43:45Z</time></trkpt><trkpt lat="59.0794301033" lon="30.0283813477"><time>2026-04-25T10:43:48Z</time></trkpt><trkpt lat="59.0793871880" lon="30.0284242630"><time>2026-04-25T10:43:50Z</time></trkpt><trkpt lat="59.0793657303" lon="30.0284457207"><time>2026-04-25T10:43:53Z</time></trkpt><trkpt lat="59.0793442726" lon="30.0284457207"><time>2026-04-25T10:43:55Z</time></trkpt><trkpt lat="59.0793442726" lon="30.0284886360"><time>2026-04-25T10:43:58Z</time></trkpt><trkpt lat="59.0793442726" lon="30.0284886360"><time>2026-04-25T10:44:00Z</time></trkpt><trkpt lat="59.0793871880" lon="30.0285315514"><time>2026-04-25T10:44:03Z</time></trkpt><trkpt lat="59.0793871880" lon="30.0285530090"><time>2026-04-25T10:44:05Z</time></trkpt><trkpt lat="59.0794086456" lon="30.0285744667"><time>2026-04-25T10:44:08Z</time></trkpt><trkpt lat="59.0793871880" lon="30.0285959244"><time>2026-04-25T10:44:10Z</time></trkpt><trkpt lat="59.0793657303" lon="30.0286173820"><time>2026-04-25T10:44:13Z</time></trkpt><trkpt lat="59.0793657303" lon="30.0286602974"><time>2026-04-25T10:44:15Z</time></trkpt><trkpt lat="59.0793657303" lon="30.0287032127"><time>2026-04-25T10:44:18Z</time></trkpt><trkpt lat="59.0793657303" lon="30.0287032127"><time>2026-04-25T10:44:20Z</time></trkpt><trkpt lat="59.0793657303" lon="30.0287032127"><time>2026-04-25T10:44:23Z</time></trkpt><trkpt lat="59.0793657303" lon="30.0287032127"><time>2026-04-25T10:44:25Z</time></trkpt><trkpt lat="59.0793871880" lon="30.0287032127"><time>2026-04-25T10:44:28Z</time></trkpt><trkpt lat="59.0793871880" lon="30.0287032127"><time>2026-04-25T10:44:30Z</time></trkpt><trkpt lat="59.0793871880" lon="30.0287032127"><time>2026-04-25T10:44:33Z</time></trkpt><trkpt lat="59.0793871880" lon="30.0287032127"><time>2026-04-25T10:44:35Z</time></trkpt><trkpt lat="59.0793871880" lon="30.0287032127"><time>2026-04-25T10:44:38Z</time></trkpt><trkpt lat="59.0793871880" lon="30.0287032127"><time>2026-04-25T10:44:40Z</time></trkpt><trkpt lat="59.0793871880" lon="30.0287032127"><time>2026-04-25T10:44:43Z</time></trkpt><trkpt lat="59.0793871880" lon="30.0287032127"><time>2026-04-25T10:44:45Z</time></trkpt><trkpt lat="59.0793657303" lon="30.0287032127"><time>2026-04-25T10:44:48Z</time></trkpt><trkpt lat="59.0793657303" lon="30.0287032127"><time>2026-04-25T10:44:50Z</time></trkpt><trkpt lat="59.0793657303" lon="30.0287032127"><time>2026-04-25T10:44:53Z</time></trkpt><trkpt lat="59.0793657303" lon="30.0287032127"><time>2026-04-25T10:44:55Z</time></trkpt><trkpt lat="59.0793657303" lon="30.0287032127"><time>2026-04-25T10:44:58Z</time></trkpt><trkpt lat="59.0793657303" lon="30.0287032127"><time>2026-04-25T10:45:00Z</time></trkpt><trkpt lat="59.0793657303" lon="30.0287032127"><time>2026-04-25T10:45:03Z</time></trkpt><trkpt lat="59.0793657303" lon="30.0287032127"><time>2026-04-25T10:45:05Z</time></trkpt><trkpt lat="59.0793657303" lon="30.0287032127"><time>2026-04-25T10:45:08Z</time></trkpt><trkpt lat="59.0793657303" lon="30.0287032127"><time>2026-04-25T10:45:10Z</time></trkpt><trkpt lat="59.0793657303" lon="30.0287032127"><time>2026-04-25T10:45:13Z</time></trkpt><trkpt lat="59.0793657303" lon="30.0287032127"><time>2026-04-25T10:45:15Z</time></trkpt><trkpt lat="59.0793657303" lon="30.0287032127"><time>2026-04-25T10:45:18Z</time></trkpt><trkpt lat="59.0793657303" lon="30.0287032127"><time>2026-04-25T10:45:20Z</time></trkpt><trkpt lat="59.0793657303" lon="30.0287246704"><time>2026-04-25T10:45:23Z</time></trkpt><trkpt lat="59.0793871880" lon="30.0287675858"><time>2026-04-25T10:45:25Z</time></trkpt><trkpt lat="59.0793871880" lon="30.0287890434"><time>2026-04-25T10:45:28Z</time></trkpt><trkpt lat="59.0793871880" lon="30.0287890434"><time>2026-04-25T10:45:30Z</time></trkpt><trkpt lat="59.0793871880" lon="30.0288105011"><time>2026-04-25T10:45:33Z</time></trkpt><trkpt lat="59.0793657303" lon="30.0288105011"><time>2026-04-25T10:45:35Z</time></trkpt><trkpt lat="59.0793442726" lon="30.0288534164"><time>2026-04-25T10:45:38Z</time></trkpt><trkpt lat="59.0793228149" lon="30.0288963318"><time>2026-04-25T10:45:40Z</time></trkpt><trkpt lat="59.0793013573" lon="30.0289392471"><time>2026-04-25T10:45:43Z</time></trkpt><trkpt lat="59.0792798996" lon="30.0289392471"><time>2026-04-25T10:45:45Z</time></trkpt><trkpt lat="59.0792798996" lon="30.0289607048"><time>2026-04-25T10:45:48Z</time></trkpt><trkpt lat="59.0792584419" lon="30.0290036201"><time>2026-04-25T10:45:50Z</time></trkpt><trkpt lat="59.0792584419" lon="30.0290036201"><time>2026-04-25T10:45:53Z</time></trkpt><trkpt lat="59.0792369843" lon="30.0290250778"><time>2026-04-25T10:45:55Z</time></trkpt><trkpt lat="59.0792155266" lon="30.0290250778"><time>2026-04-25T10:45:58Z</time></trkpt><trkpt lat="59.0791940689" lon="30.0290465355"><time>2026-04-25T10:46:00Z</time></trkpt><trkpt lat="59.0791726112" lon="30.0291109085"><time>2026-04-25T10:46:03Z</time></trkpt><trkpt lat="59.0791511536" lon="30.0291752815"><time>2026-04-25T10:46:05Z</time></trkpt><trkpt lat="59.0791511536" lon="30.0291967392"><time>2026-04-25T10:46:08Z</time></trkpt><trkpt lat="59.0791296959" lon="30.0292396545"><time>2026-04-25T10:46:10Z</time></trkpt><trkpt lat="59.0791296959" lon="30.0292611122"><time>2026-04-25T10:46:13Z</time></trkpt><trkpt lat="59.0791082382" lon="30.0292611122"><time>2026-04-25T10:46:15Z</time></trkpt><trkpt lat="59.0790867805" lon="30.0292825699"><time>2026-04-25T10:46:18Z</time></trkpt><trkpt lat="59.0790867805" lon="30.0292611122"><time>2026-04-25T10:46:20Z</time></trkpt><trkpt lat="59.0790653229" lon="30.0292611122"><time>2026-04-25T10:46:23Z</time></trkpt><trkpt lat="59.0790653229" lon="30.0293040276"><time>2026-04-25T10:46:25Z</time></trkpt><trkpt lat="59.0790653229" lon="30.0293254852"><time>2026-04-25T10:46:28Z</time></trkpt><trkpt lat="59.0790438652" lon="30.0293469429"><time>2026-04-25T10:46:30Z</time></trkpt><trkpt lat="59.0790438652" lon="30.0293469429"><time>2026-04-25T10:46:33Z</time></trkpt><trkpt lat="59.0790438652" lon="30.0293684006"><time>2026-04-25T10:46:35Z</time></trkpt><trkpt lat="59.0790438652" lon="30.0293898582"><time>2026-04-25T10:46:38Z</time></trkpt><trkpt lat="59.0790438652" lon="30.0293898582"><time>2026-04-25T10:46:40Z</time></trkpt><trkpt lat="59.0790438652" lon="30.0293898582"><time>2026-04-25T10:46:43Z</time></trkpt><trkpt lat="59.0790224075" lon="30.0293684006"><time>2026-04-25T10:46:45Z</time></trkpt><trkpt lat="59.0790009499" lon="30.0293898582"><time>2026-04-25T10:46:48Z</time></trkpt><trkpt lat="59.0789794922" lon="30.0294542313"><time>2026-04-25T10:46:50Z</time></trkpt><trkpt lat="59.0789580345" lon="30.0294756889"><time>2026-04-25T10:46:53Z</time></trkpt><trkpt lat="59.0789580345" lon="30.0294971466"><time>2026-04-25T10:46:55Z</time></trkpt><trkpt lat="59.0789794922" lon="30.0294971466"><time>2026-04-25T10:46:58Z</time></trkpt><trkpt lat="59.0789794922" lon="30.0295186043"><time>2026-04-25T10:47:00Z</time></trkpt><trkpt lat="59.0789580345" lon="30.0295615196"><time>2026-04-25T10:47:03Z</time></trkpt><trkpt lat="59.0789580345" lon="30.0296044350"><time>2026-04-25T10:47:05Z</time></trkpt><trkpt lat="59.0789365768" lon="30.0296258926"><time>2026-04-25T10:47:08Z</time></trkpt><trkpt lat="59.0789580345" lon="30.0296473503"><time>2026-04-25T10:47:10Z</time></trkpt><trkpt lat="59.0789580345" lon="30.0296473503"><time>2026-04-25T10:47:13Z</time></trkpt><trkpt lat="59.0789580345" lon="30.0296688080"><time>2026-04-25T10:47:15Z</time></trkpt><trkpt lat="59.0789580345" lon="30.0296902657"><time>2026-04-25T10:47:18Z</time></trkpt><trkpt lat="59.0789580345" lon="30.0297331810"><time>2026-04-25T10:47:20Z</time></trkpt><trkpt lat="59.0789365768" lon="30.0297975540"><time>2026-04-25T10:47:23Z</time></trkpt><trkpt lat="59.0789151192" lon="30.0298404694"><time>2026-04-25T10:47:25Z</time></trkpt><trkpt lat="59.0788936615" lon="30.0298619270"><time>2026-04-25T10:47:28Z</time></trkpt><trkpt lat="59.0788936615" lon="30.0298404694"><time>2026-04-25T10:47:30Z</time></trkpt><trkpt lat="59.0788936615" lon="30.0297975540"><time>2026-04-25T10:47:33Z</time></trkpt><trkpt lat="59.0788936615" lon="30.0297760963"><time>2026-04-25T10:47:35Z</time></trkpt><trkpt lat="59.0788722038" lon="30.0297760963"><time>2026-04-25T10:47:38Z</time></trkpt><trkpt lat="59.0788722038" lon="30.0297975540"><time>2026-04-25T10:47:40Z</time></trkpt><trkpt lat="59.0788507462" lon="30.0298190117"><time>2026-04-25T10:47:43Z</time></trkpt><trkpt lat="59.0788507462" lon="30.0298619270"><time>2026-04-25T10:47:45Z</time></trkpt><trkpt lat="59.0788507462" lon="30.0298833847"><time>2026-04-25T10:47:48Z</time></trkpt><trkpt lat="59.0788507462" lon="30.0299048424"><time>2026-04-25T10:47:50Z</time></trkpt><trkpt lat="59.0788292885" lon="30.0299263000"><time>2026-04-25T10:47:53Z</time></trkpt><trkpt lat="59.0788078308" lon="30.0299692154"><time>2026-04-25T10:47:55Z</time></trkpt><trkpt lat="59.0787863731" lon="30.0300335884"><time>2026-04-25T10:47:58Z</time></trkpt><trkpt lat="59.0787649155" lon="30.0300335884"><time>2026-04-25T10:48:00Z</time></trkpt><trkpt lat="59.0787649155" lon="30.0300550461"><time>2026-04-25T10:48:03Z</time></trkpt><trkpt lat="59.0787649155" lon="30.0301408768"><time>2026-04-25T10:48:05Z</time></trkpt><trkpt lat="59.0787649155" lon="30.0302052498"><time>2026-04-25T10:48:08Z</time></trkpt><trkpt lat="59.0787863731" lon="30.0303125381"><time>2026-04-25T10:48:10Z</time></trkpt><trkpt lat="59.0787863731" lon="30.0303769112"><time>2026-04-25T10:48:13Z</time></trkpt><trkpt lat="59.0788078308" lon="30.0304627419"><time>2026-04-25T10:48:15Z</time></trkpt><trkpt lat="59.0788078308" lon="30.0305485725"><time>2026-04-25T10:48:18Z</time></trkpt><trkpt lat="59.0788507462" lon="30.0306129456"><time>2026-04-25T10:48:20Z</time></trkpt><trkpt lat="59.0788722038" lon="30.0306558609"><time>2026-04-25T10:48:23Z</time></trkpt><trkpt lat="59.0788936615" lon="30.0306773186"><time>2026-04-25T10:48:25Z</time></trkpt><trkpt lat="59.0788722038" lon="30.0306558609"><time>2026-04-25T10:48:28Z</time></trkpt><trkpt lat="59.0788507462" lon="30.0305914879"><time>2026-04-25T10:48:30Z</time></trkpt><trkpt lat="59.0788078308" lon="30.0305056572"><time>2026-04-25T10:48:33Z</time></trkpt><trkpt lat="59.0788078308" lon="30.0303983688"><time>2026-04-25T10:48:35Z</time></trkpt><trkpt lat="59.0787649155" lon="30.0302696228"><time>2026-04-25T10:48:38Z</time></trkpt><trkpt lat="59.0787434578" lon="30.0301408768"><time>2026-04-25T10:48:40Z</time></trkpt><trkpt lat="59.0787005424" lon="30.0301194191"><time>2026-04-25T10:48:43Z</time></trkpt><trkpt lat="59.0786576271" lon="30.0301194191"><time>2026-04-25T10:48:45Z</time></trkpt><trkpt lat="59.0786147118" lon="30.0301623344"><time>2026-04-25T10:48:48Z</time></trkpt><trkpt lat="59.0786361694" lon="30.0302267075"><time>2026-04-25T10:48:50Z</time></trkpt><trkpt lat="59.0786361694" lon="30.0302696228"><time>2026-04-25T10:48:53Z</time></trkpt><trkpt lat="59.0786361694" lon="30.0303125381"><time>2026-04-25T10:48:55Z</time></trkpt><trkpt lat="59.0786361694" lon="30.0303769112"><time>2026-04-25T10:48:58Z</time></trkpt><trkpt lat="59.0786576271" lon="30.0304412842"><time>2026-04-25T10:49:00Z</time></trkpt><trkpt lat="59.0786576271" lon="30.0304412842"><time>2026-04-25T10:49:03Z</time></trkpt><trkpt lat="59.0786361694" lon="30.0304841995"><time>2026-04-25T10:49:05Z</time></trkpt><trkpt lat="59.0786361694" lon="30.0305485725"><time>2026-04-25T10:49:08Z</time></trkpt><trkpt lat="59.0786147118" lon="30.0305914879"><time>2026-04-25T10:49:10Z</time></trkpt><trkpt lat="59.0785932541" lon="30.0306344032"><time>2026-04-25T10:49:13Z</time></trkpt><trkpt lat="59.0785717964" lon="30.0306129456"><time>2026-04-25T10:49:15Z</time></trkpt><trkpt lat="59.0785288811" lon="30.0305700302"><time>2026-04-25T10:49:18Z</time></trkpt><trkpt lat="59.0784859657" lon="30.0306129456"><time>2026-04-25T10:49:20Z</time></trkpt><trkpt lat="59.0784645081" lon="30.0305914879"><time>2026-04-25T10:49:23Z</time></trkpt><trkpt lat="59.0784430504" lon="30.0306129456"><time>2026-04-25T10:49:25Z</time></trkpt><trkpt lat="59.0784215927" lon="30.0306773186"><time>2026-04-25T10:49:28Z</time></trkpt><trkpt lat="59.0784001350" lon="30.0306558609"><time>2026-04-25T10:49:30Z</time></trkpt><trkpt lat="59.0783786774" lon="30.0306987762"><time>2026-04-25T10:49:33Z</time></trkpt><trkpt lat="59.0784001350" lon="30.0307416916"><time>2026-04-25T10:49:35Z</time></trkpt><trkpt lat="59.0784215927" lon="30.0307416916"><time>2026-04-25T10:49:38Z</time></trkpt><trkpt lat="59.0784645081" lon="30.0307202339"><time>2026-04-25T10:49:40Z</time></trkpt><trkpt lat="59.0785074234" lon="30.0307202339"><time>2026-04-25T10:49:43Z</time></trkpt><trkpt lat="59.0785288811" lon="30.0307416916"><time>2026-04-25T10:49:45Z</time></trkpt><trkpt lat="59.0785288811" lon="30.0307846069"><time>2026-04-25T10:49:48Z</time></trkpt><trkpt lat="59.0785288811" lon="30.0308489799"><time>2026-04-25T10:49:50Z</time></trkpt><trkpt lat="59.0785288811" lon="30.0309133530"><time>2026-04-25T10:49:53Z</time></trkpt><trkpt lat="59.0785288811" lon="30.0309562683"><time>2026-04-25T10:49:55Z</time></trkpt><trkpt lat="59.0785288811" lon="30.0310206413"><time>2026-04-25T10:49:58Z</time></trkpt><trkpt lat="59.0785288811" lon="30.0310206413"><time>2026-04-25T10:50:00Z</time></trkpt><trkpt lat="59.0785288811" lon="30.0310206413"><time>2026-04-25T10:50:03Z</time></trkpt><trkpt lat="59.0785288811" lon="30.0310206413"><time>2026-04-25T10:50:05Z</time></trkpt><trkpt lat="59.0785288811" lon="30.0310206413"><time>2026-04-25T10:50:08Z</time></trkpt><trkpt lat="59.0785503387" lon="30.0309777260"><time>2026-04-25T10:50:10Z</time></trkpt><trkpt lat="59.0785503387" lon="30.0309562683"><time>2026-04-25T10:50:13Z</time></trkpt><trkpt lat="59.0785503387" lon="30.0309562683"><time>2026-04-25T10:50:15Z</time></trkpt><trkpt lat="59.0785503387" lon="30.0309562683"><time>2026-04-25T10:50:18Z</time></trkpt><trkpt lat="59.0785503387" lon="30.0309562683"><time>2026-04-25T10:50:20Z</time></trkpt><trkpt lat="59.0785503387" lon="30.0309562683"><time>2026-04-25T10:50:23Z</time></trkpt><trkpt lat="59.0785503387" lon="30.0309562683"><time>2026-04-25T10:50:25Z</time></trkpt><trkpt lat="59.0785503387" lon="30.0309562683"><time>2026-04-25T10:50:28Z</time></trkpt><trkpt lat="59.0785503387" lon="30.0309562683"><time>2026-04-25T10:50:30Z</time></trkpt><trkpt lat="59.0785503387" lon="30.0309562683"><time>2026-04-25T10:50:33Z</time></trkpt><trkpt lat="59.0785503387" lon="30.0309562683"><time>2026-04-25T10:50:35Z</time></trkpt><trkpt lat="59.0785503387" lon="30.0309562683"><time>2026-04-25T10:50:38Z</time></trkpt><trkpt lat="59.0785503387" lon="30.0309562683"><time>2026-04-25T10:50:40Z</time></trkpt><trkpt lat="59.0785503387" lon="30.0309562683"><time>2026-04-25T10:50:43Z</time></trkpt><trkpt lat="59.0785503387" lon="30.0309562683"><time>2026-04-25T10:50:45Z</time></trkpt><trkpt lat="59.0785503387" lon="30.0309348106"><time>2026-04-25T10:50:48Z</time></trkpt><trkpt lat="59.0785503387" lon="30.0309133530"><time>2026-04-25T10:50:50Z</time></trkpt><trkpt lat="59.0785503387" lon="30.0309133530"><time>2026-04-25T10:50:53Z</time></trkpt><trkpt lat="59.0785503387" lon="30.0309133530"><time>2026-04-25T10:50:55Z</time></trkpt><trkpt lat="59.0785503387" lon="30.0309133530"><time>2026-04-25T10:50:58Z</time></trkpt><trkpt lat="59.0785503387" lon="30.0309133530"><time>2026-04-25T10:51:00Z</time></trkpt><trkpt lat="59.0785503387" lon="30.0309133530"><time>2026-04-25T10:51:03Z</time></trkpt><trkpt lat="59.0785503387" lon="30.0309133530"><time>2026-04-25T10:51:05Z</time></trkpt><trkpt lat="59.0785503387" lon="30.0309133530"><time>2026-04-25T10:51:08Z</time></trkpt><trkpt lat="59.0785503387" lon="30.0309133530"><time>2026-04-25T10:51:10Z</time></trkpt><trkpt lat="59.0785503387" lon="30.0309133530"><time>2026-04-25T10:51:13Z</time></trkpt><trkpt lat="59.0785503387" lon="30.0309133530"><time>2026-04-25T10:51:15Z</time></trkpt><trkpt lat="59.0785503387" lon="30.0309133530"><time>2026-04-25T10:51:18Z</time></trkpt><trkpt lat="59.0785503387" lon="30.0309133530"><time>2026-04-25T10:51:20Z</time></trkpt><trkpt lat="59.0785503387" lon="30.0309133530"><time>2026-04-25T10:51:23Z</time></trkpt><trkpt lat="59.0785503387" lon="30.0309133530"><time>2026-04-25T10:51:25Z</time></trkpt><trkpt lat="59.0785503387" lon="30.0309133530"><time>2026-04-25T10:51:28Z</time></trkpt><trkpt lat="59.0785503387" lon="30.0309133530"><time>2026-04-25T10:51:30Z</time></trkpt><trkpt lat="59.0785503387" lon="30.0309133530"><time>2026-04-25T10:51:33Z</time></trkpt><trkpt lat="59.0785503387" lon="30.0309133530"><time>2026-04-25T10:51:35Z</time></trkpt><trkpt lat="59.0785503387" lon="30.0309133530"><time>2026-04-25T10:51:38Z</time></trkpt><trkpt lat="59.0785503387" lon="30.0309133530"><time>2026-04-25T10:51:40Z</time></trkpt><trkpt lat="59.0785503387" lon="30.0309133530"><time>2026-04-25T10:51:43Z</time></trkpt><trkpt lat="59.0785503387" lon="30.0309133530"><time>2026-04-25T10:51:45Z</time></trkpt><trkpt lat="59.0785503387" lon="30.0309133530"><time>2026-04-25T10:51:48Z</time></trkpt><trkpt lat="59.0785503387" lon="30.0309133530"><time>2026-04-25T10:51:50Z</time></trkpt><trkpt lat="59.0785503387" lon="30.0309133530"><time>2026-04-25T10:51:53Z</time></trkpt><trkpt lat="59.0785503387" lon="30.0309133530"><time>2026-04-25T10:51:55Z</time></trkpt><trkpt lat="59.0785503387" lon="30.0309133530"><time>2026-04-25T10:51:58Z</time></trkpt><trkpt lat="59.0785503387" lon="30.0309133530"><time>2026-04-25T10:52:00Z</time></trkpt><trkpt lat="59.0785503387" lon="30.0309133530"><time>2026-04-25T10:52:03Z</time></trkpt><trkpt lat="59.0785503387" lon="30.0309133530"><time>2026-04-25T10:52:05Z</time></trkpt><trkpt lat="59.0785503387" lon="30.0309133530"><time>2026-04-25T10:52:08Z</time></trkpt><trkpt lat="59.0785503387" lon="30.0309133530"><time>2026-04-25T10:52:10Z</time></trkpt><trkpt lat="59.0785503387" lon="30.0309133530"><time>2026-04-25T10:52:13Z</time></trkpt><trkpt lat="59.0785503387" lon="30.0309133530"><time>2026-04-25T10:52:15Z</time></trkpt><trkpt lat="59.0785503387" lon="30.0309133530"><time>2026-04-25T10:52:18Z</time></trkpt><trkpt lat="59.0785503387" lon="30.0309133530"><time>2026-04-25T10:52:20Z</time></trkpt><trkpt lat="59.0785503387" lon="30.0309133530"><time>2026-04-25T10:52:23Z</time></trkpt><trkpt lat="59.0785503387" lon="30.0309133530"><time>2026-04-25T10:52:25Z</time></trkpt><trkpt lat="59.0785288811" lon="30.0308918953"><time>2026-04-25T10:52:28Z</time></trkpt><trkpt lat="59.0785288811" lon="30.0308704376"><time>2026-04-25T10:52:30Z</time></trkpt><trkpt lat="59.0785288811" lon="30.0308489799"><time>2026-04-25T10:52:33Z</time></trkpt><trkpt lat="59.0785288811" lon="30.0308489799"><time>2026-04-25T10:52:35Z</time></trkpt><trkpt lat="59.0785288811" lon="30.0308489799"><time>2026-04-25T10:52:38Z</time></trkpt><trkpt lat="59.0785288811" lon="30.0308489799"><time>2026-04-25T10:52:40Z</time></trkpt><trkpt lat="59.0785288811" lon="30.0308489799"><time>2026-04-25T10:52:43Z</time></trkpt><trkpt lat="59.0785288811" lon="30.0308275223"><time>2026-04-25T10:52:45Z</time></trkpt><trkpt lat="59.0785288811" lon="30.0308275223"><time>2026-04-25T10:52:48Z</time></trkpt><trkpt lat="59.0785288811" lon="30.0308489799"><time>2026-04-25T10:52:50Z</time></trkpt><trkpt lat="59.0785288811" lon="30.0308489799"><time>2026-04-25T10:52:53Z</time></trkpt><trkpt lat="59.0785288811" lon="30.0308489799"><time>2026-04-25T10:52:55Z</time></trkpt><trkpt lat="59.0785288811" lon="30.0308489799"><time>2026-04-25T10:52:58Z</time></trkpt><trkpt lat="59.0785288811" lon="30.0308489799"><time>2026-04-25T10:53:00Z</time></trkpt><trkpt lat="59.0785288811" lon="30.0308489799"><time>2026-04-25T10:53:03Z</time></trkpt><trkpt lat="59.0785288811" lon="30.0308275223"><time>2026-04-25T10:53:05Z</time></trkpt><trkpt lat="59.0785288811" lon="30.0308275223"><time>2026-04-25T10:53:08Z</time></trkpt><trkpt lat="59.0785288811" lon="30.0308275223"><time>2026-04-25T10:53:10Z</time></trkpt><trkpt lat="59.0785288811" lon="30.0308060646"><time>2026-04-25T10:53:13Z</time></trkpt><trkpt lat="59.0785288811" lon="30.0308060646"><time>2026-04-25T10:53:15Z</time></trkpt><trkpt lat="59.0785288811" lon="30.0308060646"><time>2026-04-25T10:53:18Z</time></trkpt><trkpt lat="59.0785288811" lon="30.0308060646"><time>2026-04-25T10:53:20Z</time></trkpt><trkpt lat="59.0785288811" lon="30.0308060646"><time>2026-04-25T10:53:23Z</time></trkpt><trkpt lat="59.0785288811" lon="30.0308060646"><time>2026-04-25T10:53:25Z</time></trkpt><trkpt lat="59.0785288811" lon="30.0308060646"><time>2026-04-25T10:53:28Z</time></trkpt><trkpt lat="59.0785288811" lon="30.0308060646"><time>2026-04-25T10:53:30Z</time></trkpt><trkpt lat="59.0785288811" lon="30.0308060646"><time>2026-04-25T10:53:33Z</time></trkpt><trkpt lat="59.0785288811" lon="30.0308060646"><time>2026-04-25T10:53:35Z</time></trkpt><trkpt lat="59.0785288811" lon="30.0308060646"><time>2026-04-25T10:53:38Z</time></trkpt><trkpt lat="59.0785288811" lon="30.0308060646"><time>2026-04-25T10:53:40Z</time></trkpt><trkpt lat="59.0785288811" lon="30.0308060646"><time>2026-04-25T10:53:43Z</time></trkpt><trkpt lat="59.0785288811" lon="30.0308060646"><time>2026-04-25T10:53:45Z</time></trkpt><trkpt lat="59.0785288811" lon="30.0308060646"><time>2026-04-25T10:53:48Z</time></trkpt><trkpt lat="59.0785288811" lon="30.0308060646"><time>2026-04-25T10:53:50Z</time></trkpt><trkpt lat="59.0785288811" lon="30.0308060646"><time>2026-04-25T10:53:53Z</time></trkpt><trkpt lat="59.0785288811" lon="30.0308060646"><time>2026-04-25T10:53:55Z</time></trkpt><trkpt lat="59.0785288811" lon="30.0308060646"><time>2026-04-25T10:53:58Z</time></trkpt><trkpt lat="59.0785288811" lon="30.0308060646"><time>2026-04-25T10:54:00Z</time></trkpt><trkpt lat="59.0785288811" lon="30.0308060646"><time>2026-04-25T10:54:03Z</time></trkpt><trkpt lat="59.0785288811" lon="30.0308060646"><time>2026-04-25T10:54:05Z</time></trkpt><trkpt lat="59.0785288811" lon="30.0308060646"><time>2026-04-25T10:54:08Z</time></trkpt><trkpt lat="59.0785288811" lon="30.0308060646"><time>2026-04-25T10:54:10Z</time></trkpt><trkpt lat="59.0785288811" lon="30.0308060646"><time>2026-04-25T10:54:13Z</time></trkpt><trkpt lat="59.0785288811" lon="30.0308060646"><time>2026-04-25T10:54:15Z</time></trkpt><trkpt lat="59.0785288811" lon="30.0308060646"><time>2026-04-25T10:54:18Z</time></trkpt><trkpt lat="59.0785288811" lon="30.0308060646"><time>2026-04-25T10:54:20Z</time></trkpt><trkpt lat="59.0785288811" lon="30.0308060646"><time>2026-04-25T10:54:23Z</time></trkpt><trkpt lat="59.0785288811" lon="30.0308060646"><time>2026-04-25T10:54:25Z</time></trkpt><trkpt lat="59.0785288811" lon="30.0308060646"><time>2026-04-25T10:54:28Z</time></trkpt><trkpt lat="59.0785288811" lon="30.0308060646"><time>2026-04-25T10:54:30Z</time></trkpt><trkpt lat="59.0785288811" lon="30.0308060646"><time>2026-04-25T10:54:33Z</time></trkpt><trkpt lat="59.0785288811" lon="30.0308060646"><time>2026-04-25T10:54:35Z</time></trkpt><trkpt lat="59.0785288811" lon="30.0308060646"><time>2026-04-25T10:54:38Z</time></trkpt><trkpt lat="59.0785288811" lon="30.0308060646"><time>2026-04-25T10:54:40Z</time></trkpt><trkpt lat="59.0785288811" lon="30.0308060646"><time>2026-04-25T10:54:43Z</time></trkpt><trkpt lat="59.0785288811" lon="30.0308060646"><time>2026-04-25T10:54:45Z</time></trkpt><trkpt lat="59.0785288811" lon="30.0308060646"><time>2026-04-25T10:54:48Z</time></trkpt><trkpt lat="59.0785288811" lon="30.0308060646"><time>2026-04-25T10:54:50Z</time></trkpt><trkpt lat="59.0785288811" lon="30.0308060646"><time>2026-04-25T10:54:53Z</time></trkpt><trkpt lat="59.0785288811" lon="30.0308060646"><time>2026-04-25T10:54:55Z</time></trkpt><trkpt lat="59.0785288811" lon="30.0308060646"><time>2026-04-25T10:54:58Z</time></trkpt><trkpt lat="59.0785288811" lon="30.0308060646"><time>2026-04-25T10:55:00Z</time></trkpt><trkpt lat="59.0785288811" lon="30.0308060646"><time>2026-04-25T10:55:03Z</time></trkpt><trkpt lat="59.0785288811" lon="30.0308060646"><time>2026-04-25T10:55:05Z</time></trkpt><trkpt lat="59.0785288811" lon="30.0308060646"><time>2026-04-25T10:55:08Z</time></trkpt><trkpt lat="59.0785288811" lon="30.0308060646"><time>2026-04-25T10:55:10Z</time></trkpt><trkpt lat="59.0785288811" lon="30.0308060646"><time>2026-04-25T10:55:13Z</time></trkpt><trkpt lat="59.0785288811" lon="30.0308060646"><time>2026-04-25T10:55:15Z</time></trkpt><trkpt lat="59.0785288811" lon="30.0308060646"><time>2026-04-25T10:55:18Z</time></trkpt><trkpt lat="59.0785288811" lon="30.0308489799"><time>2026-04-25T10:55:20Z</time></trkpt><trkpt lat="59.0785288811" lon="30.0308918953"><time>2026-04-25T10:55:23Z</time></trkpt><trkpt lat="59.0784859657" lon="30.0309562683"><time>2026-04-25T10:55:25Z</time></trkpt><trkpt lat="59.0784859657" lon="30.0309777260"><time>2026-04-25T10:55:28Z</time></trkpt><trkpt lat="59.0784645081" lon="30.0310206413"><time>2026-04-25T10:55:30Z</time></trkpt><trkpt lat="59.0784645081" lon="30.0310420990"><time>2026-04-25T10:55:33Z</time></trkpt><trkpt lat="59.0784645081" lon="30.0310635567"><time>2026-04-25T10:55:35Z</time></trkpt><trkpt lat="59.0784430504" lon="30.0310850143"><time>2026-04-25T10:55:38Z</time></trkpt><trkpt lat="59.0784215927" lon="30.0311064720"><time>2026-04-25T10:55:40Z</time></trkpt><trkpt lat="59.0784215927" lon="30.0311493874"><time>2026-04-25T10:55:43Z</time></trkpt><trkpt lat="59.0784430504" lon="30.0311708450"><time>2026-04-25T10:55:45Z</time></trkpt><trkpt lat="59.0784215927" lon="30.0311708450"><time>2026-04-25T10:55:48Z</time></trkpt><trkpt lat="59.0784001350" lon="30.0312566757"><time>2026-04-25T10:55:50Z</time></trkpt><trkpt lat="59.0784001350" lon="30.0312781334"><time>2026-04-25T10:55:53Z</time></trkpt><trkpt lat="59.0783786774" lon="30.0313639641"><time>2026-04-25T10:55:55Z</time></trkpt><trkpt lat="59.0783572197" lon="30.0314068794"><time>2026-04-25T10:55:58Z</time></trkpt><trkpt lat="59.0783572197" lon="30.0314497948"><time>2026-04-25T10:56:00Z</time></trkpt><trkpt lat="59.0783572197" lon="30.0314927101"><time>2026-04-25T10:56:03Z</time></trkpt><trkpt lat="59.0783143044" lon="30.0314927101"><time>2026-04-25T10:56:05Z</time></trkpt><trkpt lat="59.0782713890" lon="30.0315356255"><time>2026-04-25T10:56:08Z</time></trkpt><trkpt lat="59.0782499313" lon="30.0315999985"><time>2026-04-25T10:56:10Z</time></trkpt><trkpt lat="59.0782284737" lon="30.0316429138"><time>2026-04-25T10:56:13Z</time></trkpt><trkpt lat="59.0782499313" lon="30.0316858292"><time>2026-04-25T10:56:15Z</time></trkpt><trkpt lat="59.0782284737" lon="30.0317287445"><time>2026-04-25T10:56:18Z</time></trkpt><trkpt lat="59.0782070160" lon="30.0317287445"><time>2026-04-25T10:56:20Z</time></trkpt><trkpt lat="59.0781855583" lon="30.0317072868"><time>2026-04-25T10:56:23Z</time></trkpt><trkpt lat="59.0781641006" lon="30.0316429138"><time>2026-04-25T10:56:25Z</time></trkpt><trkpt lat="59.0781641006" lon="30.0315999985"><time>2026-04-25T10:56:28Z</time></trkpt><trkpt lat="59.0781641006" lon="30.0315785408"><time>2026-04-25T10:56:30Z</time></trkpt><trkpt lat="59.0781641006" lon="30.0315999985"><time>2026-04-25T10:56:33Z</time></trkpt><trkpt lat="59.0781426430" lon="30.0316214561"><time>2026-04-25T10:56:35Z</time></trkpt><trkpt lat="59.0781211853" lon="30.0316214561"><time>2026-04-25T10:56:38Z</time></trkpt><trkpt lat="59.0780997276" lon="30.0315999985"><time>2026-04-25T10:56:40Z</time></trkpt><trkpt lat="59.0780568123" lon="30.0316214561"><time>2026-04-25T10:56:43Z</time></trkpt><trkpt lat="59.0780353546" lon="30.0316858292"><time>2026-04-25T10:56:45Z</time></trkpt><trkpt lat="59.0780353546" lon="30.0317287445"><time>2026-04-25T10:56:48Z</time></trkpt><trkpt lat="59.0780568123" lon="30.0317716599"><time>2026-04-25T10:56:50Z</time></trkpt><trkpt lat="59.0780568123" lon="30.0317716599"><time>2026-04-25T10:56:53Z</time></trkpt><trkpt lat="59.0780568123" lon="30.0317502022"><time>2026-04-25T10:56:55Z</time></trkpt><trkpt lat="59.0780568123" lon="30.0317287445"><time>2026-04-25T10:56:58Z</time></trkpt><trkpt lat="59.0780782700" lon="30.0317072868"><time>2026-04-25T10:57:00Z</time></trkpt><trkpt lat="59.0780782700" lon="30.0316858292"><time>2026-04-25T10:57:03Z</time></trkpt><trkpt lat="59.0780782700" lon="30.0316858292"><time>2026-04-25T10:57:05Z</time></trkpt><trkpt lat="59.0780997276" lon="30.0317072868"><time>2026-04-25T10:57:08Z</time></trkpt><trkpt lat="59.0780997276" lon="30.0317287445"><time>2026-04-25T10:57:10Z</time></trkpt><trkpt lat="59.0780997276" lon="30.0317287445"><time>2026-04-25T10:57:13Z</time></trkpt><trkpt lat="59.0780997276" lon="30.0317287445"><time>2026-04-25T10:57:15Z</time></trkpt><trkpt lat="59.0780997276" lon="30.0317287445"><time>2026-04-25T10:57:18Z</time></trkpt><trkpt lat="59.0780997276" lon="30.0317287445"><time>2026-04-25T10:57:20Z</time></trkpt><trkpt lat="59.0780997276" lon="30.0317287445"><time>2026-04-25T10:57:23Z</time></trkpt><trkpt lat="59.0780997276" lon="30.0317287445"><time>2026-04-25T10:57:25Z</time></trkpt><trkpt lat="59.0780997276" lon="30.0317287445"><time>2026-04-25T10:57:28Z</time></trkpt><trkpt lat="59.0780997276" lon="30.0317287445"><time>2026-04-25T10:57:30Z</time></trkpt><trkpt lat="59.0780997276" lon="30.0317287445"><time>2026-04-25T10:57:33Z</time></trkpt><trkpt lat="59.0780997276" lon="30.0317287445"><time>2026-04-25T10:57:35Z</time></trkpt><trkpt lat="59.0780997276" lon="30.0317502022"><time>2026-04-25T10:57:38Z</time></trkpt><trkpt lat="59.0780997276" lon="30.0317502022"><time>2026-04-25T10:57:40Z</time></trkpt><trkpt lat="59.0780997276" lon="30.0317502022"><time>2026-04-25T10:57:43Z</time></trkpt><trkpt lat="59.0780997276" lon="30.0317502022"><time>2026-04-25T10:57:45Z</time></trkpt><trkpt lat="59.0780997276" lon="30.0317502022"><time>2026-04-25T10:57:48Z</time></trkpt><trkpt lat="59.0780997276" lon="30.0317502022"><time>2026-04-25T10:57:50Z</time></trkpt><trkpt lat="59.0780997276" lon="30.0317502022"><time>2026-04-25T10:57:53Z</time></trkpt><trkpt lat="59.0780997276" lon="30.0317502022"><time>2026-04-25T10:57:55Z</time></trkpt><trkpt lat="59.0780997276" lon="30.0317502022"><time>2026-04-25T10:57:58Z</time></trkpt><trkpt lat="59.0780997276" lon="30.0317502022"><time>2026-04-25T10:58:00Z</time></trkpt><trkpt lat="59.0780353546" lon="30.0317716599"><time>2026-04-25T10:58:03Z</time></trkpt><trkpt lat="59.0779924393" lon="30.0317716599"><time>2026-04-25T10:58:05Z</time></trkpt><trkpt lat="59.0779709816" lon="30.0318145752"><time>2026-04-25T10:58:08Z</time></trkpt><trkpt lat="59.0779495239" lon="30.0318574905"><time>2026-04-25T10:58:10Z</time></trkpt><trkpt lat="59.0779495239" lon="30.0318789482"><time>2026-04-25T10:58:13Z</time></trkpt><trkpt lat="59.0779280663" lon="30.0319647789"><time>2026-04-25T10:58:15Z</time></trkpt><trkpt lat="59.0779066086" lon="30.0320506096"><time>2026-04-25T10:58:18Z</time></trkpt><trkpt lat="59.0778851509" lon="30.0320935249"><time>2026-04-25T10:58:20Z</time></trkpt><trkpt lat="59.0778636932" lon="30.0320506096"><time>2026-04-25T10:58:23Z</time></trkpt><trkpt lat="59.0778636932" lon="30.0320076942"><time>2026-04-25T10:58:25Z</time></trkpt><trkpt lat="59.0778851509" lon="30.0319647789"><time>2026-04-25T10:58:28Z</time></trkpt><trkpt lat="59.0778851509" lon="30.0319433212"><time>2026-04-25T10:58:30Z</time></trkpt><trkpt lat="59.0778636932" lon="30.0320076942"><time>2026-04-25T10:58:33Z</time></trkpt><trkpt lat="59.0778636932" lon="30.0320291519"><time>2026-04-25T10:58:35Z</time></trkpt><trkpt lat="59.0778636932" lon="30.0320720673"><time>2026-04-25T10:58:38Z</time></trkpt><trkpt lat="59.0778207779" lon="30.0321149826"><time>2026-04-25T10:58:40Z</time></trkpt><trkpt lat="59.0778207779" lon="30.0321793556"><time>2026-04-25T10:58:43Z</time></trkpt><trkpt lat="59.0778422356" lon="30.0322437286"><time>2026-04-25T10:58:45Z</time></trkpt><trkpt lat="59.0778636932" lon="30.0322008133"><time>2026-04-25T10:58:48Z</time></trkpt><trkpt lat="59.0778422356" lon="30.0322222710"><time>2026-04-25T10:58:50Z</time></trkpt><trkpt lat="59.0778207779" lon="30.0322651863"><time>2026-04-25T10:58:53Z</time></trkpt><trkpt lat="59.0778207779" lon="30.0322866440"><time>2026-04-25T10:58:55Z</time></trkpt><trkpt lat="59.0778207779" lon="30.0323081017"><time>2026-04-25T10:58:58Z</time></trkpt><trkpt lat="59.0778207779" lon="30.0323510170"><time>2026-04-25T10:59:00Z</time></trkpt><trkpt lat="59.0777993202" lon="30.0323510170"><time>2026-04-25T10:59:03Z</time></trkpt><trkpt lat="59.0777993202" lon="30.0323939323"><time>2026-04-25T10:59:05Z</time></trkpt><trkpt lat="59.0777993202" lon="30.0324368477"><time>2026-04-25T10:59:08Z</time></trkpt><trkpt lat="59.0777778625" lon="30.0324153900"><time>2026-04-25T10:59:10Z</time></trkpt><trkpt lat="59.0777778625" lon="30.0324153900"><time>2026-04-25T10:59:13Z</time></trkpt><trkpt lat="59.0777778625" lon="30.0324153900"><time>2026-04-25T10:59:15Z</time></trkpt><trkpt lat="59.0777778625" lon="30.0324153900"><time>2026-04-25T10:59:18Z</time></trkpt><trkpt lat="59.0777564049" lon="30.0324153900"><time>2026-04-25T10:59:20Z</time></trkpt><trkpt lat="59.0777564049" lon="30.0324153900"><time>2026-04-25T10:59:23Z</time></trkpt><trkpt lat="59.0777564049" lon="30.0324153900"><time>2026-04-25T10:59:25Z</time></trkpt><trkpt lat="59.0777564049" lon="30.0324153900"><time>2026-04-25T10:59:28Z</time></trkpt><trkpt lat="59.0777564049" lon="30.0324153900"><time>2026-04-25T10:59:30Z</time></trkpt><trkpt lat="59.0777564049" lon="30.0324153900"><time>2026-04-25T10:59:33Z</time></trkpt><trkpt lat="59.0777349472" lon="30.0324583054"><time>2026-04-25T10:59:35Z</time></trkpt><trkpt lat="59.0777134895" lon="30.0324797630"><time>2026-04-25T10:59:38Z</time></trkpt><trkpt lat="59.0776920319" lon="30.0325226784"><time>2026-04-25T10:59:40Z</time></trkpt><trkpt lat="59.0776705742" lon="30.0325655937"><time>2026-04-25T10:59:43Z</time></trkpt><trkpt lat="59.0776491165" lon="30.0326085091"><time>2026-04-25T10:59:45Z</time></trkpt><trkpt lat="59.0776276588" lon="30.0326299667"><time>2026-04-25T10:59:48Z</time></trkpt><trkpt lat="59.0776276588" lon="30.0326514244"><time>2026-04-25T10:59:50Z</time></trkpt><trkpt lat="59.0776062012" lon="30.0326728821"><time>2026-04-25T10:59:53Z</time></trkpt><trkpt lat="59.0776062012" lon="30.0326943398"><time>2026-04-25T10:59:55Z</time></trkpt><trkpt lat="59.0775847435" lon="30.0327372551"><time>2026-04-25T10:59:58Z</time></trkpt><trkpt lat="59.0775632858" lon="30.0327587128"><time>2026-04-25T11:00:00Z</time></trkpt><trkpt lat="59.0775418282" lon="30.0327587128"><time>2026-04-25T11:00:03Z</time></trkpt><trkpt lat="59.0775418282" lon="30.0328016281"><time>2026-04-25T11:00:05Z</time></trkpt><trkpt lat="59.0775203705" lon="30.0328445435"><time>2026-04-25T11:00:08Z</time></trkpt><trkpt lat="59.0775203705" lon="30.0328660011"><time>2026-04-25T11:00:10Z</time></trkpt><trkpt lat="59.0774345398" lon="30.0330162048"><time>2026-04-25T11:00:18Z</time></trkpt><trkpt lat="59.0774345398" lon="30.0330162048"><time>2026-04-25T11:00:20Z</time></trkpt><trkpt lat="59.0774130821" lon="30.0330591202"><time>2026-04-25T11:00:23Z</time></trkpt><trkpt lat="59.0773916245" lon="30.0330805779"><time>2026-04-25T11:00:25Z</time></trkpt><trkpt lat="59.0773487091" lon="30.0330805779"><time>2026-04-25T11:00:28Z</time></trkpt><trkpt lat="59.0773272514" lon="30.0331234932"><time>2026-04-25T11:00:30Z</time></trkpt><trkpt lat="59.0773057938" lon="30.0331664085"><time>2026-04-25T11:00:33Z</time></trkpt><trkpt lat="59.0773057938" lon="30.0332093239"><time>2026-04-25T11:00:35Z</time></trkpt><trkpt lat="59.0773057938" lon="30.0332522392"><time>2026-04-25T11:00:38Z</time></trkpt><trkpt lat="59.0773057938" lon="30.0332951546"><time>2026-04-25T11:00:40Z</time></trkpt><trkpt lat="59.0773057938" lon="30.0333380699"><time>2026-04-25T11:00:43Z</time></trkpt><trkpt lat="59.0773057938" lon="30.0333809853"><time>2026-04-25T11:00:45Z</time></trkpt><trkpt lat="59.0773057938" lon="30.0334239006"><time>2026-04-25T11:00:48Z</time></trkpt><trkpt lat="59.0773057938" lon="30.0334024429"><time>2026-04-25T11:00:50Z</time></trkpt><trkpt lat="59.0773057938" lon="30.0334024429"><time>2026-04-25T11:00:53Z</time></trkpt><trkpt lat="59.0773057938" lon="30.0334024429"><time>2026-04-25T11:00:55Z</time></trkpt><trkpt lat="59.0773057938" lon="30.0334024429"><time>2026-04-25T11:00:58Z</time></trkpt><trkpt lat="59.0773057938" lon="30.0334024429"><time>2026-04-25T11:01:00Z</time></trkpt><trkpt lat="59.0772843361" lon="30.0333595276"><time>2026-04-25T11:01:03Z</time></trkpt><trkpt lat="59.0772628784" lon="30.0333595276"><time>2026-04-25T11:01:05Z</time></trkpt><trkpt lat="59.0772414207" lon="30.0333809853"><time>2026-04-25T11:01:08Z</time></trkpt><trkpt lat="59.0772414207" lon="30.0333809853"><time>2026-04-25T11:01:10Z</time></trkpt><trkpt lat="59.0772199631" lon="30.0334024429"><time>2026-04-25T11:01:13Z</time></trkpt><trkpt lat="59.0771985054" lon="30.0334239006"><time>2026-04-25T11:01:15Z</time></trkpt><trkpt lat="59.0771770477" lon="30.0334668159"><time>2026-04-25T11:01:18Z</time></trkpt><trkpt lat="59.0771770477" lon="30.0334882736"><time>2026-04-25T11:01:20Z</time></trkpt><trkpt lat="59.0771555901" lon="30.0335311890"><time>2026-04-25T11:01:23Z</time></trkpt><trkpt lat="59.0771341324" lon="30.0335526466"><time>2026-04-25T11:01:25Z</time></trkpt><trkpt lat="59.0771341324" lon="30.0335955620"><time>2026-04-25T11:01:28Z</time></trkpt><trkpt lat="59.0771126747" lon="30.0336384773"><time>2026-04-25T11:01:30Z</time></trkpt><trkpt lat="59.0771126747" lon="30.0336599350"><time>2026-04-25T11:01:33Z</time></trkpt><trkpt lat="59.0770912170" lon="30.0336813927"><time>2026-04-25T11:01:35Z</time></trkpt><trkpt lat="59.0770697594" lon="30.0337028503"><time>2026-04-25T11:01:38Z</time></trkpt><trkpt lat="59.0770697594" lon="30.0337243080"><time>2026-04-25T11:01:40Z</time></trkpt><trkpt lat="59.0770483017" lon="30.0337457657"><time>2026-04-25T11:01:43Z</time></trkpt><trkpt lat="59.0770268440" lon="30.0337886810"><time>2026-04-25T11:01:45Z</time></trkpt><trkpt lat="59.0770268440" lon="30.0338101387"><time>2026-04-25T11:01:48Z</time></trkpt><trkpt lat="59.0770053864" lon="30.0338530540"><time>2026-04-25T11:01:50Z</time></trkpt><trkpt lat="59.0770053864" lon="30.0338745117"><time>2026-04-25T11:01:53Z</time></trkpt><trkpt lat="59.0769839287" lon="30.0338530540"><time>2026-04-25T11:01:55Z</time></trkpt><trkpt lat="59.0769624710" lon="30.0338745117"><time>2026-04-25T11:01:58Z</time></trkpt><trkpt lat="59.0769410133" lon="30.0338745117"><time>2026-04-25T11:02:00Z</time></trkpt><trkpt lat="59.0769410133" lon="30.0338959694"><time>2026-04-25T11:02:03Z</time></trkpt><trkpt lat="59.0769410133" lon="30.0339388847"><time>2026-04-25T11:02:05Z</time></trkpt><trkpt lat="59.0769410133" lon="30.0339818001"><time>2026-04-25T11:02:08Z</time></trkpt><trkpt lat="59.0769195557" lon="30.0340032578"><time>2026-04-25T11:02:10Z</time></trkpt><trkpt lat="59.0768980980" lon="30.0340676308"><time>2026-04-25T11:02:13Z</time></trkpt><trkpt lat="59.0768551826" lon="30.0341105461"><time>2026-04-25T11:02:15Z</time></trkpt><trkpt lat="59.0768337250" lon="30.0341534615"><time>2026-04-25T11:02:18Z</time></trkpt><trkpt lat="59.0768122673" lon="30.0342392921"><time>2026-04-25T11:02:20Z</time></trkpt><trkpt lat="59.0768122673" lon="30.0342607498"><time>2026-04-25T11:02:23Z</time></trkpt><trkpt lat="59.0768122673" lon="30.0342392921"><time>2026-04-25T11:02:25Z</time></trkpt><trkpt lat="59.0768122673" lon="30.0342392921"><time>2026-04-25T11:02:28Z</time></trkpt><trkpt lat="59.0768337250" lon="30.0341749191"><time>2026-04-25T11:02:30Z</time></trkpt><trkpt lat="59.0768337250" lon="30.0341749191"><time>2026-04-25T11:02:33Z</time></trkpt><trkpt lat="59.0768337250" lon="30.0341749191"><time>2026-04-25T11:02:35Z</time></trkpt><trkpt lat="59.0768337250" lon="30.0341749191"><time>2026-04-25T11:02:38Z</time></trkpt><trkpt lat="59.0768337250" lon="30.0341749191"><time>2026-04-25T11:02:40Z</time></trkpt><trkpt lat="59.0768337250" lon="30.0341749191"><time>2026-04-25T11:02:43Z</time></trkpt><trkpt lat="59.0768337250" lon="30.0341749191"><time>2026-04-25T11:02:45Z</time></trkpt><trkpt lat="59.0768337250" lon="30.0341749191"><time>2026-04-25T11:02:48Z</time></trkpt><trkpt lat="59.0768337250" lon="30.0341749191"><time>2026-04-25T11:02:50Z</time></trkpt><trkpt lat="59.0768337250" lon="30.0341749191"><time>2026-04-25T11:02:53Z</time></trkpt><trkpt lat="59.0768337250" lon="30.0341749191"><time>2026-04-25T11:02:55Z</time></trkpt><trkpt lat="59.0768337250" lon="30.0341749191"><time>2026-04-25T11:02:58Z</time></trkpt><trkpt lat="59.0768337250" lon="30.0341749191"><time>2026-04-25T11:03:00Z</time></trkpt><trkpt lat="59.0768337250" lon="30.0341749191"><time>2026-04-25T11:03:03Z</time></trkpt><trkpt lat="59.0768337250" lon="30.0341749191"><time>2026-04-25T11:03:05Z</time></trkpt><trkpt lat="59.0768337250" lon="30.0341749191"><time>2026-04-25T11:03:08Z</time></trkpt><trkpt lat="59.0768337250" lon="30.0341749191"><time>2026-04-25T11:03:10Z</time></trkpt><trkpt lat="59.0768337250" lon="30.0341749191"><time>2026-04-25T11:03:13Z</time></trkpt><trkpt lat="59.0768337250" lon="30.0341749191"><time>2026-04-25T11:03:15Z</time></trkpt><trkpt lat="59.0768337250" lon="30.0341749191"><time>2026-04-25T11:03:18Z</time></trkpt><trkpt lat="59.0768337250" lon="30.0341749191"><time>2026-04-25T11:03:20Z</time></trkpt><trkpt lat="59.0768337250" lon="30.0341749191"><time>2026-04-25T11:03:23Z</time></trkpt><trkpt lat="59.0768337250" lon="30.0341749191"><time>2026-04-25T11:03:25Z</time></trkpt><trkpt lat="59.0768337250" lon="30.0341749191"><time>2026-04-25T11:03:28Z</time></trkpt><trkpt lat="59.0768337250" lon="30.0341749191"><time>2026-04-25T11:03:30Z</time></trkpt><trkpt lat="59.0768337250" lon="30.0341749191"><time>2026-04-25T11:03:33Z</time></trkpt><trkpt lat="59.0768337250" lon="30.0341749191"><time>2026-04-25T11:03:35Z</time></trkpt><trkpt lat="59.0768337250" lon="30.0341749191"><time>2026-04-25T11:03:38Z</time></trkpt><trkpt lat="59.0768337250" lon="30.0341749191"><time>2026-04-25T11:03:40Z</time></trkpt><trkpt lat="59.0768337250" lon="30.0341749191"><time>2026-04-25T11:03:43Z</time></trkpt><trkpt lat="59.0768337250" lon="30.0341749191"><time>2026-04-25T11:03:45Z</time></trkpt><trkpt lat="59.0768337250" lon="30.0341749191"><time>2026-04-25T11:03:48Z</time></trkpt><trkpt lat="59.0768337250" lon="30.0341749191"><time>2026-04-25T11:03:50Z</time></trkpt><trkpt lat="59.0768337250" lon="30.0341749191"><time>2026-04-25T11:03:53Z</time></trkpt><trkpt lat="59.0768337250" lon="30.0341749191"><time>2026-04-25T11:03:55Z</time></trkpt><trkpt lat="59.0768337250" lon="30.0341749191"><time>2026-04-25T11:03:58Z</time></trkpt><trkpt lat="59.0768337250" lon="30.0341749191"><time>2026-04-25T11:04:00Z</time></trkpt><trkpt lat="59.0768337250" lon="30.0341749191"><time>2026-04-25T11:04:03Z</time></trkpt><trkpt lat="59.0768337250" lon="30.0341749191"><time>2026-04-25T11:04:05Z</time></trkpt><trkpt lat="59.0768337250" lon="30.0341749191"><time>2026-04-25T11:04:08Z</time></trkpt><trkpt lat="59.0768337250" lon="30.0341749191"><time>2026-04-25T11:04:10Z</time></trkpt><trkpt lat="59.0768337250" lon="30.0341749191"><time>2026-04-25T11:04:13Z</time></trkpt><trkpt lat="59.0768337250" lon="30.0341749191"><time>2026-04-25T11:04:15Z</time></trkpt><trkpt lat="59.0768337250" lon="30.0341749191"><time>2026-04-25T11:04:18Z</time></trkpt><trkpt lat="59.0768337250" lon="30.0341749191"><time>2026-04-25T11:04:20Z</time></trkpt><trkpt lat="59.0768337250" lon="30.0341749191"><time>2026-04-25T11:04:23Z</time></trkpt><trkpt lat="59.0768337250" lon="30.0341749191"><time>2026-04-25T11:04:25Z</time></trkpt><trkpt lat="59.0768337250" lon="30.0341749191"><time>2026-04-25T11:04:28Z</time></trkpt><trkpt lat="59.0768337250" lon="30.0341749191"><time>2026-04-25T11:04:30Z</time></trkpt><trkpt lat="59.0768337250" lon="30.0341749191"><time>2026-04-25T11:04:33Z</time></trkpt><trkpt lat="59.0768337250" lon="30.0341749191"><time>2026-04-25T11:04:35Z</time></trkpt><trkpt lat="59.0768337250" lon="30.0341749191"><time>2026-04-25T11:04:38Z</time></trkpt><trkpt lat="59.0768337250" lon="30.0341749191"><time>2026-04-25T11:04:40Z</time></trkpt><trkpt lat="59.0768337250" lon="30.0341749191"><time>2026-04-25T11:04:43Z</time></trkpt><trkpt lat="59.0768337250" lon="30.0341749191"><time>2026-04-25T11:04:45Z</time></trkpt><trkpt lat="59.0768337250" lon="30.0341534615"><time>2026-04-25T11:04:48Z</time></trkpt><trkpt lat="59.0768551826" lon="30.0341320038"><time>2026-04-25T11:04:50Z</time></trkpt><trkpt lat="59.0768551826" lon="30.0341320038"><time>2026-04-25T11:04:53Z</time></trkpt><trkpt lat="59.0768551826" lon="30.0341320038"><time>2026-04-25T11:04:55Z</time></trkpt><trkpt lat="59.0768551826" lon="30.0341320038"><time>2026-04-25T11:04:58Z</time></trkpt><trkpt lat="59.0768551826" lon="30.0341320038"><time>2026-04-25T11:05:00Z</time></trkpt><trkpt lat="59.0768551826" lon="30.0341320038"><time>2026-04-25T11:05:03Z</time></trkpt><trkpt lat="59.0768551826" lon="30.0341320038"><time>2026-04-25T11:05:05Z</time></trkpt><trkpt lat="59.0768551826" lon="30.0341320038"><time>2026-04-25T11:05:08Z</time></trkpt><trkpt lat="59.0768551826" lon="30.0341320038"><time>2026-04-25T11:05:10Z</time></trkpt><trkpt lat="59.0768551826" lon="30.0341320038"><time>2026-04-25T11:05:13Z</time></trkpt><trkpt lat="59.0768551826" lon="30.0341320038"><time>2026-04-25T11:05:15Z</time></trkpt><trkpt lat="59.0768551826" lon="30.0341320038"><time>2026-04-25T11:05:18Z</time></trkpt><trkpt lat="59.0768551826" lon="30.0341320038"><time>2026-04-25T11:05:20Z</time></trkpt><trkpt lat="59.0768551826" lon="30.0341320038"><time>2026-04-25T11:05:23Z</time></trkpt><trkpt lat="59.0768551826" lon="30.0341320038"><time>2026-04-25T11:05:25Z</time></trkpt><trkpt lat="59.0768551826" lon="30.0341320038"><time>2026-04-25T11:05:28Z</time></trkpt><trkpt lat="59.0768551826" lon="30.0341320038"><time>2026-04-25T11:05:30Z</time></trkpt><trkpt lat="59.0768551826" lon="30.0341320038"><time>2026-04-25T11:05:33Z</time></trkpt><trkpt lat="59.0768551826" lon="30.0341320038"><time>2026-04-25T11:05:35Z</time></trkpt><trkpt lat="59.0768551826" lon="30.0341320038"><time>2026-04-25T11:05:38Z</time></trkpt><trkpt lat="59.0768551826" lon="30.0341320038"><time>2026-04-25T11:05:40Z</time></trkpt><trkpt lat="59.0768551826" lon="30.0341320038"><time>2026-04-25T11:05:43Z</time></trkpt><trkpt lat="59.0768551826" lon="30.0341320038"><time>2026-04-25T11:05:45Z</time></trkpt><trkpt lat="59.0768551826" lon="30.0341320038"><time>2026-04-25T11:05:48Z</time></trkpt><trkpt lat="59.0768551826" lon="30.0341320038"><time>2026-04-25T11:05:50Z</time></trkpt><trkpt lat="59.0768551826" lon="30.0341320038"><time>2026-04-25T11:05:53Z</time></trkpt><trkpt lat="59.0768551826" lon="30.0341320038"><time>2026-04-25T11:05:55Z</time></trkpt><trkpt lat="59.0768551826" lon="30.0341320038"><time>2026-04-25T11:05:58Z</time></trkpt><trkpt lat="59.0768551826" lon="30.0341320038"><time>2026-04-25T11:06:00Z</time></trkpt><trkpt lat="59.0768551826" lon="30.0341320038"><time>2026-04-25T11:06:03Z</time></trkpt><trkpt lat="59.0768551826" lon="30.0341320038"><time>2026-04-25T11:06:05Z</time></trkpt><trkpt lat="59.0768551826" lon="30.0341320038"><time>2026-04-25T11:06:08Z</time></trkpt><trkpt lat="59.0768551826" lon="30.0341320038"><time>2026-04-25T11:06:10Z</time></trkpt><trkpt lat="59.0768551826" lon="30.0341320038"><time>2026-04-25T11:06:13Z</time></trkpt><trkpt lat="59.0768551826" lon="30.0341320038"><time>2026-04-25T11:06:15Z</time></trkpt><trkpt lat="59.0768551826" lon="30.0341320038"><time>2026-04-25T11:06:18Z</time></trkpt><trkpt lat="59.0768551826" lon="30.0341320038"><time>2026-04-25T11:06:20Z</time></trkpt><trkpt lat="59.0768551826" lon="30.0341320038"><time>2026-04-25T11:06:23Z</time></trkpt><trkpt lat="59.0768551826" lon="30.0341320038"><time>2026-04-25T11:06:25Z</time></trkpt><trkpt lat="59.0768551826" lon="30.0341320038"><time>2026-04-25T11:06:28Z</time></trkpt><trkpt lat="59.0768551826" lon="30.0341320038"><time>2026-04-25T11:06:30Z</time></trkpt><trkpt lat="59.0768551826" lon="30.0341320038"><time>2026-04-25T11:06:33Z</time></trkpt><trkpt lat="59.0768551826" lon="30.0341320038"><time>2026-04-25T11:06:35Z</time></trkpt><trkpt lat="59.0768551826" lon="30.0341320038"><time>2026-04-25T11:06:38Z</time></trkpt><trkpt lat="59.0768551826" lon="30.0341320038"><time>2026-04-25T11:06:40Z</time></trkpt><trkpt lat="59.0768551826" lon="30.0341320038"><time>2026-04-25T11:06:43Z</time></trkpt><trkpt lat="59.0768551826" lon="30.0341320038"><time>2026-04-25T11:06:45Z</time></trkpt><trkpt lat="59.0768551826" lon="30.0341320038"><time>2026-04-25T11:06:48Z</time></trkpt><trkpt lat="59.0768551826" lon="30.0341320038"><time>2026-04-25T11:06:50Z</time></trkpt><trkpt lat="59.0768551826" lon="30.0341320038"><time>2026-04-25T11:06:53Z</time></trkpt><trkpt lat="59.0768551826" lon="30.0341320038"><time>2026-04-25T11:06:55Z</time></trkpt><trkpt lat="59.0768551826" lon="30.0341320038"><time>2026-04-25T11:06:58Z</time></trkpt><trkpt lat="59.0768551826" lon="30.0341320038"><time>2026-04-25T11:07:00Z</time></trkpt><trkpt lat="59.0768551826" lon="30.0341320038"><time>2026-04-25T11:07:03Z</time></trkpt><trkpt lat="59.0768551826" lon="30.0341320038"><time>2026-04-25T11:07:05Z</time></trkpt><trkpt lat="59.0768551826" lon="30.0341320038"><time>2026-04-25T11:07:08Z</time></trkpt><trkpt lat="59.0768551826" lon="30.0341320038"><time>2026-04-25T11:07:10Z</time></trkpt><trkpt lat="59.0768551826" lon="30.0341320038"><time>2026-04-25T11:07:13Z</time></trkpt><trkpt lat="59.0768551826" lon="30.0341320038"><time>2026-04-25T11:07:15Z</time></trkpt><trkpt lat="59.0768551826" lon="30.0341320038"><time>2026-04-25T11:07:18Z</time></trkpt><trkpt lat="59.0768551826" lon="30.0341320038"><time>2026-04-25T11:07:20Z</time></trkpt><trkpt lat="59.0768551826" lon="30.0341320038"><time>2026-04-25T11:07:23Z</time></trkpt><trkpt lat="59.0768551826" lon="30.0341320038"><time>2026-04-25T11:07:25Z</time></trkpt><trkpt lat="59.0768551826" lon="30.0341320038"><time>2026-04-25T11:07:28Z</time></trkpt><trkpt lat="59.0768551826" lon="30.0341320038"><time>2026-04-25T11:07:30Z</time></trkpt><trkpt lat="59.0768551826" lon="30.0341320038"><time>2026-04-25T11:07:33Z</time></trkpt><trkpt lat="59.0768551826" lon="30.0341320038"><time>2026-04-25T11:07:35Z</time></trkpt><trkpt lat="59.0768551826" lon="30.0341320038"><time>2026-04-25T11:07:38Z</time></trkpt><trkpt lat="59.0768551826" lon="30.0341320038"><time>2026-04-25T11:07:40Z</time></trkpt><trkpt lat="59.0768551826" lon="30.0341320038"><time>2026-04-25T11:07:43Z</time></trkpt><trkpt lat="59.0768551826" lon="30.0341320038"><time>2026-04-25T11:07:45Z</time></trkpt><trkpt lat="59.0768551826" lon="30.0341320038"><time>2026-04-25T11:07:48Z</time></trkpt><trkpt lat="59.0768551826" lon="30.0341320038"><time>2026-04-25T11:07:50Z</time></trkpt><trkpt lat="59.0768551826" lon="30.0341320038"><time>2026-04-25T11:07:53Z</time></trkpt><trkpt lat="59.0768551826" lon="30.0341320038"><time>2026-04-25T11:07:55Z</time></trkpt><trkpt lat="59.0768551826" lon="30.0341320038"><time>2026-04-25T11:07:58Z</time></trkpt><trkpt lat="59.0768551826" lon="30.0341320038"><time>2026-04-25T11:08:00Z</time></trkpt><trkpt lat="59.0768551826" lon="30.0341320038"><time>2026-04-25T11:08:03Z</time></trkpt><trkpt lat="59.0768551826" lon="30.0341320038"><time>2026-04-25T11:08:05Z</time></trkpt><trkpt lat="59.0768551826" lon="30.0341320038"><time>2026-04-25T11:08:08Z</time></trkpt><trkpt lat="59.0768551826" lon="30.0341320038"><time>2026-04-25T11:08:10Z</time></trkpt><trkpt lat="59.0768551826" lon="30.0341320038"><time>2026-04-25T11:08:13Z</time></trkpt><trkpt lat="59.0768551826" lon="30.0341320038"><time>2026-04-25T11:08:15Z</time></trkpt><trkpt lat="59.0768551826" lon="30.0341320038"><time>2026-04-25T11:08:18Z</time></trkpt><trkpt lat="59.0768551826" lon="30.0341320038"><time>2026-04-25T11:08:20Z</time></trkpt><trkpt lat="59.0768551826" lon="30.0341320038"><time>2026-04-25T11:08:23Z</time></trkpt><trkpt lat="59.0768551826" lon="30.0341320038"><time>2026-04-25T11:08:25Z</time></trkpt><trkpt lat="59.0768551826" lon="30.0341320038"><time>2026-04-25T11:08:28Z</time></trkpt><trkpt lat="59.0768551826" lon="30.0341320038"><time>2026-04-25T11:08:30Z</time></trkpt><trkpt lat="59.0768551826" lon="30.0341320038"><time>2026-04-25T11:08:33Z</time></trkpt><trkpt lat="59.0768551826" lon="30.0341320038"><time>2026-04-25T11:08:35Z</time></trkpt><trkpt lat="59.0768551826" lon="30.0341320038"><time>2026-04-25T11:08:38Z</time></trkpt><trkpt lat="59.0768551826" lon="30.0341320038"><time>2026-04-25T11:08:40Z</time></trkpt><trkpt lat="59.0768551826" lon="30.0341320038"><time>2026-04-25T11:08:43Z</time></trkpt><trkpt lat="59.0768551826" lon="30.0341320038"><time>2026-04-25T11:08:45Z</time></trkpt><trkpt lat="59.0768551826" lon="30.0341320038"><time>2026-04-25T11:08:48Z</time></trkpt><trkpt lat="59.0768551826" lon="30.0341320038"><time>2026-04-25T11:08:50Z</time></trkpt><trkpt lat="59.0768551826" lon="30.0341320038"><time>2026-04-25T11:08:53Z</time></trkpt><trkpt lat="59.0768551826" lon="30.0341320038"><time>2026-04-25T11:08:55Z</time></trkpt><trkpt lat="59.0768551826" lon="30.0341320038"><time>2026-04-25T11:08:58Z</time></trkpt><trkpt lat="59.0768551826" lon="30.0341320038"><time>2026-04-25T11:09:00Z</time></trkpt><trkpt lat="59.0768551826" lon="30.0341320038"><time>2026-04-25T11:09:03Z</time></trkpt><trkpt lat="59.0768551826" lon="30.0341320038"><time>2026-04-25T11:09:05Z</time></trkpt><trkpt lat="59.0768551826" lon="30.0341320038"><time>2026-04-25T11:09:08Z</time></trkpt><trkpt lat="59.0768551826" lon="30.0341320038"><time>2026-04-25T11:09:10Z</time></trkpt><trkpt lat="59.0768551826" lon="30.0341320038"><time>2026-04-25T11:09:13Z</time></trkpt><trkpt lat="59.0768551826" lon="30.0341320038"><time>2026-04-25T11:09:15Z</time></trkpt><trkpt lat="59.0768551826" lon="30.0341320038"><time>2026-04-25T11:09:20Z</time></trkpt><trkpt lat="59.0768551826" lon="30.0341320038"><time>2026-04-25T11:09:23Z</time></trkpt><trkpt lat="59.0768551826" lon="30.0341320038"><time>2026-04-25T11:09:25Z</time></trkpt><trkpt lat="59.0768551826" lon="30.0341320038"><time>2026-04-25T11:09:28Z</time></trkpt><trkpt lat="59.0768551826" lon="30.0341320038"><time>2026-04-25T11:09:30Z</time></trkpt><trkpt lat="59.0768551826" lon="30.0341320038"><time>2026-04-25T11:09:33Z</time></trkpt><trkpt lat="59.0768551826" lon="30.0341320038"><time>2026-04-25T11:09:35Z</time></trkpt><trkpt lat="59.0768551826" lon="30.0341320038"><time>2026-04-25T11:09:38Z</time></trkpt><trkpt lat="59.0768551826" lon="30.0341320038"><time>2026-04-25T11:09:40Z</time></trkpt><trkpt lat="59.0768551826" lon="30.0341320038"><time>2026-04-25T11:09:43Z</time></trkpt><trkpt lat="59.0768551826" lon="30.0341320038"><time>2026-04-25T11:09:45Z</time></trkpt><trkpt lat="59.0768337250" lon="30.0341320038"><time>2026-04-25T11:09:48Z</time></trkpt><trkpt lat="59.0768337250" lon="30.0341320038"><time>2026-04-25T11:09:50Z</time></trkpt><trkpt lat="59.0768337250" lon="30.0341320038"><time>2026-04-25T11:09:53Z</time></trkpt><trkpt lat="59.0768337250" lon="30.0341320038"><time>2026-04-25T11:09:55Z</time></trkpt><trkpt lat="59.0768337250" lon="30.0341320038"><time>2026-04-25T11:09:58Z</time></trkpt><trkpt lat="59.0768337250" lon="30.0341320038"><time>2026-04-25T11:10:00Z</time></trkpt><trkpt lat="59.0768122673" lon="30.0340890884"><time>2026-04-25T11:10:03Z</time></trkpt><trkpt lat="59.0767908096" lon="30.0340676308"><time>2026-04-25T11:10:05Z</time></trkpt><trkpt lat="59.0767908096" lon="30.0340247154"><time>2026-04-25T11:10:08Z</time></trkpt><trkpt lat="59.0767693520" lon="30.0340247154"><time>2026-04-25T11:10:10Z</time></trkpt><trkpt lat="59.0767478943" lon="30.0340032578"><time>2026-04-25T11:10:13Z</time></trkpt><trkpt lat="59.0767693520" lon="30.0339603424"><time>2026-04-25T11:10:15Z</time></trkpt><trkpt lat="59.0767478943" lon="30.0339174271"><time>2026-04-25T11:10:18Z</time></trkpt><trkpt lat="59.0767478943" lon="30.0338745117"><time>2026-04-25T11:10:20Z</time></trkpt><trkpt lat="59.0767478943" lon="30.0338315964"><time>2026-04-25T11:10:23Z</time></trkpt><trkpt lat="59.0767478943" lon="30.0337886810"><time>2026-04-25T11:10:25Z</time></trkpt><trkpt lat="59.0767264366" lon="30.0337672234"><time>2026-04-25T11:10:28Z</time></trkpt><trkpt lat="59.0767264366" lon="30.0337243080"><time>2026-04-25T11:10:30Z</time></trkpt><trkpt lat="59.0767264366" lon="30.0336813927"><time>2026-04-25T11:10:33Z</time></trkpt><trkpt lat="59.0767264366" lon="30.0336599350"><time>2026-04-25T11:10:35Z</time></trkpt><trkpt lat="59.0767264366" lon="30.0336599350"><time>2026-04-25T11:10:38Z</time></trkpt><trkpt lat="59.0767264366" lon="30.0336170197"><time>2026-04-25T11:10:40Z</time></trkpt><trkpt lat="59.0767049789" lon="30.0335741043"><time>2026-04-25T11:10:43Z</time></trkpt><trkpt lat="59.0767049789" lon="30.0335311890"><time>2026-04-25T11:10:45Z</time></trkpt><trkpt lat="59.0767049789" lon="30.0334882736"><time>2026-04-25T11:10:48Z</time></trkpt><trkpt lat="59.0767049789" lon="30.0334453583"><time>2026-04-25T11:10:50Z</time></trkpt><trkpt lat="59.0767049789" lon="30.0334239006"><time>2026-04-25T11:10:53Z</time></trkpt><trkpt lat="59.0767049789" lon="30.0333809853"><time>2026-04-25T11:10:55Z</time></trkpt><trkpt lat="59.0767049789" lon="30.0333595276"><time>2026-04-25T11:10:58Z</time></trkpt><trkpt lat="59.0767264366" lon="30.0333380699"><time>2026-04-25T11:11:00Z</time></trkpt><trkpt lat="59.0767049789" lon="30.0332951546"><time>2026-04-25T11:11:03Z</time></trkpt><trkpt lat="59.0767049789" lon="30.0332522392"><time>2026-04-25T11:11:05Z</time></trkpt><trkpt lat="59.0767049789" lon="30.0332093239"><time>2026-04-25T11:11:08Z</time></trkpt><trkpt lat="59.0767049789" lon="30.0331878662"><time>2026-04-25T11:11:10Z</time></trkpt><trkpt lat="59.0767049789" lon="30.0331878662"><time>2026-04-25T11:11:13Z</time></trkpt><trkpt lat="59.0767049789" lon="30.0331234932"><time>2026-04-25T11:11:15Z</time></trkpt><trkpt lat="59.0767049789" lon="30.0330805779"><time>2026-04-25T11:11:18Z</time></trkpt><trkpt lat="59.0767049789" lon="30.0330591202"><time>2026-04-25T11:11:20Z</time></trkpt><trkpt lat="59.0767049789" lon="30.0330376625"><time>2026-04-25T11:11:23Z</time></trkpt><trkpt lat="59.0767049789" lon="30.0329732895"><time>2026-04-25T11:11:25Z</time></trkpt><trkpt lat="59.0766835213" lon="30.0329089165"><time>2026-04-25T11:11:28Z</time></trkpt><trkpt lat="59.0766620636" lon="30.0328874588"><time>2026-04-25T11:11:30Z</time></trkpt><trkpt lat="59.0766406059" lon="30.0328660011"><time>2026-04-25T11:11:33Z</time></trkpt><trkpt lat="59.0766620636" lon="30.0328874588"><time>2026-04-25T11:11:35Z</time></trkpt><trkpt lat="59.0766620636" lon="30.0328874588"><time>2026-04-25T11:11:38Z</time></trkpt><trkpt lat="59.0766620636" lon="30.0328874588"><time>2026-04-25T11:11:40Z</time></trkpt><trkpt lat="59.0766620636" lon="30.0328874588"><time>2026-04-25T11:11:43Z</time></trkpt><trkpt lat="59.0766620636" lon="30.0328874588"><time>2026-04-25T11:11:45Z</time></trkpt><trkpt lat="59.0766620636" lon="30.0328874588"><time>2026-04-25T11:11:48Z</time></trkpt><trkpt lat="59.0766620636" lon="30.0328874588"><time>2026-04-25T11:11:50Z</time></trkpt><trkpt lat="59.0766620636" lon="30.0328874588"><time>2026-04-25T11:11:53Z</time></trkpt><trkpt lat="59.0766620636" lon="30.0328874588"><time>2026-04-25T11:11:55Z</time></trkpt><trkpt lat="59.0766620636" lon="30.0328660011"><time>2026-04-25T11:11:58Z</time></trkpt><trkpt lat="59.0766620636" lon="30.0328445435"><time>2026-04-25T11:12:00Z</time></trkpt><trkpt lat="59.0766620636" lon="30.0328230858"><time>2026-04-25T11:12:03Z</time></trkpt><trkpt lat="59.0766620636" lon="30.0328230858"><time>2026-04-25T11:12:05Z</time></trkpt><trkpt lat="59.0766620636" lon="30.0328230858"><time>2026-04-25T11:12:08Z</time></trkpt><trkpt lat="59.0766620636" lon="30.0328230858"><time>2026-04-25T11:12:10Z</time></trkpt><trkpt lat="59.0766620636" lon="30.0328230858"><time>2026-04-25T11:12:13Z</time></trkpt><trkpt lat="59.0766620636" lon="30.0328230858"><time>2026-04-25T11:12:15Z</time></trkpt><trkpt lat="59.0766620636" lon="30.0328230858"><time>2026-04-25T11:12:18Z</time></trkpt><trkpt lat="59.0766620636" lon="30.0328230858"><time>2026-04-25T11:12:20Z</time></trkpt><trkpt lat="59.0766406059" lon="30.0328230858"><time>2026-04-25T11:12:23Z</time></trkpt><trkpt lat="59.0766406059" lon="30.0328230858"><time>2026-04-25T11:12:25Z</time></trkpt><trkpt lat="59.0766406059" lon="30.0328230858"><time>2026-04-25T11:12:28Z</time></trkpt><trkpt lat="59.0766406059" lon="30.0328230858"><time>2026-04-25T11:12:30Z</time></trkpt><trkpt lat="59.0766406059" lon="30.0328230858"><time>2026-04-25T11:12:33Z</time></trkpt><trkpt lat="59.0766406059" lon="30.0328230858"><time>2026-04-25T11:12:35Z</time></trkpt><trkpt lat="59.0766406059" lon="30.0328230858"><time>2026-04-25T11:12:38Z</time></trkpt><trkpt lat="59.0766406059" lon="30.0328230858"><time>2026-04-25T11:12:40Z</time></trkpt><trkpt lat="59.0766406059" lon="30.0328230858"><time>2026-04-25T11:12:43Z</time></trkpt><trkpt lat="59.0766406059" lon="30.0328230858"><time>2026-04-25T11:12:45Z</time></trkpt><trkpt lat="59.0766406059" lon="30.0328230858"><time>2026-04-25T11:12:48Z</time></trkpt><trkpt lat="59.0766406059" lon="30.0328230858"><time>2026-04-25T11:12:50Z</time></trkpt><trkpt lat="59.0766406059" lon="30.0328230858"><time>2026-04-25T11:12:53Z</time></trkpt><trkpt lat="59.0766406059" lon="30.0328230858"><time>2026-04-25T11:12:55Z</time></trkpt><trkpt lat="59.0766406059" lon="30.0328230858"><time>2026-04-25T11:12:58Z</time></trkpt><trkpt lat="59.0766406059" lon="30.0328230858"><time>2026-04-25T11:13:00Z</time></trkpt><trkpt lat="59.0766406059" lon="30.0328230858"><time>2026-04-25T11:13:03Z</time></trkpt><trkpt lat="59.0766406059" lon="30.0328230858"><time>2026-04-25T11:13:05Z</time></trkpt><trkpt lat="59.0766406059" lon="30.0328230858"><time>2026-04-25T11:13:08Z</time></trkpt><trkpt lat="59.0766406059" lon="30.0328230858"><time>2026-04-25T11:13:10Z</time></trkpt><trkpt lat="59.0766406059" lon="30.0328230858"><time>2026-04-25T11:13:13Z</time></trkpt><trkpt lat="59.0766406059" lon="30.0328230858"><time>2026-04-25T11:13:15Z</time></trkpt><trkpt lat="59.0766406059" lon="30.0328230858"><time>2026-04-25T11:13:18Z</time></trkpt><trkpt lat="59.0766406059" lon="30.0328230858"><time>2026-04-25T11:13:20Z</time></trkpt><trkpt lat="59.0766406059" lon="30.0328230858"><time>2026-04-25T11:13:23Z</time></trkpt><trkpt lat="59.0766406059" lon="30.0328230858"><time>2026-04-25T11:13:25Z</time></trkpt><trkpt lat="59.0766406059" lon="30.0328230858"><time>2026-04-25T11:13:28Z</time></trkpt><trkpt lat="59.0766406059" lon="30.0328230858"><time>2026-04-25T11:13:30Z</time></trkpt><trkpt lat="59.0766406059" lon="30.0328230858"><time>2026-04-25T11:13:33Z</time></trkpt><trkpt lat="59.0766406059" lon="30.0328230858"><time>2026-04-25T11:13:35Z</time></trkpt><trkpt lat="59.0766406059" lon="30.0328230858"><time>2026-04-25T11:13:38Z</time></trkpt><trkpt lat="59.0766406059" lon="30.0328230858"><time>2026-04-25T11:13:40Z</time></trkpt><trkpt lat="59.0766406059" lon="30.0328230858"><time>2026-04-25T11:13:43Z</time></trkpt><trkpt lat="59.0766620636" lon="30.0327801704"><time>2026-04-25T11:13:45Z</time></trkpt><trkpt lat="59.0767049789" lon="30.0327587128"><time>2026-04-25T11:13:48Z</time></trkpt><trkpt lat="59.0767049789" lon="30.0327801704"><time>2026-04-25T11:13:50Z</time></trkpt><trkpt lat="59.0767049789" lon="30.0327801704"><time>2026-04-25T11:13:53Z</time></trkpt><trkpt lat="59.0767049789" lon="30.0327801704"><time>2026-04-25T11:13:55Z</time></trkpt><trkpt lat="59.0767049789" lon="30.0327587128"><time>2026-04-25T11:13:58Z</time></trkpt><trkpt lat="59.0767264366" lon="30.0327372551"><time>2026-04-25T11:14:00Z</time></trkpt><trkpt lat="59.0767478943" lon="30.0326943398"><time>2026-04-25T11:14:03Z</time></trkpt><trkpt lat="59.0767478943" lon="30.0326728821"><time>2026-04-25T11:14:05Z</time></trkpt><trkpt lat="59.0767693520" lon="30.0326514244"><time>2026-04-25T11:14:08Z</time></trkpt><trkpt lat="59.0767908096" lon="30.0326299667"><time>2026-04-25T11:14:10Z</time></trkpt><trkpt lat="59.0767908096" lon="30.0325870514"><time>2026-04-25T11:14:13Z</time></trkpt><trkpt lat="59.0767908096" lon="30.0325655937"><time>2026-04-25T11:14:15Z</time></trkpt><trkpt lat="59.0767908096" lon="30.0325655937"><time>2026-04-25T11:14:18Z</time></trkpt><trkpt lat="59.0767908096" lon="30.0325441360"><time>2026-04-25T11:14:20Z</time></trkpt><trkpt lat="59.0768122673" lon="30.0324368477"><time>2026-04-25T11:14:23Z</time></trkpt><trkpt lat="59.0768766403" lon="30.0323724747"><time>2026-04-25T11:14:25Z</time></trkpt><trkpt lat="59.0768980980" lon="30.0323724747"><time>2026-04-25T11:14:28Z</time></trkpt><trkpt lat="59.0768980980" lon="30.0323510170"><time>2026-04-25T11:14:30Z</time></trkpt><trkpt lat="59.0768766403" lon="30.0323295593"><time>2026-04-25T11:14:33Z</time></trkpt><trkpt lat="59.0768766403" lon="30.0322866440"><time>2026-04-25T11:14:35Z</time></trkpt><trkpt lat="59.0768766403" lon="30.0322651863"><time>2026-04-25T11:14:38Z</time></trkpt><trkpt lat="59.0768766403" lon="30.0322437286"><time>2026-04-25T11:14:40Z</time></trkpt><trkpt lat="59.0768766403" lon="30.0322222710"><time>2026-04-25T11:14:43Z</time></trkpt><trkpt lat="59.0768980980" lon="30.0322437286"><time>2026-04-25T11:14:45Z</time></trkpt><trkpt lat="59.0768980980" lon="30.0322437286"><time>2026-04-25T11:14:48Z</time></trkpt><trkpt lat="59.0768980980" lon="30.0322222710"><time>2026-04-25T11:14:50Z</time></trkpt><trkpt lat="59.0768980980" lon="30.0322222710"><time>2026-04-25T11:14:53Z</time></trkpt><trkpt lat="59.0768980980" lon="30.0322222710"><time>2026-04-25T11:14:55Z</time></trkpt><trkpt lat="59.0768980980" lon="30.0322222710"><time>2026-04-25T11:14:58Z</time></trkpt><trkpt lat="59.0769195557" lon="30.0322008133"><time>2026-04-25T11:15:00Z</time></trkpt><trkpt lat="59.0769195557" lon="30.0321364403"><time>2026-04-25T11:15:03Z</time></trkpt><trkpt lat="59.0769410133" lon="30.0320506096"><time>2026-04-25T11:15:05Z</time></trkpt><trkpt lat="59.0769624710" lon="30.0320076942"><time>2026-04-25T11:15:08Z</time></trkpt><trkpt lat="59.0769624710" lon="30.0319433212"><time>2026-04-25T11:15:10Z</time></trkpt><trkpt lat="59.0769839287" lon="30.0319218636"><time>2026-04-25T11:15:13Z</time></trkpt><trkpt lat="59.0769839287" lon="30.0319004059"><time>2026-04-25T11:15:15Z</time></trkpt><trkpt lat="59.0770053864" lon="30.0318574905"><time>2026-04-25T11:15:18Z</time></trkpt><trkpt lat="59.0770268440" lon="30.0318145752"><time>2026-04-25T11:15:20Z</time></trkpt><trkpt lat="59.0770268440" lon="30.0317716599"><time>2026-04-25T11:15:23Z</time></trkpt><trkpt lat="59.0770483017" lon="30.0317287445"><time>2026-04-25T11:15:25Z</time></trkpt><trkpt lat="59.0770483017" lon="30.0317072868"><time>2026-04-25T11:15:28Z</time></trkpt><trkpt lat="59.0770483017" lon="30.0316643715"><time>2026-04-25T11:15:30Z</time></trkpt><trkpt lat="59.0770483017" lon="30.0316643715"><time>2026-04-25T11:15:33Z</time></trkpt><trkpt lat="59.0770697594" lon="30.0316214561"><time>2026-04-25T11:15:35Z</time></trkpt><trkpt lat="59.0770697594" lon="30.0315785408"><time>2026-04-25T11:15:38Z</time></trkpt><trkpt lat="59.0771126747" lon="30.0315999985"><time>2026-04-25T11:15:40Z</time></trkpt><trkpt lat="59.0771126747" lon="30.0315570831"><time>2026-04-25T11:15:43Z</time></trkpt><trkpt lat="59.0771341324" lon="30.0315356255"><time>2026-04-25T11:15:45Z</time></trkpt><trkpt lat="59.0771341324" lon="30.0315356255"><time>2026-04-25T11:15:48Z</time></trkpt><trkpt lat="59.0771555901" lon="30.0315356255"><time>2026-04-25T11:15:50Z</time></trkpt><trkpt lat="59.0771555901" lon="30.0315356255"><time>2026-04-25T11:15:53Z</time></trkpt><trkpt lat="59.0771555901" lon="30.0315141678"><time>2026-04-25T11:15:55Z</time></trkpt><trkpt lat="59.0771770477" lon="30.0314712524"><time>2026-04-25T11:15:58Z</time></trkpt><trkpt lat="59.0771770477" lon="30.0314712524"><time>2026-04-25T11:16:00Z</time></trkpt><trkpt lat="59.0771770477" lon="30.0314497948"><time>2026-04-25T11:16:03Z</time></trkpt><trkpt lat="59.0771985054" lon="30.0314283371"><time>2026-04-25T11:16:05Z</time></trkpt><trkpt lat="59.0771985054" lon="30.0313854218"><time>2026-04-25T11:16:08Z</time></trkpt><trkpt lat="59.0772199631" lon="30.0313425064"><time>2026-04-25T11:16:10Z</time></trkpt><trkpt lat="59.0772414207" lon="30.0313210487"><time>2026-04-25T11:16:13Z</time></trkpt><trkpt lat="59.0772199631" lon="30.0312995911"><time>2026-04-25T11:16:15Z</time></trkpt><trkpt lat="59.0772199631" lon="30.0312995911"><time>2026-04-25T11:16:18Z</time></trkpt><trkpt lat="59.0772414207" lon="30.0312781334"><time>2026-04-25T11:16:20Z</time></trkpt><trkpt lat="59.0772628784" lon="30.0311923027"><time>2026-04-25T11:16:23Z</time></trkpt><trkpt lat="59.0772628784" lon="30.0311493874"><time>2026-04-25T11:16:25Z</time></trkpt><trkpt lat="59.0772843361" lon="30.0311064720"><time>2026-04-25T11:16:28Z</time></trkpt><trkpt lat="59.0772843361" lon="30.0310850143"><time>2026-04-25T11:16:30Z</time></trkpt><trkpt lat="59.0772843361" lon="30.0310635567"><time>2026-04-25T11:16:33Z</time></trkpt><trkpt lat="59.0773272514" lon="30.0310420990"><time>2026-04-25T11:16:35Z</time></trkpt><trkpt lat="59.0773272514" lon="30.0309991837"><time>2026-04-25T11:16:38Z</time></trkpt><trkpt lat="59.0773272514" lon="30.0309991837"><time>2026-04-25T11:16:40Z</time></trkpt><trkpt lat="59.0773487091" lon="30.0309777260"><time>2026-04-25T11:16:43Z</time></trkpt><trkpt lat="59.0773487091" lon="30.0309348106"><time>2026-04-25T11:16:45Z</time></trkpt><trkpt lat="59.0773701668" lon="30.0309133530"><time>2026-04-25T11:16:48Z</time></trkpt><trkpt lat="59.0773916245" lon="30.0308918953"><time>2026-04-25T11:16:50Z</time></trkpt><trkpt lat="59.0774130821" lon="30.0308489799"><time>2026-04-25T11:16:53Z</time></trkpt><trkpt lat="59.0774130821" lon="30.0308275223"><time>2026-04-25T11:16:55Z</time></trkpt><trkpt lat="59.0774345398" lon="30.0307846069"><time>2026-04-25T11:16:58Z</time></trkpt><trkpt lat="59.0774345398" lon="30.0307416916"><time>2026-04-25T11:17:00Z</time></trkpt><trkpt lat="59.0774559975" lon="30.0307202339"><time>2026-04-25T11:17:03Z</time></trkpt><trkpt lat="59.0774559975" lon="30.0306987762"><time>2026-04-25T11:17:05Z</time></trkpt><trkpt lat="59.0774559975" lon="30.0306987762"><time>2026-04-25T11:17:08Z</time></trkpt><trkpt lat="59.0774345398" lon="30.0307202339"><time>2026-04-25T11:17:10Z</time></trkpt><trkpt lat="59.0774130821" lon="30.0307202339"><time>2026-04-25T11:17:13Z</time></trkpt><trkpt lat="59.0774345398" lon="30.0307416916"><time>2026-04-25T11:17:15Z</time></trkpt><trkpt lat="59.0774345398" lon="30.0307631493"><time>2026-04-25T11:17:18Z</time></trkpt><trkpt lat="59.0774345398" lon="30.0307631493"><time>2026-04-25T11:17:20Z</time></trkpt><trkpt lat="59.0774345398" lon="30.0307416916"><time>2026-04-25T11:17:23Z</time></trkpt><trkpt lat="59.0774559975" lon="30.0307416916"><time>2026-04-25T11:17:25Z</time></trkpt><trkpt lat="59.0774559975" lon="30.0307416916"><time>2026-04-25T11:17:28Z</time></trkpt><trkpt lat="59.0774774551" lon="30.0307416916"><time>2026-04-25T11:17:30Z</time></trkpt><trkpt lat="59.0774989128" lon="30.0307202339"><time>2026-04-25T11:17:33Z</time></trkpt><trkpt lat="59.0775203705" lon="30.0306987762"><time>2026-04-25T11:17:35Z</time></trkpt><trkpt lat="59.0775203705" lon="30.0306558609"><time>2026-04-25T11:17:38Z</time></trkpt><trkpt lat="59.0775418282" lon="30.0306558609"><time>2026-04-25T11:17:40Z</time></trkpt><trkpt lat="59.0775418282" lon="30.0306344032"><time>2026-04-25T11:17:43Z</time></trkpt><trkpt lat="59.0775632858" lon="30.0306129456"><time>2026-04-25T11:17:45Z</time></trkpt><trkpt lat="59.0775632858" lon="30.0306129456"><time>2026-04-25T11:17:48Z</time></trkpt><trkpt lat="59.0775632858" lon="30.0306129456"><time>2026-04-25T11:17:50Z</time></trkpt><trkpt lat="59.0775847435" lon="30.0306129456"><time>2026-04-25T11:17:53Z</time></trkpt><trkpt lat="59.0775847435" lon="30.0305914879"><time>2026-04-25T11:17:55Z</time></trkpt><trkpt lat="59.0775847435" lon="30.0305914879"><time>2026-04-25T11:17:58Z</time></trkpt><trkpt lat="59.0776062012" lon="30.0305271149"><time>2026-04-25T11:18:00Z</time></trkpt><trkpt lat="59.0776276588" lon="30.0304841995"><time>2026-04-25T11:18:03Z</time></trkpt><trkpt lat="59.0776491165" lon="30.0304841995"><time>2026-04-25T11:18:05Z</time></trkpt><trkpt lat="59.0776491165" lon="30.0304841995"><time>2026-04-25T11:18:08Z</time></trkpt><trkpt lat="59.0776491165" lon="30.0304412842"><time>2026-04-25T11:18:10Z</time></trkpt><trkpt lat="59.0776705742" lon="30.0303983688"><time>2026-04-25T11:18:13Z</time></trkpt><trkpt lat="59.0776491165" lon="30.0303554535"><time>2026-04-25T11:18:15Z</time></trkpt><trkpt lat="59.0776491165" lon="30.0303554535"><time>2026-04-25T11:18:18Z</time></trkpt><trkpt lat="59.0776491165" lon="30.0303554535"><time>2026-04-25T11:18:20Z</time></trkpt><trkpt lat="59.0776491165" lon="30.0303554535"><time>2026-04-25T11:18:23Z</time></trkpt><trkpt lat="59.0776491165" lon="30.0303554535"><time>2026-04-25T11:18:25Z</time></trkpt><trkpt lat="59.0776705742" lon="30.0303769112"><time>2026-04-25T11:18:28Z</time></trkpt><trkpt lat="59.0776920319" lon="30.0303983688"><time>2026-04-25T11:18:30Z</time></trkpt><trkpt lat="59.0776920319" lon="30.0303769112"><time>2026-04-25T11:18:33Z</time></trkpt><trkpt lat="59.0777134895" lon="30.0303339958"><time>2026-04-25T11:18:35Z</time></trkpt><trkpt lat="59.0777134895" lon="30.0302910805"><time>2026-04-25T11:18:38Z</time></trkpt><trkpt lat="59.0776920319" lon="30.0303125381"><time>2026-04-25T11:18:40Z</time></trkpt><trkpt lat="59.0776920319" lon="30.0303339958"><time>2026-04-25T11:18:43Z</time></trkpt><trkpt lat="59.0776705742" lon="30.0303769112"><time>2026-04-25T11:18:45Z</time></trkpt><trkpt lat="59.0776705742" lon="30.0303769112"><time>2026-04-25T11:18:48Z</time></trkpt><trkpt lat="59.0776705742" lon="30.0303125381"><time>2026-04-25T11:18:50Z</time></trkpt><trkpt lat="59.0776920319" lon="30.0303125381"><time>2026-04-25T11:18:53Z</time></trkpt><trkpt lat="59.0776920319" lon="30.0302910805"><time>2026-04-25T11:18:55Z</time></trkpt><trkpt lat="59.0777134895" lon="30.0302696228"><time>2026-04-25T11:18:58Z</time></trkpt><trkpt lat="59.0777349472" lon="30.0302481651"><time>2026-04-25T11:19:00Z</time></trkpt><trkpt lat="59.0777349472" lon="30.0302267075"><time>2026-04-25T11:19:03Z</time></trkpt><trkpt lat="59.0777564049" lon="30.0301837921"><time>2026-04-25T11:19:05Z</time></trkpt><trkpt lat="59.0777564049" lon="30.0301408768"><time>2026-04-25T11:19:08Z</time></trkpt><trkpt lat="59.0777564049" lon="30.0300979614"><time>2026-04-25T11:19:10Z</time></trkpt><trkpt lat="59.0777349472" lon="30.0300979614"><time>2026-04-25T11:19:13Z</time></trkpt><trkpt lat="59.0777349472" lon="30.0301194191"><time>2026-04-25T11:19:15Z</time></trkpt><trkpt lat="59.0777349472" lon="30.0301194191"><time>2026-04-25T11:19:18Z</time></trkpt><trkpt lat="59.0777349472" lon="30.0301194191"><time>2026-04-25T11:19:20Z</time></trkpt><trkpt lat="59.0777349472" lon="30.0301194191"><time>2026-04-25T11:19:23Z</time></trkpt><trkpt lat="59.0777349472" lon="30.0301194191"><time>2026-04-25T11:19:25Z</time></trkpt><trkpt lat="59.0777349472" lon="30.0301194191"><time>2026-04-25T11:19:28Z</time></trkpt><trkpt lat="59.0777349472" lon="30.0301194191"><time>2026-04-25T11:19:30Z</time></trkpt><trkpt lat="59.0777349472" lon="30.0301194191"><time>2026-04-25T11:19:33Z</time></trkpt><trkpt lat="59.0777349472" lon="30.0301194191"><time>2026-04-25T11:19:35Z</time></trkpt><trkpt lat="59.0777349472" lon="30.0301194191"><time>2026-04-25T11:19:38Z</time></trkpt><trkpt lat="59.0777349472" lon="30.0301408768"><time>2026-04-25T11:19:40Z</time></trkpt><trkpt lat="59.0777778625" lon="30.0301408768"><time>2026-04-25T11:19:43Z</time></trkpt><trkpt lat="59.0777993202" lon="30.0301408768"><time>2026-04-25T11:19:45Z</time></trkpt><trkpt lat="59.0777993202" lon="30.0301623344"><time>2026-04-25T11:19:48Z</time></trkpt><trkpt lat="59.0777993202" lon="30.0301837921"><time>2026-04-25T11:19:50Z</time></trkpt><trkpt lat="59.0777993202" lon="30.0301837921"><time>2026-04-25T11:19:53Z</time></trkpt><trkpt lat="59.0777993202" lon="30.0301837921"><time>2026-04-25T11:19:55Z</time></trkpt><trkpt lat="59.0777993202" lon="30.0301837921"><time>2026-04-25T11:19:58Z</time></trkpt><trkpt lat="59.0777993202" lon="30.0301623344"><time>2026-04-25T11:20:00Z</time></trkpt><trkpt lat="59.0777993202" lon="30.0301408768"><time>2026-04-25T11:20:03Z</time></trkpt><trkpt lat="59.0777993202" lon="30.0301408768"><time>2026-04-25T11:20:05Z</time></trkpt><trkpt lat="59.0777993202" lon="30.0301408768"><time>2026-04-25T11:20:08Z</time></trkpt><trkpt lat="59.0778207779" lon="30.0301194191"><time>2026-04-25T11:20:10Z</time></trkpt><trkpt lat="59.0778207779" lon="30.0300979614"><time>2026-04-25T11:20:13Z</time></trkpt><trkpt lat="59.0778207779" lon="30.0300979614"><time>2026-04-25T11:20:15Z</time></trkpt><trkpt lat="59.0778207779" lon="30.0300765038"><time>2026-04-25T11:20:18Z</time></trkpt><trkpt lat="59.0778207779" lon="30.0300979614"><time>2026-04-25T11:20:20Z</time></trkpt><trkpt lat="59.0778207779" lon="30.0300765038"><time>2026-04-25T11:20:23Z</time></trkpt><trkpt lat="59.0778422356" lon="30.0300121307"><time>2026-04-25T11:20:25Z</time></trkpt><trkpt lat="59.0778636932" lon="30.0299906731"><time>2026-04-25T11:20:28Z</time></trkpt><trkpt lat="59.0778636932" lon="30.0299692154"><time>2026-04-25T11:20:30Z</time></trkpt><trkpt lat="59.0778636932" lon="30.0299692154"><time>2026-04-25T11:20:33Z</time></trkpt><trkpt lat="59.0778636932" lon="30.0299477577"><time>2026-04-25T11:20:35Z</time></trkpt><trkpt lat="59.0778851509" lon="30.0299263000"><time>2026-04-25T11:20:38Z</time></trkpt><trkpt lat="59.0778851509" lon="30.0299048424"><time>2026-04-25T11:20:40Z</time></trkpt><trkpt lat="59.0778851509" lon="30.0299048424"><time>2026-04-25T11:20:43Z</time></trkpt><trkpt lat="59.0778851509" lon="30.0298833847"><time>2026-04-25T11:20:45Z</time></trkpt><trkpt lat="59.0778636932" lon="30.0298619270"><time>2026-04-25T11:20:48Z</time></trkpt><trkpt lat="59.0778636932" lon="30.0298404694"><time>2026-04-25T11:20:50Z</time></trkpt><trkpt lat="59.0778422356" lon="30.0297975540"><time>2026-04-25T11:20:53Z</time></trkpt><trkpt lat="59.0778422356" lon="30.0297760963"><time>2026-04-25T11:20:55Z</time></trkpt><trkpt lat="59.0778422356" lon="30.0297117233"><time>2026-04-25T11:20:58Z</time></trkpt><trkpt lat="59.0778422356" lon="30.0296902657"><time>2026-04-25T11:21:00Z</time></trkpt><trkpt lat="59.0778422356" lon="30.0297117233"><time>2026-04-25T11:21:03Z</time></trkpt><trkpt lat="59.0778636932" lon="30.0297117233"><time>2026-04-25T11:21:05Z</time></trkpt><trkpt lat="59.0778422356" lon="30.0297117233"><time>2026-04-25T11:21:08Z</time></trkpt><trkpt lat="59.0778636932" lon="30.0297117233"><time>2026-04-25T11:21:10Z</time></trkpt><trkpt lat="59.0778851509" lon="30.0297117233"><time>2026-04-25T11:21:13Z</time></trkpt><trkpt lat="59.0778851509" lon="30.0297117233"><time>2026-04-25T11:21:15Z</time></trkpt><trkpt lat="59.0779066086" lon="30.0297117233"><time>2026-04-25T11:21:18Z</time></trkpt><trkpt lat="59.0779066086" lon="30.0297331810"><time>2026-04-25T11:21:20Z</time></trkpt><trkpt lat="59.0779066086" lon="30.0297331810"><time>2026-04-25T11:21:23Z</time></trkpt><trkpt lat="59.0779066086" lon="30.0297331810"><time>2026-04-25T11:21:25Z</time></trkpt><trkpt lat="59.0779066086" lon="30.0297331810"><time>2026-04-25T11:21:28Z</time></trkpt><trkpt lat="59.0779066086" lon="30.0297331810"><time>2026-04-25T11:21:30Z</time></trkpt><trkpt lat="59.0779066086" lon="30.0297331810"><time>2026-04-25T11:21:33Z</time></trkpt><trkpt lat="59.0779066086" lon="30.0297331810"><time>2026-04-25T11:21:35Z</time></trkpt><trkpt lat="59.0779066086" lon="30.0297331810"><time>2026-04-25T11:21:38Z</time></trkpt><trkpt lat="59.0779066086" lon="30.0297331810"><time>2026-04-25T11:21:40Z</time></trkpt><trkpt lat="59.0779066086" lon="30.0297331810"><time>2026-04-25T11:21:43Z</time></trkpt><trkpt lat="59.0779066086" lon="30.0297331810"><time>2026-04-25T11:21:45Z</time></trkpt><trkpt lat="59.0779066086" lon="30.0297331810"><time>2026-04-25T11:21:48Z</time></trkpt><trkpt lat="59.0779066086" lon="30.0297331810"><time>2026-04-25T11:21:50Z</time></trkpt><trkpt lat="59.0779066086" lon="30.0297331810"><time>2026-04-25T11:21:53Z</time></trkpt><trkpt lat="59.0779066086" lon="30.0297331810"><time>2026-04-25T11:21:55Z</time></trkpt><trkpt lat="59.0779066086" lon="30.0297331810"><time>2026-04-25T11:21:58Z</time></trkpt><trkpt lat="59.0779066086" lon="30.0297331810"><time>2026-04-25T11:22:00Z</time></trkpt><trkpt lat="59.0779066086" lon="30.0297331810"><time>2026-04-25T11:22:03Z</time></trkpt><trkpt lat="59.0779066086" lon="30.0297331810"><time>2026-04-25T11:22:05Z</time></trkpt><trkpt lat="59.0779066086" lon="30.0297331810"><time>2026-04-25T11:22:08Z</time></trkpt><trkpt lat="59.0779066086" lon="30.0297331810"><time>2026-04-25T11:22:10Z</time></trkpt><trkpt lat="59.0779066086" lon="30.0297331810"><time>2026-04-25T11:22:13Z</time></trkpt><trkpt lat="59.0779066086" lon="30.0297331810"><time>2026-04-25T11:22:15Z</time></trkpt><trkpt lat="59.0779066086" lon="30.0297331810"><time>2026-04-25T11:22:18Z</time></trkpt><trkpt lat="59.0779066086" lon="30.0297331810"><time>2026-04-25T11:22:20Z</time></trkpt><trkpt lat="59.0779066086" lon="30.0297331810"><time>2026-04-25T11:22:23Z</time></trkpt><trkpt lat="59.0779066086" lon="30.0297331810"><time>2026-04-25T11:22:25Z</time></trkpt><trkpt lat="59.0779066086" lon="30.0297331810"><time>2026-04-25T11:22:28Z</time></trkpt><trkpt lat="59.0779066086" lon="30.0297546387"><time>2026-04-25T11:22:30Z</time></trkpt><trkpt lat="59.0779066086" lon="30.0297546387"><time>2026-04-25T11:22:33Z</time></trkpt><trkpt lat="59.0779066086" lon="30.0297546387"><time>2026-04-25T11:22:35Z</time></trkpt><trkpt lat="59.0779066086" lon="30.0297546387"><time>2026-04-25T11:22:38Z</time></trkpt><trkpt lat="59.0779066086" lon="30.0297546387"><time>2026-04-25T11:22:40Z</time></trkpt><trkpt lat="59.0779066086" lon="30.0297546387"><time>2026-04-25T11:22:43Z</time></trkpt><trkpt lat="59.0779066086" lon="30.0297546387"><time>2026-04-25T11:22:45Z</time></trkpt><trkpt lat="59.0779066086" lon="30.0297546387"><time>2026-04-25T11:22:48Z</time></trkpt><trkpt lat="59.0779066086" lon="30.0297546387"><time>2026-04-25T11:22:50Z</time></trkpt><trkpt lat="59.0779066086" lon="30.0297546387"><time>2026-04-25T11:22:53Z</time></trkpt><trkpt lat="59.0779066086" lon="30.0297546387"><time>2026-04-25T11:22:55Z</time></trkpt><trkpt lat="59.0779066086" lon="30.0297546387"><time>2026-04-25T11:22:58Z</time></trkpt><trkpt lat="59.0779066086" lon="30.0297546387"><time>2026-04-25T11:23:00Z</time></trkpt><trkpt lat="59.0779066086" lon="30.0297546387"><time>2026-04-25T11:23:03Z</time></trkpt><trkpt lat="59.0779066086" lon="30.0297546387"><time>2026-04-25T11:23:05Z</time></trkpt><trkpt lat="59.0779066086" lon="30.0297546387"><time>2026-04-25T11:23:08Z</time></trkpt><trkpt lat="59.0779066086" lon="30.0297546387"><time>2026-04-25T11:23:10Z</time></trkpt><trkpt lat="59.0779066086" lon="30.0297546387"><time>2026-04-25T11:23:13Z</time></trkpt><trkpt lat="59.0779280663" lon="30.0297546387"><time>2026-04-25T11:23:15Z</time></trkpt><trkpt lat="59.0779280663" lon="30.0297546387"><time>2026-04-25T11:23:18Z</time></trkpt><trkpt lat="59.0779280663" lon="30.0297331810"><time>2026-04-25T11:23:20Z</time></trkpt><trkpt lat="59.0779280663" lon="30.0297331810"><time>2026-04-25T11:23:23Z</time></trkpt><trkpt lat="59.0779280663" lon="30.0297331810"><time>2026-04-25T11:23:25Z</time></trkpt><trkpt lat="59.0779280663" lon="30.0297331810"><time>2026-04-25T11:23:28Z</time></trkpt><trkpt lat="59.0779280663" lon="30.0297331810"><time>2026-04-25T11:23:30Z</time></trkpt><trkpt lat="59.0779280663" lon="30.0297331810"><time>2026-04-25T11:23:33Z</time></trkpt><trkpt lat="59.0779280663" lon="30.0297331810"><time>2026-04-25T11:23:35Z</time></trkpt><trkpt lat="59.0779280663" lon="30.0297331810"><time>2026-04-25T11:23:38Z</time></trkpt><trkpt lat="59.0779280663" lon="30.0297331810"><time>2026-04-25T11:23:40Z</time></trkpt><trkpt lat="59.0779280663" lon="30.0297331810"><time>2026-04-25T11:23:43Z</time></trkpt><trkpt lat="59.0779280663" lon="30.0297331810"><time>2026-04-25T11:23:45Z</time></trkpt><trkpt lat="59.0779280663" lon="30.0297331810"><time>2026-04-25T11:23:48Z</time></trkpt><trkpt lat="59.0779280663" lon="30.0297331810"><time>2026-04-25T11:23:50Z</time></trkpt><trkpt lat="59.0779280663" lon="30.0297331810"><time>2026-04-25T11:23:53Z</time></trkpt><trkpt lat="59.0779280663" lon="30.0297331810"><time>2026-04-25T11:23:55Z</time></trkpt><trkpt lat="59.0779280663" lon="30.0297331810"><time>2026-04-25T11:23:58Z</time></trkpt><trkpt lat="59.0779280663" lon="30.0297331810"><time>2026-04-25T11:24:00Z</time></trkpt><trkpt lat="59.0779280663" lon="30.0297331810"><time>2026-04-25T11:24:03Z</time></trkpt><trkpt lat="59.0779280663" lon="30.0297331810"><time>2026-04-25T11:24:05Z</time></trkpt><trkpt lat="59.0779280663" lon="30.0297331810"><time>2026-04-25T11:24:08Z</time></trkpt><trkpt lat="59.0779280663" lon="30.0297331810"><time>2026-04-25T11:24:10Z</time></trkpt><trkpt lat="59.0779280663" lon="30.0297331810"><time>2026-04-25T11:24:13Z</time></trkpt><trkpt lat="59.0779280663" lon="30.0297331810"><time>2026-04-25T11:24:15Z</time></trkpt><trkpt lat="59.0779280663" lon="30.0297331810"><time>2026-04-25T11:24:18Z</time></trkpt><trkpt lat="59.0779280663" lon="30.0297331810"><time>2026-04-25T11:24:20Z</time></trkpt><trkpt lat="59.0779280663" lon="30.0297331810"><time>2026-04-25T11:24:23Z</time></trkpt><trkpt lat="59.0779280663" lon="30.0297331810"><time>2026-04-25T11:24:25Z</time></trkpt><trkpt lat="59.0779280663" lon="30.0297331810"><time>2026-04-25T11:24:28Z</time></trkpt><trkpt lat="59.0779280663" lon="30.0297331810"><time>2026-04-25T11:24:30Z</time></trkpt><trkpt lat="59.0779280663" lon="30.0297331810"><time>2026-04-25T11:24:33Z</time></trkpt><trkpt lat="59.0779280663" lon="30.0297331810"><time>2026-04-25T11:24:35Z</time></trkpt><trkpt lat="59.0779280663" lon="30.0297331810"><time>2026-04-25T11:24:38Z</time></trkpt><trkpt lat="59.0779280663" lon="30.0297331810"><time>2026-04-25T11:24:40Z</time></trkpt><trkpt lat="59.0779280663" lon="30.0297331810"><time>2026-04-25T11:24:43Z</time></trkpt><trkpt lat="59.0779280663" lon="30.0297331810"><time>2026-04-25T11:24:45Z</time></trkpt><trkpt lat="59.0779280663" lon="30.0297331810"><time>2026-04-25T11:24:48Z</time></trkpt><trkpt lat="59.0779280663" lon="30.0297331810"><time>2026-04-25T11:24:50Z</time></trkpt><trkpt lat="59.0779280663" lon="30.0297331810"><time>2026-04-25T11:24:53Z</time></trkpt><trkpt lat="59.0779280663" lon="30.0297331810"><time>2026-04-25T11:24:55Z</time></trkpt><trkpt lat="59.0779280663" lon="30.0297331810"><time>2026-04-25T11:24:58Z</time></trkpt><trkpt lat="59.0779280663" lon="30.0297331810"><time>2026-04-25T11:25:00Z</time></trkpt><trkpt lat="59.0779280663" lon="30.0297331810"><time>2026-04-25T11:25:03Z</time></trkpt><trkpt lat="59.0779280663" lon="30.0297331810"><time>2026-04-25T11:25:05Z</time></trkpt><trkpt lat="59.0779280663" lon="30.0297331810"><time>2026-04-25T11:25:08Z</time></trkpt><trkpt lat="59.0779280663" lon="30.0297331810"><time>2026-04-25T11:25:10Z</time></trkpt><trkpt lat="59.0779280663" lon="30.0297331810"><time>2026-04-25T11:25:13Z</time></trkpt><trkpt lat="59.0779280663" lon="30.0297331810"><time>2026-04-25T11:25:15Z</time></trkpt><trkpt lat="59.0779280663" lon="30.0296473503"><time>2026-04-25T11:25:18Z</time></trkpt><trkpt lat="59.0779495239" lon="30.0295615196"><time>2026-04-25T11:25:20Z</time></trkpt><trkpt lat="59.0779709816" lon="30.0294756889"><time>2026-04-25T11:25:23Z</time></trkpt><trkpt lat="59.0779924393" lon="30.0294327736"><time>2026-04-25T11:25:25Z</time></trkpt><trkpt lat="59.0779924393" lon="30.0294327736"><time>2026-04-25T11:25:28Z</time></trkpt><trkpt lat="59.0779924393" lon="30.0294113159"><time>2026-04-25T11:25:30Z</time></trkpt><trkpt lat="59.0779924393" lon="30.0294113159"><time>2026-04-25T11:25:33Z</time></trkpt><trkpt lat="59.0779924393" lon="30.0294113159"><time>2026-04-25T11:25:35Z</time></trkpt><trkpt lat="59.0779924393" lon="30.0294113159"><time>2026-04-25T11:25:38Z</time></trkpt><trkpt lat="59.0779924393" lon="30.0294113159"><time>2026-04-25T11:25:40Z</time></trkpt><trkpt lat="59.0779924393" lon="30.0294113159"><time>2026-04-25T11:25:43Z</time></trkpt><trkpt lat="59.0779924393" lon="30.0294113159"><time>2026-04-25T11:25:45Z</time></trkpt><trkpt lat="59.0779924393" lon="30.0294113159"><time>2026-04-25T11:25:48Z</time></trkpt><trkpt lat="59.0779924393" lon="30.0294327736"><time>2026-04-25T11:25:50Z</time></trkpt><trkpt lat="59.0779924393" lon="30.0294327736"><time>2026-04-25T11:25:53Z</time></trkpt><trkpt lat="59.0779924393" lon="30.0294327736"><time>2026-04-25T11:25:55Z</time></trkpt><trkpt lat="59.0779924393" lon="30.0294542313"><time>2026-04-25T11:25:58Z</time></trkpt><trkpt lat="59.0779924393" lon="30.0294542313"><time>2026-04-25T11:26:00Z</time></trkpt><trkpt lat="59.0779924393" lon="30.0294542313"><time>2026-04-25T11:26:03Z</time></trkpt><trkpt lat="59.0780138969" lon="30.0294542313"><time>2026-04-25T11:26:05Z</time></trkpt><trkpt lat="59.0780138969" lon="30.0294542313"><time>2026-04-25T11:26:08Z</time></trkpt><trkpt lat="59.0780138969" lon="30.0294542313"><time>2026-04-25T11:26:10Z</time></trkpt><trkpt lat="59.0780138969" lon="30.0294542313"><time>2026-04-25T11:26:13Z</time></trkpt><trkpt lat="59.0780353546" lon="30.0294327736"><time>2026-04-25T11:26:15Z</time></trkpt><trkpt lat="59.0780353546" lon="30.0294113159"><time>2026-04-25T11:26:18Z</time></trkpt><trkpt lat="59.0780353546" lon="30.0294113159"><time>2026-04-25T11:26:20Z</time></trkpt><trkpt lat="59.0780353546" lon="30.0294113159"><time>2026-04-25T11:26:23Z</time></trkpt><trkpt lat="59.0780353546" lon="30.0294113159"><time>2026-04-25T11:26:25Z</time></trkpt><trkpt lat="59.0780568123" lon="30.0294113159"><time>2026-04-25T11:26:28Z</time></trkpt><trkpt lat="59.0780568123" lon="30.0293684006"><time>2026-04-25T11:26:30Z</time></trkpt><trkpt lat="59.0780782700" lon="30.0293469429"><time>2026-04-25T11:26:33Z</time></trkpt><trkpt lat="59.0780997276" lon="30.0293040276"><time>2026-04-25T11:26:35Z</time></trkpt><trkpt lat="59.0780997276" lon="30.0292611122"><time>2026-04-25T11:26:38Z</time></trkpt><trkpt lat="59.0781211853" lon="30.0292396545"><time>2026-04-25T11:26:40Z</time></trkpt><trkpt lat="59.0781211853" lon="30.0292396545"><time>2026-04-25T11:26:43Z</time></trkpt><trkpt lat="59.0781211853" lon="30.0292396545"><time>2026-04-25T11:26:45Z</time></trkpt><trkpt lat="59.0780997276" lon="30.0292396545"><time>2026-04-25T11:26:48Z</time></trkpt><trkpt lat="59.0781211853" lon="30.0292181969"><time>2026-04-25T11:26:50Z</time></trkpt><trkpt lat="59.0781211853" lon="30.0291967392"><time>2026-04-25T11:26:53Z</time></trkpt><trkpt lat="59.0781426430" lon="30.0291538239"><time>2026-04-25T11:26:55Z</time></trkpt><trkpt lat="59.0781426430" lon="30.0291538239"><time>2026-04-25T11:26:58Z</time></trkpt><trkpt lat="59.0781641006" lon="30.0291538239"><time>2026-04-25T11:27:00Z</time></trkpt><trkpt lat="59.0781641006" lon="30.0291538239"><time>2026-04-25T11:27:03Z</time></trkpt><trkpt lat="59.0781641006" lon="30.0291538239"><time>2026-04-25T11:27:05Z</time></trkpt><trkpt lat="59.0781855583" lon="30.0291323662"><time>2026-04-25T11:27:08Z</time></trkpt><trkpt lat="59.0781855583" lon="30.0290894508"><time>2026-04-25T11:27:10Z</time></trkpt><trkpt lat="59.0781855583" lon="30.0290894508"><time>2026-04-25T11:27:13Z</time></trkpt><trkpt lat="59.0781641006" lon="30.0290465355"><time>2026-04-25T11:27:15Z</time></trkpt><trkpt lat="59.0781641006" lon="30.0290465355"><time>2026-04-25T11:27:18Z</time></trkpt><trkpt lat="59.0781641006" lon="30.0290465355"><time>2026-04-25T11:27:20Z</time></trkpt><trkpt lat="59.0781855583" lon="30.0290250778"><time>2026-04-25T11:27:23Z</time></trkpt><trkpt lat="59.0782070160" lon="30.0290036201"><time>2026-04-25T11:27:25Z</time></trkpt><trkpt lat="59.0782070160" lon="30.0289821625"><time>2026-04-25T11:27:28Z</time></trkpt><trkpt lat="59.0782070160" lon="30.0289821625"><time>2026-04-25T11:27:30Z</time></trkpt><trkpt lat="59.0782070160" lon="30.0289821625"><time>2026-04-25T11:27:33Z</time></trkpt><trkpt lat="59.0782070160" lon="30.0289607048"><time>2026-04-25T11:27:35Z</time></trkpt><trkpt lat="59.0782070160" lon="30.0289607048"><time>2026-04-25T11:27:38Z</time></trkpt><trkpt lat="59.0782284737" lon="30.0289821625"><time>2026-04-25T11:27:40Z</time></trkpt><trkpt lat="59.0782284737" lon="30.0289821625"><time>2026-04-25T11:27:43Z</time></trkpt><trkpt lat="59.0782284737" lon="30.0289821625"><time>2026-04-25T11:27:45Z</time></trkpt><trkpt lat="59.0782284737" lon="30.0289821625"><time>2026-04-25T11:27:48Z</time></trkpt><trkpt lat="59.0782284737" lon="30.0289821625"><time>2026-04-25T11:27:50Z</time></trkpt><trkpt lat="59.0782284737" lon="30.0289821625"><time>2026-04-25T11:27:53Z</time></trkpt><trkpt lat="59.0782284737" lon="30.0289821625"><time>2026-04-25T11:27:55Z</time></trkpt><trkpt lat="59.0782284737" lon="30.0289821625"><time>2026-04-25T11:27:58Z</time></trkpt><trkpt lat="59.0782284737" lon="30.0289821625"><time>2026-04-25T11:28:00Z</time></trkpt><trkpt lat="59.0782284737" lon="30.0289821625"><time>2026-04-25T11:28:03Z</time></trkpt><trkpt lat="59.0782284737" lon="30.0289821625"><time>2026-04-25T11:28:05Z</time></trkpt><trkpt lat="59.0782284737" lon="30.0289821625"><time>2026-04-25T11:28:08Z</time></trkpt><trkpt lat="59.0782284737" lon="30.0289821625"><time>2026-04-25T11:28:10Z</time></trkpt><trkpt lat="59.0782284737" lon="30.0289821625"><time>2026-04-25T11:28:13Z</time></trkpt><trkpt lat="59.0782284737" lon="30.0289821625"><time>2026-04-25T11:28:15Z</time></trkpt><trkpt lat="59.0782284737" lon="30.0289821625"><time>2026-04-25T11:28:18Z</time></trkpt><trkpt lat="59.0782284737" lon="30.0289821625"><time>2026-04-25T11:28:20Z</time></trkpt><trkpt lat="59.0782284737" lon="30.0289821625"><time>2026-04-25T11:28:23Z</time></trkpt><trkpt lat="59.0782284737" lon="30.0289821625"><time>2026-04-25T11:28:25Z</time></trkpt><trkpt lat="59.0782284737" lon="30.0289821625"><time>2026-04-25T11:28:28Z</time></trkpt><trkpt lat="59.0782284737" lon="30.0289607048"><time>2026-04-25T11:28:30Z</time></trkpt><trkpt lat="59.0782499313" lon="30.0289177895"><time>2026-04-25T11:28:33Z</time></trkpt><trkpt lat="59.0782713890" lon="30.0288748741"><time>2026-04-25T11:28:35Z</time></trkpt><trkpt lat="59.0782928467" lon="30.0288319588"><time>2026-04-25T11:28:38Z</time></trkpt><trkpt lat="59.0782928467" lon="30.0288319588"><time>2026-04-25T11:28:40Z</time></trkpt><trkpt lat="59.0782928467" lon="30.0288319588"><time>2026-04-25T11:28:43Z</time></trkpt><trkpt lat="59.0782928467" lon="30.0288319588"><time>2026-04-25T11:28:45Z</time></trkpt><trkpt lat="59.0782928467" lon="30.0288105011"><time>2026-04-25T11:28:48Z</time></trkpt><trkpt lat="59.0782928467" lon="30.0287675858"><time>2026-04-25T11:28:50Z</time></trkpt><trkpt lat="59.0783143044" lon="30.0287246704"><time>2026-04-25T11:28:53Z</time></trkpt><trkpt lat="59.0783143044" lon="30.0287032127"><time>2026-04-25T11:28:55Z</time></trkpt><trkpt lat="59.0783143044" lon="30.0287032127"><time>2026-04-25T11:28:58Z</time></trkpt><trkpt lat="59.0783143044" lon="30.0286817551"><time>2026-04-25T11:29:00Z</time></trkpt><trkpt lat="59.0783143044" lon="30.0286817551"><time>2026-04-25T11:29:03Z</time></trkpt><trkpt lat="59.0783357620" lon="30.0286602974"><time>2026-04-25T11:29:05Z</time></trkpt><trkpt lat="59.0783357620" lon="30.0286388397"><time>2026-04-25T11:29:08Z</time></trkpt><trkpt lat="59.0783357620" lon="30.0286388397"><time>2026-04-25T11:29:10Z</time></trkpt><trkpt lat="59.0783572197" lon="30.0285959244"><time>2026-04-25T11:29:13Z</time></trkpt><trkpt lat="59.0783572197" lon="30.0285959244"><time>2026-04-25T11:29:15Z</time></trkpt><trkpt lat="59.0783572197" lon="30.0285744667"><time>2026-04-25T11:29:18Z</time></trkpt><trkpt lat="59.0783786774" lon="30.0285315514"><time>2026-04-25T11:29:20Z</time></trkpt><trkpt lat="59.0783786774" lon="30.0285100937"><time>2026-04-25T11:29:23Z</time></trkpt><trkpt lat="59.0783786774" lon="30.0284886360"><time>2026-04-25T11:29:25Z</time></trkpt><trkpt lat="59.0783786774" lon="30.0284886360"><time>2026-04-25T11:29:28Z</time></trkpt><trkpt lat="59.0784001350" lon="30.0284457207"><time>2026-04-25T11:29:30Z</time></trkpt><trkpt lat="59.0784215927" lon="30.0284242630"><time>2026-04-25T11:29:33Z</time></trkpt><trkpt lat="59.0784430504" lon="30.0284242630"><time>2026-04-25T11:29:35Z</time></trkpt><trkpt lat="59.0784430504" lon="30.0284028053"><time>2026-04-25T11:29:38Z</time></trkpt><trkpt lat="59.0784645081" lon="30.0283813477"><time>2026-04-25T11:29:40Z</time></trkpt><trkpt lat="59.0784645081" lon="30.0283598900"><time>2026-04-25T11:29:43Z</time></trkpt><trkpt lat="59.0784645081" lon="30.0283598900"><time>2026-04-25T11:29:45Z</time></trkpt><trkpt lat="59.0784645081" lon="30.0283384323"><time>2026-04-25T11:29:48Z</time></trkpt><trkpt lat="59.0784645081" lon="30.0283169746"><time>2026-04-25T11:29:50Z</time></trkpt><trkpt lat="59.0784859657" lon="30.0283169746"><time>2026-04-25T11:29:53Z</time></trkpt><trkpt lat="59.0784859657" lon="30.0283169746"><time>2026-04-25T11:29:55Z</time></trkpt><trkpt lat="59.0784859657" lon="30.0283169746"><time>2026-04-25T11:29:58Z</time></trkpt><trkpt lat="59.0784859657" lon="30.0282955170"><time>2026-04-25T11:30:00Z</time></trkpt><trkpt lat="59.0784859657" lon="30.0282955170"><time>2026-04-25T11:30:03Z</time></trkpt><trkpt lat="59.0784859657" lon="30.0282955170"><time>2026-04-25T11:30:05Z</time></trkpt><trkpt lat="59.0784859657" lon="30.0282955170"><time>2026-04-25T11:30:08Z</time></trkpt><trkpt lat="59.0784859657" lon="30.0282955170"><time>2026-04-25T11:30:10Z</time></trkpt><trkpt lat="59.0784859657" lon="30.0282955170"><time>2026-04-25T11:30:13Z</time></trkpt><trkpt lat="59.0784859657" lon="30.0282955170"><time>2026-04-25T11:30:15Z</time></trkpt><trkpt lat="59.0784859657" lon="30.0282955170"><time>2026-04-25T11:30:18Z</time></trkpt><trkpt lat="59.0784859657" lon="30.0282955170"><time>2026-04-25T11:30:20Z</time></trkpt><trkpt lat="59.0784859657" lon="30.0282955170"><time>2026-04-25T11:30:23Z</time></trkpt><trkpt lat="59.0784859657" lon="30.0282740593"><time>2026-04-25T11:30:28Z</time></trkpt><trkpt lat="59.0784859657" lon="30.0282740593"><time>2026-04-25T11:30:30Z</time></trkpt><trkpt lat="59.0784859657" lon="30.0282740593"><time>2026-04-25T11:30:33Z</time></trkpt><trkpt lat="59.0784859657" lon="30.0282526016"><time>2026-04-25T11:30:35Z</time></trkpt><trkpt lat="59.0784859657" lon="30.0282526016"><time>2026-04-25T11:30:38Z</time></trkpt><trkpt lat="59.0784859657" lon="30.0282526016"><time>2026-04-25T11:30:40Z</time></trkpt><trkpt lat="59.0784859657" lon="30.0282526016"><time>2026-04-25T11:30:43Z</time></trkpt><trkpt lat="59.0784859657" lon="30.0282526016"><time>2026-04-25T11:30:45Z</time></trkpt><trkpt lat="59.0784859657" lon="30.0282526016"><time>2026-04-25T11:30:48Z</time></trkpt><trkpt lat="59.0784859657" lon="30.0282311440"><time>2026-04-25T11:30:50Z</time></trkpt><trkpt lat="59.0784859657" lon="30.0282311440"><time>2026-04-25T11:30:53Z</time></trkpt><trkpt lat="59.0784859657" lon="30.0282096863"><time>2026-04-25T11:30:55Z</time></trkpt><trkpt lat="59.0784859657" lon="30.0282096863"><time>2026-04-25T11:30:58Z</time></trkpt><trkpt lat="59.0784859657" lon="30.0282096863"><time>2026-04-25T11:31:00Z</time></trkpt><trkpt lat="59.0784859657" lon="30.0282096863"><time>2026-04-25T11:31:03Z</time></trkpt><trkpt lat="59.0784859657" lon="30.0282096863"><time>2026-04-25T11:31:05Z</time></trkpt><trkpt lat="59.0784859657" lon="30.0282096863"><time>2026-04-25T11:31:08Z</time></trkpt><trkpt lat="59.0784859657" lon="30.0282096863"><time>2026-04-25T11:31:10Z</time></trkpt><trkpt lat="59.0784859657" lon="30.0282096863"><time>2026-04-25T11:31:13Z</time></trkpt><trkpt lat="59.0784859657" lon="30.0282096863"><time>2026-04-25T11:31:15Z</time></trkpt><trkpt lat="59.0784859657" lon="30.0282096863"><time>2026-04-25T11:31:18Z</time></trkpt><trkpt lat="59.0784859657" lon="30.0282096863"><time>2026-04-25T11:31:20Z</time></trkpt><trkpt lat="59.0784859657" lon="30.0282096863"><time>2026-04-25T11:31:23Z</time></trkpt><trkpt lat="59.0784859657" lon="30.0282096863"><time>2026-04-25T11:31:25Z</time></trkpt><trkpt lat="59.0784859657" lon="30.0282096863"><time>2026-04-25T11:31:28Z</time></trkpt><trkpt lat="59.0784859657" lon="30.0282096863"><time>2026-04-25T11:31:30Z</time></trkpt><trkpt lat="59.0784859657" lon="30.0282096863"><time>2026-04-25T11:31:33Z</time></trkpt><trkpt lat="59.0784859657" lon="30.0282096863"><time>2026-04-25T11:31:35Z</time></trkpt><trkpt lat="59.0784859657" lon="30.0282096863"><time>2026-04-25T11:31:38Z</time></trkpt><trkpt lat="59.0784859657" lon="30.0282096863"><time>2026-04-25T11:31:40Z</time></trkpt><trkpt lat="59.0784859657" lon="30.0282096863"><time>2026-04-25T11:31:43Z</time></trkpt><trkpt lat="59.0784859657" lon="30.0282096863"><time>2026-04-25T11:31:45Z</time></trkpt><trkpt lat="59.0784859657" lon="30.0282096863"><time>2026-04-25T11:31:48Z</time></trkpt><trkpt lat="59.0784859657" lon="30.0281882286"><time>2026-04-25T11:31:50Z</time></trkpt><trkpt lat="59.0784859657" lon="30.0281882286"><time>2026-04-25T11:31:53Z</time></trkpt><trkpt lat="59.0784859657" lon="30.0281882286"><time>2026-04-25T11:31:55Z</time></trkpt><trkpt lat="59.0784859657" lon="30.0281882286"><time>2026-04-25T11:31:58Z</time></trkpt><trkpt lat="59.0784859657" lon="30.0281882286"><time>2026-04-25T11:32:00Z</time></trkpt><trkpt lat="59.0784859657" lon="30.0281882286"><time>2026-04-25T11:32:03Z</time></trkpt><trkpt lat="59.0784859657" lon="30.0281882286"><time>2026-04-25T11:32:05Z</time></trkpt><trkpt lat="59.0784859657" lon="30.0281882286"><time>2026-04-25T11:32:08Z</time></trkpt><trkpt lat="59.0784859657" lon="30.0281882286"><time>2026-04-25T11:32:10Z</time></trkpt><trkpt lat="59.0784859657" lon="30.0281882286"><time>2026-04-25T11:32:13Z</time></trkpt><trkpt lat="59.0784859657" lon="30.0281882286"><time>2026-04-25T11:32:15Z</time></trkpt><trkpt lat="59.0784859657" lon="30.0281882286"><time>2026-04-25T11:32:18Z</time></trkpt><trkpt lat="59.0784859657" lon="30.0281882286"><time>2026-04-25T11:32:20Z</time></trkpt><trkpt lat="59.0784859657" lon="30.0281882286"><time>2026-04-25T11:32:23Z</time></trkpt><trkpt lat="59.0784859657" lon="30.0281882286"><time>2026-04-25T11:32:25Z</time></trkpt><trkpt lat="59.0784859657" lon="30.0281882286"><time>2026-04-25T11:32:28Z</time></trkpt><trkpt lat="59.0784859657" lon="30.0281882286"><time>2026-04-25T11:32:30Z</time></trkpt><trkpt lat="59.0784859657" lon="30.0281882286"><time>2026-04-25T11:32:33Z</time></trkpt><trkpt lat="59.0784859657" lon="30.0281882286"><time>2026-04-25T11:32:35Z</time></trkpt><trkpt lat="59.0784859657" lon="30.0281882286"><time>2026-04-25T11:32:38Z</time></trkpt><trkpt lat="59.0784859657" lon="30.0281882286"><time>2026-04-25T11:32:40Z</time></trkpt><trkpt lat="59.0784859657" lon="30.0281882286"><time>2026-04-25T11:32:43Z</time></trkpt><trkpt lat="59.0784859657" lon="30.0281882286"><time>2026-04-25T11:32:45Z</time></trkpt><trkpt lat="59.0784859657" lon="30.0281882286"><time>2026-04-25T11:32:48Z</time></trkpt><trkpt lat="59.0784859657" lon="30.0281882286"><time>2026-04-25T11:32:50Z</time></trkpt><trkpt lat="59.0784859657" lon="30.0281882286"><time>2026-04-25T11:32:53Z</time></trkpt><trkpt lat="59.0784859657" lon="30.0282096863"><time>2026-04-25T11:32:55Z</time></trkpt><trkpt lat="59.0784859657" lon="30.0282096863"><time>2026-04-25T11:32:58Z</time></trkpt><trkpt lat="59.0784859657" lon="30.0282096863"><time>2026-04-25T11:33:00Z</time></trkpt><trkpt lat="59.0784859657" lon="30.0282096863"><time>2026-04-25T11:33:03Z</time></trkpt><trkpt lat="59.0784859657" lon="30.0282096863"><time>2026-04-25T11:33:05Z</time></trkpt><trkpt lat="59.0784859657" lon="30.0282096863"><time>2026-04-25T11:33:08Z</time></trkpt><trkpt lat="59.0784859657" lon="30.0282096863"><time>2026-04-25T11:33:10Z</time></trkpt><trkpt lat="59.0784859657" lon="30.0282096863"><time>2026-04-25T11:33:13Z</time></trkpt><trkpt lat="59.0784859657" lon="30.0282096863"><time>2026-04-25T11:33:15Z</time></trkpt><trkpt lat="59.0784859657" lon="30.0282096863"><time>2026-04-25T11:33:18Z</time></trkpt><trkpt lat="59.0784859657" lon="30.0282096863"><time>2026-04-25T11:33:20Z</time></trkpt><trkpt lat="59.0784859657" lon="30.0282096863"><time>2026-04-25T11:33:23Z</time></trkpt><trkpt lat="59.0784859657" lon="30.0281882286"><time>2026-04-25T11:33:25Z</time></trkpt><trkpt lat="59.0784859657" lon="30.0281882286"><time>2026-04-25T11:33:28Z</time></trkpt><trkpt lat="59.0785074234" lon="30.0281667709"><time>2026-04-25T11:33:30Z</time></trkpt><trkpt lat="59.0785074234" lon="30.0280380249"><time>2026-04-25T11:33:33Z</time></trkpt><trkpt lat="59.0785503387" lon="30.0279307365"><time>2026-04-25T11:33:35Z</time></trkpt><trkpt lat="59.0785717964" lon="30.0278234482"><time>2026-04-25T11:33:38Z</time></trkpt><trkpt lat="59.0785932541" lon="30.0277590752"><time>2026-04-25T11:33:40Z</time></trkpt><trkpt lat="59.0785932541" lon="30.0277590752"><time>2026-04-25T11:33:43Z</time></trkpt><trkpt lat="59.0786147118" lon="30.0277590752"><time>2026-04-25T11:33:45Z</time></trkpt><trkpt lat="59.0786147118" lon="30.0277590752"><time>2026-04-25T11:33:48Z</time></trkpt><trkpt lat="59.0786361694" lon="30.0277376175"><time>2026-04-25T11:33:50Z</time></trkpt><trkpt lat="59.0786361694" lon="30.0276947021"><time>2026-04-25T11:33:53Z</time></trkpt><trkpt lat="59.0786361694" lon="30.0276517868"><time>2026-04-25T11:33:55Z</time></trkpt><trkpt lat="59.0786361694" lon="30.0276303291"><time>2026-04-25T11:33:58Z</time></trkpt><trkpt lat="59.0786576271" lon="30.0275874138"><time>2026-04-25T11:34:00Z</time></trkpt><trkpt lat="59.0786576271" lon="30.0275230408"><time>2026-04-25T11:34:03Z</time></trkpt><trkpt lat="59.0786361694" lon="30.0274801254"><time>2026-04-25T11:34:05Z</time></trkpt><trkpt lat="59.0786361694" lon="30.0274586678"><time>2026-04-25T11:34:08Z</time></trkpt><trkpt lat="59.0786361694" lon="30.0274372101"><time>2026-04-25T11:34:10Z</time></trkpt><trkpt lat="59.0786576271" lon="30.0274586678"><time>2026-04-25T11:34:13Z</time></trkpt><trkpt lat="59.0786576271" lon="30.0274801254"><time>2026-04-25T11:34:15Z</time></trkpt><trkpt lat="59.0786576271" lon="30.0274801254"><time>2026-04-25T11:34:18Z</time></trkpt><trkpt lat="59.0786576271" lon="30.0274801254"><time>2026-04-25T11:34:20Z</time></trkpt><trkpt lat="59.0786576271" lon="30.0274801254"><time>2026-04-25T11:34:23Z</time></trkpt><trkpt lat="59.0786576271" lon="30.0274801254"><time>2026-04-25T11:34:25Z</time></trkpt><trkpt lat="59.0786576271" lon="30.0274586678"><time>2026-04-25T11:34:28Z</time></trkpt><trkpt lat="59.0786576271" lon="30.0274586678"><time>2026-04-25T11:34:30Z</time></trkpt><trkpt lat="59.0786576271" lon="30.0274586678"><time>2026-04-25T11:34:33Z</time></trkpt><trkpt lat="59.0786576271" lon="30.0274586678"><time>2026-04-25T11:34:35Z</time></trkpt><trkpt lat="59.0786576271" lon="30.0274586678"><time>2026-04-25T11:34:38Z</time></trkpt><trkpt lat="59.0786576271" lon="30.0274586678"><time>2026-04-25T11:34:40Z</time></trkpt><trkpt lat="59.0786576271" lon="30.0274586678"><time>2026-04-25T11:34:43Z</time></trkpt><trkpt lat="59.0786790848" lon="30.0274586678"><time>2026-04-25T11:34:45Z</time></trkpt><trkpt lat="59.0786790848" lon="30.0274586678"><time>2026-04-25T11:34:48Z</time></trkpt><trkpt lat="59.0787005424" lon="30.0274586678"><time>2026-04-25T11:34:50Z</time></trkpt><trkpt lat="59.0787005424" lon="30.0274372101"><time>2026-04-25T11:34:53Z</time></trkpt><trkpt lat="59.0787220001" lon="30.0274157524"><time>2026-04-25T11:34:55Z</time></trkpt><trkpt lat="59.0787220001" lon="30.0274157524"><time>2026-04-25T11:34:58Z</time></trkpt><trkpt lat="59.0787434578" lon="30.0274157524"><time>2026-04-25T11:35:00Z</time></trkpt><trkpt lat="59.0787649155" lon="30.0273728371"><time>2026-04-25T11:35:03Z</time></trkpt><trkpt lat="59.0787649155" lon="30.0273513794"><time>2026-04-25T11:35:05Z</time></trkpt><trkpt lat="59.0787649155" lon="30.0273299217"><time>2026-04-25T11:35:08Z</time></trkpt><trkpt lat="59.0787863731" lon="30.0273084641"><time>2026-04-25T11:35:10Z</time></trkpt><trkpt lat="59.0788078308" lon="30.0273084641"><time>2026-04-25T11:35:13Z</time></trkpt><trkpt lat="59.0788292885" lon="30.0273084641"><time>2026-04-25T11:35:15Z</time></trkpt><trkpt lat="59.0788507462" lon="30.0272440910"><time>2026-04-25T11:35:18Z</time></trkpt><trkpt lat="59.0788936615" lon="30.0272226334"><time>2026-04-25T11:35:20Z</time></trkpt><trkpt lat="59.0789151192" lon="30.0271797180"><time>2026-04-25T11:35:23Z</time></trkpt><trkpt lat="59.0789151192" lon="30.0271582603"><time>2026-04-25T11:35:25Z</time></trkpt><trkpt lat="59.0789151192" lon="30.0271153450"><time>2026-04-25T11:35:28Z</time></trkpt><trkpt lat="59.0788936615" lon="30.0270724297"><time>2026-04-25T11:35:30Z</time></trkpt><trkpt lat="59.0788722038" lon="30.0270295143"><time>2026-04-25T11:35:33Z</time></trkpt><trkpt lat="59.0788936615" lon="30.0270080566"><time>2026-04-25T11:35:35Z</time></trkpt><trkpt lat="59.0789151192" lon="30.0269651413"><time>2026-04-25T11:35:38Z</time></trkpt><trkpt lat="59.0789151192" lon="30.0269222260"><time>2026-04-25T11:35:40Z</time></trkpt><trkpt lat="59.0788936615" lon="30.0269007683"><time>2026-04-25T11:35:43Z</time></trkpt><trkpt lat="59.0788936615" lon="30.0268578529"><time>2026-04-25T11:35:45Z</time></trkpt><trkpt lat="59.0789151192" lon="30.0268363953"><time>2026-04-25T11:35:48Z</time></trkpt><trkpt lat="59.0789151192" lon="30.0267934799"><time>2026-04-25T11:35:50Z</time></trkpt><trkpt lat="59.0789151192" lon="30.0267291069"><time>2026-04-25T11:35:53Z</time></trkpt><trkpt lat="59.0789365768" lon="30.0266647339"><time>2026-04-25T11:35:55Z</time></trkpt><trkpt lat="59.0789794922" lon="30.0266432762"><time>2026-04-25T11:35:58Z</time></trkpt><trkpt lat="59.0790009499" lon="30.0267291069"><time>2026-04-25T11:36:00Z</time></trkpt><trkpt lat="59.0790224075" lon="30.0267720222"><time>2026-04-25T11:36:03Z</time></trkpt><trkpt lat="59.0790438652" lon="30.0267291069"><time>2026-04-25T11:36:05Z</time></trkpt><trkpt lat="59.0790867805" lon="30.0267291069"><time>2026-04-25T11:36:08Z</time></trkpt><trkpt lat="59.0791082382" lon="30.0267291069"><time>2026-04-25T11:36:10Z</time></trkpt><trkpt lat="59.0791082382" lon="30.0267291069"><time>2026-04-25T11:36:13Z</time></trkpt><trkpt lat="59.0791082382" lon="30.0267291069"><time>2026-04-25T11:36:15Z</time></trkpt><trkpt lat="59.0791511536" lon="30.0266861916"><time>2026-04-25T11:36:18Z</time></trkpt><trkpt lat="59.0791511536" lon="30.0266861916"><time>2026-04-25T11:36:20Z</time></trkpt><trkpt lat="59.0791511536" lon="30.0266647339"><time>2026-04-25T11:36:23Z</time></trkpt><trkpt lat="59.0791511536" lon="30.0266647339"><time>2026-04-25T11:36:25Z</time></trkpt><trkpt lat="59.0791511536" lon="30.0266647339"><time>2026-04-25T11:36:28Z</time></trkpt><trkpt lat="59.0791511536" lon="30.0266861916"><time>2026-04-25T11:36:30Z</time></trkpt><trkpt lat="59.0791296959" lon="30.0266647339"><time>2026-04-25T11:36:33Z</time></trkpt><trkpt lat="59.0791296959" lon="30.0265574455"><time>2026-04-25T11:36:35Z</time></trkpt><trkpt lat="59.0791726112" lon="30.0264716148"><time>2026-04-25T11:36:38Z</time></trkpt><trkpt lat="59.0791940689" lon="30.0264286995"><time>2026-04-25T11:36:40Z</time></trkpt><trkpt lat="59.0792155266" lon="30.0263857841"><time>2026-04-25T11:36:43Z</time></trkpt><trkpt lat="59.0792369843" lon="30.0263643265"><time>2026-04-25T11:36:45Z</time></trkpt><trkpt lat="59.0792369843" lon="30.0263428688"><time>2026-04-25T11:36:48Z</time></trkpt><trkpt lat="59.0792369843" lon="30.0262999535"><time>2026-04-25T11:36:50Z</time></trkpt><trkpt lat="59.0792369843" lon="30.0262999535"><time>2026-04-25T11:36:53Z</time></trkpt><trkpt lat="59.0792369843" lon="30.0262784958"><time>2026-04-25T11:36:55Z</time></trkpt><trkpt lat="59.0792584419" lon="30.0262355804"><time>2026-04-25T11:36:58Z</time></trkpt><trkpt lat="59.0792798996" lon="30.0261712074"><time>2026-04-25T11:37:00Z</time></trkpt><trkpt lat="59.0793013573" lon="30.0261282921"><time>2026-04-25T11:37:03Z</time></trkpt><trkpt lat="59.0793228149" lon="30.0260853767"><time>2026-04-25T11:37:05Z</time></trkpt><trkpt lat="59.0792798996" lon="30.0260639191"><time>2026-04-25T11:37:08Z</time></trkpt><trkpt lat="59.0792798996" lon="30.0259995461"><time>2026-04-25T11:37:10Z</time></trkpt><trkpt lat="59.0792798996" lon="30.0259137154"><time>2026-04-25T11:37:13Z</time></trkpt><trkpt lat="59.0792798996" lon="30.0258708000"><time>2026-04-25T11:37:15Z</time></trkpt><trkpt lat="59.0793228149" lon="30.0257849693"><time>2026-04-25T11:37:18Z</time></trkpt><trkpt lat="59.0793228149" lon="30.0256991386"><time>2026-04-25T11:37:20Z</time></trkpt><trkpt lat="59.0793442726" lon="30.0256347656"><time>2026-04-25T11:37:23Z</time></trkpt><trkpt lat="59.0793657303" lon="30.0255918503"><time>2026-04-25T11:37:25Z</time></trkpt><trkpt lat="59.0793871880" lon="30.0255918503"><time>2026-04-25T11:37:28Z</time></trkpt><trkpt lat="59.0793871880" lon="30.0255918503"><time>2026-04-25T11:37:30Z</time></trkpt><trkpt lat="59.0793871880" lon="30.0256133080"><time>2026-04-25T11:37:33Z</time></trkpt><trkpt lat="59.0793657303" lon="30.0256991386"><time>2026-04-25T11:37:35Z</time></trkpt><trkpt lat="59.0793657303" lon="30.0257849693"><time>2026-04-25T11:37:38Z</time></trkpt><trkpt lat="59.0793442726" lon="30.0258278847"><time>2026-04-25T11:37:40Z</time></trkpt><trkpt lat="59.0793442726" lon="30.0258922577"><time>2026-04-25T11:37:43Z</time></trkpt><trkpt lat="59.0793442726" lon="30.0258493423"><time>2026-04-25T11:37:45Z</time></trkpt><trkpt lat="59.0793442726" lon="30.0258278847"><time>2026-04-25T11:37:48Z</time></trkpt><trkpt lat="59.0793657303" lon="30.0258064270"><time>2026-04-25T11:37:50Z</time></trkpt><trkpt lat="59.0793657303" lon="30.0257849693"><time>2026-04-25T11:37:53Z</time></trkpt><trkpt lat="59.0793657303" lon="30.0257849693"><time>2026-04-25T11:37:55Z</time></trkpt><trkpt lat="59.0793871880" lon="30.0257635117"><time>2026-04-25T11:37:58Z</time></trkpt><trkpt lat="59.0793871880" lon="30.0257420540"><time>2026-04-25T11:38:00Z</time></trkpt><trkpt lat="59.0793871880" lon="30.0257205963"><time>2026-04-25T11:38:03Z</time></trkpt><trkpt lat="59.0793871880" lon="30.0256776810"><time>2026-04-25T11:38:05Z</time></trkpt><trkpt lat="59.0794086456" lon="30.0256562233"><time>2026-04-25T11:38:08Z</time></trkpt><trkpt lat="59.0794086456" lon="30.0256133080"><time>2026-04-25T11:38:10Z</time></trkpt><trkpt lat="59.0794086456" lon="30.0255918503"><time>2026-04-25T11:38:13Z</time></trkpt><trkpt lat="59.0794086456" lon="30.0255274773"><time>2026-04-25T11:38:15Z</time></trkpt><trkpt lat="59.0794086456" lon="30.0255274773"><time>2026-04-25T11:38:18Z</time></trkpt><trkpt lat="59.0794515610" lon="30.0255489349"><time>2026-04-25T11:38:20Z</time></trkpt><trkpt lat="59.0794730186" lon="30.0255274773"><time>2026-04-25T11:38:23Z</time></trkpt><trkpt lat="59.0794730186" lon="30.0255274773"><time>2026-04-25T11:38:25Z</time></trkpt><trkpt lat="59.0794515610" lon="30.0255060196"><time>2026-04-25T11:38:28Z</time></trkpt><trkpt lat="59.0794730186" lon="30.0254845619"><time>2026-04-25T11:38:30Z</time></trkpt><trkpt lat="59.0795159340" lon="30.0254631042"><time>2026-04-25T11:38:33Z</time></trkpt><trkpt lat="59.0795159340" lon="30.0254631042"><time>2026-04-25T11:38:35Z</time></trkpt><trkpt lat="59.0795159340" lon="30.0254201889"><time>2026-04-25T11:38:38Z</time></trkpt><trkpt lat="59.0795159340" lon="30.0254201889"><time>2026-04-25T11:38:40Z</time></trkpt><trkpt lat="59.0794944763" lon="30.0253987312"><time>2026-04-25T11:38:43Z</time></trkpt><trkpt lat="59.0794944763" lon="30.0253772736"><time>2026-04-25T11:38:45Z</time></trkpt><trkpt lat="59.0795159340" lon="30.0253987312"><time>2026-04-25T11:38:48Z</time></trkpt><trkpt lat="59.0795588493" lon="30.0253772736"><time>2026-04-25T11:38:50Z</time></trkpt><trkpt lat="59.0795803070" lon="30.0253343582"><time>2026-04-25T11:38:53Z</time></trkpt><trkpt lat="59.0795803070" lon="30.0252914429"><time>2026-04-25T11:38:55Z</time></trkpt><trkpt lat="59.0796232224" lon="30.0252485275"><time>2026-04-25T11:38:58Z</time></trkpt><trkpt lat="59.0796661377" lon="30.0251841545"><time>2026-04-25T11:39:00Z</time></trkpt><trkpt lat="59.0796661377" lon="30.0251197815"><time>2026-04-25T11:39:03Z</time></trkpt><trkpt lat="59.0796446800" lon="30.0250768661"><time>2026-04-25T11:39:05Z</time></trkpt><trkpt lat="59.0796232224" lon="30.0250124931"><time>2026-04-25T11:39:08Z</time></trkpt><trkpt lat="59.0796017647" lon="30.0249052048"><time>2026-04-25T11:39:10Z</time></trkpt><trkpt lat="59.0795803070" lon="30.0248408318"><time>2026-04-25T11:39:13Z</time></trkpt><trkpt lat="59.0795803070" lon="30.0247979164"><time>2026-04-25T11:39:15Z</time></trkpt><trkpt lat="59.0795803070" lon="30.0248408318"><time>2026-04-25T11:39:18Z</time></trkpt><trkpt lat="59.0796017647" lon="30.0249481201"><time>2026-04-25T11:39:20Z</time></trkpt><trkpt lat="59.0796446800" lon="30.0250768661"><time>2026-04-25T11:39:23Z</time></trkpt><trkpt lat="59.0797305107" lon="30.0250983238"><time>2026-04-25T11:39:25Z</time></trkpt><trkpt lat="59.0797948837" lon="30.0250554085"><time>2026-04-25T11:39:28Z</time></trkpt><trkpt lat="59.0798377991" lon="30.0249266624"><time>2026-04-25T11:39:30Z</time></trkpt><trkpt lat="59.0798377991" lon="30.0248408318"><time>2026-04-25T11:39:33Z</time></trkpt><trkpt lat="59.0798377991" lon="30.0247335434"><time>2026-04-25T11:39:36Z</time></trkpt><trkpt lat="59.0798592567" lon="30.0247120857"><time>2026-04-25T11:39:38Z</time></trkpt><trkpt lat="59.0798807144" lon="30.0247335434"><time>2026-04-25T11:39:40Z</time></trkpt><trkpt lat="59.0799236298" lon="30.0247550011"><time>2026-04-25T11:39:43Z</time></trkpt><trkpt lat="59.0799665451" lon="30.0247764587"><time>2026-04-25T11:39:45Z</time></trkpt><trkpt lat="59.0799880028" lon="30.0247120857"><time>2026-04-25T11:39:48Z</time></trkpt><trkpt lat="59.0800523758" lon="30.0246906281"><time>2026-04-25T11:39:50Z</time></trkpt><trkpt lat="59.0800952911" lon="30.0246691704"><time>2026-04-25T11:39:53Z</time></trkpt><trkpt lat="59.0801382065" lon="30.0246477127"><time>2026-04-25T11:39:55Z</time></trkpt><trkpt lat="59.0801811218" lon="30.0246477127"><time>2026-04-25T11:39:58Z</time></trkpt><trkpt lat="59.0801811218" lon="30.0246262550"><time>2026-04-25T11:40:01Z</time></trkpt><trkpt lat="59.0801811218" lon="30.0246691704"><time>2026-04-25T11:40:03Z</time></trkpt><trkpt lat="59.0801596642" lon="30.0247335434"><time>2026-04-25T11:40:05Z</time></trkpt><trkpt lat="59.0801596642" lon="30.0247979164"><time>2026-04-25T11:40:08Z</time></trkpt><trkpt lat="59.0801382065" lon="30.0247550011"><time>2026-04-25T11:40:10Z</time></trkpt><trkpt lat="59.0801167488" lon="30.0247979164"><time>2026-04-25T11:40:13Z</time></trkpt><trkpt lat="59.0801167488" lon="30.0248622894"><time>2026-04-25T11:40:15Z</time></trkpt><trkpt lat="59.0800952911" lon="30.0248837471"><time>2026-04-25T11:40:18Z</time></trkpt><trkpt lat="59.0800309181" lon="30.0248622894"><time>2026-04-25T11:40:20Z</time></trkpt><trkpt lat="59.0799880028" lon="30.0248408318"><time>2026-04-25T11:40:23Z</time></trkpt><trkpt lat="59.0799665451" lon="30.0247979164"><time>2026-04-25T11:40:25Z</time></trkpt><trkpt lat="59.0799665451" lon="30.0247764587"><time>2026-04-25T11:40:28Z</time></trkpt><trkpt lat="59.0799665451" lon="30.0247550011"><time>2026-04-25T11:40:30Z</time></trkpt><trkpt lat="59.0799665451" lon="30.0247764587"><time>2026-04-25T11:40:33Z</time></trkpt><trkpt lat="59.0799665451" lon="30.0247764587"><time>2026-04-25T11:40:35Z</time></trkpt><trkpt lat="59.0799665451" lon="30.0247550011"><time>2026-04-25T11:40:38Z</time></trkpt><trkpt lat="59.0799450874" lon="30.0247335434"><time>2026-04-25T11:40:40Z</time></trkpt><trkpt lat="59.0799665451" lon="30.0247120857"><time>2026-04-25T11:40:43Z</time></trkpt><trkpt lat="59.0799450874" lon="30.0246906281"><time>2026-04-25T11:40:45Z</time></trkpt><trkpt lat="59.0799665451" lon="30.0246477127"><time>2026-04-25T11:40:48Z</time></trkpt><trkpt lat="59.0799665451" lon="30.0246262550"><time>2026-04-25T11:40:50Z</time></trkpt><trkpt lat="59.0799665451" lon="30.0245833397"><time>2026-04-25T11:40:53Z</time></trkpt><trkpt lat="59.0799665451" lon="30.0245618820"><time>2026-04-25T11:40:55Z</time></trkpt><trkpt lat="59.0799450874" lon="30.0245189667"><time>2026-04-25T11:40:58Z</time></trkpt><trkpt lat="59.0799450874" lon="30.0244331360"><time>2026-04-25T11:41:00Z</time></trkpt><trkpt lat="59.0799450874" lon="30.0243902206"><time>2026-04-25T11:41:03Z</time></trkpt><trkpt lat="59.0799665451" lon="30.0244116783"><time>2026-04-25T11:41:06Z</time></trkpt><trkpt lat="59.0799665451" lon="30.0244760513"><time>2026-04-25T11:41:08Z</time></trkpt><trkpt lat="59.0799665451" lon="30.0245189667"><time>2026-04-25T11:41:10Z</time></trkpt><trkpt lat="59.0799665451" lon="30.0245404243"><time>2026-04-25T11:41:13Z</time></trkpt><trkpt lat="59.0799665451" lon="30.0245404243"><time>2026-04-25T11:41:15Z</time></trkpt><trkpt lat="59.0799665451" lon="30.0245404243"><time>2026-04-25T11:41:18Z</time></trkpt><trkpt lat="59.0799665451" lon="30.0245404243"><time>2026-04-25T11:41:20Z</time></trkpt><trkpt lat="59.0799665451" lon="30.0245404243"><time>2026-04-25T11:41:23Z</time></trkpt><trkpt lat="59.0799665451" lon="30.0245404243"><time>2026-04-25T11:41:25Z</time></trkpt><trkpt lat="59.0799665451" lon="30.0245404243"><time>2026-04-25T11:41:28Z</time></trkpt><trkpt lat="59.0799665451" lon="30.0245404243"><time>2026-04-25T11:41:30Z</time></trkpt><trkpt lat="59.0799665451" lon="30.0245618820"><time>2026-04-25T11:41:33Z</time></trkpt><trkpt lat="59.0799450874" lon="30.0245833397"><time>2026-04-25T11:41:35Z</time></trkpt><trkpt lat="59.0799450874" lon="30.0246047974"><time>2026-04-25T11:41:38Z</time></trkpt><trkpt lat="59.0799236298" lon="30.0246691704"><time>2026-04-25T11:41:40Z</time></trkpt><trkpt lat="59.0799021721" lon="30.0246906281"><time>2026-04-25T11:41:43Z</time></trkpt><trkpt lat="59.0799021721" lon="30.0247120857"><time>2026-04-25T11:41:45Z</time></trkpt><trkpt lat="59.0799021721" lon="30.0247120857"><time>2026-04-25T11:41:48Z</time></trkpt><trkpt lat="59.0799021721" lon="30.0247120857"><time>2026-04-25T11:41:50Z</time></trkpt><trkpt lat="59.0799021721" lon="30.0247120857"><time>2026-04-25T11:41:53Z</time></trkpt><trkpt lat="59.0799021721" lon="30.0247120857"><time>2026-04-25T11:41:55Z</time></trkpt><trkpt lat="59.0799021721" lon="30.0247120857"><time>2026-04-25T11:41:58Z</time></trkpt><trkpt lat="59.0799021721" lon="30.0247120857"><time>2026-04-25T11:42:00Z</time></trkpt><trkpt lat="59.0799021721" lon="30.0247120857"><time>2026-04-25T11:42:03Z</time></trkpt><trkpt lat="59.0799021721" lon="30.0247120857"><time>2026-04-25T11:42:05Z</time></trkpt><trkpt lat="59.0799021721" lon="30.0247120857"><time>2026-04-25T11:42:08Z</time></trkpt><trkpt lat="59.0799021721" lon="30.0247120857"><time>2026-04-25T11:42:10Z</time></trkpt><trkpt lat="59.0799021721" lon="30.0247120857"><time>2026-04-25T11:42:13Z</time></trkpt><trkpt lat="59.0799021721" lon="30.0247120857"><time>2026-04-25T11:42:15Z</time></trkpt><trkpt lat="59.0799021721" lon="30.0247120857"><time>2026-04-25T11:42:18Z</time></trkpt><trkpt lat="59.0799021721" lon="30.0246906281"><time>2026-04-25T11:42:20Z</time></trkpt><trkpt lat="59.0799021721" lon="30.0246906281"><time>2026-04-25T11:42:23Z</time></trkpt><trkpt lat="59.0799021721" lon="30.0246906281"><time>2026-04-25T11:42:25Z</time></trkpt><trkpt lat="59.0799021721" lon="30.0246906281"><time>2026-04-25T11:42:28Z</time></trkpt><trkpt lat="59.0799021721" lon="30.0246906281"><time>2026-04-25T11:42:30Z</time></trkpt><trkpt lat="59.0799021721" lon="30.0246906281"><time>2026-04-25T11:42:33Z</time></trkpt><trkpt lat="59.0799021721" lon="30.0246906281"><time>2026-04-25T11:42:35Z</time></trkpt><trkpt lat="59.0799021721" lon="30.0246906281"><time>2026-04-25T11:42:38Z</time></trkpt><trkpt lat="59.0799021721" lon="30.0246906281"><time>2026-04-25T11:42:40Z</time></trkpt><trkpt lat="59.0799021721" lon="30.0246906281"><time>2026-04-25T11:42:43Z</time></trkpt><trkpt lat="59.0799021721" lon="30.0246906281"><time>2026-04-25T11:42:45Z</time></trkpt><trkpt lat="59.0799021721" lon="30.0246906281"><time>2026-04-25T11:42:48Z</time></trkpt><trkpt lat="59.0799021721" lon="30.0246906281"><time>2026-04-25T11:42:50Z</time></trkpt><trkpt lat="59.0799021721" lon="30.0246906281"><time>2026-04-25T11:42:53Z</time></trkpt><trkpt lat="59.0799021721" lon="30.0246906281"><time>2026-04-25T11:42:55Z</time></trkpt><trkpt lat="59.0799021721" lon="30.0246906281"><time>2026-04-25T11:42:58Z</time></trkpt><trkpt lat="59.0799021721" lon="30.0246906281"><time>2026-04-25T11:43:00Z</time></trkpt><trkpt lat="59.0799021721" lon="30.0246906281"><time>2026-04-25T11:43:03Z</time></trkpt><trkpt lat="59.0799021721" lon="30.0246906281"><time>2026-04-25T11:43:05Z</time></trkpt><trkpt lat="59.0799021721" lon="30.0246906281"><time>2026-04-25T11:43:08Z</time></trkpt><trkpt lat="59.0799021721" lon="30.0246906281"><time>2026-04-25T11:43:10Z</time></trkpt><trkpt lat="59.0798807144" lon="30.0246906281"><time>2026-04-25T11:43:13Z</time></trkpt><trkpt lat="59.0798807144" lon="30.0246906281"><time>2026-04-25T11:43:15Z</time></trkpt><trkpt lat="59.0798807144" lon="30.0246906281"><time>2026-04-25T11:43:18Z</time></trkpt><trkpt lat="59.0798807144" lon="30.0246906281"><time>2026-04-25T11:43:20Z</time></trkpt><trkpt lat="59.0798807144" lon="30.0246906281"><time>2026-04-25T11:43:23Z</time></trkpt><trkpt lat="59.0798807144" lon="30.0246906281"><time>2026-04-25T11:43:25Z</time></trkpt><trkpt lat="59.0798807144" lon="30.0246906281"><time>2026-04-25T11:43:28Z</time></trkpt><trkpt lat="59.0798807144" lon="30.0246906281"><time>2026-04-25T11:43:30Z</time></trkpt><trkpt lat="59.0798807144" lon="30.0246906281"><time>2026-04-25T11:43:33Z</time></trkpt><trkpt lat="59.0798807144" lon="30.0246906281"><time>2026-04-25T11:43:35Z</time></trkpt><trkpt lat="59.0798807144" lon="30.0246906281"><time>2026-04-25T11:43:38Z</time></trkpt><trkpt lat="59.0798807144" lon="30.0246906281"><time>2026-04-25T11:43:40Z</time></trkpt><trkpt lat="59.0798807144" lon="30.0246906281"><time>2026-04-25T11:43:43Z</time></trkpt><trkpt lat="59.0798807144" lon="30.0246906281"><time>2026-04-25T11:43:45Z</time></trkpt><trkpt lat="59.0798807144" lon="30.0246906281"><time>2026-04-25T11:43:48Z</time></trkpt><trkpt lat="59.0798807144" lon="30.0246906281"><time>2026-04-25T11:43:50Z</time></trkpt><trkpt lat="59.0798807144" lon="30.0246906281"><time>2026-04-25T11:43:53Z</time></trkpt><trkpt lat="59.0798807144" lon="30.0246906281"><time>2026-04-25T11:43:55Z</time></trkpt><trkpt lat="59.0798807144" lon="30.0246906281"><time>2026-04-25T11:43:58Z</time></trkpt><trkpt lat="59.0798807144" lon="30.0246906281"><time>2026-04-25T11:44:00Z</time></trkpt><trkpt lat="59.0798807144" lon="30.0246906281"><time>2026-04-25T11:44:03Z</time></trkpt><trkpt lat="59.0798807144" lon="30.0246906281"><time>2026-04-25T11:44:05Z</time></trkpt><trkpt lat="59.0798807144" lon="30.0246906281"><time>2026-04-25T11:44:08Z</time></trkpt><trkpt lat="59.0798807144" lon="30.0247120857"><time>2026-04-25T11:44:11Z</time></trkpt><trkpt lat="59.0798807144" lon="30.0247120857"><time>2026-04-25T11:44:13Z</time></trkpt><trkpt lat="59.0798807144" lon="30.0247120857"><time>2026-04-25T11:44:15Z</time></trkpt><trkpt lat="59.0798807144" lon="30.0247120857"><time>2026-04-25T11:44:18Z</time></trkpt><trkpt lat="59.0798807144" lon="30.0247120857"><time>2026-04-25T11:44:20Z</time></trkpt><trkpt lat="59.0798807144" lon="30.0247120857"><time>2026-04-25T11:44:23Z</time></trkpt><trkpt lat="59.0798807144" lon="30.0247120857"><time>2026-04-25T11:44:25Z</time></trkpt><trkpt lat="59.0798807144" lon="30.0247120857"><time>2026-04-25T11:44:28Z</time></trkpt><trkpt lat="59.0798807144" lon="30.0247120857"><time>2026-04-25T11:44:30Z</time></trkpt><trkpt lat="59.0798807144" lon="30.0247120857"><time>2026-04-25T11:44:33Z</time></trkpt><trkpt lat="59.0798807144" lon="30.0247120857"><time>2026-04-25T11:44:36Z</time></trkpt><trkpt lat="59.0798807144" lon="30.0247120857"><time>2026-04-25T11:44:38Z</time></trkpt><trkpt lat="59.0798807144" lon="30.0247120857"><time>2026-04-25T11:44:40Z</time></trkpt><trkpt lat="59.0798807144" lon="30.0247120857"><time>2026-04-25T11:44:43Z</time></trkpt><trkpt lat="59.0798807144" lon="30.0247120857"><time>2026-04-25T11:44:45Z</time></trkpt><trkpt lat="59.0798807144" lon="30.0247120857"><time>2026-04-25T11:44:48Z</time></trkpt><trkpt lat="59.0798807144" lon="30.0247120857"><time>2026-04-25T11:44:50Z</time></trkpt><trkpt lat="59.0798807144" lon="30.0247120857"><time>2026-04-25T11:44:53Z</time></trkpt><trkpt lat="59.0798807144" lon="30.0247120857"><time>2026-04-25T11:44:55Z</time></trkpt><trkpt lat="59.0798807144" lon="30.0247120857"><time>2026-04-25T11:44:58Z</time></trkpt><trkpt lat="59.0798807144" lon="30.0247120857"><time>2026-04-25T11:45:00Z</time></trkpt><trkpt lat="59.0798807144" lon="30.0247120857"><time>2026-04-25T11:45:03Z</time></trkpt><trkpt lat="59.0798807144" lon="30.0247120857"><time>2026-04-25T11:45:05Z</time></trkpt><trkpt lat="59.0798807144" lon="30.0247120857"><time>2026-04-25T11:45:08Z</time></trkpt><trkpt lat="59.0798807144" lon="30.0247120857"><time>2026-04-25T11:45:11Z</time></trkpt><trkpt lat="59.0798807144" lon="30.0247120857"><time>2026-04-25T11:45:13Z</time></trkpt><trkpt lat="59.0798807144" lon="30.0247120857"><time>2026-04-25T11:45:15Z</time></trkpt><trkpt lat="59.0798807144" lon="30.0247120857"><time>2026-04-25T11:45:18Z</time></trkpt><trkpt lat="59.0798807144" lon="30.0247120857"><time>2026-04-25T11:45:20Z</time></trkpt><trkpt lat="59.0798807144" lon="30.0247120857"><time>2026-04-25T11:45:23Z</time></trkpt><trkpt lat="59.0798807144" lon="30.0247120857"><time>2026-04-25T11:45:25Z</time></trkpt><trkpt lat="59.0798807144" lon="30.0247120857"><time>2026-04-25T11:45:28Z</time></trkpt><trkpt lat="59.0798807144" lon="30.0247120857"><time>2026-04-25T11:45:30Z</time></trkpt><trkpt lat="59.0798807144" lon="30.0247120857"><time>2026-04-25T11:45:33Z</time></trkpt><trkpt lat="59.0798807144" lon="30.0247120857"><time>2026-04-25T11:45:36Z</time></trkpt><trkpt lat="59.0798807144" lon="30.0247120857"><time>2026-04-25T11:45:38Z</time></trkpt><trkpt lat="59.0798807144" lon="30.0247335434"><time>2026-04-25T11:45:40Z</time></trkpt><trkpt lat="59.0798807144" lon="30.0247550011"><time>2026-04-25T11:45:43Z</time></trkpt><trkpt lat="59.0799021721" lon="30.0247764587"><time>2026-04-25T11:45:45Z</time></trkpt><trkpt lat="59.0799021721" lon="30.0247979164"><time>2026-04-25T11:45:48Z</time></trkpt><trkpt lat="59.0798807144" lon="30.0247979164"><time>2026-04-25T11:45:50Z</time></trkpt><trkpt lat="59.0798807144" lon="30.0247764587"><time>2026-04-25T11:45:53Z</time></trkpt><trkpt lat="59.0798807144" lon="30.0247764587"><time>2026-04-25T11:45:55Z</time></trkpt><trkpt lat="59.0798807144" lon="30.0247550011"><time>2026-04-25T11:45:58Z</time></trkpt><trkpt lat="59.0798377991" lon="30.0247550011"><time>2026-04-25T11:46:01Z</time></trkpt><trkpt lat="59.0798377991" lon="30.0247335434"><time>2026-04-25T11:46:03Z</time></trkpt><trkpt lat="59.0797948837" lon="30.0247550011"><time>2026-04-25T11:46:05Z</time></trkpt><trkpt lat="59.0797948837" lon="30.0247764587"><time>2026-04-25T11:46:08Z</time></trkpt><trkpt lat="59.0797734261" lon="30.0247979164"><time>2026-04-25T11:46:10Z</time></trkpt><trkpt lat="59.0797519684" lon="30.0248193741"><time>2026-04-25T11:46:13Z</time></trkpt><trkpt lat="59.0797305107" lon="30.0247979164"><time>2026-04-25T11:46:15Z</time></trkpt><trkpt lat="59.0797090530" lon="30.0247764587"><time>2026-04-25T11:46:18Z</time></trkpt><trkpt lat="59.0796875954" lon="30.0247764587"><time>2026-04-25T11:46:20Z</time></trkpt><trkpt lat="59.0796661377" lon="30.0247764587"><time>2026-04-25T11:46:23Z</time></trkpt><trkpt lat="59.0796446800" lon="30.0247979164"><time>2026-04-25T11:46:25Z</time></trkpt><trkpt lat="59.0796232224" lon="30.0247764587"><time>2026-04-25T11:46:28Z</time></trkpt><trkpt lat="59.0796232224" lon="30.0247764587"><time>2026-04-25T11:46:30Z</time></trkpt><trkpt lat="59.0796017647" lon="30.0247764587"><time>2026-04-25T11:46:33Z</time></trkpt><trkpt lat="59.0796017647" lon="30.0247550011"><time>2026-04-25T11:46:35Z</time></trkpt><trkpt lat="59.0796017647" lon="30.0247335434"><time>2026-04-25T11:46:38Z</time></trkpt><trkpt lat="59.0795803070" lon="30.0247335434"><time>2026-04-25T11:46:40Z</time></trkpt><trkpt lat="59.0795373917" lon="30.0247335434"><time>2026-04-25T11:46:43Z</time></trkpt><trkpt lat="59.0794944763" lon="30.0247120857"><time>2026-04-25T11:46:45Z</time></trkpt><trkpt lat="59.0794730186" lon="30.0247335434"><time>2026-04-25T11:46:48Z</time></trkpt><trkpt lat="59.0794515610" lon="30.0247550011"><time>2026-04-25T11:46:50Z</time></trkpt><trkpt lat="59.0794301033" lon="30.0247550011"><time>2026-04-25T11:46:53Z</time></trkpt><trkpt lat="59.0794086456" lon="30.0247335434"><time>2026-04-25T11:46:55Z</time></trkpt><trkpt lat="59.0793657303" lon="30.0247120857"><time>2026-04-25T11:46:58Z</time></trkpt><trkpt lat="59.0793442726" lon="30.0247550011"><time>2026-04-25T11:47:00Z</time></trkpt><trkpt lat="59.0793228149" lon="30.0248193741"><time>2026-04-25T11:47:03Z</time></trkpt><trkpt lat="59.0793228149" lon="30.0248408318"><time>2026-04-25T11:47:05Z</time></trkpt><trkpt lat="59.0793013573" lon="30.0248622894"><time>2026-04-25T11:47:08Z</time></trkpt><trkpt lat="59.0792798996" lon="30.0248837471"><time>2026-04-25T11:47:10Z</time></trkpt><trkpt lat="59.0792369843" lon="30.0249052048"><time>2026-04-25T11:47:13Z</time></trkpt><trkpt lat="59.0791940689" lon="30.0248837471"><time>2026-04-25T11:47:15Z</time></trkpt><trkpt lat="59.0791726112" lon="30.0248193741"><time>2026-04-25T11:47:18Z</time></trkpt><trkpt lat="59.0791726112" lon="30.0247979164"><time>2026-04-25T11:47:20Z</time></trkpt><trkpt lat="59.0791726112" lon="30.0247764587"><time>2026-04-25T11:47:23Z</time></trkpt><trkpt lat="59.0791940689" lon="30.0247764587"><time>2026-04-25T11:47:25Z</time></trkpt><trkpt lat="59.0791940689" lon="30.0247550011"><time>2026-04-25T11:47:28Z</time></trkpt><trkpt lat="59.0791940689" lon="30.0247550011"><time>2026-04-25T11:47:30Z</time></trkpt><trkpt lat="59.0791940689" lon="30.0247550011"><time>2026-04-25T11:47:33Z</time></trkpt><trkpt lat="59.0791940689" lon="30.0247335434"><time>2026-04-25T11:47:35Z</time></trkpt><trkpt lat="59.0791940689" lon="30.0247120857"><time>2026-04-25T11:47:38Z</time></trkpt><trkpt lat="59.0791940689" lon="30.0246906281"><time>2026-04-25T11:47:40Z</time></trkpt><trkpt lat="59.0791940689" lon="30.0246691704"><time>2026-04-25T11:47:43Z</time></trkpt><trkpt lat="59.0791940689" lon="30.0246047974"><time>2026-04-25T11:47:45Z</time></trkpt><trkpt lat="59.0791940689" lon="30.0245833397"><time>2026-04-25T11:47:48Z</time></trkpt><trkpt lat="59.0792155266" lon="30.0245189667"><time>2026-04-25T11:47:50Z</time></trkpt><trkpt lat="59.0792155266" lon="30.0244760513"><time>2026-04-25T11:47:53Z</time></trkpt><trkpt lat="59.0792369843" lon="30.0244975090"><time>2026-04-25T11:47:55Z</time></trkpt><trkpt lat="59.0792369843" lon="30.0244975090"><time>2026-04-25T11:47:58Z</time></trkpt><trkpt lat="59.0792155266" lon="30.0244975090"><time>2026-04-25T11:48:01Z</time></trkpt><trkpt lat="59.0792369843" lon="30.0244975090"><time>2026-04-25T11:48:03Z</time></trkpt><trkpt lat="59.0792369843" lon="30.0245404243"><time>2026-04-25T11:48:05Z</time></trkpt><trkpt lat="59.0792369843" lon="30.0245404243"><time>2026-04-25T11:48:08Z</time></trkpt><trkpt lat="59.0792369843" lon="30.0245404243"><time>2026-04-25T11:48:10Z</time></trkpt><trkpt lat="59.0792369843" lon="30.0245404243"><time>2026-04-25T11:48:13Z</time></trkpt><trkpt lat="59.0792369843" lon="30.0245404243"><time>2026-04-25T11:48:15Z</time></trkpt><trkpt lat="59.0792369843" lon="30.0245404243"><time>2026-04-25T11:48:18Z</time></trkpt><trkpt lat="59.0792369843" lon="30.0245404243"><time>2026-04-25T11:48:20Z</time></trkpt><trkpt lat="59.0792369843" lon="30.0245404243"><time>2026-04-25T11:48:23Z</time></trkpt><trkpt lat="59.0792369843" lon="30.0245404243"><time>2026-04-25T11:48:25Z</time></trkpt><trkpt lat="59.0792369843" lon="30.0245404243"><time>2026-04-25T11:48:28Z</time></trkpt><trkpt lat="59.0792369843" lon="30.0245404243"><time>2026-04-25T11:48:30Z</time></trkpt><trkpt lat="59.0792369843" lon="30.0245618820"><time>2026-04-25T11:48:33Z</time></trkpt><trkpt lat="59.0792369843" lon="30.0245833397"><time>2026-04-25T11:48:35Z</time></trkpt><trkpt lat="59.0792584419" lon="30.0246047974"><time>2026-04-25T11:48:38Z</time></trkpt><trkpt lat="59.0792584419" lon="30.0246262550"><time>2026-04-25T11:48:40Z</time></trkpt><trkpt lat="59.0792584419" lon="30.0246477127"><time>2026-04-25T11:48:43Z</time></trkpt><trkpt lat="59.0792584419" lon="30.0246906281"><time>2026-04-25T11:48:45Z</time></trkpt><trkpt lat="59.0792584419" lon="30.0247120857"><time>2026-04-25T11:48:48Z</time></trkpt><trkpt lat="59.0792584419" lon="30.0247120857"><time>2026-04-25T11:48:50Z</time></trkpt><trkpt lat="59.0792584419" lon="30.0247120857"><time>2026-04-25T11:48:53Z</time></trkpt><trkpt lat="59.0792584419" lon="30.0247120857"><time>2026-04-25T11:48:55Z</time></trkpt><trkpt lat="59.0792584419" lon="30.0247120857"><time>2026-04-25T11:48:58Z</time></trkpt><trkpt lat="59.0792584419" lon="30.0247120857"><time>2026-04-25T11:49:00Z</time></trkpt><trkpt lat="59.0792584419" lon="30.0247120857"><time>2026-04-25T11:49:03Z</time></trkpt><trkpt lat="59.0792584419" lon="30.0247120857"><time>2026-04-25T11:49:05Z</time></trkpt><trkpt lat="59.0792584419" lon="30.0247120857"><time>2026-04-25T11:49:08Z</time></trkpt><trkpt lat="59.0792584419" lon="30.0247120857"><time>2026-04-25T11:49:10Z</time></trkpt><trkpt lat="59.0792584419" lon="30.0247120857"><time>2026-04-25T11:49:13Z</time></trkpt><trkpt lat="59.0792584419" lon="30.0247120857"><time>2026-04-25T11:49:15Z</time></trkpt><trkpt lat="59.0792584419" lon="30.0247335434"><time>2026-04-25T11:49:18Z</time></trkpt><trkpt lat="59.0792369843" lon="30.0247764587"><time>2026-04-25T11:49:20Z</time></trkpt><trkpt lat="59.0792369843" lon="30.0247979164"><time>2026-04-25T11:49:23Z</time></trkpt><trkpt lat="59.0792369843" lon="30.0247979164"><time>2026-04-25T11:49:25Z</time></trkpt><trkpt lat="59.0792369843" lon="30.0247979164"><time>2026-04-25T11:49:28Z</time></trkpt><trkpt lat="59.0792369843" lon="30.0248193741"><time>2026-04-25T11:49:30Z</time></trkpt><trkpt lat="59.0792369843" lon="30.0248193741"><time>2026-04-25T11:49:33Z</time></trkpt><trkpt lat="59.0792369843" lon="30.0248408318"><time>2026-04-25T11:49:35Z</time></trkpt><trkpt lat="59.0792155266" lon="30.0248622894"><time>2026-04-25T11:49:38Z</time></trkpt><trkpt lat="59.0792155266" lon="30.0248837471"><time>2026-04-25T11:49:40Z</time></trkpt><trkpt lat="59.0791726112" lon="30.0249052048"><time>2026-04-25T11:49:43Z</time></trkpt><trkpt lat="59.0791726112" lon="30.0249052048"><time>2026-04-25T11:49:45Z</time></trkpt><trkpt lat="59.0791511536" lon="30.0249266624"><time>2026-04-25T11:49:48Z</time></trkpt><trkpt lat="59.0791511536" lon="30.0249481201"><time>2026-04-25T11:49:50Z</time></trkpt><trkpt lat="59.0791511536" lon="30.0249695778"><time>2026-04-25T11:49:53Z</time></trkpt><trkpt lat="59.0791296959" lon="30.0249910355"><time>2026-04-25T11:49:55Z</time></trkpt><trkpt lat="59.0791082382" lon="30.0250124931"><time>2026-04-25T11:49:58Z</time></trkpt><trkpt lat="59.0791082382" lon="30.0250339508"><time>2026-04-25T11:50:00Z</time></trkpt><trkpt lat="59.0790867805" lon="30.0250339508"><time>2026-04-25T11:50:03Z</time></trkpt><trkpt lat="59.0790653229" lon="30.0250554085"><time>2026-04-25T11:50:05Z</time></trkpt><trkpt lat="59.0790653229" lon="30.0250768661"><time>2026-04-25T11:50:08Z</time></trkpt><trkpt lat="59.0790653229" lon="30.0250768661"><time>2026-04-25T11:50:10Z</time></trkpt><trkpt lat="59.0790438652" lon="30.0250768661"><time>2026-04-25T11:50:13Z</time></trkpt><trkpt lat="59.0790224075" lon="30.0250768661"><time>2026-04-25T11:50:15Z</time></trkpt><trkpt lat="59.0790438652" lon="30.0250983238"><time>2026-04-25T11:50:18Z</time></trkpt><trkpt lat="59.0790438652" lon="30.0251626968"><time>2026-04-25T11:50:20Z</time></trkpt><trkpt lat="59.0790438652" lon="30.0252270699"><time>2026-04-25T11:50:23Z</time></trkpt><trkpt lat="59.0790438652" lon="30.0252699852"><time>2026-04-25T11:50:25Z</time></trkpt><trkpt lat="59.0790653229" lon="30.0253129005"><time>2026-04-25T11:50:28Z</time></trkpt><trkpt lat="59.0790438652" lon="30.0253772736"><time>2026-04-25T11:50:30Z</time></trkpt><trkpt lat="59.0790438652" lon="30.0253987312"><time>2026-04-25T11:50:33Z</time></trkpt><trkpt lat="59.0790438652" lon="30.0253987312"><time>2026-04-25T11:50:35Z</time></trkpt><trkpt lat="59.0790224075" lon="30.0254416466"><time>2026-04-25T11:50:38Z</time></trkpt><trkpt lat="59.0790009499" lon="30.0254845619"><time>2026-04-25T11:50:40Z</time></trkpt><trkpt lat="59.0789794922" lon="30.0254845619"><time>2026-04-25T11:50:43Z</time></trkpt><trkpt lat="59.0789580345" lon="30.0254631042"><time>2026-04-25T11:50:45Z</time></trkpt><trkpt lat="59.0789365768" lon="30.0254845619"><time>2026-04-25T11:50:48Z</time></trkpt><trkpt lat="59.0789365768" lon="30.0255060196"><time>2026-04-25T11:50:50Z</time></trkpt><trkpt lat="59.0789151192" lon="30.0255489349"><time>2026-04-25T11:50:53Z</time></trkpt><trkpt lat="59.0788936615" lon="30.0255489349"><time>2026-04-25T11:50:55Z</time></trkpt><trkpt lat="59.0788936615" lon="30.0255489349"><time>2026-04-25T11:50:58Z</time></trkpt><trkpt lat="59.0788936615" lon="30.0255703926"><time>2026-04-25T11:51:00Z</time></trkpt><trkpt lat="59.0789151192" lon="30.0255703926"><time>2026-04-25T11:51:03Z</time></trkpt><trkpt lat="59.0788936615" lon="30.0255489349"><time>2026-04-25T11:51:06Z</time></trkpt><trkpt lat="59.0788936615" lon="30.0255489349"><time>2026-04-25T11:51:08Z</time></trkpt><trkpt lat="59.0788936615" lon="30.0255489349"><time>2026-04-25T11:51:10Z</time></trkpt><trkpt lat="59.0788936615" lon="30.0255489349"><time>2026-04-25T11:51:13Z</time></trkpt><trkpt lat="59.0788936615" lon="30.0255489349"><time>2026-04-25T11:51:15Z</time></trkpt><trkpt lat="59.0788936615" lon="30.0255489349"><time>2026-04-25T11:51:18Z</time></trkpt><trkpt lat="59.0788936615" lon="30.0255489349"><time>2026-04-25T11:51:20Z</time></trkpt><trkpt lat="59.0788936615" lon="30.0255489349"><time>2026-04-25T11:51:23Z</time></trkpt><trkpt lat="59.0788936615" lon="30.0255489349"><time>2026-04-25T11:51:25Z</time></trkpt><trkpt lat="59.0788936615" lon="30.0255489349"><time>2026-04-25T11:51:28Z</time></trkpt><trkpt lat="59.0788936615" lon="30.0255489349"><time>2026-04-25T11:51:31Z</time></trkpt><trkpt lat="59.0788936615" lon="30.0255489349"><time>2026-04-25T11:51:33Z</time></trkpt><trkpt lat="59.0788936615" lon="30.0255489349"><time>2026-04-25T11:51:35Z</time></trkpt><trkpt lat="59.0788936615" lon="30.0255703926"><time>2026-04-25T11:51:38Z</time></trkpt><trkpt lat="59.0788936615" lon="30.0255703926"><time>2026-04-25T11:51:40Z</time></trkpt><trkpt lat="59.0788936615" lon="30.0255703926"><time>2026-04-25T11:51:43Z</time></trkpt><trkpt lat="59.0788936615" lon="30.0255703926"><time>2026-04-25T11:51:45Z</time></trkpt><trkpt lat="59.0788936615" lon="30.0255703926"><time>2026-04-25T11:51:48Z</time></trkpt><trkpt lat="59.0788936615" lon="30.0255703926"><time>2026-04-25T11:51:50Z</time></trkpt><trkpt lat="59.0788936615" lon="30.0255703926"><time>2026-04-25T11:51:53Z</time></trkpt><trkpt lat="59.0788936615" lon="30.0255703926"><time>2026-04-25T11:51:55Z</time></trkpt><trkpt lat="59.0788936615" lon="30.0255703926"><time>2026-04-25T11:51:58Z</time></trkpt><trkpt lat="59.0788936615" lon="30.0255703926"><time>2026-04-25T11:52:00Z</time></trkpt><trkpt lat="59.0788936615" lon="30.0255489349"><time>2026-04-25T11:52:03Z</time></trkpt><trkpt lat="59.0789151192" lon="30.0255489349"><time>2026-04-25T11:52:05Z</time></trkpt><trkpt lat="59.0789365768" lon="30.0255489349"><time>2026-04-25T11:52:08Z</time></trkpt><trkpt lat="59.0789580345" lon="30.0255489349"><time>2026-04-25T11:52:10Z</time></trkpt><trkpt lat="59.0789580345" lon="30.0255489349"><time>2026-04-25T11:52:13Z</time></trkpt><trkpt lat="59.0789580345" lon="30.0255489349"><time>2026-04-25T11:52:15Z</time></trkpt><trkpt lat="59.0789580345" lon="30.0255489349"><time>2026-04-25T11:52:18Z</time></trkpt><trkpt lat="59.0789580345" lon="30.0255489349"><time>2026-04-25T11:52:20Z</time></trkpt><trkpt lat="59.0789794922" lon="30.0255489349"><time>2026-04-25T11:52:23Z</time></trkpt><trkpt lat="59.0789794922" lon="30.0255703926"><time>2026-04-25T11:52:25Z</time></trkpt><trkpt lat="59.0789794922" lon="30.0256133080"><time>2026-04-25T11:52:28Z</time></trkpt><trkpt lat="59.0790009499" lon="30.0256562233"><time>2026-04-25T11:52:30Z</time></trkpt><trkpt lat="59.0790009499" lon="30.0257205963"><time>2026-04-25T11:52:33Z</time></trkpt><trkpt lat="59.0790009499" lon="30.0257420540"><time>2026-04-25T11:52:35Z</time></trkpt><trkpt lat="59.0790009499" lon="30.0257635117"><time>2026-04-25T11:52:38Z</time></trkpt><trkpt lat="59.0790009499" lon="30.0257420540"><time>2026-04-25T11:52:40Z</time></trkpt><trkpt lat="59.0790009499" lon="30.0257420540"><time>2026-04-25T11:52:43Z</time></trkpt><trkpt lat="59.0790009499" lon="30.0257635117"><time>2026-04-25T11:52:45Z</time></trkpt><trkpt lat="59.0790009499" lon="30.0257635117"><time>2026-04-25T11:52:48Z</time></trkpt><trkpt lat="59.0790009499" lon="30.0257635117"><time>2026-04-25T11:52:50Z</time></trkpt><trkpt lat="59.0790009499" lon="30.0257635117"><time>2026-04-25T11:52:53Z</time></trkpt><trkpt lat="59.0790224075" lon="30.0257635117"><time>2026-04-25T11:52:55Z</time></trkpt><trkpt lat="59.0790438652" lon="30.0257635117"><time>2026-04-25T11:52:58Z</time></trkpt><trkpt lat="59.0790438652" lon="30.0257420540"><time>2026-04-25T11:53:00Z</time></trkpt><trkpt lat="59.0790653229" lon="30.0256991386"><time>2026-04-25T11:53:03Z</time></trkpt><trkpt lat="59.0790438652" lon="30.0258064270"><time>2026-04-25T11:53:05Z</time></trkpt><trkpt lat="59.0790438652" lon="30.0259137154"><time>2026-04-25T11:53:08Z</time></trkpt><trkpt lat="59.0790224075" lon="30.0259351730"><time>2026-04-25T11:53:10Z</time></trkpt><trkpt lat="59.0790224075" lon="30.0259566307"><time>2026-04-25T11:53:13Z</time></trkpt><trkpt lat="59.0790009499" lon="30.0259780884"><time>2026-04-25T11:53:15Z</time></trkpt><trkpt lat="59.0790009499" lon="30.0259995461"><time>2026-04-25T11:53:18Z</time></trkpt><trkpt lat="59.0790009499" lon="30.0259780884"><time>2026-04-25T11:53:20Z</time></trkpt><trkpt lat="59.0790009499" lon="30.0259780884"><time>2026-04-25T11:53:23Z</time></trkpt><trkpt lat="59.0790224075" lon="30.0259566307"><time>2026-04-25T11:53:25Z</time></trkpt><trkpt lat="59.0790224075" lon="30.0259566307"><time>2026-04-25T11:53:28Z</time></trkpt><trkpt lat="59.0790224075" lon="30.0259566307"><time>2026-04-25T11:53:30Z</time></trkpt><trkpt lat="59.0790224075" lon="30.0259566307"><time>2026-04-25T11:53:33Z</time></trkpt><trkpt lat="59.0790224075" lon="30.0259566307"><time>2026-04-25T11:53:35Z</time></trkpt><trkpt lat="59.0790224075" lon="30.0259566307"><time>2026-04-25T11:53:38Z</time></trkpt><trkpt lat="59.0790224075" lon="30.0259566307"><time>2026-04-25T11:53:40Z</time></trkpt><trkpt lat="59.0790224075" lon="30.0259566307"><time>2026-04-25T11:53:43Z</time></trkpt><trkpt lat="59.0790224075" lon="30.0259566307"><time>2026-04-25T11:53:45Z</time></trkpt><trkpt lat="59.0790224075" lon="30.0259566307"><time>2026-04-25T11:53:48Z</time></trkpt><trkpt lat="59.0790224075" lon="30.0259780884"><time>2026-04-25T11:53:50Z</time></trkpt><trkpt lat="59.0790224075" lon="30.0259780884"><time>2026-04-25T11:53:53Z</time></trkpt><trkpt lat="59.0790224075" lon="30.0259995461"><time>2026-04-25T11:53:55Z</time></trkpt><trkpt lat="59.0790009499" lon="30.0260210037"><time>2026-04-25T11:53:58Z</time></trkpt><trkpt lat="59.0790009499" lon="30.0260210037"><time>2026-04-25T11:54:00Z</time></trkpt><trkpt lat="59.0789794922" lon="30.0260424614"><time>2026-04-25T11:54:03Z</time></trkpt><trkpt lat="59.0789794922" lon="30.0260639191"><time>2026-04-25T11:54:05Z</time></trkpt><trkpt lat="59.0789794922" lon="30.0260424614"><time>2026-04-25T11:54:08Z</time></trkpt><trkpt lat="59.0789580345" lon="30.0260424614"><time>2026-04-25T11:54:10Z</time></trkpt><trkpt lat="59.0789580345" lon="30.0260424614"><time>2026-04-25T11:54:13Z</time></trkpt><trkpt lat="59.0789580345" lon="30.0260639191"><time>2026-04-25T11:54:15Z</time></trkpt><trkpt lat="59.0789580345" lon="30.0260424614"><time>2026-04-25T11:54:18Z</time></trkpt><trkpt lat="59.0789580345" lon="30.0260424614"><time>2026-04-25T11:54:20Z</time></trkpt><trkpt lat="59.0789365768" lon="30.0260210037"><time>2026-04-25T11:54:23Z</time></trkpt><trkpt lat="59.0789365768" lon="30.0260210037"><time>2026-04-25T11:54:25Z</time></trkpt><trkpt lat="59.0789151192" lon="30.0260210037"><time>2026-04-25T11:54:28Z</time></trkpt><trkpt lat="59.0788936615" lon="30.0259995461"><time>2026-04-25T11:54:30Z</time></trkpt><trkpt lat="59.0788936615" lon="30.0259995461"><time>2026-04-25T11:54:33Z</time></trkpt><trkpt lat="59.0788722038" lon="30.0259995461"><time>2026-04-25T11:54:35Z</time></trkpt><trkpt lat="59.0788507462" lon="30.0259780884"><time>2026-04-25T11:54:38Z</time></trkpt><trkpt lat="59.0788507462" lon="30.0259995461"><time>2026-04-25T11:54:40Z</time></trkpt><trkpt lat="59.0788292885" lon="30.0259995461"><time>2026-04-25T11:54:43Z</time></trkpt><trkpt lat="59.0788292885" lon="30.0259995461"><time>2026-04-25T11:54:45Z</time></trkpt><trkpt lat="59.0788292885" lon="30.0259995461"><time>2026-04-25T11:54:48Z</time></trkpt><trkpt lat="59.0788292885" lon="30.0259995461"><time>2026-04-25T11:54:50Z</time></trkpt><trkpt lat="59.0788292885" lon="30.0259995461"><time>2026-04-25T11:54:53Z</time></trkpt><trkpt lat="59.0788292885" lon="30.0259995461"><time>2026-04-25T11:54:55Z</time></trkpt><trkpt lat="59.0788292885" lon="30.0259995461"><time>2026-04-25T11:54:58Z</time></trkpt><trkpt lat="59.0788292885" lon="30.0259995461"><time>2026-04-25T11:55:00Z</time></trkpt><trkpt lat="59.0788292885" lon="30.0259995461"><time>2026-04-25T11:55:03Z</time></trkpt><trkpt lat="59.0788292885" lon="30.0259995461"><time>2026-04-25T11:55:05Z</time></trkpt><trkpt lat="59.0788292885" lon="30.0260210037"><time>2026-04-25T11:55:08Z</time></trkpt><trkpt lat="59.0788292885" lon="30.0260210037"><time>2026-04-25T11:55:10Z</time></trkpt><trkpt lat="59.0788292885" lon="30.0260210037"><time>2026-04-25T11:55:13Z</time></trkpt><trkpt lat="59.0788292885" lon="30.0260210037"><time>2026-04-25T11:55:15Z</time></trkpt><trkpt lat="59.0788292885" lon="30.0260210037"><time>2026-04-25T11:55:18Z</time></trkpt><trkpt lat="59.0788078308" lon="30.0260210037"><time>2026-04-25T11:55:21Z</time></trkpt><trkpt lat="59.0788078308" lon="30.0260424614"><time>2026-04-25T11:55:23Z</time></trkpt><trkpt lat="59.0787863731" lon="30.0260424614"><time>2026-04-25T11:55:25Z</time></trkpt><trkpt lat="59.0787863731" lon="30.0260424614"><time>2026-04-25T11:55:28Z</time></trkpt><trkpt lat="59.0787863731" lon="30.0260424614"><time>2026-04-25T11:55:30Z</time></trkpt><trkpt lat="59.0787863731" lon="30.0260424614"><time>2026-04-25T11:55:33Z</time></trkpt><trkpt lat="59.0787649155" lon="30.0260424614"><time>2026-04-25T11:55:35Z</time></trkpt><trkpt lat="59.0787649155" lon="30.0260639191"><time>2026-04-25T11:55:38Z</time></trkpt><trkpt lat="59.0787649155" lon="30.0260639191"><time>2026-04-25T11:55:40Z</time></trkpt><trkpt lat="59.0787649155" lon="30.0260639191"><time>2026-04-25T11:55:43Z</time></trkpt><trkpt lat="59.0787649155" lon="30.0260853767"><time>2026-04-25T11:55:45Z</time></trkpt><trkpt lat="59.0787649155" lon="30.0260853767"><time>2026-04-25T11:55:48Z</time></trkpt><trkpt lat="59.0787649155" lon="30.0260853767"><time>2026-04-25T11:55:50Z</time></trkpt><trkpt lat="59.0787434578" lon="30.0261068344"><time>2026-04-25T11:55:53Z</time></trkpt><trkpt lat="59.0787434578" lon="30.0261068344"><time>2026-04-25T11:55:55Z</time></trkpt><trkpt lat="59.0787220001" lon="30.0261068344"><time>2026-04-25T11:55:58Z</time></trkpt><trkpt lat="59.0787220001" lon="30.0261068344"><time>2026-04-25T11:56:00Z</time></trkpt><trkpt lat="59.0787220001" lon="30.0261068344"><time>2026-04-25T11:56:03Z</time></trkpt><trkpt lat="59.0787220001" lon="30.0261068344"><time>2026-04-25T11:56:05Z</time></trkpt><trkpt lat="59.0787220001" lon="30.0261068344"><time>2026-04-25T11:56:08Z</time></trkpt><trkpt lat="59.0787220001" lon="30.0261068344"><time>2026-04-25T11:56:10Z</time></trkpt><trkpt lat="59.0787220001" lon="30.0261068344"><time>2026-04-25T11:56:13Z</time></trkpt><trkpt lat="59.0787220001" lon="30.0261068344"><time>2026-04-25T11:56:15Z</time></trkpt><trkpt lat="59.0787220001" lon="30.0260853767"><time>2026-04-25T11:56:18Z</time></trkpt><trkpt lat="59.0787220001" lon="30.0260853767"><time>2026-04-25T11:56:20Z</time></trkpt><trkpt lat="59.0787220001" lon="30.0260853767"><time>2026-04-25T11:56:23Z</time></trkpt><trkpt lat="59.0787220001" lon="30.0260853767"><time>2026-04-25T11:56:25Z</time></trkpt><trkpt lat="59.0787220001" lon="30.0260853767"><time>2026-04-25T11:56:28Z</time></trkpt><trkpt lat="59.0787220001" lon="30.0260853767"><time>2026-04-25T11:56:30Z</time></trkpt><trkpt lat="59.0787220001" lon="30.0260853767"><time>2026-04-25T11:56:33Z</time></trkpt><trkpt lat="59.0787220001" lon="30.0260853767"><time>2026-04-25T11:56:36Z</time></trkpt><trkpt lat="59.0787220001" lon="30.0260853767"><time>2026-04-25T11:56:38Z</time></trkpt><trkpt lat="59.0787220001" lon="30.0260853767"><time>2026-04-25T11:56:40Z</time></trkpt><trkpt lat="59.0787220001" lon="30.0260853767"><time>2026-04-25T11:56:43Z</time></trkpt><trkpt lat="59.0787220001" lon="30.0260853767"><time>2026-04-25T11:56:45Z</time></trkpt><trkpt lat="59.0787220001" lon="30.0260853767"><time>2026-04-25T11:56:48Z</time></trkpt><trkpt lat="59.0787220001" lon="30.0260853767"><time>2026-04-25T11:56:50Z</time></trkpt><trkpt lat="59.0787220001" lon="30.0260853767"><time>2026-04-25T11:56:53Z</time></trkpt><trkpt lat="59.0787220001" lon="30.0261068344"><time>2026-04-25T11:56:55Z</time></trkpt><trkpt lat="59.0787220001" lon="30.0261282921"><time>2026-04-25T11:56:58Z</time></trkpt><trkpt lat="59.0787005424" lon="30.0261712074"><time>2026-04-25T11:57:00Z</time></trkpt><trkpt lat="59.0787005424" lon="30.0261712074"><time>2026-04-25T11:57:03Z</time></trkpt><trkpt lat="59.0787005424" lon="30.0261926651"><time>2026-04-25T11:57:05Z</time></trkpt><trkpt lat="59.0787005424" lon="30.0262141228"><time>2026-04-25T11:57:08Z</time></trkpt><trkpt lat="59.0787005424" lon="30.0262141228"><time>2026-04-25T11:57:11Z</time></trkpt><trkpt lat="59.0787005424" lon="30.0262141228"><time>2026-04-25T11:57:13Z</time></trkpt><trkpt lat="59.0787005424" lon="30.0262141228"><time>2026-04-25T11:57:15Z</time></trkpt><trkpt lat="59.0787005424" lon="30.0262355804"><time>2026-04-25T11:57:18Z</time></trkpt><trkpt lat="59.0787005424" lon="30.0262355804"><time>2026-04-25T11:57:20Z</time></trkpt><trkpt lat="59.0787005424" lon="30.0262570381"><time>2026-04-25T11:57:23Z</time></trkpt><trkpt lat="59.0787005424" lon="30.0262570381"><time>2026-04-25T11:57:25Z</time></trkpt><trkpt lat="59.0787005424" lon="30.0262784958"><time>2026-04-25T11:57:28Z</time></trkpt><trkpt lat="59.0787005424" lon="30.0262784958"><time>2026-04-25T11:57:30Z</time></trkpt><trkpt lat="59.0786790848" lon="30.0262784958"><time>2026-04-25T11:57:33Z</time></trkpt><trkpt lat="59.0786790848" lon="30.0262999535"><time>2026-04-25T11:57:35Z</time></trkpt><trkpt lat="59.0786790848" lon="30.0262999535"><time>2026-04-25T11:57:38Z</time></trkpt><trkpt lat="59.0786790848" lon="30.0262999535"><time>2026-04-25T11:57:40Z</time></trkpt><trkpt lat="59.0786790848" lon="30.0262999535"><time>2026-04-25T11:57:43Z</time></trkpt><trkpt lat="59.0786790848" lon="30.0262999535"><time>2026-04-25T11:57:45Z</time></trkpt><trkpt lat="59.0786790848" lon="30.0262999535"><time>2026-04-25T11:57:48Z</time></trkpt><trkpt lat="59.0786576271" lon="30.0262999535"><time>2026-04-25T11:57:50Z</time></trkpt><trkpt lat="59.0786576271" lon="30.0262999535"><time>2026-04-25T11:57:53Z</time></trkpt><trkpt lat="59.0786576271" lon="30.0262999535"><time>2026-04-25T11:57:55Z</time></trkpt><trkpt lat="59.0786361694" lon="30.0262999535"><time>2026-04-25T11:57:58Z</time></trkpt><trkpt lat="59.0786361694" lon="30.0263214111"><time>2026-04-25T11:58:00Z</time></trkpt><trkpt lat="59.0786147118" lon="30.0263214111"><time>2026-04-25T11:58:03Z</time></trkpt><trkpt lat="59.0786147118" lon="30.0263214111"><time>2026-04-25T11:58:05Z</time></trkpt><trkpt lat="59.0786147118" lon="30.0263214111"><time>2026-04-25T11:58:08Z</time></trkpt><trkpt lat="59.0786147118" lon="30.0263214111"><time>2026-04-25T11:58:10Z</time></trkpt><trkpt lat="59.0786147118" lon="30.0263214111"><time>2026-04-25T11:58:13Z</time></trkpt><trkpt lat="59.0786147118" lon="30.0263214111"><time>2026-04-25T11:58:15Z</time></trkpt><trkpt lat="59.0786147118" lon="30.0263214111"><time>2026-04-25T11:58:18Z</time></trkpt><trkpt lat="59.0786147118" lon="30.0263214111"><time>2026-04-25T11:58:20Z</time></trkpt><trkpt lat="59.0786147118" lon="30.0263214111"><time>2026-04-25T11:58:23Z</time></trkpt><trkpt lat="59.0786147118" lon="30.0263214111"><time>2026-04-25T11:58:25Z</time></trkpt><trkpt lat="59.0786147118" lon="30.0263214111"><time>2026-04-25T11:58:28Z</time></trkpt><trkpt lat="59.0786147118" lon="30.0263214111"><time>2026-04-25T11:58:30Z</time></trkpt><trkpt lat="59.0786147118" lon="30.0263214111"><time>2026-04-25T11:58:33Z</time></trkpt><trkpt lat="59.0786147118" lon="30.0263214111"><time>2026-04-25T11:58:35Z</time></trkpt><trkpt lat="59.0786147118" lon="30.0263214111"><time>2026-04-25T11:58:38Z</time></trkpt><trkpt lat="59.0786147118" lon="30.0263214111"><time>2026-04-25T11:58:40Z</time></trkpt><trkpt lat="59.0786147118" lon="30.0263214111"><time>2026-04-25T11:58:43Z</time></trkpt><trkpt lat="59.0786147118" lon="30.0263214111"><time>2026-04-25T11:58:45Z</time></trkpt><trkpt lat="59.0786147118" lon="30.0263214111"><time>2026-04-25T11:58:48Z</time></trkpt><trkpt lat="59.0786147118" lon="30.0263214111"><time>2026-04-25T11:58:50Z</time></trkpt><trkpt lat="59.0785932541" lon="30.0263214111"><time>2026-04-25T11:58:53Z</time></trkpt><trkpt lat="59.0785288811" lon="30.0263214111"><time>2026-04-25T11:58:55Z</time></trkpt><trkpt lat="59.0784859657" lon="30.0263643265"><time>2026-04-25T11:58:58Z</time></trkpt><trkpt lat="59.0784430504" lon="30.0264072418"><time>2026-04-25T11:59:00Z</time></trkpt><trkpt lat="59.0784215927" lon="30.0264072418"><time>2026-04-25T11:59:03Z</time></trkpt><trkpt lat="59.0784215927" lon="30.0264072418"><time>2026-04-25T11:59:05Z</time></trkpt><trkpt lat="59.0784215927" lon="30.0264072418"><time>2026-04-25T11:59:08Z</time></trkpt><trkpt lat="59.0784215927" lon="30.0264072418"><time>2026-04-25T11:59:10Z</time></trkpt><trkpt lat="59.0784215927" lon="30.0264072418"><time>2026-04-25T11:59:13Z</time></trkpt><trkpt lat="59.0784215927" lon="30.0264072418"><time>2026-04-25T11:59:15Z</time></trkpt><trkpt lat="59.0784215927" lon="30.0264072418"><time>2026-04-25T11:59:18Z</time></trkpt><trkpt lat="59.0784215927" lon="30.0264072418"><time>2026-04-25T11:59:20Z</time></trkpt><trkpt lat="59.0784215927" lon="30.0264072418"><time>2026-04-25T11:59:23Z</time></trkpt><trkpt lat="59.0784215927" lon="30.0264072418"><time>2026-04-25T11:59:25Z</time></trkpt><trkpt lat="59.0784215927" lon="30.0264072418"><time>2026-04-25T11:59:28Z</time></trkpt><trkpt lat="59.0784215927" lon="30.0264072418"><time>2026-04-25T11:59:30Z</time></trkpt><trkpt lat="59.0784215927" lon="30.0264072418"><time>2026-04-25T11:59:33Z</time></trkpt><trkpt lat="59.0784430504" lon="30.0264072418"><time>2026-04-25T11:59:35Z</time></trkpt><trkpt lat="59.0784430504" lon="30.0264072418"><time>2026-04-25T11:59:38Z</time></trkpt><trkpt lat="59.0784430504" lon="30.0264072418"><time>2026-04-25T11:59:40Z</time></trkpt><trkpt lat="59.0784430504" lon="30.0264072418"><time>2026-04-25T11:59:43Z</time></trkpt><trkpt lat="59.0784430504" lon="30.0264072418"><time>2026-04-25T11:59:45Z</time></trkpt><trkpt lat="59.0784430504" lon="30.0264286995"><time>2026-04-25T11:59:48Z</time></trkpt><trkpt lat="59.0784430504" lon="30.0264286995"><time>2026-04-25T11:59:50Z</time></trkpt><trkpt lat="59.0784430504" lon="30.0264501572"><time>2026-04-25T11:59:53Z</time></trkpt><trkpt lat="59.0784430504" lon="30.0264501572"><time>2026-04-25T11:59:55Z</time></trkpt><trkpt lat="59.0784215927" lon="30.0264501572"><time>2026-04-25T11:59:58Z</time></trkpt><trkpt lat="59.0784215927" lon="30.0264501572"><time>2026-04-25T12:00:00Z</time></trkpt><trkpt lat="59.0784215927" lon="30.0264716148"><time>2026-04-25T12:00:03Z</time></trkpt><trkpt lat="59.0784215927" lon="30.0264930725"><time>2026-04-25T12:00:05Z</time></trkpt><trkpt lat="59.0784215927" lon="30.0265145302"><time>2026-04-25T12:00:08Z</time></trkpt><trkpt lat="59.0784215927" lon="30.0265359879"><time>2026-04-25T12:00:10Z</time></trkpt><trkpt lat="59.0784215927" lon="30.0265574455"><time>2026-04-25T12:00:13Z</time></trkpt><trkpt lat="59.0784215927" lon="30.0265574455"><time>2026-04-25T12:00:16Z</time></trkpt><trkpt lat="59.0784215927" lon="30.0265789032"><time>2026-04-25T12:00:18Z</time></trkpt><trkpt lat="59.0784215927" lon="30.0265789032"><time>2026-04-25T12:00:20Z</time></trkpt><trkpt lat="59.0784215927" lon="30.0265789032"><time>2026-04-25T12:00:23Z</time></trkpt><trkpt lat="59.0784215927" lon="30.0266003609"><time>2026-04-25T12:00:25Z</time></trkpt><trkpt lat="59.0784215927" lon="30.0266003609"><time>2026-04-25T12:00:28Z</time></trkpt><trkpt lat="59.0784430504" lon="30.0266003609"><time>2026-04-25T12:00:30Z</time></trkpt><trkpt lat="59.0784430504" lon="30.0266218185"><time>2026-04-25T12:00:33Z</time></trkpt><trkpt lat="59.0784430504" lon="30.0266218185"><time>2026-04-25T12:00:35Z</time></trkpt><trkpt lat="59.0784430504" lon="30.0266218185"><time>2026-04-25T12:00:38Z</time></trkpt><trkpt lat="59.0784430504" lon="30.0266218185"><time>2026-04-25T12:00:40Z</time></trkpt><trkpt lat="59.0784430504" lon="30.0266218185"><time>2026-04-25T12:00:43Z</time></trkpt><trkpt lat="59.0784430504" lon="30.0266218185"><time>2026-04-25T12:00:45Z</time></trkpt><trkpt lat="59.0784430504" lon="30.0266218185"><time>2026-04-25T12:00:48Z</time></trkpt><trkpt lat="59.0784430504" lon="30.0266218185"><time>2026-04-25T12:00:50Z</time></trkpt><trkpt lat="59.0784430504" lon="30.0266218185"><time>2026-04-25T12:00:53Z</time></trkpt><trkpt lat="59.0784215927" lon="30.0266218185"><time>2026-04-25T12:00:55Z</time></trkpt><trkpt lat="59.0784215927" lon="30.0266218185"><time>2026-04-25T12:00:58Z</time></trkpt><trkpt lat="59.0784001350" lon="30.0267076492"><time>2026-04-25T12:01:01Z</time></trkpt><trkpt lat="59.0783786774" lon="30.0267505646"><time>2026-04-25T12:01:03Z</time></trkpt><trkpt lat="59.0783786774" lon="30.0268578529"><time>2026-04-25T12:01:05Z</time></trkpt><trkpt lat="59.0783572197" lon="30.0268793106"><time>2026-04-25T12:01:08Z</time></trkpt><trkpt lat="59.0783572197" lon="30.0268578529"><time>2026-04-25T12:01:10Z</time></trkpt><trkpt lat="59.0783786774" lon="30.0268363953"><time>2026-04-25T12:01:13Z</time></trkpt><trkpt lat="59.0783786774" lon="30.0268363953"><time>2026-04-25T12:01:15Z</time></trkpt><trkpt lat="59.0783786774" lon="30.0268363953"><time>2026-04-25T12:01:18Z</time></trkpt><trkpt lat="59.0783786774" lon="30.0268149376"><time>2026-04-25T12:01:20Z</time></trkpt><trkpt lat="59.0783786774" lon="30.0268149376"><time>2026-04-25T12:01:23Z</time></trkpt><trkpt lat="59.0783786774" lon="30.0268149376"><time>2026-04-25T12:01:25Z</time></trkpt><trkpt lat="59.0783786774" lon="30.0268149376"><time>2026-04-25T12:01:28Z</time></trkpt><trkpt lat="59.0783786774" lon="30.0268149376"><time>2026-04-25T12:01:30Z</time></trkpt><trkpt lat="59.0783786774" lon="30.0268363953"><time>2026-04-25T12:01:33Z</time></trkpt><trkpt lat="59.0783357620" lon="30.0268363953"><time>2026-04-25T12:01:35Z</time></trkpt><trkpt lat="59.0783143044" lon="30.0268149376"><time>2026-04-25T12:01:38Z</time></trkpt><trkpt lat="59.0782928467" lon="30.0268149376"><time>2026-04-25T12:01:41Z</time></trkpt><trkpt lat="59.0782928467" lon="30.0268363953"><time>2026-04-25T12:01:43Z</time></trkpt><trkpt lat="59.0782928467" lon="30.0268363953"><time>2026-04-25T12:01:45Z</time></trkpt><trkpt lat="59.0782928467" lon="30.0268363953"><time>2026-04-25T12:01:48Z</time></trkpt><trkpt lat="59.0782928467" lon="30.0268363953"><time>2026-04-25T12:01:50Z</time></trkpt><trkpt lat="59.0782928467" lon="30.0268363953"><time>2026-04-25T12:01:53Z</time></trkpt><trkpt lat="59.0782928467" lon="30.0268363953"><time>2026-04-25T12:01:55Z</time></trkpt><trkpt lat="59.0782928467" lon="30.0268363953"><time>2026-04-25T12:01:58Z</time></trkpt><trkpt lat="59.0782928467" lon="30.0268363953"><time>2026-04-25T12:02:00Z</time></trkpt><trkpt lat="59.0782928467" lon="30.0268363953"><time>2026-04-25T12:02:03Z</time></trkpt><trkpt lat="59.0782928467" lon="30.0268363953"><time>2026-04-25T12:02:05Z</time></trkpt><trkpt lat="59.0782928467" lon="30.0268363953"><time>2026-04-25T12:02:08Z</time></trkpt><trkpt lat="59.0782928467" lon="30.0268363953"><time>2026-04-25T12:02:10Z</time></trkpt><trkpt lat="59.0782928467" lon="30.0268363953"><time>2026-04-25T12:02:13Z</time></trkpt><trkpt lat="59.0782928467" lon="30.0268363953"><time>2026-04-25T12:02:15Z</time></trkpt><trkpt lat="59.0782928467" lon="30.0268363953"><time>2026-04-25T12:02:18Z</time></trkpt><trkpt lat="59.0782928467" lon="30.0268363953"><time>2026-04-25T12:02:20Z</time></trkpt><trkpt lat="59.0782928467" lon="30.0268363953"><time>2026-04-25T12:02:23Z</time></trkpt><trkpt lat="59.0782713890" lon="30.0268363953"><time>2026-04-25T12:02:25Z</time></trkpt><trkpt lat="59.0782713890" lon="30.0268363953"><time>2026-04-25T12:02:28Z</time></trkpt><trkpt lat="59.0782499313" lon="30.0268363953"><time>2026-04-25T12:02:30Z</time></trkpt><trkpt lat="59.0782499313" lon="30.0268363953"><time>2026-04-25T12:02:33Z</time></trkpt><trkpt lat="59.0782284737" lon="30.0268578529"><time>2026-04-25T12:02:35Z</time></trkpt><trkpt lat="59.0782284737" lon="30.0268578529"><time>2026-04-25T12:02:38Z</time></trkpt><trkpt lat="59.0782070160" lon="30.0268578529"><time>2026-04-25T12:02:40Z</time></trkpt><trkpt lat="59.0781855583" lon="30.0268578529"><time>2026-04-25T12:02:43Z</time></trkpt><trkpt lat="59.0781855583" lon="30.0268578529"><time>2026-04-25T12:02:45Z</time></trkpt><trkpt lat="59.0781855583" lon="30.0268793106"><time>2026-04-25T12:02:48Z</time></trkpt><trkpt lat="59.0781855583" lon="30.0268793106"><time>2026-04-25T12:02:50Z</time></trkpt><trkpt lat="59.0781855583" lon="30.0268793106"><time>2026-04-25T12:02:53Z</time></trkpt><trkpt lat="59.0781855583" lon="30.0268793106"><time>2026-04-25T12:02:55Z</time></trkpt><trkpt lat="59.0781855583" lon="30.0268793106"><time>2026-04-25T12:02:58Z</time></trkpt><trkpt lat="59.0781855583" lon="30.0268793106"><time>2026-04-25T12:03:00Z</time></trkpt><trkpt lat="59.0781855583" lon="30.0268793106"><time>2026-04-25T12:03:03Z</time></trkpt><trkpt lat="59.0781855583" lon="30.0269007683"><time>2026-04-25T12:03:05Z</time></trkpt><trkpt lat="59.0781641006" lon="30.0269222260"><time>2026-04-25T12:03:08Z</time></trkpt><trkpt lat="59.0781211853" lon="30.0269436836"><time>2026-04-25T12:03:10Z</time></trkpt><trkpt lat="59.0781211853" lon="30.0269436836"><time>2026-04-25T12:03:13Z</time></trkpt><trkpt lat="59.0781211853" lon="30.0269222260"><time>2026-04-25T12:03:15Z</time></trkpt><trkpt lat="59.0781211853" lon="30.0269222260"><time>2026-04-25T12:03:18Z</time></trkpt><trkpt lat="59.0781211853" lon="30.0269222260"><time>2026-04-25T12:03:20Z</time></trkpt><trkpt lat="59.0781211853" lon="30.0269436836"><time>2026-04-25T12:03:23Z</time></trkpt><trkpt lat="59.0781211853" lon="30.0269436836"><time>2026-04-25T12:03:25Z</time></trkpt><trkpt lat="59.0781211853" lon="30.0269436836"><time>2026-04-25T12:03:28Z</time></trkpt><trkpt lat="59.0781211853" lon="30.0269436836"><time>2026-04-25T12:03:30Z</time></trkpt><trkpt lat="59.0781211853" lon="30.0269436836"><time>2026-04-25T12:03:33Z</time></trkpt><trkpt lat="59.0781211853" lon="30.0269436836"><time>2026-04-25T12:03:35Z</time></trkpt><trkpt lat="59.0781211853" lon="30.0269436836"><time>2026-04-25T12:03:38Z</time></trkpt><trkpt lat="59.0781211853" lon="30.0269222260"><time>2026-04-25T12:03:40Z</time></trkpt><trkpt lat="59.0781211853" lon="30.0269222260"><time>2026-04-25T12:03:43Z</time></trkpt><trkpt lat="59.0781211853" lon="30.0269222260"><time>2026-04-25T12:03:45Z</time></trkpt><trkpt lat="59.0781211853" lon="30.0269222260"><time>2026-04-25T12:03:48Z</time></trkpt><trkpt lat="59.0781211853" lon="30.0269222260"><time>2026-04-25T12:03:50Z</time></trkpt><trkpt lat="59.0781211853" lon="30.0269222260"><time>2026-04-25T12:03:53Z</time></trkpt><trkpt lat="59.0781211853" lon="30.0269222260"><time>2026-04-25T12:03:55Z</time></trkpt><trkpt lat="59.0781211853" lon="30.0269222260"><time>2026-04-25T12:03:58Z</time></trkpt><trkpt lat="59.0781211853" lon="30.0269222260"><time>2026-04-25T12:04:00Z</time></trkpt><trkpt lat="59.0781211853" lon="30.0269222260"><time>2026-04-25T12:04:03Z</time></trkpt><trkpt lat="59.0781211853" lon="30.0269222260"><time>2026-04-25T12:04:05Z</time></trkpt><trkpt lat="59.0781211853" lon="30.0269222260"><time>2026-04-25T12:04:08Z</time></trkpt><trkpt lat="59.0781211853" lon="30.0269222260"><time>2026-04-25T12:04:10Z</time></trkpt><trkpt lat="59.0781211853" lon="30.0269222260"><time>2026-04-25T12:04:13Z</time></trkpt><trkpt lat="59.0781211853" lon="30.0269222260"><time>2026-04-25T12:04:15Z</time></trkpt><trkpt lat="59.0781211853" lon="30.0269222260"><time>2026-04-25T12:04:18Z</time></trkpt><trkpt lat="59.0781211853" lon="30.0269222260"><time>2026-04-25T12:04:20Z</time></trkpt><trkpt lat="59.0781211853" lon="30.0269222260"><time>2026-04-25T12:04:23Z</time></trkpt><trkpt lat="59.0780782700" lon="30.0269651413"><time>2026-04-25T12:04:25Z</time></trkpt><trkpt lat="59.0780353546" lon="30.0269651413"><time>2026-04-25T12:04:28Z</time></trkpt><trkpt lat="59.0780138969" lon="30.0269865990"><time>2026-04-25T12:04:30Z</time></trkpt><trkpt lat="59.0779924393" lon="30.0270080566"><time>2026-04-25T12:04:33Z</time></trkpt><trkpt lat="59.0779495239" lon="30.0270724297"><time>2026-04-25T12:04:35Z</time></trkpt><trkpt lat="59.0779280663" lon="30.0271153450"><time>2026-04-25T12:04:38Z</time></trkpt><trkpt lat="59.0779280663" lon="30.0271368027"><time>2026-04-25T12:04:40Z</time></trkpt><trkpt lat="59.0779280663" lon="30.0271582603"><time>2026-04-25T12:04:43Z</time></trkpt><trkpt lat="59.0779280663" lon="30.0272226334"><time>2026-04-25T12:04:45Z</time></trkpt><trkpt lat="59.0779066086" lon="30.0272655487"><time>2026-04-25T12:04:48Z</time></trkpt><trkpt lat="59.0779066086" lon="30.0272655487"><time>2026-04-25T12:04:50Z</time></trkpt><trkpt lat="59.0778851509" lon="30.0272870064"><time>2026-04-25T12:04:53Z</time></trkpt><trkpt lat="59.0778851509" lon="30.0273084641"><time>2026-04-25T12:04:55Z</time></trkpt><trkpt lat="59.0779066086" lon="30.0273513794"><time>2026-04-25T12:04:58Z</time></trkpt><trkpt lat="59.0779066086" lon="30.0273513794"><time>2026-04-25T12:05:01Z</time></trkpt><trkpt lat="59.0779066086" lon="30.0273513794"><time>2026-04-25T12:05:03Z</time></trkpt><trkpt lat="59.0779066086" lon="30.0273728371"><time>2026-04-25T12:05:05Z</time></trkpt><trkpt lat="59.0779066086" lon="30.0274157524"><time>2026-04-25T12:05:08Z</time></trkpt><trkpt lat="59.0779066086" lon="30.0274586678"><time>2026-04-25T12:05:10Z</time></trkpt><trkpt lat="59.0779280663" lon="30.0275015831"><time>2026-04-25T12:05:13Z</time></trkpt><trkpt lat="59.0779066086" lon="30.0275444984"><time>2026-04-25T12:05:15Z</time></trkpt><trkpt lat="59.0779066086" lon="30.0275659561"><time>2026-04-25T12:05:18Z</time></trkpt><trkpt lat="59.0779066086" lon="30.0276303291"><time>2026-04-25T12:05:20Z</time></trkpt><trkpt lat="59.0778851509" lon="30.0276517868"><time>2026-04-25T12:05:23Z</time></trkpt><trkpt lat="59.0778636932" lon="30.0276947021"><time>2026-04-25T12:05:25Z</time></trkpt><trkpt lat="59.0778636932" lon="30.0277376175"><time>2026-04-25T12:05:28Z</time></trkpt><trkpt lat="59.0778851509" lon="30.0277376175"><time>2026-04-25T12:05:30Z</time></trkpt><trkpt lat="59.0778636932" lon="30.0277161598"><time>2026-04-25T12:05:33Z</time></trkpt><trkpt lat="59.0778422356" lon="30.0277161598"><time>2026-04-25T12:05:36Z</time></trkpt><trkpt lat="59.0778207779" lon="30.0276947021"><time>2026-04-25T12:05:38Z</time></trkpt><trkpt lat="59.0778207779" lon="30.0276947021"><time>2026-04-25T12:05:40Z</time></trkpt><trkpt lat="59.0777778625" lon="30.0276517868"><time>2026-04-25T12:05:43Z</time></trkpt><trkpt lat="59.0777564049" lon="30.0276517868"><time>2026-04-25T12:05:45Z</time></trkpt><trkpt lat="59.0777349472" lon="30.0276517868"><time>2026-04-25T12:05:48Z</time></trkpt><trkpt lat="59.0777134895" lon="30.0276088715"><time>2026-04-25T12:05:50Z</time></trkpt><trkpt lat="59.0777349472" lon="30.0276303291"><time>2026-04-25T12:05:53Z</time></trkpt><trkpt lat="59.0777564049" lon="30.0276947021"><time>2026-04-25T12:05:55Z</time></trkpt><trkpt lat="59.0777564049" lon="30.0277161598"><time>2026-04-25T12:05:58Z</time></trkpt><trkpt lat="59.0777564049" lon="30.0277376175"><time>2026-04-25T12:06:00Z</time></trkpt><trkpt lat="59.0777564049" lon="30.0277376175"><time>2026-04-25T12:06:03Z</time></trkpt><trkpt lat="59.0777564049" lon="30.0277376175"><time>2026-04-25T12:06:05Z</time></trkpt><trkpt lat="59.0777564049" lon="30.0277376175"><time>2026-04-25T12:06:08Z</time></trkpt><trkpt lat="59.0777564049" lon="30.0277376175"><time>2026-04-25T12:06:10Z</time></trkpt><trkpt lat="59.0777564049" lon="30.0277376175"><time>2026-04-25T12:06:13Z</time></trkpt><trkpt lat="59.0777778625" lon="30.0277805328"><time>2026-04-25T12:06:15Z</time></trkpt><trkpt lat="59.0777778625" lon="30.0278234482"><time>2026-04-25T12:06:18Z</time></trkpt><trkpt lat="59.0777778625" lon="30.0278663635"><time>2026-04-25T12:06:21Z</time></trkpt><trkpt lat="59.0777993202" lon="30.0278878212"><time>2026-04-25T12:06:23Z</time></trkpt><trkpt lat="59.0777993202" lon="30.0278878212"><time>2026-04-25T12:06:25Z</time></trkpt><trkpt lat="59.0778207779" lon="30.0279092789"><time>2026-04-25T12:06:28Z</time></trkpt><trkpt lat="59.0778207779" lon="30.0279521942"><time>2026-04-25T12:06:30Z</time></trkpt><trkpt lat="59.0778207779" lon="30.0279521942"><time>2026-04-25T12:06:33Z</time></trkpt><trkpt lat="59.0778422356" lon="30.0279521942"><time>2026-04-25T12:06:35Z</time></trkpt><trkpt lat="59.0778422356" lon="30.0279521942"><time>2026-04-25T12:06:38Z</time></trkpt><trkpt lat="59.0778422356" lon="30.0279736519"><time>2026-04-25T12:06:40Z</time></trkpt><trkpt lat="59.0778422356" lon="30.0279736519"><time>2026-04-25T12:06:43Z</time></trkpt><trkpt lat="59.0778636932" lon="30.0279736519"><time>2026-04-25T12:06:45Z</time></trkpt><trkpt lat="59.0778636932" lon="30.0279521942"><time>2026-04-25T12:06:48Z</time></trkpt><trkpt lat="59.0778636932" lon="30.0279521942"><time>2026-04-25T12:06:51Z</time></trkpt><trkpt lat="59.0778636932" lon="30.0279521942"><time>2026-04-25T12:06:53Z</time></trkpt><trkpt lat="59.0778636932" lon="30.0279521942"><time>2026-04-25T12:06:55Z</time></trkpt><trkpt lat="59.0778636932" lon="30.0279521942"><time>2026-04-25T12:06:58Z</time></trkpt><trkpt lat="59.0778636932" lon="30.0279521942"><time>2026-04-25T12:07:00Z</time></trkpt><trkpt lat="59.0778636932" lon="30.0279521942"><time>2026-04-25T12:07:03Z</time></trkpt><trkpt lat="59.0778636932" lon="30.0279736519"><time>2026-04-25T12:07:05Z</time></trkpt><trkpt lat="59.0778422356" lon="30.0279736519"><time>2026-04-25T12:07:08Z</time></trkpt><trkpt lat="59.0778422356" lon="30.0279736519"><time>2026-04-25T12:07:10Z</time></trkpt><trkpt lat="59.0778422356" lon="30.0279736519"><time>2026-04-25T12:07:13Z</time></trkpt><trkpt lat="59.0778422356" lon="30.0279736519"><time>2026-04-25T12:07:15Z</time></trkpt><trkpt lat="59.0778422356" lon="30.0279736519"><time>2026-04-25T12:07:18Z</time></trkpt><trkpt lat="59.0778422356" lon="30.0279736519"><time>2026-04-25T12:07:20Z</time></trkpt><trkpt lat="59.0778422356" lon="30.0279736519"><time>2026-04-25T12:07:23Z</time></trkpt><trkpt lat="59.0778422356" lon="30.0279736519"><time>2026-04-25T12:07:25Z</time></trkpt><trkpt lat="59.0778422356" lon="30.0279736519"><time>2026-04-25T12:07:28Z</time></trkpt><trkpt lat="59.0778636932" lon="30.0279736519"><time>2026-04-25T12:07:30Z</time></trkpt><trkpt lat="59.0778636932" lon="30.0279736519"><time>2026-04-25T12:07:33Z</time></trkpt><trkpt lat="59.0778636932" lon="30.0279736519"><time>2026-04-25T12:07:35Z</time></trkpt><trkpt lat="59.0778636932" lon="30.0279736519"><time>2026-04-25T12:07:38Z</time></trkpt><trkpt lat="59.0778636932" lon="30.0279736519"><time>2026-04-25T12:07:40Z</time></trkpt><trkpt lat="59.0778636932" lon="30.0279521942"><time>2026-04-25T12:07:43Z</time></trkpt><trkpt lat="59.0778636932" lon="30.0279521942"><time>2026-04-25T12:07:45Z</time></trkpt><trkpt lat="59.0778636932" lon="30.0279521942"><time>2026-04-25T12:07:48Z</time></trkpt><trkpt lat="59.0778636932" lon="30.0279521942"><time>2026-04-25T12:07:50Z</time></trkpt><trkpt lat="59.0778636932" lon="30.0279521942"><time>2026-04-25T12:07:53Z</time></trkpt><trkpt lat="59.0778636932" lon="30.0279521942"><time>2026-04-25T12:07:55Z</time></trkpt><trkpt lat="59.0778636932" lon="30.0279521942"><time>2026-04-25T12:07:58Z</time></trkpt><trkpt lat="59.0778636932" lon="30.0279521942"><time>2026-04-25T12:08:00Z</time></trkpt><trkpt lat="59.0778636932" lon="30.0279521942"><time>2026-04-25T12:08:03Z</time></trkpt><trkpt lat="59.0778636932" lon="30.0279521942"><time>2026-04-25T12:08:05Z</time></trkpt><trkpt lat="59.0778636932" lon="30.0279521942"><time>2026-04-25T12:08:08Z</time></trkpt><trkpt lat="59.0778636932" lon="30.0279521942"><time>2026-04-25T12:08:10Z</time></trkpt><trkpt lat="59.0778636932" lon="30.0279521942"><time>2026-04-25T12:08:13Z</time></trkpt><trkpt lat="59.0778636932" lon="30.0279521942"><time>2026-04-25T12:08:15Z</time></trkpt><trkpt lat="59.0778636932" lon="30.0279521942"><time>2026-04-25T12:08:18Z</time></trkpt><trkpt lat="59.0778636932" lon="30.0279521942"><time>2026-04-25T12:08:20Z</time></trkpt><trkpt lat="59.0778636932" lon="30.0279521942"><time>2026-04-25T12:08:23Z</time></trkpt><trkpt lat="59.0778636932" lon="30.0279521942"><time>2026-04-25T12:08:25Z</time></trkpt><trkpt lat="59.0778636932" lon="30.0279521942"><time>2026-04-25T12:08:28Z</time></trkpt><trkpt lat="59.0778636932" lon="30.0279521942"><time>2026-04-25T12:08:30Z</time></trkpt><trkpt lat="59.0778636932" lon="30.0279521942"><time>2026-04-25T12:08:33Z</time></trkpt><trkpt lat="59.0778636932" lon="30.0279521942"><time>2026-04-25T12:08:35Z</time></trkpt><trkpt lat="59.0778636932" lon="30.0279521942"><time>2026-04-25T12:08:38Z</time></trkpt><trkpt lat="59.0778636932" lon="30.0279521942"><time>2026-04-25T12:08:40Z</time></trkpt><trkpt lat="59.0778636932" lon="30.0279521942"><time>2026-04-25T12:08:43Z</time></trkpt><trkpt lat="59.0778636932" lon="30.0279521942"><time>2026-04-25T12:08:45Z</time></trkpt><trkpt lat="59.0778636932" lon="30.0279521942"><time>2026-04-25T12:08:48Z</time></trkpt><trkpt lat="59.0778636932" lon="30.0279521942"><time>2026-04-25T12:08:50Z</time></trkpt><trkpt lat="59.0778636932" lon="30.0279521942"><time>2026-04-25T12:08:53Z</time></trkpt><trkpt lat="59.0778636932" lon="30.0279521942"><time>2026-04-25T12:08:55Z</time></trkpt><trkpt lat="59.0778636932" lon="30.0279521942"><time>2026-04-25T12:08:58Z</time></trkpt><trkpt lat="59.0778636932" lon="30.0279521942"><time>2026-04-25T12:09:00Z</time></trkpt><trkpt lat="59.0778636932" lon="30.0279521942"><time>2026-04-25T12:09:03Z</time></trkpt><trkpt lat="59.0778636932" lon="30.0279521942"><time>2026-04-25T12:09:05Z</time></trkpt><trkpt lat="59.0778636932" lon="30.0279521942"><time>2026-04-25T12:09:08Z</time></trkpt><trkpt lat="59.0778636932" lon="30.0279521942"><time>2026-04-25T12:09:10Z</time></trkpt><trkpt lat="59.0778636932" lon="30.0279521942"><time>2026-04-25T12:09:13Z</time></trkpt><trkpt lat="59.0778636932" lon="30.0279521942"><time>2026-04-25T12:09:15Z</time></trkpt><trkpt lat="59.0778636932" lon="30.0279521942"><time>2026-04-25T12:09:18Z</time></trkpt><trkpt lat="59.0778636932" lon="30.0279521942"><time>2026-04-25T12:09:20Z</time></trkpt><trkpt lat="59.0778636932" lon="30.0279736519"><time>2026-04-25T12:09:23Z</time></trkpt><trkpt lat="59.0778636932" lon="30.0279736519"><time>2026-04-25T12:09:25Z</time></trkpt><trkpt lat="59.0778636932" lon="30.0279736519"><time>2026-04-25T12:09:28Z</time></trkpt><trkpt lat="59.0778636932" lon="30.0279736519"><time>2026-04-25T12:09:30Z</time></trkpt><trkpt lat="59.0778636932" lon="30.0279736519"><time>2026-04-25T12:09:33Z</time></trkpt><trkpt lat="59.0778636932" lon="30.0279736519"><time>2026-04-25T12:09:35Z</time></trkpt><trkpt lat="59.0778636932" lon="30.0279736519"><time>2026-04-25T12:09:38Z</time></trkpt><trkpt lat="59.0778636932" lon="30.0279736519"><time>2026-04-25T12:09:40Z</time></trkpt><trkpt lat="59.0778636932" lon="30.0279736519"><time>2026-04-25T12:09:43Z</time></trkpt><trkpt lat="59.0778636932" lon="30.0279736519"><time>2026-04-25T12:09:45Z</time></trkpt><trkpt lat="59.0778636932" lon="30.0279736519"><time>2026-04-25T12:09:48Z</time></trkpt><trkpt lat="59.0778636932" lon="30.0279951096"><time>2026-04-25T12:09:50Z</time></trkpt><trkpt lat="59.0778636932" lon="30.0279951096"><time>2026-04-25T12:09:53Z</time></trkpt><trkpt lat="59.0778636932" lon="30.0279951096"><time>2026-04-25T12:09:55Z</time></trkpt><trkpt lat="59.0778636932" lon="30.0279951096"><time>2026-04-25T12:09:58Z</time></trkpt><trkpt lat="59.0778636932" lon="30.0279736519"><time>2026-04-25T12:10:00Z</time></trkpt><trkpt lat="59.0778636932" lon="30.0279736519"><time>2026-04-25T12:10:03Z</time></trkpt><trkpt lat="59.0778636932" lon="30.0279736519"><time>2026-04-25T12:10:05Z</time></trkpt><trkpt lat="59.0778636932" lon="30.0279736519"><time>2026-04-25T12:10:08Z</time></trkpt><trkpt lat="59.0778636932" lon="30.0279736519"><time>2026-04-25T12:10:10Z</time></trkpt><trkpt lat="59.0778636932" lon="30.0279736519"><time>2026-04-25T12:10:13Z</time></trkpt><trkpt lat="59.0776276588" lon="30.0283384323"><time>2026-04-25T12:12:55Z</time></trkpt><trkpt lat="59.0776276588" lon="30.0283384323"><time>2026-04-25T12:12:58Z</time></trkpt><trkpt lat="59.0776276588" lon="30.0283384323"><time>2026-04-25T12:13:00Z</time></trkpt><trkpt lat="59.0776276588" lon="30.0283384323"><time>2026-04-25T12:13:03Z</time></trkpt><trkpt lat="59.0776276588" lon="30.0283169746"><time>2026-04-25T12:13:05Z</time></trkpt><trkpt lat="59.0776276588" lon="30.0283169746"><time>2026-04-25T12:13:08Z</time></trkpt><trkpt lat="59.0776276588" lon="30.0283169746"><time>2026-04-25T12:13:10Z</time></trkpt><trkpt lat="59.0776276588" lon="30.0283169746"><time>2026-04-25T12:13:13Z</time></trkpt><trkpt lat="59.0776276588" lon="30.0283169746"><time>2026-04-25T12:13:15Z</time></trkpt><trkpt lat="59.0776276588" lon="30.0283169746"><time>2026-04-25T12:13:18Z</time></trkpt><trkpt lat="59.0776276588" lon="30.0283169746"><time>2026-04-25T12:13:20Z</time></trkpt><trkpt lat="59.0776276588" lon="30.0283169746"><time>2026-04-25T12:13:23Z</time></trkpt><trkpt lat="59.0776062012" lon="30.0283169746"><time>2026-04-25T12:13:25Z</time></trkpt><trkpt lat="59.0776062012" lon="30.0283169746"><time>2026-04-25T12:13:35Z</time></trkpt><trkpt lat="59.0776062012" lon="30.0283169746"><time>2026-04-25T12:13:38Z</time></trkpt><trkpt lat="59.0775847435" lon="30.0283384323"><time>2026-04-25T12:13:40Z</time></trkpt><trkpt lat="59.0775847435" lon="30.0283598900"><time>2026-04-25T12:13:43Z</time></trkpt><trkpt lat="59.0775632858" lon="30.0283813477"><time>2026-04-25T12:13:45Z</time></trkpt><trkpt lat="59.0775632858" lon="30.0283813477"><time>2026-04-25T12:13:48Z</time></trkpt><trkpt lat="59.0775418282" lon="30.0284028053"><time>2026-04-25T12:13:50Z</time></trkpt><trkpt lat="59.0775418282" lon="30.0284028053"><time>2026-04-25T12:13:53Z</time></trkpt><trkpt lat="59.0775418282" lon="30.0284028053"><time>2026-04-25T12:13:55Z</time></trkpt><trkpt lat="59.0775203705" lon="30.0284242630"><time>2026-04-25T12:13:58Z</time></trkpt><trkpt lat="59.0775203705" lon="30.0284242630"><time>2026-04-25T12:14:00Z</time></trkpt><trkpt lat="59.0775203705" lon="30.0284242630"><time>2026-04-25T12:14:03Z</time></trkpt><trkpt lat="59.0775203705" lon="30.0284457207"><time>2026-04-25T12:14:05Z</time></trkpt><trkpt lat="59.0775203705" lon="30.0284457207"><time>2026-04-25T12:14:08Z</time></trkpt><trkpt lat="59.0775203705" lon="30.0284457207"><time>2026-04-25T12:14:10Z</time></trkpt><trkpt lat="59.0775203705" lon="30.0284457207"><time>2026-04-25T12:14:13Z</time></trkpt><trkpt lat="59.0775203705" lon="30.0284457207"><time>2026-04-25T12:14:15Z</time></trkpt><trkpt lat="59.0774989128" lon="30.0284886360"><time>2026-04-25T12:14:18Z</time></trkpt><trkpt lat="59.0774774551" lon="30.0285959244"><time>2026-04-25T12:14:20Z</time></trkpt><trkpt lat="59.0774559975" lon="30.0286817551"><time>2026-04-25T12:14:23Z</time></trkpt><trkpt lat="59.0774130821" lon="30.0287461281"><time>2026-04-25T12:14:25Z</time></trkpt><trkpt lat="59.0774130821" lon="30.0287675858"><time>2026-04-25T12:14:28Z</time></trkpt><trkpt lat="59.0773916245" lon="30.0287890434"><time>2026-04-25T12:14:30Z</time></trkpt><trkpt lat="59.0773916245" lon="30.0287890434"><time>2026-04-25T12:14:33Z</time></trkpt><trkpt lat="59.0773272514" lon="30.0288319588"><time>2026-04-25T12:14:35Z</time></trkpt><trkpt lat="59.0773057938" lon="30.0288534164"><time>2026-04-25T12:14:38Z</time></trkpt><trkpt lat="59.0773057938" lon="30.0288319588"><time>2026-04-25T12:14:40Z</time></trkpt><trkpt lat="59.0773057938" lon="30.0288319588"><time>2026-04-25T12:14:43Z</time></trkpt><trkpt lat="59.0772843361" lon="30.0288319588"><time>2026-04-25T12:14:45Z</time></trkpt><trkpt lat="59.0772843361" lon="30.0288534164"><time>2026-04-25T12:14:48Z</time></trkpt><trkpt lat="59.0772628784" lon="30.0288963318"><time>2026-04-25T12:14:50Z</time></trkpt><trkpt lat="59.0772414207" lon="30.0289177895"><time>2026-04-25T12:14:53Z</time></trkpt><trkpt lat="59.0772414207" lon="30.0289177895"><time>2026-04-25T12:14:55Z</time></trkpt><trkpt lat="59.0772199631" lon="30.0289392471"><time>2026-04-25T12:14:58Z</time></trkpt><trkpt lat="59.0772199631" lon="30.0289607048"><time>2026-04-25T12:15:00Z</time></trkpt><trkpt lat="59.0772414207" lon="30.0290036201"><time>2026-04-25T12:15:03Z</time></trkpt><trkpt lat="59.0772199631" lon="30.0290465355"><time>2026-04-25T12:15:05Z</time></trkpt><trkpt lat="59.0771770477" lon="30.0290679932"><time>2026-04-25T12:15:08Z</time></trkpt><trkpt lat="59.0771555901" lon="30.0291109085"><time>2026-04-25T12:15:10Z</time></trkpt><trkpt lat="59.0771341324" lon="30.0291323662"><time>2026-04-25T12:15:13Z</time></trkpt><trkpt lat="59.0771770477" lon="30.0291967392"><time>2026-04-25T12:15:15Z</time></trkpt><trkpt lat="59.0771555901" lon="30.0292396545"><time>2026-04-25T12:15:18Z</time></trkpt><trkpt lat="59.0771341324" lon="30.0292396545"><time>2026-04-25T12:15:20Z</time></trkpt><trkpt lat="59.0771126747" lon="30.0292825699"><time>2026-04-25T12:15:23Z</time></trkpt><trkpt lat="59.0770912170" lon="30.0293469429"><time>2026-04-25T12:15:25Z</time></trkpt><trkpt lat="59.0770912170" lon="30.0293898582"><time>2026-04-25T12:15:28Z</time></trkpt><trkpt lat="59.0770912170" lon="30.0293898582"><time>2026-04-25T12:15:30Z</time></trkpt><trkpt lat="59.0770912170" lon="30.0294113159"><time>2026-04-25T12:15:33Z</time></trkpt><trkpt lat="59.0770483017" lon="30.0294113159"><time>2026-04-25T12:15:35Z</time></trkpt><trkpt lat="59.0770268440" lon="30.0294113159"><time>2026-04-25T12:15:38Z</time></trkpt><trkpt lat="59.0770483017" lon="30.0293898582"><time>2026-04-25T12:15:40Z</time></trkpt><trkpt lat="59.0770268440" lon="30.0293898582"><time>2026-04-25T12:15:43Z</time></trkpt><trkpt lat="59.0770268440" lon="30.0293684006"><time>2026-04-25T12:15:45Z</time></trkpt><trkpt lat="59.0770268440" lon="30.0293684006"><time>2026-04-25T12:15:48Z</time></trkpt><trkpt lat="59.0770268440" lon="30.0293898582"><time>2026-04-25T12:15:50Z</time></trkpt><trkpt lat="59.0770268440" lon="30.0293684006"><time>2026-04-25T12:15:53Z</time></trkpt><trkpt lat="59.0770268440" lon="30.0293898582"><time>2026-04-25T12:15:55Z</time></trkpt><trkpt lat="59.0770268440" lon="30.0293898582"><time>2026-04-25T12:15:58Z</time></trkpt><trkpt lat="59.0770268440" lon="30.0293898582"><time>2026-04-25T12:16:00Z</time></trkpt><trkpt lat="59.0770268440" lon="30.0293898582"><time>2026-04-25T12:16:03Z</time></trkpt><trkpt lat="59.0770268440" lon="30.0293898582"><time>2026-04-25T12:16:05Z</time></trkpt><trkpt lat="59.0770268440" lon="30.0293898582"><time>2026-04-25T12:16:08Z</time></trkpt><trkpt lat="59.0770268440" lon="30.0293898582"><time>2026-04-25T12:16:10Z</time></trkpt><trkpt lat="59.0770268440" lon="30.0294327736"><time>2026-04-25T12:16:13Z</time></trkpt><trkpt lat="59.0770483017" lon="30.0294756889"><time>2026-04-25T12:16:15Z</time></trkpt><trkpt lat="59.0770483017" lon="30.0294971466"><time>2026-04-25T12:16:18Z</time></trkpt><trkpt lat="59.0770483017" lon="30.0294971466"><time>2026-04-25T12:16:20Z</time></trkpt><trkpt lat="59.0770483017" lon="30.0294971466"><time>2026-04-25T12:16:23Z</time></trkpt><trkpt lat="59.0770483017" lon="30.0295186043"><time>2026-04-25T12:16:25Z</time></trkpt><trkpt lat="59.0770483017" lon="30.0295186043"><time>2026-04-25T12:16:28Z</time></trkpt><trkpt lat="59.0770483017" lon="30.0295400620"><time>2026-04-25T12:16:30Z</time></trkpt><trkpt lat="59.0770483017" lon="30.0295615196"><time>2026-04-25T12:16:33Z</time></trkpt><trkpt lat="59.0770483017" lon="30.0295829773"><time>2026-04-25T12:16:35Z</time></trkpt><trkpt lat="59.0770483017" lon="30.0295829773"><time>2026-04-25T12:16:38Z</time></trkpt><trkpt lat="59.0770483017" lon="30.0295829773"><time>2026-04-25T12:16:40Z</time></trkpt><trkpt lat="59.0770483017" lon="30.0295829773"><time>2026-04-25T12:16:43Z</time></trkpt><trkpt lat="59.0770483017" lon="30.0295829773"><time>2026-04-25T12:16:45Z</time></trkpt><trkpt lat="59.0770268440" lon="30.0295829773"><time>2026-04-25T12:16:48Z</time></trkpt><trkpt lat="59.0770268440" lon="30.0296044350"><time>2026-04-25T12:16:50Z</time></trkpt><trkpt lat="59.0770268440" lon="30.0296044350"><time>2026-04-25T12:16:53Z</time></trkpt><trkpt lat="59.0770268440" lon="30.0296258926"><time>2026-04-25T12:16:55Z</time></trkpt><trkpt lat="59.0770268440" lon="30.0296258926"><time>2026-04-25T12:16:58Z</time></trkpt><trkpt lat="59.0770268440" lon="30.0296258926"><time>2026-04-25T12:17:00Z</time></trkpt><trkpt lat="59.0770268440" lon="30.0296258926"><time>2026-04-25T12:17:03Z</time></trkpt><trkpt lat="59.0770053864" lon="30.0296473503"><time>2026-04-25T12:17:05Z</time></trkpt><trkpt lat="59.0770053864" lon="30.0296473503"><time>2026-04-25T12:17:08Z</time></trkpt><trkpt lat="59.0770053864" lon="30.0296688080"><time>2026-04-25T12:17:10Z</time></trkpt><trkpt lat="59.0770053864" lon="30.0296688080"><time>2026-04-25T12:17:13Z</time></trkpt><trkpt lat="59.0769839287" lon="30.0296688080"><time>2026-04-25T12:17:15Z</time></trkpt><trkpt lat="59.0769839287" lon="30.0296902657"><time>2026-04-25T12:17:18Z</time></trkpt><trkpt lat="59.0769624710" lon="30.0297117233"><time>2026-04-25T12:17:20Z</time></trkpt><trkpt lat="59.0769624710" lon="30.0297117233"><time>2026-04-25T12:17:23Z</time></trkpt><trkpt lat="59.0769624710" lon="30.0297331810"><time>2026-04-25T12:17:25Z</time></trkpt><trkpt lat="59.0769410133" lon="30.0297331810"><time>2026-04-25T12:17:28Z</time></trkpt><trkpt lat="59.0769410133" lon="30.0297331810"><time>2026-04-25T12:17:30Z</time></trkpt><trkpt lat="59.0769410133" lon="30.0297331810"><time>2026-04-25T12:17:33Z</time></trkpt><trkpt lat="59.0769195557" lon="30.0297331810"><time>2026-04-25T12:17:35Z</time></trkpt><trkpt lat="59.0769195557" lon="30.0297331810"><time>2026-04-25T12:17:38Z</time></trkpt><trkpt lat="59.0768980980" lon="30.0297331810"><time>2026-04-25T12:17:40Z</time></trkpt><trkpt lat="59.0768980980" lon="30.0297331810"><time>2026-04-25T12:17:43Z</time></trkpt><trkpt lat="59.0768980980" lon="30.0297331810"><time>2026-04-25T12:17:45Z</time></trkpt><trkpt lat="59.0768551826" lon="30.0297331810"><time>2026-04-25T12:17:48Z</time></trkpt><trkpt lat="59.0768337250" lon="30.0297546387"><time>2026-04-25T12:17:50Z</time></trkpt><trkpt lat="59.0768337250" lon="30.0297546387"><time>2026-04-25T12:17:53Z</time></trkpt><trkpt lat="59.0767908096" lon="30.0297975540"><time>2026-04-25T12:17:55Z</time></trkpt><trkpt lat="59.0767693520" lon="30.0297975540"><time>2026-04-25T12:17:58Z</time></trkpt><trkpt lat="59.0767478943" lon="30.0298190117"><time>2026-04-25T12:18:00Z</time></trkpt><trkpt lat="59.0767478943" lon="30.0298404694"><time>2026-04-25T12:18:03Z</time></trkpt><trkpt lat="59.0767478943" lon="30.0298619270"><time>2026-04-25T12:18:05Z</time></trkpt><trkpt lat="59.0767478943" lon="30.0298833847"><time>2026-04-25T12:18:08Z</time></trkpt><trkpt lat="59.0767478943" lon="30.0298619270"><time>2026-04-25T12:18:10Z</time></trkpt><trkpt lat="59.0767478943" lon="30.0298833847"><time>2026-04-25T12:18:13Z</time></trkpt><trkpt lat="59.0767478943" lon="30.0298833847"><time>2026-04-25T12:18:15Z</time></trkpt><trkpt lat="59.0767264366" lon="30.0298833847"><time>2026-04-25T12:18:18Z</time></trkpt><trkpt lat="59.0767478943" lon="30.0299048424"><time>2026-04-25T12:18:20Z</time></trkpt><trkpt lat="59.0767478943" lon="30.0299048424"><time>2026-04-25T12:18:23Z</time></trkpt><trkpt lat="59.0767478943" lon="30.0299048424"><time>2026-04-25T12:18:25Z</time></trkpt><trkpt lat="59.0767478943" lon="30.0299048424"><time>2026-04-25T12:18:28Z</time></trkpt><trkpt lat="59.0767693520" lon="30.0299692154"><time>2026-04-25T12:18:30Z</time></trkpt><trkpt lat="59.0767693520" lon="30.0299906731"><time>2026-04-25T12:18:33Z</time></trkpt><trkpt lat="59.0767693520" lon="30.0300121307"><time>2026-04-25T12:18:35Z</time></trkpt><trkpt lat="59.0767693520" lon="30.0300335884"><time>2026-04-25T12:18:38Z</time></trkpt><trkpt lat="59.0767693520" lon="30.0300550461"><time>2026-04-25T12:18:40Z</time></trkpt><trkpt lat="59.0767693520" lon="30.0300765038"><time>2026-04-25T12:18:43Z</time></trkpt><trkpt lat="59.0767478943" lon="30.0301837921"><time>2026-04-25T12:18:45Z</time></trkpt><trkpt lat="59.0767478943" lon="30.0302267075"><time>2026-04-25T12:18:48Z</time></trkpt><trkpt lat="59.0767478943" lon="30.0302696228"><time>2026-04-25T12:18:50Z</time></trkpt><trkpt lat="59.0767478943" lon="30.0302696228"><time>2026-04-25T12:18:53Z</time></trkpt><trkpt lat="59.0766835213" lon="30.0302696228"><time>2026-04-25T12:18:55Z</time></trkpt><trkpt lat="59.0766835213" lon="30.0302481651"><time>2026-04-25T12:18:58Z</time></trkpt><trkpt lat="59.0766835213" lon="30.0302696228"><time>2026-04-25T12:19:00Z</time></trkpt><trkpt lat="59.0766620636" lon="30.0302696228"><time>2026-04-25T12:19:03Z</time></trkpt><trkpt lat="59.0766406059" lon="30.0303125381"><time>2026-04-25T12:19:05Z</time></trkpt><trkpt lat="59.0766191483" lon="30.0303125381"><time>2026-04-25T12:19:08Z</time></trkpt><trkpt lat="59.0766191483" lon="30.0303339958"><time>2026-04-25T12:19:10Z</time></trkpt><trkpt lat="59.0765762329" lon="30.0303339958"><time>2026-04-25T12:19:13Z</time></trkpt><trkpt lat="59.0765762329" lon="30.0303339958"><time>2026-04-25T12:19:15Z</time></trkpt><trkpt lat="59.0765762329" lon="30.0303769112"><time>2026-04-25T12:19:18Z</time></trkpt><trkpt lat="59.0765547752" lon="30.0303769112"><time>2026-04-25T12:19:20Z</time></trkpt><trkpt lat="59.0765333176" lon="30.0303769112"><time>2026-04-25T12:19:23Z</time></trkpt><trkpt lat="59.0765333176" lon="30.0303769112"><time>2026-04-25T12:19:25Z</time></trkpt><trkpt lat="59.0765118599" lon="30.0303769112"><time>2026-04-25T12:19:28Z</time></trkpt><trkpt lat="59.0765118599" lon="30.0303983688"><time>2026-04-25T12:19:30Z</time></trkpt><trkpt lat="59.0764904022" lon="30.0304198265"><time>2026-04-25T12:19:33Z</time></trkpt><trkpt lat="59.0764689445" lon="30.0304412842"><time>2026-04-25T12:19:35Z</time></trkpt><trkpt lat="59.0764689445" lon="30.0304841995"><time>2026-04-25T12:19:38Z</time></trkpt><trkpt lat="59.0764689445" lon="30.0305271149"><time>2026-04-25T12:19:40Z</time></trkpt><trkpt lat="59.0764689445" lon="30.0305914879"><time>2026-04-25T12:19:43Z</time></trkpt><trkpt lat="59.0764474869" lon="30.0306129456"><time>2026-04-25T12:19:48Z</time></trkpt><trkpt lat="59.0764474869" lon="30.0306344032"><time>2026-04-25T12:19:50Z</time></trkpt><trkpt lat="59.0764260292" lon="30.0306558609"><time>2026-04-25T12:19:53Z</time></trkpt><trkpt lat="59.0764260292" lon="30.0306344032"><time>2026-04-25T12:19:55Z</time></trkpt><trkpt lat="59.0764260292" lon="30.0306344032"><time>2026-04-25T12:19:58Z</time></trkpt><trkpt lat="59.0764260292" lon="30.0306344032"><time>2026-04-25T12:20:00Z</time></trkpt><trkpt lat="59.0764260292" lon="30.0306344032"><time>2026-04-25T12:20:03Z</time></trkpt><trkpt lat="59.0764260292" lon="30.0306344032"><time>2026-04-25T12:20:05Z</time></trkpt><trkpt lat="59.0764260292" lon="30.0306344032"><time>2026-04-25T12:20:08Z</time></trkpt><trkpt lat="59.0764260292" lon="30.0306344032"><time>2026-04-25T12:20:10Z</time></trkpt><trkpt lat="59.0764260292" lon="30.0306344032"><time>2026-04-25T12:20:13Z</time></trkpt><trkpt lat="59.0764260292" lon="30.0306344032"><time>2026-04-25T12:20:15Z</time></trkpt><trkpt lat="59.0764474869" lon="30.0306344032"><time>2026-04-25T12:20:18Z</time></trkpt><trkpt lat="59.0764474869" lon="30.0306344032"><time>2026-04-25T12:20:20Z</time></trkpt><trkpt lat="59.0764474869" lon="30.0306344032"><time>2026-04-25T12:20:23Z</time></trkpt><trkpt lat="59.0764474869" lon="30.0306344032"><time>2026-04-25T12:20:25Z</time></trkpt><trkpt lat="59.0764474869" lon="30.0306344032"><time>2026-04-25T12:20:28Z</time></trkpt><trkpt lat="59.0764474869" lon="30.0306344032"><time>2026-04-25T12:20:30Z</time></trkpt><trkpt lat="59.0764474869" lon="30.0306344032"><time>2026-04-25T12:20:33Z</time></trkpt><trkpt lat="59.0764474869" lon="30.0306344032"><time>2026-04-25T12:20:35Z</time></trkpt><trkpt lat="59.0764474869" lon="30.0306344032"><time>2026-04-25T12:20:38Z</time></trkpt><trkpt lat="59.0764474869" lon="30.0306344032"><time>2026-04-25T12:20:40Z</time></trkpt><trkpt lat="59.0764474869" lon="30.0306344032"><time>2026-04-25T12:20:43Z</time></trkpt><trkpt lat="59.0764474869" lon="30.0306344032"><time>2026-04-25T12:20:45Z</time></trkpt><trkpt lat="59.0764474869" lon="30.0306344032"><time>2026-04-25T12:20:48Z</time></trkpt><trkpt lat="59.0764474869" lon="30.0306344032"><time>2026-04-25T12:20:50Z</time></trkpt><trkpt lat="59.0764474869" lon="30.0306344032"><time>2026-04-25T12:20:53Z</time></trkpt><trkpt lat="59.0764474869" lon="30.0306129456"><time>2026-04-25T12:20:55Z</time></trkpt><trkpt lat="59.0764474869" lon="30.0306129456"><time>2026-04-25T12:20:58Z</time></trkpt><trkpt lat="59.0764474869" lon="30.0306129456"><time>2026-04-25T12:21:00Z</time></trkpt><trkpt lat="59.0764474869" lon="30.0306129456"><time>2026-04-25T12:21:03Z</time></trkpt><trkpt lat="59.0764474869" lon="30.0306129456"><time>2026-04-25T12:21:05Z</time></trkpt><trkpt lat="59.0764474869" lon="30.0306129456"><time>2026-04-25T12:21:08Z</time></trkpt><trkpt lat="59.0764474869" lon="30.0306129456"><time>2026-04-25T12:21:10Z</time></trkpt><trkpt lat="59.0764474869" lon="30.0306129456"><time>2026-04-25T12:21:13Z</time></trkpt><trkpt lat="59.0764474869" lon="30.0306129456"><time>2026-04-25T12:21:15Z</time></trkpt><trkpt lat="59.0764474869" lon="30.0306129456"><time>2026-04-25T12:21:18Z</time></trkpt><trkpt lat="59.0764474869" lon="30.0306129456"><time>2026-04-25T12:21:20Z</time></trkpt><trkpt lat="59.0764260292" lon="30.0306129456"><time>2026-04-25T12:21:23Z</time></trkpt><trkpt lat="59.0764260292" lon="30.0306344032"><time>2026-04-25T12:21:25Z</time></trkpt><trkpt lat="59.0764260292" lon="30.0306344032"><time>2026-04-25T12:21:28Z</time></trkpt><trkpt lat="59.0764260292" lon="30.0306344032"><time>2026-04-25T12:21:30Z</time></trkpt><trkpt lat="59.0764260292" lon="30.0306344032"><time>2026-04-25T12:21:33Z</time></trkpt><trkpt lat="59.0764260292" lon="30.0306344032"><time>2026-04-25T12:21:35Z</time></trkpt><trkpt lat="59.0764260292" lon="30.0306344032"><time>2026-04-25T12:21:38Z</time></trkpt><trkpt lat="59.0764260292" lon="30.0306344032"><time>2026-04-25T12:21:40Z</time></trkpt><trkpt lat="59.0764260292" lon="30.0306344032"><time>2026-04-25T12:21:43Z</time></trkpt><trkpt lat="59.0764260292" lon="30.0306344032"><time>2026-04-25T12:21:45Z</time></trkpt><trkpt lat="59.0764260292" lon="30.0306344032"><time>2026-04-25T12:21:48Z</time></trkpt><trkpt lat="59.0764260292" lon="30.0306344032"><time>2026-04-25T12:21:50Z</time></trkpt><trkpt lat="59.0764260292" lon="30.0306344032"><time>2026-04-25T12:21:53Z</time></trkpt><trkpt lat="59.0764260292" lon="30.0306344032"><time>2026-04-25T12:21:55Z</time></trkpt><trkpt lat="59.0764260292" lon="30.0306344032"><time>2026-04-25T12:21:58Z</time></trkpt><trkpt lat="59.0764260292" lon="30.0306344032"><time>2026-04-25T12:22:00Z</time></trkpt><trkpt lat="59.0764260292" lon="30.0306344032"><time>2026-04-25T12:22:03Z</time></trkpt><trkpt lat="59.0764260292" lon="30.0306344032"><time>2026-04-25T12:22:05Z</time></trkpt><trkpt lat="59.0764260292" lon="30.0306344032"><time>2026-04-25T12:22:08Z</time></trkpt><trkpt lat="59.0764260292" lon="30.0306344032"><time>2026-04-25T12:22:10Z</time></trkpt><trkpt lat="59.0764260292" lon="30.0306344032"><time>2026-04-25T12:22:13Z</time></trkpt><trkpt lat="59.0764260292" lon="30.0306344032"><time>2026-04-25T12:22:15Z</time></trkpt><trkpt lat="59.0764260292" lon="30.0306344032"><time>2026-04-25T12:22:18Z</time></trkpt><trkpt lat="59.0764260292" lon="30.0306344032"><time>2026-04-25T12:22:20Z</time></trkpt><trkpt lat="59.0764260292" lon="30.0306344032"><time>2026-04-25T12:22:23Z</time></trkpt><trkpt lat="59.0764260292" lon="30.0306344032"><time>2026-04-25T12:22:25Z</time></trkpt><trkpt lat="59.0764260292" lon="30.0306344032"><time>2026-04-25T12:22:28Z</time></trkpt><trkpt lat="59.0764260292" lon="30.0306344032"><time>2026-04-25T12:22:30Z</time></trkpt><trkpt lat="59.0764260292" lon="30.0306344032"><time>2026-04-25T12:22:33Z</time></trkpt><trkpt lat="59.0764260292" lon="30.0306129456"><time>2026-04-25T12:22:35Z</time></trkpt><trkpt lat="59.0764260292" lon="30.0306129456"><time>2026-04-25T12:22:38Z</time></trkpt><trkpt lat="59.0764260292" lon="30.0306129456"><time>2026-04-25T12:22:40Z</time></trkpt><trkpt lat="59.0764260292" lon="30.0306129456"><time>2026-04-25T12:22:43Z</time></trkpt><trkpt lat="59.0764260292" lon="30.0306129456"><time>2026-04-25T12:22:45Z</time></trkpt><trkpt lat="59.0764260292" lon="30.0306129456"><time>2026-04-25T12:22:48Z</time></trkpt><trkpt lat="59.0764260292" lon="30.0306129456"><time>2026-04-25T12:22:50Z</time></trkpt><trkpt lat="59.0764260292" lon="30.0306129456"><time>2026-04-25T12:22:53Z</time></trkpt><trkpt lat="59.0764260292" lon="30.0306129456"><time>2026-04-25T12:22:55Z</time></trkpt><trkpt lat="59.0764260292" lon="30.0306129456"><time>2026-04-25T12:22:58Z</time></trkpt><trkpt lat="59.0764260292" lon="30.0306129456"><time>2026-04-25T12:23:00Z</time></trkpt><trkpt lat="59.0764260292" lon="30.0306129456"><time>2026-04-25T12:23:03Z</time></trkpt><trkpt lat="59.0764260292" lon="30.0306129456"><time>2026-04-25T12:23:05Z</time></trkpt><trkpt lat="59.0764260292" lon="30.0306129456"><time>2026-04-25T12:23:08Z</time></trkpt><trkpt lat="59.0764260292" lon="30.0306129456"><time>2026-04-25T12:23:10Z</time></trkpt><trkpt lat="59.0764260292" lon="30.0306129456"><time>2026-04-25T12:23:13Z</time></trkpt><trkpt lat="59.0764260292" lon="30.0306129456"><time>2026-04-25T12:23:15Z</time></trkpt><trkpt lat="59.0764260292" lon="30.0306129456"><time>2026-04-25T12:23:18Z</time></trkpt><trkpt lat="59.0764260292" lon="30.0306129456"><time>2026-04-25T12:23:20Z</time></trkpt><trkpt lat="59.0764260292" lon="30.0306129456"><time>2026-04-25T12:23:23Z</time></trkpt><trkpt lat="59.0764260292" lon="30.0306129456"><time>2026-04-25T12:23:25Z</time></trkpt><trkpt lat="59.0764260292" lon="30.0306129456"><time>2026-04-25T12:23:28Z</time></trkpt><trkpt lat="59.0764260292" lon="30.0306129456"><time>2026-04-25T12:23:30Z</time></trkpt><trkpt lat="59.0764260292" lon="30.0306129456"><time>2026-04-25T12:23:33Z</time></trkpt><trkpt lat="59.0764260292" lon="30.0306129456"><time>2026-04-25T12:23:35Z</time></trkpt><trkpt lat="59.0764260292" lon="30.0306129456"><time>2026-04-25T12:23:38Z</time></trkpt><trkpt lat="59.0764260292" lon="30.0306129456"><time>2026-04-25T12:23:40Z</time></trkpt><trkpt lat="59.0764260292" lon="30.0306129456"><time>2026-04-25T12:23:43Z</time></trkpt><trkpt lat="59.0764260292" lon="30.0306129456"><time>2026-04-25T12:23:45Z</time></trkpt><trkpt lat="59.0764260292" lon="30.0306129456"><time>2026-04-25T12:23:48Z</time></trkpt><trkpt lat="59.0764260292" lon="30.0306129456"><time>2026-04-25T12:23:50Z</time></trkpt><trkpt lat="59.0764260292" lon="30.0306129456"><time>2026-04-25T12:23:53Z</time></trkpt><trkpt lat="59.0764260292" lon="30.0306344032"><time>2026-04-25T12:23:55Z</time></trkpt><trkpt lat="59.0764260292" lon="30.0306344032"><time>2026-04-25T12:23:58Z</time></trkpt><trkpt lat="59.0764260292" lon="30.0306344032"><time>2026-04-25T12:24:00Z</time></trkpt><trkpt lat="59.0764260292" lon="30.0306344032"><time>2026-04-25T12:24:03Z</time></trkpt><trkpt lat="59.0764260292" lon="30.0306344032"><time>2026-04-25T12:24:05Z</time></trkpt><trkpt lat="59.0764260292" lon="30.0306344032"><time>2026-04-25T12:24:08Z</time></trkpt><trkpt lat="59.0764260292" lon="30.0306344032"><time>2026-04-25T12:24:10Z</time></trkpt><trkpt lat="59.0764260292" lon="30.0306344032"><time>2026-04-25T12:24:13Z</time></trkpt><trkpt lat="59.0764260292" lon="30.0306344032"><time>2026-04-25T12:24:15Z</time></trkpt><trkpt lat="59.0764260292" lon="30.0306344032"><time>2026-04-25T12:24:18Z</time></trkpt><trkpt lat="59.0764260292" lon="30.0306344032"><time>2026-04-25T12:24:20Z</time></trkpt><trkpt lat="59.0764260292" lon="30.0306344032"><time>2026-04-25T12:24:23Z</time></trkpt><trkpt lat="59.0764260292" lon="30.0306344032"><time>2026-04-25T12:24:25Z</time></trkpt><trkpt lat="59.0764260292" lon="30.0306344032"><time>2026-04-25T12:24:28Z</time></trkpt><trkpt lat="59.0764260292" lon="30.0306344032"><time>2026-04-25T12:24:30Z</time></trkpt><trkpt lat="59.0764260292" lon="30.0306558609"><time>2026-04-25T12:24:33Z</time></trkpt><trkpt lat="59.0764260292" lon="30.0306558609"><time>2026-04-25T12:24:35Z</time></trkpt><trkpt lat="59.0764260292" lon="30.0306558609"><time>2026-04-25T12:24:38Z</time></trkpt><trkpt lat="59.0764260292" lon="30.0306558609"><time>2026-04-25T12:24:40Z</time></trkpt><trkpt lat="59.0764260292" lon="30.0306558609"><time>2026-04-25T12:24:43Z</time></trkpt><trkpt lat="59.0764260292" lon="30.0306558609"><time>2026-04-25T12:24:45Z</time></trkpt><trkpt lat="59.0764260292" lon="30.0307631493"><time>2026-04-25T12:24:48Z</time></trkpt><trkpt lat="59.0764045715" lon="30.0309348106"><time>2026-04-25T12:24:50Z</time></trkpt><trkpt lat="59.0764045715" lon="30.0310850143"><time>2026-04-25T12:24:53Z</time></trkpt><trkpt lat="59.0763831139" lon="30.0313210487"><time>2026-04-25T12:24:55Z</time></trkpt><trkpt lat="59.0763616562" lon="30.0313639641"><time>2026-04-25T12:24:58Z</time></trkpt><trkpt lat="59.0763401985" lon="30.0314497948"><time>2026-04-25T12:25:00Z</time></trkpt><trkpt lat="59.0763401985" lon="30.0314927101"><time>2026-04-25T12:25:03Z</time></trkpt><trkpt lat="59.0763401985" lon="30.0314927101"><time>2026-04-25T12:25:05Z</time></trkpt><trkpt lat="59.0763401985" lon="30.0314712524"><time>2026-04-25T12:25:08Z</time></trkpt><trkpt lat="59.0763401985" lon="30.0314712524"><time>2026-04-25T12:25:10Z</time></trkpt><trkpt lat="59.0763401985" lon="30.0314712524"><time>2026-04-25T12:25:13Z</time></trkpt><trkpt lat="59.0763401985" lon="30.0314712524"><time>2026-04-25T12:25:15Z</time></trkpt><trkpt lat="59.0763401985" lon="30.0314712524"><time>2026-04-25T12:25:18Z</time></trkpt><trkpt lat="59.0763401985" lon="30.0314712524"><time>2026-04-25T12:25:20Z</time></trkpt><trkpt lat="59.0763401985" lon="30.0314712524"><time>2026-04-25T12:25:23Z</time></trkpt><trkpt lat="59.0763401985" lon="30.0314712524"><time>2026-04-25T12:25:25Z</time></trkpt><trkpt lat="59.0763401985" lon="30.0314712524"><time>2026-04-25T12:25:28Z</time></trkpt><trkpt lat="59.0763401985" lon="30.0314712524"><time>2026-04-25T12:25:30Z</time></trkpt><trkpt lat="59.0763401985" lon="30.0314712524"><time>2026-04-25T12:25:33Z</time></trkpt><trkpt lat="59.0763401985" lon="30.0314712524"><time>2026-04-25T12:25:35Z</time></trkpt><trkpt lat="59.0763401985" lon="30.0314712524"><time>2026-04-25T12:25:38Z</time></trkpt><trkpt lat="59.0763401985" lon="30.0314712524"><time>2026-04-25T12:25:40Z</time></trkpt><trkpt lat="59.0763401985" lon="30.0314497948"><time>2026-04-25T12:25:43Z</time></trkpt><trkpt lat="59.0763401985" lon="30.0314497948"><time>2026-04-25T12:25:45Z</time></trkpt><trkpt lat="59.0763401985" lon="30.0314497948"><time>2026-04-25T12:25:48Z</time></trkpt><trkpt lat="59.0763401985" lon="30.0314497948"><time>2026-04-25T12:25:50Z</time></trkpt><trkpt lat="59.0763401985" lon="30.0314497948"><time>2026-04-25T12:25:53Z</time></trkpt><trkpt lat="59.0763401985" lon="30.0314497948"><time>2026-04-25T12:25:55Z</time></trkpt><trkpt lat="59.0763401985" lon="30.0314497948"><time>2026-04-25T12:25:58Z</time></trkpt><trkpt lat="59.0763401985" lon="30.0314497948"><time>2026-04-25T12:26:00Z</time></trkpt><trkpt lat="59.0763401985" lon="30.0314497948"><time>2026-04-25T12:26:03Z</time></trkpt><trkpt lat="59.0763616562" lon="30.0314497948"><time>2026-04-25T12:26:05Z</time></trkpt><trkpt lat="59.0763616562" lon="30.0314497948"><time>2026-04-25T12:26:08Z</time></trkpt><trkpt lat="59.0763401985" lon="30.0314497948"><time>2026-04-25T12:26:10Z</time></trkpt><trkpt lat="59.0763616562" lon="30.0314497948"><time>2026-04-25T12:26:13Z</time></trkpt><trkpt lat="59.0763616562" lon="30.0314497948"><time>2026-04-25T12:26:15Z</time></trkpt><trkpt lat="59.0763616562" lon="30.0314497948"><time>2026-04-25T12:26:18Z</time></trkpt><trkpt lat="59.0763616562" lon="30.0314497948"><time>2026-04-25T12:26:20Z</time></trkpt><trkpt lat="59.0763616562" lon="30.0314497948"><time>2026-04-25T12:26:23Z</time></trkpt><trkpt lat="59.0763616562" lon="30.0314497948"><time>2026-04-25T12:26:25Z</time></trkpt><trkpt lat="59.0763616562" lon="30.0314497948"><time>2026-04-25T12:26:28Z</time></trkpt><trkpt lat="59.0763616562" lon="30.0314497948"><time>2026-04-25T12:26:30Z</time></trkpt><trkpt lat="59.0763616562" lon="30.0314497948"><time>2026-04-25T12:26:33Z</time></trkpt><trkpt lat="59.0763616562" lon="30.0314497948"><time>2026-04-25T12:26:35Z</time></trkpt><trkpt lat="59.0763616562" lon="30.0314497948"><time>2026-04-25T12:26:38Z</time></trkpt><trkpt lat="59.0763616562" lon="30.0314497948"><time>2026-04-25T12:26:40Z</time></trkpt><trkpt lat="59.0763616562" lon="30.0314497948"><time>2026-04-25T12:26:43Z</time></trkpt><trkpt lat="59.0763616562" lon="30.0314497948"><time>2026-04-25T12:26:45Z</time></trkpt><trkpt lat="59.0763616562" lon="30.0314497948"><time>2026-04-25T12:26:48Z</time></trkpt><trkpt lat="59.0763616562" lon="30.0314497948"><time>2026-04-25T12:26:50Z</time></trkpt><trkpt lat="59.0763616562" lon="30.0314497948"><time>2026-04-25T12:26:53Z</time></trkpt><trkpt lat="59.0763616562" lon="30.0314497948"><time>2026-04-25T12:26:55Z</time></trkpt><trkpt lat="59.0763616562" lon="30.0314497948"><time>2026-04-25T12:26:58Z</time></trkpt><trkpt lat="59.0763616562" lon="30.0314497948"><time>2026-04-25T12:27:00Z</time></trkpt><trkpt lat="59.0763616562" lon="30.0314497948"><time>2026-04-25T12:27:03Z</time></trkpt><trkpt lat="59.0763616562" lon="30.0314497948"><time>2026-04-25T12:27:05Z</time></trkpt><trkpt lat="59.0763616562" lon="30.0314497948"><time>2026-04-25T12:27:08Z</time></trkpt><trkpt lat="59.0763616562" lon="30.0314497948"><time>2026-04-25T12:27:10Z</time></trkpt><trkpt lat="59.0763616562" lon="30.0314497948"><time>2026-04-25T12:27:13Z</time></trkpt><trkpt lat="59.0763616562" lon="30.0314497948"><time>2026-04-25T12:27:15Z</time></trkpt><trkpt lat="59.0763616562" lon="30.0314497948"><time>2026-04-25T12:27:18Z</time></trkpt><trkpt lat="59.0763616562" lon="30.0314497948"><time>2026-04-25T12:27:20Z</time></trkpt><trkpt lat="59.0763616562" lon="30.0314497948"><time>2026-04-25T12:27:23Z</time></trkpt><trkpt lat="59.0763616562" lon="30.0314497948"><time>2026-04-25T12:27:25Z</time></trkpt><trkpt lat="59.0763616562" lon="30.0314497948"><time>2026-04-25T12:27:28Z</time></trkpt><trkpt lat="59.0763616562" lon="30.0314497948"><time>2026-04-25T12:27:30Z</time></trkpt><trkpt lat="59.0763616562" lon="30.0314497948"><time>2026-04-25T12:27:33Z</time></trkpt><trkpt lat="59.0763616562" lon="30.0314497948"><time>2026-04-25T12:27:35Z</time></trkpt><trkpt lat="59.0763616562" lon="30.0314497948"><time>2026-04-25T12:27:38Z</time></trkpt><trkpt lat="59.0763616562" lon="30.0314497948"><time>2026-04-25T12:27:40Z</time></trkpt><trkpt lat="59.0763616562" lon="30.0314497948"><time>2026-04-25T12:27:43Z</time></trkpt><trkpt lat="59.0763616562" lon="30.0314497948"><time>2026-04-25T12:27:45Z</time></trkpt><trkpt lat="59.0763616562" lon="30.0314497948"><time>2026-04-25T12:27:48Z</time></trkpt><trkpt lat="59.0763616562" lon="30.0314497948"><time>2026-04-25T12:27:50Z</time></trkpt><trkpt lat="59.0763616562" lon="30.0314497948"><time>2026-04-25T12:27:53Z</time></trkpt><trkpt lat="59.0763616562" lon="30.0314497948"><time>2026-04-25T12:27:55Z</time></trkpt><trkpt lat="59.0763616562" lon="30.0314497948"><time>2026-04-25T12:27:58Z</time></trkpt><trkpt lat="59.0763616562" lon="30.0314497948"><time>2026-04-25T12:28:00Z</time></trkpt><trkpt lat="59.0763616562" lon="30.0314497948"><time>2026-04-25T12:28:03Z</time></trkpt><trkpt lat="59.0763616562" lon="30.0314497948"><time>2026-04-25T12:28:05Z</time></trkpt><trkpt lat="59.0763616562" lon="30.0314497948"><time>2026-04-25T12:28:08Z</time></trkpt><trkpt lat="59.0763616562" lon="30.0314497948"><time>2026-04-25T12:28:10Z</time></trkpt><trkpt lat="59.0763616562" lon="30.0314497948"><time>2026-04-25T12:28:13Z</time></trkpt><trkpt lat="59.0763616562" lon="30.0314497948"><time>2026-04-25T12:28:15Z</time></trkpt><trkpt lat="59.0763616562" lon="30.0314497948"><time>2026-04-25T12:28:18Z</time></trkpt><trkpt lat="59.0763616562" lon="30.0314497948"><time>2026-04-25T12:28:20Z</time></trkpt><trkpt lat="59.0763616562" lon="30.0314497948"><time>2026-04-25T12:28:23Z</time></trkpt><trkpt lat="59.0763616562" lon="30.0314497948"><time>2026-04-25T12:28:25Z</time></trkpt><trkpt lat="59.0763616562" lon="30.0314497948"><time>2026-04-25T12:28:28Z</time></trkpt><trkpt lat="59.0763616562" lon="30.0314497948"><time>2026-04-25T12:28:30Z</time></trkpt><trkpt lat="59.0763616562" lon="30.0314497948"><time>2026-04-25T12:28:33Z</time></trkpt><trkpt lat="59.0763616562" lon="30.0314497948"><time>2026-04-25T12:28:35Z</time></trkpt><trkpt lat="59.0763616562" lon="30.0314497948"><time>2026-04-25T12:28:38Z</time></trkpt><trkpt lat="59.0763616562" lon="30.0314497948"><time>2026-04-25T12:28:40Z</time></trkpt><trkpt lat="59.0763616562" lon="30.0314497948"><time>2026-04-25T12:28:43Z</time></trkpt><trkpt lat="59.0763616562" lon="30.0314497948"><time>2026-04-25T12:28:45Z</time></trkpt><trkpt lat="59.0763616562" lon="30.0314497948"><time>2026-04-25T12:28:48Z</time></trkpt><trkpt lat="59.0763616562" lon="30.0314497948"><time>2026-04-25T12:28:50Z</time></trkpt><trkpt lat="59.0763616562" lon="30.0314497948"><time>2026-04-25T12:28:53Z</time></trkpt><trkpt lat="59.0763616562" lon="30.0314497948"><time>2026-04-25T12:28:55Z</time></trkpt><trkpt lat="59.0763616562" lon="30.0314497948"><time>2026-04-25T12:28:58Z</time></trkpt><trkpt lat="59.0763616562" lon="30.0314497948"><time>2026-04-25T12:29:00Z</time></trkpt><trkpt lat="59.0763616562" lon="30.0314497948"><time>2026-04-25T12:29:03Z</time></trkpt><trkpt lat="59.0763616562" lon="30.0314497948"><time>2026-04-25T12:29:05Z</time></trkpt><trkpt lat="59.0763616562" lon="30.0314497948"><time>2026-04-25T12:29:08Z</time></trkpt><trkpt lat="59.0763616562" lon="30.0314497948"><time>2026-04-25T12:29:10Z</time></trkpt><trkpt lat="59.0763616562" lon="30.0314497948"><time>2026-04-25T12:29:13Z</time></trkpt><trkpt lat="59.0763616562" lon="30.0314497948"><time>2026-04-25T12:29:15Z</time></trkpt><trkpt lat="59.0763616562" lon="30.0314497948"><time>2026-04-25T12:29:18Z</time></trkpt><trkpt lat="59.0763401985" lon="30.0314497948"><time>2026-04-25T12:29:20Z</time></trkpt><trkpt lat="59.0763616562" lon="30.0314497948"><time>2026-04-25T12:29:23Z</time></trkpt><trkpt lat="59.0763616562" lon="30.0314497948"><time>2026-04-25T12:29:25Z</time></trkpt><trkpt lat="59.0763616562" lon="30.0314497948"><time>2026-04-25T12:29:28Z</time></trkpt><trkpt lat="59.0763616562" lon="30.0314497948"><time>2026-04-25T12:29:30Z</time></trkpt><trkpt lat="59.0763616562" lon="30.0314497948"><time>2026-04-25T12:29:33Z</time></trkpt><trkpt lat="59.0763616562" lon="30.0314497948"><time>2026-04-25T12:29:35Z</time></trkpt><trkpt lat="59.0763616562" lon="30.0314497948"><time>2026-04-25T12:29:38Z</time></trkpt><trkpt lat="59.0763401985" lon="30.0314497948"><time>2026-04-25T12:29:40Z</time></trkpt><trkpt lat="59.0763401985" lon="30.0314497948"><time>2026-04-25T12:29:43Z</time></trkpt><trkpt lat="59.0763401985" lon="30.0314497948"><time>2026-04-25T12:29:45Z</time></trkpt><trkpt lat="59.0763401985" lon="30.0314497948"><time>2026-04-25T12:29:48Z</time></trkpt><trkpt lat="59.0763401985" lon="30.0314497948"><time>2026-04-25T12:29:50Z</time></trkpt><trkpt lat="59.0763401985" lon="30.0314497948"><time>2026-04-25T12:29:53Z</time></trkpt><trkpt lat="59.0763401985" lon="30.0314497948"><time>2026-04-25T12:29:55Z</time></trkpt><trkpt lat="59.0763401985" lon="30.0314497948"><time>2026-04-25T12:29:58Z</time></trkpt><trkpt lat="59.0763401985" lon="30.0314497948"><time>2026-04-25T12:30:00Z</time></trkpt><trkpt lat="59.0763401985" lon="30.0314497948"><time>2026-04-25T12:30:03Z</time></trkpt><trkpt lat="59.0763401985" lon="30.0314497948"><time>2026-04-25T12:30:06Z</time></trkpt><trkpt lat="59.0763401985" lon="30.0314497948"><time>2026-04-25T12:30:08Z</time></trkpt><trkpt lat="59.0763401985" lon="30.0314497948"><time>2026-04-25T12:30:10Z</time></trkpt><trkpt lat="59.0763401985" lon="30.0314497948"><time>2026-04-25T12:30:13Z</time></trkpt><trkpt lat="59.0763401985" lon="30.0314497948"><time>2026-04-25T12:30:15Z</time></trkpt><trkpt lat="59.0763401985" lon="30.0314497948"><time>2026-04-25T12:30:18Z</time></trkpt><trkpt lat="59.0763401985" lon="30.0314497948"><time>2026-04-25T12:30:20Z</time></trkpt><trkpt lat="59.0763401985" lon="30.0314497948"><time>2026-04-25T12:30:23Z</time></trkpt><trkpt lat="59.0763401985" lon="30.0314497948"><time>2026-04-25T12:30:25Z</time></trkpt><trkpt lat="59.0763401985" lon="30.0314497948"><time>2026-04-25T12:30:28Z</time></trkpt><trkpt lat="59.0763401985" lon="30.0314497948"><time>2026-04-25T12:30:30Z</time></trkpt><trkpt lat="59.0763401985" lon="30.0314497948"><time>2026-04-25T12:30:33Z</time></trkpt><trkpt lat="59.0763401985" lon="30.0314497948"><time>2026-04-25T12:30:35Z</time></trkpt><trkpt lat="59.0763401985" lon="30.0314497948"><time>2026-04-25T12:30:38Z</time></trkpt><trkpt lat="59.0763401985" lon="30.0314497948"><time>2026-04-25T12:30:40Z</time></trkpt><trkpt lat="59.0763401985" lon="30.0314497948"><time>2026-04-25T12:30:43Z</time></trkpt><trkpt lat="59.0763401985" lon="30.0314497948"><time>2026-04-25T12:30:45Z</time></trkpt><trkpt lat="59.0763401985" lon="30.0314497948"><time>2026-04-25T12:30:48Z</time></trkpt><trkpt lat="59.0763401985" lon="30.0314497948"><time>2026-04-25T12:30:50Z</time></trkpt><trkpt lat="59.0763401985" lon="30.0314497948"><time>2026-04-25T12:30:53Z</time></trkpt><trkpt lat="59.0763401985" lon="30.0314497948"><time>2026-04-25T12:30:55Z</time></trkpt><trkpt lat="59.0763401985" lon="30.0314497948"><time>2026-04-25T12:30:58Z</time></trkpt><trkpt lat="59.0763401985" lon="30.0314497948"><time>2026-04-25T12:31:00Z</time></trkpt><trkpt lat="59.0763401985" lon="30.0314497948"><time>2026-04-25T12:31:03Z</time></trkpt><trkpt lat="59.0763401985" lon="30.0314497948"><time>2026-04-25T12:31:05Z</time></trkpt><trkpt lat="59.0763401985" lon="30.0314497948"><time>2026-04-25T12:31:08Z</time></trkpt><trkpt lat="59.0763401985" lon="30.0314497948"><time>2026-04-25T12:31:10Z</time></trkpt><trkpt lat="59.0763401985" lon="30.0314497948"><time>2026-04-25T12:31:13Z</time></trkpt><trkpt lat="59.0763401985" lon="30.0314497948"><time>2026-04-25T12:31:15Z</time></trkpt><trkpt lat="59.0763401985" lon="30.0314497948"><time>2026-04-25T12:31:18Z</time></trkpt><trkpt lat="59.0763401985" lon="30.0314497948"><time>2026-04-25T12:31:20Z</time></trkpt><trkpt lat="59.0763401985" lon="30.0314497948"><time>2026-04-25T12:31:23Z</time></trkpt><trkpt lat="59.0763401985" lon="30.0314497948"><time>2026-04-25T12:31:25Z</time></trkpt><trkpt lat="59.0763401985" lon="30.0314497948"><time>2026-04-25T12:31:28Z</time></trkpt><trkpt lat="59.0763401985" lon="30.0314283371"><time>2026-04-25T12:31:30Z</time></trkpt><trkpt lat="59.0763401985" lon="30.0314283371"><time>2026-04-25T12:31:33Z</time></trkpt><trkpt lat="59.0763401985" lon="30.0314283371"><time>2026-04-25T12:31:35Z</time></trkpt><trkpt lat="59.0763401985" lon="30.0314283371"><time>2026-04-25T12:31:38Z</time></trkpt><trkpt lat="59.0763401985" lon="30.0314283371"><time>2026-04-25T12:31:40Z</time></trkpt><trkpt lat="59.0763401985" lon="30.0314283371"><time>2026-04-25T12:31:43Z</time></trkpt><trkpt lat="59.0763401985" lon="30.0314283371"><time>2026-04-25T12:31:45Z</time></trkpt><trkpt lat="59.0763401985" lon="30.0314283371"><time>2026-04-25T12:31:48Z</time></trkpt><trkpt lat="59.0763401985" lon="30.0314283371"><time>2026-04-25T12:31:50Z</time></trkpt><trkpt lat="59.0763401985" lon="30.0314283371"><time>2026-04-25T12:31:53Z</time></trkpt><trkpt lat="59.0763401985" lon="30.0314283371"><time>2026-04-25T12:31:55Z</time></trkpt><trkpt lat="59.0763401985" lon="30.0314283371"><time>2026-04-25T12:31:58Z</time></trkpt><trkpt lat="59.0763401985" lon="30.0314068794"><time>2026-04-25T12:32:00Z</time></trkpt><trkpt lat="59.0763401985" lon="30.0314068794"><time>2026-04-25T12:32:03Z</time></trkpt><trkpt lat="59.0763401985" lon="30.0314068794"><time>2026-04-25T12:32:05Z</time></trkpt><trkpt lat="59.0763401985" lon="30.0314068794"><time>2026-04-25T12:32:08Z</time></trkpt><trkpt lat="59.0763401985" lon="30.0314068794"><time>2026-04-25T12:32:10Z</time></trkpt><trkpt lat="59.0763401985" lon="30.0314068794"><time>2026-04-25T12:32:13Z</time></trkpt><trkpt lat="59.0763187408" lon="30.0314068794"><time>2026-04-25T12:32:15Z</time></trkpt><trkpt lat="59.0763187408" lon="30.0314068794"><time>2026-04-25T12:32:18Z</time></trkpt><trkpt lat="59.0763187408" lon="30.0314068794"><time>2026-04-25T12:32:20Z</time></trkpt><trkpt lat="59.0763187408" lon="30.0314068794"><time>2026-04-25T12:32:23Z</time></trkpt><trkpt lat="59.0763187408" lon="30.0314068794"><time>2026-04-25T12:32:25Z</time></trkpt><trkpt lat="59.0763187408" lon="30.0314068794"><time>2026-04-25T12:32:28Z</time></trkpt><trkpt lat="59.0763187408" lon="30.0313854218"><time>2026-04-25T12:32:30Z</time></trkpt><trkpt lat="59.0763187408" lon="30.0313854218"><time>2026-04-25T12:32:33Z</time></trkpt><trkpt lat="59.0763187408" lon="30.0313854218"><time>2026-04-25T12:32:35Z</time></trkpt><trkpt lat="59.0763187408" lon="30.0313854218"><time>2026-04-25T12:32:38Z</time></trkpt><trkpt lat="59.0763187408" lon="30.0313854218"><time>2026-04-25T12:32:40Z</time></trkpt><trkpt lat="59.0763187408" lon="30.0313854218"><time>2026-04-25T12:32:43Z</time></trkpt><trkpt lat="59.0763187408" lon="30.0313854218"><time>2026-04-25T12:32:45Z</time></trkpt><trkpt lat="59.0763187408" lon="30.0313854218"><time>2026-04-25T12:32:48Z</time></trkpt><trkpt lat="59.0763187408" lon="30.0313854218"><time>2026-04-25T12:32:50Z</time></trkpt><trkpt lat="59.0763187408" lon="30.0313854218"><time>2026-04-25T12:32:53Z</time></trkpt><trkpt lat="59.0763187408" lon="30.0313854218"><time>2026-04-25T12:32:55Z</time></trkpt><trkpt lat="59.0763187408" lon="30.0313639641"><time>2026-04-25T12:32:58Z</time></trkpt><trkpt lat="59.0763187408" lon="30.0313639641"><time>2026-04-25T12:33:00Z</time></trkpt><trkpt lat="59.0763187408" lon="30.0313639641"><time>2026-04-25T12:33:03Z</time></trkpt><trkpt lat="59.0763187408" lon="30.0313639641"><time>2026-04-25T12:33:05Z</time></trkpt><trkpt lat="59.0763187408" lon="30.0313639641"><time>2026-04-25T12:33:08Z</time></trkpt><trkpt lat="59.0763187408" lon="30.0313639641"><time>2026-04-25T12:33:10Z</time></trkpt><trkpt lat="59.0763187408" lon="30.0313639641"><time>2026-04-25T12:33:13Z</time></trkpt><trkpt lat="59.0763187408" lon="30.0313639641"><time>2026-04-25T12:33:15Z</time></trkpt><trkpt lat="59.0763187408" lon="30.0313639641"><time>2026-04-25T12:33:18Z</time></trkpt><trkpt lat="59.0763187408" lon="30.0313639641"><time>2026-04-25T12:33:20Z</time></trkpt><trkpt lat="59.0763187408" lon="30.0313639641"><time>2026-04-25T12:33:23Z</time></trkpt><trkpt lat="59.0763187408" lon="30.0313425064"><time>2026-04-25T12:33:25Z</time></trkpt><trkpt lat="59.0763187408" lon="30.0313425064"><time>2026-04-25T12:33:28Z</time></trkpt><trkpt lat="59.0763187408" lon="30.0313425064"><time>2026-04-25T12:33:30Z</time></trkpt><trkpt lat="59.0763187408" lon="30.0313425064"><time>2026-04-25T12:33:33Z</time></trkpt><trkpt lat="59.0763187408" lon="30.0313425064"><time>2026-04-25T12:33:35Z</time></trkpt><trkpt lat="59.0763187408" lon="30.0313425064"><time>2026-04-25T12:33:38Z</time></trkpt><trkpt lat="59.0763187408" lon="30.0313425064"><time>2026-04-25T12:33:40Z</time></trkpt><trkpt lat="59.0763187408" lon="30.0313425064"><time>2026-04-25T12:33:43Z</time></trkpt><trkpt lat="59.0763187408" lon="30.0313425064"><time>2026-04-25T12:33:45Z</time></trkpt><trkpt lat="59.0763187408" lon="30.0313425064"><time>2026-04-25T12:33:48Z</time></trkpt><trkpt lat="59.0763187408" lon="30.0313425064"><time>2026-04-25T12:33:50Z</time></trkpt><trkpt lat="59.0763187408" lon="30.0313210487"><time>2026-04-25T12:33:53Z</time></trkpt><trkpt lat="59.0763187408" lon="30.0313210487"><time>2026-04-25T12:33:55Z</time></trkpt><trkpt lat="59.0763187408" lon="30.0313210487"><time>2026-04-25T12:33:58Z</time></trkpt><trkpt lat="59.0763187408" lon="30.0313210487"><time>2026-04-25T12:34:00Z</time></trkpt><trkpt lat="59.0763187408" lon="30.0313210487"><time>2026-04-25T12:34:03Z</time></trkpt><trkpt lat="59.0763187408" lon="30.0313210487"><time>2026-04-25T12:34:05Z</time></trkpt><trkpt lat="59.0762972832" lon="30.0313210487"><time>2026-04-25T12:34:08Z</time></trkpt><trkpt lat="59.0762972832" lon="30.0313210487"><time>2026-04-25T12:34:10Z</time></trkpt><trkpt lat="59.0762972832" lon="30.0313210487"><time>2026-04-25T12:34:13Z</time></trkpt><trkpt lat="59.0762972832" lon="30.0313210487"><time>2026-04-25T12:34:15Z</time></trkpt><trkpt lat="59.0762972832" lon="30.0313210487"><time>2026-04-25T12:34:18Z</time></trkpt><trkpt lat="59.0762972832" lon="30.0312995911"><time>2026-04-25T12:34:20Z</time></trkpt><trkpt lat="59.0762972832" lon="30.0312995911"><time>2026-04-25T12:34:23Z</time></trkpt><trkpt lat="59.0762972832" lon="30.0312995911"><time>2026-04-25T12:34:25Z</time></trkpt><trkpt lat="59.0762972832" lon="30.0312995911"><time>2026-04-25T12:34:28Z</time></trkpt><trkpt lat="59.0762972832" lon="30.0312995911"><time>2026-04-25T12:34:30Z</time></trkpt><trkpt lat="59.0762972832" lon="30.0312995911"><time>2026-04-25T12:34:33Z</time></trkpt><trkpt lat="59.0762972832" lon="30.0312995911"><time>2026-04-25T12:34:35Z</time></trkpt><trkpt lat="59.0762972832" lon="30.0312995911"><time>2026-04-25T12:34:38Z</time></trkpt><trkpt lat="59.0762972832" lon="30.0312995911"><time>2026-04-25T12:34:40Z</time></trkpt><trkpt lat="59.0762972832" lon="30.0312995911"><time>2026-04-25T12:34:43Z</time></trkpt><trkpt lat="59.0762972832" lon="30.0312781334"><time>2026-04-25T12:34:45Z</time></trkpt><trkpt lat="59.0762972832" lon="30.0312781334"><time>2026-04-25T12:34:48Z</time></trkpt><trkpt lat="59.0762972832" lon="30.0312781334"><time>2026-04-25T12:34:50Z</time></trkpt><trkpt lat="59.0762972832" lon="30.0312781334"><time>2026-04-25T12:34:53Z</time></trkpt><trkpt lat="59.0762972832" lon="30.0312781334"><time>2026-04-25T12:34:55Z</time></trkpt><trkpt lat="59.0762972832" lon="30.0312781334"><time>2026-04-25T12:34:58Z</time></trkpt><trkpt lat="59.0762972832" lon="30.0312781334"><time>2026-04-25T12:35:00Z</time></trkpt><trkpt lat="59.0762972832" lon="30.0312781334"><time>2026-04-25T12:35:03Z</time></trkpt><trkpt lat="59.0762972832" lon="30.0312781334"><time>2026-04-25T12:35:05Z</time></trkpt><trkpt lat="59.0762972832" lon="30.0312566757"><time>2026-04-25T12:35:08Z</time></trkpt><trkpt lat="59.0762972832" lon="30.0312566757"><time>2026-04-25T12:35:10Z</time></trkpt><trkpt lat="59.0762758255" lon="30.0312566757"><time>2026-04-25T12:35:13Z</time></trkpt><trkpt lat="59.0761899948" lon="30.0309348106"><time>2026-04-25T12:35:15Z</time></trkpt><trkpt lat="59.0761256218" lon="30.0307202339"><time>2026-04-25T12:35:18Z</time></trkpt><trkpt lat="59.0760397911" lon="30.0304198265"><time>2026-04-25T12:35:20Z</time></trkpt><trkpt lat="59.0759754181" lon="30.0302052498"><time>2026-04-25T12:35:23Z</time></trkpt><trkpt lat="59.0759754181" lon="30.0301623344"><time>2026-04-25T12:35:25Z</time></trkpt><trkpt lat="59.0759968758" lon="30.0301408768"><time>2026-04-25T12:35:28Z</time></trkpt><trkpt lat="59.0759968758" lon="30.0301408768"><time>2026-04-25T12:35:30Z</time></trkpt><trkpt lat="59.0759968758" lon="30.0301408768"><time>2026-04-25T12:35:33Z</time></trkpt><trkpt lat="59.0759968758" lon="30.0301408768"><time>2026-04-25T12:35:35Z</time></trkpt><trkpt lat="59.0759968758" lon="30.0301408768"><time>2026-04-25T12:35:38Z</time></trkpt><trkpt lat="59.0759968758" lon="30.0301408768"><time>2026-04-25T12:35:40Z</time></trkpt><trkpt lat="59.0759968758" lon="30.0301408768"><time>2026-04-25T12:35:43Z</time></trkpt><trkpt lat="59.0759968758" lon="30.0301408768"><time>2026-04-25T12:35:45Z</time></trkpt><trkpt lat="59.0759968758" lon="30.0301408768"><time>2026-04-25T12:35:48Z</time></trkpt><trkpt lat="59.0759968758" lon="30.0301408768"><time>2026-04-25T12:35:50Z</time></trkpt><trkpt lat="59.0759968758" lon="30.0301408768"><time>2026-04-25T12:35:53Z</time></trkpt><trkpt lat="59.0759968758" lon="30.0301408768"><time>2026-04-25T12:35:55Z</time></trkpt><trkpt lat="59.0759968758" lon="30.0301408768"><time>2026-04-25T12:35:58Z</time></trkpt><trkpt lat="59.0759968758" lon="30.0301408768"><time>2026-04-25T12:36:00Z</time></trkpt><trkpt lat="59.0759968758" lon="30.0301408768"><time>2026-04-25T12:36:03Z</time></trkpt><trkpt lat="59.0759968758" lon="30.0301408768"><time>2026-04-25T12:36:05Z</time></trkpt><trkpt lat="59.0759968758" lon="30.0301408768"><time>2026-04-25T12:36:08Z</time></trkpt><trkpt lat="59.0759968758" lon="30.0301194191"><time>2026-04-25T12:36:10Z</time></trkpt><trkpt lat="59.0759968758" lon="30.0300979614"><time>2026-04-25T12:36:13Z</time></trkpt><trkpt lat="59.0759968758" lon="30.0300765038"><time>2026-04-25T12:36:15Z</time></trkpt><trkpt lat="59.0759968758" lon="30.0300765038"><time>2026-04-25T12:36:18Z</time></trkpt><trkpt lat="59.0759968758" lon="30.0300765038"><time>2026-04-25T12:36:20Z</time></trkpt><trkpt lat="59.0759968758" lon="30.0300765038"><time>2026-04-25T12:36:23Z</time></trkpt><trkpt lat="59.0759968758" lon="30.0300765038"><time>2026-04-25T12:36:25Z</time></trkpt><trkpt lat="59.0759968758" lon="30.0300765038"><time>2026-04-25T12:36:28Z</time></trkpt><trkpt lat="59.0759968758" lon="30.0300765038"><time>2026-04-25T12:36:30Z</time></trkpt><trkpt lat="59.0759968758" lon="30.0300765038"><time>2026-04-25T12:36:33Z</time></trkpt><trkpt lat="59.0759968758" lon="30.0300765038"><time>2026-04-25T12:36:35Z</time></trkpt><trkpt lat="59.0759968758" lon="30.0300765038"><time>2026-04-25T12:36:38Z</time></trkpt><trkpt lat="59.0759968758" lon="30.0300765038"><time>2026-04-25T12:36:40Z</time></trkpt><trkpt lat="59.0759968758" lon="30.0300765038"><time>2026-04-25T12:36:43Z</time></trkpt><trkpt lat="59.0759968758" lon="30.0300765038"><time>2026-04-25T12:36:45Z</time></trkpt><trkpt lat="59.0759968758" lon="30.0300765038"><time>2026-04-25T12:36:48Z</time></trkpt><trkpt lat="59.0759968758" lon="30.0300765038"><time>2026-04-25T12:36:50Z</time></trkpt><trkpt lat="59.0759968758" lon="30.0300765038"><time>2026-04-25T12:36:53Z</time></trkpt><trkpt lat="59.0759968758" lon="30.0300550461"><time>2026-04-25T12:36:55Z</time></trkpt><trkpt lat="59.0759968758" lon="30.0300550461"><time>2026-04-25T12:36:58Z</time></trkpt><trkpt lat="59.0759968758" lon="30.0300550461"><time>2026-04-25T12:37:00Z</time></trkpt><trkpt lat="59.0759968758" lon="30.0300550461"><time>2026-04-25T12:37:03Z</time></trkpt><trkpt lat="59.0759968758" lon="30.0300550461"><time>2026-04-25T12:37:05Z</time></trkpt><trkpt lat="59.0759968758" lon="30.0300550461"><time>2026-04-25T12:37:08Z</time></trkpt><trkpt lat="59.0759754181" lon="30.0300550461"><time>2026-04-25T12:37:10Z</time></trkpt><trkpt lat="59.0759754181" lon="30.0300550461"><time>2026-04-25T12:37:13Z</time></trkpt><trkpt lat="59.0759754181" lon="30.0300550461"><time>2026-04-25T12:37:15Z</time></trkpt><trkpt lat="59.0759754181" lon="30.0300550461"><time>2026-04-25T12:37:18Z</time></trkpt><trkpt lat="59.0759754181" lon="30.0300550461"><time>2026-04-25T12:37:20Z</time></trkpt><trkpt lat="59.0759754181" lon="30.0300550461"><time>2026-04-25T12:37:23Z</time></trkpt><trkpt lat="59.0759754181" lon="30.0300550461"><time>2026-04-25T12:37:25Z</time></trkpt><trkpt lat="59.0759754181" lon="30.0300550461"><time>2026-04-25T12:37:28Z</time></trkpt><trkpt lat="59.0759754181" lon="30.0300550461"><time>2026-04-25T12:37:30Z</time></trkpt><trkpt lat="59.0759754181" lon="30.0300550461"><time>2026-04-25T12:37:33Z</time></trkpt><trkpt lat="59.0759754181" lon="30.0300550461"><time>2026-04-25T12:37:35Z</time></trkpt><trkpt lat="59.0759754181" lon="30.0300765038"><time>2026-04-25T12:37:38Z</time></trkpt><trkpt lat="59.0759754181" lon="30.0300765038"><time>2026-04-25T12:37:40Z</time></trkpt><trkpt lat="59.0759754181" lon="30.0300765038"><time>2026-04-25T12:37:43Z</time></trkpt><trkpt lat="59.0759754181" lon="30.0300765038"><time>2026-04-25T12:37:45Z</time></trkpt><trkpt lat="59.0759754181" lon="30.0300765038"><time>2026-04-25T12:37:48Z</time></trkpt><trkpt lat="59.0759754181" lon="30.0300765038"><time>2026-04-25T12:37:50Z</time></trkpt><trkpt lat="59.0759754181" lon="30.0300765038"><time>2026-04-25T12:37:53Z</time></trkpt><trkpt lat="59.0759754181" lon="30.0300765038"><time>2026-04-25T12:37:55Z</time></trkpt><trkpt lat="59.0759754181" lon="30.0300765038"><time>2026-04-25T12:37:58Z</time></trkpt><trkpt lat="59.0759754181" lon="30.0300765038"><time>2026-04-25T12:38:00Z</time></trkpt><trkpt lat="59.0759754181" lon="30.0300765038"><time>2026-04-25T12:38:03Z</time></trkpt><trkpt lat="59.0759754181" lon="30.0300765038"><time>2026-04-25T12:38:05Z</time></trkpt><trkpt lat="59.0759754181" lon="30.0300765038"><time>2026-04-25T12:38:08Z</time></trkpt><trkpt lat="59.0759754181" lon="30.0300765038"><time>2026-04-25T12:38:10Z</time></trkpt><trkpt lat="59.0759968758" lon="30.0300765038"><time>2026-04-25T12:38:13Z</time></trkpt><trkpt lat="59.0759968758" lon="30.0300765038"><time>2026-04-25T12:38:15Z</time></trkpt><trkpt lat="59.0759968758" lon="30.0300765038"><time>2026-04-25T12:38:18Z</time></trkpt><trkpt lat="59.0759968758" lon="30.0300765038"><time>2026-04-25T12:38:20Z</time></trkpt><trkpt lat="59.0759968758" lon="30.0300765038"><time>2026-04-25T12:38:23Z</time></trkpt><trkpt lat="59.0759968758" lon="30.0300550461"><time>2026-04-25T12:38:25Z</time></trkpt><trkpt lat="59.0759968758" lon="30.0300550461"><time>2026-04-25T12:38:28Z</time></trkpt><trkpt lat="59.0759968758" lon="30.0300550461"><time>2026-04-25T12:38:30Z</time></trkpt><trkpt lat="59.0759968758" lon="30.0300550461"><time>2026-04-25T12:38:33Z</time></trkpt><trkpt lat="59.0759968758" lon="30.0300550461"><time>2026-04-25T12:38:35Z</time></trkpt><trkpt lat="59.0759968758" lon="30.0300550461"><time>2026-04-25T12:38:38Z</time></trkpt><trkpt lat="59.0759754181" lon="30.0300550461"><time>2026-04-25T12:38:40Z</time></trkpt><trkpt lat="59.0759754181" lon="30.0300550461"><time>2026-04-25T12:38:43Z</time></trkpt><trkpt lat="59.0759754181" lon="30.0300335884"><time>2026-04-25T12:38:45Z</time></trkpt><trkpt lat="59.0759754181" lon="30.0300335884"><time>2026-04-25T12:38:48Z</time></trkpt><trkpt lat="59.0759754181" lon="30.0300335884"><time>2026-04-25T12:38:50Z</time></trkpt><trkpt lat="59.0759754181" lon="30.0300335884"><time>2026-04-25T12:38:53Z</time></trkpt><trkpt lat="59.0759754181" lon="30.0300335884"><time>2026-04-25T12:38:55Z</time></trkpt><trkpt lat="59.0759754181" lon="30.0300335884"><time>2026-04-25T12:38:58Z</time></trkpt><trkpt lat="59.0759754181" lon="30.0300335884"><time>2026-04-25T12:39:00Z</time></trkpt><trkpt lat="59.0759539604" lon="30.0300121307"><time>2026-04-25T12:39:03Z</time></trkpt><trkpt lat="59.0759110451" lon="30.0299692154"><time>2026-04-25T12:39:05Z</time></trkpt><trkpt lat="59.0758895874" lon="30.0299692154"><time>2026-04-25T12:39:08Z</time></trkpt><trkpt lat="59.0758681297" lon="30.0299263000"><time>2026-04-25T12:39:10Z</time></trkpt><trkpt lat="59.0758466721" lon="30.0298833847"><time>2026-04-25T12:39:13Z</time></trkpt><trkpt lat="59.0758252144" lon="30.0298404694"><time>2026-04-25T12:39:15Z</time></trkpt><trkpt lat="59.0758252144" lon="30.0298190117"><time>2026-04-25T12:39:18Z</time></trkpt><trkpt lat="59.0758037567" lon="30.0298190117"><time>2026-04-25T12:39:20Z</time></trkpt><trkpt lat="59.0758252144" lon="30.0298190117"><time>2026-04-25T12:39:23Z</time></trkpt><trkpt lat="59.0758252144" lon="30.0297975540"><time>2026-04-25T12:39:25Z</time></trkpt><trkpt lat="59.0758252144" lon="30.0297975540"><time>2026-04-25T12:39:28Z</time></trkpt><trkpt lat="59.0758252144" lon="30.0298190117"><time>2026-04-25T12:39:30Z</time></trkpt><trkpt lat="59.0758252144" lon="30.0298190117"><time>2026-04-25T12:39:33Z</time></trkpt><trkpt lat="59.0758252144" lon="30.0298190117"><time>2026-04-25T12:39:35Z</time></trkpt><trkpt lat="59.0758252144" lon="30.0298190117"><time>2026-04-25T12:39:38Z</time></trkpt><trkpt lat="59.0758252144" lon="30.0298404694"><time>2026-04-25T12:39:40Z</time></trkpt><trkpt lat="59.0758252144" lon="30.0298190117"><time>2026-04-25T12:39:43Z</time></trkpt><trkpt lat="59.0758252144" lon="30.0298404694"><time>2026-04-25T12:39:45Z</time></trkpt><trkpt lat="59.0758252144" lon="30.0298619270"><time>2026-04-25T12:39:48Z</time></trkpt><trkpt lat="59.0758252144" lon="30.0298619270"><time>2026-04-25T12:39:50Z</time></trkpt><trkpt lat="59.0758252144" lon="30.0298619270"><time>2026-04-25T12:39:53Z</time></trkpt><trkpt lat="59.0758252144" lon="30.0298619270"><time>2026-04-25T12:39:55Z</time></trkpt><trkpt lat="59.0758252144" lon="30.0298619270"><time>2026-04-25T12:39:58Z</time></trkpt><trkpt lat="59.0758252144" lon="30.0298619270"><time>2026-04-25T12:40:00Z</time></trkpt><trkpt lat="59.0758252144" lon="30.0298619270"><time>2026-04-25T12:40:03Z</time></trkpt><trkpt lat="59.0758252144" lon="30.0298619270"><time>2026-04-25T12:40:05Z</time></trkpt><trkpt lat="59.0758252144" lon="30.0298404694"><time>2026-04-25T12:40:08Z</time></trkpt><trkpt lat="59.0758252144" lon="30.0298404694"><time>2026-04-25T12:40:10Z</time></trkpt><trkpt lat="59.0758252144" lon="30.0298404694"><time>2026-04-25T12:40:13Z</time></trkpt><trkpt lat="59.0758252144" lon="30.0298404694"><time>2026-04-25T12:40:15Z</time></trkpt><trkpt lat="59.0758252144" lon="30.0298404694"><time>2026-04-25T12:40:18Z</time></trkpt><trkpt lat="59.0758252144" lon="30.0298404694"><time>2026-04-25T12:40:20Z</time></trkpt><trkpt lat="59.0758252144" lon="30.0298190117"><time>2026-04-25T12:40:23Z</time></trkpt><trkpt lat="59.0758252144" lon="30.0298190117"><time>2026-04-25T12:40:25Z</time></trkpt><trkpt lat="59.0758252144" lon="30.0298190117"><time>2026-04-25T12:40:28Z</time></trkpt><trkpt lat="59.0758252144" lon="30.0298190117"><time>2026-04-25T12:40:30Z</time></trkpt><trkpt lat="59.0758252144" lon="30.0297760963"><time>2026-04-25T12:40:33Z</time></trkpt><trkpt lat="59.0758252144" lon="30.0297760963"><time>2026-04-25T12:40:35Z</time></trkpt><trkpt lat="59.0758252144" lon="30.0297546387"><time>2026-04-25T12:40:38Z</time></trkpt><trkpt lat="59.0758252144" lon="30.0297117233"><time>2026-04-25T12:40:40Z</time></trkpt><trkpt lat="59.0758466721" lon="30.0296902657"><time>2026-04-25T12:40:43Z</time></trkpt><trkpt lat="59.0758466721" lon="30.0296688080"><time>2026-04-25T12:40:45Z</time></trkpt><trkpt lat="59.0758466721" lon="30.0296902657"><time>2026-04-25T12:40:48Z</time></trkpt><trkpt lat="59.0758466721" lon="30.0296688080"><time>2026-04-25T12:40:50Z</time></trkpt><trkpt lat="59.0758466721" lon="30.0296473503"><time>2026-04-25T12:40:53Z</time></trkpt><trkpt lat="59.0758681297" lon="30.0296473503"><time>2026-04-25T12:40:55Z</time></trkpt><trkpt lat="59.0758681297" lon="30.0296473503"><time>2026-04-25T12:40:58Z</time></trkpt><trkpt lat="59.0758895874" lon="30.0296258926"><time>2026-04-25T12:41:00Z</time></trkpt><trkpt lat="59.0758895874" lon="30.0296258926"><time>2026-04-25T12:41:03Z</time></trkpt><trkpt lat="59.0758895874" lon="30.0296044350"><time>2026-04-25T12:41:05Z</time></trkpt><trkpt lat="59.0758895874" lon="30.0295829773"><time>2026-04-25T12:41:08Z</time></trkpt><trkpt lat="59.0758895874" lon="30.0295400620"><time>2026-04-25T12:41:10Z</time></trkpt><trkpt lat="59.0759110451" lon="30.0295615196"><time>2026-04-25T12:41:13Z</time></trkpt><trkpt lat="59.0759110451" lon="30.0295615196"><time>2026-04-25T12:41:15Z</time></trkpt><trkpt lat="59.0759110451" lon="30.0295400620"><time>2026-04-25T12:41:18Z</time></trkpt><trkpt lat="59.0759110451" lon="30.0295400620"><time>2026-04-25T12:41:20Z</time></trkpt><trkpt lat="59.0759110451" lon="30.0295400620"><time>2026-04-25T12:41:23Z</time></trkpt><trkpt lat="59.0759110451" lon="30.0295186043"><time>2026-04-25T12:41:25Z</time></trkpt><trkpt lat="59.0758895874" lon="30.0294971466"><time>2026-04-25T12:41:28Z</time></trkpt><trkpt lat="59.0758895874" lon="30.0294756889"><time>2026-04-25T12:41:30Z</time></trkpt><trkpt lat="59.0758895874" lon="30.0294756889"><time>2026-04-25T12:41:33Z</time></trkpt><trkpt lat="59.0758895874" lon="30.0294756889"><time>2026-04-25T12:41:35Z</time></trkpt><trkpt lat="59.0758895874" lon="30.0294756889"><time>2026-04-25T12:41:38Z</time></trkpt><trkpt lat="59.0758895874" lon="30.0294542313"><time>2026-04-25T12:41:40Z</time></trkpt><trkpt lat="59.0758895874" lon="30.0294327736"><time>2026-04-25T12:41:43Z</time></trkpt><trkpt lat="59.0758895874" lon="30.0294327736"><time>2026-04-25T12:41:45Z</time></trkpt><trkpt lat="59.0759110451" lon="30.0294327736"><time>2026-04-25T12:41:48Z</time></trkpt><trkpt lat="59.0759110451" lon="30.0294113159"><time>2026-04-25T12:41:50Z</time></trkpt><trkpt lat="59.0759110451" lon="30.0293898582"><time>2026-04-25T12:41:53Z</time></trkpt><trkpt lat="59.0759110451" lon="30.0293898582"><time>2026-04-25T12:41:55Z</time></trkpt><trkpt lat="59.0759110451" lon="30.0293684006"><time>2026-04-25T12:41:58Z</time></trkpt><trkpt lat="59.0759325027" lon="30.0293469429"><time>2026-04-25T12:42:00Z</time></trkpt><trkpt lat="59.0759325027" lon="30.0293469429"><time>2026-04-25T12:42:03Z</time></trkpt><trkpt lat="59.0759325027" lon="30.0293254852"><time>2026-04-25T12:42:05Z</time></trkpt><trkpt lat="59.0759325027" lon="30.0293254852"><time>2026-04-25T12:42:08Z</time></trkpt><trkpt lat="59.0759539604" lon="30.0293254852"><time>2026-04-25T12:42:10Z</time></trkpt><trkpt lat="59.0759539604" lon="30.0293254852"><time>2026-04-25T12:42:13Z</time></trkpt><trkpt lat="59.0759539604" lon="30.0293254852"><time>2026-04-25T12:42:15Z</time></trkpt><trkpt lat="59.0759539604" lon="30.0293254852"><time>2026-04-25T12:42:18Z</time></trkpt><trkpt lat="59.0759539604" lon="30.0293254852"><time>2026-04-25T12:42:20Z</time></trkpt><trkpt lat="59.0759539604" lon="30.0293254852"><time>2026-04-25T12:42:23Z</time></trkpt><trkpt lat="59.0759754181" lon="30.0293254852"><time>2026-04-25T12:42:25Z</time></trkpt><trkpt lat="59.0759968758" lon="30.0293254852"><time>2026-04-25T12:42:28Z</time></trkpt><trkpt lat="59.0759968758" lon="30.0293254852"><time>2026-04-25T12:42:30Z</time></trkpt><trkpt lat="59.0759968758" lon="30.0293254852"><time>2026-04-25T12:42:35Z</time></trkpt><trkpt lat="59.0759968758" lon="30.0293254852"><time>2026-04-25T12:42:38Z</time></trkpt><trkpt lat="59.0759968758" lon="30.0293254852"><time>2026-04-25T12:42:40Z</time></trkpt><trkpt lat="59.0759968758" lon="30.0293254852"><time>2026-04-25T12:42:43Z</time></trkpt><trkpt lat="59.0759968758" lon="30.0293254852"><time>2026-04-25T12:42:45Z</time></trkpt><trkpt lat="59.0759968758" lon="30.0293254852"><time>2026-04-25T12:42:48Z</time></trkpt><trkpt lat="59.0759968758" lon="30.0293254852"><time>2026-04-25T12:42:50Z</time></trkpt><trkpt lat="59.0759968758" lon="30.0293254852"><time>2026-04-25T12:42:53Z</time></trkpt><trkpt lat="59.0760183334" lon="30.0293040276"><time>2026-04-25T12:42:55Z</time></trkpt><trkpt lat="59.0760183334" lon="30.0293040276"><time>2026-04-25T12:42:58Z</time></trkpt><trkpt lat="59.0760397911" lon="30.0292611122"><time>2026-04-25T12:43:00Z</time></trkpt><trkpt lat="59.0760397911" lon="30.0292611122"><time>2026-04-25T12:43:03Z</time></trkpt><trkpt lat="59.0760612488" lon="30.0292396545"><time>2026-04-25T12:43:05Z</time></trkpt><trkpt lat="59.0760612488" lon="30.0292396545"><time>2026-04-25T12:43:08Z</time></trkpt><trkpt lat="59.0760827065" lon="30.0292396545"><time>2026-04-25T12:43:10Z</time></trkpt><trkpt lat="59.0760827065" lon="30.0292181969"><time>2026-04-25T12:43:13Z</time></trkpt><trkpt lat="59.0760827065" lon="30.0291967392"><time>2026-04-25T12:43:15Z</time></trkpt><trkpt lat="59.0760827065" lon="30.0291967392"><time>2026-04-25T12:43:18Z</time></trkpt><trkpt lat="59.0761041641" lon="30.0291967392"><time>2026-04-25T12:43:20Z</time></trkpt><trkpt lat="59.0761041641" lon="30.0291967392"><time>2026-04-25T12:43:23Z</time></trkpt><trkpt lat="59.0761041641" lon="30.0291752815"><time>2026-04-25T12:43:25Z</time></trkpt><trkpt lat="59.0761041641" lon="30.0291752815"><time>2026-04-25T12:43:28Z</time></trkpt><trkpt lat="59.0761256218" lon="30.0291752815"><time>2026-04-25T12:43:30Z</time></trkpt><trkpt lat="59.0761256218" lon="30.0291752815"><time>2026-04-25T12:43:33Z</time></trkpt><trkpt lat="59.0761256218" lon="30.0291538239"><time>2026-04-25T12:43:35Z</time></trkpt><trkpt lat="59.0761256218" lon="30.0291538239"><time>2026-04-25T12:43:38Z</time></trkpt><trkpt lat="59.0761256218" lon="30.0291538239"><time>2026-04-25T12:43:40Z</time></trkpt><trkpt lat="59.0761256218" lon="30.0291538239"><time>2026-04-25T12:43:43Z</time></trkpt><trkpt lat="59.0761256218" lon="30.0291323662"><time>2026-04-25T12:43:45Z</time></trkpt><trkpt lat="59.0761256218" lon="30.0291323662"><time>2026-04-25T12:43:48Z</time></trkpt><trkpt lat="59.0761256218" lon="30.0291323662"><time>2026-04-25T12:43:50Z</time></trkpt><trkpt lat="59.0761470795" lon="30.0291323662"><time>2026-04-25T12:43:53Z</time></trkpt><trkpt lat="59.0761470795" lon="30.0291109085"><time>2026-04-25T12:43:55Z</time></trkpt><trkpt lat="59.0761470795" lon="30.0291109085"><time>2026-04-25T12:43:58Z</time></trkpt><trkpt lat="59.0761470795" lon="30.0291109085"><time>2026-04-25T12:44:00Z</time></trkpt><trkpt lat="59.0761470795" lon="30.0291109085"><time>2026-04-25T12:44:03Z</time></trkpt><trkpt lat="59.0761685371" lon="30.0291109085"><time>2026-04-25T12:44:05Z</time></trkpt><trkpt lat="59.0761685371" lon="30.0290894508"><time>2026-04-25T12:44:08Z</time></trkpt><trkpt lat="59.0761899948" lon="30.0290894508"><time>2026-04-25T12:44:10Z</time></trkpt><trkpt lat="59.0761899948" lon="30.0290679932"><time>2026-04-25T12:44:13Z</time></trkpt><trkpt lat="59.0762114525" lon="30.0290465355"><time>2026-04-25T12:44:15Z</time></trkpt><trkpt lat="59.0762114525" lon="30.0290465355"><time>2026-04-25T12:44:18Z</time></trkpt><trkpt lat="59.0762114525" lon="30.0290250778"><time>2026-04-25T12:44:20Z</time></trkpt><trkpt lat="59.0762114525" lon="30.0290250778"><time>2026-04-25T12:44:23Z</time></trkpt><trkpt lat="59.0762114525" lon="30.0290036201"><time>2026-04-25T12:44:25Z</time></trkpt><trkpt lat="59.0762114525" lon="30.0289821625"><time>2026-04-25T12:44:28Z</time></trkpt><trkpt lat="59.0762114525" lon="30.0289607048"><time>2026-04-25T12:44:30Z</time></trkpt><trkpt lat="59.0762329102" lon="30.0289392471"><time>2026-04-25T12:44:33Z</time></trkpt><trkpt lat="59.0762329102" lon="30.0289177895"><time>2026-04-25T12:44:35Z</time></trkpt><trkpt lat="59.0762543678" lon="30.0289177895"><time>2026-04-25T12:44:38Z</time></trkpt><trkpt lat="59.0762543678" lon="30.0288963318"><time>2026-04-25T12:44:40Z</time></trkpt><trkpt lat="59.0762543678" lon="30.0288748741"><time>2026-04-25T12:44:43Z</time></trkpt><trkpt lat="59.0762758255" lon="30.0288534164"><time>2026-04-25T12:44:45Z</time></trkpt><trkpt lat="59.0762972832" lon="30.0288534164"><time>2026-04-25T12:44:48Z</time></trkpt><trkpt lat="59.0763187408" lon="30.0287461281"><time>2026-04-25T12:44:50Z</time></trkpt><trkpt lat="59.0763616562" lon="30.0286817551"><time>2026-04-25T12:44:53Z</time></trkpt><trkpt lat="59.0763831139" lon="30.0286173820"><time>2026-04-25T12:44:55Z</time></trkpt><trkpt lat="59.0764045715" lon="30.0285744667"><time>2026-04-25T12:44:58Z</time></trkpt><trkpt lat="59.0764045715" lon="30.0285744667"><time>2026-04-25T12:45:00Z</time></trkpt><trkpt lat="59.0764045715" lon="30.0285315514"><time>2026-04-25T12:45:03Z</time></trkpt><trkpt lat="59.0764474869" lon="30.0285100937"><time>2026-04-25T12:45:05Z</time></trkpt><trkpt lat="59.0764689445" lon="30.0284671783"><time>2026-04-25T12:45:08Z</time></trkpt><trkpt lat="59.0764474869" lon="30.0284886360"><time>2026-04-25T12:45:10Z</time></trkpt><trkpt lat="59.0764474869" lon="30.0284671783"><time>2026-04-25T12:45:13Z</time></trkpt><trkpt lat="59.0764474869" lon="30.0284671783"><time>2026-04-25T12:45:15Z</time></trkpt><trkpt lat="59.0764474869" lon="30.0284671783"><time>2026-04-25T12:45:18Z</time></trkpt><trkpt lat="59.0764474869" lon="30.0284886360"><time>2026-04-25T12:45:20Z</time></trkpt><trkpt lat="59.0764689445" lon="30.0284886360"><time>2026-04-25T12:45:23Z</time></trkpt><trkpt lat="59.0764689445" lon="30.0284671783"><time>2026-04-25T12:45:25Z</time></trkpt><trkpt lat="59.0764689445" lon="30.0284671783"><time>2026-04-25T12:45:28Z</time></trkpt><trkpt lat="59.0764689445" lon="30.0284671783"><time>2026-04-25T12:45:30Z</time></trkpt><trkpt lat="59.0764904022" lon="30.0284242630"><time>2026-04-25T12:45:33Z</time></trkpt><trkpt lat="59.0764904022" lon="30.0284242630"><time>2026-04-25T12:45:35Z</time></trkpt><trkpt lat="59.0764904022" lon="30.0284242630"><time>2026-04-25T12:45:38Z</time></trkpt><trkpt lat="59.0764904022" lon="30.0284242630"><time>2026-04-25T12:45:40Z</time></trkpt><trkpt lat="59.0764904022" lon="30.0284242630"><time>2026-04-25T12:45:43Z</time></trkpt><trkpt lat="59.0764904022" lon="30.0284242630"><time>2026-04-25T12:45:45Z</time></trkpt><trkpt lat="59.0764904022" lon="30.0284242630"><time>2026-04-25T12:45:48Z</time></trkpt><trkpt lat="59.0764904022" lon="30.0284242630"><time>2026-04-25T12:45:50Z</time></trkpt><trkpt lat="59.0764904022" lon="30.0284028053"><time>2026-04-25T12:45:53Z</time></trkpt><trkpt lat="59.0765118599" lon="30.0283813477"><time>2026-04-25T12:45:55Z</time></trkpt><trkpt lat="59.0765118599" lon="30.0283598900"><time>2026-04-25T12:45:58Z</time></trkpt><trkpt lat="59.0765547752" lon="30.0283169746"><time>2026-04-25T12:46:00Z</time></trkpt><trkpt lat="59.0765547752" lon="30.0282955170"><time>2026-04-25T12:46:03Z</time></trkpt><trkpt lat="59.0765547752" lon="30.0282740593"><time>2026-04-25T12:46:05Z</time></trkpt><trkpt lat="59.0765547752" lon="30.0282740593"><time>2026-04-25T12:46:08Z</time></trkpt><trkpt lat="59.0765762329" lon="30.0282740593"><time>2026-04-25T12:46:10Z</time></trkpt><trkpt lat="59.0765762329" lon="30.0282526016"><time>2026-04-25T12:46:13Z</time></trkpt><trkpt lat="59.0765762329" lon="30.0282311440"><time>2026-04-25T12:46:15Z</time></trkpt><trkpt lat="59.0765762329" lon="30.0282096863"><time>2026-04-25T12:46:18Z</time></trkpt><trkpt lat="59.0765762329" lon="30.0282096863"><time>2026-04-25T12:46:20Z</time></trkpt><trkpt lat="59.0765762329" lon="30.0281882286"><time>2026-04-25T12:46:23Z</time></trkpt><trkpt lat="59.0765762329" lon="30.0281667709"><time>2026-04-25T12:46:25Z</time></trkpt><trkpt lat="59.0765547752" lon="30.0281667709"><time>2026-04-25T12:46:28Z</time></trkpt><trkpt lat="59.0765547752" lon="30.0281453133"><time>2026-04-25T12:46:30Z</time></trkpt><trkpt lat="59.0765547752" lon="30.0281238556"><time>2026-04-25T12:46:33Z</time></trkpt><trkpt lat="59.0765547752" lon="30.0281023979"><time>2026-04-25T12:46:35Z</time></trkpt><trkpt lat="59.0765547752" lon="30.0280809402"><time>2026-04-25T12:46:38Z</time></trkpt><trkpt lat="59.0765547752" lon="30.0280809402"><time>2026-04-25T12:46:40Z</time></trkpt><trkpt lat="59.0765762329" lon="30.0280594826"><time>2026-04-25T12:46:43Z</time></trkpt><trkpt lat="59.0765762329" lon="30.0280165672"><time>2026-04-25T12:46:45Z</time></trkpt><trkpt lat="59.0765976906" lon="30.0280165672"><time>2026-04-25T12:46:48Z</time></trkpt><trkpt lat="59.0766191483" lon="30.0280165672"><time>2026-04-25T12:46:50Z</time></trkpt><trkpt lat="59.0766191483" lon="30.0280165672"><time>2026-04-25T12:46:53Z</time></trkpt><trkpt lat="59.0766191483" lon="30.0280165672"><time>2026-04-25T12:46:55Z</time></trkpt><trkpt lat="59.0766191483" lon="30.0280165672"><time>2026-04-25T12:46:58Z</time></trkpt><trkpt lat="59.0766191483" lon="30.0279951096"><time>2026-04-25T12:47:00Z</time></trkpt><trkpt lat="59.0766191483" lon="30.0279951096"><time>2026-04-25T12:47:03Z</time></trkpt><trkpt lat="59.0766191483" lon="30.0279951096"><time>2026-04-25T12:47:05Z</time></trkpt><trkpt lat="59.0766191483" lon="30.0279951096"><time>2026-04-25T12:47:08Z</time></trkpt><trkpt lat="59.0766191483" lon="30.0279951096"><time>2026-04-25T12:47:10Z</time></trkpt><trkpt lat="59.0766191483" lon="30.0279951096"><time>2026-04-25T12:47:13Z</time></trkpt><trkpt lat="59.0766191483" lon="30.0279951096"><time>2026-04-25T12:47:15Z</time></trkpt><trkpt lat="59.0766191483" lon="30.0279951096"><time>2026-04-25T12:47:18Z</time></trkpt><trkpt lat="59.0766191483" lon="30.0279951096"><time>2026-04-25T12:47:20Z</time></trkpt><trkpt lat="59.0766191483" lon="30.0279951096"><time>2026-04-25T12:47:23Z</time></trkpt><trkpt lat="59.0766191483" lon="30.0279951096"><time>2026-04-25T12:47:25Z</time></trkpt><trkpt lat="59.0766191483" lon="30.0279951096"><time>2026-04-25T12:47:28Z</time></trkpt><trkpt lat="59.0766191483" lon="30.0279951096"><time>2026-04-25T12:47:30Z</time></trkpt><trkpt lat="59.0766406059" lon="30.0279951096"><time>2026-04-25T12:47:33Z</time></trkpt><trkpt lat="59.0766406059" lon="30.0279951096"><time>2026-04-25T12:47:35Z</time></trkpt><trkpt lat="59.0766406059" lon="30.0279736519"><time>2026-04-25T12:47:38Z</time></trkpt><trkpt lat="59.0766406059" lon="30.0279736519"><time>2026-04-25T12:47:40Z</time></trkpt><trkpt lat="59.0766406059" lon="30.0279736519"><time>2026-04-25T12:47:43Z</time></trkpt><trkpt lat="59.0766406059" lon="30.0279736519"><time>2026-04-25T12:47:45Z</time></trkpt><trkpt lat="59.0766406059" lon="30.0279736519"><time>2026-04-25T12:47:48Z</time></trkpt><trkpt lat="59.0766406059" lon="30.0279736519"><time>2026-04-25T12:47:50Z</time></trkpt><trkpt lat="59.0766406059" lon="30.0279736519"><time>2026-04-25T12:47:53Z</time></trkpt><trkpt lat="59.0766406059" lon="30.0279736519"><time>2026-04-25T12:47:55Z</time></trkpt><trkpt lat="59.0766406059" lon="30.0279736519"><time>2026-04-25T12:47:58Z</time></trkpt><trkpt lat="59.0766406059" lon="30.0279736519"><time>2026-04-25T12:48:00Z</time></trkpt><trkpt lat="59.0766406059" lon="30.0279736519"><time>2026-04-25T12:48:03Z</time></trkpt><trkpt lat="59.0766406059" lon="30.0279736519"><time>2026-04-25T12:48:05Z</time></trkpt><trkpt lat="59.0766406059" lon="30.0279736519"><time>2026-04-25T12:48:08Z</time></trkpt><trkpt lat="59.0766406059" lon="30.0279736519"><time>2026-04-25T12:48:10Z</time></trkpt><trkpt lat="59.0766620636" lon="30.0279736519"><time>2026-04-25T12:48:13Z</time></trkpt><trkpt lat="59.0766620636" lon="30.0279521942"><time>2026-04-25T12:48:15Z</time></trkpt><trkpt lat="59.0766620636" lon="30.0279521942"><time>2026-04-25T12:48:18Z</time></trkpt><trkpt lat="59.0766620636" lon="30.0279521942"><time>2026-04-25T12:48:20Z</time></trkpt><trkpt lat="59.0766620636" lon="30.0279521942"><time>2026-04-25T12:48:23Z</time></trkpt><trkpt lat="59.0766620636" lon="30.0279092789"><time>2026-04-25T12:48:25Z</time></trkpt><trkpt lat="59.0766620636" lon="30.0278878212"><time>2026-04-25T12:48:28Z</time></trkpt><trkpt lat="59.0766835213" lon="30.0278663635"><time>2026-04-25T12:48:30Z</time></trkpt><trkpt lat="59.0767049789" lon="30.0278234482"><time>2026-04-25T12:48:33Z</time></trkpt><trkpt lat="59.0767264366" lon="30.0277590752"><time>2026-04-25T12:48:35Z</time></trkpt><trkpt lat="59.0767478943" lon="30.0277161598"><time>2026-04-25T12:48:38Z</time></trkpt><trkpt lat="59.0767908096" lon="30.0276732445"><time>2026-04-25T12:48:40Z</time></trkpt><trkpt lat="59.0767908096" lon="30.0276732445"><time>2026-04-25T12:48:43Z</time></trkpt><trkpt lat="59.0767908096" lon="30.0276732445"><time>2026-04-25T12:48:45Z</time></trkpt><trkpt lat="59.0767908096" lon="30.0276732445"><time>2026-04-25T12:48:48Z</time></trkpt><trkpt lat="59.0767908096" lon="30.0276732445"><time>2026-04-25T12:48:50Z</time></trkpt><trkpt lat="59.0767908096" lon="30.0276732445"><time>2026-04-25T12:48:53Z</time></trkpt><trkpt lat="59.0767908096" lon="30.0276732445"><time>2026-04-25T12:48:55Z</time></trkpt><trkpt lat="59.0767908096" lon="30.0276732445"><time>2026-04-25T12:48:58Z</time></trkpt><trkpt lat="59.0767908096" lon="30.0276732445"><time>2026-04-25T12:49:00Z</time></trkpt><trkpt lat="59.0767908096" lon="30.0276732445"><time>2026-04-25T12:49:03Z</time></trkpt><trkpt lat="59.0767908096" lon="30.0276732445"><time>2026-04-25T12:49:05Z</time></trkpt><trkpt lat="59.0767908096" lon="30.0276732445"><time>2026-04-25T12:49:08Z</time></trkpt><trkpt lat="59.0767908096" lon="30.0276732445"><time>2026-04-25T12:49:10Z</time></trkpt><trkpt lat="59.0767908096" lon="30.0276732445"><time>2026-04-25T12:49:13Z</time></trkpt><trkpt lat="59.0767908096" lon="30.0276732445"><time>2026-04-25T12:49:15Z</time></trkpt><trkpt lat="59.0767908096" lon="30.0276732445"><time>2026-04-25T12:49:18Z</time></trkpt><trkpt lat="59.0767908096" lon="30.0276732445"><time>2026-04-25T12:49:20Z</time></trkpt><trkpt lat="59.0768122673" lon="30.0276732445"><time>2026-04-25T12:49:23Z</time></trkpt><trkpt lat="59.0768122673" lon="30.0276732445"><time>2026-04-25T12:49:25Z</time></trkpt><trkpt lat="59.0768122673" lon="30.0276732445"><time>2026-04-25T12:49:28Z</time></trkpt><trkpt lat="59.0768551826" lon="30.0276732445"><time>2026-04-25T12:49:30Z</time></trkpt><trkpt lat="59.0768766403" lon="30.0276517868"><time>2026-04-25T12:49:33Z</time></trkpt><trkpt lat="59.0769195557" lon="30.0276088715"><time>2026-04-25T12:49:35Z</time></trkpt><trkpt lat="59.0769410133" lon="30.0275659561"><time>2026-04-25T12:49:38Z</time></trkpt><trkpt lat="59.0769624710" lon="30.0275230408"><time>2026-04-25T12:49:40Z</time></trkpt><trkpt lat="59.0769624710" lon="30.0275015831"><time>2026-04-25T12:49:43Z</time></trkpt><trkpt lat="59.0769839287" lon="30.0274801254"><time>2026-04-25T12:49:45Z</time></trkpt><trkpt lat="59.0770053864" lon="30.0274586678"><time>2026-04-25T12:49:48Z</time></trkpt><trkpt lat="59.0770053864" lon="30.0274157524"><time>2026-04-25T12:49:50Z</time></trkpt><trkpt lat="59.0770053864" lon="30.0273513794"><time>2026-04-25T12:49:53Z</time></trkpt><trkpt lat="59.0770268440" lon="30.0273084641"><time>2026-04-25T12:49:55Z</time></trkpt><trkpt lat="59.0770268440" lon="30.0272655487"><time>2026-04-25T12:49:58Z</time></trkpt><trkpt lat="59.0770268440" lon="30.0272226334"><time>2026-04-25T12:50:00Z</time></trkpt><trkpt lat="59.0770483017" lon="30.0272011757"><time>2026-04-25T12:50:03Z</time></trkpt><trkpt lat="59.0770483017" lon="30.0271582603"><time>2026-04-25T12:50:05Z</time></trkpt><trkpt lat="59.0770697594" lon="30.0271368027"><time>2026-04-25T12:50:08Z</time></trkpt><trkpt lat="59.0770697594" lon="30.0270938873"><time>2026-04-25T12:50:10Z</time></trkpt><trkpt lat="59.0770697594" lon="30.0270724297"><time>2026-04-25T12:50:13Z</time></trkpt><trkpt lat="59.0770697594" lon="30.0270509720"><time>2026-04-25T12:50:15Z</time></trkpt><trkpt lat="59.0770697594" lon="30.0270509720"><time>2026-04-25T12:50:18Z</time></trkpt><trkpt lat="59.0770483017" lon="30.0270509720"><time>2026-04-25T12:50:20Z</time></trkpt><trkpt lat="59.0770483017" lon="30.0270509720"><time>2026-04-25T12:50:23Z</time></trkpt><trkpt lat="59.0770483017" lon="30.0270509720"><time>2026-04-25T12:50:25Z</time></trkpt><trkpt lat="59.0770483017" lon="30.0270509720"><time>2026-04-25T12:50:28Z</time></trkpt><trkpt lat="59.0770483017" lon="30.0270509720"><time>2026-04-25T12:50:30Z</time></trkpt><trkpt lat="59.0770483017" lon="30.0270509720"><time>2026-04-25T12:50:33Z</time></trkpt><trkpt lat="59.0770483017" lon="30.0270509720"><time>2026-04-25T12:50:35Z</time></trkpt><trkpt lat="59.0770483017" lon="30.0270509720"><time>2026-04-25T12:50:38Z</time></trkpt><trkpt lat="59.0770483017" lon="30.0270509720"><time>2026-04-25T12:50:40Z</time></trkpt><trkpt lat="59.0770483017" lon="30.0270509720"><time>2026-04-25T12:50:43Z</time></trkpt><trkpt lat="59.0770697594" lon="30.0270509720"><time>2026-04-25T12:50:45Z</time></trkpt><trkpt lat="59.0770697594" lon="30.0270509720"><time>2026-04-25T12:50:48Z</time></trkpt><trkpt lat="59.0770697594" lon="30.0270509720"><time>2026-04-25T12:50:50Z</time></trkpt><trkpt lat="59.0770697594" lon="30.0270509720"><time>2026-04-25T12:50:53Z</time></trkpt><trkpt lat="59.0770697594" lon="30.0270509720"><time>2026-04-25T12:50:55Z</time></trkpt><trkpt lat="59.0770697594" lon="30.0270509720"><time>2026-04-25T12:50:58Z</time></trkpt><trkpt lat="59.0770697594" lon="30.0270509720"><time>2026-04-25T12:51:00Z</time></trkpt><trkpt lat="59.0770697594" lon="30.0270509720"><time>2026-04-25T12:51:03Z</time></trkpt><trkpt lat="59.0770697594" lon="30.0270509720"><time>2026-04-25T12:51:05Z</time></trkpt><trkpt lat="59.0770697594" lon="30.0270509720"><time>2026-04-25T12:51:08Z</time></trkpt><trkpt lat="59.0770697594" lon="30.0270295143"><time>2026-04-25T12:51:10Z</time></trkpt><trkpt lat="59.0770697594" lon="30.0270295143"><time>2026-04-25T12:51:13Z</time></trkpt><trkpt lat="59.0770912170" lon="30.0270295143"><time>2026-04-25T12:51:15Z</time></trkpt><trkpt lat="59.0770912170" lon="30.0270080566"><time>2026-04-25T12:51:18Z</time></trkpt><trkpt lat="59.0770912170" lon="30.0270080566"><time>2026-04-25T12:51:20Z</time></trkpt><trkpt lat="59.0770912170" lon="30.0269865990"><time>2026-04-25T12:51:23Z</time></trkpt><trkpt lat="59.0771126747" lon="30.0269651413"><time>2026-04-25T12:51:25Z</time></trkpt><trkpt lat="59.0771126747" lon="30.0269651413"><time>2026-04-25T12:51:28Z</time></trkpt><trkpt lat="59.0771555901" lon="30.0269436836"><time>2026-04-25T12:51:30Z</time></trkpt><trkpt lat="59.0771555901" lon="30.0269007683"><time>2026-04-25T12:51:33Z</time></trkpt><trkpt lat="59.0771770477" lon="30.0268149376"><time>2026-04-25T12:51:35Z</time></trkpt><trkpt lat="59.0771770477" lon="30.0267505646"><time>2026-04-25T12:51:38Z</time></trkpt><trkpt lat="59.0771985054" lon="30.0266647339"><time>2026-04-25T12:51:40Z</time></trkpt><trkpt lat="59.0771985054" lon="30.0266003609"><time>2026-04-25T12:51:43Z</time></trkpt><trkpt lat="59.0772199631" lon="30.0265789032"><time>2026-04-25T12:51:45Z</time></trkpt><trkpt lat="59.0772199631" lon="30.0265574455"><time>2026-04-25T12:51:48Z</time></trkpt><trkpt lat="59.0772199631" lon="30.0265359879"><time>2026-04-25T12:51:50Z</time></trkpt><trkpt lat="59.0772199631" lon="30.0264930725"><time>2026-04-25T12:51:53Z</time></trkpt><trkpt lat="59.0772199631" lon="30.0264930725"><time>2026-04-25T12:51:55Z</time></trkpt><trkpt lat="59.0772199631" lon="30.0264930725"><time>2026-04-25T12:51:58Z</time></trkpt><trkpt lat="59.0772199631" lon="30.0264930725"><time>2026-04-25T12:52:00Z</time></trkpt><trkpt lat="59.0772414207" lon="30.0264501572"><time>2026-04-25T12:52:03Z</time></trkpt><trkpt lat="59.0772414207" lon="30.0264286995"><time>2026-04-25T12:52:05Z</time></trkpt><trkpt lat="59.0772628784" lon="30.0263857841"><time>2026-04-25T12:52:08Z</time></trkpt><trkpt lat="59.0772628784" lon="30.0263428688"><time>2026-04-25T12:52:10Z</time></trkpt><trkpt lat="59.0772628784" lon="30.0262999535"><time>2026-04-25T12:52:13Z</time></trkpt><trkpt lat="59.0772628784" lon="30.0262141228"><time>2026-04-25T12:52:15Z</time></trkpt><trkpt lat="59.0772414207" lon="30.0261712074"><time>2026-04-25T12:52:18Z</time></trkpt><trkpt lat="59.0772414207" lon="30.0261068344"><time>2026-04-25T12:52:20Z</time></trkpt><trkpt lat="59.0772199631" lon="30.0260639191"><time>2026-04-25T12:52:23Z</time></trkpt><trkpt lat="59.0771985054" lon="30.0260424614"><time>2026-04-25T12:52:25Z</time></trkpt><trkpt lat="59.0771770477" lon="30.0260639191"><time>2026-04-25T12:52:28Z</time></trkpt><trkpt lat="59.0771985054" lon="30.0260424614"><time>2026-04-25T12:52:30Z</time></trkpt><trkpt lat="59.0772199631" lon="30.0259780884"><time>2026-04-25T12:52:33Z</time></trkpt><trkpt lat="59.0772414207" lon="30.0258922577"><time>2026-04-25T12:52:35Z</time></trkpt><trkpt lat="59.0772628784" lon="30.0257849693"><time>2026-04-25T12:52:38Z</time></trkpt><trkpt lat="59.0772843361" lon="30.0257635117"><time>2026-04-25T12:52:40Z</time></trkpt><trkpt lat="59.0772628784" lon="30.0257635117"><time>2026-04-25T12:52:43Z</time></trkpt><trkpt lat="59.0772414207" lon="30.0257205963"><time>2026-04-25T12:52:45Z</time></trkpt><trkpt lat="59.0771985054" lon="30.0256991386"><time>2026-04-25T12:52:48Z</time></trkpt><trkpt lat="59.0771770477" lon="30.0256776810"><time>2026-04-25T12:52:50Z</time></trkpt><trkpt lat="59.0771341324" lon="30.0256562233"><time>2026-04-25T12:52:53Z</time></trkpt><trkpt lat="59.0770912170" lon="30.0256347656"><time>2026-04-25T12:52:55Z</time></trkpt><trkpt lat="59.0770697594" lon="30.0255489349"><time>2026-04-25T12:52:58Z</time></trkpt><trkpt lat="59.0770697594" lon="30.0254845619"><time>2026-04-25T12:53:00Z</time></trkpt><trkpt lat="59.0770483017" lon="30.0254631042"><time>2026-04-25T12:53:03Z</time></trkpt><trkpt lat="59.0770268440" lon="30.0253343582"><time>2026-04-25T12:53:05Z</time></trkpt><trkpt lat="59.0770268440" lon="30.0252270699"><time>2026-04-25T12:53:08Z</time></trkpt><trkpt lat="59.0770053864" lon="30.0252056122"><time>2026-04-25T12:53:10Z</time></trkpt><trkpt lat="59.0770268440" lon="30.0252056122"><time>2026-04-25T12:53:13Z</time></trkpt><trkpt lat="59.0770697594" lon="30.0252485275"><time>2026-04-25T12:53:15Z</time></trkpt><trkpt lat="59.0771341324" lon="30.0252914429"><time>2026-04-25T12:53:18Z</time></trkpt><trkpt lat="59.0771770477" lon="30.0253772736"><time>2026-04-25T12:53:20Z</time></trkpt><trkpt lat="59.0771985054" lon="30.0254631042"><time>2026-04-25T12:53:23Z</time></trkpt><trkpt lat="59.0772414207" lon="30.0255274773"><time>2026-04-25T12:53:25Z</time></trkpt><trkpt lat="59.0772414207" lon="30.0256562233"><time>2026-04-25T12:53:28Z</time></trkpt><trkpt lat="59.0772628784" lon="30.0258064270"><time>2026-04-25T12:53:30Z</time></trkpt><trkpt lat="59.0773057938" lon="30.0259137154"><time>2026-04-25T12:53:33Z</time></trkpt><trkpt lat="59.0773701668" lon="30.0259780884"><time>2026-04-25T12:53:35Z</time></trkpt><trkpt lat="59.0774130821" lon="30.0259995461"><time>2026-04-25T12:53:38Z</time></trkpt><trkpt lat="59.0774559975" lon="30.0259566307"><time>2026-04-25T12:53:40Z</time></trkpt><trkpt lat="59.0774989128" lon="30.0259351730"><time>2026-04-25T12:53:43Z</time></trkpt><trkpt lat="59.0775203705" lon="30.0259566307"><time>2026-04-25T12:53:45Z</time></trkpt><trkpt lat="59.0775418282" lon="30.0259351730"><time>2026-04-25T12:53:48Z</time></trkpt><trkpt lat="59.0775632858" lon="30.0259351730"><time>2026-04-25T12:53:50Z</time></trkpt><trkpt lat="59.0776062012" lon="30.0258922577"><time>2026-04-25T12:53:53Z</time></trkpt><trkpt lat="59.0775847435" lon="30.0258708000"><time>2026-04-25T12:53:55Z</time></trkpt><trkpt lat="59.0775847435" lon="30.0258278847"><time>2026-04-25T12:53:58Z</time></trkpt><trkpt lat="59.0775847435" lon="30.0258493423"><time>2026-04-25T12:54:00Z</time></trkpt><trkpt lat="59.0775847435" lon="30.0258493423"><time>2026-04-25T12:54:03Z</time></trkpt><trkpt lat="59.0775632858" lon="30.0258493423"><time>2026-04-25T12:54:05Z</time></trkpt><trkpt lat="59.0775847435" lon="30.0258493423"><time>2026-04-25T12:54:08Z</time></trkpt><trkpt lat="59.0776062012" lon="30.0258493423"><time>2026-04-25T12:54:10Z</time></trkpt><trkpt lat="59.0776276588" lon="30.0258278847"><time>2026-04-25T12:54:13Z</time></trkpt><trkpt lat="59.0776491165" lon="30.0258064270"><time>2026-04-25T12:54:15Z</time></trkpt><trkpt lat="59.0776491165" lon="30.0257849693"><time>2026-04-25T12:54:18Z</time></trkpt><trkpt lat="59.0776491165" lon="30.0258064270"><time>2026-04-25T12:54:20Z</time></trkpt><trkpt lat="59.0776491165" lon="30.0258493423"><time>2026-04-25T12:54:23Z</time></trkpt><trkpt lat="59.0776920319" lon="30.0258708000"><time>2026-04-25T12:54:25Z</time></trkpt><trkpt lat="59.0777134895" lon="30.0258708000"><time>2026-04-25T12:54:28Z</time></trkpt><trkpt lat="59.0777349472" lon="30.0258493423"><time>2026-04-25T12:54:30Z</time></trkpt><trkpt lat="59.0777564049" lon="30.0258493423"><time>2026-04-25T12:54:33Z</time></trkpt><trkpt lat="59.0777993202" lon="30.0258493423"><time>2026-04-25T12:54:35Z</time></trkpt><trkpt lat="59.0777993202" lon="30.0258493423"><time>2026-04-25T12:54:38Z</time></trkpt><trkpt lat="59.0778422356" lon="30.0258493423"><time>2026-04-25T12:54:40Z</time></trkpt><trkpt lat="59.0778636932" lon="30.0258708000"><time>2026-04-25T12:54:43Z</time></trkpt><trkpt lat="59.0778851509" lon="30.0259137154"><time>2026-04-25T12:54:45Z</time></trkpt><trkpt lat="59.0778636932" lon="30.0258922577"><time>2026-04-25T12:54:48Z</time></trkpt><trkpt lat="59.0778422356" lon="30.0258278847"><time>2026-04-25T12:54:50Z</time></trkpt><trkpt lat="59.0778207779" lon="30.0258278847"><time>2026-04-25T12:54:53Z</time></trkpt><trkpt lat="59.0778422356" lon="30.0258278847"><time>2026-04-25T12:54:55Z</time></trkpt><trkpt lat="59.0778422356" lon="30.0258278847"><time>2026-04-25T12:54:58Z</time></trkpt><trkpt lat="59.0778422356" lon="30.0258278847"><time>2026-04-25T12:55:00Z</time></trkpt><trkpt lat="59.0778422356" lon="30.0258278847"><time>2026-04-25T12:55:03Z</time></trkpt><trkpt lat="59.0778422356" lon="30.0258278847"><time>2026-04-25T12:55:05Z</time></trkpt><trkpt lat="59.0778422356" lon="30.0258278847"><time>2026-04-25T12:55:08Z</time></trkpt><trkpt lat="59.0777993202" lon="30.0258278847"><time>2026-04-25T12:55:10Z</time></trkpt><trkpt lat="59.0777778625" lon="30.0258064270"><time>2026-04-25T12:55:13Z</time></trkpt><trkpt lat="59.0777564049" lon="30.0257635117"><time>2026-04-25T12:55:15Z</time></trkpt><trkpt lat="59.0777564049" lon="30.0257205963"><time>2026-04-25T12:55:18Z</time></trkpt><trkpt lat="59.0777349472" lon="30.0256991386"><time>2026-04-25T12:55:20Z</time></trkpt><trkpt lat="59.0777134895" lon="30.0256562233"><time>2026-04-25T12:55:23Z</time></trkpt><trkpt lat="59.0777134895" lon="30.0256562233"><time>2026-04-25T12:55:25Z</time></trkpt><trkpt lat="59.0777134895" lon="30.0256776810"><time>2026-04-25T12:55:28Z</time></trkpt><trkpt lat="59.0777134895" lon="30.0256562233"><time>2026-04-25T12:55:30Z</time></trkpt><trkpt lat="59.0777134895" lon="30.0256776810"><time>2026-04-25T12:55:33Z</time></trkpt><trkpt lat="59.0777134895" lon="30.0256776810"><time>2026-04-25T12:55:35Z</time></trkpt><trkpt lat="59.0777134895" lon="30.0256776810"><time>2026-04-25T12:55:38Z</time></trkpt><trkpt lat="59.0777134895" lon="30.0256776810"><time>2026-04-25T12:55:40Z</time></trkpt><trkpt lat="59.0777134895" lon="30.0256776810"><time>2026-04-25T12:55:43Z</time></trkpt><trkpt lat="59.0777134895" lon="30.0256776810"><time>2026-04-25T12:55:45Z</time></trkpt><trkpt lat="59.0777134895" lon="30.0256776810"><time>2026-04-25T12:55:48Z</time></trkpt><trkpt lat="59.0777134895" lon="30.0256776810"><time>2026-04-25T12:55:50Z</time></trkpt><trkpt lat="59.0777134895" lon="30.0256991386"><time>2026-04-25T12:55:53Z</time></trkpt><trkpt lat="59.0776920319" lon="30.0257205963"><time>2026-04-25T12:55:55Z</time></trkpt><trkpt lat="59.0776920319" lon="30.0257420540"><time>2026-04-25T12:55:58Z</time></trkpt><trkpt lat="59.0776920319" lon="30.0257420540"><time>2026-04-25T12:56:00Z</time></trkpt><trkpt lat="59.0776920319" lon="30.0257420540"><time>2026-04-25T12:56:03Z</time></trkpt><trkpt lat="59.0776920319" lon="30.0257420540"><time>2026-04-25T12:56:05Z</time></trkpt><trkpt lat="59.0776920319" lon="30.0257420540"><time>2026-04-25T12:56:08Z</time></trkpt><trkpt lat="59.0776920319" lon="30.0257420540"><time>2026-04-25T12:56:10Z</time></trkpt><trkpt lat="59.0776920319" lon="30.0257420540"><time>2026-04-25T12:56:13Z</time></trkpt><trkpt lat="59.0776920319" lon="30.0257420540"><time>2026-04-25T12:56:15Z</time></trkpt><trkpt lat="59.0776920319" lon="30.0257420540"><time>2026-04-25T12:56:18Z</time></trkpt><trkpt lat="59.0776920319" lon="30.0257205963"><time>2026-04-25T12:56:20Z</time></trkpt><trkpt lat="59.0777134895" lon="30.0257205963"><time>2026-04-25T12:56:23Z</time></trkpt><trkpt lat="59.0777134895" lon="30.0257205963"><time>2026-04-25T12:56:25Z</time></trkpt><trkpt lat="59.0777134895" lon="30.0257205963"><time>2026-04-25T12:56:28Z</time></trkpt><trkpt lat="59.0777134895" lon="30.0257205963"><time>2026-04-25T12:56:30Z</time></trkpt><trkpt lat="59.0777134895" lon="30.0257205963"><time>2026-04-25T12:56:33Z</time></trkpt><trkpt lat="59.0777134895" lon="30.0257205963"><time>2026-04-25T12:56:35Z</time></trkpt><trkpt lat="59.0777134895" lon="30.0257205963"><time>2026-04-25T12:56:38Z</time></trkpt><trkpt lat="59.0777134895" lon="30.0257205963"><time>2026-04-25T12:56:40Z</time></trkpt><trkpt lat="59.0777134895" lon="30.0257205963"><time>2026-04-25T12:56:43Z</time></trkpt><trkpt lat="59.0777134895" lon="30.0257205963"><time>2026-04-25T12:56:45Z</time></trkpt><trkpt lat="59.0777134895" lon="30.0257205963"><time>2026-04-25T12:56:48Z</time></trkpt><trkpt lat="59.0777134895" lon="30.0257205963"><time>2026-04-25T12:56:50Z</time></trkpt><trkpt lat="59.0777134895" lon="30.0256991386"><time>2026-04-25T12:56:53Z</time></trkpt><trkpt lat="59.0777134895" lon="30.0256991386"><time>2026-04-25T12:56:55Z</time></trkpt><trkpt lat="59.0777134895" lon="30.0256991386"><time>2026-04-25T12:56:58Z</time></trkpt><trkpt lat="59.0777134895" lon="30.0256991386"><time>2026-04-25T12:57:00Z</time></trkpt><trkpt lat="59.0777134895" lon="30.0256991386"><time>2026-04-25T12:57:03Z</time></trkpt><trkpt lat="59.0777134895" lon="30.0256991386"><time>2026-04-25T12:57:05Z</time></trkpt><trkpt lat="59.0777134895" lon="30.0256991386"><time>2026-04-25T12:57:08Z</time></trkpt><trkpt lat="59.0777134895" lon="30.0256991386"><time>2026-04-25T12:57:10Z</time></trkpt><trkpt lat="59.0777134895" lon="30.0256991386"><time>2026-04-25T12:57:13Z</time></trkpt><trkpt lat="59.0777134895" lon="30.0256991386"><time>2026-04-25T12:57:15Z</time></trkpt><trkpt lat="59.0777134895" lon="30.0256991386"><time>2026-04-25T12:57:18Z</time></trkpt><trkpt lat="59.0777134895" lon="30.0256991386"><time>2026-04-25T12:57:20Z</time></trkpt><trkpt lat="59.0777134895" lon="30.0256991386"><time>2026-04-25T12:57:23Z</time></trkpt><trkpt lat="59.0777134895" lon="30.0256991386"><time>2026-04-25T12:57:25Z</time></trkpt><trkpt lat="59.0777134895" lon="30.0256991386"><time>2026-04-25T12:57:28Z</time></trkpt><trkpt lat="59.0777134895" lon="30.0256991386"><time>2026-04-25T12:57:30Z</time></trkpt><trkpt lat="59.0777134895" lon="30.0256991386"><time>2026-04-25T12:57:33Z</time></trkpt><trkpt lat="59.0777134895" lon="30.0256991386"><time>2026-04-25T12:57:35Z</time></trkpt><trkpt lat="59.0777134895" lon="30.0256991386"><time>2026-04-25T12:57:38Z</time></trkpt><trkpt lat="59.0777134895" lon="30.0256991386"><time>2026-04-25T12:57:40Z</time></trkpt><trkpt lat="59.0777134895" lon="30.0256991386"><time>2026-04-25T12:57:43Z</time></trkpt><trkpt lat="59.0777349472" lon="30.0256991386"><time>2026-04-25T12:57:45Z</time></trkpt><trkpt lat="59.0777349472" lon="30.0256991386"><time>2026-04-25T12:57:48Z</time></trkpt><trkpt lat="59.0777349472" lon="30.0256991386"><time>2026-04-25T12:57:50Z</time></trkpt><trkpt lat="59.0777349472" lon="30.0256991386"><time>2026-04-25T12:57:53Z</time></trkpt><trkpt lat="59.0777349472" lon="30.0256991386"><time>2026-04-25T12:57:55Z</time></trkpt><trkpt lat="59.0777349472" lon="30.0256991386"><time>2026-04-25T12:57:58Z</time></trkpt><trkpt lat="59.0777349472" lon="30.0256991386"><time>2026-04-25T12:58:00Z</time></trkpt><trkpt lat="59.0777349472" lon="30.0256991386"><time>2026-04-25T12:58:03Z</time></trkpt><trkpt lat="59.0777349472" lon="30.0256991386"><time>2026-04-25T12:58:05Z</time></trkpt><trkpt lat="59.0777349472" lon="30.0256991386"><time>2026-04-25T12:58:08Z</time></trkpt><trkpt lat="59.0777349472" lon="30.0256991386"><time>2026-04-25T12:58:10Z</time></trkpt><trkpt lat="59.0777349472" lon="30.0256991386"><time>2026-04-25T12:58:13Z</time></trkpt><trkpt lat="59.0777349472" lon="30.0256991386"><time>2026-04-25T12:58:15Z</time></trkpt><trkpt lat="59.0777349472" lon="30.0256991386"><time>2026-04-25T12:58:18Z</time></trkpt><trkpt lat="59.0777349472" lon="30.0256991386"><time>2026-04-25T12:58:20Z</time></trkpt><trkpt lat="59.0777349472" lon="30.0256991386"><time>2026-04-25T12:58:23Z</time></trkpt><trkpt lat="59.0777349472" lon="30.0256991386"><time>2026-04-25T12:58:25Z</time></trkpt><trkpt lat="59.0777349472" lon="30.0256991386"><time>2026-04-25T12:58:28Z</time></trkpt><trkpt lat="59.0777349472" lon="30.0256991386"><time>2026-04-25T12:58:30Z</time></trkpt><trkpt lat="59.0777349472" lon="30.0256991386"><time>2026-04-25T12:58:33Z</time></trkpt><trkpt lat="59.0777349472" lon="30.0256991386"><time>2026-04-25T12:58:35Z</time></trkpt><trkpt lat="59.0777349472" lon="30.0256991386"><time>2026-04-25T12:58:38Z</time></trkpt><trkpt lat="59.0777349472" lon="30.0256991386"><time>2026-04-25T12:58:40Z</time></trkpt><trkpt lat="59.0777349472" lon="30.0256991386"><time>2026-04-25T12:58:43Z</time></trkpt><trkpt lat="59.0777349472" lon="30.0256991386"><time>2026-04-25T12:58:45Z</time></trkpt><trkpt lat="59.0777349472" lon="30.0256991386"><time>2026-04-25T12:58:48Z</time></trkpt><trkpt lat="59.0777349472" lon="30.0256991386"><time>2026-04-25T12:58:50Z</time></trkpt><trkpt lat="59.0777349472" lon="30.0256991386"><time>2026-04-25T12:58:53Z</time></trkpt><trkpt lat="59.0777349472" lon="30.0256991386"><time>2026-04-25T12:58:55Z</time></trkpt><trkpt lat="59.0777349472" lon="30.0256991386"><time>2026-04-25T12:58:58Z</time></trkpt><trkpt lat="59.0777349472" lon="30.0256991386"><time>2026-04-25T12:59:00Z</time></trkpt><trkpt lat="59.0777349472" lon="30.0256991386"><time>2026-04-25T12:59:03Z</time></trkpt><trkpt lat="59.0777349472" lon="30.0256991386"><time>2026-04-25T12:59:05Z</time></trkpt><trkpt lat="59.0777349472" lon="30.0256991386"><time>2026-04-25T12:59:08Z</time></trkpt><trkpt lat="59.0777349472" lon="30.0256991386"><time>2026-04-25T12:59:10Z</time></trkpt><trkpt lat="59.0777349472" lon="30.0256991386"><time>2026-04-25T12:59:13Z</time></trkpt><trkpt lat="59.0777349472" lon="30.0256991386"><time>2026-04-25T12:59:15Z</time></trkpt><trkpt lat="59.0777349472" lon="30.0256991386"><time>2026-04-25T12:59:18Z</time></trkpt><trkpt lat="59.0777349472" lon="30.0256991386"><time>2026-04-25T12:59:20Z</time></trkpt><trkpt lat="59.0777349472" lon="30.0256991386"><time>2026-04-25T12:59:23Z</time></trkpt><trkpt lat="59.0777349472" lon="30.0256991386"><time>2026-04-25T12:59:25Z</time></trkpt><trkpt lat="59.0777349472" lon="30.0256991386"><time>2026-04-25T12:59:28Z</time></trkpt><trkpt lat="59.0777349472" lon="30.0256991386"><time>2026-04-25T12:59:30Z</time></trkpt><trkpt lat="59.0777349472" lon="30.0256991386"><time>2026-04-25T12:59:33Z</time></trkpt><trkpt lat="59.0777349472" lon="30.0256991386"><time>2026-04-25T12:59:35Z</time></trkpt><trkpt lat="59.0777349472" lon="30.0256991386"><time>2026-04-25T12:59:38Z</time></trkpt><trkpt lat="59.0777349472" lon="30.0256991386"><time>2026-04-25T12:59:40Z</time></trkpt><trkpt lat="59.0777349472" lon="30.0256991386"><time>2026-04-25T12:59:43Z</time></trkpt><trkpt lat="59.0777349472" lon="30.0256991386"><time>2026-04-25T12:59:45Z</time></trkpt><trkpt lat="59.0777349472" lon="30.0256991386"><time>2026-04-25T12:59:48Z</time></trkpt><trkpt lat="59.0777349472" lon="30.0256991386"><time>2026-04-25T12:59:50Z</time></trkpt><trkpt lat="59.0777349472" lon="30.0256991386"><time>2026-04-25T12:59:53Z</time></trkpt><trkpt lat="59.0777349472" lon="30.0256991386"><time>2026-04-25T12:59:55Z</time></trkpt><trkpt lat="59.0777349472" lon="30.0256991386"><time>2026-04-25T12:59:58Z</time></trkpt><trkpt lat="59.0777349472" lon="30.0256991386"><time>2026-04-25T13:00:00Z</time></trkpt><trkpt lat="59.0777349472" lon="30.0256991386"><time>2026-04-25T13:00:03Z</time></trkpt><trkpt lat="59.0777349472" lon="30.0256991386"><time>2026-04-25T13:00:05Z</time></trkpt><trkpt lat="59.0777349472" lon="30.0256991386"><time>2026-04-25T13:00:08Z</time></trkpt><trkpt lat="59.0777349472" lon="30.0256991386"><time>2026-04-25T13:00:10Z</time></trkpt><trkpt lat="59.0777134895" lon="30.0256991386"><time>2026-04-25T13:00:13Z</time></trkpt><trkpt lat="59.0777134895" lon="30.0256991386"><time>2026-04-25T13:00:15Z</time></trkpt><trkpt lat="59.0777134895" lon="30.0256991386"><time>2026-04-25T13:00:18Z</time></trkpt><trkpt lat="59.0777134895" lon="30.0256991386"><time>2026-04-25T13:00:20Z</time></trkpt><trkpt lat="59.0777134895" lon="30.0256991386"><time>2026-04-25T13:00:23Z</time></trkpt><trkpt lat="59.0777134895" lon="30.0256991386"><time>2026-04-25T13:00:25Z</time></trkpt><trkpt lat="59.0777134895" lon="30.0256991386"><time>2026-04-25T13:00:28Z</time></trkpt><trkpt lat="59.0777134895" lon="30.0257205963"><time>2026-04-25T13:00:31Z</time></trkpt><trkpt lat="59.0777134895" lon="30.0257205963"><time>2026-04-25T13:00:33Z</time></trkpt><trkpt lat="59.0777134895" lon="30.0257205963"><time>2026-04-25T13:00:35Z</time></trkpt><trkpt lat="59.0777134895" lon="30.0257205963"><time>2026-04-25T13:00:38Z</time></trkpt><trkpt lat="59.0777134895" lon="30.0257205963"><time>2026-04-25T13:00:40Z</time></trkpt><trkpt lat="59.0777134895" lon="30.0257205963"><time>2026-04-25T13:00:43Z</time></trkpt><trkpt lat="59.0777134895" lon="30.0257205963"><time>2026-04-25T13:00:45Z</time></trkpt><trkpt lat="59.0777134895" lon="30.0257205963"><time>2026-04-25T13:00:48Z</time></trkpt><trkpt lat="59.0777134895" lon="30.0257205963"><time>2026-04-25T13:00:50Z</time></trkpt><trkpt lat="59.0777134895" lon="30.0257205963"><time>2026-04-25T13:00:53Z</time></trkpt><trkpt lat="59.0777134895" lon="30.0257205963"><time>2026-04-25T13:00:55Z</time></trkpt><trkpt lat="59.0777134895" lon="30.0257205963"><time>2026-04-25T13:00:58Z</time></trkpt><trkpt lat="59.0777134895" lon="30.0257420540"><time>2026-04-25T13:01:00Z</time></trkpt><trkpt lat="59.0777134895" lon="30.0257849693"><time>2026-04-25T13:01:03Z</time></trkpt><trkpt lat="59.0776920319" lon="30.0258278847"><time>2026-04-25T13:01:05Z</time></trkpt><trkpt lat="59.0776705742" lon="30.0258064270"><time>2026-04-25T13:01:08Z</time></trkpt><trkpt lat="59.0776491165" lon="30.0258064270"><time>2026-04-25T13:01:10Z</time></trkpt><trkpt lat="59.0776491165" lon="30.0258278847"><time>2026-04-25T13:01:13Z</time></trkpt><trkpt lat="59.0776491165" lon="30.0258278847"><time>2026-04-25T13:01:15Z</time></trkpt><trkpt lat="59.0776491165" lon="30.0258493423"><time>2026-04-25T13:01:18Z</time></trkpt><trkpt lat="59.0776491165" lon="30.0258493423"><time>2026-04-25T13:01:20Z</time></trkpt><trkpt lat="59.0776491165" lon="30.0258278847"><time>2026-04-25T13:01:23Z</time></trkpt><trkpt lat="59.0776491165" lon="30.0258278847"><time>2026-04-25T13:01:25Z</time></trkpt><trkpt lat="59.0776491165" lon="30.0258278847"><time>2026-04-25T13:01:28Z</time></trkpt><trkpt lat="59.0776491165" lon="30.0258278847"><time>2026-04-25T13:01:31Z</time></trkpt><trkpt lat="59.0776491165" lon="30.0258278847"><time>2026-04-25T13:01:33Z</time></trkpt><trkpt lat="59.0776062012" lon="30.0258493423"><time>2026-04-25T13:01:35Z</time></trkpt><trkpt lat="59.0775847435" lon="30.0258708000"><time>2026-04-25T13:01:38Z</time></trkpt><trkpt lat="59.0775418282" lon="30.0259137154"><time>2026-04-25T13:01:40Z</time></trkpt><trkpt lat="59.0775203705" lon="30.0259137154"><time>2026-04-25T13:01:43Z</time></trkpt><trkpt lat="59.0775203705" lon="30.0259566307"><time>2026-04-25T13:01:45Z</time></trkpt><trkpt lat="59.0775203705" lon="30.0260210037"><time>2026-04-25T13:01:48Z</time></trkpt><trkpt lat="59.0774774551" lon="30.0260424614"><time>2026-04-25T13:01:50Z</time></trkpt><trkpt lat="59.0774559975" lon="30.0260210037"><time>2026-04-25T13:01:53Z</time></trkpt><trkpt lat="59.0774130821" lon="30.0260210037"><time>2026-04-25T13:01:55Z</time></trkpt><trkpt lat="59.0773916245" lon="30.0260424614"><time>2026-04-25T13:01:58Z</time></trkpt><trkpt lat="59.0773701668" lon="30.0260639191"><time>2026-04-25T13:02:00Z</time></trkpt><trkpt lat="59.0773272514" lon="30.0260424614"><time>2026-04-25T13:02:03Z</time></trkpt><trkpt lat="59.0772843361" lon="30.0260424614"><time>2026-04-25T13:02:05Z</time></trkpt><trkpt lat="59.0772843361" lon="30.0260210037"><time>2026-04-25T13:02:08Z</time></trkpt><trkpt lat="59.0772843361" lon="30.0259780884"><time>2026-04-25T13:02:10Z</time></trkpt><trkpt lat="59.0772843361" lon="30.0259566307"><time>2026-04-25T13:02:13Z</time></trkpt><trkpt lat="59.0773057938" lon="30.0259566307"><time>2026-04-25T13:02:15Z</time></trkpt><trkpt lat="59.0773272514" lon="30.0259566307"><time>2026-04-25T13:02:18Z</time></trkpt><trkpt lat="59.0773272514" lon="30.0259566307"><time>2026-04-25T13:02:21Z</time></trkpt><trkpt lat="59.0773272514" lon="30.0259566307"><time>2026-04-25T13:02:23Z</time></trkpt><trkpt lat="59.0773272514" lon="30.0259566307"><time>2026-04-25T13:02:25Z</time></trkpt><trkpt lat="59.0773272514" lon="30.0259566307"><time>2026-04-25T13:02:28Z</time></trkpt><trkpt lat="59.0773272514" lon="30.0259566307"><time>2026-04-25T13:02:30Z</time></trkpt><trkpt lat="59.0773057938" lon="30.0259566307"><time>2026-04-25T13:02:33Z</time></trkpt><trkpt lat="59.0772843361" lon="30.0259995461"><time>2026-04-25T13:02:35Z</time></trkpt><trkpt lat="59.0772628784" lon="30.0260424614"><time>2026-04-25T13:02:38Z</time></trkpt><trkpt lat="59.0772414207" lon="30.0259995461"><time>2026-04-25T13:02:40Z</time></trkpt><trkpt lat="59.0772199631" lon="30.0259780884"><time>2026-04-25T13:02:43Z</time></trkpt><trkpt lat="59.0771770477" lon="30.0260210037"><time>2026-04-25T13:02:45Z</time></trkpt><trkpt lat="59.0771770477" lon="30.0260424614"><time>2026-04-25T13:02:48Z</time></trkpt><trkpt lat="59.0771770477" lon="30.0260853767"><time>2026-04-25T13:02:51Z</time></trkpt><trkpt lat="59.0771555901" lon="30.0261068344"><time>2026-04-25T13:02:53Z</time></trkpt><trkpt lat="59.0771341324" lon="30.0261282921"><time>2026-04-25T13:02:55Z</time></trkpt><trkpt lat="59.0771341324" lon="30.0261282921"><time>2026-04-25T13:02:58Z</time></trkpt><trkpt lat="59.0771126747" lon="30.0261068344"><time>2026-04-25T13:03:00Z</time></trkpt><trkpt lat="59.0770912170" lon="30.0260853767"><time>2026-04-25T13:03:03Z</time></trkpt><trkpt lat="59.0770697594" lon="30.0261068344"><time>2026-04-25T13:03:05Z</time></trkpt><trkpt lat="59.0770697594" lon="30.0260853767"><time>2026-04-25T13:03:08Z</time></trkpt><trkpt lat="59.0770912170" lon="30.0260853767"><time>2026-04-25T13:03:10Z</time></trkpt><trkpt lat="59.0770912170" lon="30.0260639191"><time>2026-04-25T13:03:13Z</time></trkpt><trkpt lat="59.0770697594" lon="30.0260424614"><time>2026-04-25T13:03:15Z</time></trkpt><trkpt lat="59.0770912170" lon="30.0260639191"><time>2026-04-25T13:03:18Z</time></trkpt><trkpt lat="59.0770697594" lon="30.0260853767"><time>2026-04-25T13:03:20Z</time></trkpt><trkpt lat="59.0770483017" lon="30.0260639191"><time>2026-04-25T13:03:23Z</time></trkpt><trkpt lat="59.0770268440" lon="30.0260639191"><time>2026-04-25T13:03:25Z</time></trkpt><trkpt lat="59.0770053864" lon="30.0260853767"><time>2026-04-25T13:03:28Z</time></trkpt><trkpt lat="59.0769839287" lon="30.0260639191"><time>2026-04-25T13:03:30Z</time></trkpt><trkpt lat="59.0769624710" lon="30.0260424614"><time>2026-04-25T13:03:33Z</time></trkpt><trkpt lat="59.0769624710" lon="30.0259780884"><time>2026-04-25T13:03:35Z</time></trkpt><trkpt lat="59.0769624710" lon="30.0259780884"><time>2026-04-25T13:03:38Z</time></trkpt><trkpt lat="59.0769624710" lon="30.0259995461"><time>2026-04-25T13:03:40Z</time></trkpt><trkpt lat="59.0769624710" lon="30.0259995461"><time>2026-04-25T13:03:43Z</time></trkpt><trkpt lat="59.0769624710" lon="30.0259995461"><time>2026-04-25T13:03:45Z</time></trkpt><trkpt lat="59.0769624710" lon="30.0259995461"><time>2026-04-25T13:03:48Z</time></trkpt><trkpt lat="59.0769624710" lon="30.0259995461"><time>2026-04-25T13:03:50Z</time></trkpt><trkpt lat="59.0769624710" lon="30.0259995461"><time>2026-04-25T13:03:53Z</time></trkpt><trkpt lat="59.0769624710" lon="30.0259995461"><time>2026-04-25T13:03:55Z</time></trkpt><trkpt lat="59.0769624710" lon="30.0259995461"><time>2026-04-25T13:03:58Z</time></trkpt><trkpt lat="59.0769624710" lon="30.0259995461"><time>2026-04-25T13:04:00Z</time></trkpt><trkpt lat="59.0769624710" lon="30.0260424614"><time>2026-04-25T13:04:03Z</time></trkpt><trkpt lat="59.0769410133" lon="30.0260639191"><time>2026-04-25T13:04:05Z</time></trkpt><trkpt lat="59.0769195557" lon="30.0260639191"><time>2026-04-25T13:04:08Z</time></trkpt><trkpt lat="59.0768980980" lon="30.0261282921"><time>2026-04-25T13:04:10Z</time></trkpt><trkpt lat="59.0768980980" lon="30.0261282921"><time>2026-04-25T13:04:13Z</time></trkpt><trkpt lat="59.0768980980" lon="30.0261282921"><time>2026-04-25T13:04:15Z</time></trkpt><trkpt lat="59.0768980980" lon="30.0261282921"><time>2026-04-25T13:04:18Z</time></trkpt><trkpt lat="59.0768980980" lon="30.0260424614"><time>2026-04-25T13:04:20Z</time></trkpt><trkpt lat="59.0768551826" lon="30.0259995461"><time>2026-04-25T13:04:25Z</time></trkpt><trkpt lat="59.0768337250" lon="30.0259780884"><time>2026-04-25T13:04:28Z</time></trkpt><trkpt lat="59.0768122673" lon="30.0259995461"><time>2026-04-25T13:04:30Z</time></trkpt><trkpt lat="59.0767908096" lon="30.0259995461"><time>2026-04-25T13:04:33Z</time></trkpt><trkpt lat="59.0767693520" lon="30.0260424614"><time>2026-04-25T13:04:35Z</time></trkpt><trkpt lat="59.0767478943" lon="30.0260853767"><time>2026-04-25T13:04:38Z</time></trkpt><trkpt lat="59.0767264366" lon="30.0261282921"><time>2026-04-25T13:04:40Z</time></trkpt><trkpt lat="59.0767264366" lon="30.0261497498"><time>2026-04-25T13:04:43Z</time></trkpt><trkpt lat="59.0767264366" lon="30.0261926651"><time>2026-04-25T13:04:45Z</time></trkpt><trkpt lat="59.0767049789" lon="30.0262141228"><time>2026-04-25T13:04:48Z</time></trkpt><trkpt lat="59.0767049789" lon="30.0262784958"><time>2026-04-25T13:04:50Z</time></trkpt><trkpt lat="59.0766835213" lon="30.0263214111"><time>2026-04-25T13:04:53Z</time></trkpt><trkpt lat="59.0766835213" lon="30.0264072418"><time>2026-04-25T13:04:55Z</time></trkpt><trkpt lat="59.0767049789" lon="30.0264501572"><time>2026-04-25T13:04:58Z</time></trkpt><trkpt lat="59.0767264366" lon="30.0264501572"><time>2026-04-25T13:05:00Z</time></trkpt><trkpt lat="59.0767264366" lon="30.0264072418"><time>2026-04-25T13:05:03Z</time></trkpt><trkpt lat="59.0767478943" lon="30.0263643265"><time>2026-04-25T13:05:05Z</time></trkpt><trkpt lat="59.0767478943" lon="30.0263428688"><time>2026-04-25T13:05:08Z</time></trkpt><trkpt lat="59.0767264366" lon="30.0263643265"><time>2026-04-25T13:05:10Z</time></trkpt><trkpt lat="59.0767049789" lon="30.0263643265"><time>2026-04-25T13:05:13Z</time></trkpt><trkpt lat="59.0766620636" lon="30.0263857841"><time>2026-04-25T13:05:15Z</time></trkpt><trkpt lat="59.0766406059" lon="30.0263428688"><time>2026-04-25T13:05:18Z</time></trkpt><trkpt lat="59.0766620636" lon="30.0262999535"><time>2026-04-25T13:05:20Z</time></trkpt><trkpt lat="59.0766620636" lon="30.0262784958"><time>2026-04-25T13:05:23Z</time></trkpt><trkpt lat="59.0766620636" lon="30.0262355804"><time>2026-04-25T13:05:25Z</time></trkpt><trkpt lat="59.0766620636" lon="30.0262355804"><time>2026-04-25T13:05:28Z</time></trkpt><trkpt lat="59.0766406059" lon="30.0262141228"><time>2026-04-25T13:05:30Z</time></trkpt><trkpt lat="59.0765976906" lon="30.0262141228"><time>2026-04-25T13:05:33Z</time></trkpt><trkpt lat="59.0765762329" lon="30.0262355804"><time>2026-04-25T13:05:35Z</time></trkpt><trkpt lat="59.0765762329" lon="30.0262784958"><time>2026-04-25T13:05:38Z</time></trkpt><trkpt lat="59.0765547752" lon="30.0262784958"><time>2026-04-25T13:05:40Z</time></trkpt><trkpt lat="59.0765547752" lon="30.0262784958"><time>2026-04-25T13:05:43Z</time></trkpt><trkpt lat="59.0765333176" lon="30.0262570381"><time>2026-04-25T13:05:45Z</time></trkpt><trkpt lat="59.0765333176" lon="30.0262999535"><time>2026-04-25T13:05:48Z</time></trkpt><trkpt lat="59.0765118599" lon="30.0263214111"><time>2026-04-25T13:05:50Z</time></trkpt><trkpt lat="59.0764904022" lon="30.0262999535"><time>2026-04-25T13:05:53Z</time></trkpt><trkpt lat="59.0764474869" lon="30.0262999535"><time>2026-04-25T13:05:55Z</time></trkpt><trkpt lat="59.0764260292" lon="30.0262784958"><time>2026-04-25T13:05:58Z</time></trkpt><trkpt lat="59.0764260292" lon="30.0262784958"><time>2026-04-25T13:06:00Z</time></trkpt><trkpt lat="59.0764474869" lon="30.0262355804"><time>2026-04-25T13:06:03Z</time></trkpt><trkpt lat="59.0764260292" lon="30.0262141228"><time>2026-04-25T13:06:05Z</time></trkpt><trkpt lat="59.0764474869" lon="30.0262141228"><time>2026-04-25T13:06:08Z</time></trkpt><trkpt lat="59.0764474869" lon="30.0262355804"><time>2026-04-25T13:06:10Z</time></trkpt><trkpt lat="59.0764474869" lon="30.0262355804"><time>2026-04-25T13:06:13Z</time></trkpt><trkpt lat="59.0764474869" lon="30.0262355804"><time>2026-04-25T13:06:15Z</time></trkpt><trkpt lat="59.0764474869" lon="30.0262355804"><time>2026-04-25T13:06:18Z</time></trkpt><trkpt lat="59.0764474869" lon="30.0262355804"><time>2026-04-25T13:06:20Z</time></trkpt><trkpt lat="59.0764260292" lon="30.0262355804"><time>2026-04-25T13:06:23Z</time></trkpt><trkpt lat="59.0764045715" lon="30.0262784958"><time>2026-04-25T13:06:25Z</time></trkpt><trkpt lat="59.0763831139" lon="30.0263214111"><time>2026-04-25T13:06:28Z</time></trkpt><trkpt lat="59.0763616562" lon="30.0262999535"><time>2026-04-25T13:06:30Z</time></trkpt><trkpt lat="59.0763616562" lon="30.0262784958"><time>2026-04-25T13:06:33Z</time></trkpt><trkpt lat="59.0763401985" lon="30.0262784958"><time>2026-04-25T13:06:35Z</time></trkpt><trkpt lat="59.0763401985" lon="30.0262570381"><time>2026-04-25T13:06:38Z</time></trkpt><trkpt lat="59.0763616562" lon="30.0262999535"><time>2026-04-25T13:06:40Z</time></trkpt><trkpt lat="59.0763616562" lon="30.0263428688"><time>2026-04-25T13:06:43Z</time></trkpt><trkpt lat="59.0763831139" lon="30.0263643265"><time>2026-04-25T13:06:45Z</time></trkpt><trkpt lat="59.0764045715" lon="30.0263643265"><time>2026-04-25T13:06:48Z</time></trkpt><trkpt lat="59.0764260292" lon="30.0263643265"><time>2026-04-25T13:06:50Z</time></trkpt><trkpt lat="59.0764045715" lon="30.0263643265"><time>2026-04-25T13:06:53Z</time></trkpt><trkpt lat="59.0764045715" lon="30.0263643265"><time>2026-04-25T13:06:55Z</time></trkpt><trkpt lat="59.0764045715" lon="30.0263643265"><time>2026-04-25T13:06:58Z</time></trkpt><trkpt lat="59.0764260292" lon="30.0263428688"><time>2026-04-25T13:07:00Z</time></trkpt><trkpt lat="59.0764260292" lon="30.0263428688"><time>2026-04-25T13:07:03Z</time></trkpt><trkpt lat="59.0764260292" lon="30.0263643265"><time>2026-04-25T13:07:05Z</time></trkpt><trkpt lat="59.0764260292" lon="30.0263643265"><time>2026-04-25T13:07:08Z</time></trkpt><trkpt lat="59.0764260292" lon="30.0263643265"><time>2026-04-25T13:07:10Z</time></trkpt><trkpt lat="59.0764260292" lon="30.0263643265"><time>2026-04-25T13:07:13Z</time></trkpt><trkpt lat="59.0764260292" lon="30.0263643265"><time>2026-04-25T13:07:15Z</time></trkpt><trkpt lat="59.0764260292" lon="30.0263643265"><time>2026-04-25T13:07:18Z</time></trkpt><trkpt lat="59.0764260292" lon="30.0263643265"><time>2026-04-25T13:07:20Z</time></trkpt><trkpt lat="59.0764260292" lon="30.0263643265"><time>2026-04-25T13:07:23Z</time></trkpt><trkpt lat="59.0764260292" lon="30.0263643265"><time>2026-04-25T13:07:25Z</time></trkpt><trkpt lat="59.0764260292" lon="30.0263428688"><time>2026-04-25T13:07:28Z</time></trkpt><trkpt lat="59.0764045715" lon="30.0262999535"><time>2026-04-25T13:07:30Z</time></trkpt><trkpt lat="59.0764045715" lon="30.0262784958"><time>2026-04-25T13:07:33Z</time></trkpt><trkpt lat="59.0763831139" lon="30.0262570381"><time>2026-04-25T13:07:35Z</time></trkpt><trkpt lat="59.0763831139" lon="30.0262570381"><time>2026-04-25T13:07:38Z</time></trkpt><trkpt lat="59.0763616562" lon="30.0262570381"><time>2026-04-25T13:07:40Z</time></trkpt><trkpt lat="59.0763616562" lon="30.0262570381"><time>2026-04-25T13:07:43Z</time></trkpt><trkpt lat="59.0763616562" lon="30.0262570381"><time>2026-04-25T13:07:45Z</time></trkpt><trkpt lat="59.0763616562" lon="30.0262570381"><time>2026-04-25T13:07:48Z</time></trkpt><trkpt lat="59.0763401985" lon="30.0262570381"><time>2026-04-25T13:07:50Z</time></trkpt><trkpt lat="59.0763187408" lon="30.0262784958"><time>2026-04-25T13:07:53Z</time></trkpt><trkpt lat="59.0762758255" lon="30.0263428688"><time>2026-04-25T13:07:55Z</time></trkpt><trkpt lat="59.0762543678" lon="30.0264072418"><time>2026-04-25T13:07:58Z</time></trkpt><trkpt lat="59.0762543678" lon="30.0265145302"><time>2026-04-25T13:08:00Z</time></trkpt><trkpt lat="59.0762543678" lon="30.0266003609"><time>2026-04-25T13:08:03Z</time></trkpt><trkpt lat="59.0762543678" lon="30.0266647339"><time>2026-04-25T13:08:05Z</time></trkpt><trkpt lat="59.0762329102" lon="30.0267291069"><time>2026-04-25T13:08:08Z</time></trkpt><trkpt lat="59.0762114525" lon="30.0268149376"><time>2026-04-25T13:08:10Z</time></trkpt><trkpt lat="59.0761685371" lon="30.0268578529"><time>2026-04-25T13:08:13Z</time></trkpt><trkpt lat="59.0761470795" lon="30.0268363953"><time>2026-04-25T13:08:15Z</time></trkpt><trkpt lat="59.0761256218" lon="30.0268363953"><time>2026-04-25T13:08:18Z</time></trkpt><trkpt lat="59.0761470795" lon="30.0269436836"><time>2026-04-25T13:08:20Z</time></trkpt><trkpt lat="59.0761256218" lon="30.0269436836"><time>2026-04-25T13:08:23Z</time></trkpt><trkpt lat="59.0761041641" lon="30.0269007683"><time>2026-04-25T13:08:25Z</time></trkpt><trkpt lat="59.0760827065" lon="30.0268578529"><time>2026-04-25T13:08:28Z</time></trkpt><trkpt lat="59.0760827065" lon="30.0267934799"><time>2026-04-25T13:08:30Z</time></trkpt><trkpt lat="59.0760612488" lon="30.0267934799"><time>2026-04-25T13:08:33Z</time></trkpt><trkpt lat="59.0760183334" lon="30.0268578529"><time>2026-04-25T13:08:35Z</time></trkpt><trkpt lat="59.0759754181" lon="30.0268793106"><time>2026-04-25T13:08:38Z</time></trkpt><trkpt lat="59.0759754181" lon="30.0268793106"><time>2026-04-25T13:08:40Z</time></trkpt><trkpt lat="59.0759754181" lon="30.0268793106"><time>2026-04-25T13:08:43Z</time></trkpt><trkpt lat="59.0759754181" lon="30.0268578529"><time>2026-04-25T13:08:45Z</time></trkpt><trkpt lat="59.0759754181" lon="30.0268149376"><time>2026-04-25T13:08:48Z</time></trkpt><trkpt lat="59.0759325027" lon="30.0267505646"><time>2026-04-25T13:08:50Z</time></trkpt><trkpt lat="59.0759110451" lon="30.0267720222"><time>2026-04-25T13:08:53Z</time></trkpt><trkpt lat="59.0758895874" lon="30.0267720222"><time>2026-04-25T13:08:55Z</time></trkpt><trkpt lat="59.0758895874" lon="30.0267720222"><time>2026-04-25T13:08:58Z</time></trkpt><trkpt lat="59.0759325027" lon="30.0267505646"><time>2026-04-25T13:09:00Z</time></trkpt><trkpt lat="59.0759754181" lon="30.0267720222"><time>2026-04-25T13:09:03Z</time></trkpt><trkpt lat="59.0760183334" lon="30.0268149376"><time>2026-04-25T13:09:05Z</time></trkpt><trkpt lat="59.0760827065" lon="30.0269222260"><time>2026-04-25T13:09:08Z</time></trkpt><trkpt lat="59.0760612488" lon="30.0269865990"><time>2026-04-25T13:09:10Z</time></trkpt><trkpt lat="59.0760397911" lon="30.0270080566"><time>2026-04-25T13:09:13Z</time></trkpt><trkpt lat="59.0760397911" lon="30.0270509720"><time>2026-04-25T13:09:15Z</time></trkpt><trkpt lat="59.0760183334" lon="30.0270938873"><time>2026-04-25T13:09:18Z</time></trkpt><trkpt lat="59.0759968758" lon="30.0271153450"><time>2026-04-25T13:09:20Z</time></trkpt><trkpt lat="59.0759539604" lon="30.0271582603"><time>2026-04-25T13:09:23Z</time></trkpt><trkpt lat="59.0759539604" lon="30.0272440910"><time>2026-04-25T13:09:25Z</time></trkpt><trkpt lat="59.0759325027" lon="30.0273299217"><time>2026-04-25T13:09:28Z</time></trkpt><trkpt lat="59.0759110451" lon="30.0274157524"><time>2026-04-25T13:09:30Z</time></trkpt><trkpt lat="59.0758895874" lon="30.0274372101"><time>2026-04-25T13:09:33Z</time></trkpt><trkpt lat="59.0758895874" lon="30.0273942947"><time>2026-04-25T13:09:35Z</time></trkpt><trkpt lat="59.0758895874" lon="30.0273299217"><time>2026-04-25T13:09:38Z</time></trkpt><trkpt lat="59.0758466721" lon="30.0272655487"><time>2026-04-25T13:09:40Z</time></trkpt><trkpt lat="59.0758252144" lon="30.0272870064"><time>2026-04-25T13:09:43Z</time></trkpt><trkpt lat="59.0758037567" lon="30.0274157524"><time>2026-04-25T13:09:45Z</time></trkpt><trkpt lat="59.0758037567" lon="30.0274586678"><time>2026-04-25T13:09:48Z</time></trkpt><trkpt lat="59.0758252144" lon="30.0273513794"><time>2026-04-25T13:09:50Z</time></trkpt><trkpt lat="59.0758252144" lon="30.0272440910"><time>2026-04-25T13:09:53Z</time></trkpt><trkpt lat="59.0758037567" lon="30.0271368027"><time>2026-04-25T13:09:55Z</time></trkpt><trkpt lat="59.0757608414" lon="30.0271153450"><time>2026-04-25T13:09:58Z</time></trkpt><trkpt lat="59.0757179260" lon="30.0271153450"><time>2026-04-25T13:10:00Z</time></trkpt><trkpt lat="59.0756750107" lon="30.0271153450"><time>2026-04-25T13:10:03Z</time></trkpt><trkpt lat="59.0756320953" lon="30.0270509720"><time>2026-04-25T13:10:05Z</time></trkpt><trkpt lat="59.0756320953" lon="30.0269651413"><time>2026-04-25T13:10:08Z</time></trkpt><trkpt lat="59.0756320953" lon="30.0268793106"><time>2026-04-25T13:10:10Z</time></trkpt><trkpt lat="59.0755891800" lon="30.0268363953"><time>2026-04-25T13:10:13Z</time></trkpt><trkpt lat="59.0755248070" lon="30.0268149376"><time>2026-04-25T13:10:15Z</time></trkpt><trkpt lat="59.0754818916" lon="30.0268363953"><time>2026-04-25T13:10:18Z</time></trkpt><trkpt lat="59.0754604340" lon="30.0267934799"><time>2026-04-25T13:10:20Z</time></trkpt><trkpt lat="59.0754604340" lon="30.0267291069"><time>2026-04-25T13:10:23Z</time></trkpt><trkpt lat="59.0754389763" lon="30.0266432762"><time>2026-04-25T13:10:25Z</time></trkpt><trkpt lat="59.0754389763" lon="30.0265789032"><time>2026-04-25T13:10:28Z</time></trkpt><trkpt lat="59.0754175186" lon="30.0265145302"><time>2026-04-25T13:10:30Z</time></trkpt><trkpt lat="59.0753746033" lon="30.0264716148"><time>2026-04-25T13:10:33Z</time></trkpt><trkpt lat="59.0753531456" lon="30.0263857841"><time>2026-04-25T13:10:35Z</time></trkpt><trkpt lat="59.0753102303" lon="30.0263428688"><time>2026-04-25T13:10:38Z</time></trkpt><trkpt lat="59.0752458572" lon="30.0263428688"><time>2026-04-25T13:10:40Z</time></trkpt><trkpt lat="59.0752029419" lon="30.0263214111"><time>2026-04-25T13:10:43Z</time></trkpt><trkpt lat="59.0751385689" lon="30.0263428688"><time>2026-04-25T13:10:45Z</time></trkpt><trkpt lat="59.0750741959" lon="30.0263857841"><time>2026-04-25T13:10:48Z</time></trkpt><trkpt lat="59.0750527382" lon="30.0264072418"><time>2026-04-25T13:10:50Z</time></trkpt><trkpt lat="59.0750741959" lon="30.0263428688"><time>2026-04-25T13:10:53Z</time></trkpt><trkpt lat="59.0750741959" lon="30.0262570381"><time>2026-04-25T13:10:55Z</time></trkpt><trkpt lat="59.0750527382" lon="30.0261497498"><time>2026-04-25T13:10:58Z</time></trkpt><trkpt lat="59.0750098228" lon="30.0261068344"><time>2026-04-25T13:11:00Z</time></trkpt><trkpt lat="59.0749669075" lon="30.0260853767"><time>2026-04-25T13:11:03Z</time></trkpt><trkpt lat="59.0749025345" lon="30.0260210037"><time>2026-04-25T13:11:05Z</time></trkpt><trkpt lat="59.0748810768" lon="30.0259566307"><time>2026-04-25T13:11:08Z</time></trkpt><trkpt lat="59.0748596191" lon="30.0258708000"><time>2026-04-25T13:11:10Z</time></trkpt><trkpt lat="59.0748381615" lon="30.0258278847"><time>2026-04-25T13:11:13Z</time></trkpt><trkpt lat="59.0748381615" lon="30.0257420540"><time>2026-04-25T13:11:15Z</time></trkpt><trkpt lat="59.0748167038" lon="30.0256991386"><time>2026-04-25T13:11:18Z</time></trkpt><trkpt lat="59.0747737885" lon="30.0256991386"><time>2026-04-25T13:11:20Z</time></trkpt><trkpt lat="59.0747952461" lon="30.0256991386"><time>2026-04-25T13:11:23Z</time></trkpt><trkpt lat="59.0748381615" lon="30.0257205963"><time>2026-04-25T13:11:25Z</time></trkpt><trkpt lat="59.0749025345" lon="30.0257849693"><time>2026-04-25T13:11:28Z</time></trkpt><trkpt lat="59.0749454498" lon="30.0259137154"><time>2026-04-25T13:11:30Z</time></trkpt><trkpt lat="59.0749669075" lon="30.0259995461"><time>2026-04-25T13:11:33Z</time></trkpt><trkpt lat="59.0749883652" lon="30.0260424614"><time>2026-04-25T13:11:35Z</time></trkpt><trkpt lat="59.0750098228" lon="30.0260210037"><time>2026-04-25T13:11:38Z</time></trkpt><trkpt lat="59.0750527382" lon="30.0260853767"><time>2026-04-25T13:11:40Z</time></trkpt><trkpt lat="59.0751171112" lon="30.0261926651"><time>2026-04-25T13:11:43Z</time></trkpt><trkpt lat="59.0751385689" lon="30.0263214111"><time>2026-04-25T13:11:45Z</time></trkpt><trkpt lat="59.0751385689" lon="30.0264501572"><time>2026-04-25T13:11:48Z</time></trkpt><trkpt lat="59.0751814842" lon="30.0265359879"><time>2026-04-25T13:11:50Z</time></trkpt><trkpt lat="59.0752029419" lon="30.0265574455"><time>2026-04-25T13:11:53Z</time></trkpt><trkpt lat="59.0752887726" lon="30.0266003609"><time>2026-04-25T13:11:55Z</time></trkpt><trkpt lat="59.0753531456" lon="30.0267076492"><time>2026-04-25T13:11:58Z</time></trkpt><trkpt lat="59.0754175186" lon="30.0267505646"><time>2026-04-25T13:12:00Z</time></trkpt><trkpt lat="59.0754175186" lon="30.0267505646"><time>2026-04-25T13:12:03Z</time></trkpt><trkpt lat="59.0754389763" lon="30.0267505646"><time>2026-04-25T13:12:05Z</time></trkpt><trkpt lat="59.0754818916" lon="30.0267720222"><time>2026-04-25T13:12:08Z</time></trkpt><trkpt lat="59.0755462646" lon="30.0269007683"><time>2026-04-25T13:12:10Z</time></trkpt><trkpt lat="59.0755677223" lon="30.0270080566"><time>2026-04-25T13:12:13Z</time></trkpt><trkpt lat="59.0755891800" lon="30.0270724297"><time>2026-04-25T13:12:15Z</time></trkpt><trkpt lat="59.0756320953" lon="30.0271368027"><time>2026-04-25T13:12:18Z</time></trkpt><trkpt lat="59.0757179260" lon="30.0271582603"><time>2026-04-25T13:12:20Z</time></trkpt><trkpt lat="59.0757822990" lon="30.0272011757"><time>2026-04-25T13:12:23Z</time></trkpt><trkpt lat="59.0758252144" lon="30.0272440910"><time>2026-04-25T13:12:25Z</time></trkpt><trkpt lat="59.0758681297" lon="30.0273299217"><time>2026-04-25T13:12:28Z</time></trkpt><trkpt lat="59.0759110451" lon="30.0275015831"><time>2026-04-25T13:12:30Z</time></trkpt><trkpt lat="59.0759325027" lon="30.0276303291"><time>2026-04-25T13:12:33Z</time></trkpt><trkpt lat="59.0759110451" lon="30.0276947021"><time>2026-04-25T13:12:35Z</time></trkpt><trkpt lat="59.0758895874" lon="30.0277590752"><time>2026-04-25T13:12:38Z</time></trkpt><trkpt lat="59.0758895874" lon="30.0277590752"><time>2026-04-25T13:12:40Z</time></trkpt><trkpt lat="59.0758895874" lon="30.0277805328"><time>2026-04-25T13:12:43Z</time></trkpt><trkpt lat="59.0758895874" lon="30.0278449059"><time>2026-04-25T13:12:45Z</time></trkpt><trkpt lat="59.0758895874" lon="30.0278878212"><time>2026-04-25T13:12:48Z</time></trkpt><trkpt lat="59.0758895874" lon="30.0279307365"><time>2026-04-25T13:12:50Z</time></trkpt><trkpt lat="59.0758895874" lon="30.0279307365"><time>2026-04-25T13:12:53Z</time></trkpt><trkpt lat="59.0758895874" lon="30.0279092789"><time>2026-04-25T13:12:55Z</time></trkpt><trkpt lat="59.0758895874" lon="30.0278878212"><time>2026-04-25T13:12:58Z</time></trkpt><trkpt lat="59.0758895874" lon="30.0278449059"><time>2026-04-25T13:13:00Z</time></trkpt><trkpt lat="59.0758895874" lon="30.0278449059"><time>2026-04-25T13:13:03Z</time></trkpt><trkpt lat="59.0758681297" lon="30.0278878212"><time>2026-04-25T13:13:05Z</time></trkpt><trkpt lat="59.0758895874" lon="30.0279092789"><time>2026-04-25T13:13:08Z</time></trkpt><trkpt lat="59.0758681297" lon="30.0279092789"><time>2026-04-25T13:13:10Z</time></trkpt><trkpt lat="59.0758681297" lon="30.0279092789"><time>2026-04-25T13:13:13Z</time></trkpt><trkpt lat="59.0758681297" lon="30.0279092789"><time>2026-04-25T13:13:15Z</time></trkpt><trkpt lat="59.0758681297" lon="30.0279521942"><time>2026-04-25T13:13:18Z</time></trkpt><trkpt lat="59.0758895874" lon="30.0280165672"><time>2026-04-25T13:13:20Z</time></trkpt><trkpt lat="59.0758895874" lon="30.0280380249"><time>2026-04-25T13:13:23Z</time></trkpt><trkpt lat="59.0758895874" lon="30.0280809402"><time>2026-04-25T13:13:25Z</time></trkpt><trkpt lat="59.0758895874" lon="30.0280594826"><time>2026-04-25T13:13:28Z</time></trkpt><trkpt lat="59.0758466721" lon="30.0280380249"><time>2026-04-25T13:13:30Z</time></trkpt><trkpt lat="59.0758466721" lon="30.0280380249"><time>2026-04-25T13:13:33Z</time></trkpt><trkpt lat="59.0758252144" lon="30.0280594826"><time>2026-04-25T13:13:35Z</time></trkpt><trkpt lat="59.0758037567" lon="30.0280809402"><time>2026-04-25T13:13:38Z</time></trkpt><trkpt lat="59.0757822990" lon="30.0280809402"><time>2026-04-25T13:13:40Z</time></trkpt><trkpt lat="59.0757608414" lon="30.0280594826"><time>2026-04-25T13:13:43Z</time></trkpt><trkpt lat="59.0757608414" lon="30.0280594826"><time>2026-04-25T13:13:45Z</time></trkpt><trkpt lat="59.0757393837" lon="30.0280594826"><time>2026-04-25T13:13:48Z</time></trkpt><trkpt lat="59.0757393837" lon="30.0280594826"><time>2026-04-25T13:13:50Z</time></trkpt><trkpt lat="59.0757179260" lon="30.0280594826"><time>2026-04-25T13:13:53Z</time></trkpt><trkpt lat="59.0756964684" lon="30.0280594826"><time>2026-04-25T13:13:55Z</time></trkpt><trkpt lat="59.0756750107" lon="30.0280809402"><time>2026-04-25T13:13:58Z</time></trkpt><trkpt lat="59.0756750107" lon="30.0281023979"><time>2026-04-25T13:14:00Z</time></trkpt><trkpt lat="59.0756750107" lon="30.0281238556"><time>2026-04-25T13:14:03Z</time></trkpt><trkpt lat="59.0756750107" lon="30.0281238556"><time>2026-04-25T13:14:05Z</time></trkpt><trkpt lat="59.0756750107" lon="30.0281453133"><time>2026-04-25T13:14:08Z</time></trkpt><trkpt lat="59.0756750107" lon="30.0281453133"><time>2026-04-25T13:14:10Z</time></trkpt><trkpt lat="59.0756750107" lon="30.0281667709"><time>2026-04-25T13:14:13Z</time></trkpt><trkpt lat="59.0756964684" lon="30.0281882286"><time>2026-04-25T13:14:15Z</time></trkpt><trkpt lat="59.0756964684" lon="30.0282096863"><time>2026-04-25T13:14:18Z</time></trkpt><trkpt lat="59.0757179260" lon="30.0282096863"><time>2026-04-25T13:14:20Z</time></trkpt><trkpt lat="59.0757179260" lon="30.0281882286"><time>2026-04-25T13:14:23Z</time></trkpt><trkpt lat="59.0757393837" lon="30.0281667709"><time>2026-04-25T13:14:25Z</time></trkpt><trkpt lat="59.0757608414" lon="30.0281453133"><time>2026-04-25T13:14:28Z</time></trkpt><trkpt lat="59.0757608414" lon="30.0281667709"><time>2026-04-25T13:14:30Z</time></trkpt><trkpt lat="59.0757393837" lon="30.0281667709"><time>2026-04-25T13:14:33Z</time></trkpt><trkpt lat="59.0757393837" lon="30.0281667709"><time>2026-04-25T13:14:35Z</time></trkpt><trkpt lat="59.0757393837" lon="30.0281882286"><time>2026-04-25T13:14:38Z</time></trkpt><trkpt lat="59.0757179260" lon="30.0281882286"><time>2026-04-25T13:14:40Z</time></trkpt><trkpt lat="59.0757179260" lon="30.0282096863"><time>2026-04-25T13:14:43Z</time></trkpt><trkpt lat="59.0757179260" lon="30.0282096863"><time>2026-04-25T13:14:45Z</time></trkpt><trkpt lat="59.0757179260" lon="30.0282096863"><time>2026-04-25T13:14:48Z</time></trkpt><trkpt lat="59.0757179260" lon="30.0282096863"><time>2026-04-25T13:14:50Z</time></trkpt><trkpt lat="59.0757179260" lon="30.0282096863"><time>2026-04-25T13:14:53Z</time></trkpt><trkpt lat="59.0757179260" lon="30.0282096863"><time>2026-04-25T13:14:55Z</time></trkpt><trkpt lat="59.0757179260" lon="30.0282096863"><time>2026-04-25T13:14:58Z</time></trkpt><trkpt lat="59.0757179260" lon="30.0282096863"><time>2026-04-25T13:15:00Z</time></trkpt><trkpt lat="59.0757179260" lon="30.0282096863"><time>2026-04-25T13:15:03Z</time></trkpt><trkpt lat="59.0757179260" lon="30.0282311440"><time>2026-04-25T13:15:05Z</time></trkpt><trkpt lat="59.0757179260" lon="30.0282740593"><time>2026-04-25T13:15:08Z</time></trkpt><trkpt lat="59.0757179260" lon="30.0282955170"><time>2026-04-25T13:15:10Z</time></trkpt><trkpt lat="59.0757179260" lon="30.0283169746"><time>2026-04-25T13:15:13Z</time></trkpt><trkpt lat="59.0757179260" lon="30.0283384323"><time>2026-04-25T13:15:15Z</time></trkpt><trkpt lat="59.0757179260" lon="30.0283384323"><time>2026-04-25T13:15:18Z</time></trkpt><trkpt lat="59.0757179260" lon="30.0283384323"><time>2026-04-25T13:15:20Z</time></trkpt><trkpt lat="59.0757179260" lon="30.0283384323"><time>2026-04-25T13:15:23Z</time></trkpt><trkpt lat="59.0757179260" lon="30.0283169746"><time>2026-04-25T13:15:25Z</time></trkpt><trkpt lat="59.0756964684" lon="30.0282311440"><time>2026-04-25T13:15:28Z</time></trkpt><trkpt lat="59.0756964684" lon="30.0281882286"><time>2026-04-25T13:15:30Z</time></trkpt><trkpt lat="59.0756964684" lon="30.0281667709"><time>2026-04-25T13:15:33Z</time></trkpt><trkpt lat="59.0756750107" lon="30.0281453133"><time>2026-04-25T13:15:35Z</time></trkpt><trkpt lat="59.0756750107" lon="30.0281453133"><time>2026-04-25T13:15:38Z</time></trkpt><trkpt lat="59.0756750107" lon="30.0281453133"><time>2026-04-25T13:15:40Z</time></trkpt><trkpt lat="59.0756750107" lon="30.0281238556"><time>2026-04-25T13:15:43Z</time></trkpt><trkpt lat="59.0756750107" lon="30.0281023979"><time>2026-04-25T13:15:45Z</time></trkpt><trkpt lat="59.0756750107" lon="30.0280809402"><time>2026-04-25T13:15:48Z</time></trkpt><trkpt lat="59.0756535530" lon="30.0280809402"><time>2026-04-25T13:15:50Z</time></trkpt><trkpt lat="59.0756535530" lon="30.0280594826"><time>2026-04-25T13:15:53Z</time></trkpt><trkpt lat="59.0756535530" lon="30.0280594826"><time>2026-04-25T13:15:55Z</time></trkpt><trkpt lat="59.0756535530" lon="30.0280594826"><time>2026-04-25T13:15:58Z</time></trkpt><trkpt lat="59.0756320953" lon="30.0280594826"><time>2026-04-25T13:16:00Z</time></trkpt><trkpt lat="59.0756106377" lon="30.0280594826"><time>2026-04-25T13:16:03Z</time></trkpt><trkpt lat="59.0756106377" lon="30.0280380249"><time>2026-04-25T13:16:05Z</time></trkpt><trkpt lat="59.0756106377" lon="30.0279951096"><time>2026-04-25T13:16:08Z</time></trkpt><trkpt lat="59.0755891800" lon="30.0279736519"><time>2026-04-25T13:16:10Z</time></trkpt><trkpt lat="59.0755891800" lon="30.0279736519"><time>2026-04-25T13:16:13Z</time></trkpt><trkpt lat="59.0755677223" lon="30.0279521942"><time>2026-04-25T13:16:15Z</time></trkpt><trkpt lat="59.0755462646" lon="30.0279736519"><time>2026-04-25T13:16:18Z</time></trkpt><trkpt lat="59.0755033493" lon="30.0280380249"><time>2026-04-25T13:16:20Z</time></trkpt><trkpt lat="59.0755033493" lon="30.0280165672"><time>2026-04-25T13:16:23Z</time></trkpt><trkpt lat="59.0754818916" lon="30.0279307365"><time>2026-04-25T13:16:25Z</time></trkpt><trkpt lat="59.0754818916" lon="30.0278878212"><time>2026-04-25T13:16:28Z</time></trkpt><trkpt lat="59.0754818916" lon="30.0278449059"><time>2026-04-25T13:16:30Z</time></trkpt><trkpt lat="59.0754818916" lon="30.0277590752"><time>2026-04-25T13:16:33Z</time></trkpt><trkpt lat="59.0755033493" lon="30.0276732445"><time>2026-04-25T13:16:35Z</time></trkpt><trkpt lat="59.0755248070" lon="30.0276303291"><time>2026-04-25T13:16:38Z</time></trkpt><trkpt lat="59.0755248070" lon="30.0276088715"><time>2026-04-25T13:16:40Z</time></trkpt><trkpt lat="59.0755033493" lon="30.0276303291"><time>2026-04-25T13:16:43Z</time></trkpt><trkpt lat="59.0754818916" lon="30.0276732445"><time>2026-04-25T13:16:45Z</time></trkpt><trkpt lat="59.0754818916" lon="30.0276732445"><time>2026-04-25T13:16:48Z</time></trkpt><trkpt lat="59.0754818916" lon="30.0276732445"><time>2026-04-25T13:16:50Z</time></trkpt><trkpt lat="59.0754604340" lon="30.0276947021"><time>2026-04-25T13:16:53Z</time></trkpt><trkpt lat="59.0754389763" lon="30.0277376175"><time>2026-04-25T13:16:55Z</time></trkpt><trkpt lat="59.0754389763" lon="30.0277376175"><time>2026-04-25T13:16:58Z</time></trkpt><trkpt lat="59.0754604340" lon="30.0276947021"><time>2026-04-25T13:17:00Z</time></trkpt><trkpt lat="59.0754604340" lon="30.0276947021"><time>2026-04-25T13:17:03Z</time></trkpt><trkpt lat="59.0754604340" lon="30.0276947021"><time>2026-04-25T13:17:05Z</time></trkpt><trkpt lat="59.0754604340" lon="30.0276947021"><time>2026-04-25T13:17:08Z</time></trkpt><trkpt lat="59.0754818916" lon="30.0276517868"><time>2026-04-25T13:17:10Z</time></trkpt><trkpt lat="59.0755033493" lon="30.0275230408"><time>2026-04-25T13:17:13Z</time></trkpt><trkpt lat="59.0755033493" lon="30.0274157524"><time>2026-04-25T13:17:15Z</time></trkpt><trkpt lat="59.0755033493" lon="30.0273513794"><time>2026-04-25T13:17:18Z</time></trkpt><trkpt lat="59.0755033493" lon="30.0273299217"><time>2026-04-25T13:17:20Z</time></trkpt><trkpt lat="59.0755033493" lon="30.0272655487"><time>2026-04-25T13:17:23Z</time></trkpt><trkpt lat="59.0755033493" lon="30.0271797180"><time>2026-04-25T13:17:25Z</time></trkpt><trkpt lat="59.0755033493" lon="30.0271582603"><time>2026-04-25T13:17:28Z</time></trkpt><trkpt lat="59.0755033493" lon="30.0271368027"><time>2026-04-25T13:17:30Z</time></trkpt><trkpt lat="59.0755462646" lon="30.0270724297"><time>2026-04-25T13:17:33Z</time></trkpt><trkpt lat="59.0755248070" lon="30.0270724297"><time>2026-04-25T13:17:35Z</time></trkpt><trkpt lat="59.0755033493" lon="30.0271153450"><time>2026-04-25T13:17:38Z</time></trkpt><trkpt lat="59.0755033493" lon="30.0271797180"><time>2026-04-25T13:17:40Z</time></trkpt><trkpt lat="59.0755033493" lon="30.0272440910"><time>2026-04-25T13:17:43Z</time></trkpt><trkpt lat="59.0755033493" lon="30.0273299217"><time>2026-04-25T13:17:45Z</time></trkpt><trkpt lat="59.0755033493" lon="30.0273513794"><time>2026-04-25T13:17:48Z</time></trkpt><trkpt lat="59.0755033493" lon="30.0273728371"><time>2026-04-25T13:17:50Z</time></trkpt><trkpt lat="59.0755033493" lon="30.0273942947"><time>2026-04-25T13:17:53Z</time></trkpt><trkpt lat="59.0754818916" lon="30.0274157524"><time>2026-04-25T13:17:55Z</time></trkpt><trkpt lat="59.0754818916" lon="30.0274372101"><time>2026-04-25T13:17:58Z</time></trkpt><trkpt lat="59.0754604340" lon="30.0274586678"><time>2026-04-25T13:18:00Z</time></trkpt><trkpt lat="59.0754604340" lon="30.0274586678"><time>2026-04-25T13:18:03Z</time></trkpt><trkpt lat="59.0754604340" lon="30.0274586678"><time>2026-04-25T13:18:05Z</time></trkpt><trkpt lat="59.0754604340" lon="30.0274586678"><time>2026-04-25T13:18:08Z</time></trkpt><trkpt lat="59.0754604340" lon="30.0274372101"><time>2026-04-25T13:18:10Z</time></trkpt><trkpt lat="59.0754604340" lon="30.0274372101"><time>2026-04-25T13:18:13Z</time></trkpt><trkpt lat="59.0754604340" lon="30.0274372101"><time>2026-04-25T13:18:15Z</time></trkpt><trkpt lat="59.0754604340" lon="30.0274372101"><time>2026-04-25T13:18:18Z</time></trkpt><trkpt lat="59.0754604340" lon="30.0274372101"><time>2026-04-25T13:18:20Z</time></trkpt><trkpt lat="59.0754604340" lon="30.0274372101"><time>2026-04-25T13:18:23Z</time></trkpt><trkpt lat="59.0754389763" lon="30.0274586678"><time>2026-04-25T13:18:25Z</time></trkpt><trkpt lat="59.0754389763" lon="30.0275444984"><time>2026-04-25T13:18:28Z</time></trkpt><trkpt lat="59.0754175186" lon="30.0276088715"><time>2026-04-25T13:18:30Z</time></trkpt><trkpt lat="59.0753960609" lon="30.0276947021"><time>2026-04-25T13:18:33Z</time></trkpt><trkpt lat="59.0753531456" lon="30.0277805328"><time>2026-04-25T13:18:35Z</time></trkpt><trkpt lat="59.0753102303" lon="30.0278449059"><time>2026-04-25T13:18:38Z</time></trkpt><trkpt lat="59.0752887726" lon="30.0278878212"><time>2026-04-25T13:18:40Z</time></trkpt><trkpt lat="59.0752887726" lon="30.0279521942"><time>2026-04-25T13:18:43Z</time></trkpt><trkpt lat="59.0752887726" lon="30.0280380249"><time>2026-04-25T13:18:45Z</time></trkpt><trkpt lat="59.0752887726" lon="30.0281238556"><time>2026-04-25T13:18:48Z</time></trkpt><trkpt lat="59.0752673149" lon="30.0281882286"><time>2026-04-25T13:18:50Z</time></trkpt><trkpt lat="59.0752458572" lon="30.0282740593"><time>2026-04-25T13:18:53Z</time></trkpt><trkpt lat="59.0752029419" lon="30.0283598900"><time>2026-04-25T13:18:55Z</time></trkpt><trkpt lat="59.0751814842" lon="30.0284028053"><time>2026-04-25T13:18:58Z</time></trkpt><trkpt lat="59.0751600266" lon="30.0284457207"><time>2026-04-25T13:19:00Z</time></trkpt><trkpt lat="59.0751814842" lon="30.0284242630"><time>2026-04-25T13:19:03Z</time></trkpt><trkpt lat="59.0752458572" lon="30.0283384323"><time>2026-04-25T13:19:05Z</time></trkpt><trkpt lat="59.0752887726" lon="30.0282955170"><time>2026-04-25T13:19:08Z</time></trkpt><trkpt lat="59.0753102303" lon="30.0282955170"><time>2026-04-25T13:19:10Z</time></trkpt><trkpt lat="59.0753316879" lon="30.0282955170"><time>2026-04-25T13:19:13Z</time></trkpt><trkpt lat="59.0753746033" lon="30.0283169746"><time>2026-04-25T13:19:15Z</time></trkpt><trkpt lat="59.0754389763" lon="30.0283598900"><time>2026-04-25T13:19:18Z</time></trkpt><trkpt lat="59.0754818916" lon="30.0283169746"><time>2026-04-25T13:19:20Z</time></trkpt><trkpt lat="59.0754818916" lon="30.0282311440"><time>2026-04-25T13:19:23Z</time></trkpt><trkpt lat="59.0755248070" lon="30.0281238556"><time>2026-04-25T13:19:25Z</time></trkpt><trkpt lat="59.0755677223" lon="30.0279736519"><time>2026-04-25T13:19:28Z</time></trkpt><trkpt lat="59.0755462646" lon="30.0279092789"><time>2026-04-25T13:19:30Z</time></trkpt><trkpt lat="59.0755462646" lon="30.0278663635"><time>2026-04-25T13:19:33Z</time></trkpt><trkpt lat="59.0755033493" lon="30.0278234482"><time>2026-04-25T13:19:35Z</time></trkpt><trkpt lat="59.0754818916" lon="30.0277805328"><time>2026-04-25T13:19:38Z</time></trkpt><trkpt lat="59.0754818916" lon="30.0277376175"><time>2026-04-25T13:19:40Z</time></trkpt><trkpt lat="59.0754604340" lon="30.0275444984"><time>2026-04-25T13:19:43Z</time></trkpt><trkpt lat="59.0754175186" lon="30.0275444984"><time>2026-04-25T13:19:45Z</time></trkpt><trkpt lat="59.0754175186" lon="30.0275659561"><time>2026-04-25T13:19:48Z</time></trkpt><trkpt lat="59.0754175186" lon="30.0275659561"><time>2026-04-25T13:19:50Z</time></trkpt><trkpt lat="59.0754175186" lon="30.0275659561"><time>2026-04-25T13:19:53Z</time></trkpt><trkpt lat="59.0754175186" lon="30.0275659561"><time>2026-04-25T13:19:55Z</time></trkpt><trkpt lat="59.0754175186" lon="30.0275659561"><time>2026-04-25T13:19:58Z</time></trkpt><trkpt lat="59.0753960609" lon="30.0275444984"><time>2026-04-25T13:20:00Z</time></trkpt><trkpt lat="59.0753960609" lon="30.0275444984"><time>2026-04-25T13:20:03Z</time></trkpt><trkpt lat="59.0753960609" lon="30.0275444984"><time>2026-04-25T13:20:05Z</time></trkpt><trkpt lat="59.0753960609" lon="30.0275444984"><time>2026-04-25T13:20:08Z</time></trkpt><trkpt lat="59.0753960609" lon="30.0275444984"><time>2026-04-25T13:20:10Z</time></trkpt><trkpt lat="59.0753960609" lon="30.0275444984"><time>2026-04-25T13:20:13Z</time></trkpt><trkpt lat="59.0753960609" lon="30.0275444984"><time>2026-04-25T13:20:15Z</time></trkpt><trkpt lat="59.0753960609" lon="30.0275444984"><time>2026-04-25T13:20:18Z</time></trkpt><trkpt lat="59.0753960609" lon="30.0275444984"><time>2026-04-25T13:20:20Z</time></trkpt><trkpt lat="59.0753960609" lon="30.0275444984"><time>2026-04-25T13:20:23Z</time></trkpt><trkpt lat="59.0753960609" lon="30.0275444984"><time>2026-04-25T13:20:25Z</time></trkpt><trkpt lat="59.0753960609" lon="30.0275444984"><time>2026-04-25T13:20:28Z</time></trkpt><trkpt lat="59.0753960609" lon="30.0275444984"><time>2026-04-25T13:20:30Z</time></trkpt><trkpt lat="59.0753960609" lon="30.0275444984"><time>2026-04-25T13:20:33Z</time></trkpt><trkpt lat="59.0753960609" lon="30.0275444984"><time>2026-04-25T13:20:35Z</time></trkpt><trkpt lat="59.0753960609" lon="30.0275444984"><time>2026-04-25T13:20:38Z</time></trkpt><trkpt lat="59.0753960609" lon="30.0275444984"><time>2026-04-25T13:20:40Z</time></trkpt><trkpt lat="59.0753960609" lon="30.0275444984"><time>2026-04-25T13:20:43Z</time></trkpt><trkpt lat="59.0753960609" lon="30.0275444984"><time>2026-04-25T13:20:45Z</time></trkpt><trkpt lat="59.0753960609" lon="30.0275444984"><time>2026-04-25T13:20:48Z</time></trkpt><trkpt lat="59.0753960609" lon="30.0275444984"><time>2026-04-25T13:20:50Z</time></trkpt><trkpt lat="59.0753960609" lon="30.0275444984"><time>2026-04-25T13:20:53Z</time></trkpt><trkpt lat="59.0753960609" lon="30.0275444984"><time>2026-04-25T13:20:55Z</time></trkpt><trkpt lat="59.0753960609" lon="30.0275659561"><time>2026-04-25T13:20:58Z</time></trkpt><trkpt lat="59.0753960609" lon="30.0275659561"><time>2026-04-25T13:21:00Z</time></trkpt><trkpt lat="59.0753960609" lon="30.0275659561"><time>2026-04-25T13:21:03Z</time></trkpt><trkpt lat="59.0753960609" lon="30.0275659561"><time>2026-04-25T13:21:05Z</time></trkpt><trkpt lat="59.0753960609" lon="30.0275659561"><time>2026-04-25T13:21:08Z</time></trkpt><trkpt lat="59.0753960609" lon="30.0275659561"><time>2026-04-25T13:21:10Z</time></trkpt><trkpt lat="59.0753960609" lon="30.0275659561"><time>2026-04-25T13:21:13Z</time></trkpt><trkpt lat="59.0753960609" lon="30.0275659561"><time>2026-04-25T13:21:15Z</time></trkpt><trkpt lat="59.0753960609" lon="30.0275659561"><time>2026-04-25T13:21:18Z</time></trkpt><trkpt lat="59.0753960609" lon="30.0275659561"><time>2026-04-25T13:21:20Z</time></trkpt><trkpt lat="59.0753960609" lon="30.0275659561"><time>2026-04-25T13:21:23Z</time></trkpt><trkpt lat="59.0753960609" lon="30.0275659561"><time>2026-04-25T13:21:25Z</time></trkpt><trkpt lat="59.0753960609" lon="30.0275659561"><time>2026-04-25T13:21:28Z</time></trkpt><trkpt lat="59.0753960609" lon="30.0275444984"><time>2026-04-25T13:21:30Z</time></trkpt><trkpt lat="59.0753746033" lon="30.0275230408"><time>2026-04-25T13:21:33Z</time></trkpt><trkpt lat="59.0753531456" lon="30.0275230408"><time>2026-04-25T13:21:35Z</time></trkpt><trkpt lat="59.0753531456" lon="30.0275230408"><time>2026-04-25T13:21:38Z</time></trkpt><trkpt lat="59.0753531456" lon="30.0275230408"><time>2026-04-25T13:21:40Z</time></trkpt><trkpt lat="59.0753531456" lon="30.0275230408"><time>2026-04-25T13:21:43Z</time></trkpt><trkpt lat="59.0753531456" lon="30.0275230408"><time>2026-04-25T13:21:45Z</time></trkpt><trkpt lat="59.0753531456" lon="30.0275230408"><time>2026-04-25T13:21:48Z</time></trkpt><trkpt lat="59.0753531456" lon="30.0275230408"><time>2026-04-25T13:21:50Z</time></trkpt><trkpt lat="59.0753531456" lon="30.0275230408"><time>2026-04-25T13:21:53Z</time></trkpt><trkpt lat="59.0753531456" lon="30.0275230408"><time>2026-04-25T13:21:55Z</time></trkpt><trkpt lat="59.0753531456" lon="30.0275015831"><time>2026-04-25T13:21:58Z</time></trkpt><trkpt lat="59.0753102303" lon="30.0275015831"><time>2026-04-25T13:22:00Z</time></trkpt><trkpt lat="59.0752673149" lon="30.0275230408"><time>2026-04-25T13:22:03Z</time></trkpt><trkpt lat="59.0752458572" lon="30.0275659561"><time>2026-04-25T13:22:05Z</time></trkpt><trkpt lat="59.0752243996" lon="30.0276088715"><time>2026-04-25T13:22:08Z</time></trkpt><trkpt lat="59.0752458572" lon="30.0276088715"><time>2026-04-25T13:22:10Z</time></trkpt><trkpt lat="59.0752458572" lon="30.0276088715"><time>2026-04-25T13:22:13Z</time></trkpt><trkpt lat="59.0752458572" lon="30.0276088715"><time>2026-04-25T13:22:15Z</time></trkpt><trkpt lat="59.0752458572" lon="30.0276088715"><time>2026-04-25T13:22:18Z</time></trkpt><trkpt lat="59.0752243996" lon="30.0276088715"><time>2026-04-25T13:22:20Z</time></trkpt><trkpt lat="59.0752243996" lon="30.0276088715"><time>2026-04-25T13:22:23Z</time></trkpt><trkpt lat="59.0752243996" lon="30.0276088715"><time>2026-04-25T13:22:25Z</time></trkpt><trkpt lat="59.0752243996" lon="30.0276088715"><time>2026-04-25T13:22:28Z</time></trkpt><trkpt lat="59.0752458572" lon="30.0275659561"><time>2026-04-25T13:22:30Z</time></trkpt><trkpt lat="59.0752673149" lon="30.0275230408"><time>2026-04-25T13:22:33Z</time></trkpt><trkpt lat="59.0752887726" lon="30.0274586678"><time>2026-04-25T13:22:35Z</time></trkpt><trkpt lat="59.0753102303" lon="30.0274157524"><time>2026-04-25T13:22:38Z</time></trkpt><trkpt lat="59.0753102303" lon="30.0273728371"><time>2026-04-25T13:22:40Z</time></trkpt><trkpt lat="59.0753316879" lon="30.0273728371"><time>2026-04-25T13:22:43Z</time></trkpt><trkpt lat="59.0753316879" lon="30.0274157524"><time>2026-04-25T13:22:45Z</time></trkpt><trkpt lat="59.0753316879" lon="30.0274372101"><time>2026-04-25T13:22:48Z</time></trkpt><trkpt lat="59.0753316879" lon="30.0274372101"><time>2026-04-25T13:22:50Z</time></trkpt><trkpt lat="59.0753316879" lon="30.0274372101"><time>2026-04-25T13:22:53Z</time></trkpt><trkpt lat="59.0753316879" lon="30.0274372101"><time>2026-04-25T13:22:55Z</time></trkpt><trkpt lat="59.0753316879" lon="30.0274372101"><time>2026-04-25T13:22:58Z</time></trkpt><trkpt lat="59.0753316879" lon="30.0274372101"><time>2026-04-25T13:23:00Z</time></trkpt><trkpt lat="59.0753316879" lon="30.0274372101"><time>2026-04-25T13:23:03Z</time></trkpt><trkpt lat="59.0753102303" lon="30.0274586678"><time>2026-04-25T13:23:05Z</time></trkpt><trkpt lat="59.0753102303" lon="30.0274801254"><time>2026-04-25T13:23:08Z</time></trkpt><trkpt lat="59.0753102303" lon="30.0275015831"><time>2026-04-25T13:23:10Z</time></trkpt><trkpt lat="59.0753102303" lon="30.0275230408"><time>2026-04-25T13:23:13Z</time></trkpt><trkpt lat="59.0753102303" lon="30.0275230408"><time>2026-04-25T13:23:15Z</time></trkpt><trkpt lat="59.0753102303" lon="30.0275230408"><time>2026-04-25T13:23:18Z</time></trkpt><trkpt lat="59.0753102303" lon="30.0275230408"><time>2026-04-25T13:23:20Z</time></trkpt><trkpt lat="59.0753102303" lon="30.0275230408"><time>2026-04-25T13:23:23Z</time></trkpt><trkpt lat="59.0753102303" lon="30.0275230408"><time>2026-04-25T13:23:25Z</time></trkpt><trkpt lat="59.0753102303" lon="30.0275230408"><time>2026-04-25T13:23:28Z</time></trkpt><trkpt lat="59.0753102303" lon="30.0275230408"><time>2026-04-25T13:23:30Z</time></trkpt><trkpt lat="59.0753102303" lon="30.0275230408"><time>2026-04-25T13:23:33Z</time></trkpt><trkpt lat="59.0753102303" lon="30.0275230408"><time>2026-04-25T13:23:35Z</time></trkpt><trkpt lat="59.0753102303" lon="30.0275230408"><time>2026-04-25T13:23:38Z</time></trkpt><trkpt lat="59.0753102303" lon="30.0275230408"><time>2026-04-25T13:23:40Z</time></trkpt><trkpt lat="59.0753102303" lon="30.0275230408"><time>2026-04-25T13:23:43Z</time></trkpt><trkpt lat="59.0753102303" lon="30.0275230408"><time>2026-04-25T13:23:45Z</time></trkpt><trkpt lat="59.0753102303" lon="30.0275230408"><time>2026-04-25T13:23:48Z</time></trkpt><trkpt lat="59.0753102303" lon="30.0275230408"><time>2026-04-25T13:23:50Z</time></trkpt><trkpt lat="59.0753102303" lon="30.0275230408"><time>2026-04-25T13:23:53Z</time></trkpt><trkpt lat="59.0753102303" lon="30.0275230408"><time>2026-04-25T13:23:55Z</time></trkpt><trkpt lat="59.0753102303" lon="30.0275230408"><time>2026-04-25T13:23:58Z</time></trkpt><trkpt lat="59.0753102303" lon="30.0275230408"><time>2026-04-25T13:24:00Z</time></trkpt><trkpt lat="59.0753102303" lon="30.0275230408"><time>2026-04-25T13:24:03Z</time></trkpt><trkpt lat="59.0753102303" lon="30.0275230408"><time>2026-04-25T13:24:05Z</time></trkpt><trkpt lat="59.0753102303" lon="30.0275230408"><time>2026-04-25T13:24:08Z</time></trkpt><trkpt lat="59.0753102303" lon="30.0275230408"><time>2026-04-25T13:24:10Z</time></trkpt><trkpt lat="59.0753102303" lon="30.0275230408"><time>2026-04-25T13:24:13Z</time></trkpt><trkpt lat="59.0753102303" lon="30.0275230408"><time>2026-04-25T13:24:15Z</time></trkpt><trkpt lat="59.0753102303" lon="30.0275230408"><time>2026-04-25T13:24:18Z</time></trkpt><trkpt lat="59.0753102303" lon="30.0275230408"><time>2026-04-25T13:24:20Z</time></trkpt><trkpt lat="59.0753102303" lon="30.0275230408"><time>2026-04-25T13:24:23Z</time></trkpt><trkpt lat="59.0753316879" lon="30.0275015831"><time>2026-04-25T13:24:25Z</time></trkpt><trkpt lat="59.0753102303" lon="30.0275015831"><time>2026-04-25T13:24:28Z</time></trkpt><trkpt lat="59.0753102303" lon="30.0275015831"><time>2026-04-25T13:24:30Z</time></trkpt><trkpt lat="59.0753316879" lon="30.0274801254"><time>2026-04-25T13:24:33Z</time></trkpt><trkpt lat="59.0753316879" lon="30.0274586678"><time>2026-04-25T13:24:35Z</time></trkpt><trkpt lat="59.0753102303" lon="30.0274801254"><time>2026-04-25T13:24:38Z</time></trkpt><trkpt lat="59.0753102303" lon="30.0274801254"><time>2026-04-25T13:24:40Z</time></trkpt><trkpt lat="59.0753102303" lon="30.0274801254"><time>2026-04-25T13:24:43Z</time></trkpt><trkpt lat="59.0753102303" lon="30.0274801254"><time>2026-04-25T13:24:45Z</time></trkpt><trkpt lat="59.0753102303" lon="30.0274801254"><time>2026-04-25T13:24:48Z</time></trkpt><trkpt lat="59.0753102303" lon="30.0274801254"><time>2026-04-25T13:24:50Z</time></trkpt><trkpt lat="59.0753102303" lon="30.0274801254"><time>2026-04-25T13:24:53Z</time></trkpt><trkpt lat="59.0753102303" lon="30.0274801254"><time>2026-04-25T13:24:55Z</time></trkpt><trkpt lat="59.0753102303" lon="30.0274801254"><time>2026-04-25T13:24:58Z</time></trkpt><trkpt lat="59.0753102303" lon="30.0274801254"><time>2026-04-25T13:25:00Z</time></trkpt><trkpt lat="59.0753102303" lon="30.0275015831"><time>2026-04-25T13:25:03Z</time></trkpt><trkpt lat="59.0752887726" lon="30.0275015831"><time>2026-04-25T13:25:05Z</time></trkpt><trkpt lat="59.0753102303" lon="30.0275015831"><time>2026-04-25T13:25:08Z</time></trkpt><trkpt lat="59.0752887726" lon="30.0275015831"><time>2026-04-25T13:25:10Z</time></trkpt><trkpt lat="59.0752887726" lon="30.0275015831"><time>2026-04-25T13:25:13Z</time></trkpt><trkpt lat="59.0752673149" lon="30.0275015831"><time>2026-04-25T13:25:15Z</time></trkpt><trkpt lat="59.0752673149" lon="30.0274801254"><time>2026-04-25T13:25:18Z</time></trkpt><trkpt lat="59.0752458572" lon="30.0274801254"><time>2026-04-25T13:25:20Z</time></trkpt><trkpt lat="59.0752458572" lon="30.0274801254"><time>2026-04-25T13:25:23Z</time></trkpt><trkpt lat="59.0752458572" lon="30.0274801254"><time>2026-04-25T13:25:25Z</time></trkpt><trkpt lat="59.0752458572" lon="30.0274801254"><time>2026-04-25T13:25:28Z</time></trkpt><trkpt lat="59.0752458572" lon="30.0274801254"><time>2026-04-25T13:25:30Z</time></trkpt><trkpt lat="59.0752458572" lon="30.0274801254"><time>2026-04-25T13:25:33Z</time></trkpt><trkpt lat="59.0752458572" lon="30.0274801254"><time>2026-04-25T13:25:35Z</time></trkpt><trkpt lat="59.0752458572" lon="30.0274801254"><time>2026-04-25T13:25:38Z</time></trkpt><trkpt lat="59.0752458572" lon="30.0274801254"><time>2026-04-25T13:25:40Z</time></trkpt><trkpt lat="59.0752458572" lon="30.0274801254"><time>2026-04-25T13:25:43Z</time></trkpt><trkpt lat="59.0752458572" lon="30.0274801254"><time>2026-04-25T13:25:45Z</time></trkpt><trkpt lat="59.0752458572" lon="30.0274801254"><time>2026-04-25T13:25:48Z</time></trkpt><trkpt lat="59.0752458572" lon="30.0274801254"><time>2026-04-25T13:25:50Z</time></trkpt><trkpt lat="59.0752458572" lon="30.0274801254"><time>2026-04-25T13:25:53Z</time></trkpt><trkpt lat="59.0752458572" lon="30.0274801254"><time>2026-04-25T13:25:55Z</time></trkpt><trkpt lat="59.0752458572" lon="30.0274801254"><time>2026-04-25T13:25:58Z</time></trkpt><trkpt lat="59.0752458572" lon="30.0274801254"><time>2026-04-25T13:26:00Z</time></trkpt><trkpt lat="59.0752458572" lon="30.0274801254"><time>2026-04-25T13:26:03Z</time></trkpt><trkpt lat="59.0752673149" lon="30.0274801254"><time>2026-04-25T13:26:05Z</time></trkpt><trkpt lat="59.0752673149" lon="30.0274801254"><time>2026-04-25T13:26:08Z</time></trkpt><trkpt lat="59.0752458572" lon="30.0274801254"><time>2026-04-25T13:26:10Z</time></trkpt><trkpt lat="59.0752243996" lon="30.0275015831"><time>2026-04-25T13:26:13Z</time></trkpt><trkpt lat="59.0752243996" lon="30.0275015831"><time>2026-04-25T13:26:15Z</time></trkpt><trkpt lat="59.0752029419" lon="30.0275015831"><time>2026-04-25T13:26:18Z</time></trkpt><trkpt lat="59.0752029419" lon="30.0275015831"><time>2026-04-25T13:26:20Z</time></trkpt><trkpt lat="59.0751600266" lon="30.0274801254"><time>2026-04-25T13:26:23Z</time></trkpt><trkpt lat="59.0751385689" lon="30.0274372101"><time>2026-04-25T13:26:25Z</time></trkpt><trkpt lat="59.0751171112" lon="30.0273942947"><time>2026-04-25T13:26:28Z</time></trkpt><trkpt lat="59.0751171112" lon="30.0274586678"><time>2026-04-25T13:26:30Z</time></trkpt><trkpt lat="59.0751171112" lon="30.0275230408"><time>2026-04-25T13:26:33Z</time></trkpt><trkpt lat="59.0750956535" lon="30.0275444984"><time>2026-04-25T13:26:35Z</time></trkpt><trkpt lat="59.0750956535" lon="30.0275444984"><time>2026-04-25T13:26:38Z</time></trkpt><trkpt lat="59.0750956535" lon="30.0275444984"><time>2026-04-25T13:26:40Z</time></trkpt><trkpt lat="59.0751171112" lon="30.0275874138"><time>2026-04-25T13:26:43Z</time></trkpt><trkpt lat="59.0751171112" lon="30.0276517868"><time>2026-04-25T13:26:45Z</time></trkpt><trkpt lat="59.0750956535" lon="30.0277161598"><time>2026-04-25T13:26:48Z</time></trkpt><trkpt lat="59.0750741959" lon="30.0277805328"><time>2026-04-25T13:26:50Z</time></trkpt><trkpt lat="59.0750741959" lon="30.0278234482"><time>2026-04-25T13:26:53Z</time></trkpt><trkpt lat="59.0750741959" lon="30.0278019905"><time>2026-04-25T13:26:55Z</time></trkpt><trkpt lat="59.0750741959" lon="30.0278234482"><time>2026-04-25T13:26:58Z</time></trkpt><trkpt lat="59.0750741959" lon="30.0278449059"><time>2026-04-25T13:27:00Z</time></trkpt><trkpt lat="59.0750741959" lon="30.0278878212"><time>2026-04-25T13:27:03Z</time></trkpt><trkpt lat="59.0750741959" lon="30.0279092789"><time>2026-04-25T13:27:05Z</time></trkpt><trkpt lat="59.0750741959" lon="30.0279092789"><time>2026-04-25T13:27:08Z</time></trkpt><trkpt lat="59.0750741959" lon="30.0279092789"><time>2026-04-25T13:27:10Z</time></trkpt><trkpt lat="59.0750527382" lon="30.0279092789"><time>2026-04-25T13:27:13Z</time></trkpt><trkpt lat="59.0750312805" lon="30.0279521942"><time>2026-04-25T13:27:15Z</time></trkpt><trkpt lat="59.0750312805" lon="30.0280165672"><time>2026-04-25T13:27:18Z</time></trkpt><trkpt lat="59.0750527382" lon="30.0280809402"><time>2026-04-25T13:27:20Z</time></trkpt><trkpt lat="59.0750741959" lon="30.0281453133"><time>2026-04-25T13:27:23Z</time></trkpt><trkpt lat="59.0750527382" lon="30.0282096863"><time>2026-04-25T13:27:25Z</time></trkpt><trkpt lat="59.0750527382" lon="30.0282096863"><time>2026-04-25T13:27:28Z</time></trkpt><trkpt lat="59.0750527382" lon="30.0282096863"><time>2026-04-25T13:27:30Z</time></trkpt><trkpt lat="59.0750741959" lon="30.0281667709"><time>2026-04-25T13:27:33Z</time></trkpt><trkpt lat="59.0750956535" lon="30.0281882286"><time>2026-04-25T13:27:35Z</time></trkpt><trkpt lat="59.0751171112" lon="30.0282740593"><time>2026-04-25T13:27:38Z</time></trkpt><trkpt lat="59.0751171112" lon="30.0283169746"><time>2026-04-25T13:27:40Z</time></trkpt><trkpt lat="59.0751171112" lon="30.0282955170"><time>2026-04-25T13:27:43Z</time></trkpt><trkpt lat="59.0751385689" lon="30.0282740593"><time>2026-04-25T13:27:45Z</time></trkpt><trkpt lat="59.0751385689" lon="30.0282526016"><time>2026-04-25T13:27:48Z</time></trkpt><trkpt lat="59.0751600266" lon="30.0282526016"><time>2026-04-25T13:27:50Z</time></trkpt><trkpt lat="59.0751600266" lon="30.0282311440"><time>2026-04-25T13:27:53Z</time></trkpt><trkpt lat="59.0751600266" lon="30.0282311440"><time>2026-04-25T13:27:55Z</time></trkpt><trkpt lat="59.0751600266" lon="30.0282740593"><time>2026-04-25T13:27:58Z</time></trkpt><trkpt lat="59.0751600266" lon="30.0282740593"><time>2026-04-25T13:28:00Z</time></trkpt><trkpt lat="59.0751814842" lon="30.0283169746"><time>2026-04-25T13:28:03Z</time></trkpt><trkpt lat="59.0752029419" lon="30.0283169746"><time>2026-04-25T13:28:05Z</time></trkpt><trkpt lat="59.0752029419" lon="30.0283598900"><time>2026-04-25T13:28:08Z</time></trkpt><trkpt lat="59.0752243996" lon="30.0284242630"><time>2026-04-25T13:28:10Z</time></trkpt><trkpt lat="59.0752243996" lon="30.0284671783"><time>2026-04-25T13:28:13Z</time></trkpt><trkpt lat="59.0752458572" lon="30.0285315514"><time>2026-04-25T13:28:15Z</time></trkpt><trkpt lat="59.0752673149" lon="30.0285744667"><time>2026-04-25T13:28:18Z</time></trkpt><trkpt lat="59.0752887726" lon="30.0285959244"><time>2026-04-25T13:28:20Z</time></trkpt><trkpt lat="59.0753102303" lon="30.0286173820"><time>2026-04-25T13:28:23Z</time></trkpt><trkpt lat="59.0753316879" lon="30.0286602974"><time>2026-04-25T13:28:25Z</time></trkpt><trkpt lat="59.0753531456" lon="30.0286388397"><time>2026-04-25T13:28:28Z</time></trkpt><trkpt lat="59.0753102303" lon="30.0286173820"><time>2026-04-25T13:28:30Z</time></trkpt><trkpt lat="59.0752887726" lon="30.0286388397"><time>2026-04-25T13:28:33Z</time></trkpt><trkpt lat="59.0752243996" lon="30.0286388397"><time>2026-04-25T13:28:35Z</time></trkpt><trkpt lat="59.0752029419" lon="30.0286817551"><time>2026-04-25T13:28:38Z</time></trkpt><trkpt lat="59.0751600266" lon="30.0287032127"><time>2026-04-25T13:28:40Z</time></trkpt><trkpt lat="59.0751814842" lon="30.0286817551"><time>2026-04-25T13:28:43Z</time></trkpt><trkpt lat="59.0751814842" lon="30.0286602974"><time>2026-04-25T13:28:45Z</time></trkpt><trkpt lat="59.0751600266" lon="30.0286602974"><time>2026-04-25T13:28:48Z</time></trkpt><trkpt lat="59.0751600266" lon="30.0286817551"><time>2026-04-25T13:28:50Z</time></trkpt><trkpt lat="59.0751600266" lon="30.0286817551"><time>2026-04-25T13:28:53Z</time></trkpt><trkpt lat="59.0751600266" lon="30.0287246704"><time>2026-04-25T13:28:58Z</time></trkpt><trkpt lat="59.0751600266" lon="30.0287246704"><time>2026-04-25T13:29:00Z</time></trkpt><trkpt lat="59.0751600266" lon="30.0287246704"><time>2026-04-25T13:29:03Z</time></trkpt><trkpt lat="59.0751600266" lon="30.0287246704"><time>2026-04-25T13:29:05Z</time></trkpt><trkpt lat="59.0751600266" lon="30.0287246704"><time>2026-04-25T13:29:08Z</time></trkpt><trkpt lat="59.0751600266" lon="30.0287246704"><time>2026-04-25T13:29:10Z</time></trkpt><trkpt lat="59.0751600266" lon="30.0287246704"><time>2026-04-25T13:29:13Z</time></trkpt><trkpt lat="59.0751600266" lon="30.0287246704"><time>2026-04-25T13:29:15Z</time></trkpt><trkpt lat="59.0751600266" lon="30.0287461281"><time>2026-04-25T13:29:18Z</time></trkpt><trkpt lat="59.0751600266" lon="30.0287461281"><time>2026-04-25T13:29:20Z</time></trkpt><trkpt lat="59.0751600266" lon="30.0287461281"><time>2026-04-25T13:29:23Z</time></trkpt><trkpt lat="59.0751600266" lon="30.0287675858"><time>2026-04-25T13:29:25Z</time></trkpt><trkpt lat="59.0751600266" lon="30.0287675858"><time>2026-04-25T13:29:28Z</time></trkpt><trkpt lat="59.0751600266" lon="30.0287675858"><time>2026-04-25T13:29:30Z</time></trkpt><trkpt lat="59.0751600266" lon="30.0287675858"><time>2026-04-25T13:29:33Z</time></trkpt><trkpt lat="59.0751600266" lon="30.0287675858"><time>2026-04-25T13:29:35Z</time></trkpt><trkpt lat="59.0751600266" lon="30.0287675858"><time>2026-04-25T13:29:38Z</time></trkpt><trkpt lat="59.0751600266" lon="30.0287890434"><time>2026-04-25T13:29:40Z</time></trkpt><trkpt lat="59.0751600266" lon="30.0288105011"><time>2026-04-25T13:29:43Z</time></trkpt><trkpt lat="59.0751600266" lon="30.0288534164"><time>2026-04-25T13:29:45Z</time></trkpt><trkpt lat="59.0751600266" lon="30.0288963318"><time>2026-04-25T13:29:48Z</time></trkpt><trkpt lat="59.0751600266" lon="30.0289177895"><time>2026-04-25T13:29:50Z</time></trkpt><trkpt lat="59.0751600266" lon="30.0289392471"><time>2026-04-25T13:29:53Z</time></trkpt><trkpt lat="59.0751814842" lon="30.0289821625"><time>2026-04-25T13:29:55Z</time></trkpt><trkpt lat="59.0751814842" lon="30.0290036201"><time>2026-04-25T13:29:58Z</time></trkpt><trkpt lat="59.0751814842" lon="30.0290250778"><time>2026-04-25T13:30:00Z</time></trkpt><trkpt lat="59.0751814842" lon="30.0290250778"><time>2026-04-25T13:30:03Z</time></trkpt><trkpt lat="59.0751814842" lon="30.0290250778"><time>2026-04-25T13:30:05Z</time></trkpt><trkpt lat="59.0751814842" lon="30.0290250778"><time>2026-04-25T13:30:08Z</time></trkpt><trkpt lat="59.0751814842" lon="30.0290250778"><time>2026-04-25T13:30:10Z</time></trkpt><trkpt lat="59.0751814842" lon="30.0290250778"><time>2026-04-25T13:30:13Z</time></trkpt><trkpt lat="59.0751814842" lon="30.0290250778"><time>2026-04-25T13:30:15Z</time></trkpt><trkpt lat="59.0751814842" lon="30.0290250778"><time>2026-04-25T13:30:18Z</time></trkpt><trkpt lat="59.0751814842" lon="30.0290250778"><time>2026-04-25T13:30:20Z</time></trkpt><trkpt lat="59.0751814842" lon="30.0290250778"><time>2026-04-25T13:30:23Z</time></trkpt><trkpt lat="59.0751814842" lon="30.0290250778"><time>2026-04-25T13:30:25Z</time></trkpt><trkpt lat="59.0751814842" lon="30.0290250778"><time>2026-04-25T13:30:28Z</time></trkpt><trkpt lat="59.0751814842" lon="30.0290250778"><time>2026-04-25T13:30:30Z</time></trkpt><trkpt lat="59.0751814842" lon="30.0290465355"><time>2026-04-25T13:30:33Z</time></trkpt><trkpt lat="59.0752029419" lon="30.0290465355"><time>2026-04-25T13:30:35Z</time></trkpt><trkpt lat="59.0751814842" lon="30.0290465355"><time>2026-04-25T13:30:38Z</time></trkpt><trkpt lat="59.0751814842" lon="30.0290679932"><time>2026-04-25T13:30:40Z</time></trkpt><trkpt lat="59.0751814842" lon="30.0291109085"><time>2026-04-25T13:30:43Z</time></trkpt><trkpt lat="59.0752029419" lon="30.0291323662"><time>2026-04-25T13:30:45Z</time></trkpt><trkpt lat="59.0752029419" lon="30.0291109085"><time>2026-04-25T13:30:48Z</time></trkpt><trkpt lat="59.0751814842" lon="30.0291323662"><time>2026-04-25T13:30:50Z</time></trkpt><trkpt lat="59.0751814842" lon="30.0291538239"><time>2026-04-25T13:30:53Z</time></trkpt><trkpt lat="59.0751814842" lon="30.0291752815"><time>2026-04-25T13:30:55Z</time></trkpt><trkpt lat="59.0751814842" lon="30.0291967392"><time>2026-04-25T13:30:58Z</time></trkpt><trkpt lat="59.0751814842" lon="30.0292181969"><time>2026-04-25T13:31:00Z</time></trkpt><trkpt lat="59.0751814842" lon="30.0292181969"><time>2026-04-25T13:31:03Z</time></trkpt><trkpt lat="59.0751600266" lon="30.0292611122"><time>2026-04-25T13:31:05Z</time></trkpt><trkpt lat="59.0751600266" lon="30.0292825699"><time>2026-04-25T13:31:08Z</time></trkpt><trkpt lat="59.0751814842" lon="30.0293254852"><time>2026-04-25T13:31:10Z</time></trkpt><trkpt lat="59.0752029419" lon="30.0293684006"><time>2026-04-25T13:31:13Z</time></trkpt><trkpt lat="59.0752243996" lon="30.0293898582"><time>2026-04-25T13:31:15Z</time></trkpt><trkpt lat="59.0752243996" lon="30.0293898582"><time>2026-04-25T13:31:18Z</time></trkpt><trkpt lat="59.0752458572" lon="30.0293684006"><time>2026-04-25T13:31:20Z</time></trkpt><trkpt lat="59.0752458572" lon="30.0293469429"><time>2026-04-25T13:31:23Z</time></trkpt><trkpt lat="59.0752458572" lon="30.0293684006"><time>2026-04-25T13:31:25Z</time></trkpt><trkpt lat="59.0752243996" lon="30.0294113159"><time>2026-04-25T13:31:28Z</time></trkpt><trkpt lat="59.0752243996" lon="30.0294327736"><time>2026-04-25T13:31:30Z</time></trkpt><trkpt lat="59.0752243996" lon="30.0294542313"><time>2026-04-25T13:31:33Z</time></trkpt><trkpt lat="59.0752243996" lon="30.0295186043"><time>2026-04-25T13:31:35Z</time></trkpt><trkpt lat="59.0752243996" lon="30.0295829773"><time>2026-04-25T13:31:38Z</time></trkpt><trkpt lat="59.0752243996" lon="30.0296902657"><time>2026-04-25T13:31:40Z</time></trkpt><trkpt lat="59.0752029419" lon="30.0297331810"><time>2026-04-25T13:31:43Z</time></trkpt><trkpt lat="59.0751814842" lon="30.0297546387"><time>2026-04-25T13:31:45Z</time></trkpt><trkpt lat="59.0751600266" lon="30.0297760963"><time>2026-04-25T13:31:48Z</time></trkpt><trkpt lat="59.0751814842" lon="30.0297975540"><time>2026-04-25T13:31:50Z</time></trkpt><trkpt lat="59.0752029419" lon="30.0298190117"><time>2026-04-25T13:31:53Z</time></trkpt><trkpt lat="59.0752029419" lon="30.0298190117"><time>2026-04-25T13:31:55Z</time></trkpt><trkpt lat="59.0751814842" lon="30.0298404694"><time>2026-04-25T13:31:58Z</time></trkpt><trkpt lat="59.0751814842" lon="30.0298619270"><time>2026-04-25T13:32:00Z</time></trkpt><trkpt lat="59.0751600266" lon="30.0298833847"><time>2026-04-25T13:32:03Z</time></trkpt><trkpt lat="59.0751385689" lon="30.0299048424"><time>2026-04-25T13:32:05Z</time></trkpt><trkpt lat="59.0751600266" lon="30.0299692154"><time>2026-04-25T13:32:08Z</time></trkpt><trkpt lat="59.0751814842" lon="30.0299906731"><time>2026-04-25T13:32:10Z</time></trkpt><trkpt lat="59.0752029419" lon="30.0300335884"><time>2026-04-25T13:32:13Z</time></trkpt><trkpt lat="59.0752458572" lon="30.0300765038"><time>2026-04-25T13:32:15Z</time></trkpt><trkpt lat="59.0752887726" lon="30.0300550461"><time>2026-04-25T13:32:18Z</time></trkpt><trkpt lat="59.0753316879" lon="30.0300335884"><time>2026-04-25T13:32:20Z</time></trkpt><trkpt lat="59.0753531456" lon="30.0300335884"><time>2026-04-25T13:32:23Z</time></trkpt><trkpt lat="59.0753960609" lon="30.0300121307"><time>2026-04-25T13:32:25Z</time></trkpt><trkpt lat="59.0753746033" lon="30.0300121307"><time>2026-04-25T13:32:28Z</time></trkpt><trkpt lat="59.0752887726" lon="30.0300335884"><time>2026-04-25T13:32:30Z</time></trkpt><trkpt lat="59.0752458572" lon="30.0299906731"><time>2026-04-25T13:32:33Z</time></trkpt><trkpt lat="59.0752458572" lon="30.0299477577"><time>2026-04-25T13:32:35Z</time></trkpt><trkpt lat="59.0752458572" lon="30.0299692154"><time>2026-04-25T13:32:38Z</time></trkpt><trkpt lat="59.0752458572" lon="30.0300121307"><time>2026-04-25T13:32:40Z</time></trkpt><trkpt lat="59.0752673149" lon="30.0300335884"><time>2026-04-25T13:32:43Z</time></trkpt><trkpt lat="59.0753102303" lon="30.0300550461"><time>2026-04-25T13:32:45Z</time></trkpt><trkpt lat="59.0753316879" lon="30.0300550461"><time>2026-04-25T13:32:48Z</time></trkpt><trkpt lat="59.0753531456" lon="30.0300765038"><time>2026-04-25T13:32:50Z</time></trkpt><trkpt lat="59.0753531456" lon="30.0300979614"><time>2026-04-25T13:32:53Z</time></trkpt><trkpt lat="59.0753531456" lon="30.0301408768"><time>2026-04-25T13:32:55Z</time></trkpt><trkpt lat="59.0753746033" lon="30.0301623344"><time>2026-04-25T13:32:58Z</time></trkpt><trkpt lat="59.0753746033" lon="30.0302052498"><time>2026-04-25T13:33:00Z</time></trkpt><trkpt lat="59.0753746033" lon="30.0302267075"><time>2026-04-25T13:33:03Z</time></trkpt><trkpt lat="59.0753960609" lon="30.0302696228"><time>2026-04-25T13:33:05Z</time></trkpt><trkpt lat="59.0754175186" lon="30.0303125381"><time>2026-04-25T13:33:08Z</time></trkpt><trkpt lat="59.0754389763" lon="30.0303983688"><time>2026-04-25T13:33:10Z</time></trkpt><trkpt lat="59.0754389763" lon="30.0304412842"><time>2026-04-25T13:33:13Z</time></trkpt><trkpt lat="59.0754389763" lon="30.0304841995"><time>2026-04-25T13:33:15Z</time></trkpt><trkpt lat="59.0754604340" lon="30.0305056572"><time>2026-04-25T13:33:18Z</time></trkpt><trkpt lat="59.0754604340" lon="30.0305700302"><time>2026-04-25T13:33:20Z</time></trkpt><trkpt lat="59.0754604340" lon="30.0305914879"><time>2026-04-25T13:33:23Z</time></trkpt><trkpt lat="59.0754604340" lon="30.0306344032"><time>2026-04-25T13:33:25Z</time></trkpt><trkpt lat="59.0754604340" lon="30.0306558609"><time>2026-04-25T13:33:28Z</time></trkpt><trkpt lat="59.0754604340" lon="30.0307202339"><time>2026-04-25T13:33:30Z</time></trkpt><trkpt lat="59.0754818916" lon="30.0308060646"><time>2026-04-25T13:33:33Z</time></trkpt><trkpt lat="59.0754818916" lon="30.0308489799"><time>2026-04-25T13:33:35Z</time></trkpt><trkpt lat="59.0754818916" lon="30.0308704376"><time>2026-04-25T13:33:38Z</time></trkpt><trkpt lat="59.0754818916" lon="30.0308918953"><time>2026-04-25T13:33:40Z</time></trkpt><trkpt lat="59.0754818916" lon="30.0308918953"><time>2026-04-25T13:33:43Z</time></trkpt><trkpt lat="59.0754818916" lon="30.0308704376"><time>2026-04-25T13:33:45Z</time></trkpt><trkpt lat="59.0755033493" lon="30.0308918953"><time>2026-04-25T13:33:48Z</time></trkpt><trkpt lat="59.0755033493" lon="30.0308918953"><time>2026-04-25T13:33:50Z</time></trkpt><trkpt lat="59.0755033493" lon="30.0308918953"><time>2026-04-25T13:33:53Z</time></trkpt><trkpt lat="59.0755033493" lon="30.0308918953"><time>2026-04-25T13:33:55Z</time></trkpt><trkpt lat="59.0755033493" lon="30.0308918953"><time>2026-04-25T13:33:58Z</time></trkpt><trkpt lat="59.0755033493" lon="30.0308918953"><time>2026-04-25T13:34:00Z</time></trkpt><trkpt lat="59.0755033493" lon="30.0308918953"><time>2026-04-25T13:34:03Z</time></trkpt><trkpt lat="59.0755033493" lon="30.0308918953"><time>2026-04-25T13:34:05Z</time></trkpt><trkpt lat="59.0755033493" lon="30.0308918953"><time>2026-04-25T13:34:08Z</time></trkpt><trkpt lat="59.0755033493" lon="30.0308918953"><time>2026-04-25T13:34:10Z</time></trkpt><trkpt lat="59.0755033493" lon="30.0308918953"><time>2026-04-25T13:34:13Z</time></trkpt><trkpt lat="59.0755033493" lon="30.0308918953"><time>2026-04-25T13:34:15Z</time></trkpt><trkpt lat="59.0755033493" lon="30.0308918953"><time>2026-04-25T13:34:18Z</time></trkpt><trkpt lat="59.0755033493" lon="30.0308918953"><time>2026-04-25T13:34:20Z</time></trkpt><trkpt lat="59.0754818916" lon="30.0308918953"><time>2026-04-25T13:34:23Z</time></trkpt><trkpt lat="59.0754818916" lon="30.0308918953"><time>2026-04-25T13:34:25Z</time></trkpt><trkpt lat="59.0754818916" lon="30.0308918953"><time>2026-04-25T13:34:28Z</time></trkpt><trkpt lat="59.0754818916" lon="30.0308918953"><time>2026-04-25T13:34:30Z</time></trkpt><trkpt lat="59.0754818916" lon="30.0308918953"><time>2026-04-25T13:34:33Z</time></trkpt><trkpt lat="59.0754818916" lon="30.0308918953"><time>2026-04-25T13:34:35Z</time></trkpt><trkpt lat="59.0754818916" lon="30.0308918953"><time>2026-04-25T13:34:38Z</time></trkpt><trkpt lat="59.0754818916" lon="30.0308918953"><time>2026-04-25T13:34:40Z</time></trkpt><trkpt lat="59.0754818916" lon="30.0308918953"><time>2026-04-25T13:34:43Z</time></trkpt><trkpt lat="59.0754818916" lon="30.0308918953"><time>2026-04-25T13:34:45Z</time></trkpt><trkpt lat="59.0754604340" lon="30.0308918953"><time>2026-04-25T13:34:48Z</time></trkpt><trkpt lat="59.0754604340" lon="30.0308918953"><time>2026-04-25T13:34:50Z</time></trkpt><trkpt lat="59.0754604340" lon="30.0308918953"><time>2026-04-25T13:34:53Z</time></trkpt><trkpt lat="59.0754604340" lon="30.0308918953"><time>2026-04-25T13:34:55Z</time></trkpt><trkpt lat="59.0754604340" lon="30.0308918953"><time>2026-04-25T13:34:58Z</time></trkpt><trkpt lat="59.0754604340" lon="30.0308918953"><time>2026-04-25T13:35:00Z</time></trkpt><trkpt lat="59.0754604340" lon="30.0308918953"><time>2026-04-25T13:35:03Z</time></trkpt><trkpt lat="59.0754604340" lon="30.0308918953"><time>2026-04-25T13:35:05Z</time></trkpt><trkpt lat="59.0754604340" lon="30.0308918953"><time>2026-04-25T13:35:08Z</time></trkpt><trkpt lat="59.0754604340" lon="30.0308918953"><time>2026-04-25T13:35:10Z</time></trkpt><trkpt lat="59.0754604340" lon="30.0308918953"><time>2026-04-25T13:35:13Z</time></trkpt><trkpt lat="59.0754604340" lon="30.0308918953"><time>2026-04-25T13:35:15Z</time></trkpt><trkpt lat="59.0754604340" lon="30.0308918953"><time>2026-04-25T13:35:18Z</time></trkpt><trkpt lat="59.0754604340" lon="30.0308918953"><time>2026-04-25T13:35:20Z</time></trkpt><trkpt lat="59.0754604340" lon="30.0308918953"><time>2026-04-25T13:35:23Z</time></trkpt><trkpt lat="59.0754604340" lon="30.0308918953"><time>2026-04-25T13:35:25Z</time></trkpt><trkpt lat="59.0754604340" lon="30.0308918953"><time>2026-04-25T13:35:28Z</time></trkpt><trkpt lat="59.0754604340" lon="30.0308918953"><time>2026-04-25T13:35:30Z</time></trkpt><trkpt lat="59.0754604340" lon="30.0308918953"><time>2026-04-25T13:35:33Z</time></trkpt><trkpt lat="59.0754604340" lon="30.0308918953"><time>2026-04-25T13:35:35Z</time></trkpt><trkpt lat="59.0754604340" lon="30.0308918953"><time>2026-04-25T13:35:38Z</time></trkpt><trkpt lat="59.0754604340" lon="30.0308918953"><time>2026-04-25T13:35:40Z</time></trkpt><trkpt lat="59.0754604340" lon="30.0308918953"><time>2026-04-25T13:35:43Z</time></trkpt><trkpt lat="59.0754604340" lon="30.0308918953"><time>2026-04-25T13:35:45Z</time></trkpt><trkpt lat="59.0754604340" lon="30.0308918953"><time>2026-04-25T13:35:48Z</time></trkpt><trkpt lat="59.0754604340" lon="30.0308918953"><time>2026-04-25T13:35:50Z</time></trkpt><trkpt lat="59.0754604340" lon="30.0308918953"><time>2026-04-25T13:35:53Z</time></trkpt><trkpt lat="59.0754604340" lon="30.0308918953"><time>2026-04-25T13:35:55Z</time></trkpt><trkpt lat="59.0754604340" lon="30.0308918953"><time>2026-04-25T13:35:58Z</time></trkpt><trkpt lat="59.0754604340" lon="30.0308918953"><time>2026-04-25T13:36:00Z</time></trkpt><trkpt lat="59.0754604340" lon="30.0308918953"><time>2026-04-25T13:36:03Z</time></trkpt><trkpt lat="59.0754604340" lon="30.0308918953"><time>2026-04-25T13:36:05Z</time></trkpt><trkpt lat="59.0754604340" lon="30.0308918953"><time>2026-04-25T13:36:08Z</time></trkpt><trkpt lat="59.0754604340" lon="30.0308918953"><time>2026-04-25T13:36:10Z</time></trkpt><trkpt lat="59.0754604340" lon="30.0308918953"><time>2026-04-25T13:36:13Z</time></trkpt><trkpt lat="59.0754604340" lon="30.0308918953"><time>2026-04-25T13:36:15Z</time></trkpt><trkpt lat="59.0754604340" lon="30.0308918953"><time>2026-04-25T13:36:18Z</time></trkpt><trkpt lat="59.0754604340" lon="30.0308918953"><time>2026-04-25T13:36:20Z</time></trkpt><trkpt lat="59.0754604340" lon="30.0308918953"><time>2026-04-25T13:36:23Z</time></trkpt><trkpt lat="59.0754604340" lon="30.0308918953"><time>2026-04-25T13:36:25Z</time></trkpt><trkpt lat="59.0754604340" lon="30.0309133530"><time>2026-04-25T13:36:28Z</time></trkpt><trkpt lat="59.0754604340" lon="30.0309562683"><time>2026-04-25T13:36:30Z</time></trkpt><trkpt lat="59.0754818916" lon="30.0309777260"><time>2026-04-25T13:36:33Z</time></trkpt><trkpt lat="59.0755033493" lon="30.0310206413"><time>2026-04-25T13:36:35Z</time></trkpt><trkpt lat="59.0755248070" lon="30.0310635567"><time>2026-04-25T13:36:38Z</time></trkpt><trkpt lat="59.0755248070" lon="30.0311064720"><time>2026-04-25T13:36:40Z</time></trkpt><trkpt lat="59.0755248070" lon="30.0311493874"><time>2026-04-25T13:36:43Z</time></trkpt><trkpt lat="59.0755033493" lon="30.0311923027"><time>2026-04-25T13:36:45Z</time></trkpt><trkpt lat="59.0755033493" lon="30.0312137604"><time>2026-04-25T13:36:48Z</time></trkpt><trkpt lat="59.0755033493" lon="30.0312352180"><time>2026-04-25T13:36:50Z</time></trkpt><trkpt lat="59.0755033493" lon="30.0312566757"><time>2026-04-25T13:36:53Z</time></trkpt><trkpt lat="59.0755248070" lon="30.0312995911"><time>2026-04-25T13:36:55Z</time></trkpt><trkpt lat="59.0755248070" lon="30.0313210487"><time>2026-04-25T13:36:58Z</time></trkpt><trkpt lat="59.0755248070" lon="30.0313639641"><time>2026-04-25T13:37:00Z</time></trkpt><trkpt lat="59.0755462646" lon="30.0313854218"><time>2026-04-25T13:37:03Z</time></trkpt><trkpt lat="59.0755462646" lon="30.0314283371"><time>2026-04-25T13:37:05Z</time></trkpt><trkpt lat="59.0755677223" lon="30.0314497948"><time>2026-04-25T13:37:08Z</time></trkpt><trkpt lat="59.0755677223" lon="30.0314712524"><time>2026-04-25T13:37:10Z</time></trkpt><trkpt lat="59.0755677223" lon="30.0314927101"><time>2026-04-25T13:37:13Z</time></trkpt><trkpt lat="59.0755677223" lon="30.0315141678"><time>2026-04-25T13:37:15Z</time></trkpt><trkpt lat="59.0755677223" lon="30.0315356255"><time>2026-04-25T13:37:18Z</time></trkpt><trkpt lat="59.0755891800" lon="30.0315785408"><time>2026-04-25T13:37:20Z</time></trkpt><trkpt lat="59.0755891800" lon="30.0316214561"><time>2026-04-25T13:37:23Z</time></trkpt><trkpt lat="59.0755891800" lon="30.0316643715"><time>2026-04-25T13:37:25Z</time></trkpt><trkpt lat="59.0755891800" lon="30.0317072868"><time>2026-04-25T13:37:28Z</time></trkpt><trkpt lat="59.0755891800" lon="30.0317716599"><time>2026-04-25T13:37:30Z</time></trkpt><trkpt lat="59.0756106377" lon="30.0318145752"><time>2026-04-25T13:37:33Z</time></trkpt><trkpt lat="59.0756320953" lon="30.0318360329"><time>2026-04-25T13:37:35Z</time></trkpt><trkpt lat="59.0756320953" lon="30.0318789482"><time>2026-04-25T13:37:38Z</time></trkpt><trkpt lat="59.0756320953" lon="30.0319218636"><time>2026-04-25T13:37:40Z</time></trkpt><trkpt lat="59.0756320953" lon="30.0319647789"><time>2026-04-25T13:37:43Z</time></trkpt><trkpt lat="59.0756535530" lon="30.0320076942"><time>2026-04-25T13:37:45Z</time></trkpt><trkpt lat="59.0756535530" lon="30.0320506096"><time>2026-04-25T13:37:48Z</time></trkpt><trkpt lat="59.0756535530" lon="30.0320935249"><time>2026-04-25T13:37:50Z</time></trkpt><trkpt lat="59.0756750107" lon="30.0321149826"><time>2026-04-25T13:37:53Z</time></trkpt><trkpt lat="59.0756750107" lon="30.0321149826"><time>2026-04-25T13:37:55Z</time></trkpt><trkpt lat="59.0756750107" lon="30.0321149826"><time>2026-04-25T13:37:58Z</time></trkpt><trkpt lat="59.0756750107" lon="30.0321149826"><time>2026-04-25T13:38:00Z</time></trkpt><trkpt lat="59.0756750107" lon="30.0321149826"><time>2026-04-25T13:38:03Z</time></trkpt><trkpt lat="59.0756750107" lon="30.0321149826"><time>2026-04-25T13:38:05Z</time></trkpt><trkpt lat="59.0756750107" lon="30.0321149826"><time>2026-04-25T13:38:08Z</time></trkpt><trkpt lat="59.0756750107" lon="30.0321149826"><time>2026-04-25T13:38:10Z</time></trkpt><trkpt lat="59.0756750107" lon="30.0321149826"><time>2026-04-25T13:38:13Z</time></trkpt><trkpt lat="59.0756750107" lon="30.0321149826"><time>2026-04-25T13:38:15Z</time></trkpt><trkpt lat="59.0756750107" lon="30.0321149826"><time>2026-04-25T13:38:18Z</time></trkpt><trkpt lat="59.0756750107" lon="30.0321149826"><time>2026-04-25T13:38:20Z</time></trkpt><trkpt lat="59.0756750107" lon="30.0321149826"><time>2026-04-25T13:38:23Z</time></trkpt><trkpt lat="59.0756750107" lon="30.0321149826"><time>2026-04-25T13:38:25Z</time></trkpt><trkpt lat="59.0756750107" lon="30.0321149826"><time>2026-04-25T13:38:28Z</time></trkpt><trkpt lat="59.0756750107" lon="30.0321149826"><time>2026-04-25T13:38:30Z</time></trkpt><trkpt lat="59.0756750107" lon="30.0321149826"><time>2026-04-25T13:38:33Z</time></trkpt><trkpt lat="59.0756750107" lon="30.0321149826"><time>2026-04-25T13:38:35Z</time></trkpt><trkpt lat="59.0756750107" lon="30.0321149826"><time>2026-04-25T13:38:38Z</time></trkpt><trkpt lat="59.0756750107" lon="30.0321149826"><time>2026-04-25T13:38:40Z</time></trkpt><trkpt lat="59.0756750107" lon="30.0321149826"><time>2026-04-25T13:38:43Z</time></trkpt><trkpt lat="59.0756750107" lon="30.0321149826"><time>2026-04-25T13:38:45Z</time></trkpt><trkpt lat="59.0756750107" lon="30.0321364403"><time>2026-04-25T13:38:48Z</time></trkpt><trkpt lat="59.0756750107" lon="30.0321793556"><time>2026-04-25T13:38:50Z</time></trkpt><trkpt lat="59.0756750107" lon="30.0322008133"><time>2026-04-25T13:38:53Z</time></trkpt><trkpt lat="59.0756964684" lon="30.0322437286"><time>2026-04-25T13:38:55Z</time></trkpt><trkpt lat="59.0756964684" lon="30.0322651863"><time>2026-04-25T13:38:58Z</time></trkpt><trkpt lat="59.0756964684" lon="30.0323081017"><time>2026-04-25T13:39:00Z</time></trkpt><trkpt lat="59.0757179260" lon="30.0323939323"><time>2026-04-25T13:39:03Z</time></trkpt><trkpt lat="59.0757393837" lon="30.0325012207"><time>2026-04-25T13:39:05Z</time></trkpt><trkpt lat="59.0757608414" lon="30.0325870514"><time>2026-04-25T13:39:08Z</time></trkpt><trkpt lat="59.0757822990" lon="30.0326514244"><time>2026-04-25T13:39:10Z</time></trkpt><trkpt lat="59.0757822990" lon="30.0326728821"><time>2026-04-25T13:39:13Z</time></trkpt><trkpt lat="59.0757822990" lon="30.0326728821"><time>2026-04-25T13:39:15Z</time></trkpt><trkpt lat="59.0757822990" lon="30.0326728821"><time>2026-04-25T13:39:18Z</time></trkpt><trkpt lat="59.0757822990" lon="30.0326728821"><time>2026-04-25T13:39:20Z</time></trkpt><trkpt lat="59.0757822990" lon="30.0326728821"><time>2026-04-25T13:39:23Z</time></trkpt><trkpt lat="59.0757822990" lon="30.0326728821"><time>2026-04-25T13:39:25Z</time></trkpt><trkpt lat="59.0757822990" lon="30.0326728821"><time>2026-04-25T13:39:28Z</time></trkpt><trkpt lat="59.0757822990" lon="30.0326728821"><time>2026-04-25T13:39:30Z</time></trkpt><trkpt lat="59.0757822990" lon="30.0326728821"><time>2026-04-25T13:39:33Z</time></trkpt><trkpt lat="59.0757822990" lon="30.0326728821"><time>2026-04-25T13:39:35Z</time></trkpt><trkpt lat="59.0757822990" lon="30.0326728821"><time>2026-04-25T13:39:38Z</time></trkpt><trkpt lat="59.0757822990" lon="30.0326728821"><time>2026-04-25T13:39:40Z</time></trkpt><trkpt lat="59.0757822990" lon="30.0326728821"><time>2026-04-25T13:39:43Z</time></trkpt><trkpt lat="59.0757822990" lon="30.0326728821"><time>2026-04-25T13:39:45Z</time></trkpt><trkpt lat="59.0757822990" lon="30.0326728821"><time>2026-04-25T13:39:48Z</time></trkpt><trkpt lat="59.0758037567" lon="30.0327372551"><time>2026-04-25T13:39:50Z</time></trkpt><trkpt lat="59.0758037567" lon="30.0327801704"><time>2026-04-25T13:39:53Z</time></trkpt><trkpt lat="59.0758466721" lon="30.0328660011"><time>2026-04-25T13:39:55Z</time></trkpt><trkpt lat="59.0758681297" lon="30.0329518318"><time>2026-04-25T13:39:58Z</time></trkpt><trkpt lat="59.0758895874" lon="30.0330162048"><time>2026-04-25T13:40:00Z</time></trkpt><trkpt lat="59.0758895874" lon="30.0330805779"><time>2026-04-25T13:40:03Z</time></trkpt><trkpt lat="59.0758895874" lon="30.0331234932"><time>2026-04-25T13:40:05Z</time></trkpt><trkpt lat="59.0758681297" lon="30.0331449509"><time>2026-04-25T13:40:08Z</time></trkpt><trkpt lat="59.0758895874" lon="30.0331878662"><time>2026-04-25T13:40:10Z</time></trkpt><trkpt lat="59.0758895874" lon="30.0332307816"><time>2026-04-25T13:40:13Z</time></trkpt><trkpt lat="59.0758895874" lon="30.0332522392"><time>2026-04-25T13:40:15Z</time></trkpt><trkpt lat="59.0758895874" lon="30.0332522392"><time>2026-04-25T13:40:18Z</time></trkpt><trkpt lat="59.0759110451" lon="30.0332951546"><time>2026-04-25T13:40:20Z</time></trkpt><trkpt lat="59.0759325027" lon="30.0333595276"><time>2026-04-25T13:40:23Z</time></trkpt><trkpt lat="59.0759325027" lon="30.0334024429"><time>2026-04-25T13:40:25Z</time></trkpt><trkpt lat="59.0759325027" lon="30.0334024429"><time>2026-04-25T13:40:28Z</time></trkpt><trkpt lat="59.0759110451" lon="30.0333809853"><time>2026-04-25T13:40:30Z</time></trkpt><trkpt lat="59.0758895874" lon="30.0333809853"><time>2026-04-25T13:40:33Z</time></trkpt><trkpt lat="59.0758895874" lon="30.0334453583"><time>2026-04-25T13:40:35Z</time></trkpt><trkpt lat="59.0758895874" lon="30.0334668159"><time>2026-04-25T13:40:38Z</time></trkpt><trkpt lat="59.0759110451" lon="30.0335097313"><time>2026-04-25T13:40:40Z</time></trkpt><trkpt lat="59.0759110451" lon="30.0335526466"><time>2026-04-25T13:40:43Z</time></trkpt><trkpt lat="59.0759110451" lon="30.0335955620"><time>2026-04-25T13:40:45Z</time></trkpt><trkpt lat="59.0759325027" lon="30.0336170197"><time>2026-04-25T13:40:48Z</time></trkpt><trkpt lat="59.0759110451" lon="30.0336599350"><time>2026-04-25T13:40:50Z</time></trkpt><trkpt lat="59.0759110451" lon="30.0337028503"><time>2026-04-25T13:40:53Z</time></trkpt><trkpt lat="59.0759110451" lon="30.0337672234"><time>2026-04-25T13:40:55Z</time></trkpt><trkpt lat="59.0759110451" lon="30.0338101387"><time>2026-04-25T13:40:58Z</time></trkpt><trkpt lat="59.0759325027" lon="30.0338530540"><time>2026-04-25T13:41:00Z</time></trkpt><trkpt lat="59.0759325027" lon="30.0338959694"><time>2026-04-25T13:41:03Z</time></trkpt><trkpt lat="59.0759110451" lon="30.0339388847"><time>2026-04-25T13:41:05Z</time></trkpt><trkpt lat="59.0759110451" lon="30.0339818001"><time>2026-04-25T13:41:08Z</time></trkpt><trkpt lat="59.0759110451" lon="30.0340247154"><time>2026-04-25T13:41:10Z</time></trkpt><trkpt lat="59.0759325027" lon="30.0340461731"><time>2026-04-25T13:41:13Z</time></trkpt><trkpt lat="59.0759325027" lon="30.0340890884"><time>2026-04-25T13:41:15Z</time></trkpt><trkpt lat="59.0759110451" lon="30.0341320038"><time>2026-04-25T13:41:18Z</time></trkpt><trkpt lat="59.0759110451" lon="30.0341749191"><time>2026-04-25T13:41:20Z</time></trkpt><trkpt lat="59.0759110451" lon="30.0341963768"><time>2026-04-25T13:41:23Z</time></trkpt><trkpt lat="59.0759110451" lon="30.0342392921"><time>2026-04-25T13:41:25Z</time></trkpt><trkpt lat="59.0759110451" lon="30.0343036652"><time>2026-04-25T13:41:28Z</time></trkpt><trkpt lat="59.0759110451" lon="30.0343680382"><time>2026-04-25T13:41:30Z</time></trkpt><trkpt lat="59.0758895874" lon="30.0344324112"><time>2026-04-25T13:41:33Z</time></trkpt><trkpt lat="59.0759110451" lon="30.0344753265"><time>2026-04-25T13:41:35Z</time></trkpt><trkpt lat="59.0759110451" lon="30.0344967842"><time>2026-04-25T13:41:38Z</time></trkpt><trkpt lat="59.0759110451" lon="30.0345182419"><time>2026-04-25T13:41:40Z</time></trkpt><trkpt lat="59.0759110451" lon="30.0345396996"><time>2026-04-25T13:41:43Z</time></trkpt><trkpt lat="59.0759110451" lon="30.0345826149"><time>2026-04-25T13:41:45Z</time></trkpt><trkpt lat="59.0759325027" lon="30.0346255302"><time>2026-04-25T13:41:48Z</time></trkpt><trkpt lat="59.0759325027" lon="30.0346469879"><time>2026-04-25T13:41:50Z</time></trkpt><trkpt lat="59.0759539604" lon="30.0346899033"><time>2026-04-25T13:41:53Z</time></trkpt><trkpt lat="59.0759539604" lon="30.0347542763"><time>2026-04-25T13:41:55Z</time></trkpt><trkpt lat="59.0759539604" lon="30.0347971916"><time>2026-04-25T13:41:58Z</time></trkpt><trkpt lat="59.0759539604" lon="30.0348401070"><time>2026-04-25T13:42:00Z</time></trkpt><trkpt lat="59.0759754181" lon="30.0348830223"><time>2026-04-25T13:42:03Z</time></trkpt><trkpt lat="59.0759754181" lon="30.0349044800"><time>2026-04-25T13:42:05Z</time></trkpt><trkpt lat="59.0759754181" lon="30.0349044800"><time>2026-04-25T13:42:08Z</time></trkpt><trkpt lat="59.0759754181" lon="30.0349044800"><time>2026-04-25T13:42:10Z</time></trkpt><trkpt lat="59.0759754181" lon="30.0349044800"><time>2026-04-25T13:42:13Z</time></trkpt><trkpt lat="59.0759968758" lon="30.0349473953"><time>2026-04-25T13:42:15Z</time></trkpt><trkpt lat="59.0759968758" lon="30.0349473953"><time>2026-04-25T13:42:18Z</time></trkpt><trkpt lat="59.0759968758" lon="30.0349473953"><time>2026-04-25T13:42:20Z</time></trkpt><trkpt lat="59.0759968758" lon="30.0349473953"><time>2026-04-25T13:42:23Z</time></trkpt><trkpt lat="59.0759968758" lon="30.0349473953"><time>2026-04-25T13:42:25Z</time></trkpt><trkpt lat="59.0759968758" lon="30.0349473953"><time>2026-04-25T13:42:28Z</time></trkpt><trkpt lat="59.0759968758" lon="30.0349473953"><time>2026-04-25T13:42:30Z</time></trkpt><trkpt lat="59.0759968758" lon="30.0349473953"><time>2026-04-25T13:42:33Z</time></trkpt><trkpt lat="59.0759968758" lon="30.0349473953"><time>2026-04-25T13:42:35Z</time></trkpt><trkpt lat="59.0759968758" lon="30.0349473953"><time>2026-04-25T13:42:38Z</time></trkpt><trkpt lat="59.0759968758" lon="30.0349473953"><time>2026-04-25T13:42:40Z</time></trkpt><trkpt lat="59.0759968758" lon="30.0349473953"><time>2026-04-25T13:42:43Z</time></trkpt><trkpt lat="59.0759968758" lon="30.0349473953"><time>2026-04-25T13:42:45Z</time></trkpt><trkpt lat="59.0759968758" lon="30.0349473953"><time>2026-04-25T13:42:48Z</time></trkpt><trkpt lat="59.0759968758" lon="30.0349473953"><time>2026-04-25T13:42:50Z</time></trkpt><trkpt lat="59.0759968758" lon="30.0349473953"><time>2026-04-25T13:42:53Z</time></trkpt><trkpt lat="59.0759968758" lon="30.0349473953"><time>2026-04-25T13:42:55Z</time></trkpt><trkpt lat="59.0759968758" lon="30.0349473953"><time>2026-04-25T13:42:58Z</time></trkpt><trkpt lat="59.0759968758" lon="30.0349473953"><time>2026-04-25T13:43:00Z</time></trkpt><trkpt lat="59.0759968758" lon="30.0349473953"><time>2026-04-25T13:43:03Z</time></trkpt><trkpt lat="59.0759968758" lon="30.0349473953"><time>2026-04-25T13:43:05Z</time></trkpt><trkpt lat="59.0759968758" lon="30.0349473953"><time>2026-04-25T13:43:08Z</time></trkpt><trkpt lat="59.0759968758" lon="30.0349473953"><time>2026-04-25T13:43:10Z</time></trkpt><trkpt lat="59.0759968758" lon="30.0349473953"><time>2026-04-25T13:43:13Z</time></trkpt><trkpt lat="59.0759968758" lon="30.0349473953"><time>2026-04-25T13:43:15Z</time></trkpt><trkpt lat="59.0759968758" lon="30.0349473953"><time>2026-04-25T13:43:18Z</time></trkpt><trkpt lat="59.0759968758" lon="30.0349473953"><time>2026-04-25T13:43:20Z</time></trkpt><trkpt lat="59.0759968758" lon="30.0349473953"><time>2026-04-25T13:43:23Z</time></trkpt><trkpt lat="59.0759968758" lon="30.0349473953"><time>2026-04-25T13:43:25Z</time></trkpt><trkpt lat="59.0759968758" lon="30.0349473953"><time>2026-04-25T13:43:28Z</time></trkpt><trkpt lat="59.0759968758" lon="30.0349473953"><time>2026-04-25T13:43:30Z</time></trkpt><trkpt lat="59.0759968758" lon="30.0349473953"><time>2026-04-25T13:43:33Z</time></trkpt><trkpt lat="59.0759968758" lon="30.0349473953"><time>2026-04-25T13:43:35Z</time></trkpt><trkpt lat="59.0759968758" lon="30.0349473953"><time>2026-04-25T13:43:38Z</time></trkpt><trkpt lat="59.0759968758" lon="30.0349473953"><time>2026-04-25T13:43:40Z</time></trkpt><trkpt lat="59.0759968758" lon="30.0349473953"><time>2026-04-25T13:43:43Z</time></trkpt><trkpt lat="59.0759968758" lon="30.0349473953"><time>2026-04-25T13:43:45Z</time></trkpt><trkpt lat="59.0759968758" lon="30.0349473953"><time>2026-04-25T13:43:48Z</time></trkpt><trkpt lat="59.0759968758" lon="30.0349473953"><time>2026-04-25T13:43:50Z</time></trkpt><trkpt lat="59.0759968758" lon="30.0349473953"><time>2026-04-25T13:43:53Z</time></trkpt><trkpt lat="59.0759968758" lon="30.0349473953"><time>2026-04-25T13:43:55Z</time></trkpt><trkpt lat="59.0759968758" lon="30.0349473953"><time>2026-04-25T13:43:58Z</time></trkpt><trkpt lat="59.0759968758" lon="30.0349473953"><time>2026-04-25T13:44:00Z</time></trkpt><trkpt lat="59.0759968758" lon="30.0349473953"><time>2026-04-25T13:44:03Z</time></trkpt><trkpt lat="59.0759968758" lon="30.0349473953"><time>2026-04-25T13:44:05Z</time></trkpt><trkpt lat="59.0759968758" lon="30.0349473953"><time>2026-04-25T13:44:08Z</time></trkpt><trkpt lat="59.0759968758" lon="30.0349473953"><time>2026-04-25T13:44:10Z</time></trkpt><trkpt lat="59.0759968758" lon="30.0349473953"><time>2026-04-25T13:44:13Z</time></trkpt><trkpt lat="59.0759968758" lon="30.0349473953"><time>2026-04-25T13:44:15Z</time></trkpt><trkpt lat="59.0759968758" lon="30.0349473953"><time>2026-04-25T13:44:18Z</time></trkpt><trkpt lat="59.0759968758" lon="30.0349473953"><time>2026-04-25T13:44:20Z</time></trkpt><trkpt lat="59.0759968758" lon="30.0349473953"><time>2026-04-25T13:44:23Z</time></trkpt><trkpt lat="59.0759968758" lon="30.0349473953"><time>2026-04-25T13:44:25Z</time></trkpt><trkpt lat="59.0759539604" lon="30.0349688530"><time>2026-04-25T13:44:28Z</time></trkpt><trkpt lat="59.0759325027" lon="30.0349903107"><time>2026-04-25T13:44:30Z</time></trkpt><trkpt lat="59.0758895874" lon="30.0350332260"><time>2026-04-25T13:44:33Z</time></trkpt><trkpt lat="59.0758681297" lon="30.0350761414"><time>2026-04-25T13:44:35Z</time></trkpt><trkpt lat="59.0758681297" lon="30.0350975990"><time>2026-04-25T13:44:38Z</time></trkpt><trkpt lat="59.0758252144" lon="30.0351190567"><time>2026-04-25T13:44:40Z</time></trkpt><trkpt lat="59.0758252144" lon="30.0351405144"><time>2026-04-25T13:44:43Z</time></trkpt><trkpt lat="59.0758037567" lon="30.0351405144"><time>2026-04-25T13:44:45Z</time></trkpt><trkpt lat="59.0757822990" lon="30.0351619720"><time>2026-04-25T13:44:48Z</time></trkpt><trkpt lat="59.0757822990" lon="30.0351619720"><time>2026-04-25T13:44:50Z</time></trkpt><trkpt lat="59.0757608414" lon="30.0351619720"><time>2026-04-25T13:44:53Z</time></trkpt><trkpt lat="59.0757608414" lon="30.0351619720"><time>2026-04-25T13:44:55Z</time></trkpt><trkpt lat="59.0757608414" lon="30.0351619720"><time>2026-04-25T13:44:58Z</time></trkpt><trkpt lat="59.0757393837" lon="30.0351405144"><time>2026-04-25T13:45:00Z</time></trkpt><trkpt lat="59.0757179260" lon="30.0351405144"><time>2026-04-25T13:45:03Z</time></trkpt><trkpt lat="59.0756964684" lon="30.0351834297"><time>2026-04-25T13:45:05Z</time></trkpt><trkpt lat="59.0756964684" lon="30.0352478027"><time>2026-04-25T13:45:08Z</time></trkpt><trkpt lat="59.0756750107" lon="30.0352692604"><time>2026-04-25T13:45:10Z</time></trkpt><trkpt lat="59.0756750107" lon="30.0352907181"><time>2026-04-25T13:45:13Z</time></trkpt><trkpt lat="59.0756750107" lon="30.0353336334"><time>2026-04-25T13:45:15Z</time></trkpt><trkpt lat="59.0756750107" lon="30.0353121758"><time>2026-04-25T13:45:18Z</time></trkpt><trkpt lat="59.0756750107" lon="30.0352692604"><time>2026-04-25T13:45:20Z</time></trkpt><trkpt lat="59.0756750107" lon="30.0352263451"><time>2026-04-25T13:45:23Z</time></trkpt><trkpt lat="59.0756750107" lon="30.0352048874"><time>2026-04-25T13:45:25Z</time></trkpt><trkpt lat="59.0756535530" lon="30.0352263451"><time>2026-04-25T13:45:28Z</time></trkpt><trkpt lat="59.0756535530" lon="30.0352048874"><time>2026-04-25T13:45:31Z</time></trkpt><trkpt lat="59.0756535530" lon="30.0351834297"><time>2026-04-25T13:45:33Z</time></trkpt><trkpt lat="59.0756320953" lon="30.0351834297"><time>2026-04-25T13:45:35Z</time></trkpt><trkpt lat="59.0756320953" lon="30.0351834297"><time>2026-04-25T13:45:38Z</time></trkpt><trkpt lat="59.0755891800" lon="30.0351834297"><time>2026-04-25T13:45:40Z</time></trkpt><trkpt lat="59.0755677223" lon="30.0351834297"><time>2026-04-25T13:45:43Z</time></trkpt><trkpt lat="59.0755462646" lon="30.0351834297"><time>2026-04-25T13:45:45Z</time></trkpt><trkpt lat="59.0755248070" lon="30.0351834297"><time>2026-04-25T13:45:48Z</time></trkpt><trkpt lat="59.0755033493" lon="30.0351834297"><time>2026-04-25T13:45:51Z</time></trkpt><trkpt lat="59.0755033493" lon="30.0352263451"><time>2026-04-25T13:45:53Z</time></trkpt><trkpt lat="59.0755033493" lon="30.0352692604"><time>2026-04-25T13:45:55Z</time></trkpt><trkpt lat="59.0755033493" lon="30.0352478027"><time>2026-04-25T13:45:58Z</time></trkpt><trkpt lat="59.0755033493" lon="30.0352263451"><time>2026-04-25T13:46:00Z</time></trkpt><trkpt lat="59.0754818916" lon="30.0352048874"><time>2026-04-25T13:46:03Z</time></trkpt><trkpt lat="59.0754604340" lon="30.0352048874"><time>2026-04-25T13:46:05Z</time></trkpt><trkpt lat="59.0754604340" lon="30.0351834297"><time>2026-04-25T13:46:08Z</time></trkpt><trkpt lat="59.0754604340" lon="30.0351834297"><time>2026-04-25T13:46:10Z</time></trkpt><trkpt lat="59.0754604340" lon="30.0351834297"><time>2026-04-25T13:46:13Z</time></trkpt><trkpt lat="59.0754604340" lon="30.0351834297"><time>2026-04-25T13:46:15Z</time></trkpt><trkpt lat="59.0754604340" lon="30.0351834297"><time>2026-04-25T13:46:18Z</time></trkpt><trkpt lat="59.0754604340" lon="30.0351834297"><time>2026-04-25T13:46:20Z</time></trkpt><trkpt lat="59.0754604340" lon="30.0351834297"><time>2026-04-25T13:46:23Z</time></trkpt><trkpt lat="59.0754604340" lon="30.0351834297"><time>2026-04-25T13:46:25Z</time></trkpt><trkpt lat="59.0754604340" lon="30.0351834297"><time>2026-04-25T13:46:28Z</time></trkpt><trkpt lat="59.0754818916" lon="30.0351834297"><time>2026-04-25T13:46:30Z</time></trkpt><trkpt lat="59.0754818916" lon="30.0351834297"><time>2026-04-25T13:46:33Z</time></trkpt><trkpt lat="59.0754818916" lon="30.0351834297"><time>2026-04-25T13:46:35Z</time></trkpt><trkpt lat="59.0754818916" lon="30.0351834297"><time>2026-04-25T13:46:38Z</time></trkpt><trkpt lat="59.0754818916" lon="30.0351834297"><time>2026-04-25T13:46:40Z</time></trkpt><trkpt lat="59.0754818916" lon="30.0351834297"><time>2026-04-25T13:46:43Z</time></trkpt><trkpt lat="59.0754818916" lon="30.0351834297"><time>2026-04-25T13:46:45Z</time></trkpt><trkpt lat="59.0754818916" lon="30.0351834297"><time>2026-04-25T13:46:48Z</time></trkpt><trkpt lat="59.0754818916" lon="30.0351834297"><time>2026-04-25T13:46:50Z</time></trkpt><trkpt lat="59.0754818916" lon="30.0351834297"><time>2026-04-25T13:46:53Z</time></trkpt><trkpt lat="59.0754818916" lon="30.0351834297"><time>2026-04-25T13:46:55Z</time></trkpt><trkpt lat="59.0754818916" lon="30.0351834297"><time>2026-04-25T13:46:58Z</time></trkpt><trkpt lat="59.0754818916" lon="30.0351834297"><time>2026-04-25T13:47:00Z</time></trkpt><trkpt lat="59.0754604340" lon="30.0351834297"><time>2026-04-25T13:47:03Z</time></trkpt><trkpt lat="59.0754604340" lon="30.0351834297"><time>2026-04-25T13:47:06Z</time></trkpt><trkpt lat="59.0754604340" lon="30.0351834297"><time>2026-04-25T13:47:08Z</time></trkpt><trkpt lat="59.0754604340" lon="30.0351834297"><time>2026-04-25T13:47:10Z</time></trkpt><trkpt lat="59.0754604340" lon="30.0351834297"><time>2026-04-25T13:47:13Z</time></trkpt><trkpt lat="59.0754604340" lon="30.0351834297"><time>2026-04-25T13:47:15Z</time></trkpt><trkpt lat="59.0754604340" lon="30.0351834297"><time>2026-04-25T13:47:18Z</time></trkpt><trkpt lat="59.0754604340" lon="30.0351834297"><time>2026-04-25T13:47:20Z</time></trkpt><trkpt lat="59.0754604340" lon="30.0351834297"><time>2026-04-25T13:47:23Z</time></trkpt><trkpt lat="59.0754604340" lon="30.0351834297"><time>2026-04-25T13:47:25Z</time></trkpt><trkpt lat="59.0754604340" lon="30.0351834297"><time>2026-04-25T13:47:28Z</time></trkpt><trkpt lat="59.0754604340" lon="30.0351405144"><time>2026-04-25T13:47:31Z</time></trkpt><trkpt lat="59.0754389763" lon="30.0350546837"><time>2026-04-25T13:47:33Z</time></trkpt><trkpt lat="59.0754389763" lon="30.0349688530"><time>2026-04-25T13:47:35Z</time></trkpt><trkpt lat="59.0754175186" lon="30.0349044800"><time>2026-04-25T13:47:38Z</time></trkpt><trkpt lat="59.0754175186" lon="30.0348615646"><time>2026-04-25T13:47:40Z</time></trkpt><trkpt lat="59.0754175186" lon="30.0348615646"><time>2026-04-25T13:47:43Z</time></trkpt><trkpt lat="59.0754175186" lon="30.0348615646"><time>2026-04-25T13:47:45Z</time></trkpt><trkpt lat="59.0753960609" lon="30.0348401070"><time>2026-04-25T13:47:48Z</time></trkpt><trkpt lat="59.0753960609" lon="30.0347971916"><time>2026-04-25T13:47:51Z</time></trkpt><trkpt lat="59.0753960609" lon="30.0347328186"><time>2026-04-25T13:47:53Z</time></trkpt><trkpt lat="59.0753960609" lon="30.0346684456"><time>2026-04-25T13:47:55Z</time></trkpt><trkpt lat="59.0753960609" lon="30.0346040726"><time>2026-04-25T13:47:58Z</time></trkpt><trkpt lat="59.0753960609" lon="30.0346040726"><time>2026-04-25T13:48:00Z</time></trkpt><trkpt lat="59.0753960609" lon="30.0345826149"><time>2026-04-25T13:48:03Z</time></trkpt><trkpt lat="59.0753960609" lon="30.0345182419"><time>2026-04-25T13:48:05Z</time></trkpt><trkpt lat="59.0753746033" lon="30.0344324112"><time>2026-04-25T13:48:08Z</time></trkpt><trkpt lat="59.0753531456" lon="30.0344109535"><time>2026-04-25T13:48:10Z</time></trkpt><trkpt lat="59.0753316879" lon="30.0343894958"><time>2026-04-25T13:48:13Z</time></trkpt><trkpt lat="59.0753316879" lon="30.0344324112"><time>2026-04-25T13:48:15Z</time></trkpt><trkpt lat="59.0753102303" lon="30.0343894958"><time>2026-04-25T13:48:18Z</time></trkpt><trkpt lat="59.0753102303" lon="30.0343036652"><time>2026-04-25T13:48:21Z</time></trkpt><trkpt lat="59.0753102303" lon="30.0342178345"><time>2026-04-25T13:48:23Z</time></trkpt><trkpt lat="59.0753102303" lon="30.0342607498"><time>2026-04-25T13:48:25Z</time></trkpt><trkpt lat="59.0752887726" lon="30.0342607498"><time>2026-04-25T13:48:28Z</time></trkpt><trkpt lat="59.0752887726" lon="30.0342178345"><time>2026-04-25T13:48:30Z</time></trkpt><trkpt lat="59.0752887726" lon="30.0341963768"><time>2026-04-25T13:48:33Z</time></trkpt><trkpt lat="59.0752887726" lon="30.0341749191"><time>2026-04-25T13:48:35Z</time></trkpt><trkpt lat="59.0752887726" lon="30.0341105461"><time>2026-04-25T13:48:38Z</time></trkpt><trkpt lat="59.0752887726" lon="30.0340461731"><time>2026-04-25T13:48:40Z</time></trkpt><trkpt lat="59.0753102303" lon="30.0339818001"><time>2026-04-25T13:48:43Z</time></trkpt><trkpt lat="59.0752887726" lon="30.0339174271"><time>2026-04-25T13:48:45Z</time></trkpt><trkpt lat="59.0752673149" lon="30.0338315964"><time>2026-04-25T13:48:48Z</time></trkpt><trkpt lat="59.0752458572" lon="30.0337243080"><time>2026-04-25T13:48:50Z</time></trkpt><trkpt lat="59.0752243996" lon="30.0336384773"><time>2026-04-25T13:48:53Z</time></trkpt><trkpt lat="59.0752029419" lon="30.0335526466"><time>2026-04-25T13:48:55Z</time></trkpt><trkpt lat="59.0751814842" lon="30.0335311890"><time>2026-04-25T13:48:58Z</time></trkpt><trkpt lat="59.0751814842" lon="30.0335526466"><time>2026-04-25T13:49:00Z</time></trkpt><trkpt lat="59.0751600266" lon="30.0335526466"><time>2026-04-25T13:49:03Z</time></trkpt><trkpt lat="59.0750956535" lon="30.0335311890"><time>2026-04-25T13:49:05Z</time></trkpt><trkpt lat="59.0750527382" lon="30.0335311890"><time>2026-04-25T13:49:08Z</time></trkpt><trkpt lat="59.0750527382" lon="30.0334882736"><time>2026-04-25T13:49:10Z</time></trkpt><trkpt lat="59.0750741959" lon="30.0334668159"><time>2026-04-25T13:49:13Z</time></trkpt><trkpt lat="59.0750956535" lon="30.0333809853"><time>2026-04-25T13:49:15Z</time></trkpt><trkpt lat="59.0750956535" lon="30.0333380699"><time>2026-04-25T13:49:18Z</time></trkpt><trkpt lat="59.0750741959" lon="30.0332736969"><time>2026-04-25T13:49:20Z</time></trkpt><trkpt lat="59.0750312805" lon="30.0332522392"><time>2026-04-25T13:49:23Z</time></trkpt><trkpt lat="59.0750312805" lon="30.0332307816"><time>2026-04-25T13:49:25Z</time></trkpt><trkpt lat="59.0750527382" lon="30.0332522392"><time>2026-04-25T13:49:28Z</time></trkpt><trkpt lat="59.0751171112" lon="30.0332307816"><time>2026-04-25T13:49:31Z</time></trkpt><trkpt lat="59.0751600266" lon="30.0332093239"><time>2026-04-25T13:49:33Z</time></trkpt><trkpt lat="59.0751600266" lon="30.0332093239"><time>2026-04-25T13:49:35Z</time></trkpt><trkpt lat="59.0751600266" lon="30.0331878662"><time>2026-04-25T13:49:38Z</time></trkpt><trkpt lat="59.0751600266" lon="30.0331234932"><time>2026-04-25T13:49:40Z</time></trkpt><trkpt lat="59.0751600266" lon="30.0331020355"><time>2026-04-25T13:49:43Z</time></trkpt><trkpt lat="59.0751600266" lon="30.0331020355"><time>2026-04-25T13:49:45Z</time></trkpt><trkpt lat="59.0751600266" lon="30.0331020355"><time>2026-04-25T13:49:48Z</time></trkpt><trkpt lat="59.0751600266" lon="30.0331020355"><time>2026-04-25T13:49:51Z</time></trkpt><trkpt lat="59.0751600266" lon="30.0331020355"><time>2026-04-25T13:49:53Z</time></trkpt><trkpt lat="59.0751600266" lon="30.0331020355"><time>2026-04-25T13:49:55Z</time></trkpt><trkpt lat="59.0751600266" lon="30.0331020355"><time>2026-04-25T13:49:58Z</time></trkpt><trkpt lat="59.0751600266" lon="30.0330376625"><time>2026-04-25T13:50:00Z</time></trkpt><trkpt lat="59.0751600266" lon="30.0330162048"><time>2026-04-25T13:50:03Z</time></trkpt><trkpt lat="59.0751600266" lon="30.0329732895"><time>2026-04-25T13:50:05Z</time></trkpt><trkpt lat="59.0751600266" lon="30.0329518318"><time>2026-04-25T13:50:08Z</time></trkpt><trkpt lat="59.0751600266" lon="30.0329518318"><time>2026-04-25T13:50:10Z</time></trkpt><trkpt lat="59.0751600266" lon="30.0329518318"><time>2026-04-25T13:50:13Z</time></trkpt><trkpt lat="59.0751600266" lon="30.0329089165"><time>2026-04-25T13:50:15Z</time></trkpt><trkpt lat="59.0751600266" lon="30.0328874588"><time>2026-04-25T13:50:18Z</time></trkpt><trkpt lat="59.0751600266" lon="30.0328445435"><time>2026-04-25T13:50:21Z</time></trkpt><trkpt lat="59.0751600266" lon="30.0328230858"><time>2026-04-25T13:50:23Z</time></trkpt><trkpt lat="59.0751600266" lon="30.0327801704"><time>2026-04-25T13:50:25Z</time></trkpt><trkpt lat="59.0751600266" lon="30.0327157974"><time>2026-04-25T13:50:28Z</time></trkpt><trkpt lat="59.0751600266" lon="30.0326943398"><time>2026-04-25T13:50:30Z</time></trkpt><trkpt lat="59.0751600266" lon="30.0326728821"><time>2026-04-25T13:50:33Z</time></trkpt><trkpt lat="59.0751385689" lon="30.0326514244"><time>2026-04-25T13:50:35Z</time></trkpt><trkpt lat="59.0751385689" lon="30.0326299667"><time>2026-04-25T13:50:38Z</time></trkpt><trkpt lat="59.0751385689" lon="30.0325870514"><time>2026-04-25T13:50:40Z</time></trkpt><trkpt lat="59.0751385689" lon="30.0325012207"><time>2026-04-25T13:50:43Z</time></trkpt><trkpt lat="59.0751385689" lon="30.0324153900"><time>2026-04-25T13:50:45Z</time></trkpt><trkpt lat="59.0751171112" lon="30.0323724747"><time>2026-04-25T13:50:48Z</time></trkpt><trkpt lat="59.0751171112" lon="30.0323939323"><time>2026-04-25T13:50:50Z</time></trkpt><trkpt lat="59.0750956535" lon="30.0323724747"><time>2026-04-25T13:50:53Z</time></trkpt><trkpt lat="59.0750956535" lon="30.0323724747"><time>2026-04-25T13:50:55Z</time></trkpt><trkpt lat="59.0750956535" lon="30.0323295593"><time>2026-04-25T13:50:58Z</time></trkpt><trkpt lat="59.0750741959" lon="30.0322866440"><time>2026-04-25T13:51:00Z</time></trkpt><trkpt lat="59.0750741959" lon="30.0322437286"><time>2026-04-25T13:51:03Z</time></trkpt><trkpt lat="59.0750741959" lon="30.0321578979"><time>2026-04-25T13:51:05Z</time></trkpt><trkpt lat="59.0750527382" lon="30.0320720673"><time>2026-04-25T13:51:08Z</time></trkpt><trkpt lat="59.0750741959" lon="30.0320076942"><time>2026-04-25T13:51:10Z</time></trkpt><trkpt lat="59.0750312805" lon="30.0319647789"><time>2026-04-25T13:51:13Z</time></trkpt><trkpt lat="59.0750312805" lon="30.0319218636"><time>2026-04-25T13:51:15Z</time></trkpt><trkpt lat="59.0750312805" lon="30.0319433212"><time>2026-04-25T13:51:18Z</time></trkpt><trkpt lat="59.0750312805" lon="30.0319218636"><time>2026-04-25T13:51:20Z</time></trkpt><trkpt lat="59.0750312805" lon="30.0319433212"><time>2026-04-25T13:51:23Z</time></trkpt><trkpt lat="59.0750098228" lon="30.0318789482"><time>2026-04-25T13:51:25Z</time></trkpt><trkpt lat="59.0749669075" lon="30.0318145752"><time>2026-04-25T13:51:28Z</time></trkpt><trkpt lat="59.0749454498" lon="30.0317931175"><time>2026-04-25T13:51:30Z</time></trkpt><trkpt lat="59.0749454498" lon="30.0317931175"><time>2026-04-25T13:51:33Z</time></trkpt><trkpt lat="59.0749454498" lon="30.0317931175"><time>2026-04-25T13:51:35Z</time></trkpt><trkpt lat="59.0749454498" lon="30.0317931175"><time>2026-04-25T13:51:38Z</time></trkpt><trkpt lat="59.0749454498" lon="30.0317931175"><time>2026-04-25T13:51:41Z</time></trkpt><trkpt lat="59.0749454498" lon="30.0317931175"><time>2026-04-25T13:51:43Z</time></trkpt><trkpt lat="59.0749454498" lon="30.0317931175"><time>2026-04-25T13:51:45Z</time></trkpt><trkpt lat="59.0749454498" lon="30.0317931175"><time>2026-04-25T13:51:48Z</time></trkpt><trkpt lat="59.0749454498" lon="30.0317931175"><time>2026-04-25T13:51:50Z</time></trkpt><trkpt lat="59.0749454498" lon="30.0317931175"><time>2026-04-25T13:51:53Z</time></trkpt><trkpt lat="59.0749454498" lon="30.0317931175"><time>2026-04-25T13:51:55Z</time></trkpt><trkpt lat="59.0749454498" lon="30.0317931175"><time>2026-04-25T13:51:58Z</time></trkpt><trkpt lat="59.0749454498" lon="30.0317931175"><time>2026-04-25T13:52:00Z</time></trkpt><trkpt lat="59.0749454498" lon="30.0317931175"><time>2026-04-25T13:52:03Z</time></trkpt><trkpt lat="59.0749454498" lon="30.0317931175"><time>2026-04-25T13:52:05Z</time></trkpt><trkpt lat="59.0749454498" lon="30.0317931175"><time>2026-04-25T13:52:08Z</time></trkpt><trkpt lat="59.0749454498" lon="30.0317931175"><time>2026-04-25T13:52:10Z</time></trkpt><trkpt lat="59.0749454498" lon="30.0317931175"><time>2026-04-25T13:52:13Z</time></trkpt><trkpt lat="59.0749454498" lon="30.0317931175"><time>2026-04-25T13:52:15Z</time></trkpt><trkpt lat="59.0749454498" lon="30.0317931175"><time>2026-04-25T13:52:18Z</time></trkpt><trkpt lat="59.0749454498" lon="30.0317931175"><time>2026-04-25T13:52:20Z</time></trkpt><trkpt lat="59.0749454498" lon="30.0317931175"><time>2026-04-25T13:52:23Z</time></trkpt><trkpt lat="59.0749454498" lon="30.0317931175"><time>2026-04-25T13:52:25Z</time></trkpt><trkpt lat="59.0749454498" lon="30.0317931175"><time>2026-04-25T13:52:28Z</time></trkpt><trkpt lat="59.0749454498" lon="30.0317931175"><time>2026-04-25T13:52:31Z</time></trkpt><trkpt lat="59.0749454498" lon="30.0317931175"><time>2026-04-25T13:52:33Z</time></trkpt><trkpt lat="59.0749454498" lon="30.0317931175"><time>2026-04-25T13:52:35Z</time></trkpt><trkpt lat="59.0749454498" lon="30.0317931175"><time>2026-04-25T13:52:38Z</time></trkpt><trkpt lat="59.0749454498" lon="30.0318145752"><time>2026-04-25T13:52:40Z</time></trkpt><trkpt lat="59.0749454498" lon="30.0318145752"><time>2026-04-25T13:52:43Z</time></trkpt><trkpt lat="59.0749454498" lon="30.0318145752"><time>2026-04-25T13:52:45Z</time></trkpt><trkpt lat="59.0749454498" lon="30.0318145752"><time>2026-04-25T13:52:48Z</time></trkpt><trkpt lat="59.0749454498" lon="30.0318145752"><time>2026-04-25T13:52:51Z</time></trkpt><trkpt lat="59.0749454498" lon="30.0318145752"><time>2026-04-25T13:52:53Z</time></trkpt><trkpt lat="59.0749454498" lon="30.0318145752"><time>2026-04-25T13:52:55Z</time></trkpt><trkpt lat="59.0749454498" lon="30.0318145752"><time>2026-04-25T13:52:58Z</time></trkpt><trkpt lat="59.0749454498" lon="30.0318145752"><time>2026-04-25T13:53:00Z</time></trkpt><trkpt lat="59.0749454498" lon="30.0318145752"><time>2026-04-25T13:53:03Z</time></trkpt><trkpt lat="59.0749883652" lon="30.0318145752"><time>2026-04-25T13:53:05Z</time></trkpt><trkpt lat="59.0750098228" lon="30.0318145752"><time>2026-04-25T13:53:08Z</time></trkpt><trkpt lat="59.0750312805" lon="30.0318574905"><time>2026-04-25T13:53:10Z</time></trkpt><trkpt lat="59.0750312805" lon="30.0318574905"><time>2026-04-25T13:53:13Z</time></trkpt><trkpt lat="59.0750312805" lon="30.0318574905"><time>2026-04-25T13:53:15Z</time></trkpt><trkpt lat="59.0750312805" lon="30.0318574905"><time>2026-04-25T13:53:18Z</time></trkpt><trkpt lat="59.0750312805" lon="30.0318574905"><time>2026-04-25T13:53:20Z</time></trkpt><trkpt lat="59.0750312805" lon="30.0318574905"><time>2026-04-25T13:53:23Z</time></trkpt><trkpt lat="59.0750312805" lon="30.0318574905"><time>2026-04-25T13:53:25Z</time></trkpt><trkpt lat="59.0750312805" lon="30.0318574905"><time>2026-04-25T13:53:28Z</time></trkpt><trkpt lat="59.0750312805" lon="30.0318574905"><time>2026-04-25T13:53:30Z</time></trkpt><trkpt lat="59.0750312805" lon="30.0318574905"><time>2026-04-25T13:53:33Z</time></trkpt><trkpt lat="59.0750312805" lon="30.0318574905"><time>2026-04-25T13:53:35Z</time></trkpt><trkpt lat="59.0750312805" lon="30.0318574905"><time>2026-04-25T13:53:38Z</time></trkpt><trkpt lat="59.0750312805" lon="30.0318574905"><time>2026-04-25T13:53:40Z</time></trkpt><trkpt lat="59.0750312805" lon="30.0318574905"><time>2026-04-25T13:53:43Z</time></trkpt><trkpt lat="59.0750312805" lon="30.0318574905"><time>2026-04-25T13:53:45Z</time></trkpt><trkpt lat="59.0750312805" lon="30.0318574905"><time>2026-04-25T13:53:48Z</time></trkpt><trkpt lat="59.0750312805" lon="30.0318574905"><time>2026-04-25T13:53:50Z</time></trkpt><trkpt lat="59.0750312805" lon="30.0318574905"><time>2026-04-25T13:53:53Z</time></trkpt><trkpt lat="59.0750312805" lon="30.0318574905"><time>2026-04-25T13:53:55Z</time></trkpt><trkpt lat="59.0750312805" lon="30.0318574905"><time>2026-04-25T13:53:58Z</time></trkpt><trkpt lat="59.0750312805" lon="30.0318574905"><time>2026-04-25T13:54:00Z</time></trkpt><trkpt lat="59.0750312805" lon="30.0318574905"><time>2026-04-25T13:54:03Z</time></trkpt><trkpt lat="59.0750312805" lon="30.0318574905"><time>2026-04-25T13:54:05Z</time></trkpt><trkpt lat="59.0750312805" lon="30.0318574905"><time>2026-04-25T13:54:08Z</time></trkpt><trkpt lat="59.0750312805" lon="30.0318360329"><time>2026-04-25T13:54:11Z</time></trkpt><trkpt lat="59.0750312805" lon="30.0318145752"><time>2026-04-25T13:54:13Z</time></trkpt><trkpt lat="59.0750312805" lon="30.0317931175"><time>2026-04-25T13:54:15Z</time></trkpt><trkpt lat="59.0750312805" lon="30.0317716599"><time>2026-04-25T13:54:18Z</time></trkpt><trkpt lat="59.0750527382" lon="30.0317502022"><time>2026-04-25T13:54:20Z</time></trkpt><trkpt lat="59.0750527382" lon="30.0317287445"><time>2026-04-25T13:54:23Z</time></trkpt><trkpt lat="59.0750527382" lon="30.0317287445"><time>2026-04-25T13:54:25Z</time></trkpt><trkpt lat="59.0750312805" lon="30.0316858292"><time>2026-04-25T13:54:28Z</time></trkpt><trkpt lat="59.0750098228" lon="30.0315999985"><time>2026-04-25T13:54:30Z</time></trkpt><trkpt lat="59.0749883652" lon="30.0315356255"><time>2026-04-25T13:54:33Z</time></trkpt><trkpt lat="59.0749669075" lon="30.0314927101"><time>2026-04-25T13:54:36Z</time></trkpt><trkpt lat="59.0749669075" lon="30.0314712524"><time>2026-04-25T13:54:38Z</time></trkpt><trkpt lat="59.0749669075" lon="30.0314712524"><time>2026-04-25T13:54:40Z</time></trkpt><trkpt lat="59.0749669075" lon="30.0314712524"><time>2026-04-25T13:54:43Z</time></trkpt><trkpt lat="59.0749669075" lon="30.0314712524"><time>2026-04-25T13:54:45Z</time></trkpt><trkpt lat="59.0749669075" lon="30.0314712524"><time>2026-04-25T13:54:48Z</time></trkpt><trkpt lat="59.0749669075" lon="30.0314712524"><time>2026-04-25T13:54:50Z</time></trkpt><trkpt lat="59.0749669075" lon="30.0314712524"><time>2026-04-25T13:54:53Z</time></trkpt><trkpt lat="59.0749669075" lon="30.0314712524"><time>2026-04-25T13:54:55Z</time></trkpt><trkpt lat="59.0749669075" lon="30.0314712524"><time>2026-04-25T13:54:58Z</time></trkpt><trkpt lat="59.0749669075" lon="30.0314712524"><time>2026-04-25T13:55:00Z</time></trkpt><trkpt lat="59.0749669075" lon="30.0314712524"><time>2026-04-25T13:55:03Z</time></trkpt><trkpt lat="59.0749454498" lon="30.0313639641"><time>2026-04-25T13:55:06Z</time></trkpt><trkpt lat="59.0749239922" lon="30.0312781334"><time>2026-04-25T13:55:08Z</time></trkpt><trkpt lat="59.0749025345" lon="30.0311708450"><time>2026-04-25T13:55:10Z</time></trkpt><trkpt lat="59.0749025345" lon="30.0310850143"><time>2026-04-25T13:55:13Z</time></trkpt><trkpt lat="59.0748810768" lon="30.0310420990"><time>2026-04-25T13:55:15Z</time></trkpt><trkpt lat="59.0748810768" lon="30.0309991837"><time>2026-04-25T13:55:18Z</time></trkpt><trkpt lat="59.0748596191" lon="30.0309562683"><time>2026-04-25T13:55:20Z</time></trkpt><trkpt lat="59.0748596191" lon="30.0308918953"><time>2026-04-25T13:55:23Z</time></trkpt><trkpt lat="59.0748381615" lon="30.0308489799"><time>2026-04-25T13:55:25Z</time></trkpt><trkpt lat="59.0748381615" lon="30.0308060646"><time>2026-04-25T13:55:28Z</time></trkpt><trkpt lat="59.0748167038" lon="30.0307631493"><time>2026-04-25T13:55:31Z</time></trkpt><trkpt lat="59.0748167038" lon="30.0307202339"><time>2026-04-25T13:55:33Z</time></trkpt><trkpt lat="59.0748167038" lon="30.0306987762"><time>2026-04-25T13:55:35Z</time></trkpt><trkpt lat="59.0747952461" lon="30.0306558609"><time>2026-04-25T13:55:38Z</time></trkpt><trkpt lat="59.0747952461" lon="30.0306344032"><time>2026-04-25T13:55:40Z</time></trkpt><trkpt lat="59.0747952461" lon="30.0305914879"><time>2026-04-25T13:55:43Z</time></trkpt><trkpt lat="59.0747737885" lon="30.0305485725"><time>2026-04-25T13:55:45Z</time></trkpt><trkpt lat="59.0747737885" lon="30.0305056572"><time>2026-04-25T13:55:48Z</time></trkpt><trkpt lat="59.0747737885" lon="30.0305056572"><time>2026-04-25T13:55:51Z</time></trkpt><trkpt lat="59.0747523308" lon="30.0304627419"><time>2026-04-25T13:55:53Z</time></trkpt><trkpt lat="59.0747308731" lon="30.0304412842"><time>2026-04-25T13:55:55Z</time></trkpt><trkpt lat="59.0747094154" lon="30.0303983688"><time>2026-04-25T13:55:58Z</time></trkpt><trkpt lat="59.0746665001" lon="30.0303554535"><time>2026-04-25T13:56:00Z</time></trkpt><trkpt lat="59.0746235847" lon="30.0303554535"><time>2026-04-25T13:56:03Z</time></trkpt><trkpt lat="59.0746021271" lon="30.0303769112"><time>2026-04-25T13:56:05Z</time></trkpt><trkpt lat="59.0746235847" lon="30.0303554535"><time>2026-04-25T13:56:08Z</time></trkpt><trkpt lat="59.0746021271" lon="30.0303554535"><time>2026-04-25T13:56:10Z</time></trkpt><trkpt lat="59.0746235847" lon="30.0303769112"><time>2026-04-25T13:56:13Z</time></trkpt><trkpt lat="59.0746235847" lon="30.0303554535"><time>2026-04-25T13:56:15Z</time></trkpt><trkpt lat="59.0746021271" lon="30.0303554535"><time>2026-04-25T13:56:18Z</time></trkpt><trkpt lat="59.0746235847" lon="30.0303769112"><time>2026-04-25T13:56:20Z</time></trkpt><trkpt lat="59.0746450424" lon="30.0303554535"><time>2026-04-25T13:56:23Z</time></trkpt><trkpt lat="59.0746450424" lon="30.0303125381"><time>2026-04-25T13:56:25Z</time></trkpt><trkpt lat="59.0746450424" lon="30.0302910805"><time>2026-04-25T13:56:28Z</time></trkpt><trkpt lat="59.0746665001" lon="30.0301837921"><time>2026-04-25T13:56:30Z</time></trkpt><trkpt lat="59.0746665001" lon="30.0301194191"><time>2026-04-25T13:56:33Z</time></trkpt><trkpt lat="59.0746879578" lon="30.0300765038"><time>2026-04-25T13:56:35Z</time></trkpt><trkpt lat="59.0746879578" lon="30.0300765038"><time>2026-04-25T13:56:38Z</time></trkpt><trkpt lat="59.0746879578" lon="30.0300335884"><time>2026-04-25T13:56:40Z</time></trkpt><trkpt lat="59.0746879578" lon="30.0300335884"><time>2026-04-25T13:56:43Z</time></trkpt><trkpt lat="59.0746879578" lon="30.0300121307"><time>2026-04-25T13:56:45Z</time></trkpt><trkpt lat="59.0746665001" lon="30.0299263000"><time>2026-04-25T13:56:48Z</time></trkpt><trkpt lat="59.0746450424" lon="30.0298619270"><time>2026-04-25T13:56:50Z</time></trkpt><trkpt lat="59.0746021271" lon="30.0298190117"><time>2026-04-25T13:56:53Z</time></trkpt><trkpt lat="59.0745806694" lon="30.0298190117"><time>2026-04-25T13:56:55Z</time></trkpt><trkpt lat="59.0745592117" lon="30.0298190117"><time>2026-04-25T13:56:58Z</time></trkpt><trkpt lat="59.0745592117" lon="30.0298190117"><time>2026-04-25T13:57:00Z</time></trkpt><trkpt lat="59.0745592117" lon="30.0297760963"><time>2026-04-25T13:57:03Z</time></trkpt><trkpt lat="59.0746021271" lon="30.0296688080"><time>2026-04-25T13:57:05Z</time></trkpt><trkpt lat="59.0746235847" lon="30.0296902657"><time>2026-04-25T13:57:08Z</time></trkpt><trkpt lat="59.0746450424" lon="30.0296258926"><time>2026-04-25T13:57:10Z</time></trkpt><trkpt lat="59.0746450424" lon="30.0295400620"><time>2026-04-25T13:57:13Z</time></trkpt><trkpt lat="59.0746450424" lon="30.0294756889"><time>2026-04-25T13:57:15Z</time></trkpt><trkpt lat="59.0746450424" lon="30.0293684006"><time>2026-04-25T13:57:18Z</time></trkpt><trkpt lat="59.0746665001" lon="30.0292825699"><time>2026-04-25T13:57:20Z</time></trkpt><trkpt lat="59.0746450424" lon="30.0292181969"><time>2026-04-25T13:57:23Z</time></trkpt><trkpt lat="59.0746235847" lon="30.0291752815"><time>2026-04-25T13:57:25Z</time></trkpt><trkpt lat="59.0746235847" lon="30.0291109085"><time>2026-04-25T13:57:28Z</time></trkpt><trkpt lat="59.0746235847" lon="30.0291109085"><time>2026-04-25T13:57:30Z</time></trkpt><trkpt lat="59.0746021271" lon="30.0291752815"><time>2026-04-25T13:57:33Z</time></trkpt><trkpt lat="59.0745806694" lon="30.0291967392"><time>2026-04-25T13:57:35Z</time></trkpt><trkpt lat="59.0745592117" lon="30.0291967392"><time>2026-04-25T13:57:38Z</time></trkpt><trkpt lat="59.0745377541" lon="30.0291109085"><time>2026-04-25T13:57:40Z</time></trkpt><trkpt lat="59.0745162964" lon="30.0291323662"><time>2026-04-25T13:57:43Z</time></trkpt><trkpt lat="59.0744948387" lon="30.0291109085"><time>2026-04-25T13:57:45Z</time></trkpt><trkpt lat="59.0744948387" lon="30.0291109085"><time>2026-04-25T13:57:48Z</time></trkpt><trkpt lat="59.0744948387" lon="30.0291109085"><time>2026-04-25T13:57:50Z</time></trkpt><trkpt lat="59.0745162964" lon="30.0290465355"><time>2026-04-25T13:57:53Z</time></trkpt><trkpt lat="59.0745162964" lon="30.0289821625"><time>2026-04-25T13:57:55Z</time></trkpt><trkpt lat="59.0745377541" lon="30.0289392471"><time>2026-04-25T13:57:58Z</time></trkpt><trkpt lat="59.0745592117" lon="30.0289392471"><time>2026-04-25T13:58:00Z</time></trkpt><trkpt lat="59.0745592117" lon="30.0288963318"><time>2026-04-25T13:58:03Z</time></trkpt><trkpt lat="59.0745592117" lon="30.0288748741"><time>2026-04-25T13:58:05Z</time></trkpt><trkpt lat="59.0745592117" lon="30.0288534164"><time>2026-04-25T13:58:08Z</time></trkpt><trkpt lat="59.0745592117" lon="30.0288105011"><time>2026-04-25T13:58:11Z</time></trkpt><trkpt lat="59.0745806694" lon="30.0287675858"><time>2026-04-25T13:58:13Z</time></trkpt><trkpt lat="59.0745806694" lon="30.0287246704"><time>2026-04-25T13:58:15Z</time></trkpt><trkpt lat="59.0745806694" lon="30.0287246704"><time>2026-04-25T13:58:18Z</time></trkpt><trkpt lat="59.0746021271" lon="30.0286817551"><time>2026-04-25T13:58:20Z</time></trkpt><trkpt lat="59.0746021271" lon="30.0286388397"><time>2026-04-25T13:58:23Z</time></trkpt><trkpt lat="59.0746235847" lon="30.0285744667"><time>2026-04-25T13:58:25Z</time></trkpt><trkpt lat="59.0746450424" lon="30.0285100937"><time>2026-04-25T13:58:28Z</time></trkpt><trkpt lat="59.0746235847" lon="30.0284886360"><time>2026-04-25T13:58:30Z</time></trkpt><trkpt lat="59.0746021271" lon="30.0284886360"><time>2026-04-25T13:58:33Z</time></trkpt><trkpt lat="59.0746021271" lon="30.0284671783"><time>2026-04-25T13:58:36Z</time></trkpt><trkpt lat="59.0746021271" lon="30.0284671783"><time>2026-04-25T13:58:38Z</time></trkpt><trkpt lat="59.0746021271" lon="30.0284671783"><time>2026-04-25T13:58:40Z</time></trkpt><trkpt lat="59.0746021271" lon="30.0284671783"><time>2026-04-25T13:58:43Z</time></trkpt><trkpt lat="59.0746021271" lon="30.0284671783"><time>2026-04-25T13:58:45Z</time></trkpt><trkpt lat="59.0746021271" lon="30.0284671783"><time>2026-04-25T13:58:48Z</time></trkpt><trkpt lat="59.0745806694" lon="30.0284242630"><time>2026-04-25T13:58:50Z</time></trkpt><trkpt lat="59.0745592117" lon="30.0283598900"><time>2026-04-25T13:58:53Z</time></trkpt><trkpt lat="59.0745377541" lon="30.0282955170"><time>2026-04-25T13:58:55Z</time></trkpt><trkpt lat="59.0744948387" lon="30.0282096863"><time>2026-04-25T13:58:58Z</time></trkpt><trkpt lat="59.0744948387" lon="30.0281238556"><time>2026-04-25T13:59:01Z</time></trkpt><trkpt lat="59.0744733810" lon="30.0280809402"><time>2026-04-25T13:59:03Z</time></trkpt><trkpt lat="59.0744304657" lon="30.0280380249"><time>2026-04-25T13:59:05Z</time></trkpt><trkpt lat="59.0744090080" lon="30.0280380249"><time>2026-04-25T13:59:08Z</time></trkpt><trkpt lat="59.0743660927" lon="30.0280594826"><time>2026-04-25T13:59:10Z</time></trkpt><trkpt lat="59.0743660927" lon="30.0280594826"><time>2026-04-25T13:59:13Z</time></trkpt><trkpt lat="59.0743660927" lon="30.0280809402"><time>2026-04-25T13:59:15Z</time></trkpt><trkpt lat="59.0743446350" lon="30.0281238556"><time>2026-04-25T13:59:18Z</time></trkpt><trkpt lat="59.0743660927" lon="30.0281882286"><time>2026-04-25T13:59:21Z</time></trkpt><trkpt lat="59.0743660927" lon="30.0281882286"><time>2026-04-25T13:59:23Z</time></trkpt><trkpt lat="59.0743231773" lon="30.0282096863"><time>2026-04-25T13:59:25Z</time></trkpt><trkpt lat="59.0742802620" lon="30.0282526016"><time>2026-04-25T13:59:28Z</time></trkpt><trkpt lat="59.0742588043" lon="30.0282740593"><time>2026-04-25T13:59:30Z</time></trkpt><trkpt lat="59.0742802620" lon="30.0282311440"><time>2026-04-25T13:59:33Z</time></trkpt><trkpt lat="59.0743017197" lon="30.0282096863"><time>2026-04-25T13:59:35Z</time></trkpt><trkpt lat="59.0743231773" lon="30.0281453133"><time>2026-04-25T13:59:38Z</time></trkpt><trkpt lat="59.0743231773" lon="30.0281453133"><time>2026-04-25T13:59:40Z</time></trkpt><trkpt lat="59.0743231773" lon="30.0281453133"><time>2026-04-25T13:59:43Z</time></trkpt><trkpt lat="59.0743231773" lon="30.0281453133"><time>2026-04-25T13:59:46Z</time></trkpt><trkpt lat="59.0743231773" lon="30.0281453133"><time>2026-04-25T13:59:48Z</time></trkpt><trkpt lat="59.0743231773" lon="30.0281453133"><time>2026-04-25T13:59:50Z</time></trkpt><trkpt lat="59.0743231773" lon="30.0281453133"><time>2026-04-25T13:59:53Z</time></trkpt><trkpt lat="59.0743231773" lon="30.0281453133"><time>2026-04-25T13:59:55Z</time></trkpt><trkpt lat="59.0743231773" lon="30.0281453133"><time>2026-04-25T13:59:58Z</time></trkpt><trkpt lat="59.0743231773" lon="30.0281453133"><time>2026-04-25T14:00:00Z</time></trkpt><trkpt lat="59.0743231773" lon="30.0281453133"><time>2026-04-25T14:00:03Z</time></trkpt><trkpt lat="59.0743231773" lon="30.0281453133"><time>2026-04-25T14:00:05Z</time></trkpt><trkpt lat="59.0743231773" lon="30.0281453133"><time>2026-04-25T14:00:08Z</time></trkpt><trkpt lat="59.0743231773" lon="30.0281453133"><time>2026-04-25T14:00:10Z</time></trkpt><trkpt lat="59.0743231773" lon="30.0281453133"><time>2026-04-25T14:00:13Z</time></trkpt><trkpt lat="59.0743231773" lon="30.0281453133"><time>2026-04-25T14:00:16Z</time></trkpt><trkpt lat="59.0743231773" lon="30.0281667709"><time>2026-04-25T14:00:18Z</time></trkpt><trkpt lat="59.0743231773" lon="30.0281667709"><time>2026-04-25T14:00:20Z</time></trkpt><trkpt lat="59.0743231773" lon="30.0281667709"><time>2026-04-25T14:00:23Z</time></trkpt><trkpt lat="59.0743231773" lon="30.0281667709"><time>2026-04-25T14:00:25Z</time></trkpt><trkpt lat="59.0743231773" lon="30.0281667709"><time>2026-04-25T14:00:28Z</time></trkpt><trkpt lat="59.0743231773" lon="30.0281667709"><time>2026-04-25T14:00:30Z</time></trkpt><trkpt lat="59.0743231773" lon="30.0281667709"><time>2026-04-25T14:00:33Z</time></trkpt><trkpt lat="59.0743231773" lon="30.0281667709"><time>2026-04-25T14:00:35Z</time></trkpt><trkpt lat="59.0743231773" lon="30.0281667709"><time>2026-04-25T14:00:38Z</time></trkpt><trkpt lat="59.0743231773" lon="30.0281667709"><time>2026-04-25T14:00:41Z</time></trkpt><trkpt lat="59.0743231773" lon="30.0281667709"><time>2026-04-25T14:00:43Z</time></trkpt><trkpt lat="59.0743231773" lon="30.0281667709"><time>2026-04-25T14:00:45Z</time></trkpt><trkpt lat="59.0743231773" lon="30.0281667709"><time>2026-04-25T14:00:48Z</time></trkpt><trkpt lat="59.0743231773" lon="30.0281667709"><time>2026-04-25T14:00:50Z</time></trkpt><trkpt lat="59.0743231773" lon="30.0281667709"><time>2026-04-25T14:00:53Z</time></trkpt><trkpt lat="59.0743231773" lon="30.0281667709"><time>2026-04-25T14:00:55Z</time></trkpt><trkpt lat="59.0743231773" lon="30.0281667709"><time>2026-04-25T14:00:58Z</time></trkpt><trkpt lat="59.0743231773" lon="30.0281667709"><time>2026-04-25T14:01:00Z</time></trkpt><trkpt lat="59.0743231773" lon="30.0281667709"><time>2026-04-25T14:01:03Z</time></trkpt><trkpt lat="59.0743231773" lon="30.0281667709"><time>2026-04-25T14:01:06Z</time></trkpt><trkpt lat="59.0743231773" lon="30.0281667709"><time>2026-04-25T14:01:08Z</time></trkpt><trkpt lat="59.0743231773" lon="30.0281667709"><time>2026-04-25T14:01:10Z</time></trkpt><trkpt lat="59.0743231773" lon="30.0281667709"><time>2026-04-25T14:01:13Z</time></trkpt><trkpt lat="59.0743231773" lon="30.0281667709"><time>2026-04-25T14:01:15Z</time></trkpt><trkpt lat="59.0743231773" lon="30.0281667709"><time>2026-04-25T14:01:18Z</time></trkpt><trkpt lat="59.0743231773" lon="30.0281667709"><time>2026-04-25T14:01:20Z</time></trkpt><trkpt lat="59.0743231773" lon="30.0281667709"><time>2026-04-25T14:01:23Z</time></trkpt><trkpt lat="59.0743231773" lon="30.0281667709"><time>2026-04-25T14:01:25Z</time></trkpt><trkpt lat="59.0743231773" lon="30.0281667709"><time>2026-04-25T14:01:28Z</time></trkpt><trkpt lat="59.0743231773" lon="30.0281667709"><time>2026-04-25T14:01:31Z</time></trkpt><trkpt lat="59.0743231773" lon="30.0281667709"><time>2026-04-25T14:01:33Z</time></trkpt><trkpt lat="59.0743231773" lon="30.0281667709"><time>2026-04-25T14:01:35Z</time></trkpt><trkpt lat="59.0743231773" lon="30.0281667709"><time>2026-04-25T14:01:38Z</time></trkpt><trkpt lat="59.0743231773" lon="30.0281667709"><time>2026-04-25T14:01:40Z</time></trkpt><trkpt lat="59.0743231773" lon="30.0281882286"><time>2026-04-25T14:01:43Z</time></trkpt><trkpt lat="59.0743231773" lon="30.0281882286"><time>2026-04-25T14:01:45Z</time></trkpt><trkpt lat="59.0743231773" lon="30.0281882286"><time>2026-04-25T14:01:48Z</time></trkpt><trkpt lat="59.0743231773" lon="30.0281882286"><time>2026-04-25T14:01:50Z</time></trkpt><trkpt lat="59.0743231773" lon="30.0281882286"><time>2026-04-25T14:01:53Z</time></trkpt><trkpt lat="59.0743231773" lon="30.0281882286"><time>2026-04-25T14:01:55Z</time></trkpt><trkpt lat="59.0743231773" lon="30.0281882286"><time>2026-04-25T14:01:58Z</time></trkpt><trkpt lat="59.0743231773" lon="30.0281882286"><time>2026-04-25T14:02:00Z</time></trkpt><trkpt lat="59.0743231773" lon="30.0281882286"><time>2026-04-25T14:02:03Z</time></trkpt><trkpt lat="59.0743231773" lon="30.0281882286"><time>2026-04-25T14:02:05Z</time></trkpt><trkpt lat="59.0743231773" lon="30.0281882286"><time>2026-04-25T14:02:08Z</time></trkpt><trkpt lat="59.0743231773" lon="30.0281882286"><time>2026-04-25T14:02:10Z</time></trkpt><trkpt lat="59.0743231773" lon="30.0282096863"><time>2026-04-25T14:02:13Z</time></trkpt><trkpt lat="59.0743231773" lon="30.0282096863"><time>2026-04-25T14:02:15Z</time></trkpt><trkpt lat="59.0743231773" lon="30.0282096863"><time>2026-04-25T14:02:18Z</time></trkpt><trkpt lat="59.0743231773" lon="30.0282096863"><time>2026-04-25T14:02:21Z</time></trkpt><trkpt lat="59.0743231773" lon="30.0282096863"><time>2026-04-25T14:02:23Z</time></trkpt><trkpt lat="59.0743231773" lon="30.0282096863"><time>2026-04-25T14:02:25Z</time></trkpt><trkpt lat="59.0743231773" lon="30.0282096863"><time>2026-04-25T14:02:28Z</time></trkpt><trkpt lat="59.0742802620" lon="30.0282526016"><time>2026-04-25T14:02:30Z</time></trkpt><trkpt lat="59.0742373466" lon="30.0282740593"><time>2026-04-25T14:02:33Z</time></trkpt><trkpt lat="59.0741944313" lon="30.0282955170"><time>2026-04-25T14:02:35Z</time></trkpt><trkpt lat="59.0741515160" lon="30.0283169746"><time>2026-04-25T14:02:38Z</time></trkpt><trkpt lat="59.0741300583" lon="30.0283384323"><time>2026-04-25T14:02:40Z</time></trkpt><trkpt lat="59.0741086006" lon="30.0283598900"><time>2026-04-25T14:02:43Z</time></trkpt><trkpt lat="59.0740871429" lon="30.0283813477"><time>2026-04-25T14:02:45Z</time></trkpt><trkpt lat="59.0740871429" lon="30.0284028053"><time>2026-04-25T14:02:48Z</time></trkpt><trkpt lat="59.0740656853" lon="30.0284457207"><time>2026-04-25T14:02:51Z</time></trkpt><trkpt lat="59.0740442276" lon="30.0284457207"><time>2026-04-25T14:02:53Z</time></trkpt><trkpt lat="59.0740227699" lon="30.0284457207"><time>2026-04-25T14:02:55Z</time></trkpt><trkpt lat="59.0740013123" lon="30.0284457207"><time>2026-04-25T14:02:58Z</time></trkpt><trkpt lat="59.0740013123" lon="30.0284457207"><time>2026-04-25T14:03:00Z</time></trkpt><trkpt lat="59.0739798546" lon="30.0284457207"><time>2026-04-25T14:03:03Z</time></trkpt><trkpt lat="59.0739798546" lon="30.0284457207"><time>2026-04-25T14:03:05Z</time></trkpt><trkpt lat="59.0739798546" lon="30.0284671783"><time>2026-04-25T14:03:08Z</time></trkpt><trkpt lat="59.0739798546" lon="30.0284457207"><time>2026-04-25T14:03:10Z</time></trkpt><trkpt lat="59.0739798546" lon="30.0284457207"><time>2026-04-25T14:03:13Z</time></trkpt><trkpt lat="59.0739798546" lon="30.0284457207"><time>2026-04-25T14:03:15Z</time></trkpt><trkpt lat="59.0739798546" lon="30.0284457207"><time>2026-04-25T14:03:18Z</time></trkpt><trkpt lat="59.0739798546" lon="30.0284457207"><time>2026-04-25T14:03:20Z</time></trkpt><trkpt lat="59.0739798546" lon="30.0284457207"><time>2026-04-25T14:03:23Z</time></trkpt><trkpt lat="59.0739798546" lon="30.0284457207"><time>2026-04-25T14:03:25Z</time></trkpt><trkpt lat="59.0739798546" lon="30.0284457207"><time>2026-04-25T14:03:28Z</time></trkpt><trkpt lat="59.0739798546" lon="30.0285100937"><time>2026-04-25T14:03:30Z</time></trkpt><trkpt lat="59.0739583969" lon="30.0285744667"><time>2026-04-25T14:03:33Z</time></trkpt><trkpt lat="59.0739369392" lon="30.0286173820"><time>2026-04-25T14:03:35Z</time></trkpt><trkpt lat="59.0739369392" lon="30.0286388397"><time>2026-04-25T14:03:38Z</time></trkpt><trkpt lat="59.0739154816" lon="30.0286817551"><time>2026-04-25T14:03:40Z</time></trkpt><trkpt lat="59.0739154816" lon="30.0287246704"><time>2026-04-25T14:03:43Z</time></trkpt><trkpt lat="59.0738940239" lon="30.0287461281"><time>2026-04-25T14:03:45Z</time></trkpt><trkpt lat="59.0738940239" lon="30.0287461281"><time>2026-04-25T14:03:48Z</time></trkpt><trkpt lat="59.0738940239" lon="30.0287461281"><time>2026-04-25T14:03:50Z</time></trkpt><trkpt lat="59.0738940239" lon="30.0287461281"><time>2026-04-25T14:03:53Z</time></trkpt><trkpt lat="59.0739154816" lon="30.0287461281"><time>2026-04-25T14:03:55Z</time></trkpt><trkpt lat="59.0739154816" lon="30.0287461281"><time>2026-04-25T14:03:58Z</time></trkpt><trkpt lat="59.0739154816" lon="30.0287461281"><time>2026-04-25T14:04:00Z</time></trkpt><trkpt lat="59.0739154816" lon="30.0287461281"><time>2026-04-25T14:04:03Z</time></trkpt><trkpt lat="59.0739154816" lon="30.0287461281"><time>2026-04-25T14:04:06Z</time></trkpt><trkpt lat="59.0739154816" lon="30.0287461281"><time>2026-04-25T14:04:08Z</time></trkpt><trkpt lat="59.0739154816" lon="30.0287461281"><time>2026-04-25T14:04:10Z</time></trkpt><trkpt lat="59.0739154816" lon="30.0287461281"><time>2026-04-25T14:04:13Z</time></trkpt><trkpt lat="59.0739154816" lon="30.0287461281"><time>2026-04-25T14:04:15Z</time></trkpt><trkpt lat="59.0739154816" lon="30.0287461281"><time>2026-04-25T14:04:18Z</time></trkpt><trkpt lat="59.0739154816" lon="30.0287461281"><time>2026-04-25T14:04:20Z</time></trkpt><trkpt lat="59.0739154816" lon="30.0287461281"><time>2026-04-25T14:04:23Z</time></trkpt><trkpt lat="59.0739154816" lon="30.0287461281"><time>2026-04-25T14:04:25Z</time></trkpt><trkpt lat="59.0738940239" lon="30.0287461281"><time>2026-04-25T14:04:28Z</time></trkpt><trkpt lat="59.0738940239" lon="30.0287461281"><time>2026-04-25T14:04:31Z</time></trkpt><trkpt lat="59.0738940239" lon="30.0287461281"><time>2026-04-25T14:04:33Z</time></trkpt><trkpt lat="59.0738940239" lon="30.0287461281"><time>2026-04-25T14:04:36Z</time></trkpt><trkpt lat="59.0738940239" lon="30.0287461281"><time>2026-04-25T14:04:38Z</time></trkpt><trkpt lat="59.0738940239" lon="30.0287461281"><time>2026-04-25T14:04:40Z</time></trkpt><trkpt lat="59.0738940239" lon="30.0287461281"><time>2026-04-25T14:04:43Z</time></trkpt><trkpt lat="59.0738940239" lon="30.0287461281"><time>2026-04-25T14:04:45Z</time></trkpt><trkpt lat="59.0738940239" lon="30.0287461281"><time>2026-04-25T14:04:48Z</time></trkpt><trkpt lat="59.0739154816" lon="30.0288319588"><time>2026-04-25T14:04:50Z</time></trkpt><trkpt lat="59.0739154816" lon="30.0288963318"><time>2026-04-25T14:04:53Z</time></trkpt><trkpt lat="59.0739154816" lon="30.0289177895"><time>2026-04-25T14:04:55Z</time></trkpt><trkpt lat="59.0739369392" lon="30.0289392471"><time>2026-04-25T14:04:58Z</time></trkpt><trkpt lat="59.0739369392" lon="30.0289607048"><time>2026-04-25T14:05:01Z</time></trkpt><trkpt lat="59.0739583969" lon="30.0289821625"><time>2026-04-25T14:05:03Z</time></trkpt><trkpt lat="59.0739583969" lon="30.0290036201"><time>2026-04-25T14:05:05Z</time></trkpt><trkpt lat="59.0739583969" lon="30.0290250778"><time>2026-04-25T14:05:08Z</time></trkpt><trkpt lat="59.0740013123" lon="30.0290250778"><time>2026-04-25T14:05:10Z</time></trkpt><trkpt lat="59.0740013123" lon="30.0290465355"><time>2026-04-25T14:05:13Z</time></trkpt><trkpt lat="59.0740013123" lon="30.0290465355"><time>2026-04-25T14:05:15Z</time></trkpt><trkpt lat="59.0740013123" lon="30.0290679932"><time>2026-04-25T14:05:18Z</time></trkpt><trkpt lat="59.0740013123" lon="30.0290679932"><time>2026-04-25T14:05:21Z</time></trkpt><trkpt lat="59.0740013123" lon="30.0290894508"><time>2026-04-25T14:05:23Z</time></trkpt><trkpt lat="59.0740227699" lon="30.0291323662"><time>2026-04-25T14:05:25Z</time></trkpt><trkpt lat="59.0740227699" lon="30.0291752815"><time>2026-04-25T14:05:28Z</time></trkpt><trkpt lat="59.0740227699" lon="30.0292181969"><time>2026-04-25T14:05:30Z</time></trkpt><trkpt lat="59.0740013123" lon="30.0292396545"><time>2026-04-25T14:05:33Z</time></trkpt><trkpt lat="59.0740227699" lon="30.0292396545"><time>2026-04-25T14:05:35Z</time></trkpt><trkpt lat="59.0740227699" lon="30.0292611122"><time>2026-04-25T14:05:38Z</time></trkpt><trkpt lat="59.0740013123" lon="30.0292825699"><time>2026-04-25T14:05:40Z</time></trkpt><trkpt lat="59.0740227699" lon="30.0293040276"><time>2026-04-25T14:05:43Z</time></trkpt><trkpt lat="59.0740442276" lon="30.0293898582"><time>2026-04-25T14:05:45Z</time></trkpt><trkpt lat="59.0740871429" lon="30.0294542313"><time>2026-04-25T14:05:48Z</time></trkpt><trkpt lat="59.0740871429" lon="30.0294756889"><time>2026-04-25T14:05:50Z</time></trkpt><trkpt lat="59.0740871429" lon="30.0294756889"><time>2026-04-25T14:05:53Z</time></trkpt><trkpt lat="59.0740871429" lon="30.0295400620"><time>2026-04-25T14:05:55Z</time></trkpt><trkpt lat="59.0741086006" lon="30.0295615196"><time>2026-04-25T14:05:58Z</time></trkpt><trkpt lat="59.0741300583" lon="30.0295615196"><time>2026-04-25T14:06:00Z</time></trkpt><trkpt lat="59.0741515160" lon="30.0295400620"><time>2026-04-25T14:06:03Z</time></trkpt><trkpt lat="59.0741515160" lon="30.0295400620"><time>2026-04-25T14:06:06Z</time></trkpt><trkpt lat="59.0741729736" lon="30.0295615196"><time>2026-04-25T14:06:08Z</time></trkpt><trkpt lat="59.0741944313" lon="30.0296258926"><time>2026-04-25T14:06:11Z</time></trkpt><trkpt lat="59.0742373466" lon="30.0297546387"><time>2026-04-25T14:06:18Z</time></trkpt><trkpt lat="59.0742373466" lon="30.0297975540"><time>2026-04-25T14:06:20Z</time></trkpt><trkpt lat="59.0742158890" lon="30.0298619270"><time>2026-04-25T14:06:23Z</time></trkpt><trkpt lat="59.0741944313" lon="30.0299263000"><time>2026-04-25T14:06:25Z</time></trkpt><trkpt lat="59.0741944313" lon="30.0299263000"><time>2026-04-25T14:06:28Z</time></trkpt><trkpt lat="59.0741944313" lon="30.0298833847"><time>2026-04-25T14:06:30Z</time></trkpt><trkpt lat="59.0741944313" lon="30.0298619270"><time>2026-04-25T14:06:33Z</time></trkpt><trkpt lat="59.0741729736" lon="30.0298833847"><time>2026-04-25T14:06:36Z</time></trkpt><trkpt lat="59.0741729736" lon="30.0299048424"><time>2026-04-25T14:06:38Z</time></trkpt><trkpt lat="59.0741729736" lon="30.0299477577"><time>2026-04-25T14:06:40Z</time></trkpt><trkpt lat="59.0741729736" lon="30.0299906731"><time>2026-04-25T14:06:43Z</time></trkpt><trkpt lat="59.0741729736" lon="30.0300550461"><time>2026-04-25T14:06:45Z</time></trkpt><trkpt lat="59.0741729736" lon="30.0301194191"><time>2026-04-25T14:06:48Z</time></trkpt><trkpt lat="59.0741515160" lon="30.0301194191"><time>2026-04-25T14:06:50Z</time></trkpt><trkpt lat="59.0741515160" lon="30.0301194191"><time>2026-04-25T14:06:53Z</time></trkpt><trkpt lat="59.0741515160" lon="30.0301623344"><time>2026-04-25T14:06:55Z</time></trkpt><trkpt lat="59.0741515160" lon="30.0302052498"><time>2026-04-25T14:06:58Z</time></trkpt><trkpt lat="59.0741515160" lon="30.0302267075"><time>2026-04-25T14:07:01Z</time></trkpt><trkpt lat="59.0741515160" lon="30.0302267075"><time>2026-04-25T14:07:03Z</time></trkpt><trkpt lat="59.0741300583" lon="30.0302696228"><time>2026-04-25T14:07:05Z</time></trkpt><trkpt lat="59.0741300583" lon="30.0302481651"><time>2026-04-25T14:07:08Z</time></trkpt><trkpt lat="59.0741729736" lon="30.0302481651"><time>2026-04-25T14:07:10Z</time></trkpt><trkpt lat="59.0741944313" lon="30.0302267075"><time>2026-04-25T14:07:13Z</time></trkpt><trkpt lat="59.0741944313" lon="30.0302910805"><time>2026-04-25T14:07:15Z</time></trkpt><trkpt lat="59.0741944313" lon="30.0303769112"><time>2026-04-25T14:07:18Z</time></trkpt><trkpt lat="59.0742373466" lon="30.0304412842"><time>2026-04-25T14:07:20Z</time></trkpt><trkpt lat="59.0742588043" lon="30.0304841995"><time>2026-04-25T14:07:23Z</time></trkpt><trkpt lat="59.0742802620" lon="30.0304841995"><time>2026-04-25T14:07:25Z</time></trkpt><trkpt lat="59.0743231773" lon="30.0304627419"><time>2026-04-25T14:07:28Z</time></trkpt><trkpt lat="59.0743660927" lon="30.0304198265"><time>2026-04-25T14:07:31Z</time></trkpt><trkpt lat="59.0743875504" lon="30.0304198265"><time>2026-04-25T14:07:33Z</time></trkpt><trkpt lat="59.0744519234" lon="30.0304627419"><time>2026-04-25T14:07:35Z</time></trkpt><trkpt lat="59.0744948387" lon="30.0304412842"><time>2026-04-25T14:07:38Z</time></trkpt><trkpt lat="59.0745377541" lon="30.0304198265"><time>2026-04-25T14:07:40Z</time></trkpt><trkpt lat="59.0745806694" lon="30.0304412842"><time>2026-04-25T14:07:43Z</time></trkpt><trkpt lat="59.0746235847" lon="30.0304841995"><time>2026-04-25T14:07:45Z</time></trkpt><trkpt lat="59.0746665001" lon="30.0305271149"><time>2026-04-25T14:07:48Z</time></trkpt><trkpt lat="59.0747094154" lon="30.0305700302"><time>2026-04-25T14:07:50Z</time></trkpt><trkpt lat="59.0747308731" lon="30.0306558609"><time>2026-04-25T14:07:53Z</time></trkpt><trkpt lat="59.0747523308" lon="30.0307631493"><time>2026-04-25T14:07:55Z</time></trkpt><trkpt lat="59.0747737885" lon="30.0308704376"><time>2026-04-25T14:07:58Z</time></trkpt><trkpt lat="59.0747952461" lon="30.0309777260"><time>2026-04-25T14:08:00Z</time></trkpt><trkpt lat="59.0748381615" lon="30.0309777260"><time>2026-04-25T14:08:03Z</time></trkpt><trkpt lat="59.0748596191" lon="30.0308704376"><time>2026-04-25T14:08:05Z</time></trkpt><trkpt lat="59.0748381615" lon="30.0308060646"><time>2026-04-25T14:08:08Z</time></trkpt><trkpt lat="59.0747737885" lon="30.0307202339"><time>2026-04-25T14:08:10Z</time></trkpt><trkpt lat="59.0747308731" lon="30.0307202339"><time>2026-04-25T14:08:13Z</time></trkpt><trkpt lat="59.0746665001" lon="30.0308060646"><time>2026-04-25T14:08:15Z</time></trkpt><trkpt lat="59.0746021271" lon="30.0308275223"><time>2026-04-25T14:08:18Z</time></trkpt><trkpt lat="59.0746021271" lon="30.0308275223"><time>2026-04-25T14:08:20Z</time></trkpt><trkpt lat="59.0746021271" lon="30.0308275223"><time>2026-04-25T14:08:23Z</time></trkpt><trkpt lat="59.0745592117" lon="30.0309133530"><time>2026-04-25T14:08:25Z</time></trkpt><trkpt lat="59.0745162964" lon="30.0309777260"><time>2026-04-25T14:08:28Z</time></trkpt><trkpt lat="59.0744733810" lon="30.0309991837"><time>2026-04-25T14:08:30Z</time></trkpt><trkpt lat="59.0744519234" lon="30.0310850143"><time>2026-04-25T14:08:33Z</time></trkpt><trkpt lat="59.0744519234" lon="30.0312137604"><time>2026-04-25T14:08:35Z</time></trkpt><trkpt lat="59.0744090080" lon="30.0312995911"><time>2026-04-25T14:08:38Z</time></trkpt><trkpt lat="59.0743660927" lon="30.0313639641"><time>2026-04-25T14:08:40Z</time></trkpt><trkpt lat="59.0743231773" lon="30.0314497948"><time>2026-04-25T14:08:43Z</time></trkpt><trkpt lat="59.0742588043" lon="30.0315141678"><time>2026-04-25T14:08:45Z</time></trkpt><trkpt lat="59.0742158890" lon="30.0314927101"><time>2026-04-25T14:08:48Z</time></trkpt><trkpt lat="59.0741515160" lon="30.0315141678"><time>2026-04-25T14:08:50Z</time></trkpt><trkpt lat="59.0740871429" lon="30.0315356255"><time>2026-04-25T14:08:53Z</time></trkpt><trkpt lat="59.0740227699" lon="30.0315570831"><time>2026-04-25T14:08:55Z</time></trkpt><trkpt lat="59.0739798546" lon="30.0316429138"><time>2026-04-25T14:08:58Z</time></trkpt><trkpt lat="59.0739154816" lon="30.0316858292"><time>2026-04-25T14:09:00Z</time></trkpt><trkpt lat="59.0739369392" lon="30.0316643715"><time>2026-04-25T14:09:03Z</time></trkpt><trkpt lat="59.0740013123" lon="30.0316429138"><time>2026-04-25T14:09:05Z</time></trkpt><trkpt lat="59.0740442276" lon="30.0315785408"><time>2026-04-25T14:09:08Z</time></trkpt><trkpt lat="59.0741086006" lon="30.0315999985"><time>2026-04-25T14:09:10Z</time></trkpt><trkpt lat="59.0741300583" lon="30.0315570831"><time>2026-04-25T14:09:13Z</time></trkpt><trkpt lat="59.0741515160" lon="30.0315785408"><time>2026-04-25T14:09:15Z</time></trkpt><trkpt lat="59.0741729736" lon="30.0315999985"><time>2026-04-25T14:09:18Z</time></trkpt><trkpt lat="59.0741729736" lon="30.0316214561"><time>2026-04-25T14:09:20Z</time></trkpt><trkpt lat="59.0741729736" lon="30.0315999985"><time>2026-04-25T14:09:23Z</time></trkpt><trkpt lat="59.0741729736" lon="30.0315999985"><time>2026-04-25T14:09:25Z</time></trkpt><trkpt lat="59.0741944313" lon="30.0315999985"><time>2026-04-25T14:09:28Z</time></trkpt><trkpt lat="59.0742158890" lon="30.0316429138"><time>2026-04-25T14:09:30Z</time></trkpt><trkpt lat="59.0742158890" lon="30.0317072868"><time>2026-04-25T14:09:33Z</time></trkpt><trkpt lat="59.0742158890" lon="30.0317287445"><time>2026-04-25T14:09:35Z</time></trkpt><trkpt lat="59.0742373466" lon="30.0317502022"><time>2026-04-25T14:09:38Z</time></trkpt><trkpt lat="59.0742802620" lon="30.0317287445"><time>2026-04-25T14:09:40Z</time></trkpt><trkpt lat="59.0743231773" lon="30.0317287445"><time>2026-04-25T14:09:43Z</time></trkpt><trkpt lat="59.0743660927" lon="30.0317502022"><time>2026-04-25T14:09:45Z</time></trkpt><trkpt lat="59.0743875504" lon="30.0317716599"><time>2026-04-25T14:09:48Z</time></trkpt><trkpt lat="59.0743875504" lon="30.0317716599"><time>2026-04-25T14:09:50Z</time></trkpt><trkpt lat="59.0743875504" lon="30.0317716599"><time>2026-04-25T14:09:53Z</time></trkpt><trkpt lat="59.0743660927" lon="30.0317716599"><time>2026-04-25T14:09:55Z</time></trkpt><trkpt lat="59.0743446350" lon="30.0317931175"><time>2026-04-25T14:09:58Z</time></trkpt><trkpt lat="59.0743446350" lon="30.0318574905"><time>2026-04-25T14:10:00Z</time></trkpt><trkpt lat="59.0743446350" lon="30.0318789482"><time>2026-04-25T14:10:03Z</time></trkpt><trkpt lat="59.0743446350" lon="30.0319004059"><time>2026-04-25T14:10:05Z</time></trkpt><trkpt lat="59.0743660927" lon="30.0319218636"><time>2026-04-25T14:10:08Z</time></trkpt><trkpt lat="59.0743446350" lon="30.0319433212"><time>2026-04-25T14:10:10Z</time></trkpt><trkpt lat="59.0743660927" lon="30.0319862366"><time>2026-04-25T14:10:13Z</time></trkpt><trkpt lat="59.0743446350" lon="30.0320076942"><time>2026-04-25T14:10:15Z</time></trkpt><trkpt lat="59.0743660927" lon="30.0320720673"><time>2026-04-25T14:10:18Z</time></trkpt><trkpt lat="59.0743660927" lon="30.0321364403"><time>2026-04-25T14:10:20Z</time></trkpt><trkpt lat="59.0743875504" lon="30.0321364403"><time>2026-04-25T14:10:23Z</time></trkpt><trkpt lat="59.0744090080" lon="30.0321578979"><time>2026-04-25T14:10:25Z</time></trkpt><trkpt lat="59.0744090080" lon="30.0322008133"><time>2026-04-25T14:10:28Z</time></trkpt><trkpt lat="59.0744090080" lon="30.0322651863"><time>2026-04-25T14:10:30Z</time></trkpt><trkpt lat="59.0744090080" lon="30.0323081017"><time>2026-04-25T14:10:33Z</time></trkpt><trkpt lat="59.0743875504" lon="30.0323295593"><time>2026-04-25T14:10:35Z</time></trkpt><trkpt lat="59.0744090080" lon="30.0323510170"><time>2026-04-25T14:10:38Z</time></trkpt><trkpt lat="59.0743875504" lon="30.0323939323"><time>2026-04-25T14:10:40Z</time></trkpt><trkpt lat="59.0743875504" lon="30.0324368477"><time>2026-04-25T14:10:43Z</time></trkpt><trkpt lat="59.0743875504" lon="30.0324583054"><time>2026-04-25T14:10:45Z</time></trkpt><trkpt lat="59.0743875504" lon="30.0325012207"><time>2026-04-25T14:10:48Z</time></trkpt><trkpt lat="59.0744090080" lon="30.0325226784"><time>2026-04-25T14:10:50Z</time></trkpt><trkpt lat="59.0743875504" lon="30.0325226784"><time>2026-04-25T14:10:53Z</time></trkpt><trkpt lat="59.0744090080" lon="30.0325441360"><time>2026-04-25T14:10:55Z</time></trkpt><trkpt lat="59.0744304657" lon="30.0325870514"><time>2026-04-25T14:10:58Z</time></trkpt><trkpt lat="59.0744733810" lon="30.0326299667"><time>2026-04-25T14:11:00Z</time></trkpt><trkpt lat="59.0744733810" lon="30.0326943398"><time>2026-04-25T14:11:03Z</time></trkpt><trkpt lat="59.0744733810" lon="30.0327587128"><time>2026-04-25T14:11:06Z</time></trkpt><trkpt lat="59.0744733810" lon="30.0328230858"><time>2026-04-25T14:11:08Z</time></trkpt><trkpt lat="59.0744733810" lon="30.0328230858"><time>2026-04-25T14:11:10Z</time></trkpt><trkpt lat="59.0744519234" lon="30.0328445435"><time>2026-04-25T14:11:13Z</time></trkpt><trkpt lat="59.0744090080" lon="30.0328660011"><time>2026-04-25T14:11:15Z</time></trkpt><trkpt lat="59.0744090080" lon="30.0328874588"><time>2026-04-25T14:11:18Z</time></trkpt><trkpt lat="59.0744090080" lon="30.0328874588"><time>2026-04-25T14:11:20Z</time></trkpt><trkpt lat="59.0744304657" lon="30.0329089165"><time>2026-04-25T14:11:23Z</time></trkpt><trkpt lat="59.0744090080" lon="30.0329518318"><time>2026-04-25T14:11:25Z</time></trkpt><trkpt lat="59.0744090080" lon="30.0329732895"><time>2026-04-25T14:11:28Z</time></trkpt><trkpt lat="59.0744304657" lon="30.0329732895"><time>2026-04-25T14:11:31Z</time></trkpt><trkpt lat="59.0744304657" lon="30.0329947472"><time>2026-04-25T14:11:33Z</time></trkpt><trkpt lat="59.0744519234" lon="30.0330805779"><time>2026-04-25T14:11:35Z</time></trkpt><trkpt lat="59.0744519234" lon="30.0331664085"><time>2026-04-25T14:11:38Z</time></trkpt><trkpt lat="59.0744304657" lon="30.0332307816"><time>2026-04-25T14:11:40Z</time></trkpt><trkpt lat="59.0744519234" lon="30.0332522392"><time>2026-04-25T14:11:43Z</time></trkpt><trkpt lat="59.0744519234" lon="30.0332736969"><time>2026-04-25T14:11:45Z</time></trkpt><trkpt lat="59.0744519234" lon="30.0332951546"><time>2026-04-25T14:11:48Z</time></trkpt><trkpt lat="59.0744519234" lon="30.0333380699"><time>2026-04-25T14:11:51Z</time></trkpt><trkpt lat="59.0744304657" lon="30.0333595276"><time>2026-04-25T14:11:53Z</time></trkpt><trkpt lat="59.0744304657" lon="30.0333380699"><time>2026-04-25T14:11:55Z</time></trkpt><trkpt lat="59.0744304657" lon="30.0333380699"><time>2026-04-25T14:11:58Z</time></trkpt><trkpt lat="59.0744304657" lon="30.0333380699"><time>2026-04-25T14:12:00Z</time></trkpt><trkpt lat="59.0744519234" lon="30.0333595276"><time>2026-04-25T14:12:03Z</time></trkpt><trkpt lat="59.0744733810" lon="30.0333380699"><time>2026-04-25T14:12:05Z</time></trkpt><trkpt lat="59.0744948387" lon="30.0333595276"><time>2026-04-25T14:12:08Z</time></trkpt><trkpt lat="59.0745162964" lon="30.0334024429"><time>2026-04-25T14:12:10Z</time></trkpt><trkpt lat="59.0745162964" lon="30.0334239006"><time>2026-04-25T14:12:13Z</time></trkpt><trkpt lat="59.0745162964" lon="30.0335097313"><time>2026-04-25T14:12:15Z</time></trkpt><trkpt lat="59.0744948387" lon="30.0336170197"><time>2026-04-25T14:12:18Z</time></trkpt><trkpt lat="59.0745162964" lon="30.0336813927"><time>2026-04-25T14:12:20Z</time></trkpt><trkpt lat="59.0745162964" lon="30.0336813927"><time>2026-04-25T14:12:23Z</time></trkpt><trkpt lat="59.0745162964" lon="30.0336599350"><time>2026-04-25T14:12:25Z</time></trkpt><trkpt lat="59.0745162964" lon="30.0336599350"><time>2026-04-25T14:12:28Z</time></trkpt><trkpt lat="59.0745162964" lon="30.0336599350"><time>2026-04-25T14:12:30Z</time></trkpt><trkpt lat="59.0745162964" lon="30.0336599350"><time>2026-04-25T14:12:33Z</time></trkpt><trkpt lat="59.0745162964" lon="30.0336599350"><time>2026-04-25T14:12:35Z</time></trkpt><trkpt lat="59.0745162964" lon="30.0336599350"><time>2026-04-25T14:12:38Z</time></trkpt><trkpt lat="59.0745162964" lon="30.0336599350"><time>2026-04-25T14:12:41Z</time></trkpt><trkpt lat="59.0745162964" lon="30.0336599350"><time>2026-04-25T14:12:43Z</time></trkpt><trkpt lat="59.0745162964" lon="30.0336599350"><time>2026-04-25T14:12:45Z</time></trkpt><trkpt lat="59.0745162964" lon="30.0336599350"><time>2026-04-25T14:12:48Z</time></trkpt><trkpt lat="59.0745162964" lon="30.0336599350"><time>2026-04-25T14:12:50Z</time></trkpt><trkpt lat="59.0745162964" lon="30.0336599350"><time>2026-04-25T14:12:53Z</time></trkpt><trkpt lat="59.0745162964" lon="30.0336599350"><time>2026-04-25T14:12:55Z</time></trkpt><trkpt lat="59.0745162964" lon="30.0336599350"><time>2026-04-25T14:12:58Z</time></trkpt><trkpt lat="59.0745162964" lon="30.0336599350"><time>2026-04-25T14:13:00Z</time></trkpt><trkpt lat="59.0745162964" lon="30.0336599350"><time>2026-04-25T14:13:03Z</time></trkpt><trkpt lat="59.0745162964" lon="30.0336599350"><time>2026-04-25T14:13:06Z</time></trkpt><trkpt lat="59.0745162964" lon="30.0336599350"><time>2026-04-25T14:13:08Z</time></trkpt><trkpt lat="59.0745162964" lon="30.0336599350"><time>2026-04-25T14:13:10Z</time></trkpt><trkpt lat="59.0745162964" lon="30.0336599350"><time>2026-04-25T14:13:13Z</time></trkpt><trkpt lat="59.0745162964" lon="30.0336599350"><time>2026-04-25T14:13:15Z</time></trkpt><trkpt lat="59.0745162964" lon="30.0336599350"><time>2026-04-25T14:13:18Z</time></trkpt><trkpt lat="59.0745162964" lon="30.0336599350"><time>2026-04-25T14:13:20Z</time></trkpt><trkpt lat="59.0745162964" lon="30.0336599350"><time>2026-04-25T14:13:23Z</time></trkpt><trkpt lat="59.0745162964" lon="30.0336599350"><time>2026-04-25T14:13:25Z</time></trkpt><trkpt lat="59.0745162964" lon="30.0336599350"><time>2026-04-25T14:13:28Z</time></trkpt><trkpt lat="59.0745162964" lon="30.0336813927"><time>2026-04-25T14:13:30Z</time></trkpt><trkpt lat="59.0745162964" lon="30.0337028503"><time>2026-04-25T14:13:33Z</time></trkpt><trkpt lat="59.0745162964" lon="30.0337028503"><time>2026-04-25T14:13:35Z</time></trkpt><trkpt lat="59.0745162964" lon="30.0337028503"><time>2026-04-25T14:13:38Z</time></trkpt><trkpt lat="59.0745162964" lon="30.0337028503"><time>2026-04-25T14:13:40Z</time></trkpt><trkpt lat="59.0745162964" lon="30.0337028503"><time>2026-04-25T14:13:43Z</time></trkpt><trkpt lat="59.0745162964" lon="30.0337028503"><time>2026-04-25T14:13:45Z</time></trkpt><trkpt lat="59.0745162964" lon="30.0337028503"><time>2026-04-25T14:13:48Z</time></trkpt><trkpt lat="59.0745162964" lon="30.0337028503"><time>2026-04-25T14:13:51Z</time></trkpt><trkpt lat="59.0745162964" lon="30.0337028503"><time>2026-04-25T14:13:53Z</time></trkpt><trkpt lat="59.0745162964" lon="30.0337028503"><time>2026-04-25T14:13:55Z</time></trkpt><trkpt lat="59.0745162964" lon="30.0337028503"><time>2026-04-25T14:13:58Z</time></trkpt><trkpt lat="59.0745162964" lon="30.0337028503"><time>2026-04-25T14:14:00Z</time></trkpt><trkpt lat="59.0745162964" lon="30.0337028503"><time>2026-04-25T14:14:03Z</time></trkpt><trkpt lat="59.0745162964" lon="30.0337028503"><time>2026-04-25T14:14:05Z</time></trkpt><trkpt lat="59.0745162964" lon="30.0337028503"><time>2026-04-25T14:14:08Z</time></trkpt><trkpt lat="59.0745162964" lon="30.0337028503"><time>2026-04-25T14:14:10Z</time></trkpt><trkpt lat="59.0745162964" lon="30.0337028503"><time>2026-04-25T14:14:13Z</time></trkpt><trkpt lat="59.0745162964" lon="30.0337028503"><time>2026-04-25T14:14:15Z</time></trkpt><trkpt lat="59.0745162964" lon="30.0337028503"><time>2026-04-25T14:14:18Z</time></trkpt><trkpt lat="59.0745162964" lon="30.0337028503"><time>2026-04-25T14:14:21Z</time></trkpt><trkpt lat="59.0745377541" lon="30.0337672234"><time>2026-04-25T14:14:23Z</time></trkpt><trkpt lat="59.0745592117" lon="30.0338315964"><time>2026-04-25T14:14:25Z</time></trkpt><trkpt lat="59.0745592117" lon="30.0338530540"><time>2026-04-25T14:14:28Z</time></trkpt><trkpt lat="59.0746021271" lon="30.0339388847"><time>2026-04-25T14:14:30Z</time></trkpt><trkpt lat="59.0745806694" lon="30.0339603424"><time>2026-04-25T14:14:33Z</time></trkpt><trkpt lat="59.0745806694" lon="30.0339603424"><time>2026-04-25T14:14:35Z</time></trkpt><trkpt lat="59.0746021271" lon="30.0339818001"><time>2026-04-25T14:14:38Z</time></trkpt><trkpt lat="59.0746021271" lon="30.0339818001"><time>2026-04-25T14:14:40Z</time></trkpt><trkpt lat="59.0746021271" lon="30.0339818001"><time>2026-04-25T14:14:43Z</time></trkpt><trkpt lat="59.0746021271" lon="30.0339818001"><time>2026-04-25T14:14:45Z</time></trkpt><trkpt lat="59.0746021271" lon="30.0339818001"><time>2026-04-25T14:14:48Z</time></trkpt><trkpt lat="59.0746021271" lon="30.0339818001"><time>2026-04-25T14:14:50Z</time></trkpt><trkpt lat="59.0746021271" lon="30.0339818001"><time>2026-04-25T14:14:53Z</time></trkpt><trkpt lat="59.0746021271" lon="30.0339818001"><time>2026-04-25T14:14:55Z</time></trkpt><trkpt lat="59.0746021271" lon="30.0339818001"><time>2026-04-25T14:14:58Z</time></trkpt><trkpt lat="59.0746021271" lon="30.0339818001"><time>2026-04-25T14:15:00Z</time></trkpt><trkpt lat="59.0746021271" lon="30.0339818001"><time>2026-04-25T14:15:03Z</time></trkpt><trkpt lat="59.0746021271" lon="30.0340461731"><time>2026-04-25T14:15:05Z</time></trkpt><trkpt lat="59.0746021271" lon="30.0340890884"><time>2026-04-25T14:15:08Z</time></trkpt><trkpt lat="59.0746021271" lon="30.0341534615"><time>2026-04-25T14:15:10Z</time></trkpt><trkpt lat="59.0746021271" lon="30.0341963768"><time>2026-04-25T14:15:13Z</time></trkpt><trkpt lat="59.0746021271" lon="30.0342607498"><time>2026-04-25T14:15:15Z</time></trkpt><trkpt lat="59.0746021271" lon="30.0342822075"><time>2026-04-25T14:15:18Z</time></trkpt><trkpt lat="59.0746021271" lon="30.0342822075"><time>2026-04-25T14:15:20Z</time></trkpt><trkpt lat="59.0746021271" lon="30.0343251228"><time>2026-04-25T14:15:23Z</time></trkpt><trkpt lat="59.0746235847" lon="30.0343465805"><time>2026-04-25T14:15:25Z</time></trkpt><trkpt lat="59.0746235847" lon="30.0343894958"><time>2026-04-25T14:15:28Z</time></trkpt><trkpt lat="59.0746450424" lon="30.0344324112"><time>2026-04-25T14:15:30Z</time></trkpt><trkpt lat="59.0746450424" lon="30.0344538689"><time>2026-04-25T14:15:33Z</time></trkpt><trkpt lat="59.0746450424" lon="30.0344538689"><time>2026-04-25T14:15:35Z</time></trkpt><trkpt lat="59.0746450424" lon="30.0344538689"><time>2026-04-25T14:15:38Z</time></trkpt><trkpt lat="59.0746450424" lon="30.0344538689"><time>2026-04-25T14:15:41Z</time></trkpt><trkpt lat="59.0746450424" lon="30.0344538689"><time>2026-04-25T14:15:43Z</time></trkpt><trkpt lat="59.0746450424" lon="30.0344538689"><time>2026-04-25T14:15:45Z</time></trkpt><trkpt lat="59.0746450424" lon="30.0344538689"><time>2026-04-25T14:15:48Z</time></trkpt><trkpt lat="59.0746450424" lon="30.0344538689"><time>2026-04-25T14:15:50Z</time></trkpt><trkpt lat="59.0746450424" lon="30.0345182419"><time>2026-04-25T14:15:53Z</time></trkpt><trkpt lat="59.0746450424" lon="30.0345396996"><time>2026-04-25T14:15:55Z</time></trkpt><trkpt lat="59.0746450424" lon="30.0345611572"><time>2026-04-25T14:15:58Z</time></trkpt><trkpt lat="59.0746450424" lon="30.0346040726"><time>2026-04-25T14:16:00Z</time></trkpt><trkpt lat="59.0746450424" lon="30.0346255302"><time>2026-04-25T14:16:03Z</time></trkpt><trkpt lat="59.0746450424" lon="30.0346684456"><time>2026-04-25T14:16:05Z</time></trkpt><trkpt lat="59.0746450424" lon="30.0346684456"><time>2026-04-25T14:16:08Z</time></trkpt><trkpt lat="59.0746665001" lon="30.0347113609"><time>2026-04-25T14:16:10Z</time></trkpt><trkpt lat="59.0746665001" lon="30.0347542763"><time>2026-04-25T14:16:13Z</time></trkpt><trkpt lat="59.0746665001" lon="30.0347971916"><time>2026-04-25T14:16:15Z</time></trkpt><trkpt lat="59.0746665001" lon="30.0348401070"><time>2026-04-25T14:16:18Z</time></trkpt><trkpt lat="59.0746665001" lon="30.0349044800"><time>2026-04-25T14:16:20Z</time></trkpt><trkpt lat="59.0746665001" lon="30.0349259377"><time>2026-04-25T14:16:23Z</time></trkpt><trkpt lat="59.0746450424" lon="30.0349259377"><time>2026-04-25T14:16:25Z</time></trkpt><trkpt lat="59.0746450424" lon="30.0349473953"><time>2026-04-25T14:16:28Z</time></trkpt><trkpt lat="59.0746450424" lon="30.0349903107"><time>2026-04-25T14:16:30Z</time></trkpt><trkpt lat="59.0746665001" lon="30.0350117683"><time>2026-04-25T14:16:33Z</time></trkpt><trkpt lat="59.0746665001" lon="30.0350546837"><time>2026-04-25T14:16:35Z</time></trkpt><trkpt lat="59.0746665001" lon="30.0350975990"><time>2026-04-25T14:16:38Z</time></trkpt><trkpt lat="59.0746879578" lon="30.0351190567"><time>2026-04-25T14:16:40Z</time></trkpt><trkpt lat="59.0746879578" lon="30.0351619720"><time>2026-04-25T14:16:43Z</time></trkpt><trkpt lat="59.0746879578" lon="30.0351619720"><time>2026-04-25T14:16:45Z</time></trkpt><trkpt lat="59.0746879578" lon="30.0351834297"><time>2026-04-25T14:16:48Z</time></trkpt><trkpt lat="59.0746879578" lon="30.0352263451"><time>2026-04-25T14:16:50Z</time></trkpt><trkpt lat="59.0746879578" lon="30.0352478027"><time>2026-04-25T14:16:53Z</time></trkpt><trkpt lat="59.0746879578" lon="30.0352907181"><time>2026-04-25T14:16:55Z</time></trkpt><trkpt lat="59.0746879578" lon="30.0353336334"><time>2026-04-25T14:16:58Z</time></trkpt><trkpt lat="59.0747094154" lon="30.0353550911"><time>2026-04-25T14:17:00Z</time></trkpt><trkpt lat="59.0747094154" lon="30.0353550911"><time>2026-04-25T14:17:03Z</time></trkpt><trkpt lat="59.0747094154" lon="30.0353765488"><time>2026-04-25T14:17:05Z</time></trkpt><trkpt lat="59.0746879578" lon="30.0353980064"><time>2026-04-25T14:17:08Z</time></trkpt><trkpt lat="59.0746879578" lon="30.0354623795"><time>2026-04-25T14:17:10Z</time></trkpt><trkpt lat="59.0746879578" lon="30.0355267525"><time>2026-04-25T14:17:13Z</time></trkpt><trkpt lat="59.0746879578" lon="30.0355911255"><time>2026-04-25T14:17:15Z</time></trkpt><trkpt lat="59.0746879578" lon="30.0356340408"><time>2026-04-25T14:17:18Z</time></trkpt><trkpt lat="59.0746879578" lon="30.0356554985"><time>2026-04-25T14:17:20Z</time></trkpt><trkpt lat="59.0746879578" lon="30.0356769562"><time>2026-04-25T14:17:23Z</time></trkpt><trkpt lat="59.0747094154" lon="30.0356554985"><time>2026-04-25T14:17:25Z</time></trkpt><trkpt lat="59.0747094154" lon="30.0356554985"><time>2026-04-25T14:17:28Z</time></trkpt><trkpt lat="59.0747094154" lon="30.0356769562"><time>2026-04-25T14:17:30Z</time></trkpt><trkpt lat="59.0747094154" lon="30.0356769562"><time>2026-04-25T14:17:33Z</time></trkpt><trkpt lat="59.0747094154" lon="30.0356769562"><time>2026-04-25T14:17:35Z</time></trkpt><trkpt lat="59.0747308731" lon="30.0356554985"><time>2026-04-25T14:17:38Z</time></trkpt><trkpt lat="59.0747523308" lon="30.0356554985"><time>2026-04-25T14:17:40Z</time></trkpt><trkpt lat="59.0747523308" lon="30.0356554985"><time>2026-04-25T14:17:43Z</time></trkpt><trkpt lat="59.0747737885" lon="30.0356554985"><time>2026-04-25T14:17:45Z</time></trkpt><trkpt lat="59.0747737885" lon="30.0356554985"><time>2026-04-25T14:17:48Z</time></trkpt><trkpt lat="59.0747737885" lon="30.0356554985"><time>2026-04-25T14:17:50Z</time></trkpt><trkpt lat="59.0747737885" lon="30.0356554985"><time>2026-04-25T14:17:53Z</time></trkpt><trkpt lat="59.0747737885" lon="30.0356554985"><time>2026-04-25T14:17:55Z</time></trkpt><trkpt lat="59.0747737885" lon="30.0356554985"><time>2026-04-25T14:17:58Z</time></trkpt><trkpt lat="59.0747737885" lon="30.0356554985"><time>2026-04-25T14:18:00Z</time></trkpt><trkpt lat="59.0747737885" lon="30.0356554985"><time>2026-04-25T14:18:03Z</time></trkpt><trkpt lat="59.0747737885" lon="30.0356554985"><time>2026-04-25T14:18:05Z</time></trkpt><trkpt lat="59.0747737885" lon="30.0356554985"><time>2026-04-25T14:18:08Z</time></trkpt><trkpt lat="59.0747737885" lon="30.0356554985"><time>2026-04-25T14:18:10Z</time></trkpt><trkpt lat="59.0747737885" lon="30.0356554985"><time>2026-04-25T14:18:13Z</time></trkpt><trkpt lat="59.0747737885" lon="30.0356554985"><time>2026-04-25T14:18:15Z</time></trkpt><trkpt lat="59.0747523308" lon="30.0356769562"><time>2026-04-25T14:18:18Z</time></trkpt><trkpt lat="59.0747308731" lon="30.0356984138"><time>2026-04-25T14:18:20Z</time></trkpt><trkpt lat="59.0747308731" lon="30.0357627869"><time>2026-04-25T14:18:23Z</time></trkpt><trkpt lat="59.0747308731" lon="30.0358057022"><time>2026-04-25T14:18:25Z</time></trkpt><trkpt lat="59.0747308731" lon="30.0358271599"><time>2026-04-25T14:18:28Z</time></trkpt><trkpt lat="59.0747308731" lon="30.0358271599"><time>2026-04-25T14:18:30Z</time></trkpt><trkpt lat="59.0747308731" lon="30.0358271599"><time>2026-04-25T14:18:33Z</time></trkpt><trkpt lat="59.0747308731" lon="30.0358700752"><time>2026-04-25T14:18:35Z</time></trkpt><trkpt lat="59.0747308731" lon="30.0358915329"><time>2026-04-25T14:18:38Z</time></trkpt><trkpt lat="59.0747523308" lon="30.0359344482"><time>2026-04-25T14:18:40Z</time></trkpt><trkpt lat="59.0747523308" lon="30.0359773636"><time>2026-04-25T14:18:43Z</time></trkpt><trkpt lat="59.0747523308" lon="30.0359988213"><time>2026-04-25T14:18:45Z</time></trkpt><trkpt lat="59.0747308731" lon="30.0360417366"><time>2026-04-25T14:18:48Z</time></trkpt><trkpt lat="59.0747308731" lon="30.0360631943"><time>2026-04-25T14:18:50Z</time></trkpt><trkpt lat="59.0747308731" lon="30.0360631943"><time>2026-04-25T14:18:53Z</time></trkpt><trkpt lat="59.0747094154" lon="30.0360846519"><time>2026-04-25T14:18:55Z</time></trkpt><trkpt lat="59.0747094154" lon="30.0361061096"><time>2026-04-25T14:18:58Z</time></trkpt><trkpt lat="59.0747094154" lon="30.0361061096"><time>2026-04-25T14:19:00Z</time></trkpt><trkpt lat="59.0746879578" lon="30.0361061096"><time>2026-04-25T14:19:03Z</time></trkpt><trkpt lat="59.0746665001" lon="30.0361061096"><time>2026-04-25T14:19:05Z</time></trkpt><trkpt lat="59.0746450424" lon="30.0361275673"><time>2026-04-25T14:19:08Z</time></trkpt><trkpt lat="59.0746450424" lon="30.0361275673"><time>2026-04-25T14:19:10Z</time></trkpt><trkpt lat="59.0746450424" lon="30.0361275673"><time>2026-04-25T14:19:13Z</time></trkpt><trkpt lat="59.0746450424" lon="30.0361275673"><time>2026-04-25T14:19:15Z</time></trkpt><trkpt lat="59.0746235847" lon="30.0361275673"><time>2026-04-25T14:19:18Z</time></trkpt><trkpt lat="59.0746021271" lon="30.0361490250"><time>2026-04-25T14:19:20Z</time></trkpt><trkpt lat="59.0745806694" lon="30.0361490250"><time>2026-04-25T14:19:23Z</time></trkpt><trkpt lat="59.0745592117" lon="30.0361275673"><time>2026-04-25T14:19:25Z</time></trkpt><trkpt lat="59.0745592117" lon="30.0361275673"><time>2026-04-25T14:19:28Z</time></trkpt><trkpt lat="59.0745377541" lon="30.0361490250"><time>2026-04-25T14:19:30Z</time></trkpt><trkpt lat="59.0745162964" lon="30.0361704826"><time>2026-04-25T14:19:33Z</time></trkpt><trkpt lat="59.0745162964" lon="30.0361704826"><time>2026-04-25T14:19:35Z</time></trkpt><trkpt lat="59.0744948387" lon="30.0361704826"><time>2026-04-25T14:19:38Z</time></trkpt><trkpt lat="59.0744733810" lon="30.0361919403"><time>2026-04-25T14:19:40Z</time></trkpt><trkpt lat="59.0744519234" lon="30.0362133980"><time>2026-04-25T14:19:43Z</time></trkpt><trkpt lat="59.0744519234" lon="30.0362348557"><time>2026-04-25T14:19:45Z</time></trkpt><trkpt lat="59.0744304657" lon="30.0362348557"><time>2026-04-25T14:19:48Z</time></trkpt><trkpt lat="59.0744090080" lon="30.0362563133"><time>2026-04-25T14:19:50Z</time></trkpt><trkpt lat="59.0744090080" lon="30.0362348557"><time>2026-04-25T14:19:53Z</time></trkpt><trkpt lat="59.0743875504" lon="30.0362777710"><time>2026-04-25T14:19:55Z</time></trkpt><trkpt lat="59.0743660927" lon="30.0362992287"><time>2026-04-25T14:19:58Z</time></trkpt><trkpt lat="59.0743446350" lon="30.0362992287"><time>2026-04-25T14:20:00Z</time></trkpt><trkpt lat="59.0743231773" lon="30.0362992287"><time>2026-04-25T14:20:03Z</time></trkpt><trkpt lat="59.0743017197" lon="30.0363421440"><time>2026-04-25T14:20:05Z</time></trkpt><trkpt lat="59.0742802620" lon="30.0363636017"><time>2026-04-25T14:20:08Z</time></trkpt><trkpt lat="59.0742802620" lon="30.0363850594"><time>2026-04-25T14:20:10Z</time></trkpt><trkpt lat="59.0742802620" lon="30.0364279747"><time>2026-04-25T14:20:13Z</time></trkpt><trkpt lat="59.0742802620" lon="30.0364065170"><time>2026-04-25T14:20:15Z</time></trkpt><trkpt lat="59.0742588043" lon="30.0363636017"><time>2026-04-25T14:20:18Z</time></trkpt><trkpt lat="59.0742373466" lon="30.0362777710"><time>2026-04-25T14:20:20Z</time></trkpt><trkpt lat="59.0742373466" lon="30.0362348557"><time>2026-04-25T14:20:23Z</time></trkpt><trkpt lat="59.0742588043" lon="30.0361704826"><time>2026-04-25T14:20:25Z</time></trkpt><trkpt lat="59.0742373466" lon="30.0361490250"><time>2026-04-25T14:20:28Z</time></trkpt><trkpt lat="59.0742158890" lon="30.0361490250"><time>2026-04-25T14:20:30Z</time></trkpt><trkpt lat="59.0742373466" lon="30.0361061096"><time>2026-04-25T14:20:33Z</time></trkpt><trkpt lat="59.0742373466" lon="30.0360417366"><time>2026-04-25T14:20:35Z</time></trkpt><trkpt lat="59.0742158890" lon="30.0360202789"><time>2026-04-25T14:20:38Z</time></trkpt><trkpt lat="59.0742158890" lon="30.0359988213"><time>2026-04-25T14:20:40Z</time></trkpt><trkpt lat="59.0742158890" lon="30.0359559059"><time>2026-04-25T14:20:43Z</time></trkpt><trkpt lat="59.0741944313" lon="30.0359559059"><time>2026-04-25T14:20:45Z</time></trkpt><trkpt lat="59.0741944313" lon="30.0359559059"><time>2026-04-25T14:20:48Z</time></trkpt><trkpt lat="59.0741944313" lon="30.0359559059"><time>2026-04-25T14:20:50Z</time></trkpt></trkseg></trk></gpx>